<?xml version='1.0' encoding='UTF-8'?><gpx version="1.1" creator="JPX - https://github.com/jenetics/jpx" xmlns="http://www.topografix.com/GPX/1/1"><trk><trkseg><trkpt lat="53.3471063" lon="-1.5657789"><ele>350.0</ele><time>2026-04-18T05:23:33.961Z</time></trkpt><trkpt lat="53.3470525" lon="-1.56585"><ele>350.0</ele><time>2026-04-18T05:39:46.966Z</time></trkpt><trkpt lat="53.3469591" lon="-1.5658861"><ele>350.0</ele><time>2026-04-18T05:40:10.965Z</time></trkpt><trkpt lat="53.3468365" lon="-1.565943"><ele>350.0</ele><time>2026-04-18T05:40:12.97Z</time></trkpt><trkpt lat="53.3467661" lon="-1.5659869"><ele>350.0</ele><time>2026-04-18T05:40:13.967Z</time></trkpt><trkpt lat="53.3466976" lon="-1.5660305"><ele>350.0</ele><time>2026-04-18T05:40:14.966Z</time></trkpt><trkpt lat="53.3466254" lon="-1.5660689"><ele>350.0</ele><time>2026-04-18T05:40:15.963Z</time></trkpt><trkpt lat="53.3465505" lon="-1.5660989"><ele>350.0</ele><time>2026-04-18T05:40:16.964Z</time></trkpt><trkpt lat="53.3464613" lon="-1.5661176"><ele>350.0</ele><time>2026-04-18T05:40:17.965Z</time></trkpt><trkpt lat="53.3463649" lon="-1.5661441"><ele>350.0</ele><time>2026-04-18T05:40:18.965Z</time></trkpt><trkpt lat="53.3462623" lon="-1.5661936"><ele>350.0</ele><time>2026-04-18T05:40:19.966Z</time></trkpt><trkpt lat="53.3461562" lon="-1.5662636"><ele>352.8</ele><time>2026-04-18T05:40:20.966Z</time></trkpt><trkpt lat="53.3460516" lon="-1.5663411"><ele>355.6</ele><time>2026-04-18T05:40:21.967Z</time></trkpt><trkpt lat="53.3459655" lon="-1.5664032"><ele>358.4</ele><time>2026-04-18T05:40:22.968Z</time></trkpt><trkpt lat="53.3458859" lon="-1.566454"><ele>361.2</ele><time>2026-04-18T05:40:23.967Z</time></trkpt><trkpt lat="53.3458113" lon="-1.5665041"><ele>364.0</ele><time>2026-04-18T05:40:24.97Z</time></trkpt><trkpt lat="53.3457371" lon="-1.5665605"><ele>364.0</ele><time>2026-04-18T05:40:25.968Z</time></trkpt><trkpt lat="53.3456655" lon="-1.5666149"><ele>364.0</ele><time>2026-04-18T05:40:26.967Z</time></trkpt><trkpt lat="53.3455928" lon="-1.5666583"><ele>364.0</ele><time>2026-04-18T05:40:27.966Z</time></trkpt><trkpt lat="53.3455213" lon="-1.5667011"><ele>364.0</ele><time>2026-04-18T05:40:28.967Z</time></trkpt><trkpt lat="53.3454515" lon="-1.5667416"><ele>364.0</ele><time>2026-04-18T05:40:29.968Z</time></trkpt><trkpt lat="53.3453759" lon="-1.5667862"><ele>364.0</ele><time>2026-04-18T05:40:30.969Z</time></trkpt><trkpt lat="53.345289" lon="-1.566835"><ele>364.0</ele><time>2026-04-18T05:40:31.968Z</time></trkpt><trkpt lat="53.3452018" lon="-1.5668801"><ele>364.0</ele><time>2026-04-18T05:40:32.968Z</time></trkpt><trkpt lat="53.3451158" lon="-1.5669104"><ele>364.0</ele><time>2026-04-18T05:40:33.971Z</time></trkpt><trkpt lat="53.3450311" lon="-1.5669451"><ele>364.0</ele><time>2026-04-18T05:40:34.969Z</time></trkpt><trkpt lat="53.3449496" lon="-1.566975"><ele>364.0</ele><time>2026-04-18T05:40:35.972Z</time></trkpt><trkpt lat="53.3448709" lon="-1.5670266"><ele>364.0</ele><time>2026-04-18T05:40:36.972Z</time></trkpt><trkpt lat="53.3448026" lon="-1.5670904"><ele>365.0</ele><time>2026-04-18T05:40:37.971Z</time></trkpt><trkpt lat="53.3447058" lon="-1.5671811"><ele>366.0</ele><time>2026-04-18T05:40:39.971Z</time></trkpt><trkpt lat="53.3446381" lon="-1.5672318"><ele>367.0</ele><time>2026-04-18T05:40:41.967Z</time></trkpt><trkpt lat="53.3445771" lon="-1.5672867"><ele>368.0</ele><time>2026-04-18T05:40:43.97Z</time></trkpt><trkpt lat="53.3445113" lon="-1.5673237"><ele>369.0</ele><time>2026-04-18T05:40:46.97Z</time></trkpt><trkpt lat="53.3445421" lon="-1.5671974"><ele>370.0</ele><time>2026-04-18T05:40:50.972Z</time></trkpt><trkpt lat="53.3446057" lon="-1.5671678"><ele>370.0</ele><time>2026-04-18T05:40:53.97Z</time></trkpt><trkpt lat="53.344558" lon="-1.5673198"><ele>370.0</ele><time>2026-04-18T05:40:57.967Z</time></trkpt><trkpt lat="53.3444989" lon="-1.5673702"><ele>370.0</ele><time>2026-04-18T05:40:58.969Z</time></trkpt><trkpt lat="53.3444264" lon="-1.5674339"><ele>370.0</ele><time>2026-04-18T05:40:59.97Z</time></trkpt><trkpt lat="53.3443482" lon="-1.5675014"><ele>370.0</ele><time>2026-04-18T05:41:00.968Z</time></trkpt><trkpt lat="53.344267" lon="-1.5675781"><ele>370.0</ele><time>2026-04-18T05:41:01.968Z</time></trkpt><trkpt lat="53.3441881" lon="-1.5676521"><ele>370.0</ele><time>2026-04-18T05:41:02.973Z</time></trkpt><trkpt lat="53.3441129" lon="-1.5677236"><ele>370.0</ele><time>2026-04-18T05:41:03.97Z</time></trkpt><trkpt lat="53.3440331" lon="-1.5677933"><ele>370.0</ele><time>2026-04-18T05:41:04.969Z</time></trkpt><trkpt lat="53.3439441" lon="-1.5678672"><ele>370.0</ele><time>2026-04-18T05:41:05.972Z</time></trkpt><trkpt lat="53.3438482" lon="-1.5679408"><ele>370.0</ele><time>2026-04-18T05:41:06.973Z</time></trkpt><trkpt lat="53.3437448" lon="-1.5680177"><ele>371.25</ele><time>2026-04-18T05:41:07.97Z</time></trkpt><trkpt lat="53.343629" lon="-1.5680999"><ele>372.5</ele><time>2026-04-18T05:41:08.97Z</time></trkpt><trkpt lat="53.3435056" lon="-1.5681912"><ele>373.75</ele><time>2026-04-18T05:41:09.969Z</time></trkpt><trkpt lat="53.3433802" lon="-1.5682911"><ele>375.0</ele><time>2026-04-18T05:41:10.971Z</time></trkpt><trkpt lat="53.3432573" lon="-1.5683945"><ele>375.0</ele><time>2026-04-18T05:41:11.976Z</time></trkpt><trkpt lat="53.3431399" lon="-1.5684928"><ele>375.0</ele><time>2026-04-18T05:41:12.97Z</time></trkpt><trkpt lat="53.3430251" lon="-1.5685915"><ele>375.0</ele><time>2026-04-18T05:41:13.973Z</time></trkpt><trkpt lat="53.34291" lon="-1.5686977"><ele>375.0</ele><time>2026-04-18T05:41:14.97Z</time></trkpt><trkpt lat="53.3427957" lon="-1.5688021"><ele>375.0</ele><time>2026-04-18T05:41:15.973Z</time></trkpt><trkpt lat="53.3426831" lon="-1.5689038"><ele>375.0</ele><time>2026-04-18T05:41:16.971Z</time></trkpt><trkpt lat="53.3425723" lon="-1.5690058"><ele>375.0</ele><time>2026-04-18T05:41:17.967Z</time></trkpt><trkpt lat="53.3424689" lon="-1.5691018"><ele>375.0</ele><time>2026-04-18T05:41:18.968Z</time></trkpt><trkpt lat="53.342383" lon="-1.5691812"><ele>375.0</ele><time>2026-04-18T05:41:19.967Z</time></trkpt><trkpt lat="53.3423163" lon="-1.5692377"><ele>375.0</ele><time>2026-04-18T05:41:20.969Z</time></trkpt><trkpt lat="53.3422282" lon="-1.569294"><ele>375.0</ele><time>2026-04-18T05:41:22.971Z</time></trkpt><trkpt lat="53.3421595" lon="-1.5693167"><ele>375.0</ele><time>2026-04-18T05:41:29.97Z</time></trkpt><trkpt lat="53.3420974" lon="-1.5693753"><ele>375.0</ele><time>2026-04-18T05:42:01.972Z</time></trkpt><trkpt lat="53.3419938" lon="-1.5694493"><ele>375.0</ele><time>2026-04-18T05:42:03.97Z</time></trkpt><trkpt lat="53.3419342" lon="-1.5694907"><ele>375.5714285714286</ele><time>2026-04-18T05:42:04.967Z</time></trkpt><trkpt lat="53.3418687" lon="-1.5695395"><ele>376.1428571428571</ele><time>2026-04-18T05:42:05.972Z</time></trkpt><trkpt lat="53.3418047" lon="-1.5695858"><ele>376.7142857142857</ele><time>2026-04-18T05:42:06.971Z</time></trkpt><trkpt lat="53.3417448" lon="-1.5696292"><ele>377.28571428571433</ele><time>2026-04-18T05:42:07.97Z</time></trkpt><trkpt lat="53.341687" lon="-1.5696736"><ele>377.8571428571429</ele><time>2026-04-18T05:42:08.963Z</time></trkpt><trkpt lat="53.341629" lon="-1.5697235"><ele>378.42857142857144</ele><time>2026-04-18T05:42:09.972Z</time></trkpt><trkpt lat="53.3415707" lon="-1.5697708"><ele>379.0</ele><time>2026-04-18T05:42:10.969Z</time></trkpt><trkpt lat="53.3414625" lon="-1.5698734"><ele>379.0</ele><time>2026-04-18T05:42:12.964Z</time></trkpt><trkpt lat="53.3414066" lon="-1.5699249"><ele>379.0</ele><time>2026-04-18T05:42:13.969Z</time></trkpt><trkpt lat="53.3413477" lon="-1.5699736"><ele>379.0</ele><time>2026-04-18T05:42:14.97Z</time></trkpt><trkpt lat="53.3412882" lon="-1.5700212"><ele>379.0</ele><time>2026-04-18T05:42:15.971Z</time></trkpt><trkpt lat="53.3412295" lon="-1.5700679"><ele>379.0</ele><time>2026-04-18T05:42:16.969Z</time></trkpt><trkpt lat="53.3411146" lon="-1.5701509"><ele>379.0</ele><time>2026-04-18T05:42:18.972Z</time></trkpt><trkpt lat="53.3410563" lon="-1.5701979"><ele>379.14285714285717</ele><time>2026-04-18T05:42:19.971Z</time></trkpt><trkpt lat="53.3409965" lon="-1.5702477"><ele>379.2857142857143</ele><time>2026-04-18T05:42:20.97Z</time></trkpt><trkpt lat="53.3409357" lon="-1.5702986"><ele>379.42857142857144</ele><time>2026-04-18T05:42:21.971Z</time></trkpt><trkpt lat="53.3408742" lon="-1.5703462"><ele>379.57142857142856</ele><time>2026-04-18T05:42:22.972Z</time></trkpt><trkpt lat="53.3408136" lon="-1.5703942"><ele>379.7142857142857</ele><time>2026-04-18T05:42:23.97Z</time></trkpt><trkpt lat="53.3407522" lon="-1.5704405"><ele>379.8571428571429</ele><time>2026-04-18T05:42:24.969Z</time></trkpt><trkpt lat="53.3406914" lon="-1.570487"><ele>380.0</ele><time>2026-04-18T05:42:25.971Z</time></trkpt><trkpt lat="53.3406331" lon="-1.5705362"><ele>380.0</ele><time>2026-04-18T05:42:26.974Z</time></trkpt><trkpt lat="53.3405721" lon="-1.5705911"><ele>380.0</ele><time>2026-04-18T05:42:27.973Z</time></trkpt><trkpt lat="53.3405083" lon="-1.5706548"><ele>380.0</ele><time>2026-04-18T05:42:28.97Z</time></trkpt><trkpt lat="53.3404495" lon="-1.5707223"><ele>380.0</ele><time>2026-04-18T05:42:29.971Z</time></trkpt><trkpt lat="53.3403987" lon="-1.5707909"><ele>380.0</ele><time>2026-04-18T05:42:30.971Z</time></trkpt><trkpt lat="53.3403208" lon="-1.5709354"><ele>380.0</ele><time>2026-04-18T05:42:32.975Z</time></trkpt><trkpt lat="53.3402797" lon="-1.5710614"><ele>379.33333333333337</ele><time>2026-04-18T05:42:34.97Z</time></trkpt><trkpt lat="53.3402419" lon="-1.5711529"><ele>378.6666666666667</ele><time>2026-04-18T05:42:37.975Z</time></trkpt><trkpt lat="53.3401792" lon="-1.5712599"><ele>378.0</ele><time>2026-04-18T05:42:39.972Z</time></trkpt><trkpt lat="53.3401225" lon="-1.5713897"><ele>377.3333333333333</ele><time>2026-04-18T05:42:41.971Z</time></trkpt><trkpt lat="53.3400837" lon="-1.5714855"><ele>376.66666666666663</ele><time>2026-04-18T05:42:43.97Z</time></trkpt><trkpt lat="53.3400187" lon="-1.5715597"><ele>376.0</ele><time>2026-04-18T05:42:47.971Z</time></trkpt><trkpt lat="53.3399597" lon="-1.5717005"><ele>376.0</ele><time>2026-04-18T05:42:51.975Z</time></trkpt><trkpt lat="53.3399246" lon="-1.5718243"><ele>376.0</ele><time>2026-04-18T05:42:52.974Z</time></trkpt><trkpt lat="53.3398712" lon="-1.5719768"><ele>376.0</ele><time>2026-04-18T05:42:53.976Z</time></trkpt><trkpt lat="53.3398021" lon="-1.5721459"><ele>376.0</ele><time>2026-04-18T05:42:54.966Z</time></trkpt><trkpt lat="53.3397334" lon="-1.5723361"><ele>376.0</ele><time>2026-04-18T05:42:55.97Z</time></trkpt><trkpt lat="53.339664" lon="-1.5725033"><ele>375.8</ele><time>2026-04-18T05:42:56.97Z</time></trkpt><trkpt lat="53.3395914" lon="-1.5726535"><ele>375.6</ele><time>2026-04-18T05:42:57.973Z</time></trkpt><trkpt lat="53.3395274" lon="-1.5727884"><ele>375.4</ele><time>2026-04-18T05:42:58.971Z</time></trkpt><trkpt lat="53.3394789" lon="-1.5728958"><ele>375.2</ele><time>2026-04-18T05:42:59.971Z</time></trkpt><trkpt lat="53.3394177" lon="-1.5730242"><ele>375.0</ele><time>2026-04-18T05:43:01.972Z</time></trkpt><trkpt lat="53.3394616" lon="-1.5729191"><ele>375.0</ele><time>2026-04-18T05:43:46.97Z</time></trkpt><trkpt lat="53.3395252" lon="-1.5727186"><ele>375.0</ele><time>2026-04-18T05:43:48.975Z</time></trkpt><trkpt lat="53.339578" lon="-1.5726"><ele>375.0</ele><time>2026-04-18T05:43:49.971Z</time></trkpt><trkpt lat="53.3396416" lon="-1.5724905"><ele>375.0</ele><time>2026-04-18T05:43:50.97Z</time></trkpt><trkpt lat="53.3397113" lon="-1.5723808"><ele>375.0</ele><time>2026-04-18T05:43:51.97Z</time></trkpt><trkpt lat="53.3397878" lon="-1.572259"><ele>375.2</ele><time>2026-04-18T05:43:52.972Z</time></trkpt><trkpt lat="53.3398619" lon="-1.5721228"><ele>375.4</ele><time>2026-04-18T05:43:53.971Z</time></trkpt><trkpt lat="53.3399297" lon="-1.5719784"><ele>375.6</ele><time>2026-04-18T05:43:54.969Z</time></trkpt><trkpt lat="53.3399875" lon="-1.5718311"><ele>375.8</ele><time>2026-04-18T05:43:55.969Z</time></trkpt><trkpt lat="53.3400271" lon="-1.5716966"><ele>376.0</ele><time>2026-04-18T05:43:56.969Z</time></trkpt><trkpt lat="53.3400465" lon="-1.5715839"><ele>376.0</ele><time>2026-04-18T05:43:57.97Z</time></trkpt><trkpt lat="53.3400003" lon="-1.5714233"><ele>376.0</ele><time>2026-04-18T05:43:59.975Z</time></trkpt><trkpt lat="53.3399152" lon="-1.5713253"><ele>376.0</ele><time>2026-04-18T05:44:01.97Z</time></trkpt><trkpt lat="53.3398271" lon="-1.571227"><ele>376.0</ele><time>2026-04-18T05:44:03.978Z</time></trkpt><trkpt lat="53.3397427" lon="-1.571111"><ele>376.0</ele><time>2026-04-18T05:44:05.979Z</time></trkpt><trkpt lat="53.3396516" lon="-1.5710079"><ele>374.20000000000005</ele><time>2026-04-18T05:44:07.976Z</time></trkpt><trkpt lat="53.3395634" lon="-1.5709233"><ele>372.40000000000003</ele><time>2026-04-18T05:44:09.976Z</time></trkpt><trkpt lat="53.3394995" lon="-1.5708593"><ele>370.6</ele><time>2026-04-18T05:44:11.971Z</time></trkpt><trkpt lat="53.3394295" lon="-1.5708017"><ele>368.8</ele><time>2026-04-18T05:44:14.975Z</time></trkpt><trkpt lat="53.339341" lon="-1.5707474"><ele>367.0</ele><time>2026-04-18T05:44:17.975Z</time></trkpt><trkpt lat="53.3392456" lon="-1.570674"><ele>367.0</ele><time>2026-04-18T05:44:19.972Z</time></trkpt><trkpt lat="53.3391346" lon="-1.5705833"><ele>367.0</ele><time>2026-04-18T05:44:21.975Z</time></trkpt><trkpt lat="53.3390459" lon="-1.5704841"><ele>367.0</ele><time>2026-04-18T05:44:23.976Z</time></trkpt><trkpt lat="53.3389684" lon="-1.5704207"><ele>367.0</ele><time>2026-04-18T05:44:25.976Z</time></trkpt><trkpt lat="53.3388758" lon="-1.5703775"><ele>367.0</ele><time>2026-04-18T05:44:27.972Z</time></trkpt><trkpt lat="53.3387751" lon="-1.5703348"><ele>364.66666666666663</ele><time>2026-04-18T05:44:29.976Z</time></trkpt><trkpt lat="53.3386752" lon="-1.5702546"><ele>362.3333333333333</ele><time>2026-04-18T05:44:31.98Z</time></trkpt><trkpt lat="53.3385892" lon="-1.5701851"><ele>360.0</ele><time>2026-04-18T05:44:33.977Z</time></trkpt><trkpt lat="53.3385081" lon="-1.5701145"><ele>357.6666666666667</ele><time>2026-04-18T05:44:35.978Z</time></trkpt><trkpt lat="53.3384506" lon="-1.5700625"><ele>355.33333333333337</ele><time>2026-04-18T05:44:37.98Z</time></trkpt><trkpt lat="53.3383785" lon="-1.5699907"><ele>353.0</ele><time>2026-04-18T05:44:40.976Z</time></trkpt><trkpt lat="53.3383" lon="-1.5699237"><ele>353.0</ele><time>2026-04-18T05:44:43.976Z</time></trkpt><trkpt lat="53.3382188" lon="-1.5698679"><ele>353.0</ele><time>2026-04-18T05:44:46.975Z</time></trkpt><trkpt lat="53.33814" lon="-1.569804"><ele>353.0</ele><time>2026-04-18T05:44:49.976Z</time></trkpt><trkpt lat="53.3381012" lon="-1.5696704"><ele>353.0</ele><time>2026-04-18T05:44:52.977Z</time></trkpt><trkpt lat="53.3380978" lon="-1.5695281"><ele>353.0</ele><time>2026-04-18T05:44:55.973Z</time></trkpt><trkpt lat="53.3380813" lon="-1.5693679"><ele>353.0</ele><time>2026-04-18T05:44:58.975Z</time></trkpt><trkpt lat="53.3380609" lon="-1.5692625"><ele>350.6666666666667</ele><time>2026-04-18T05:45:00.97Z</time></trkpt><trkpt lat="53.3380275" lon="-1.5691266"><ele>348.33333333333337</ele><time>2026-04-18T05:45:03.975Z</time></trkpt><trkpt lat="53.3380017" lon="-1.5689723"><ele>346.0</ele><time>2026-04-18T05:45:05.975Z</time></trkpt><trkpt lat="53.3379817" lon="-1.5688422"><ele>343.6666666666667</ele><time>2026-04-18T05:45:07.975Z</time></trkpt><trkpt lat="53.3379604" lon="-1.5687319"><ele>341.3333333333333</ele><time>2026-04-18T05:45:09.972Z</time></trkpt><trkpt lat="53.3379358" lon="-1.5685966"><ele>339.0</ele><time>2026-04-18T05:45:11.974Z</time></trkpt><trkpt lat="53.3378949" lon="-1.5684247"><ele>337.6</ele><time>2026-04-18T05:45:13.975Z</time></trkpt><trkpt lat="53.3378708" lon="-1.56832"><ele>336.2</ele><time>2026-04-18T05:45:14.976Z</time></trkpt><trkpt lat="53.3378121" lon="-1.5681637"><ele>334.8</ele><time>2026-04-18T05:45:16.98Z</time></trkpt><trkpt lat="53.337798" lon="-1.5679844"><ele>333.40000000000003</ele><time>2026-04-18T05:45:18.975Z</time></trkpt><trkpt lat="53.3377832" lon="-1.5678052"><ele>332.0</ele><time>2026-04-18T05:45:20.969Z</time></trkpt><trkpt lat="53.337766" lon="-1.5676577"><ele>331.0</ele><time>2026-04-18T05:45:22.973Z</time></trkpt><trkpt lat="53.3377531" lon="-1.5674759"><ele>330.0</ele><time>2026-04-18T05:45:24.974Z</time></trkpt><trkpt lat="53.3377514" lon="-1.5672745"><ele>329.0</ele><time>2026-04-18T05:45:26.971Z</time></trkpt><trkpt lat="53.3377304" lon="-1.5671148"><ele>328.0</ele><time>2026-04-18T05:45:28.979Z</time></trkpt><trkpt lat="53.3377005" lon="-1.566984"><ele>327.0</ele><time>2026-04-18T05:45:30.973Z</time></trkpt><trkpt lat="53.3376573" lon="-1.566851"><ele>327.0</ele><time>2026-04-18T05:45:33.97Z</time></trkpt><trkpt lat="53.3376025" lon="-1.5667404"><ele>327.0</ele><time>2026-04-18T05:45:36.973Z</time></trkpt><trkpt lat="53.3376669" lon="-1.5667456"><ele>327.0</ele><time>2026-04-18T05:45:42.969Z</time></trkpt><trkpt lat="53.3376611" lon="-1.5668542"><ele>327.0</ele><time>2026-04-18T05:46:33.973Z</time></trkpt><trkpt lat="53.3376811" lon="-1.5670741"><ele>327.0</ele><time>2026-04-18T05:46:35.972Z</time></trkpt><trkpt lat="53.3376976" lon="-1.5672007"><ele>327.0</ele><time>2026-04-18T05:46:36.97Z</time></trkpt><trkpt lat="53.3377115" lon="-1.5673173"><ele>327.0</ele><time>2026-04-18T05:46:37.971Z</time></trkpt><trkpt lat="53.3377255" lon="-1.5675098"><ele>327.0</ele><time>2026-04-18T05:46:39.974Z</time></trkpt><trkpt lat="53.337738" lon="-1.5676937"><ele>327.0</ele><time>2026-04-18T05:46:41.971Z</time></trkpt><trkpt lat="53.3377714" lon="-1.567891"><ele>327.0</ele><time>2026-04-18T05:46:43.975Z</time></trkpt><trkpt lat="53.3377875" lon="-1.5680038"><ele>327.0</ele><time>2026-04-18T05:46:44.971Z</time></trkpt><trkpt lat="53.3378049" lon="-1.5681176"><ele>328.0</ele><time>2026-04-18T05:46:45.97Z</time></trkpt><trkpt lat="53.3378226" lon="-1.5682275"><ele>329.0</ele><time>2026-04-18T05:46:46.97Z</time></trkpt><trkpt lat="53.3378509" lon="-1.5684166"><ele>330.0</ele><time>2026-04-18T05:46:48.969Z</time></trkpt><trkpt lat="53.337894" lon="-1.5685911"><ele>331.0</ele><time>2026-04-18T05:46:50.974Z</time></trkpt><trkpt lat="53.3379351" lon="-1.5687612"><ele>332.0</ele><time>2026-04-18T05:46:52.979Z</time></trkpt><trkpt lat="53.3379737" lon="-1.5689439"><ele>333.40000000000003</ele><time>2026-04-18T05:46:54.975Z</time></trkpt><trkpt lat="53.3380157" lon="-1.5691169"><ele>334.8</ele><time>2026-04-18T05:46:56.975Z</time></trkpt><trkpt lat="53.3380453" lon="-1.5693084"><ele>336.2</ele><time>2026-04-18T05:46:58.973Z</time></trkpt><trkpt lat="53.3380859" lon="-1.5694741"><ele>337.6</ele><time>2026-04-18T05:47:00.973Z</time></trkpt><trkpt lat="53.338124" lon="-1.5696199"><ele>339.0</ele><time>2026-04-18T05:47:02.975Z</time></trkpt><trkpt lat="53.3381669" lon="-1.56975"><ele>341.3333333333333</ele><time>2026-04-18T05:47:04.971Z</time></trkpt><trkpt lat="53.3382136" lon="-1.5698453"><ele>343.6666666666667</ele><time>2026-04-18T05:47:06.978Z</time></trkpt><trkpt lat="53.3382757" lon="-1.5698889"><ele>346.0</ele><time>2026-04-18T05:47:08.971Z</time></trkpt><trkpt lat="53.3383571" lon="-1.5699304"><ele>348.33333333333337</ele><time>2026-04-18T05:47:10.969Z</time></trkpt><trkpt lat="53.3384329" lon="-1.5700088"><ele>350.6666666666667</ele><time>2026-04-18T05:47:12.974Z</time></trkpt><trkpt lat="53.3385146" lon="-1.5700975"><ele>353.0</ele><time>2026-04-18T05:47:14.974Z</time></trkpt><trkpt lat="53.3386004" lon="-1.5701925"><ele>353.0</ele><time>2026-04-18T05:47:16.971Z</time></trkpt><trkpt lat="53.3386925" lon="-1.570283"><ele>353.0</ele><time>2026-04-18T05:47:18.973Z</time></trkpt><trkpt lat="53.3387968" lon="-1.57037"><ele>353.0</ele><time>2026-04-18T05:47:20.977Z</time></trkpt><trkpt lat="53.3389161" lon="-1.5704403"><ele>353.0</ele><time>2026-04-18T05:47:22.976Z</time></trkpt><trkpt lat="53.3389788" lon="-1.5704718"><ele>353.0</ele><time>2026-04-18T05:47:23.976Z</time></trkpt><trkpt lat="53.3390956" lon="-1.5705386"><ele>355.79999999999995</ele><time>2026-04-18T05:47:25.974Z</time></trkpt><trkpt lat="53.3391971" lon="-1.5706343"><ele>358.6</ele><time>2026-04-18T05:47:27.976Z</time></trkpt><trkpt lat="53.3393068" lon="-1.5707444"><ele>361.4</ele><time>2026-04-18T05:47:29.976Z</time></trkpt><trkpt lat="53.3393707" lon="-1.570795"><ele>364.20000000000005</ele><time>2026-04-18T05:47:30.973Z</time></trkpt><trkpt lat="53.3394361" lon="-1.5708416"><ele>367.0</ele><time>2026-04-18T05:47:31.977Z</time></trkpt><trkpt lat="53.3394996" lon="-1.5708801"><ele>367.0</ele><time>2026-04-18T05:47:32.979Z</time></trkpt><trkpt lat="53.3395569" lon="-1.5709259"><ele>367.0</ele><time>2026-04-18T05:47:33.978Z</time></trkpt><trkpt lat="53.3396108" lon="-1.5709847"><ele>367.0</ele><time>2026-04-18T05:47:34.975Z</time></trkpt><trkpt lat="53.3397118" lon="-1.5711023"><ele>367.0</ele><time>2026-04-18T05:47:36.977Z</time></trkpt><trkpt lat="53.3397628" lon="-1.5711707"><ele>367.0</ele><time>2026-04-18T05:47:37.977Z</time></trkpt><trkpt lat="53.3398176" lon="-1.5712453"><ele>367.0</ele><time>2026-04-18T05:47:38.975Z</time></trkpt><trkpt lat="53.3398713" lon="-1.5713193"><ele>368.5</ele><time>2026-04-18T05:47:39.975Z</time></trkpt><trkpt lat="53.3399202" lon="-1.5713929"><ele>370.0</ele><time>2026-04-18T05:47:40.972Z</time></trkpt><trkpt lat="53.3399661" lon="-1.5714717"><ele>371.5</ele><time>2026-04-18T05:47:41.972Z</time></trkpt><trkpt lat="53.3400324" lon="-1.5716081"><ele>373.0</ele><time>2026-04-18T05:47:43.973Z</time></trkpt><trkpt lat="53.3400093" lon="-1.5717088"><ele>374.5</ele><time>2026-04-18T05:47:47.976Z</time></trkpt><trkpt lat="53.3399259" lon="-1.5718345"><ele>376.0</ele><time>2026-04-18T05:48:01.976Z</time></trkpt><trkpt lat="53.3398914" lon="-1.571943"><ele>376.20000000000005</ele><time>2026-04-18T05:48:02.976Z</time></trkpt><trkpt lat="53.339848" lon="-1.5720672"><ele>376.40000000000003</ele><time>2026-04-18T05:48:03.975Z</time></trkpt><trkpt lat="53.3397943" lon="-1.5722016"><ele>376.6</ele><time>2026-04-18T05:48:04.977Z</time></trkpt><trkpt lat="53.3397311" lon="-1.5723408"><ele>376.8</ele><time>2026-04-18T05:48:05.977Z</time></trkpt><trkpt lat="53.3396579" lon="-1.5724739"><ele>377.0</ele><time>2026-04-18T05:48:06.976Z</time></trkpt><trkpt lat="53.3395851" lon="-1.5726147"><ele>377.0</ele><time>2026-04-18T05:48:07.975Z</time></trkpt><trkpt lat="53.3395151" lon="-1.5727429"><ele>377.0</ele><time>2026-04-18T05:48:08.976Z</time></trkpt><trkpt lat="53.3394576" lon="-1.5728657"><ele>377.0</ele><time>2026-04-18T05:48:09.977Z</time></trkpt><trkpt lat="53.3394081" lon="-1.5729818"><ele>377.0</ele><time>2026-04-18T05:48:10.976Z</time></trkpt><trkpt lat="53.3393552" lon="-1.5731024"><ele>377.0</ele><time>2026-04-18T05:48:11.977Z</time></trkpt><trkpt lat="53.3392933" lon="-1.5732386"><ele>377.0</ele><time>2026-04-18T05:48:12.973Z</time></trkpt><trkpt lat="53.3392221" lon="-1.5734018"><ele>377.0</ele><time>2026-04-18T05:48:13.978Z</time></trkpt><trkpt lat="53.3391475" lon="-1.5735956"><ele>377.0</ele><time>2026-04-18T05:48:14.976Z</time></trkpt><trkpt lat="53.3390721" lon="-1.5738033"><ele>377.0</ele><time>2026-04-18T05:48:15.981Z</time></trkpt><trkpt lat="53.3389954" lon="-1.5740032"><ele>377.6</ele><time>2026-04-18T05:48:16.977Z</time></trkpt><trkpt lat="53.3389196" lon="-1.5741865"><ele>378.20000000000005</ele><time>2026-04-18T05:48:17.977Z</time></trkpt><trkpt lat="53.3388483" lon="-1.5743511"><ele>378.8</ele><time>2026-04-18T05:48:18.97Z</time></trkpt><trkpt lat="53.3387924" lon="-1.5744834"><ele>379.4</ele><time>2026-04-18T05:48:19.973Z</time></trkpt><trkpt lat="53.3387541" lon="-1.574587"><ele>380.0</ele><time>2026-04-18T05:48:20.974Z</time></trkpt><trkpt lat="53.338708" lon="-1.5747035"><ele>380.0</ele><time>2026-04-18T05:48:22.976Z</time></trkpt><trkpt lat="53.3387569" lon="-1.574608"><ele>380.0</ele><time>2026-04-18T05:48:26.973Z</time></trkpt><trkpt lat="53.3387402" lon="-1.5747151"><ele>380.0</ele><time>2026-04-18T05:50:38.979Z</time></trkpt><trkpt lat="53.3388047" lon="-1.5743971"><ele>380.0</ele><time>2026-04-18T05:50:44.976Z</time></trkpt><trkpt lat="53.3388476" lon="-1.5742681"><ele>380.0</ele><time>2026-04-18T05:50:45.973Z</time></trkpt><trkpt lat="53.3389043" lon="-1.5741298"><ele>380.0</ele><time>2026-04-18T05:50:46.975Z</time></trkpt><trkpt lat="53.3389684" lon="-1.5739684"><ele>380.0</ele><time>2026-04-18T05:50:47.976Z</time></trkpt><trkpt lat="53.3390363" lon="-1.5738091"><ele>380.0</ele><time>2026-04-18T05:50:48.973Z</time></trkpt><trkpt lat="53.3391071" lon="-1.5736459"><ele>380.0</ele><time>2026-04-18T05:50:49.974Z</time></trkpt><trkpt lat="53.3391759" lon="-1.5734772"><ele>379.4</ele><time>2026-04-18T05:50:50.975Z</time></trkpt><trkpt lat="53.3392456" lon="-1.5733211"><ele>378.8</ele><time>2026-04-18T05:50:51.974Z</time></trkpt><trkpt lat="53.3393115" lon="-1.5731787"><ele>378.20000000000005</ele><time>2026-04-18T05:50:52.978Z</time></trkpt><trkpt lat="53.3393712" lon="-1.5730537"><ele>377.6</ele><time>2026-04-18T05:50:53.978Z</time></trkpt><trkpt lat="53.339424" lon="-1.572945"><ele>377.0</ele><time>2026-04-18T05:50:54.98Z</time></trkpt><trkpt lat="53.3394739" lon="-1.5728434"><ele>377.0</ele><time>2026-04-18T05:50:55.98Z</time></trkpt><trkpt lat="53.3395284" lon="-1.57273"><ele>377.0</ele><time>2026-04-18T05:50:56.979Z</time></trkpt><trkpt lat="53.3395863" lon="-1.5726133"><ele>377.0</ele><time>2026-04-18T05:50:57.98Z</time></trkpt><trkpt lat="53.3396417" lon="-1.5724969"><ele>377.0</ele><time>2026-04-18T05:50:58.979Z</time></trkpt><trkpt lat="53.3396955" lon="-1.5723788"><ele>377.0</ele><time>2026-04-18T05:50:59.979Z</time></trkpt><trkpt lat="53.3397522" lon="-1.5722607"><ele>377.0</ele><time>2026-04-18T05:51:00.978Z</time></trkpt><trkpt lat="53.339817" lon="-1.5721378"><ele>376.83333333333337</ele><time>2026-04-18T05:51:01.975Z</time></trkpt><trkpt lat="53.3398785" lon="-1.5720094"><ele>376.6666666666667</ele><time>2026-04-18T05:51:02.974Z</time></trkpt><trkpt lat="53.3399246" lon="-1.5718914"><ele>376.5</ele><time>2026-04-18T05:51:03.976Z</time></trkpt><trkpt lat="53.3399547" lon="-1.5717926"><ele>376.3333333333333</ele><time>2026-04-18T05:51:04.975Z</time></trkpt><trkpt lat="53.3400013" lon="-1.5716849"><ele>376.16666666666663</ele><time>2026-04-18T05:51:06.975Z</time></trkpt><trkpt lat="53.3400639" lon="-1.5717266"><ele>376.0</ele><time>2026-04-18T05:51:19.975Z</time></trkpt><trkpt lat="53.34019" lon="-1.571799"><ele>376.0</ele><time>2026-04-18T05:51:21.973Z</time></trkpt><trkpt lat="53.3402773" lon="-1.5718506"><ele>376.0</ele><time>2026-04-18T05:51:22.973Z</time></trkpt><trkpt lat="53.3403715" lon="-1.571881"><ele>376.0</ele><time>2026-04-18T05:51:23.973Z</time></trkpt><trkpt lat="53.3404653" lon="-1.571893"><ele>376.0</ele><time>2026-04-18T05:51:24.973Z</time></trkpt><trkpt lat="53.3405516" lon="-1.5719046"><ele>376.0</ele><time>2026-04-18T05:51:25.972Z</time></trkpt><trkpt lat="53.3406243" lon="-1.5719293"><ele>376.0</ele><time>2026-04-18T05:51:26.974Z</time></trkpt><trkpt lat="53.3407287" lon="-1.5720125"><ele>377.6</ele><time>2026-04-18T05:51:28.973Z</time></trkpt><trkpt lat="53.340789" lon="-1.5720543"><ele>379.20000000000005</ele><time>2026-04-18T05:51:30.974Z</time></trkpt><trkpt lat="53.3409211" lon="-1.572173"><ele>380.79999999999995</ele><time>2026-04-18T05:51:55.974Z</time></trkpt><trkpt lat="53.3410179" lon="-1.5722355"><ele>382.4</ele><time>2026-04-18T05:51:56.975Z</time></trkpt><trkpt lat="53.34112" lon="-1.5723038"><ele>384.0</ele><time>2026-04-18T05:51:57.974Z</time></trkpt><trkpt lat="53.3412249" lon="-1.572381"><ele>384.0</ele><time>2026-04-18T05:51:58.974Z</time></trkpt><trkpt lat="53.3413194" lon="-1.5724637"><ele>384.0</ele><time>2026-04-18T05:51:59.977Z</time></trkpt><trkpt lat="53.3413927" lon="-1.5725426"><ele>384.0</ele><time>2026-04-18T05:52:00.978Z</time></trkpt><trkpt lat="53.3414536" lon="-1.5726004"><ele>384.0</ele><time>2026-04-18T05:52:01.975Z</time></trkpt><trkpt lat="53.3415188" lon="-1.5726238"><ele>384.0</ele><time>2026-04-18T05:52:02.98Z</time></trkpt><trkpt lat="53.3415924" lon="-1.5726161"><ele>384.0</ele><time>2026-04-18T05:52:03.979Z</time></trkpt><trkpt lat="53.3416732" lon="-1.5726213"><ele>385.0</ele><time>2026-04-18T05:52:04.976Z</time></trkpt><trkpt lat="53.3417545" lon="-1.5726495"><ele>386.0</ele><time>2026-04-18T05:52:05.977Z</time></trkpt><trkpt lat="53.3418326" lon="-1.5727093"><ele>387.0</ele><time>2026-04-18T05:52:06.975Z</time></trkpt><trkpt lat="53.3419064" lon="-1.5727885"><ele>388.0</ele><time>2026-04-18T05:52:07.975Z</time></trkpt><trkpt lat="53.3419736" lon="-1.5728762"><ele>389.0</ele><time>2026-04-18T05:52:08.972Z</time></trkpt><trkpt lat="53.3420254" lon="-1.5729608"><ele>390.0</ele><time>2026-04-18T05:52:09.973Z</time></trkpt><trkpt lat="53.3420698" lon="-1.5730375"><ele>390.4</ele><time>2026-04-18T05:52:10.973Z</time></trkpt><trkpt lat="53.3421419" lon="-1.5731653"><ele>390.8</ele><time>2026-04-18T05:52:12.975Z</time></trkpt><trkpt lat="53.3421881" lon="-1.5732538"><ele>391.20000000000005</ele><time>2026-04-18T05:52:57.972Z</time></trkpt><trkpt lat="53.3422712" lon="-1.5732908"><ele>391.6</ele><time>2026-04-18T05:54:25.967Z</time></trkpt><trkpt lat="53.3423917" lon="-1.5734062"><ele>392.0</ele><time>2026-04-18T05:54:27.973Z</time></trkpt><trkpt lat="53.3424679" lon="-1.5735089"><ele>393.20000000000005</ele><time>2026-04-18T05:54:28.973Z</time></trkpt><trkpt lat="53.3425517" lon="-1.5736265"><ele>394.4</ele><time>2026-04-18T05:54:29.975Z</time></trkpt><trkpt lat="53.342625" lon="-1.5737553"><ele>395.6</ele><time>2026-04-18T05:54:30.974Z</time></trkpt><trkpt lat="53.3426951" lon="-1.5738544"><ele>396.79999999999995</ele><time>2026-04-18T05:54:31.974Z</time></trkpt><trkpt lat="53.3427665" lon="-1.5739444"><ele>398.0</ele><time>2026-04-18T05:54:32.968Z</time></trkpt><trkpt lat="53.3428348" lon="-1.5740227"><ele>398.16666666666663</ele><time>2026-04-18T05:54:33.974Z</time></trkpt><trkpt lat="53.3428975" lon="-1.5740982"><ele>398.3333333333333</ele><time>2026-04-18T05:54:34.974Z</time></trkpt><trkpt lat="53.3429637" lon="-1.5741758"><ele>398.5</ele><time>2026-04-18T05:54:35.967Z</time></trkpt><trkpt lat="53.3430364" lon="-1.5742513"><ele>398.66666666666663</ele><time>2026-04-18T05:54:36.972Z</time></trkpt><trkpt lat="53.3431146" lon="-1.5743307"><ele>398.8333333333333</ele><time>2026-04-18T05:54:37.975Z</time></trkpt><trkpt lat="53.3431987" lon="-1.5744119"><ele>399.0</ele><time>2026-04-18T05:54:38.974Z</time></trkpt><trkpt lat="53.3432747" lon="-1.5744989"><ele>400.0</ele><time>2026-04-18T05:54:39.976Z</time></trkpt><trkpt lat="53.3433514" lon="-1.5745858"><ele>401.0</ele><time>2026-04-18T05:54:40.972Z</time></trkpt><trkpt lat="53.3434266" lon="-1.5746758"><ele>402.0</ele><time>2026-04-18T05:54:41.971Z</time></trkpt><trkpt lat="53.3435001" lon="-1.5747632"><ele>403.0</ele><time>2026-04-18T05:54:42.974Z</time></trkpt><trkpt lat="53.3435754" lon="-1.5748564"><ele>404.0</ele><time>2026-04-18T05:54:43.972Z</time></trkpt><trkpt lat="53.3436528" lon="-1.5749592"><ele>404.0</ele><time>2026-04-18T05:54:44.97Z</time></trkpt><trkpt lat="53.3437349" lon="-1.5750806"><ele>404.0</ele><time>2026-04-18T05:54:45.974Z</time></trkpt><trkpt lat="53.343827" lon="-1.575229"><ele>404.0</ele><time>2026-04-18T05:54:46.974Z</time></trkpt><trkpt lat="53.3439265" lon="-1.5753973"><ele>404.0</ele><time>2026-04-18T05:54:47.974Z</time></trkpt><trkpt lat="53.3440279" lon="-1.5755777"><ele>405.0</ele><time>2026-04-18T05:54:48.972Z</time></trkpt><trkpt lat="53.3441307" lon="-1.5757598"><ele>406.0</ele><time>2026-04-18T05:54:49.972Z</time></trkpt><trkpt lat="53.3442323" lon="-1.5759355"><ele>407.0</ele><time>2026-04-18T05:54:50.97Z</time></trkpt><trkpt lat="53.3443283" lon="-1.5761016"><ele>408.0</ele><time>2026-04-18T05:54:51.973Z</time></trkpt><trkpt lat="53.3444187" lon="-1.5762456"><ele>408.4</ele><time>2026-04-18T05:54:52.976Z</time></trkpt><trkpt lat="53.3444971" lon="-1.5763693"><ele>408.79999999999995</ele><time>2026-04-18T05:54:53.971Z</time></trkpt><trkpt lat="53.3445655" lon="-1.5764777"><ele>409.2</ele><time>2026-04-18T05:54:54.974Z</time></trkpt><trkpt lat="53.3446354" lon="-1.5765884"><ele>409.6</ele><time>2026-04-18T05:54:55.974Z</time></trkpt><trkpt lat="53.3447111" lon="-1.576707"><ele>410.0</ele><time>2026-04-18T05:54:56.977Z</time></trkpt><trkpt lat="53.3447867" lon="-1.5768365"><ele>409.6</ele><time>2026-04-18T05:54:57.967Z</time></trkpt><trkpt lat="53.3448577" lon="-1.5769802"><ele>409.2</ele><time>2026-04-18T05:54:58.976Z</time></trkpt><trkpt lat="53.344917" lon="-1.5771299"><ele>408.79999999999995</ele><time>2026-04-18T05:54:59.976Z</time></trkpt><trkpt lat="53.3449723" lon="-1.577288"><ele>408.4</ele><time>2026-04-18T05:55:00.976Z</time></trkpt><trkpt lat="53.345025" lon="-1.5774482"><ele>408.0</ele><time>2026-04-18T05:55:01.976Z</time></trkpt><trkpt lat="53.3450786" lon="-1.5775991"><ele>408.0</ele><time>2026-04-18T05:55:02.977Z</time></trkpt><trkpt lat="53.3451377" lon="-1.5777454"><ele>408.0</ele><time>2026-04-18T05:55:03.977Z</time></trkpt><trkpt lat="53.3451983" lon="-1.577889"><ele>408.0</ele><time>2026-04-18T05:55:04.977Z</time></trkpt><trkpt lat="53.3452615" lon="-1.5780318"><ele>408.0</ele><time>2026-04-18T05:55:05.979Z</time></trkpt><trkpt lat="53.3453268" lon="-1.5781738"><ele>408.0</ele><time>2026-04-18T05:55:06.98Z</time></trkpt><trkpt lat="53.3453901" lon="-1.578322"><ele>407.79999999999995</ele><time>2026-04-18T05:55:07.971Z</time></trkpt><trkpt lat="53.3454501" lon="-1.5784802"><ele>407.6</ele><time>2026-04-18T05:55:08.976Z</time></trkpt><trkpt lat="53.3455062" lon="-1.5786333"><ele>407.4</ele><time>2026-04-18T05:55:09.98Z</time></trkpt><trkpt lat="53.3455582" lon="-1.5787668"><ele>407.20000000000005</ele><time>2026-04-18T05:55:10.971Z</time></trkpt><trkpt lat="53.3456014" lon="-1.578881"><ele>407.0</ele><time>2026-04-18T05:55:11.974Z</time></trkpt><trkpt lat="53.3456391" lon="-1.5789838"><ele>406.99999999999994</ele><time>2026-04-18T05:55:12.982Z</time></trkpt><trkpt lat="53.3456761" lon="-1.5790853"><ele>407.0</ele><time>2026-04-18T05:55:13.975Z</time></trkpt><trkpt lat="53.3457185" lon="-1.5791943"><ele>407.0</ele><time>2026-04-18T05:55:14.978Z</time></trkpt><trkpt lat="53.3457666" lon="-1.5793157"><ele>407.0</ele><time>2026-04-18T05:55:15.978Z</time></trkpt><trkpt lat="53.34582" lon="-1.5794507"><ele>406.99999999999994</ele><time>2026-04-18T05:55:16.975Z</time></trkpt><trkpt lat="53.3458759" lon="-1.5795962"><ele>407.0</ele><time>2026-04-18T05:55:17.98Z</time></trkpt><trkpt lat="53.3459329" lon="-1.5797455"><ele>407.6</ele><time>2026-04-18T05:55:18.979Z</time></trkpt><trkpt lat="53.3459886" lon="-1.5798915"><ele>408.20000000000005</ele><time>2026-04-18T05:55:19.979Z</time></trkpt><trkpt lat="53.3460449" lon="-1.5800352"><ele>408.8</ele><time>2026-04-18T05:55:20.98Z</time></trkpt><trkpt lat="53.3460998" lon="-1.580176"><ele>409.4</ele><time>2026-04-18T05:55:21.978Z</time></trkpt><trkpt lat="53.3461565" lon="-1.5803177"><ele>410.0</ele><time>2026-04-18T05:55:22.968Z</time></trkpt><trkpt lat="53.3462164" lon="-1.5804656"><ele>410.25</ele><time>2026-04-18T05:55:23.979Z</time></trkpt><trkpt lat="53.34628" lon="-1.5806226"><ele>410.5</ele><time>2026-04-18T05:55:24.98Z</time></trkpt><trkpt lat="53.3463481" lon="-1.5807899"><ele>410.75</ele><time>2026-04-18T05:55:25.982Z</time></trkpt><trkpt lat="53.3464192" lon="-1.5809692"><ele>411.0</ele><time>2026-04-18T05:55:26.978Z</time></trkpt><trkpt lat="53.3464878" lon="-1.5811496"><ele>410.0</ele><time>2026-04-18T05:55:27.978Z</time></trkpt><trkpt lat="53.3465503" lon="-1.5813189"><ele>409.0</ele><time>2026-04-18T05:55:28.979Z</time></trkpt><trkpt lat="53.3466088" lon="-1.5814723"><ele>408.0</ele><time>2026-04-18T05:55:29.98Z</time></trkpt><trkpt lat="53.3466651" lon="-1.5816157"><ele>407.0</ele><time>2026-04-18T05:55:30.979Z</time></trkpt><trkpt lat="53.3467171" lon="-1.5817531"><ele>406.0</ele><time>2026-04-18T05:55:31.979Z</time></trkpt><trkpt lat="53.3467673" lon="-1.5818871"><ele>406.20000000000005</ele><time>2026-04-18T05:55:32.98Z</time></trkpt><trkpt lat="53.346818" lon="-1.5820185"><ele>406.40000000000003</ele><time>2026-04-18T05:55:33.98Z</time></trkpt><trkpt lat="53.3468686" lon="-1.5821495"><ele>406.6</ele><time>2026-04-18T05:55:34.982Z</time></trkpt><trkpt lat="53.346919" lon="-1.5822815"><ele>406.8</ele><time>2026-04-18T05:55:35.98Z</time></trkpt><trkpt lat="53.3469696" lon="-1.5824124"><ele>407.0</ele><time>2026-04-18T05:55:36.979Z</time></trkpt><trkpt lat="53.3470197" lon="-1.582541"><ele>406.99999999999994</ele><time>2026-04-18T05:55:37.978Z</time></trkpt><trkpt lat="53.3470641" lon="-1.5826592"><ele>407.0</ele><time>2026-04-18T05:55:38.973Z</time></trkpt><trkpt lat="53.3471013" lon="-1.5827548"><ele>407.0</ele><time>2026-04-18T05:55:39.972Z</time></trkpt><trkpt lat="53.3471487" lon="-1.5828444"><ele>407.0</ele><time>2026-04-18T05:55:41.976Z</time></trkpt><trkpt lat="53.347182" lon="-1.5829746"><ele>406.99999999999994</ele><time>2026-04-18T05:56:03.975Z</time></trkpt><trkpt lat="53.3472274" lon="-1.583091"><ele>407.0</ele><time>2026-04-18T05:56:13.975Z</time></trkpt><trkpt lat="53.3472641" lon="-1.5831773"><ele>406.40000000000003</ele><time>2026-04-18T05:56:15.977Z</time></trkpt><trkpt lat="53.3473158" lon="-1.5832713"><ele>405.8</ele><time>2026-04-18T05:56:17.969Z</time></trkpt><trkpt lat="53.3473287" lon="-1.5834527"><ele>405.2</ele><time>2026-04-18T05:56:19.969Z</time></trkpt><trkpt lat="53.347316" lon="-1.5835947"><ele>404.6</ele><time>2026-04-18T05:56:20.975Z</time></trkpt><trkpt lat="53.347298" lon="-1.5837599"><ele>404.0</ele><time>2026-04-18T05:56:21.976Z</time></trkpt><trkpt lat="53.3472783" lon="-1.583945"><ele>404.0</ele><time>2026-04-18T05:56:22.972Z</time></trkpt><trkpt lat="53.347255" lon="-1.5841402"><ele>404.0</ele><time>2026-04-18T05:56:23.977Z</time></trkpt><trkpt lat="53.3472303" lon="-1.5843526"><ele>404.0</ele><time>2026-04-18T05:56:24.976Z</time></trkpt><trkpt lat="53.347204" lon="-1.5845722"><ele>404.0</ele><time>2026-04-18T05:56:25.976Z</time></trkpt><trkpt lat="53.3471787" lon="-1.5847952"><ele>406.5</ele><time>2026-04-18T05:56:26.976Z</time></trkpt><trkpt lat="53.3471457" lon="-1.5850213"><ele>409.0</ele><time>2026-04-18T05:56:27.977Z</time></trkpt><trkpt lat="53.347107" lon="-1.5852448"><ele>411.5</ele><time>2026-04-18T05:56:28.975Z</time></trkpt><trkpt lat="53.3470644" lon="-1.5854736"><ele>414.0</ele><time>2026-04-18T05:56:29.975Z</time></trkpt><trkpt lat="53.3470271" lon="-1.5857064"><ele>414.0</ele><time>2026-04-18T05:56:30.978Z</time></trkpt><trkpt lat="53.3469946" lon="-1.5859464"><ele>414.0</ele><time>2026-04-18T05:56:31.978Z</time></trkpt><trkpt lat="53.346969" lon="-1.5862065"><ele>414.0</ele><time>2026-04-18T05:56:32.98Z</time></trkpt><trkpt lat="53.3469478" lon="-1.5864844"><ele>414.33333333333337</ele><time>2026-04-18T05:56:33.98Z</time></trkpt><trkpt lat="53.3469226" lon="-1.586786"><ele>414.6666666666667</ele><time>2026-04-18T05:56:34.979Z</time></trkpt><trkpt lat="53.3468947" lon="-1.5870976"><ele>415.0</ele><time>2026-04-18T05:56:35.979Z</time></trkpt><trkpt lat="53.3468681" lon="-1.5874052"><ele>415.0</ele><time>2026-04-18T05:56:36.978Z</time></trkpt><trkpt lat="53.3468403" lon="-1.5877036"><ele>415.0</ele><time>2026-04-18T05:56:37.972Z</time></trkpt><trkpt lat="53.3468158" lon="-1.5879938"><ele>415.0</ele><time>2026-04-18T05:56:38.977Z</time></trkpt><trkpt lat="53.3467876" lon="-1.5882691"><ele>415.0</ele><time>2026-04-18T05:56:39.969Z</time></trkpt><trkpt lat="53.3467482" lon="-1.5885349"><ele>415.0</ele><time>2026-04-18T05:56:40.974Z</time></trkpt><trkpt lat="53.3466938" lon="-1.5887893"><ele>415.0</ele><time>2026-04-18T05:56:41.976Z</time></trkpt><trkpt lat="53.3466266" lon="-1.5890373"><ele>415.0</ele><time>2026-04-18T05:56:42.976Z</time></trkpt><trkpt lat="53.3465482" lon="-1.589283"><ele>415.0</ele><time>2026-04-18T05:56:43.975Z</time></trkpt><trkpt lat="53.3464622" lon="-1.5895213"><ele>415.0</ele><time>2026-04-18T05:56:44.977Z</time></trkpt><trkpt lat="53.3463665" lon="-1.5897386"><ele>415.6666666666667</ele><time>2026-04-18T05:56:45.976Z</time></trkpt><trkpt lat="53.3462653" lon="-1.5899433"><ele>416.33333333333337</ele><time>2026-04-18T05:56:46.976Z</time></trkpt><trkpt lat="53.3461567" lon="-1.590142"><ele>417.0</ele><time>2026-04-18T05:56:47.975Z</time></trkpt><trkpt lat="53.346046" lon="-1.5903378"><ele>416.66666666666663</ele><time>2026-04-18T05:56:48.975Z</time></trkpt><trkpt lat="53.3459323" lon="-1.590533"><ele>416.3333333333333</ele><time>2026-04-18T05:56:49.977Z</time></trkpt><trkpt lat="53.3458104" lon="-1.5907296"><ele>416.0</ele><time>2026-04-18T05:56:50.974Z</time></trkpt><trkpt lat="53.345683" lon="-1.5909118"><ele>416.0</ele><time>2026-04-18T05:56:51.975Z</time></trkpt><trkpt lat="53.3455515" lon="-1.5910595"><ele>416.0</ele><time>2026-04-18T05:56:52.981Z</time></trkpt><trkpt lat="53.3454166" lon="-1.5911677"><ele>416.0</ele><time>2026-04-18T05:56:53.976Z</time></trkpt><trkpt lat="53.3452812" lon="-1.5912441"><ele>416.25</ele><time>2026-04-18T05:56:54.977Z</time></trkpt><trkpt lat="53.3451564" lon="-1.5913154"><ele>416.5</ele><time>2026-04-18T05:56:55.975Z</time></trkpt><trkpt lat="53.3450461" lon="-1.5914036"><ele>416.75</ele><time>2026-04-18T05:56:56.974Z</time></trkpt><trkpt lat="53.3449687" lon="-1.5915266"><ele>417.0</ele><time>2026-04-18T05:56:57.974Z</time></trkpt><trkpt lat="53.344919" lon="-1.5917032"><ele>417.0</ele><time>2026-04-18T05:56:58.975Z</time></trkpt><trkpt lat="53.3448856" lon="-1.5919152"><ele>417.0</ele><time>2026-04-18T05:56:59.978Z</time></trkpt><trkpt lat="53.3448612" lon="-1.5921392"><ele>417.0</ele><time>2026-04-18T05:57:00.979Z</time></trkpt><trkpt lat="53.3448414" lon="-1.5923712"><ele>417.0</ele><time>2026-04-18T05:57:01.98Z</time></trkpt><trkpt lat="53.344825" lon="-1.5926055"><ele>416.75</ele><time>2026-04-18T05:57:02.975Z</time></trkpt><trkpt lat="53.3447991" lon="-1.592845"><ele>416.5</ele><time>2026-04-18T05:57:03.969Z</time></trkpt><trkpt lat="53.3447614" lon="-1.5930783"><ele>416.25</ele><time>2026-04-18T05:57:04.971Z</time></trkpt><trkpt lat="53.3447225" lon="-1.593323"><ele>416.0</ele><time>2026-04-18T05:57:05.968Z</time></trkpt><trkpt lat="53.3446693" lon="-1.5935658"><ele>417.3333333333333</ele><time>2026-04-18T05:57:06.968Z</time></trkpt><trkpt lat="53.3446044" lon="-1.5938106"><ele>418.66666666666663</ele><time>2026-04-18T05:57:07.971Z</time></trkpt><trkpt lat="53.3445329" lon="-1.5940611"><ele>420.0</ele><time>2026-04-18T05:57:08.968Z</time></trkpt><trkpt lat="53.3444612" lon="-1.5943054"><ele>420.0</ele><time>2026-04-18T05:57:09.976Z</time></trkpt><trkpt lat="53.3443936" lon="-1.5945418"><ele>420.0</ele><time>2026-04-18T05:57:10.975Z</time></trkpt><trkpt lat="53.344329" lon="-1.5947801"><ele>420.0</ele><time>2026-04-18T05:57:11.967Z</time></trkpt><trkpt lat="53.344267" lon="-1.595025"><ele>420.0</ele><time>2026-04-18T05:57:12.972Z</time></trkpt><trkpt lat="53.3442069" lon="-1.5952824"><ele>420.0</ele><time>2026-04-18T05:57:13.967Z</time></trkpt><trkpt lat="53.3441421" lon="-1.5955444"><ele>420.0</ele><time>2026-04-18T05:57:14.969Z</time></trkpt><trkpt lat="53.3440689" lon="-1.5958091"><ele>420.0</ele><time>2026-04-18T05:57:15.975Z</time></trkpt><trkpt lat="53.3439887" lon="-1.5960768"><ele>420.0</ele><time>2026-04-18T05:57:16.976Z</time></trkpt><trkpt lat="53.343911" lon="-1.5963455"><ele>420.0</ele><time>2026-04-18T05:57:17.976Z</time></trkpt><trkpt lat="53.3438411" lon="-1.5966149"><ele>420.0</ele><time>2026-04-18T05:57:18.975Z</time></trkpt><trkpt lat="53.3437836" lon="-1.5968848"><ele>420.0</ele><time>2026-04-18T05:57:19.97Z</time></trkpt><trkpt lat="53.3437383" lon="-1.5971626"><ele>420.0</ele><time>2026-04-18T05:57:20.977Z</time></trkpt><trkpt lat="53.3437035" lon="-1.5974462"><ele>419.66666666666663</ele><time>2026-04-18T05:57:21.976Z</time></trkpt><trkpt lat="53.3436654" lon="-1.597731"><ele>419.3333333333333</ele><time>2026-04-18T05:57:22.979Z</time></trkpt><trkpt lat="53.3436218" lon="-1.5980151"><ele>419.0</ele><time>2026-04-18T05:57:23.975Z</time></trkpt><trkpt lat="53.3435654" lon="-1.5983021"><ele>418.0</ele><time>2026-04-18T05:57:24.977Z</time></trkpt><trkpt lat="53.3434992" lon="-1.5985892"><ele>417.0</ele><time>2026-04-18T05:57:25.976Z</time></trkpt><trkpt lat="53.343429" lon="-1.5988715"><ele>416.0</ele><time>2026-04-18T05:57:26.976Z</time></trkpt><trkpt lat="53.3433488" lon="-1.5991504"><ele>415.66666666666663</ele><time>2026-04-18T05:57:27.976Z</time></trkpt><trkpt lat="53.3432616" lon="-1.5994275"><ele>415.33333333333337</ele><time>2026-04-18T05:57:28.975Z</time></trkpt><trkpt lat="53.3431676" lon="-1.5996999"><ele>415.0</ele><time>2026-04-18T05:57:29.976Z</time></trkpt><trkpt lat="53.343068" lon="-1.5999639"><ele>415.0</ele><time>2026-04-18T05:57:30.977Z</time></trkpt><trkpt lat="53.3429679" lon="-1.6002133"><ele>415.0</ele><time>2026-04-18T05:57:31.977Z</time></trkpt><trkpt lat="53.3428787" lon="-1.6004506"><ele>415.0</ele><time>2026-04-18T05:57:32.976Z</time></trkpt><trkpt lat="53.3428036" lon="-1.6006954"><ele>415.0</ele><time>2026-04-18T05:57:33.975Z</time></trkpt><trkpt lat="53.3427505" lon="-1.6009536"><ele>415.0</ele><time>2026-04-18T05:57:34.976Z</time></trkpt><trkpt lat="53.3427144" lon="-1.6012146"><ele>415.0</ele><time>2026-04-18T05:57:35.976Z</time></trkpt><trkpt lat="53.3426892" lon="-1.6014946"><ele>414.33333333333337</ele><time>2026-04-18T05:57:36.976Z</time></trkpt><trkpt lat="53.3426685" lon="-1.6017886"><ele>413.66666666666663</ele><time>2026-04-18T05:57:37.977Z</time></trkpt><trkpt lat="53.3426506" lon="-1.6020938"><ele>413.0</ele><time>2026-04-18T05:57:38.971Z</time></trkpt><trkpt lat="53.3426286" lon="-1.6024081"><ele>413.0</ele><time>2026-04-18T05:57:39.979Z</time></trkpt><trkpt lat="53.3426059" lon="-1.6027227"><ele>413.0</ele><time>2026-04-18T05:57:40.974Z</time></trkpt><trkpt lat="53.3425823" lon="-1.6030467"><ele>413.0</ele><time>2026-04-18T05:57:41.976Z</time></trkpt><trkpt lat="53.3425575" lon="-1.603364"><ele>412.66666666666663</ele><time>2026-04-18T05:57:42.983Z</time></trkpt><trkpt lat="53.3425335" lon="-1.6036773"><ele>412.33333333333337</ele><time>2026-04-18T05:57:43.976Z</time></trkpt><trkpt lat="53.3425168" lon="-1.603984"><ele>412.0</ele><time>2026-04-18T05:57:44.978Z</time></trkpt><trkpt lat="53.3425111" lon="-1.6042883"><ele>411.6666666666667</ele><time>2026-04-18T05:57:45.977Z</time></trkpt><trkpt lat="53.342525" lon="-1.6045939"><ele>411.33333333333337</ele><time>2026-04-18T05:57:46.978Z</time></trkpt><trkpt lat="53.3425488" lon="-1.6048998"><ele>411.0</ele><time>2026-04-18T05:57:47.978Z</time></trkpt><trkpt lat="53.3425795" lon="-1.6052026"><ele>410.33333333333337</ele><time>2026-04-18T05:57:48.977Z</time></trkpt><trkpt lat="53.3426074" lon="-1.6054994"><ele>409.6666666666667</ele><time>2026-04-18T05:57:49.977Z</time></trkpt><trkpt lat="53.3426315" lon="-1.6057828"><ele>409.0</ele><time>2026-04-18T05:57:50.977Z</time></trkpt><trkpt lat="53.3426522" lon="-1.6060439"><ele>407.75</ele><time>2026-04-18T05:57:51.975Z</time></trkpt><trkpt lat="53.3426672" lon="-1.6062841"><ele>406.5</ele><time>2026-04-18T05:57:52.982Z</time></trkpt><trkpt lat="53.3426774" lon="-1.6064984"><ele>405.25</ele><time>2026-04-18T05:57:53.975Z</time></trkpt><trkpt lat="53.342692" lon="-1.6066897"><ele>404.0</ele><time>2026-04-18T05:57:54.976Z</time></trkpt><trkpt lat="53.3427027" lon="-1.6068675"><ele>402.8333333333333</ele><time>2026-04-18T05:57:55.976Z</time></trkpt><trkpt lat="53.3427109" lon="-1.6070123"><ele>401.66666666666663</ele><time>2026-04-18T05:57:56.976Z</time></trkpt><trkpt lat="53.3427146" lon="-1.6071427"><ele>400.5</ele><time>2026-04-18T05:57:57.976Z</time></trkpt><trkpt lat="53.3427202" lon="-1.607251"><ele>399.33333333333337</ele><time>2026-04-18T05:57:58.977Z</time></trkpt><trkpt lat="53.3427321" lon="-1.6073988"><ele>398.1666666666667</ele><time>2026-04-18T05:58:00.976Z</time></trkpt><trkpt lat="53.342752" lon="-1.6075218"><ele>397.0</ele><time>2026-04-18T05:58:04.978Z</time></trkpt><trkpt lat="53.3427653" lon="-1.607625"><ele>397.0</ele><time>2026-04-18T06:06:01.979Z</time></trkpt><trkpt lat="53.3428605" lon="-1.6078398"><ele>397.0</ele><time>2026-04-18T06:06:03.979Z</time></trkpt><trkpt lat="53.3429394" lon="-1.6079982"><ele>397.0</ele><time>2026-04-18T06:06:04.98Z</time></trkpt><trkpt lat="53.3430285" lon="-1.6081557"><ele>397.0</ele><time>2026-04-18T06:06:05.982Z</time></trkpt><trkpt lat="53.3431098" lon="-1.6082898"><ele>397.0</ele><time>2026-04-18T06:06:06.982Z</time></trkpt><trkpt lat="53.3431894" lon="-1.608421"><ele>397.0</ele><time>2026-04-18T06:06:07.983Z</time></trkpt><trkpt lat="53.3432648" lon="-1.6085508"><ele>397.0</ele><time>2026-04-18T06:06:08.982Z</time></trkpt><trkpt lat="53.3433312" lon="-1.6086892"><ele>397.0</ele><time>2026-04-18T06:06:09.981Z</time></trkpt><trkpt lat="53.3433748" lon="-1.6088522"><ele>397.0</ele><time>2026-04-18T06:06:10.981Z</time></trkpt><trkpt lat="53.3433922" lon="-1.6090387"><ele>396.6</ele><time>2026-04-18T06:06:11.982Z</time></trkpt><trkpt lat="53.3433888" lon="-1.6092228"><ele>396.20000000000005</ele><time>2026-04-18T06:06:12.986Z</time></trkpt><trkpt lat="53.3433822" lon="-1.6093867"><ele>395.8</ele><time>2026-04-18T06:06:13.982Z</time></trkpt><trkpt lat="53.3433792" lon="-1.6095331"><ele>395.4</ele><time>2026-04-18T06:06:14.982Z</time></trkpt><trkpt lat="53.3433759" lon="-1.6096776"><ele>395.0</ele><time>2026-04-18T06:06:15.982Z</time></trkpt><trkpt lat="53.343374" lon="-1.6098253"><ele>394.99999999999994</ele><time>2026-04-18T06:06:16.983Z</time></trkpt><trkpt lat="53.3433746" lon="-1.6099739"><ele>395.0</ele><time>2026-04-18T06:06:17.982Z</time></trkpt><trkpt lat="53.3433719" lon="-1.6101208"><ele>395.0</ele><time>2026-04-18T06:06:18.982Z</time></trkpt><trkpt lat="53.3433644" lon="-1.6102469"><ele>395.0</ele><time>2026-04-18T06:06:19.984Z</time></trkpt><trkpt lat="53.3433124" lon="-1.610402"><ele>394.99999999999994</ele><time>2026-04-18T06:06:21.982Z</time></trkpt><trkpt lat="53.3432557" lon="-1.6104508"><ele>395.0</ele><time>2026-04-18T06:06:22.985Z</time></trkpt><trkpt lat="53.3431792" lon="-1.6105013"><ele>395.6</ele><time>2026-04-18T06:06:23.983Z</time></trkpt><trkpt lat="53.3430997" lon="-1.610571"><ele>396.2</ele><time>2026-04-18T06:06:24.983Z</time></trkpt><trkpt lat="53.3430161" lon="-1.6106583"><ele>396.79999999999995</ele><time>2026-04-18T06:06:25.984Z</time></trkpt><trkpt lat="53.3429305" lon="-1.6107522"><ele>397.4</ele><time>2026-04-18T06:06:26.983Z</time></trkpt><trkpt lat="53.3428515" lon="-1.6108428"><ele>398.0</ele><time>2026-04-18T06:06:27.984Z</time></trkpt><trkpt lat="53.3427767" lon="-1.6109334"><ele>398.8333333333333</ele><time>2026-04-18T06:06:28.984Z</time></trkpt><trkpt lat="53.3427013" lon="-1.6110195"><ele>399.66666666666663</ele><time>2026-04-18T06:06:29.987Z</time></trkpt><trkpt lat="53.3426258" lon="-1.6110956"><ele>400.5</ele><time>2026-04-18T06:06:30.984Z</time></trkpt><trkpt lat="53.34255" lon="-1.6111528"><ele>401.33333333333337</ele><time>2026-04-18T06:06:31.983Z</time></trkpt><trkpt lat="53.3424776" lon="-1.6111965"><ele>402.1666666666667</ele><time>2026-04-18T06:06:32.984Z</time></trkpt><trkpt lat="53.3424183" lon="-1.6112541"><ele>403.0</ele><time>2026-04-18T06:06:33.983Z</time></trkpt><trkpt lat="53.3423386" lon="-1.6113922"><ele>403.6666666666667</ele><time>2026-04-18T06:06:35.982Z</time></trkpt><trkpt lat="53.3422795" lon="-1.6115124"><ele>404.33333333333337</ele><time>2026-04-18T06:06:37.983Z</time></trkpt><trkpt lat="53.3422238" lon="-1.6115831"><ele>405.0</ele><time>2026-04-18T06:06:39.983Z</time></trkpt><trkpt lat="53.3421326" lon="-1.6116713"><ele>405.66666666666663</ele><time>2026-04-18T06:06:41.981Z</time></trkpt><trkpt lat="53.3420687" lon="-1.6117497"><ele>406.3333333333333</ele><time>2026-04-18T06:06:42.985Z</time></trkpt><trkpt lat="53.3419896" lon="-1.6118509"><ele>407.0</ele><time>2026-04-18T06:06:43.985Z</time></trkpt><trkpt lat="53.3419073" lon="-1.6119504"><ele>408.66666666666663</ele><time>2026-04-18T06:06:44.983Z</time></trkpt><trkpt lat="53.3418351" lon="-1.6120299"><ele>410.3333333333333</ele><time>2026-04-18T06:06:45.984Z</time></trkpt><trkpt lat="53.341779" lon="-1.612094"><ele>412.0</ele><time>2026-04-18T06:06:46.985Z</time></trkpt><trkpt lat="53.3417138" lon="-1.6121747"><ele>413.66666666666663</ele><time>2026-04-18T06:06:51.983Z</time></trkpt><trkpt lat="53.3416144" lon="-1.6122517"><ele>415.3333333333333</ele><time>2026-04-18T06:06:53.983Z</time></trkpt><trkpt lat="53.3415414" lon="-1.6123137"><ele>417.0</ele><time>2026-04-18T06:06:54.983Z</time></trkpt><trkpt lat="53.3414543" lon="-1.6123959"><ele>417.0</ele><time>2026-04-18T06:06:55.976Z</time></trkpt><trkpt lat="53.3413595" lon="-1.6124931"><ele>417.0</ele><time>2026-04-18T06:06:56.984Z</time></trkpt><trkpt lat="53.3412578" lon="-1.6125959"><ele>417.0</ele><time>2026-04-18T06:06:57.983Z</time></trkpt><trkpt lat="53.3411537" lon="-1.6126986"><ele>417.0</ele><time>2026-04-18T06:06:58.984Z</time></trkpt><trkpt lat="53.3410447" lon="-1.6128043"><ele>418.0</ele><time>2026-04-18T06:06:59.985Z</time></trkpt><trkpt lat="53.3409471" lon="-1.612913"><ele>419.0</ele><time>2026-04-18T06:07:00.978Z</time></trkpt><trkpt lat="53.3408584" lon="-1.6130298"><ele>420.0</ele><time>2026-04-18T06:07:01.984Z</time></trkpt><trkpt lat="53.3407633" lon="-1.6131609"><ele>421.0</ele><time>2026-04-18T06:07:02.988Z</time></trkpt><trkpt lat="53.3406565" lon="-1.6133032"><ele>422.0</ele><time>2026-04-18T06:07:03.985Z</time></trkpt><trkpt lat="53.340537" lon="-1.6134552"><ele>423.0</ele><time>2026-04-18T06:07:04.983Z</time></trkpt><trkpt lat="53.3404043" lon="-1.6136135"><ele>424.0</ele><time>2026-04-18T06:07:05.988Z</time></trkpt><trkpt lat="53.3402652" lon="-1.6137757"><ele>424.0</ele><time>2026-04-18T06:07:06.983Z</time></trkpt><trkpt lat="53.3401248" lon="-1.613938"><ele>424.0</ele><time>2026-04-18T06:07:07.982Z</time></trkpt><trkpt lat="53.3399868" lon="-1.6140953"><ele>424.0</ele><time>2026-04-18T06:07:08.98Z</time></trkpt><trkpt lat="53.3398587" lon="-1.614244"><ele>424.0</ele><time>2026-04-18T06:07:09.98Z</time></trkpt><trkpt lat="53.3397452" lon="-1.6143797"><ele>424.0</ele><time>2026-04-18T06:07:10.983Z</time></trkpt><trkpt lat="53.3396458" lon="-1.6145073"><ele>424.0</ele><time>2026-04-18T06:07:11.982Z</time></trkpt><trkpt lat="53.3395603" lon="-1.6146458"><ele>424.0</ele><time>2026-04-18T06:07:12.984Z</time></trkpt><trkpt lat="53.3394926" lon="-1.6147982"><ele>424.0</ele><time>2026-04-18T06:07:13.974Z</time></trkpt><trkpt lat="53.3394445" lon="-1.6149726"><ele>424.0</ele><time>2026-04-18T06:07:14.982Z</time></trkpt><trkpt lat="53.3394119" lon="-1.6151658"><ele>424.0</ele><time>2026-04-18T06:07:15.982Z</time></trkpt><trkpt lat="53.3393932" lon="-1.6153796"><ele>424.0</ele><time>2026-04-18T06:07:16.983Z</time></trkpt><trkpt lat="53.33938" lon="-1.6156123"><ele>425.33333333333337</ele><time>2026-04-18T06:07:17.982Z</time></trkpt><trkpt lat="53.3393738" lon="-1.6158594"><ele>426.66666666666663</ele><time>2026-04-18T06:07:18.983Z</time></trkpt><trkpt lat="53.3393746" lon="-1.6161186"><ele>428.0</ele><time>2026-04-18T06:07:19.983Z</time></trkpt><trkpt lat="53.3393801" lon="-1.6163791"><ele>428.66666666666663</ele><time>2026-04-18T06:07:20.983Z</time></trkpt><trkpt lat="53.339388" lon="-1.6166497"><ele>429.33333333333337</ele><time>2026-04-18T06:07:21.983Z</time></trkpt><trkpt lat="53.3393958" lon="-1.6169018"><ele>430.0</ele><time>2026-04-18T06:07:22.987Z</time></trkpt><trkpt lat="53.339404" lon="-1.6171464"><ele>430.0</ele><time>2026-04-18T06:07:23.983Z</time></trkpt><trkpt lat="53.3394113" lon="-1.6173925"><ele>430.0</ele><time>2026-04-18T06:07:24.983Z</time></trkpt><trkpt lat="53.3394177" lon="-1.6176466"><ele>430.0</ele><time>2026-04-18T06:07:25.982Z</time></trkpt><trkpt lat="53.3394238" lon="-1.6179112"><ele>430.0</ele><time>2026-04-18T06:07:26.976Z</time></trkpt><trkpt lat="53.3394296" lon="-1.6181836"><ele>430.0</ele><time>2026-04-18T06:07:27.982Z</time></trkpt><trkpt lat="53.3394348" lon="-1.6184623"><ele>430.0</ele><time>2026-04-18T06:07:28.982Z</time></trkpt><trkpt lat="53.3394406" lon="-1.6187417"><ele>430.0</ele><time>2026-04-18T06:07:29.982Z</time></trkpt><trkpt lat="53.3394464" lon="-1.6190166"><ele>430.0</ele><time>2026-04-18T06:07:30.979Z</time></trkpt><trkpt lat="53.3394509" lon="-1.6192851"><ele>430.0</ele><time>2026-04-18T06:07:31.981Z</time></trkpt><trkpt lat="53.3394539" lon="-1.6195527"><ele>429.6666666666667</ele><time>2026-04-18T06:07:32.985Z</time></trkpt><trkpt lat="53.3394579" lon="-1.6198173"><ele>429.33333333333337</ele><time>2026-04-18T06:07:33.979Z</time></trkpt><trkpt lat="53.3394646" lon="-1.6200834"><ele>429.0</ele><time>2026-04-18T06:07:34.979Z</time></trkpt><trkpt lat="53.3394776" lon="-1.6203449"><ele>429.0</ele><time>2026-04-18T06:07:35.979Z</time></trkpt><trkpt lat="53.3394973" lon="-1.6206022"><ele>429.0</ele><time>2026-04-18T06:07:36.977Z</time></trkpt><trkpt lat="53.3395236" lon="-1.6208484"><ele>429.0</ele><time>2026-04-18T06:07:37.978Z</time></trkpt><trkpt lat="53.3395592" lon="-1.6210894"><ele>429.25</ele><time>2026-04-18T06:07:38.981Z</time></trkpt><trkpt lat="53.3396045" lon="-1.6213235"><ele>429.5</ele><time>2026-04-18T06:07:39.982Z</time></trkpt><trkpt lat="53.3396511" lon="-1.6215485"><ele>429.75</ele><time>2026-04-18T06:07:40.982Z</time></trkpt><trkpt lat="53.3397001" lon="-1.6217571"><ele>430.0</ele><time>2026-04-18T06:07:41.982Z</time></trkpt><trkpt lat="53.3397552" lon="-1.6219552"><ele>429.0</ele><time>2026-04-18T06:07:42.984Z</time></trkpt><trkpt lat="53.3398215" lon="-1.6221428"><ele>428.0</ele><time>2026-04-18T06:07:43.983Z</time></trkpt><trkpt lat="53.3399085" lon="-1.6223154"><ele>427.0</ele><time>2026-04-18T06:07:44.983Z</time></trkpt><trkpt lat="53.3400137" lon="-1.6224776"><ele>426.0</ele><time>2026-04-18T06:07:45.982Z</time></trkpt><trkpt lat="53.3401407" lon="-1.6226259"><ele>426.0</ele><time>2026-04-18T06:07:46.983Z</time></trkpt><trkpt lat="53.3402759" lon="-1.6227753"><ele>426.0</ele><time>2026-04-18T06:07:47.982Z</time></trkpt><trkpt lat="53.3404123" lon="-1.6229334"><ele>426.0</ele><time>2026-04-18T06:07:48.983Z</time></trkpt><trkpt lat="53.3405479" lon="-1.6231068"><ele>425.66666666666663</ele><time>2026-04-18T06:07:49.977Z</time></trkpt><trkpt lat="53.3406879" lon="-1.6232839"><ele>425.3333333333333</ele><time>2026-04-18T06:07:50.983Z</time></trkpt><trkpt lat="53.3408333" lon="-1.6234513"><ele>425.0</ele><time>2026-04-18T06:07:51.983Z</time></trkpt><trkpt lat="53.340984" lon="-1.6236094"><ele>423.66666666666663</ele><time>2026-04-18T06:07:52.984Z</time></trkpt><trkpt lat="53.3411353" lon="-1.6237467"><ele>422.33333333333337</ele><time>2026-04-18T06:07:53.982Z</time></trkpt><trkpt lat="53.3412662" lon="-1.623889"><ele>421.0</ele><time>2026-04-18T06:07:54.982Z</time></trkpt><trkpt lat="53.3413838" lon="-1.6240441"><ele>421.0</ele><time>2026-04-18T06:07:55.981Z</time></trkpt><trkpt lat="53.3414982" lon="-1.6242305"><ele>421.0</ele><time>2026-04-18T06:07:56.98Z</time></trkpt><trkpt lat="53.3416067" lon="-1.6244389"><ele>421.0</ele><time>2026-04-18T06:07:57.98Z</time></trkpt><trkpt lat="53.3417118" lon="-1.6246599"><ele>417.33333333333337</ele><time>2026-04-18T06:07:58.98Z</time></trkpt><trkpt lat="53.3418113" lon="-1.6249007"><ele>413.66666666666663</ele><time>2026-04-18T06:07:59.982Z</time></trkpt><trkpt lat="53.3419059" lon="-1.625158"><ele>410.0</ele><time>2026-04-18T06:08:00.978Z</time></trkpt><trkpt lat="53.3420027" lon="-1.6254356"><ele>409.0</ele><time>2026-04-18T06:08:01.977Z</time></trkpt><trkpt lat="53.3420939" lon="-1.6257101"><ele>408.0</ele><time>2026-04-18T06:08:02.982Z</time></trkpt><trkpt lat="53.3421783" lon="-1.6259882"><ele>407.0</ele><time>2026-04-18T06:08:03.979Z</time></trkpt><trkpt lat="53.3422543" lon="-1.6262694"><ele>407.0</ele><time>2026-04-18T06:08:04.978Z</time></trkpt><trkpt lat="53.3423258" lon="-1.6265553"><ele>407.0</ele><time>2026-04-18T06:08:05.981Z</time></trkpt><trkpt lat="53.3423934" lon="-1.6268377"><ele>407.0</ele><time>2026-04-18T06:08:06.977Z</time></trkpt><trkpt lat="53.3424574" lon="-1.6271152"><ele>404.0</ele><time>2026-04-18T06:08:07.977Z</time></trkpt><trkpt lat="53.3425191" lon="-1.627381"><ele>401.0</ele><time>2026-04-18T06:08:08.976Z</time></trkpt><trkpt lat="53.342574" lon="-1.6276454"><ele>398.0</ele><time>2026-04-18T06:08:09.978Z</time></trkpt><trkpt lat="53.3426272" lon="-1.6279103"><ele>395.3333333333333</ele><time>2026-04-18T06:08:10.978Z</time></trkpt><trkpt lat="53.3426753" lon="-1.6281656"><ele>392.66666666666663</ele><time>2026-04-18T06:08:11.977Z</time></trkpt><trkpt lat="53.3427122" lon="-1.6284133"><ele>390.0</ele><time>2026-04-18T06:08:12.979Z</time></trkpt><trkpt lat="53.3427343" lon="-1.628667"><ele>387.6666666666667</ele><time>2026-04-18T06:08:13.978Z</time></trkpt><trkpt lat="53.3427455" lon="-1.6289325"><ele>385.33333333333337</ele><time>2026-04-18T06:08:14.98Z</time></trkpt><trkpt lat="53.3427518" lon="-1.6292079"><ele>383.0</ele><time>2026-04-18T06:08:15.979Z</time></trkpt><trkpt lat="53.3427681" lon="-1.6294858"><ele>381.0</ele><time>2026-04-18T06:08:16.98Z</time></trkpt><trkpt lat="53.3427808" lon="-1.6297702"><ele>379.0</ele><time>2026-04-18T06:08:17.98Z</time></trkpt><trkpt lat="53.3427892" lon="-1.6300539"><ele>377.0</ele><time>2026-04-18T06:08:18.981Z</time></trkpt><trkpt lat="53.3427906" lon="-1.6303418"><ele>375.6666666666667</ele><time>2026-04-18T06:08:19.983Z</time></trkpt><trkpt lat="53.3427862" lon="-1.6306348"><ele>374.3333333333333</ele><time>2026-04-18T06:08:20.981Z</time></trkpt><trkpt lat="53.3427769" lon="-1.6309281"><ele>373.0</ele><time>2026-04-18T06:08:21.981Z</time></trkpt><trkpt lat="53.3427636" lon="-1.6312153"><ele>371.0</ele><time>2026-04-18T06:08:22.983Z</time></trkpt><trkpt lat="53.3427471" lon="-1.6314943"><ele>369.0</ele><time>2026-04-18T06:08:23.982Z</time></trkpt><trkpt lat="53.3427277" lon="-1.6317671"><ele>367.0</ele><time>2026-04-18T06:08:24.981Z</time></trkpt><trkpt lat="53.3427047" lon="-1.6320283"><ele>366.5</ele><time>2026-04-18T06:08:25.983Z</time></trkpt><trkpt lat="53.3426765" lon="-1.6322772"><ele>366.0</ele><time>2026-04-18T06:08:26.974Z</time></trkpt><trkpt lat="53.3426413" lon="-1.6325087"><ele>365.5</ele><time>2026-04-18T06:08:27.983Z</time></trkpt><trkpt lat="53.3425957" lon="-1.6327145"><ele>365.0</ele><time>2026-04-18T06:08:28.981Z</time></trkpt><trkpt lat="53.3425371" lon="-1.6328872"><ele>364.6</ele><time>2026-04-18T06:08:29.981Z</time></trkpt><trkpt lat="53.342465" lon="-1.63303"><ele>364.2</ele><time>2026-04-18T06:08:30.979Z</time></trkpt><trkpt lat="53.3423859" lon="-1.633145"><ele>363.79999999999995</ele><time>2026-04-18T06:08:31.978Z</time></trkpt><trkpt lat="53.3423038" lon="-1.6332253"><ele>363.4</ele><time>2026-04-18T06:08:32.984Z</time></trkpt><trkpt lat="53.3422292" lon="-1.6332754"><ele>363.0</ele><time>2026-04-18T06:08:33.979Z</time></trkpt><trkpt lat="53.3421524" lon="-1.6333606"><ele>362.75</ele><time>2026-04-18T06:08:35.978Z</time></trkpt><trkpt lat="53.3422101" lon="-1.6335517"><ele>362.5</ele><time>2026-04-18T06:08:37.98Z</time></trkpt><trkpt lat="53.3422929" lon="-1.6336599"><ele>362.25</ele><time>2026-04-18T06:08:38.979Z</time></trkpt><trkpt lat="53.3424167" lon="-1.6337737"><ele>362.0</ele><time>2026-04-18T06:08:39.98Z</time></trkpt><trkpt lat="53.3425383" lon="-1.6338873"><ele>362.0</ele><time>2026-04-18T06:08:40.981Z</time></trkpt><trkpt lat="53.3426676" lon="-1.6340036"><ele>362.0</ele><time>2026-04-18T06:08:41.981Z</time></trkpt><trkpt lat="53.3428014" lon="-1.6341373"><ele>362.0</ele><time>2026-04-18T06:08:42.984Z</time></trkpt><trkpt lat="53.3429328" lon="-1.6342892"><ele>361.0</ele><time>2026-04-18T06:08:43.981Z</time></trkpt><trkpt lat="53.3430541" lon="-1.6344293"><ele>360.0</ele><time>2026-04-18T06:08:44.98Z</time></trkpt><trkpt lat="53.3431656" lon="-1.6345681"><ele>359.0</ele><time>2026-04-18T06:08:45.979Z</time></trkpt><trkpt lat="53.3432734" lon="-1.6347047"><ele>358.0</ele><time>2026-04-18T06:08:46.982Z</time></trkpt><trkpt lat="53.3433718" lon="-1.6348224"><ele>358.0</ele><time>2026-04-18T06:08:47.981Z</time></trkpt><trkpt lat="53.3434564" lon="-1.63492"><ele>358.0</ele><time>2026-04-18T06:08:48.982Z</time></trkpt><trkpt lat="53.343531" lon="-1.6350143"><ele>358.0</ele><time>2026-04-18T06:08:49.981Z</time></trkpt><trkpt lat="53.3436075" lon="-1.6351166"><ele>358.0</ele><time>2026-04-18T06:08:50.98Z</time></trkpt><trkpt lat="53.3436942" lon="-1.6352298"><ele>358.0</ele><time>2026-04-18T06:08:51.98Z</time></trkpt><trkpt lat="53.343795" lon="-1.6353543"><ele>355.66666666666663</ele><time>2026-04-18T06:08:52.986Z</time></trkpt><trkpt lat="53.3439159" lon="-1.6354946"><ele>353.3333333333333</ele><time>2026-04-18T06:08:53.982Z</time></trkpt><trkpt lat="53.3440531" lon="-1.6356497"><ele>351.0</ele><time>2026-04-18T06:08:54.981Z</time></trkpt><trkpt lat="53.3441944" lon="-1.635806"><ele>351.0</ele><time>2026-04-18T06:08:55.983Z</time></trkpt><trkpt lat="53.344337" lon="-1.6359686"><ele>351.0</ele><time>2026-04-18T06:08:56.98Z</time></trkpt><trkpt lat="53.3444837" lon="-1.636142"><ele>351.0</ele><time>2026-04-18T06:08:57.982Z</time></trkpt><trkpt lat="53.3446372" lon="-1.6363224"><ele>349.3333333333333</ele><time>2026-04-18T06:08:58.98Z</time></trkpt><trkpt lat="53.3447978" lon="-1.6365114"><ele>347.66666666666663</ele><time>2026-04-18T06:08:59.983Z</time></trkpt><trkpt lat="53.3449607" lon="-1.6367041"><ele>346.0</ele><time>2026-04-18T06:09:00.982Z</time></trkpt><trkpt lat="53.3451231" lon="-1.6368967"><ele>346.66666666666663</ele><time>2026-04-18T06:09:01.981Z</time></trkpt><trkpt lat="53.3452846" lon="-1.6370848"><ele>347.3333333333333</ele><time>2026-04-18T06:09:02.984Z</time></trkpt><trkpt lat="53.3454444" lon="-1.6372679"><ele>348.0</ele><time>2026-04-18T06:09:03.985Z</time></trkpt><trkpt lat="53.3456042" lon="-1.6374469"><ele>345.6666666666667</ele><time>2026-04-18T06:09:04.986Z</time></trkpt><trkpt lat="53.3457614" lon="-1.6376262"><ele>343.33333333333337</ele><time>2026-04-18T06:09:05.987Z</time></trkpt><trkpt lat="53.3459161" lon="-1.6378088"><ele>341.0</ele><time>2026-04-18T06:09:06.987Z</time></trkpt><trkpt lat="53.3460727" lon="-1.6379943"><ele>341.0</ele><time>2026-04-18T06:09:07.987Z</time></trkpt><trkpt lat="53.3462303" lon="-1.6381801"><ele>341.0</ele><time>2026-04-18T06:09:08.989Z</time></trkpt><trkpt lat="53.3463828" lon="-1.6383638"><ele>341.0</ele><time>2026-04-18T06:09:09.986Z</time></trkpt><trkpt lat="53.3465305" lon="-1.6385413"><ele>338.0</ele><time>2026-04-18T06:09:10.985Z</time></trkpt><trkpt lat="53.3466751" lon="-1.638727"><ele>335.0</ele><time>2026-04-18T06:09:11.987Z</time></trkpt><trkpt lat="53.3468167" lon="-1.6389206"><ele>332.0</ele><time>2026-04-18T06:09:12.991Z</time></trkpt><trkpt lat="53.3469526" lon="-1.6391055"><ele>332.0</ele><time>2026-04-18T06:09:13.988Z</time></trkpt><trkpt lat="53.3470818" lon="-1.639278"><ele>332.0</ele><time>2026-04-18T06:09:14.988Z</time></trkpt><trkpt lat="53.3472118" lon="-1.6394448"><ele>332.0</ele><time>2026-04-18T06:09:15.986Z</time></trkpt><trkpt lat="53.347331" lon="-1.6396089"><ele>329.0</ele><time>2026-04-18T06:09:16.988Z</time></trkpt><trkpt lat="53.3474452" lon="-1.6397728"><ele>326.0</ele><time>2026-04-18T06:09:17.988Z</time></trkpt><trkpt lat="53.3475563" lon="-1.6399333"><ele>323.0</ele><time>2026-04-18T06:09:18.988Z</time></trkpt><trkpt lat="53.3476613" lon="-1.6400815"><ele>320.0</ele><time>2026-04-18T06:09:19.985Z</time></trkpt><trkpt lat="53.3477582" lon="-1.6402116"><ele>320.0</ele><time>2026-04-18T06:09:20.988Z</time></trkpt><trkpt lat="53.347853" lon="-1.6403201"><ele>320.0</ele><time>2026-04-18T06:09:21.983Z</time></trkpt><trkpt lat="53.3479387" lon="-1.6404148"><ele>320.0</ele><time>2026-04-18T06:09:22.985Z</time></trkpt><trkpt lat="53.3480171" lon="-1.6405046"><ele>320.0</ele><time>2026-04-18T06:09:23.984Z</time></trkpt><trkpt lat="53.3480927" lon="-1.6405881"><ele>320.0</ele><time>2026-04-18T06:09:24.983Z</time></trkpt><trkpt lat="53.3481746" lon="-1.6406503"><ele>318.4</ele><time>2026-04-18T06:09:25.985Z</time></trkpt><trkpt lat="53.3482635" lon="-1.640678"><ele>316.8</ele><time>2026-04-18T06:09:26.98Z</time></trkpt><trkpt lat="53.3483654" lon="-1.6406566"><ele>315.2</ele><time>2026-04-18T06:09:27.98Z</time></trkpt><trkpt lat="53.3484734" lon="-1.6405908"><ele>313.6</ele><time>2026-04-18T06:09:28.98Z</time></trkpt><trkpt lat="53.3485767" lon="-1.6405262"><ele>312.0</ele><time>2026-04-18T06:09:29.984Z</time></trkpt><trkpt lat="53.3486788" lon="-1.6405104"><ele>312.0</ele><time>2026-04-18T06:09:30.979Z</time></trkpt><trkpt lat="53.3487796" lon="-1.6405689"><ele>312.0</ele><time>2026-04-18T06:09:31.975Z</time></trkpt><trkpt lat="53.3488655" lon="-1.6407082"><ele>312.0</ele><time>2026-04-18T06:09:32.987Z</time></trkpt><trkpt lat="53.3489345" lon="-1.6408846"><ele>312.0</ele><time>2026-04-18T06:09:33.974Z</time></trkpt><trkpt lat="53.348993" lon="-1.6410732"><ele>311.6</ele><time>2026-04-18T06:09:34.983Z</time></trkpt><trkpt lat="53.3490422" lon="-1.6412414"><ele>311.2</ele><time>2026-04-18T06:09:35.981Z</time></trkpt><trkpt lat="53.3490893" lon="-1.6414033"><ele>310.8</ele><time>2026-04-18T06:09:36.975Z</time></trkpt><trkpt lat="53.3491388" lon="-1.6415705"><ele>310.4</ele><time>2026-04-18T06:09:37.981Z</time></trkpt><trkpt lat="53.3491921" lon="-1.6417473"><ele>310.0</ele><time>2026-04-18T06:09:38.979Z</time></trkpt><trkpt lat="53.3492424" lon="-1.6419406"><ele>310.0</ele><time>2026-04-18T06:09:39.981Z</time></trkpt><trkpt lat="53.3492834" lon="-1.6421509"><ele>310.0</ele><time>2026-04-18T06:09:40.982Z</time></trkpt><trkpt lat="53.3493122" lon="-1.6423708"><ele>310.0</ele><time>2026-04-18T06:09:41.981Z</time></trkpt><trkpt lat="53.3493248" lon="-1.6425933"><ele>310.0</ele><time>2026-04-18T06:09:42.981Z</time></trkpt><trkpt lat="53.3493255" lon="-1.642801"><ele>310.25</ele><time>2026-04-18T06:09:43.982Z</time></trkpt><trkpt lat="53.3493248" lon="-1.6430043"><ele>310.5</ele><time>2026-04-18T06:09:44.98Z</time></trkpt><trkpt lat="53.3493259" lon="-1.6431984"><ele>310.75</ele><time>2026-04-18T06:09:45.981Z</time></trkpt><trkpt lat="53.3493333" lon="-1.6433863"><ele>311.0</ele><time>2026-04-18T06:09:46.979Z</time></trkpt><trkpt lat="53.3493477" lon="-1.6435633"><ele>310.25</ele><time>2026-04-18T06:09:47.98Z</time></trkpt><trkpt lat="53.3493687" lon="-1.6437424"><ele>309.5</ele><time>2026-04-18T06:09:48.982Z</time></trkpt><trkpt lat="53.3493986" lon="-1.6439197"><ele>308.75</ele><time>2026-04-18T06:09:49.981Z</time></trkpt><trkpt lat="53.349444" lon="-1.6440935"><ele>308.0</ele><time>2026-04-18T06:09:50.983Z</time></trkpt><trkpt lat="53.3495037" lon="-1.6442684"><ele>308.0</ele><time>2026-04-18T06:09:51.982Z</time></trkpt><trkpt lat="53.3495741" lon="-1.6444507"><ele>308.0</ele><time>2026-04-18T06:09:52.984Z</time></trkpt><trkpt lat="53.3496545" lon="-1.6446303"><ele>308.0</ele><time>2026-04-18T06:09:53.983Z</time></trkpt><trkpt lat="53.3497443" lon="-1.6448011"><ele>308.0</ele><time>2026-04-18T06:09:54.986Z</time></trkpt><trkpt lat="53.3498472" lon="-1.6449593"><ele>308.5</ele><time>2026-04-18T06:09:55.982Z</time></trkpt><trkpt lat="53.3499618" lon="-1.6451057"><ele>309.0</ele><time>2026-04-18T06:09:56.983Z</time></trkpt><trkpt lat="53.3500817" lon="-1.6452524"><ele>309.5</ele><time>2026-04-18T06:09:57.983Z</time></trkpt><trkpt lat="53.3502004" lon="-1.645398"><ele>310.0</ele><time>2026-04-18T06:09:58.981Z</time></trkpt><trkpt lat="53.3503163" lon="-1.6455379"><ele>310.0</ele><time>2026-04-18T06:09:59.982Z</time></trkpt><trkpt lat="53.3504328" lon="-1.6456798"><ele>310.0</ele><time>2026-04-18T06:10:00.981Z</time></trkpt><trkpt lat="53.3505525" lon="-1.6458244"><ele>310.0</ele><time>2026-04-18T06:10:01.982Z</time></trkpt><trkpt lat="53.3506742" lon="-1.6459769"><ele>310.0</ele><time>2026-04-18T06:10:02.984Z</time></trkpt><trkpt lat="53.3508008" lon="-1.6461446"><ele>308.3333333333333</ele><time>2026-04-18T06:10:03.981Z</time></trkpt><trkpt lat="53.3509311" lon="-1.6463281"><ele>306.6666666666667</ele><time>2026-04-18T06:10:04.979Z</time></trkpt><trkpt lat="53.3510636" lon="-1.6465199"><ele>305.0</ele><time>2026-04-18T06:10:05.981Z</time></trkpt><trkpt lat="53.3511966" lon="-1.6467215"><ele>305.0</ele><time>2026-04-18T06:10:06.981Z</time></trkpt><trkpt lat="53.3513337" lon="-1.6469367"><ele>305.0</ele><time>2026-04-18T06:10:07.981Z</time></trkpt><trkpt lat="53.3514775" lon="-1.6471673"><ele>305.0</ele><time>2026-04-18T06:10:08.983Z</time></trkpt><trkpt lat="53.3516244" lon="-1.6473975"><ele>303.33333333333337</ele><time>2026-04-18T06:10:09.984Z</time></trkpt><trkpt lat="53.3517677" lon="-1.6476101"><ele>301.6666666666667</ele><time>2026-04-18T06:10:10.976Z</time></trkpt><trkpt lat="53.3519105" lon="-1.6477922"><ele>300.0</ele><time>2026-04-18T06:10:11.982Z</time></trkpt><trkpt lat="53.3520579" lon="-1.6479427"><ele>298.3333333333333</ele><time>2026-04-18T06:10:12.982Z</time></trkpt><trkpt lat="53.3522061" lon="-1.6480731"><ele>296.66666666666663</ele><time>2026-04-18T06:10:13.981Z</time></trkpt><trkpt lat="53.3523569" lon="-1.6481993"><ele>295.0</ele><time>2026-04-18T06:10:14.982Z</time></trkpt><trkpt lat="53.3524971" lon="-1.6483393"><ele>295.0</ele><time>2026-04-18T06:10:15.983Z</time></trkpt><trkpt lat="53.3526205" lon="-1.6485029"><ele>295.0</ele><time>2026-04-18T06:10:16.981Z</time></trkpt><trkpt lat="53.3527301" lon="-1.6486962"><ele>295.0</ele><time>2026-04-18T06:10:17.983Z</time></trkpt><trkpt lat="53.3528234" lon="-1.6489104"><ele>294.75</ele><time>2026-04-18T06:10:18.983Z</time></trkpt><trkpt lat="53.3528982" lon="-1.6491315"><ele>294.5</ele><time>2026-04-18T06:10:19.983Z</time></trkpt><trkpt lat="53.3529606" lon="-1.6493559"><ele>294.25</ele><time>2026-04-18T06:10:20.982Z</time></trkpt><trkpt lat="53.3530236" lon="-1.6495665"><ele>294.0</ele><time>2026-04-18T06:10:21.982Z</time></trkpt><trkpt lat="53.3531014" lon="-1.6497531"><ele>294.0</ele><time>2026-04-18T06:10:22.985Z</time></trkpt><trkpt lat="53.3532011" lon="-1.6499107"><ele>294.0</ele><time>2026-04-18T06:10:23.982Z</time></trkpt><trkpt lat="53.3533213" lon="-1.6500355"><ele>294.0</ele><time>2026-04-18T06:10:24.982Z</time></trkpt><trkpt lat="53.3534447" lon="-1.6501465"><ele>294.0</ele><time>2026-04-18T06:10:25.98Z</time></trkpt><trkpt lat="53.3535745" lon="-1.6502515"><ele>293.75</ele><time>2026-04-18T06:10:26.98Z</time></trkpt><trkpt lat="53.3536996" lon="-1.6503633"><ele>293.5</ele><time>2026-04-18T06:10:27.982Z</time></trkpt><trkpt lat="53.3538233" lon="-1.6504845"><ele>293.25</ele><time>2026-04-18T06:10:28.983Z</time></trkpt><trkpt lat="53.3539508" lon="-1.6506098"><ele>293.0</ele><time>2026-04-18T06:10:29.985Z</time></trkpt><trkpt lat="53.3540838" lon="-1.650737"><ele>293.0</ele><time>2026-04-18T06:10:30.988Z</time></trkpt><trkpt lat="53.3542217" lon="-1.6508692"><ele>293.0</ele><time>2026-04-18T06:10:31.986Z</time></trkpt><trkpt lat="53.3543649" lon="-1.6510062"><ele>293.0</ele><time>2026-04-18T06:10:32.983Z</time></trkpt><trkpt lat="53.3545106" lon="-1.6511487"><ele>293.0</ele><time>2026-04-18T06:10:33.984Z</time></trkpt><trkpt lat="53.3546609" lon="-1.6512944"><ele>293.0</ele><time>2026-04-18T06:10:34.981Z</time></trkpt><trkpt lat="53.3548118" lon="-1.6514336"><ele>293.0</ele><time>2026-04-18T06:10:35.984Z</time></trkpt><trkpt lat="53.3549617" lon="-1.6515642"><ele>293.0</ele><time>2026-04-18T06:10:36.982Z</time></trkpt><trkpt lat="53.3551061" lon="-1.6516832"><ele>293.0</ele><time>2026-04-18T06:10:37.982Z</time></trkpt><trkpt lat="53.3552442" lon="-1.6517935"><ele>293.0</ele><time>2026-04-18T06:10:38.98Z</time></trkpt><trkpt lat="53.3553695" lon="-1.6519076"><ele>293.25</ele><time>2026-04-18T06:10:39.984Z</time></trkpt><trkpt lat="53.3554768" lon="-1.652035"><ele>293.5</ele><time>2026-04-18T06:10:40.981Z</time></trkpt><trkpt lat="53.3555516" lon="-1.6521982"><ele>293.75</ele><time>2026-04-18T06:10:41.98Z</time></trkpt><trkpt lat="53.3555882" lon="-1.6524056"><ele>294.0</ele><time>2026-04-18T06:10:42.985Z</time></trkpt><trkpt lat="53.3555989" lon="-1.6526471"><ele>297.6666666666667</ele><time>2026-04-18T06:10:43.983Z</time></trkpt><trkpt lat="53.3555956" lon="-1.6529024"><ele>301.33333333333337</ele><time>2026-04-18T06:10:44.98Z</time></trkpt><trkpt lat="53.3555907" lon="-1.6531567"><ele>305.0</ele><time>2026-04-18T06:10:45.981Z</time></trkpt><trkpt lat="53.3555915" lon="-1.6534068"><ele>305.5</ele><time>2026-04-18T06:10:46.982Z</time></trkpt><trkpt lat="53.3555917" lon="-1.6536505"><ele>306.0</ele><time>2026-04-18T06:10:47.983Z</time></trkpt><trkpt lat="53.3555954" lon="-1.6538866"><ele>306.5</ele><time>2026-04-18T06:10:48.981Z</time></trkpt><trkpt lat="53.3556012" lon="-1.6541152"><ele>307.0</ele><time>2026-04-18T06:10:49.985Z</time></trkpt><trkpt lat="53.355608" lon="-1.6543372"><ele>307.75</ele><time>2026-04-18T06:10:50.984Z</time></trkpt><trkpt lat="53.3556165" lon="-1.654559"><ele>308.5</ele><time>2026-04-18T06:10:51.985Z</time></trkpt><trkpt lat="53.3556209" lon="-1.6547841"><ele>309.25</ele><time>2026-04-18T06:10:52.986Z</time></trkpt><trkpt lat="53.3556205" lon="-1.655013"><ele>310.0</ele><time>2026-04-18T06:10:53.978Z</time></trkpt><trkpt lat="53.3556162" lon="-1.6552427"><ele>310.25</ele><time>2026-04-18T06:10:54.984Z</time></trkpt><trkpt lat="53.35561" lon="-1.6554771"><ele>310.5</ele><time>2026-04-18T06:10:55.984Z</time></trkpt><trkpt lat="53.355602" lon="-1.6557078"><ele>310.75</ele><time>2026-04-18T06:10:56.985Z</time></trkpt><trkpt lat="53.355593" lon="-1.6559313"><ele>311.0</ele><time>2026-04-18T06:10:57.983Z</time></trkpt><trkpt lat="53.3555825" lon="-1.6561498"><ele>311.5</ele><time>2026-04-18T06:10:58.976Z</time></trkpt><trkpt lat="53.3555706" lon="-1.6563665"><ele>312.0</ele><time>2026-04-18T06:10:59.984Z</time></trkpt><trkpt lat="53.3555588" lon="-1.6565861"><ele>312.5</ele><time>2026-04-18T06:11:00.983Z</time></trkpt><trkpt lat="53.3555479" lon="-1.6568109"><ele>313.0</ele><time>2026-04-18T06:11:01.984Z</time></trkpt><trkpt lat="53.3555395" lon="-1.6570369"><ele>315.5</ele><time>2026-04-18T06:11:02.987Z</time></trkpt><trkpt lat="53.3555313" lon="-1.6572609"><ele>318.0</ele><time>2026-04-18T06:11:03.983Z</time></trkpt><trkpt lat="53.3555243" lon="-1.6574827"><ele>320.5</ele><time>2026-04-18T06:11:04.983Z</time></trkpt><trkpt lat="53.3555196" lon="-1.6576969"><ele>323.0</ele><time>2026-04-18T06:11:05.984Z</time></trkpt><trkpt lat="53.3555146" lon="-1.6579012"><ele>324.2</ele><time>2026-04-18T06:11:06.984Z</time></trkpt><trkpt lat="53.3555075" lon="-1.6580966"><ele>325.4</ele><time>2026-04-18T06:11:07.985Z</time></trkpt><trkpt lat="53.355499" lon="-1.6582856"><ele>326.59999999999997</ele><time>2026-04-18T06:11:08.983Z</time></trkpt><trkpt lat="53.3554928" lon="-1.6584621"><ele>327.79999999999995</ele><time>2026-04-18T06:11:09.985Z</time></trkpt><trkpt lat="53.355491" lon="-1.6586318"><ele>329.0</ele><time>2026-04-18T06:11:10.982Z</time></trkpt><trkpt lat="53.3554895" lon="-1.6588037"><ele>329.2</ele><time>2026-04-18T06:11:11.982Z</time></trkpt><trkpt lat="53.3554842" lon="-1.6589821"><ele>329.4</ele><time>2026-04-18T06:11:12.987Z</time></trkpt><trkpt lat="53.3554786" lon="-1.6591677"><ele>329.6</ele><time>2026-04-18T06:11:13.983Z</time></trkpt><trkpt lat="53.3554726" lon="-1.6593482"><ele>329.8</ele><time>2026-04-18T06:11:14.983Z</time></trkpt><trkpt lat="53.3554664" lon="-1.6595126"><ele>330.0</ele><time>2026-04-18T06:11:15.982Z</time></trkpt><trkpt lat="53.3554612" lon="-1.6596535"><ele>330.0</ele><time>2026-04-18T06:11:16.983Z</time></trkpt><trkpt lat="53.3554594" lon="-1.6597662"><ele>330.0</ele><time>2026-04-18T06:11:17.985Z</time></trkpt><trkpt lat="53.3554663" lon="-1.6599148"><ele>330.0</ele><time>2026-04-18T06:11:19.985Z</time></trkpt><trkpt lat="53.3554665" lon="-1.6600677"><ele>330.0</ele><time>2026-04-18T06:11:21.985Z</time></trkpt><trkpt lat="53.3554556" lon="-1.6602013"><ele>330.0</ele><time>2026-04-18T06:11:23.984Z</time></trkpt><trkpt lat="53.3554047" lon="-1.660306"><ele>330.0</ele><time>2026-04-18T06:11:25.987Z</time></trkpt><trkpt lat="53.355297" lon="-1.6603473"><ele>329.8</ele><time>2026-04-18T06:11:27.983Z</time></trkpt><trkpt lat="53.3551974" lon="-1.6603295"><ele>329.6</ele><time>2026-04-18T06:11:29.983Z</time></trkpt><trkpt lat="53.3551206" lon="-1.660329"><ele>329.4</ele><time>2026-04-18T06:11:44.982Z</time></trkpt><trkpt lat="53.3549748" lon="-1.6603374"><ele>329.2</ele><time>2026-04-18T06:11:46.982Z</time></trkpt><trkpt lat="53.3548681" lon="-1.6603363"><ele>329.0</ele><time>2026-04-18T06:11:47.981Z</time></trkpt><trkpt lat="53.3547468" lon="-1.6603299"><ele>329.5</ele><time>2026-04-18T06:11:48.985Z</time></trkpt><trkpt lat="53.3546206" lon="-1.660331"><ele>330.0</ele><time>2026-04-18T06:11:49.982Z</time></trkpt><trkpt lat="53.3544939" lon="-1.6603418"><ele>330.5</ele><time>2026-04-18T06:11:50.98Z</time></trkpt><trkpt lat="53.3543645" lon="-1.6603671"><ele>331.0</ele><time>2026-04-18T06:11:51.981Z</time></trkpt><trkpt lat="53.3542381" lon="-1.660416"><ele>331.0</ele><time>2026-04-18T06:11:52.984Z</time></trkpt><trkpt lat="53.3541193" lon="-1.6604988"><ele>331.0</ele><time>2026-04-18T06:11:53.973Z</time></trkpt><trkpt lat="53.3540077" lon="-1.660619"><ele>331.0</ele><time>2026-04-18T06:11:54.983Z</time></trkpt><trkpt lat="53.3539027" lon="-1.6607719"><ele>331.0</ele><time>2026-04-18T06:11:55.981Z</time></trkpt><trkpt lat="53.3538026" lon="-1.6609339"><ele>330.5</ele><time>2026-04-18T06:11:56.985Z</time></trkpt><trkpt lat="53.353707" lon="-1.6611009"><ele>330.0</ele><time>2026-04-18T06:11:57.984Z</time></trkpt><trkpt lat="53.3536105" lon="-1.6612592"><ele>329.5</ele><time>2026-04-18T06:11:58.981Z</time></trkpt><trkpt lat="53.3535164" lon="-1.6614056"><ele>329.0</ele><time>2026-04-18T06:11:59.984Z</time></trkpt><trkpt lat="53.3534234" lon="-1.6615393"><ele>328.25</ele><time>2026-04-18T06:12:00.986Z</time></trkpt><trkpt lat="53.3533292" lon="-1.6616655"><ele>327.5</ele><time>2026-04-18T06:12:01.986Z</time></trkpt><trkpt lat="53.3532289" lon="-1.661793"><ele>326.75</ele><time>2026-04-18T06:12:02.986Z</time></trkpt><trkpt lat="53.3531204" lon="-1.6619175"><ele>326.0</ele><time>2026-04-18T06:12:03.986Z</time></trkpt><trkpt lat="53.353005" lon="-1.6620269"><ele>326.0</ele><time>2026-04-18T06:12:04.987Z</time></trkpt><trkpt lat="53.3528781" lon="-1.6621087"><ele>326.0</ele><time>2026-04-18T06:12:05.989Z</time></trkpt><trkpt lat="53.3527389" lon="-1.6621514"><ele>326.0</ele><time>2026-04-18T06:12:06.985Z</time></trkpt><trkpt lat="53.3525898" lon="-1.6621631"><ele>326.0</ele><time>2026-04-18T06:12:07.985Z</time></trkpt><trkpt lat="53.3524361" lon="-1.6621535"><ele>326.0</ele><time>2026-04-18T06:12:08.984Z</time></trkpt><trkpt lat="53.3522831" lon="-1.6621246"><ele>326.0</ele><time>2026-04-18T06:12:09.984Z</time></trkpt><trkpt lat="53.3521388" lon="-1.6620735"><ele>326.0</ele><time>2026-04-18T06:12:10.985Z</time></trkpt><trkpt lat="53.3520058" lon="-1.6619912"><ele>326.0</ele><time>2026-04-18T06:12:11.986Z</time></trkpt><trkpt lat="53.3518873" lon="-1.6618663"><ele>324.75</ele><time>2026-04-18T06:12:12.978Z</time></trkpt><trkpt lat="53.3517847" lon="-1.6617049"><ele>323.5</ele><time>2026-04-18T06:12:13.984Z</time></trkpt><trkpt lat="53.351684" lon="-1.6615347"><ele>322.25</ele><time>2026-04-18T06:12:14.983Z</time></trkpt><trkpt lat="53.3515814" lon="-1.6613806"><ele>321.0</ele><time>2026-04-18T06:12:15.987Z</time></trkpt><trkpt lat="53.3514683" lon="-1.6612557"><ele>320.0</ele><time>2026-04-18T06:12:16.986Z</time></trkpt><trkpt lat="53.3513404" lon="-1.6611623"><ele>319.0</ele><time>2026-04-18T06:12:17.984Z</time></trkpt><trkpt lat="53.3512002" lon="-1.6611052"><ele>318.0</ele><time>2026-04-18T06:12:18.984Z</time></trkpt><trkpt lat="53.3510569" lon="-1.661072"><ele>317.0</ele><time>2026-04-18T06:12:19.984Z</time></trkpt><trkpt lat="53.3509163" lon="-1.6610435"><ele>317.0</ele><time>2026-04-18T06:12:20.986Z</time></trkpt><trkpt lat="53.3507761" lon="-1.6610118"><ele>317.0</ele><time>2026-04-18T06:12:21.984Z</time></trkpt><trkpt lat="53.3506375" lon="-1.6609804"><ele>317.0</ele><time>2026-04-18T06:12:22.991Z</time></trkpt><trkpt lat="53.3505072" lon="-1.6609724"><ele>317.0</ele><time>2026-04-18T06:12:23.984Z</time></trkpt><trkpt lat="53.3503901" lon="-1.6609954"><ele>316.0</ele><time>2026-04-18T06:12:24.984Z</time></trkpt><trkpt lat="53.3502883" lon="-1.6610387"><ele>315.0</ele><time>2026-04-18T06:12:25.984Z</time></trkpt><trkpt lat="53.3501983" lon="-1.6610998"><ele>314.0</ele><time>2026-04-18T06:12:26.985Z</time></trkpt><trkpt lat="53.3501151" lon="-1.6611772"><ele>313.0</ele><time>2026-04-18T06:12:27.985Z</time></trkpt><trkpt lat="53.3500322" lon="-1.66127"><ele>312.0</ele><time>2026-04-18T06:12:28.984Z</time></trkpt><trkpt lat="53.3499456" lon="-1.6613776"><ele>311.25</ele><time>2026-04-18T06:12:29.99Z</time></trkpt><trkpt lat="53.3498561" lon="-1.6614994"><ele>310.5</ele><time>2026-04-18T06:12:30.979Z</time></trkpt><trkpt lat="53.3497684" lon="-1.6616367"><ele>309.75</ele><time>2026-04-18T06:12:31.979Z</time></trkpt><trkpt lat="53.3496874" lon="-1.661796"><ele>309.0</ele><time>2026-04-18T06:12:32.985Z</time></trkpt><trkpt lat="53.3496165" lon="-1.6619667"><ele>309.0</ele><time>2026-04-18T06:12:33.98Z</time></trkpt><trkpt lat="53.3495419" lon="-1.6621313"><ele>309.0</ele><time>2026-04-18T06:12:34.979Z</time></trkpt><trkpt lat="53.3494527" lon="-1.6622777"><ele>309.0</ele><time>2026-04-18T06:12:35.98Z</time></trkpt><trkpt lat="53.34934" lon="-1.6623883"><ele>309.0</ele><time>2026-04-18T06:12:36.98Z</time></trkpt><trkpt lat="53.349213" lon="-1.662438"><ele>309.0</ele><time>2026-04-18T06:12:37.977Z</time></trkpt><trkpt lat="53.3490722" lon="-1.6624821"><ele>309.0</ele><time>2026-04-18T06:12:38.979Z</time></trkpt><trkpt lat="53.3489301" lon="-1.6625191"><ele>309.0</ele><time>2026-04-18T06:12:39.981Z</time></trkpt><trkpt lat="53.3488002" lon="-1.6625526"><ele>309.0</ele><time>2026-04-18T06:12:40.981Z</time></trkpt><trkpt lat="53.3486793" lon="-1.6625947"><ele>306.25</ele><time>2026-04-18T06:12:41.982Z</time></trkpt><trkpt lat="53.3485623" lon="-1.6626332"><ele>303.5</ele><time>2026-04-18T06:12:42.984Z</time></trkpt><trkpt lat="53.3484469" lon="-1.6626799"><ele>300.75</ele><time>2026-04-18T06:12:43.982Z</time></trkpt><trkpt lat="53.3483264" lon="-1.6627258"><ele>298.0</ele><time>2026-04-18T06:12:44.981Z</time></trkpt><trkpt lat="53.3481963" lon="-1.6627771"><ele>297.75</ele><time>2026-04-18T06:12:45.976Z</time></trkpt><trkpt lat="53.3480585" lon="-1.6628364"><ele>297.5</ele><time>2026-04-18T06:12:46.982Z</time></trkpt><trkpt lat="53.3479114" lon="-1.6628945"><ele>297.25</ele><time>2026-04-18T06:12:47.983Z</time></trkpt><trkpt lat="53.3477588" lon="-1.6629431"><ele>297.0</ele><time>2026-04-18T06:12:48.982Z</time></trkpt><trkpt lat="53.3476095" lon="-1.6629815"><ele>295.75</ele><time>2026-04-18T06:12:49.982Z</time></trkpt><trkpt lat="53.3474712" lon="-1.6630032"><ele>294.5</ele><time>2026-04-18T06:12:50.983Z</time></trkpt><trkpt lat="53.3473463" lon="-1.66301"><ele>293.25</ele><time>2026-04-18T06:12:51.983Z</time></trkpt><trkpt lat="53.347226" lon="-1.6630118"><ele>292.0</ele><time>2026-04-18T06:12:52.981Z</time></trkpt><trkpt lat="53.3471092" lon="-1.6630124"><ele>290.5</ele><time>2026-04-18T06:12:53.983Z</time></trkpt><trkpt lat="53.3469892" lon="-1.6630182"><ele>289.0</ele><time>2026-04-18T06:12:54.983Z</time></trkpt><trkpt lat="53.3468617" lon="-1.6630283"><ele>287.5</ele><time>2026-04-18T06:12:55.985Z</time></trkpt><trkpt lat="53.3467276" lon="-1.6630414"><ele>286.0</ele><time>2026-04-18T06:12:56.985Z</time></trkpt><trkpt lat="53.3465925" lon="-1.6630538"><ele>286.0</ele><time>2026-04-18T06:12:57.984Z</time></trkpt><trkpt lat="53.3464616" lon="-1.6630667"><ele>286.0</ele><time>2026-04-18T06:12:58.985Z</time></trkpt><trkpt lat="53.3463357" lon="-1.6630717"><ele>286.0</ele><time>2026-04-18T06:12:59.984Z</time></trkpt><trkpt lat="53.3462199" lon="-1.6630693"><ele>286.0</ele><time>2026-04-18T06:13:00.983Z</time></trkpt><trkpt lat="53.3461224" lon="-1.6630599"><ele>285.40000000000003</ele><time>2026-04-18T06:13:01.983Z</time></trkpt><trkpt lat="53.3460442" lon="-1.663043"><ele>284.8</ele><time>2026-04-18T06:13:02.983Z</time></trkpt><trkpt lat="53.3459812" lon="-1.6630269"><ele>284.20000000000005</ele><time>2026-04-18T06:13:03.984Z</time></trkpt><trkpt lat="53.3458879" lon="-1.6630311"><ele>283.6</ele><time>2026-04-18T06:13:05.982Z</time></trkpt><trkpt lat="53.3458044" lon="-1.6631172"><ele>283.0</ele><time>2026-04-18T06:13:07.988Z</time></trkpt><trkpt lat="53.3457071" lon="-1.6632347"><ele>283.0</ele><time>2026-04-18T06:13:09.99Z</time></trkpt><trkpt lat="53.3456128" lon="-1.6633217"><ele>283.0</ele><time>2026-04-18T06:13:11.985Z</time></trkpt><trkpt lat="53.3455662" lon="-1.6634047"><ele>283.0</ele><time>2026-04-18T06:13:13.989Z</time></trkpt><trkpt lat="53.3456092" lon="-1.663574"><ele>283.0</ele><time>2026-04-18T06:13:15.984Z</time></trkpt><trkpt lat="53.345666" lon="-1.6636811"><ele>283.0</ele><time>2026-04-18T06:13:16.984Z</time></trkpt><trkpt lat="53.3457185" lon="-1.6638042"><ele>281.4</ele><time>2026-04-18T06:13:17.983Z</time></trkpt><trkpt lat="53.3457728" lon="-1.6639427"><ele>279.8</ele><time>2026-04-18T06:13:18.983Z</time></trkpt><trkpt lat="53.3458325" lon="-1.6640902"><ele>278.2</ele><time>2026-04-18T06:13:19.986Z</time></trkpt><trkpt lat="53.3458882" lon="-1.6642251"><ele>276.6</ele><time>2026-04-18T06:13:20.981Z</time></trkpt><trkpt lat="53.3459354" lon="-1.6643462"><ele>275.0</ele><time>2026-04-18T06:13:21.984Z</time></trkpt><trkpt lat="53.3459793" lon="-1.6644638"><ele>274.0</ele><time>2026-04-18T06:13:22.983Z</time></trkpt><trkpt lat="53.3460238" lon="-1.6645887"><ele>273.0</ele><time>2026-04-18T06:13:23.982Z</time></trkpt><trkpt lat="53.3460701" lon="-1.6647213"><ele>272.0</ele><time>2026-04-18T06:13:24.982Z</time></trkpt><trkpt lat="53.3461106" lon="-1.6648511"><ele>271.0</ele><time>2026-04-18T06:13:25.981Z</time></trkpt><trkpt lat="53.3461425" lon="-1.6649698"><ele>270.0</ele><time>2026-04-18T06:13:26.981Z</time></trkpt><trkpt lat="53.3461682" lon="-1.6650943"><ele>269.0</ele><time>2026-04-18T06:13:27.981Z</time></trkpt><trkpt lat="53.3461825" lon="-1.6652311"><ele>268.33333333333337</ele><time>2026-04-18T06:13:28.98Z</time></trkpt><trkpt lat="53.3461888" lon="-1.6653704"><ele>267.6666666666667</ele><time>2026-04-18T06:13:29.98Z</time></trkpt><trkpt lat="53.3462024" lon="-1.6655136"><ele>267.0</ele><time>2026-04-18T06:13:30.982Z</time></trkpt><trkpt lat="53.3462276" lon="-1.6656553"><ele>266.3333333333333</ele><time>2026-04-18T06:13:31.977Z</time></trkpt><trkpt lat="53.3462555" lon="-1.6657883"><ele>265.66666666666663</ele><time>2026-04-18T06:13:32.976Z</time></trkpt><trkpt lat="53.3462726" lon="-1.6659175"><ele>265.0</ele><time>2026-04-18T06:13:33.977Z</time></trkpt><trkpt lat="53.3462645" lon="-1.6660501"><ele>265.4</ele><time>2026-04-18T06:13:34.979Z</time></trkpt><trkpt lat="53.3462209" lon="-1.6661749"><ele>265.8</ele><time>2026-04-18T06:13:35.979Z</time></trkpt><trkpt lat="53.3461424" lon="-1.6662781"><ele>266.2</ele><time>2026-04-18T06:13:36.979Z</time></trkpt><trkpt lat="53.3460447" lon="-1.6663401"><ele>266.6</ele><time>2026-04-18T06:13:37.98Z</time></trkpt><trkpt lat="53.3459351" lon="-1.6663893"><ele>267.0</ele><time>2026-04-18T06:13:38.979Z</time></trkpt><trkpt lat="53.3458292" lon="-1.6664344"><ele>267.0</ele><time>2026-04-18T06:13:39.98Z</time></trkpt><trkpt lat="53.3457379" lon="-1.6664933"><ele>267.0</ele><time>2026-04-18T06:13:40.978Z</time></trkpt><trkpt lat="53.3456624" lon="-1.6665694"><ele>267.0</ele><time>2026-04-18T06:13:41.98Z</time></trkpt><trkpt lat="53.3455903" lon="-1.6666668"><ele>267.0</ele><time>2026-04-18T06:13:42.981Z</time></trkpt><trkpt lat="53.3455263" lon="-1.666792"><ele>267.0</ele><time>2026-04-18T06:13:43.98Z</time></trkpt><trkpt lat="53.3454641" lon="-1.6669364"><ele>265.0</ele><time>2026-04-18T06:13:44.98Z</time></trkpt><trkpt lat="53.3454068" lon="-1.6670916"><ele>263.0</ele><time>2026-04-18T06:13:45.984Z</time></trkpt><trkpt lat="53.3453538" lon="-1.6672536"><ele>261.0</ele><time>2026-04-18T06:13:46.981Z</time></trkpt><trkpt lat="53.3453068" lon="-1.6674237"><ele>259.0</ele><time>2026-04-18T06:13:47.981Z</time></trkpt><trkpt lat="53.3452677" lon="-1.6675898"><ele>257.0</ele><time>2026-04-18T06:13:48.981Z</time></trkpt><trkpt lat="53.3452295" lon="-1.6677461"><ele>256.83333333333337</ele><time>2026-04-18T06:13:49.982Z</time></trkpt><trkpt lat="53.3451981" lon="-1.6678952"><ele>256.6666666666667</ele><time>2026-04-18T06:13:50.98Z</time></trkpt><trkpt lat="53.3451811" lon="-1.6680356"><ele>256.5</ele><time>2026-04-18T06:13:51.979Z</time></trkpt><trkpt lat="53.3451711" lon="-1.6681662"><ele>256.3333333333333</ele><time>2026-04-18T06:13:52.979Z</time></trkpt><trkpt lat="53.3451658" lon="-1.6682855"><ele>256.16666666666663</ele><time>2026-04-18T06:13:53.979Z</time></trkpt><trkpt lat="53.3451664" lon="-1.6683935"><ele>256.0</ele><time>2026-04-18T06:13:54.982Z</time></trkpt><trkpt lat="53.3451643" lon="-1.6685005"><ele>255.83333333333331</ele><time>2026-04-18T06:13:55.982Z</time></trkpt><trkpt lat="53.3451508" lon="-1.6686199"><ele>255.66666666666666</ele><time>2026-04-18T06:13:56.981Z</time></trkpt><trkpt lat="53.345124" lon="-1.6687561"><ele>255.5</ele><time>2026-04-18T06:13:57.981Z</time></trkpt><trkpt lat="53.3450885" lon="-1.6689064"><ele>255.33333333333331</ele><time>2026-04-18T06:13:58.98Z</time></trkpt><trkpt lat="53.3450547" lon="-1.6690528"><ele>255.16666666666666</ele><time>2026-04-18T06:13:59.982Z</time></trkpt><trkpt lat="53.3450191" lon="-1.6691962"><ele>255.0</ele><time>2026-04-18T06:14:00.982Z</time></trkpt><trkpt lat="53.3449828" lon="-1.6693352"><ele>255.0</ele><time>2026-04-18T06:14:01.979Z</time></trkpt><trkpt lat="53.3449413" lon="-1.6694585"><ele>255.0</ele><time>2026-04-18T06:14:02.979Z</time></trkpt><trkpt lat="53.3448867" lon="-1.6695675"><ele>255.0</ele><time>2026-04-18T06:14:03.979Z</time></trkpt><trkpt lat="53.3448136" lon="-1.6696665"><ele>255.0</ele><time>2026-04-18T06:14:04.978Z</time></trkpt><trkpt lat="53.3447193" lon="-1.669754"><ele>255.0</ele><time>2026-04-18T06:14:05.981Z</time></trkpt><trkpt lat="53.3446067" lon="-1.6698442"><ele>252.25</ele><time>2026-04-18T06:14:06.981Z</time></trkpt><trkpt lat="53.3444896" lon="-1.6699468"><ele>249.5</ele><time>2026-04-18T06:14:07.981Z</time></trkpt><trkpt lat="53.3443803" lon="-1.670045"><ele>246.75</ele><time>2026-04-18T06:14:08.982Z</time></trkpt><trkpt lat="53.3442817" lon="-1.670129"><ele>244.0</ele><time>2026-04-18T06:14:09.988Z</time></trkpt><trkpt lat="53.3441886" lon="-1.6702147"><ele>244.25</ele><time>2026-04-18T06:14:10.975Z</time></trkpt><trkpt lat="53.3440957" lon="-1.6703106"><ele>244.5</ele><time>2026-04-18T06:14:11.982Z</time></trkpt><trkpt lat="53.3439983" lon="-1.6704122"><ele>244.75</ele><time>2026-04-18T06:14:12.982Z</time></trkpt><trkpt lat="53.3438955" lon="-1.6705158"><ele>245.0</ele><time>2026-04-18T06:14:13.977Z</time></trkpt><trkpt lat="53.343793" lon="-1.6706163"><ele>243.2</ele><time>2026-04-18T06:14:14.983Z</time></trkpt><trkpt lat="53.3436935" lon="-1.6707151"><ele>241.4</ele><time>2026-04-18T06:14:15.981Z</time></trkpt><trkpt lat="53.3436004" lon="-1.6708173"><ele>239.60000000000002</ele><time>2026-04-18T06:14:16.982Z</time></trkpt><trkpt lat="53.3435186" lon="-1.670927"><ele>237.8</ele><time>2026-04-18T06:14:17.984Z</time></trkpt><trkpt lat="53.3434485" lon="-1.6710476"><ele>236.0</ele><time>2026-04-18T06:14:18.982Z</time></trkpt><trkpt lat="53.3433868" lon="-1.6711824"><ele>236.0</ele><time>2026-04-18T06:14:19.984Z</time></trkpt><trkpt lat="53.3433284" lon="-1.6713291"><ele>236.00000000000003</ele><time>2026-04-18T06:14:20.982Z</time></trkpt><trkpt lat="53.3432782" lon="-1.6714885"><ele>236.00000000000003</ele><time>2026-04-18T06:14:21.982Z</time></trkpt><trkpt lat="53.3432352" lon="-1.6716538"><ele>236.0</ele><time>2026-04-18T06:14:22.982Z</time></trkpt><trkpt lat="53.3431987" lon="-1.6718104"><ele>236.0</ele><time>2026-04-18T06:14:23.982Z</time></trkpt><trkpt lat="53.343161" lon="-1.6719587"><ele>235.83333333333334</ele><time>2026-04-18T06:14:24.981Z</time></trkpt><trkpt lat="53.3431076" lon="-1.6720954"><ele>235.66666666666669</ele><time>2026-04-18T06:14:25.982Z</time></trkpt><trkpt lat="53.3430513" lon="-1.6722271"><ele>235.5</ele><time>2026-04-18T06:14:26.98Z</time></trkpt><trkpt lat="53.3429967" lon="-1.6723521"><ele>235.33333333333331</ele><time>2026-04-18T06:14:27.98Z</time></trkpt><trkpt lat="53.342949" lon="-1.6724662"><ele>235.16666666666666</ele><time>2026-04-18T06:14:28.981Z</time></trkpt><trkpt lat="53.3429136" lon="-1.6725589"><ele>235.0</ele><time>2026-04-18T06:14:29.983Z</time></trkpt><trkpt lat="53.3428713" lon="-1.6726606"><ele>233.4</ele><time>2026-04-18T06:14:31.981Z</time></trkpt><trkpt lat="53.3428546" lon="-1.6728502"><ele>231.8</ele><time>2026-04-18T06:14:34.983Z</time></trkpt><trkpt lat="53.3428805" lon="-1.6729764"><ele>230.2</ele><time>2026-04-18T06:14:35.981Z</time></trkpt><trkpt lat="53.3429248" lon="-1.6731657"><ele>228.6</ele><time>2026-04-18T06:14:36.981Z</time></trkpt><trkpt lat="53.3429739" lon="-1.6733561"><ele>227.0</ele><time>2026-04-18T06:14:37.981Z</time></trkpt><trkpt lat="53.3430139" lon="-1.6735275"><ele>226.66666666666669</ele><time>2026-04-18T06:14:38.979Z</time></trkpt><trkpt lat="53.3430449" lon="-1.6736747"><ele>226.33333333333334</ele><time>2026-04-18T06:14:39.98Z</time></trkpt><trkpt lat="53.3430683" lon="-1.6738022"><ele>226.0</ele><time>2026-04-18T06:14:40.981Z</time></trkpt><trkpt lat="53.3430875" lon="-1.6739321"><ele>225.66666666666669</ele><time>2026-04-18T06:14:41.98Z</time></trkpt><trkpt lat="53.3431034" lon="-1.6740621"><ele>225.33333333333334</ele><time>2026-04-18T06:14:42.982Z</time></trkpt><trkpt lat="53.3431145" lon="-1.6741765"><ele>225.0</ele><time>2026-04-18T06:14:43.981Z</time></trkpt><trkpt lat="53.3431209" lon="-1.6743535"><ele>222.8</ele><time>2026-04-18T06:14:45.98Z</time></trkpt><trkpt lat="53.3430714" lon="-1.6745047"><ele>220.6</ele><time>2026-04-18T06:14:47.979Z</time></trkpt><trkpt lat="53.3430191" lon="-1.6745813"><ele>218.39999999999998</ele><time>2026-04-18T06:14:48.984Z</time></trkpt><trkpt lat="53.3429645" lon="-1.6746451"><ele>216.2</ele><time>2026-04-18T06:14:49.983Z</time></trkpt><trkpt lat="53.3428787" lon="-1.6747557"><ele>214.0</ele><time>2026-04-18T06:14:51.988Z</time></trkpt><trkpt lat="53.342839" lon="-1.6749535"><ele>213.99999999999997</ele><time>2026-04-18T06:14:53.986Z</time></trkpt><trkpt lat="53.3428312" lon="-1.6750871"><ele>214.0</ele><time>2026-04-18T06:14:54.984Z</time></trkpt><trkpt lat="53.3428277" lon="-1.6752182"><ele>214.0</ele><time>2026-04-18T06:14:55.987Z</time></trkpt><trkpt lat="53.3428211" lon="-1.6753423"><ele>214.0</ele><time>2026-04-18T06:14:56.977Z</time></trkpt><trkpt lat="53.3428141" lon="-1.6754586"><ele>213.99999999999997</ele><time>2026-04-18T06:14:57.981Z</time></trkpt><trkpt lat="53.3428211" lon="-1.6756481"><ele>214.0</ele><time>2026-04-18T06:14:59.982Z</time></trkpt><trkpt lat="53.3428749" lon="-1.6757837"><ele>212.2</ele><time>2026-04-18T06:15:01.986Z</time></trkpt><trkpt lat="53.3429778" lon="-1.6759039"><ele>210.39999999999998</ele><time>2026-04-18T06:15:03.986Z</time></trkpt><trkpt lat="53.3430659" lon="-1.6760259"><ele>208.6</ele><time>2026-04-18T06:15:05.985Z</time></trkpt><trkpt lat="53.3431516" lon="-1.6761077"><ele>206.8</ele><time>2026-04-18T06:15:07.984Z</time></trkpt><trkpt lat="53.3432004" lon="-1.6761783"><ele>205.0</ele><time>2026-04-18T06:15:09.984Z</time></trkpt><trkpt lat="53.3431859" lon="-1.6763026"><ele>204.8</ele><time>2026-04-18T06:15:11.984Z</time></trkpt><trkpt lat="53.3430917" lon="-1.676468"><ele>204.6</ele><time>2026-04-18T06:15:13.979Z</time></trkpt><trkpt lat="53.3430301" lon="-1.6765493"><ele>204.39999999999998</ele><time>2026-04-18T06:15:14.982Z</time></trkpt><trkpt lat="53.3429714" lon="-1.6766336"><ele>204.2</ele><time>2026-04-18T06:15:15.979Z</time></trkpt><trkpt lat="53.3429086" lon="-1.6767279"><ele>204.0</ele><time>2026-04-18T06:15:16.979Z</time></trkpt><trkpt lat="53.3428369" lon="-1.6768108"><ele>203.0</ele><time>2026-04-18T06:15:17.979Z</time></trkpt><trkpt lat="53.3427617" lon="-1.676878"><ele>202.0</ele><time>2026-04-18T06:15:18.977Z</time></trkpt><trkpt lat="53.3426925" lon="-1.6769369"><ele>201.0</ele><time>2026-04-18T06:15:19.983Z</time></trkpt><trkpt lat="53.3426257" lon="-1.676993"><ele>200.0</ele><time>2026-04-18T06:15:20.981Z</time></trkpt><trkpt lat="53.3425617" lon="-1.6770498"><ele>199.0</ele><time>2026-04-18T06:15:21.979Z</time></trkpt><trkpt lat="53.3425019" lon="-1.6771241"><ele>198.0</ele><time>2026-04-18T06:15:22.977Z</time></trkpt><trkpt lat="53.3424485" lon="-1.6772145"><ele>198.0</ele><time>2026-04-18T06:15:23.98Z</time></trkpt><trkpt lat="53.3424043" lon="-1.6773207"><ele>198.0</ele><time>2026-04-18T06:15:24.982Z</time></trkpt><trkpt lat="53.3423689" lon="-1.6774439"><ele>198.0</ele><time>2026-04-18T06:15:25.981Z</time></trkpt><trkpt lat="53.3423422" lon="-1.6775798"><ele>198.0</ele><time>2026-04-18T06:15:26.983Z</time></trkpt><trkpt lat="53.3423256" lon="-1.6777351"><ele>198.0</ele><time>2026-04-18T06:15:27.983Z</time></trkpt><trkpt lat="53.3423125" lon="-1.6778956"><ele>198.0</ele><time>2026-04-18T06:15:28.984Z</time></trkpt><trkpt lat="53.3422974" lon="-1.6780512"><ele>198.0</ele><time>2026-04-18T06:15:29.983Z</time></trkpt><trkpt lat="53.3422758" lon="-1.6781993"><ele>198.0</ele><time>2026-04-18T06:15:30.977Z</time></trkpt><trkpt lat="53.3422539" lon="-1.6783327"><ele>198.0</ele><time>2026-04-18T06:15:31.978Z</time></trkpt><trkpt lat="53.3422394" lon="-1.6784536"><ele>198.0</ele><time>2026-04-18T06:15:32.974Z</time></trkpt><trkpt lat="53.3422369" lon="-1.6785666"><ele>198.0</ele><time>2026-04-18T06:15:33.977Z</time></trkpt><trkpt lat="53.3422511" lon="-1.6786841"><ele>198.0</ele><time>2026-04-18T06:15:34.976Z</time></trkpt><trkpt lat="53.3422771" lon="-1.6788128"><ele>198.4</ele><time>2026-04-18T06:15:35.976Z</time></trkpt><trkpt lat="53.3423144" lon="-1.6789586"><ele>198.8</ele><time>2026-04-18T06:15:36.976Z</time></trkpt><trkpt lat="53.3423737" lon="-1.6791052"><ele>199.2</ele><time>2026-04-18T06:15:37.978Z</time></trkpt><trkpt lat="53.3424448" lon="-1.6792528"><ele>199.6</ele><time>2026-04-18T06:15:38.976Z</time></trkpt><trkpt lat="53.342513" lon="-1.6794057"><ele>200.0</ele><time>2026-04-18T06:15:39.978Z</time></trkpt><trkpt lat="53.3425818" lon="-1.6795702"><ele>200.2</ele><time>2026-04-18T06:15:40.982Z</time></trkpt><trkpt lat="53.3426504" lon="-1.6797353"><ele>200.4</ele><time>2026-04-18T06:15:41.975Z</time></trkpt><trkpt lat="53.3427169" lon="-1.6798855"><ele>200.60000000000002</ele><time>2026-04-18T06:15:42.985Z</time></trkpt><trkpt lat="53.3427771" lon="-1.6800254"><ele>200.8</ele><time>2026-04-18T06:15:43.98Z</time></trkpt><trkpt lat="53.342825" lon="-1.6801422"><ele>201.0</ele><time>2026-04-18T06:15:44.982Z</time></trkpt><trkpt lat="53.3428664" lon="-1.6802483"><ele>200.66666666666666</ele><time>2026-04-18T06:15:45.985Z</time></trkpt><trkpt lat="53.3429024" lon="-1.6803493"><ele>200.33333333333331</ele><time>2026-04-18T06:15:46.978Z</time></trkpt><trkpt lat="53.3429497" lon="-1.6805315"><ele>200.0</ele><time>2026-04-18T06:15:48.984Z</time></trkpt><trkpt lat="53.342967" lon="-1.6806485"><ele>199.66666666666666</ele><time>2026-04-18T06:15:49.981Z</time></trkpt><trkpt lat="53.3429823" lon="-1.6807857"><ele>199.33333333333331</ele><time>2026-04-18T06:15:50.98Z</time></trkpt><trkpt lat="53.342992" lon="-1.6809465"><ele>199.0</ele><time>2026-04-18T06:15:51.979Z</time></trkpt><trkpt lat="53.3429984" lon="-1.6811247"><ele>198.66666666666666</ele><time>2026-04-18T06:15:52.98Z</time></trkpt><trkpt lat="53.3430093" lon="-1.6812958"><ele>198.33333333333331</ele><time>2026-04-18T06:15:53.979Z</time></trkpt><trkpt lat="53.3430289" lon="-1.6814517"><ele>198.0</ele><time>2026-04-18T06:15:54.979Z</time></trkpt><trkpt lat="53.3430606" lon="-1.6815863"><ele>197.66666666666669</ele><time>2026-04-18T06:15:55.979Z</time></trkpt><trkpt lat="53.3430992" lon="-1.6817103"><ele>197.33333333333334</ele><time>2026-04-18T06:15:56.979Z</time></trkpt><trkpt lat="53.343137" lon="-1.68182"><ele>197.0</ele><time>2026-04-18T06:15:57.979Z</time></trkpt><trkpt lat="53.3431718" lon="-1.6819164"><ele>197.2</ele><time>2026-04-18T06:15:58.98Z</time></trkpt><trkpt lat="53.3432045" lon="-1.6820786"><ele>197.39999999999998</ele><time>2026-04-18T06:16:00.978Z</time></trkpt><trkpt lat="53.343127" lon="-1.6822238"><ele>197.60000000000002</ele><time>2026-04-18T06:16:02.985Z</time></trkpt><trkpt lat="53.3430524" lon="-1.6823208"><ele>197.8</ele><time>2026-04-18T06:16:03.98Z</time></trkpt><trkpt lat="53.3429591" lon="-1.6824502"><ele>198.0</ele><time>2026-04-18T06:16:04.984Z</time></trkpt><trkpt lat="53.3428674" lon="-1.6826081"><ele>195.25</ele><time>2026-04-18T06:16:05.977Z</time></trkpt><trkpt lat="53.3427785" lon="-1.682776"><ele>192.5</ele><time>2026-04-18T06:16:06.977Z</time></trkpt><trkpt lat="53.3426945" lon="-1.6829416"><ele>189.75</ele><time>2026-04-18T06:16:07.978Z</time></trkpt><trkpt lat="53.3426156" lon="-1.6831137"><ele>187.0</ele><time>2026-04-18T06:16:08.981Z</time></trkpt><trkpt lat="53.3425436" lon="-1.6832763"><ele>187.0</ele><time>2026-04-18T06:16:09.981Z</time></trkpt><trkpt lat="53.3424683" lon="-1.6834365"><ele>187.0</ele><time>2026-04-18T06:16:10.972Z</time></trkpt><trkpt lat="53.3423919" lon="-1.6835957"><ele>187.0</ele><time>2026-04-18T06:16:11.974Z</time></trkpt><trkpt lat="53.3423189" lon="-1.6837453"><ele>187.0</ele><time>2026-04-18T06:16:12.974Z</time></trkpt><trkpt lat="53.3422471" lon="-1.6838851"><ele>186.39999999999998</ele><time>2026-04-18T06:16:13.979Z</time></trkpt><trkpt lat="53.3421799" lon="-1.6840131"><ele>185.79999999999998</ele><time>2026-04-18T06:16:14.973Z</time></trkpt><trkpt lat="53.3421235" lon="-1.6841419"><ele>185.2</ele><time>2026-04-18T06:16:15.984Z</time></trkpt><trkpt lat="53.3420789" lon="-1.684284"><ele>184.6</ele><time>2026-04-18T06:16:16.982Z</time></trkpt><trkpt lat="53.3420373" lon="-1.684438"><ele>184.0</ele><time>2026-04-18T06:16:17.981Z</time></trkpt><trkpt lat="53.3419882" lon="-1.6845979"><ele>183.0</ele><time>2026-04-18T06:16:18.982Z</time></trkpt><trkpt lat="53.3419278" lon="-1.6847468"><ele>182.0</ele><time>2026-04-18T06:16:19.982Z</time></trkpt><trkpt lat="53.3418584" lon="-1.6848799"><ele>181.0</ele><time>2026-04-18T06:16:20.979Z</time></trkpt><trkpt lat="53.3417797" lon="-1.6850101"><ele>180.0</ele><time>2026-04-18T06:16:21.98Z</time></trkpt><trkpt lat="53.3416956" lon="-1.6851481"><ele>179.0</ele><time>2026-04-18T06:16:22.981Z</time></trkpt><trkpt lat="53.3416054" lon="-1.685296"><ele>178.0</ele><time>2026-04-18T06:16:23.98Z</time></trkpt><trkpt lat="53.3415204" lon="-1.685444"><ele>177.0</ele><time>2026-04-18T06:16:24.979Z</time></trkpt><trkpt lat="53.3414433" lon="-1.6855817"><ele>176.0</ele><time>2026-04-18T06:16:25.981Z</time></trkpt><trkpt lat="53.3413739" lon="-1.6857075"><ele>175.0</ele><time>2026-04-18T06:16:26.976Z</time></trkpt><trkpt lat="53.3413175" lon="-1.6858185"><ele>174.0</ele><time>2026-04-18T06:16:27.979Z</time></trkpt><trkpt lat="53.3412732" lon="-1.6859185"><ele>174.0</ele><time>2026-04-18T06:16:28.982Z</time></trkpt><trkpt lat="53.3412431" lon="-1.686028"><ele>174.0</ele><time>2026-04-18T06:16:29.981Z</time></trkpt><trkpt lat="53.341224" lon="-1.6861515"><ele>174.0</ele><time>2026-04-18T06:16:30.979Z</time></trkpt><trkpt lat="53.3412094" lon="-1.6862806"><ele>174.0</ele><time>2026-04-18T06:16:31.979Z</time></trkpt><trkpt lat="53.3411893" lon="-1.6864194"><ele>174.0</ele><time>2026-04-18T06:16:32.982Z</time></trkpt><trkpt lat="53.3411561" lon="-1.6865783"><ele>174.0</ele><time>2026-04-18T06:16:33.977Z</time></trkpt><trkpt lat="53.3411055" lon="-1.6867527"><ele>171.0</ele><time>2026-04-18T06:16:34.977Z</time></trkpt><trkpt lat="53.3410416" lon="-1.6869321"><ele>168.0</ele><time>2026-04-18T06:16:35.978Z</time></trkpt><trkpt lat="53.3409742" lon="-1.6871076"><ele>165.0</ele><time>2026-04-18T06:16:36.979Z</time></trkpt><trkpt lat="53.3409084" lon="-1.6872716"><ele>162.0</ele><time>2026-04-18T06:16:37.978Z</time></trkpt><trkpt lat="53.3408459" lon="-1.6874329"><ele>162.0</ele><time>2026-04-18T06:16:38.977Z</time></trkpt><trkpt lat="53.3407855" lon="-1.6875945"><ele>162.0</ele><time>2026-04-18T06:16:39.98Z</time></trkpt><trkpt lat="53.3407297" lon="-1.6877538"><ele>162.0</ele><time>2026-04-18T06:16:40.979Z</time></trkpt><trkpt lat="53.3406768" lon="-1.6879127"><ele>162.0</ele><time>2026-04-18T06:16:41.979Z</time></trkpt><trkpt lat="53.3406333" lon="-1.6880636"><ele>162.0</ele><time>2026-04-18T06:16:42.979Z</time></trkpt><trkpt lat="53.340588" lon="-1.6882179"><ele>160.6</ele><time>2026-04-18T06:16:43.975Z</time></trkpt><trkpt lat="53.3405373" lon="-1.6883788"><ele>159.2</ele><time>2026-04-18T06:16:44.981Z</time></trkpt><trkpt lat="53.3404839" lon="-1.6885333"><ele>157.8</ele><time>2026-04-18T06:16:45.982Z</time></trkpt><trkpt lat="53.3404349" lon="-1.6886769"><ele>156.4</ele><time>2026-04-18T06:16:46.98Z</time></trkpt><trkpt lat="53.3403912" lon="-1.6888041"><ele>155.0</ele><time>2026-04-18T06:16:47.979Z</time></trkpt><trkpt lat="53.3403498" lon="-1.6889243"><ele>154.66666666666666</ele><time>2026-04-18T06:16:48.981Z</time></trkpt><trkpt lat="53.3403099" lon="-1.6890356"><ele>154.33333333333331</ele><time>2026-04-18T06:16:49.982Z</time></trkpt><trkpt lat="53.3402731" lon="-1.6891446"><ele>154.0</ele><time>2026-04-18T06:16:50.98Z</time></trkpt><trkpt lat="53.340247" lon="-1.6892676"><ele>153.66666666666666</ele><time>2026-04-18T06:16:51.979Z</time></trkpt><trkpt lat="53.3402384" lon="-1.6894072"><ele>153.33333333333334</ele><time>2026-04-18T06:16:52.98Z</time></trkpt><trkpt lat="53.3402455" lon="-1.6895562"><ele>153.0</ele><time>2026-04-18T06:16:53.98Z</time></trkpt><trkpt lat="53.3402624" lon="-1.6896913"><ele>152.66666666666666</ele><time>2026-04-18T06:16:54.981Z</time></trkpt><trkpt lat="53.3402805" lon="-1.6898012"><ele>152.33333333333334</ele><time>2026-04-18T06:16:55.982Z</time></trkpt><trkpt lat="53.3402875" lon="-1.6899493"><ele>152.0</ele><time>2026-04-18T06:16:57.98Z</time></trkpt><trkpt lat="53.340215" lon="-1.6900488"><ele>151.66666666666669</ele><time>2026-04-18T06:17:00.981Z</time></trkpt><trkpt lat="53.3401247" lon="-1.6900381"><ele>151.33333333333334</ele><time>2026-04-18T06:17:02.981Z</time></trkpt><trkpt lat="53.3400669" lon="-1.6899778"><ele>151.0</ele><time>2026-04-18T06:17:03.98Z</time></trkpt><trkpt lat="53.3400004" lon="-1.6898834"><ele>151.0</ele><time>2026-04-18T06:17:04.981Z</time></trkpt><trkpt lat="53.3399241" lon="-1.6897779"><ele>151.0</ele><time>2026-04-18T06:17:05.982Z</time></trkpt><trkpt lat="53.3398405" lon="-1.6896704"><ele>151.0</ele><time>2026-04-18T06:17:06.982Z</time></trkpt><trkpt lat="53.3397501" lon="-1.6895787"><ele>151.0</ele><time>2026-04-18T06:17:07.98Z</time></trkpt><trkpt lat="53.3396521" lon="-1.6895151"><ele>151.0</ele><time>2026-04-18T06:17:08.979Z</time></trkpt><trkpt lat="53.3395453" lon="-1.6894876"><ele>151.75</ele><time>2026-04-18T06:17:09.984Z</time></trkpt><trkpt lat="53.3394337" lon="-1.6895101"><ele>152.5</ele><time>2026-04-18T06:17:10.986Z</time></trkpt><trkpt lat="53.33932" lon="-1.6895746"><ele>153.25</ele><time>2026-04-18T06:17:11.983Z</time></trkpt><trkpt lat="53.3392117" lon="-1.6896766"><ele>154.0</ele><time>2026-04-18T06:17:12.984Z</time></trkpt><trkpt lat="53.3391157" lon="-1.6897801"><ele>154.0</ele><time>2026-04-18T06:17:13.983Z</time></trkpt><trkpt lat="53.3390293" lon="-1.6898769"><ele>154.0</ele><time>2026-04-18T06:17:14.983Z</time></trkpt><trkpt lat="53.3389457" lon="-1.6899572"><ele>154.0</ele><time>2026-04-18T06:17:15.983Z</time></trkpt><trkpt lat="53.3388559" lon="-1.6900081"><ele>154.0</ele><time>2026-04-18T06:17:16.983Z</time></trkpt><trkpt lat="53.3387557" lon="-1.6900289"><ele>154.0</ele><time>2026-04-18T06:17:17.983Z</time></trkpt><trkpt lat="53.3386421" lon="-1.690018"><ele>153.5</ele><time>2026-04-18T06:17:18.982Z</time></trkpt><trkpt lat="53.3385193" lon="-1.6899698"><ele>153.0</ele><time>2026-04-18T06:17:19.982Z</time></trkpt><trkpt lat="53.3383906" lon="-1.6898785"><ele>152.5</ele><time>2026-04-18T06:17:20.982Z</time></trkpt><trkpt lat="53.338267" lon="-1.6897611"><ele>152.0</ele><time>2026-04-18T06:17:21.982Z</time></trkpt><trkpt lat="53.3381533" lon="-1.6896492"><ele>152.0</ele><time>2026-04-18T06:17:22.984Z</time></trkpt><trkpt lat="53.3380518" lon="-1.6895555"><ele>152.0</ele><time>2026-04-18T06:17:23.98Z</time></trkpt><trkpt lat="53.3379581" lon="-1.6894871"><ele>152.0</ele><time>2026-04-18T06:17:24.981Z</time></trkpt><trkpt lat="53.3378648" lon="-1.6894466"><ele>152.0</ele><time>2026-04-18T06:17:25.98Z</time></trkpt><trkpt lat="53.3377698" lon="-1.6894286"><ele>152.0</ele><time>2026-04-18T06:17:26.982Z</time></trkpt><trkpt lat="53.3376788" lon="-1.6894215"><ele>151.83333333333331</ele><time>2026-04-18T06:17:27.983Z</time></trkpt><trkpt lat="53.3375978" lon="-1.6894165"><ele>151.66666666666666</ele><time>2026-04-18T06:17:28.98Z</time></trkpt><trkpt lat="53.3375279" lon="-1.6894109"><ele>151.5</ele><time>2026-04-18T06:17:29.983Z</time></trkpt><trkpt lat="53.3374648" lon="-1.6894074"><ele>151.33333333333334</ele><time>2026-04-18T06:17:30.98Z</time></trkpt><trkpt lat="53.3373566" lon="-1.6894031"><ele>151.16666666666669</ele><time>2026-04-18T06:17:32.987Z</time></trkpt><trkpt lat="53.3372722" lon="-1.6894244"><ele>151.0</ele><time>2026-04-18T06:17:34.98Z</time></trkpt><trkpt lat="53.3372412" lon="-1.6895178"><ele>150.83333333333334</ele><time>2026-04-18T06:17:36.978Z</time></trkpt><trkpt lat="53.3372534" lon="-1.6896322"><ele>150.66666666666669</ele><time>2026-04-18T06:17:39.981Z</time></trkpt><trkpt lat="53.3372965" lon="-1.6897531"><ele>150.5</ele><time>2026-04-18T06:17:43.982Z</time></trkpt><trkpt lat="53.3373128" lon="-1.6898761"><ele>150.33333333333334</ele><time>2026-04-18T06:17:45.983Z</time></trkpt><trkpt lat="53.3373363" lon="-1.69004"><ele>150.16666666666666</ele><time>2026-04-18T06:17:47.984Z</time></trkpt><trkpt lat="53.3373675" lon="-1.6902275"><ele>150.0</ele><time>2026-04-18T06:17:49.985Z</time></trkpt><trkpt lat="53.3373883" lon="-1.6903348"><ele>149.8</ele><time>2026-04-18T06:17:50.984Z</time></trkpt><trkpt lat="53.3374085" lon="-1.6904612"><ele>149.6</ele><time>2026-04-18T06:17:51.982Z</time></trkpt><trkpt lat="53.3374268" lon="-1.6906023"><ele>149.4</ele><time>2026-04-18T06:17:52.986Z</time></trkpt><trkpt lat="53.3374429" lon="-1.6907541"><ele>149.2</ele><time>2026-04-18T06:17:53.983Z</time></trkpt><trkpt lat="53.3374598" lon="-1.6909191"><ele>149.0</ele><time>2026-04-18T06:17:54.977Z</time></trkpt><trkpt lat="53.337477" lon="-1.6910846"><ele>149.2</ele><time>2026-04-18T06:17:55.983Z</time></trkpt><trkpt lat="53.3374883" lon="-1.6912515"><ele>149.4</ele><time>2026-04-18T06:17:56.984Z</time></trkpt><trkpt lat="53.3374941" lon="-1.6914236"><ele>149.6</ele><time>2026-04-18T06:17:57.981Z</time></trkpt><trkpt lat="53.337507" lon="-1.6915957"><ele>149.8</ele><time>2026-04-18T06:17:58.983Z</time></trkpt><trkpt lat="53.3375224" lon="-1.6917576"><ele>150.0</ele><time>2026-04-18T06:17:59.982Z</time></trkpt><trkpt lat="53.3375396" lon="-1.6919046"><ele>150.66666666666666</ele><time>2026-04-18T06:18:00.98Z</time></trkpt><trkpt lat="53.3375596" lon="-1.6920396"><ele>151.33333333333334</ele><time>2026-04-18T06:18:01.979Z</time></trkpt><trkpt lat="53.3375806" lon="-1.692172"><ele>152.0</ele><time>2026-04-18T06:18:02.983Z</time></trkpt><trkpt lat="53.3376028" lon="-1.6923051"><ele>152.66666666666669</ele><time>2026-04-18T06:18:03.98Z</time></trkpt><trkpt lat="53.3376301" lon="-1.6924386"><ele>153.33333333333334</ele><time>2026-04-18T06:18:04.978Z</time></trkpt><trkpt lat="53.33767" lon="-1.6925683"><ele>154.0</ele><time>2026-04-18T06:18:05.979Z</time></trkpt><trkpt lat="53.3377215" lon="-1.6926873"><ele>155.4</ele><time>2026-04-18T06:18:06.979Z</time></trkpt><trkpt lat="53.3377754" lon="-1.6928086"><ele>156.8</ele><time>2026-04-18T06:18:07.981Z</time></trkpt><trkpt lat="53.3378323" lon="-1.6929381"><ele>158.20000000000002</ele><time>2026-04-18T06:18:08.978Z</time></trkpt><trkpt lat="53.3378954" lon="-1.6930707"><ele>159.60000000000002</ele><time>2026-04-18T06:18:09.981Z</time></trkpt><trkpt lat="53.3379619" lon="-1.6932109"><ele>161.0</ele><time>2026-04-18T06:18:10.98Z</time></trkpt><trkpt lat="53.3380332" lon="-1.6933471"><ele>159.60000000000002</ele><time>2026-04-18T06:18:11.981Z</time></trkpt><trkpt lat="53.3381133" lon="-1.6934766"><ele>158.20000000000002</ele><time>2026-04-18T06:18:12.982Z</time></trkpt><trkpt lat="53.3381977" lon="-1.6935948"><ele>156.8</ele><time>2026-04-18T06:18:13.982Z</time></trkpt><trkpt lat="53.3382884" lon="-1.6936946"><ele>155.4</ele><time>2026-04-18T06:18:14.983Z</time></trkpt><trkpt lat="53.3383829" lon="-1.6937733"><ele>154.0</ele><time>2026-04-18T06:18:15.982Z</time></trkpt><trkpt lat="53.3384846" lon="-1.6938368"><ele>154.0</ele><time>2026-04-18T06:18:16.984Z</time></trkpt><trkpt lat="53.3385973" lon="-1.6938847"><ele>154.0</ele><time>2026-04-18T06:18:17.984Z</time></trkpt><trkpt lat="53.3387163" lon="-1.69391"><ele>154.0</ele><time>2026-04-18T06:18:18.983Z</time></trkpt><trkpt lat="53.3388367" lon="-1.6939147"><ele>154.0</ele><time>2026-04-18T06:18:19.984Z</time></trkpt><trkpt lat="53.3389536" lon="-1.6938991"><ele>153.0</ele><time>2026-04-18T06:18:20.982Z</time></trkpt><trkpt lat="53.3390618" lon="-1.6938763"><ele>152.0</ele><time>2026-04-18T06:18:21.98Z</time></trkpt><trkpt lat="53.3391595" lon="-1.6938677"><ele>151.0</ele><time>2026-04-18T06:18:22.983Z</time></trkpt><trkpt lat="53.3392436" lon="-1.6938772"><ele>150.0</ele><time>2026-04-18T06:18:23.98Z</time></trkpt><trkpt lat="53.3393155" lon="-1.6938962"><ele>149.0</ele><time>2026-04-18T06:18:24.982Z</time></trkpt><trkpt lat="53.339381" lon="-1.693926"><ele>148.0</ele><time>2026-04-18T06:18:25.985Z</time></trkpt><trkpt lat="53.3394486" lon="-1.6939801"><ele>148.0</ele><time>2026-04-18T06:18:26.984Z</time></trkpt><trkpt lat="53.3395227" lon="-1.6940725"><ele>148.0</ele><time>2026-04-18T06:18:27.983Z</time></trkpt><trkpt lat="53.3396029" lon="-1.6942054"><ele>148.0</ele><time>2026-04-18T06:18:28.982Z</time></trkpt><trkpt lat="53.3396829" lon="-1.6943593"><ele>148.0</ele><time>2026-04-18T06:18:29.984Z</time></trkpt><trkpt lat="53.3397513" lon="-1.6945174"><ele>148.0</ele><time>2026-04-18T06:18:30.984Z</time></trkpt><trkpt lat="53.3398122" lon="-1.6946718"><ele>148.6</ele><time>2026-04-18T06:18:31.983Z</time></trkpt><trkpt lat="53.3398729" lon="-1.6948371"><ele>149.20000000000002</ele><time>2026-04-18T06:18:32.983Z</time></trkpt><trkpt lat="53.3399287" lon="-1.6950056"><ele>149.8</ele><time>2026-04-18T06:18:33.983Z</time></trkpt><trkpt lat="53.3399741" lon="-1.6951751"><ele>150.4</ele><time>2026-04-18T06:18:34.984Z</time></trkpt><trkpt lat="53.3400092" lon="-1.6953419"><ele>151.0</ele><time>2026-04-18T06:18:35.983Z</time></trkpt><trkpt lat="53.3400336" lon="-1.6955048"><ele>151.16666666666669</ele><time>2026-04-18T06:18:36.983Z</time></trkpt><trkpt lat="53.3400465" lon="-1.6956596"><ele>151.33333333333334</ele><time>2026-04-18T06:18:37.98Z</time></trkpt><trkpt lat="53.3400522" lon="-1.6958092"><ele>151.5</ele><time>2026-04-18T06:18:38.978Z</time></trkpt><trkpt lat="53.3400504" lon="-1.6959454"><ele>151.66666666666666</ele><time>2026-04-18T06:18:39.977Z</time></trkpt><trkpt lat="53.3400444" lon="-1.6960668"><ele>151.83333333333331</ele><time>2026-04-18T06:18:40.979Z</time></trkpt><trkpt lat="53.3400046" lon="-1.69622"><ele>152.0</ele><time>2026-04-18T06:18:42.978Z</time></trkpt><trkpt lat="53.3399126" lon="-1.6962353"><ele>152.5</ele><time>2026-04-18T06:18:44.98Z</time></trkpt><trkpt lat="53.3398463" lon="-1.6962069"><ele>153.0</ele><time>2026-04-18T06:18:45.98Z</time></trkpt><trkpt lat="53.3397797" lon="-1.6961787"><ele>153.5</ele><time>2026-04-18T06:18:46.98Z</time></trkpt><trkpt lat="53.3396557" lon="-1.6961955"><ele>154.0</ele><time>2026-04-18T06:18:48.98Z</time></trkpt><trkpt lat="53.3395973" lon="-1.6962548"><ele>154.5</ele><time>2026-04-18T06:18:49.982Z</time></trkpt><trkpt lat="53.3395418" lon="-1.6963493"><ele>155.0</ele><time>2026-04-18T06:18:50.973Z</time></trkpt><trkpt lat="53.3394956" lon="-1.6964862"><ele>155.75</ele><time>2026-04-18T06:18:51.979Z</time></trkpt><trkpt lat="53.3394571" lon="-1.6966482"><ele>156.5</ele><time>2026-04-18T06:18:52.985Z</time></trkpt><trkpt lat="53.3394222" lon="-1.6968233"><ele>157.25</ele><time>2026-04-18T06:18:53.983Z</time></trkpt><trkpt lat="53.3393847" lon="-1.6970071"><ele>158.0</ele><time>2026-04-18T06:18:54.98Z</time></trkpt><trkpt lat="53.3393499" lon="-1.697202"><ele>158.25</ele><time>2026-04-18T06:18:55.98Z</time></trkpt><trkpt lat="53.3393078" lon="-1.6974004"><ele>158.5</ele><time>2026-04-18T06:18:56.98Z</time></trkpt><trkpt lat="53.339258" lon="-1.6975843"><ele>158.75</ele><time>2026-04-18T06:18:57.98Z</time></trkpt><trkpt lat="53.3391992" lon="-1.6977421"><ele>159.0</ele><time>2026-04-18T06:18:58.982Z</time></trkpt><trkpt lat="53.3391293" lon="-1.6978817"><ele>159.6</ele><time>2026-04-18T06:18:59.981Z</time></trkpt><trkpt lat="53.3390505" lon="-1.6980064"><ele>160.2</ele><time>2026-04-18T06:19:00.979Z</time></trkpt><trkpt lat="53.3389738" lon="-1.6981368"><ele>160.79999999999998</ele><time>2026-04-18T06:19:01.98Z</time></trkpt><trkpt lat="53.3389051" lon="-1.6982851"><ele>161.4</ele><time>2026-04-18T06:19:02.98Z</time></trkpt><trkpt lat="53.3388488" lon="-1.6984514"><ele>162.0</ele><time>2026-04-18T06:19:03.98Z</time></trkpt><trkpt lat="53.3388049" lon="-1.6986319"><ele>162.25</ele><time>2026-04-18T06:19:04.978Z</time></trkpt><trkpt lat="53.3387711" lon="-1.6988254"><ele>162.5</ele><time>2026-04-18T06:19:05.978Z</time></trkpt><trkpt lat="53.3387416" lon="-1.6990189"><ele>162.75</ele><time>2026-04-18T06:19:06.98Z</time></trkpt><trkpt lat="53.3387123" lon="-1.6992022"><ele>163.0</ele><time>2026-04-18T06:19:07.979Z</time></trkpt><trkpt lat="53.3386849" lon="-1.699384"><ele>163.25</ele><time>2026-04-18T06:19:08.981Z</time></trkpt><trkpt lat="53.3386575" lon="-1.6995728"><ele>163.5</ele><time>2026-04-18T06:19:09.98Z</time></trkpt><trkpt lat="53.3386253" lon="-1.6997696"><ele>163.75</ele><time>2026-04-18T06:19:10.979Z</time></trkpt><trkpt lat="53.3385882" lon="-1.6999743"><ele>164.0</ele><time>2026-04-18T06:19:11.981Z</time></trkpt><trkpt lat="53.338545" lon="-1.7001798"><ele>164.0</ele><time>2026-04-18T06:19:12.981Z</time></trkpt><trkpt lat="53.3384962" lon="-1.7003793"><ele>164.0</ele><time>2026-04-18T06:19:13.984Z</time></trkpt><trkpt lat="53.3384431" lon="-1.7005632"><ele>164.0</ele><time>2026-04-18T06:19:14.981Z</time></trkpt><trkpt lat="53.338384" lon="-1.7007332"><ele>164.0</ele><time>2026-04-18T06:19:15.983Z</time></trkpt><trkpt lat="53.3383163" lon="-1.7008969"><ele>164.0</ele><time>2026-04-18T06:19:16.98Z</time></trkpt><trkpt lat="53.3382425" lon="-1.7010517"><ele>164.0</ele><time>2026-04-18T06:19:17.976Z</time></trkpt><trkpt lat="53.3381691" lon="-1.7011892"><ele>164.0</ele><time>2026-04-18T06:19:18.981Z</time></trkpt><trkpt lat="53.3380996" lon="-1.7013174"><ele>164.0</ele><time>2026-04-18T06:19:19.984Z</time></trkpt><trkpt lat="53.3380308" lon="-1.7014484"><ele>164.0</ele><time>2026-04-18T06:19:20.983Z</time></trkpt><trkpt lat="53.3379676" lon="-1.7015916"><ele>164.39999999999998</ele><time>2026-04-18T06:19:21.981Z</time></trkpt><trkpt lat="53.3379128" lon="-1.7017456"><ele>164.8</ele><time>2026-04-18T06:19:22.985Z</time></trkpt><trkpt lat="53.3378676" lon="-1.7018985"><ele>165.2</ele><time>2026-04-18T06:19:23.982Z</time></trkpt><trkpt lat="53.3378252" lon="-1.7020429"><ele>165.60000000000002</ele><time>2026-04-18T06:19:24.981Z</time></trkpt><trkpt lat="53.3377852" lon="-1.7021803"><ele>166.0</ele><time>2026-04-18T06:19:25.976Z</time></trkpt><trkpt lat="53.3377528" lon="-1.7023044"><ele>166.33333333333334</ele><time>2026-04-18T06:19:26.98Z</time></trkpt><trkpt lat="53.3377265" lon="-1.7024099"><ele>166.66666666666669</ele><time>2026-04-18T06:19:27.98Z</time></trkpt><trkpt lat="53.3376465" lon="-1.7025739"><ele>167.0</ele><time>2026-04-18T06:19:29.98Z</time></trkpt><trkpt lat="53.3375809" lon="-1.702627"><ele>167.33333333333334</ele><time>2026-04-18T06:19:30.972Z</time></trkpt><trkpt lat="53.3375039" lon="-1.7026691"><ele>167.66666666666666</ele><time>2026-04-18T06:19:31.979Z</time></trkpt><trkpt lat="53.3374207" lon="-1.7027188"><ele>168.0</ele><time>2026-04-18T06:19:32.981Z</time></trkpt><trkpt lat="53.3373389" lon="-1.7027827"><ele>168.5</ele><time>2026-04-18T06:19:33.979Z</time></trkpt><trkpt lat="53.3372592" lon="-1.7028536"><ele>169.0</ele><time>2026-04-18T06:19:34.978Z</time></trkpt><trkpt lat="53.3371766" lon="-1.7029046"><ele>169.5</ele><time>2026-04-18T06:19:35.979Z</time></trkpt><trkpt lat="53.3370909" lon="-1.702925"><ele>170.0</ele><time>2026-04-18T06:19:36.981Z</time></trkpt><trkpt lat="53.3370135" lon="-1.702923"><ele>170.5</ele><time>2026-04-18T06:19:37.979Z</time></trkpt><trkpt lat="53.3369431" lon="-1.7029022"><ele>171.0</ele><time>2026-04-18T06:19:38.977Z</time></trkpt><trkpt lat="53.3368734" lon="-1.7028792"><ele>172.4</ele><time>2026-04-18T06:19:39.98Z</time></trkpt><trkpt lat="53.3367979" lon="-1.702859"><ele>173.8</ele><time>2026-04-18T06:19:40.986Z</time></trkpt><trkpt lat="53.3367128" lon="-1.7028517"><ele>175.20000000000002</ele><time>2026-04-18T06:19:41.985Z</time></trkpt><trkpt lat="53.3366196" lon="-1.7028599"><ele>176.60000000000002</ele><time>2026-04-18T06:19:42.984Z</time></trkpt><trkpt lat="53.3365215" lon="-1.7028886"><ele>178.0</ele><time>2026-04-18T06:19:43.987Z</time></trkpt><trkpt lat="53.3364278" lon="-1.7029383"><ele>180.0</ele><time>2026-04-18T06:19:44.986Z</time></trkpt><trkpt lat="53.3363343" lon="-1.7030108"><ele>182.0</ele><time>2026-04-18T06:19:45.986Z</time></trkpt><trkpt lat="53.3362379" lon="-1.703088"><ele>184.0</ele><time>2026-04-18T06:19:46.988Z</time></trkpt><trkpt lat="53.3361377" lon="-1.7031665"><ele>186.0</ele><time>2026-04-18T06:19:47.983Z</time></trkpt><trkpt lat="53.3360307" lon="-1.7032326"><ele>188.0</ele><time>2026-04-18T06:19:48.98Z</time></trkpt><trkpt lat="53.3359181" lon="-1.7032747"><ele>188.0</ele><time>2026-04-18T06:19:49.983Z</time></trkpt><trkpt lat="53.3358069" lon="-1.7032991"><ele>188.0</ele><time>2026-04-18T06:19:50.983Z</time></trkpt><trkpt lat="53.3356933" lon="-1.7033095"><ele>188.0</ele><time>2026-04-18T06:19:51.982Z</time></trkpt><trkpt lat="53.3355742" lon="-1.7033151"><ele>188.0</ele><time>2026-04-18T06:19:52.98Z</time></trkpt><trkpt lat="53.3354474" lon="-1.7033271"><ele>190.75</ele><time>2026-04-18T06:19:53.983Z</time></trkpt><trkpt lat="53.3353138" lon="-1.7033481"><ele>193.5</ele><time>2026-04-18T06:19:54.98Z</time></trkpt><trkpt lat="53.3351787" lon="-1.7033747"><ele>196.25</ele><time>2026-04-18T06:19:55.982Z</time></trkpt><trkpt lat="53.3350418" lon="-1.7034043"><ele>199.0</ele><time>2026-04-18T06:19:56.982Z</time></trkpt><trkpt lat="53.3348992" lon="-1.7034315"><ele>199.0</ele><time>2026-04-18T06:19:57.983Z</time></trkpt><trkpt lat="53.3347498" lon="-1.7034609"><ele>199.0</ele><time>2026-04-18T06:19:58.982Z</time></trkpt><trkpt lat="53.3345923" lon="-1.7034942"><ele>199.0</ele><time>2026-04-18T06:19:59.982Z</time></trkpt><trkpt lat="53.3344289" lon="-1.7035252"><ele>201.33333333333331</ele><time>2026-04-18T06:20:00.978Z</time></trkpt><trkpt lat="53.3342614" lon="-1.7035568"><ele>203.66666666666669</ele><time>2026-04-18T06:20:01.979Z</time></trkpt><trkpt lat="53.3340932" lon="-1.7035873"><ele>206.0</ele><time>2026-04-18T06:20:02.981Z</time></trkpt><trkpt lat="53.3339246" lon="-1.7036136"><ele>209.66666666666669</ele><time>2026-04-18T06:20:03.98Z</time></trkpt><trkpt lat="53.3337593" lon="-1.7036458"><ele>213.33333333333331</ele><time>2026-04-18T06:20:04.98Z</time></trkpt><trkpt lat="53.3335985" lon="-1.7036762"><ele>217.0</ele><time>2026-04-18T06:20:05.98Z</time></trkpt><trkpt lat="53.3334525" lon="-1.7037092"><ele>217.0</ele><time>2026-04-18T06:20:06.98Z</time></trkpt><trkpt lat="53.3333226" lon="-1.7037376"><ele>217.0</ele><time>2026-04-18T06:20:07.982Z</time></trkpt><trkpt lat="53.3332041" lon="-1.7037588"><ele>217.0</ele><time>2026-04-18T06:20:08.98Z</time></trkpt><trkpt lat="53.3330907" lon="-1.7037839"><ele>217.0</ele><time>2026-04-18T06:20:09.98Z</time></trkpt><trkpt lat="53.3329771" lon="-1.7038125"><ele>220.0</ele><time>2026-04-18T06:20:10.985Z</time></trkpt><trkpt lat="53.3328644" lon="-1.7038415"><ele>223.0</ele><time>2026-04-18T06:20:11.983Z</time></trkpt><trkpt lat="53.3327541" lon="-1.7038669"><ele>226.0</ele><time>2026-04-18T06:20:12.989Z</time></trkpt><trkpt lat="53.3326563" lon="-1.7038905"><ele>229.0</ele><time>2026-04-18T06:20:13.984Z</time></trkpt><trkpt lat="53.3325711" lon="-1.7039123"><ele>232.0</ele><time>2026-04-18T06:20:14.982Z</time></trkpt><trkpt lat="53.3325025" lon="-1.703917"><ele>232.0</ele><time>2026-04-18T06:20:15.981Z</time></trkpt><trkpt lat="53.3324219" lon="-1.7037938"><ele>232.0</ele><time>2026-04-18T06:20:17.983Z</time></trkpt><trkpt lat="53.332408" lon="-1.7036515"><ele>232.0</ele><time>2026-04-18T06:20:18.987Z</time></trkpt><trkpt lat="53.332398" lon="-1.703461"><ele>232.0</ele><time>2026-04-18T06:20:19.986Z</time></trkpt><trkpt lat="53.3323786" lon="-1.703237"><ele>232.0</ele><time>2026-04-18T06:20:20.986Z</time></trkpt><trkpt lat="53.332355" lon="-1.7029664"><ele>238.0</ele><time>2026-04-18T06:20:21.984Z</time></trkpt><trkpt lat="53.3323262" lon="-1.7026909"><ele>244.0</ele><time>2026-04-18T06:20:22.982Z</time></trkpt><trkpt lat="53.3322946" lon="-1.7024399"><ele>250.0</ele><time>2026-04-18T06:20:23.983Z</time></trkpt><trkpt lat="53.3322615" lon="-1.7022259"><ele>250.0</ele><time>2026-04-18T06:20:24.983Z</time></trkpt><trkpt lat="53.3322288" lon="-1.702056"><ele>250.0</ele><time>2026-04-18T06:20:25.982Z</time></trkpt><trkpt lat="53.3321877" lon="-1.7019202"><ele>250.0</ele><time>2026-04-18T06:20:26.983Z</time></trkpt><trkpt lat="53.3321279" lon="-1.701791"><ele>250.0</ele><time>2026-04-18T06:20:27.982Z</time></trkpt><trkpt lat="53.3320477" lon="-1.7016803"><ele>250.0</ele><time>2026-04-18T06:20:28.983Z</time></trkpt><trkpt lat="53.3319557" lon="-1.7015699"><ele>253.25</ele><time>2026-04-18T06:20:29.982Z</time></trkpt><trkpt lat="53.3318556" lon="-1.7014443"><ele>256.5</ele><time>2026-04-18T06:20:30.981Z</time></trkpt><trkpt lat="53.3317537" lon="-1.701306"><ele>259.75</ele><time>2026-04-18T06:20:31.98Z</time></trkpt><trkpt lat="53.3316493" lon="-1.7011593"><ele>263.0</ele><time>2026-04-18T06:20:32.984Z</time></trkpt><trkpt lat="53.3315447" lon="-1.7010054"><ele>263.0</ele><time>2026-04-18T06:20:33.981Z</time></trkpt><trkpt lat="53.3314452" lon="-1.7008542"><ele>263.0</ele><time>2026-04-18T06:20:34.981Z</time></trkpt><trkpt lat="53.3313519" lon="-1.7007164"><ele>263.0</ele><time>2026-04-18T06:20:35.981Z</time></trkpt><trkpt lat="53.3312608" lon="-1.7005961"><ele>263.0</ele><time>2026-04-18T06:20:36.98Z</time></trkpt><trkpt lat="53.3311685" lon="-1.7004943"><ele>268.25</ele><time>2026-04-18T06:20:37.98Z</time></trkpt><trkpt lat="53.3310698" lon="-1.7004012"><ele>273.5</ele><time>2026-04-18T06:20:38.981Z</time></trkpt><trkpt lat="53.3309558" lon="-1.7003243"><ele>278.75</ele><time>2026-04-18T06:20:39.981Z</time></trkpt><trkpt lat="53.3308457" lon="-1.7002425"><ele>284.0</ele><time>2026-04-18T06:20:40.982Z</time></trkpt><trkpt lat="53.3307335" lon="-1.7001552"><ele>284.0</ele><time>2026-04-18T06:20:41.981Z</time></trkpt><trkpt lat="53.3306185" lon="-1.700048"><ele>284.0</ele><time>2026-04-18T06:20:42.983Z</time></trkpt><trkpt lat="53.3305068" lon="-1.6999203"><ele>284.0</ele><time>2026-04-18T06:20:43.982Z</time></trkpt><trkpt lat="53.3304013" lon="-1.699786"><ele>284.0</ele><time>2026-04-18T06:20:44.983Z</time></trkpt><trkpt lat="53.3303036" lon="-1.6996633"><ele>288.4</ele><time>2026-04-18T06:20:45.986Z</time></trkpt><trkpt lat="53.3302163" lon="-1.6995603"><ele>292.79999999999995</ele><time>2026-04-18T06:20:46.982Z</time></trkpt><trkpt lat="53.3301407" lon="-1.6994794"><ele>297.20000000000005</ele><time>2026-04-18T06:20:47.984Z</time></trkpt><trkpt lat="53.3300734" lon="-1.6994181"><ele>301.6</ele><time>2026-04-18T06:20:48.983Z</time></trkpt><trkpt lat="53.3300135" lon="-1.6993785"><ele>306.0</ele><time>2026-04-18T06:20:49.984Z</time></trkpt><trkpt lat="53.3298967" lon="-1.6993951"><ele>306.6</ele><time>2026-04-18T06:20:51.987Z</time></trkpt><trkpt lat="53.329834" lon="-1.6994774"><ele>307.20000000000005</ele><time>2026-04-18T06:20:52.99Z</time></trkpt><trkpt lat="53.329783" lon="-1.6996252"><ele>307.79999999999995</ele><time>2026-04-18T06:20:53.983Z</time></trkpt><trkpt lat="53.329739" lon="-1.6998111"><ele>308.4</ele><time>2026-04-18T06:20:54.981Z</time></trkpt><trkpt lat="53.3296994" lon="-1.7000193"><ele>309.0</ele><time>2026-04-18T06:20:55.981Z</time></trkpt><trkpt lat="53.3296578" lon="-1.7002454"><ele>312.25</ele><time>2026-04-18T06:20:56.973Z</time></trkpt><trkpt lat="53.3296008" lon="-1.700476"><ele>315.5</ele><time>2026-04-18T06:20:57.984Z</time></trkpt><trkpt lat="53.3295382" lon="-1.7006963"><ele>318.75</ele><time>2026-04-18T06:20:58.981Z</time></trkpt><trkpt lat="53.3294752" lon="-1.7008947"><ele>322.0</ele><time>2026-04-18T06:20:59.985Z</time></trkpt><trkpt lat="53.3294126" lon="-1.7010808"><ele>322.75</ele><time>2026-04-18T06:21:00.983Z</time></trkpt><trkpt lat="53.3293485" lon="-1.7012677"><ele>323.5</ele><time>2026-04-18T06:21:01.981Z</time></trkpt><trkpt lat="53.3292858" lon="-1.7014614"><ele>324.25</ele><time>2026-04-18T06:21:02.984Z</time></trkpt><trkpt lat="53.3292245" lon="-1.7016653"><ele>325.0</ele><time>2026-04-18T06:21:03.98Z</time></trkpt><trkpt lat="53.3291608" lon="-1.7018783"><ele>324.66666666666663</ele><time>2026-04-18T06:21:04.981Z</time></trkpt><trkpt lat="53.3290927" lon="-1.7020974"><ele>324.3333333333333</ele><time>2026-04-18T06:21:05.983Z</time></trkpt><trkpt lat="53.3290234" lon="-1.7023211"><ele>324.0</ele><time>2026-04-18T06:21:06.986Z</time></trkpt><trkpt lat="53.3289541" lon="-1.7025486"><ele>330.6666666666667</ele><time>2026-04-18T06:21:07.981Z</time></trkpt><trkpt lat="53.3288868" lon="-1.7027778"><ele>337.33333333333337</ele><time>2026-04-18T06:21:08.986Z</time></trkpt><trkpt lat="53.3288217" lon="-1.7030041"><ele>344.0</ele><time>2026-04-18T06:21:09.985Z</time></trkpt><trkpt lat="53.3287547" lon="-1.7032237"><ele>344.0</ele><time>2026-04-18T06:21:10.983Z</time></trkpt><trkpt lat="53.3286873" lon="-1.7034364"><ele>344.0</ele><time>2026-04-18T06:21:11.983Z</time></trkpt><trkpt lat="53.3286222" lon="-1.7036511"><ele>344.0</ele><time>2026-04-18T06:21:12.985Z</time></trkpt><trkpt lat="53.3285649" lon="-1.703875"><ele>344.0</ele><time>2026-04-18T06:21:13.984Z</time></trkpt><trkpt lat="53.3285191" lon="-1.7041074"><ele>344.75</ele><time>2026-04-18T06:21:14.986Z</time></trkpt><trkpt lat="53.3284884" lon="-1.7043379"><ele>345.5</ele><time>2026-04-18T06:21:15.984Z</time></trkpt><trkpt lat="53.328466" lon="-1.7045616"><ele>346.25</ele><time>2026-04-18T06:21:16.984Z</time></trkpt><trkpt lat="53.3284458" lon="-1.7047622"><ele>347.0</ele><time>2026-04-18T06:21:17.981Z</time></trkpt><trkpt lat="53.3284305" lon="-1.7049298"><ele>347.8</ele><time>2026-04-18T06:21:18.983Z</time></trkpt><trkpt lat="53.3284243" lon="-1.7050737"><ele>348.6</ele><time>2026-04-18T06:21:19.984Z</time></trkpt><trkpt lat="53.3284315" lon="-1.7052219"><ele>349.40000000000003</ele><time>2026-04-18T06:21:20.982Z</time></trkpt><trkpt lat="53.3284538" lon="-1.7053821"><ele>350.20000000000005</ele><time>2026-04-18T06:21:21.983Z</time></trkpt><trkpt lat="53.3284824" lon="-1.7055613"><ele>351.0</ele><time>2026-04-18T06:21:22.987Z</time></trkpt><trkpt lat="53.3285052" lon="-1.7057504"><ele>352.75</ele><time>2026-04-18T06:21:23.984Z</time></trkpt><trkpt lat="53.3285193" lon="-1.7059511"><ele>354.5</ele><time>2026-04-18T06:21:24.984Z</time></trkpt><trkpt lat="53.3285317" lon="-1.7061529"><ele>356.25</ele><time>2026-04-18T06:21:25.984Z</time></trkpt><trkpt lat="53.328547" lon="-1.7063559"><ele>358.0</ele><time>2026-04-18T06:21:26.984Z</time></trkpt><trkpt lat="53.3285655" lon="-1.7065646"><ele>360.25</ele><time>2026-04-18T06:21:27.985Z</time></trkpt><trkpt lat="53.3285803" lon="-1.7067684"><ele>362.5</ele><time>2026-04-18T06:21:28.985Z</time></trkpt><trkpt lat="53.3285955" lon="-1.7069654"><ele>364.75</ele><time>2026-04-18T06:21:29.986Z</time></trkpt><trkpt lat="53.3286093" lon="-1.7071641"><ele>367.0</ele><time>2026-04-18T06:21:30.988Z</time></trkpt><trkpt lat="53.3286236" lon="-1.7073655"><ele>368.25</ele><time>2026-04-18T06:21:31.987Z</time></trkpt><trkpt lat="53.3286349" lon="-1.7075748"><ele>369.5</ele><time>2026-04-18T06:21:32.988Z</time></trkpt><trkpt lat="53.3286396" lon="-1.7077956"><ele>370.75</ele><time>2026-04-18T06:21:33.981Z</time></trkpt><trkpt lat="53.3286384" lon="-1.7080242"><ele>372.0</ele><time>2026-04-18T06:21:34.987Z</time></trkpt><trkpt lat="53.3286336" lon="-1.70826"><ele>373.25</ele><time>2026-04-18T06:21:35.984Z</time></trkpt><trkpt lat="53.3286244" lon="-1.7085026"><ele>374.5</ele><time>2026-04-18T06:21:36.984Z</time></trkpt><trkpt lat="53.3286149" lon="-1.7087491"><ele>375.75</ele><time>2026-04-18T06:21:37.984Z</time></trkpt><trkpt lat="53.3286068" lon="-1.7089938"><ele>377.0</ele><time>2026-04-18T06:21:38.987Z</time></trkpt><trkpt lat="53.3286016" lon="-1.7092259"><ele>377.0</ele><time>2026-04-18T06:21:39.988Z</time></trkpt><trkpt lat="53.3285962" lon="-1.7094325"><ele>377.0</ele><time>2026-04-18T06:21:40.987Z</time></trkpt><trkpt lat="53.3285882" lon="-1.7096117"><ele>377.0</ele><time>2026-04-18T06:21:41.987Z</time></trkpt><trkpt lat="53.3285723" lon="-1.7097623"><ele>377.0</ele><time>2026-04-18T06:21:42.987Z</time></trkpt><trkpt lat="53.3285443" lon="-1.7099005"><ele>377.0</ele><time>2026-04-18T06:21:43.986Z</time></trkpt><trkpt lat="53.3285003" lon="-1.710047"><ele>377.0</ele><time>2026-04-18T06:21:44.986Z</time></trkpt><trkpt lat="53.3284385" lon="-1.7102125"><ele>377.0</ele><time>2026-04-18T06:21:45.987Z</time></trkpt><trkpt lat="53.3283616" lon="-1.7103771"><ele>377.0</ele><time>2026-04-18T06:21:46.987Z</time></trkpt><trkpt lat="53.328271" lon="-1.7105273"><ele>377.0</ele><time>2026-04-18T06:21:47.985Z</time></trkpt><trkpt lat="53.328171" lon="-1.7106558"><ele>379.0</ele><time>2026-04-18T06:21:48.99Z</time></trkpt><trkpt lat="53.3280698" lon="-1.7107737"><ele>381.0</ele><time>2026-04-18T06:21:49.989Z</time></trkpt><trkpt lat="53.3279675" lon="-1.7108923"><ele>383.0</ele><time>2026-04-18T06:21:50.988Z</time></trkpt><trkpt lat="53.3278668" lon="-1.7110152"><ele>385.0</ele><time>2026-04-18T06:21:51.987Z</time></trkpt><trkpt lat="53.3277705" lon="-1.7111398"><ele>380.5</ele><time>2026-04-18T06:21:52.987Z</time></trkpt><trkpt lat="53.3276783" lon="-1.711268"><ele>376.0</ele><time>2026-04-18T06:21:53.986Z</time></trkpt><trkpt lat="53.3275907" lon="-1.7114035"><ele>371.5</ele><time>2026-04-18T06:21:54.987Z</time></trkpt><trkpt lat="53.3275039" lon="-1.7115391"><ele>367.0</ele><time>2026-04-18T06:21:55.989Z</time></trkpt><trkpt lat="53.327416" lon="-1.7116747"><ele>367.0</ele><time>2026-04-18T06:21:56.985Z</time></trkpt><trkpt lat="53.3273273" lon="-1.711812"><ele>367.0</ele><time>2026-04-18T06:21:57.988Z</time></trkpt><trkpt lat="53.3272357" lon="-1.711944"><ele>367.0</ele><time>2026-04-18T06:21:58.989Z</time></trkpt><trkpt lat="53.327144" lon="-1.7120704"><ele>367.0</ele><time>2026-04-18T06:21:59.987Z</time></trkpt><trkpt lat="53.3270559" lon="-1.7121964"><ele>367.6</ele><time>2026-04-18T06:22:00.988Z</time></trkpt><trkpt lat="53.3269742" lon="-1.712321"><ele>368.20000000000005</ele><time>2026-04-18T06:22:01.987Z</time></trkpt><trkpt lat="53.3268947" lon="-1.7124435"><ele>368.8</ele><time>2026-04-18T06:22:02.99Z</time></trkpt><trkpt lat="53.3268116" lon="-1.7125652"><ele>369.4</ele><time>2026-04-18T06:22:03.988Z</time></trkpt><trkpt lat="53.3267233" lon="-1.7126959"><ele>370.0</ele><time>2026-04-18T06:22:04.988Z</time></trkpt><trkpt lat="53.3266311" lon="-1.7128336"><ele>370.25</ele><time>2026-04-18T06:22:05.986Z</time></trkpt><trkpt lat="53.3265365" lon="-1.7129722"><ele>370.5</ele><time>2026-04-18T06:22:06.991Z</time></trkpt><trkpt lat="53.3264423" lon="-1.7131091"><ele>370.75</ele><time>2026-04-18T06:22:07.987Z</time></trkpt><trkpt lat="53.3263488" lon="-1.7132395"><ele>371.0</ele><time>2026-04-18T06:22:08.985Z</time></trkpt><trkpt lat="53.3262522" lon="-1.7133551"><ele>371.0</ele><time>2026-04-18T06:22:09.988Z</time></trkpt><trkpt lat="53.3261528" lon="-1.7134538"><ele>371.0</ele><time>2026-04-18T06:22:10.988Z</time></trkpt><trkpt lat="53.3260542" lon="-1.7135503"><ele>371.0</ele><time>2026-04-18T06:22:11.986Z</time></trkpt><trkpt lat="53.3259573" lon="-1.7136488"><ele>371.0</ele><time>2026-04-18T06:22:12.99Z</time></trkpt><trkpt lat="53.3258583" lon="-1.7137497"><ele>370.0</ele><time>2026-04-18T06:22:13.985Z</time></trkpt><trkpt lat="53.3257516" lon="-1.7138494"><ele>369.0</ele><time>2026-04-18T06:22:14.987Z</time></trkpt><trkpt lat="53.3256381" lon="-1.7139433"><ele>368.0</ele><time>2026-04-18T06:22:15.988Z</time></trkpt><trkpt lat="53.3255206" lon="-1.7140314"><ele>367.0</ele><time>2026-04-18T06:22:16.976Z</time></trkpt><trkpt lat="53.3253963" lon="-1.7141111"><ele>367.0</ele><time>2026-04-18T06:22:17.986Z</time></trkpt><trkpt lat="53.3252689" lon="-1.7141763"><ele>367.0</ele><time>2026-04-18T06:22:18.985Z</time></trkpt><trkpt lat="53.3251368" lon="-1.7142295"><ele>367.0</ele><time>2026-04-18T06:22:19.986Z</time></trkpt><trkpt lat="53.3250035" lon="-1.7142764"><ele>367.0</ele><time>2026-04-18T06:22:20.986Z</time></trkpt><trkpt lat="53.3248706" lon="-1.7143251"><ele>367.0</ele><time>2026-04-18T06:22:21.985Z</time></trkpt><trkpt lat="53.3247397" lon="-1.7143723"><ele>367.0</ele><time>2026-04-18T06:22:22.988Z</time></trkpt><trkpt lat="53.3246135" lon="-1.7144028"><ele>367.0</ele><time>2026-04-18T06:22:23.986Z</time></trkpt><trkpt lat="53.3244915" lon="-1.7144091"><ele>367.0</ele><time>2026-04-18T06:22:24.983Z</time></trkpt><trkpt lat="53.3243698" lon="-1.7143928"><ele>368.5</ele><time>2026-04-18T06:22:25.988Z</time></trkpt><trkpt lat="53.3242443" lon="-1.7143632"><ele>370.0</ele><time>2026-04-18T06:22:26.988Z</time></trkpt><trkpt lat="53.3241161" lon="-1.7143276"><ele>371.5</ele><time>2026-04-18T06:22:27.986Z</time></trkpt><trkpt lat="53.3239819" lon="-1.7142905"><ele>373.0</ele><time>2026-04-18T06:22:28.986Z</time></trkpt><trkpt lat="53.3238447" lon="-1.7142523"><ele>374.0</ele><time>2026-04-18T06:22:29.992Z</time></trkpt><trkpt lat="53.3237091" lon="-1.7142124"><ele>375.0</ele><time>2026-04-18T06:22:30.987Z</time></trkpt><trkpt lat="53.3235725" lon="-1.7141749"><ele>376.0</ele><time>2026-04-18T06:22:31.985Z</time></trkpt><trkpt lat="53.3234373" lon="-1.7141441"><ele>377.0</ele><time>2026-04-18T06:22:32.987Z</time></trkpt><trkpt lat="53.3233068" lon="-1.7141129"><ele>377.0</ele><time>2026-04-18T06:22:33.985Z</time></trkpt><trkpt lat="53.323177" lon="-1.7140778"><ele>377.0</ele><time>2026-04-18T06:22:34.987Z</time></trkpt><trkpt lat="53.323046" lon="-1.7140432"><ele>377.0</ele><time>2026-04-18T06:22:35.985Z</time></trkpt><trkpt lat="53.3229114" lon="-1.7140119"><ele>377.0</ele><time>2026-04-18T06:22:36.987Z</time></trkpt><trkpt lat="53.3227753" lon="-1.7139812"><ele>377.5</ele><time>2026-04-18T06:22:37.989Z</time></trkpt><trkpt lat="53.3226371" lon="-1.7139561"><ele>378.0</ele><time>2026-04-18T06:22:38.985Z</time></trkpt><trkpt lat="53.322497" lon="-1.7139346"><ele>378.5</ele><time>2026-04-18T06:22:39.985Z</time></trkpt><trkpt lat="53.3223629" lon="-1.7139124"><ele>379.0</ele><time>2026-04-18T06:22:40.984Z</time></trkpt><trkpt lat="53.3222438" lon="-1.713888"><ele>379.0</ele><time>2026-04-18T06:22:41.984Z</time></trkpt><trkpt lat="53.3221419" lon="-1.713866"><ele>379.0</ele><time>2026-04-18T06:22:42.992Z</time></trkpt><trkpt lat="53.3220599" lon="-1.7138546"><ele>379.0</ele><time>2026-04-18T06:22:43.986Z</time></trkpt><trkpt lat="53.321963" lon="-1.7138469"><ele>379.0</ele><time>2026-04-18T06:22:45.987Z</time></trkpt><trkpt lat="53.3218938" lon="-1.7137965"><ele>379.0</ele><time>2026-04-18T06:23:11.985Z</time></trkpt><trkpt lat="53.3218316" lon="-1.7137204"><ele>379.0</ele><time>2026-04-18T06:23:13.985Z</time></trkpt><trkpt lat="53.3218925" lon="-1.7137924"><ele>379.0</ele><time>2026-04-18T06:23:28.985Z</time></trkpt><trkpt lat="53.3218481" lon="-1.7137129"><ele>379.0</ele><time>2026-04-18T06:23:42.987Z</time></trkpt><trkpt lat="53.3218347" lon="-1.7135962"><ele>379.0</ele><time>2026-04-18T06:23:55.984Z</time></trkpt><trkpt lat="53.3218384" lon="-1.7134797"><ele>379.0</ele><time>2026-04-18T06:23:56.984Z</time></trkpt><trkpt lat="53.3218616" lon="-1.7133354"><ele>379.0</ele><time>2026-04-18T06:23:57.985Z</time></trkpt><trkpt lat="53.3218963" lon="-1.7131892"><ele>379.0</ele><time>2026-04-18T06:23:58.987Z</time></trkpt><trkpt lat="53.3219284" lon="-1.7130551"><ele>379.79999999999995</ele><time>2026-04-18T06:23:59.987Z</time></trkpt><trkpt lat="53.321951" lon="-1.7129256"><ele>380.59999999999997</ele><time>2026-04-18T06:24:00.985Z</time></trkpt><trkpt lat="53.3219558" lon="-1.7127901"><ele>381.4</ele><time>2026-04-18T06:24:01.984Z</time></trkpt><trkpt lat="53.321937" lon="-1.7126455"><ele>382.2</ele><time>2026-04-18T06:24:02.991Z</time></trkpt><trkpt lat="53.3218956" lon="-1.7124976"><ele>383.0</ele><time>2026-04-18T06:24:03.986Z</time></trkpt><trkpt lat="53.3218356" lon="-1.7123463"><ele>382.79999999999995</ele><time>2026-04-18T06:24:04.986Z</time></trkpt><trkpt lat="53.3217672" lon="-1.7121979"><ele>382.6</ele><time>2026-04-18T06:24:05.985Z</time></trkpt><trkpt lat="53.3216978" lon="-1.7120634"><ele>382.4</ele><time>2026-04-18T06:24:06.985Z</time></trkpt><trkpt lat="53.3216313" lon="-1.7119414"><ele>382.20000000000005</ele><time>2026-04-18T06:24:07.986Z</time></trkpt><trkpt lat="53.3215659" lon="-1.711835"><ele>382.0</ele><time>2026-04-18T06:24:08.989Z</time></trkpt><trkpt lat="53.3214958" lon="-1.7117416"><ele>382.0</ele><time>2026-04-18T06:24:09.986Z</time></trkpt><trkpt lat="53.3214195" lon="-1.7116676"><ele>382.0</ele><time>2026-04-18T06:24:10.985Z</time></trkpt><trkpt lat="53.3213373" lon="-1.7116271"><ele>382.0</ele><time>2026-04-18T06:24:11.984Z</time></trkpt><trkpt lat="53.3212451" lon="-1.7116228"><ele>382.0</ele><time>2026-04-18T06:24:12.987Z</time></trkpt><trkpt lat="53.321149" lon="-1.7116731"><ele>382.0</ele><time>2026-04-18T06:24:13.985Z</time></trkpt><trkpt lat="53.3210556" lon="-1.7117821"><ele>382.25</ele><time>2026-04-18T06:24:14.987Z</time></trkpt><trkpt lat="53.3209604" lon="-1.7119005"><ele>382.5</ele><time>2026-04-18T06:24:15.987Z</time></trkpt><trkpt lat="53.3208667" lon="-1.7120388"><ele>382.75</ele><time>2026-04-18T06:24:16.987Z</time></trkpt><trkpt lat="53.3207763" lon="-1.7121872"><ele>383.0</ele><time>2026-04-18T06:24:17.987Z</time></trkpt><trkpt lat="53.3206928" lon="-1.712334"><ele>383.0</ele><time>2026-04-18T06:24:18.987Z</time></trkpt><trkpt lat="53.3206144" lon="-1.7124772"><ele>383.0</ele><time>2026-04-18T06:24:19.988Z</time></trkpt><trkpt lat="53.32054" lon="-1.71262"><ele>383.0</ele><time>2026-04-18T06:24:20.986Z</time></trkpt><trkpt lat="53.3204686" lon="-1.7127679"><ele>383.0</ele><time>2026-04-18T06:24:21.986Z</time></trkpt><trkpt lat="53.320402" lon="-1.7129253"><ele>381.79999999999995</ele><time>2026-04-18T06:24:22.989Z</time></trkpt><trkpt lat="53.3203391" lon="-1.7130887"><ele>380.6</ele><time>2026-04-18T06:24:23.981Z</time></trkpt><trkpt lat="53.3202784" lon="-1.7132476"><ele>379.4</ele><time>2026-04-18T06:24:24.985Z</time></trkpt><trkpt lat="53.3202199" lon="-1.7134001"><ele>378.20000000000005</ele><time>2026-04-18T06:24:25.985Z</time></trkpt><trkpt lat="53.320159" lon="-1.7135531"><ele>377.0</ele><time>2026-04-18T06:24:26.984Z</time></trkpt><trkpt lat="53.3200944" lon="-1.7137123"><ele>377.0</ele><time>2026-04-18T06:24:27.983Z</time></trkpt><trkpt lat="53.3200219" lon="-1.713873"><ele>377.0</ele><time>2026-04-18T06:24:28.986Z</time></trkpt><trkpt lat="53.3199408" lon="-1.714032"><ele>377.0</ele><time>2026-04-18T06:24:29.987Z</time></trkpt><trkpt lat="53.319844" lon="-1.7141832"><ele>377.0</ele><time>2026-04-18T06:24:30.986Z</time></trkpt><trkpt lat="53.3197326" lon="-1.7143377"><ele>374.6666666666667</ele><time>2026-04-18T06:24:31.986Z</time></trkpt><trkpt lat="53.3196121" lon="-1.7145043"><ele>372.3333333333333</ele><time>2026-04-18T06:24:32.99Z</time></trkpt><trkpt lat="53.3194905" lon="-1.7146756"><ele>370.0</ele><time>2026-04-18T06:24:33.985Z</time></trkpt><trkpt lat="53.3193747" lon="-1.7148451"><ele>370.0</ele><time>2026-04-18T06:24:34.987Z</time></trkpt><trkpt lat="53.3192641" lon="-1.7150149"><ele>370.0</ele><time>2026-04-18T06:24:35.986Z</time></trkpt><trkpt lat="53.3191583" lon="-1.7151843"><ele>370.0</ele><time>2026-04-18T06:24:36.984Z</time></trkpt><trkpt lat="53.3190565" lon="-1.7153532"><ele>370.0</ele><time>2026-04-18T06:24:37.983Z</time></trkpt><trkpt lat="53.3189548" lon="-1.7155245"><ele>368.75</ele><time>2026-04-18T06:24:38.982Z</time></trkpt><trkpt lat="53.3188542" lon="-1.7156919"><ele>367.5</ele><time>2026-04-18T06:24:39.982Z</time></trkpt><trkpt lat="53.3187639" lon="-1.7158501"><ele>366.25</ele><time>2026-04-18T06:24:40.987Z</time></trkpt><trkpt lat="53.3186822" lon="-1.7159959"><ele>365.0</ele><time>2026-04-18T06:24:41.987Z</time></trkpt><trkpt lat="53.3186062" lon="-1.716132"><ele>365.0</ele><time>2026-04-18T06:24:42.989Z</time></trkpt><trkpt lat="53.3185366" lon="-1.7162588"><ele>365.0</ele><time>2026-04-18T06:24:43.985Z</time></trkpt><trkpt lat="53.318476" lon="-1.7163702"><ele>365.0</ele><time>2026-04-18T06:24:44.987Z</time></trkpt><trkpt lat="53.3184228" lon="-1.7164607"><ele>365.0</ele><time>2026-04-18T06:24:45.988Z</time></trkpt><trkpt lat="53.3183622" lon="-1.7165834"><ele>365.0</ele><time>2026-04-18T06:24:47.986Z</time></trkpt><trkpt lat="53.3183223" lon="-1.7166656"><ele>365.0</ele><time>2026-04-18T06:25:14.986Z</time></trkpt><trkpt lat="53.3182953" lon="-1.7167998"><ele>365.25</ele><time>2026-04-18T06:29:00.988Z</time></trkpt><trkpt lat="53.3182509" lon="-1.7169555"><ele>365.5</ele><time>2026-04-18T06:29:01.986Z</time></trkpt><trkpt lat="53.3182135" lon="-1.7171149"><ele>365.75</ele><time>2026-04-18T06:29:02.987Z</time></trkpt><trkpt lat="53.318171" lon="-1.7173049"><ele>366.0</ele><time>2026-04-18T06:29:03.986Z</time></trkpt><trkpt lat="53.3181279" lon="-1.7175208"><ele>365.25</ele><time>2026-04-18T06:29:04.986Z</time></trkpt><trkpt lat="53.3180882" lon="-1.7177473"><ele>364.5</ele><time>2026-04-18T06:29:05.984Z</time></trkpt><trkpt lat="53.3180494" lon="-1.7179575"><ele>363.75</ele><time>2026-04-18T06:29:06.984Z</time></trkpt><trkpt lat="53.3180075" lon="-1.7181473"><ele>363.0</ele><time>2026-04-18T06:29:07.985Z</time></trkpt><trkpt lat="53.317964" lon="-1.7183156"><ele>362.79999999999995</ele><time>2026-04-18T06:29:08.988Z</time></trkpt><trkpt lat="53.3179194" lon="-1.7184558"><ele>362.6</ele><time>2026-04-18T06:29:09.986Z</time></trkpt><trkpt lat="53.3178631" lon="-1.7185752"><ele>362.4</ele><time>2026-04-18T06:29:10.984Z</time></trkpt><trkpt lat="53.3177934" lon="-1.7186819"><ele>362.20000000000005</ele><time>2026-04-18T06:29:11.984Z</time></trkpt><trkpt lat="53.31771" lon="-1.7187745"><ele>362.0</ele><time>2026-04-18T06:29:12.986Z</time></trkpt><trkpt lat="53.3176214" lon="-1.7188605"><ele>362.6</ele><time>2026-04-18T06:29:13.987Z</time></trkpt><trkpt lat="53.3175416" lon="-1.7189663"><ele>363.20000000000005</ele><time>2026-04-18T06:29:14.986Z</time></trkpt><trkpt lat="53.3174819" lon="-1.7191021"><ele>363.8</ele><time>2026-04-18T06:29:15.986Z</time></trkpt><trkpt lat="53.3174447" lon="-1.7192726"><ele>364.4</ele><time>2026-04-18T06:29:16.988Z</time></trkpt><trkpt lat="53.3174234" lon="-1.7194708"><ele>365.0</ele><time>2026-04-18T06:29:17.988Z</time></trkpt><trkpt lat="53.3174136" lon="-1.71969"><ele>365.5</ele><time>2026-04-18T06:29:18.99Z</time></trkpt><trkpt lat="53.3174052" lon="-1.7199204"><ele>366.0</ele><time>2026-04-18T06:29:19.988Z</time></trkpt><trkpt lat="53.3173932" lon="-1.7201618"><ele>366.5</ele><time>2026-04-18T06:29:20.987Z</time></trkpt><trkpt lat="53.3173814" lon="-1.7204104"><ele>367.0</ele><time>2026-04-18T06:29:21.986Z</time></trkpt><trkpt lat="53.3173662" lon="-1.7206472"><ele>367.25</ele><time>2026-04-18T06:29:22.989Z</time></trkpt><trkpt lat="53.3173579" lon="-1.7208874"><ele>367.5</ele><time>2026-04-18T06:29:23.987Z</time></trkpt><trkpt lat="53.317354" lon="-1.7211313"><ele>367.75</ele><time>2026-04-18T06:29:24.985Z</time></trkpt><trkpt lat="53.3173505" lon="-1.7213751"><ele>368.0</ele><time>2026-04-18T06:29:25.986Z</time></trkpt><trkpt lat="53.3173479" lon="-1.7216172"><ele>368.75</ele><time>2026-04-18T06:29:26.986Z</time></trkpt><trkpt lat="53.3173482" lon="-1.7218519"><ele>369.5</ele><time>2026-04-18T06:29:27.986Z</time></trkpt><trkpt lat="53.3173572" lon="-1.722081"><ele>370.25</ele><time>2026-04-18T06:29:28.986Z</time></trkpt><trkpt lat="53.3173725" lon="-1.7223053"><ele>371.0</ele><time>2026-04-18T06:29:29.987Z</time></trkpt><trkpt lat="53.3173938" lon="-1.7225285"><ele>372.0</ele><time>2026-04-18T06:29:30.986Z</time></trkpt><trkpt lat="53.3174201" lon="-1.7227523"><ele>373.0</ele><time>2026-04-18T06:29:31.987Z</time></trkpt><trkpt lat="53.3174495" lon="-1.7229779"><ele>374.0</ele><time>2026-04-18T06:29:32.986Z</time></trkpt><trkpt lat="53.3174797" lon="-1.7232029"><ele>375.0</ele><time>2026-04-18T06:29:33.986Z</time></trkpt><trkpt lat="53.3175167" lon="-1.7234217"><ele>376.25</ele><time>2026-04-18T06:29:34.978Z</time></trkpt><trkpt lat="53.3175665" lon="-1.7236303"><ele>377.5</ele><time>2026-04-18T06:29:35.986Z</time></trkpt><trkpt lat="53.3176348" lon="-1.7238311"><ele>378.75</ele><time>2026-04-18T06:29:36.987Z</time></trkpt><trkpt lat="53.3177243" lon="-1.724022"><ele>380.0</ele><time>2026-04-18T06:29:37.987Z</time></trkpt><trkpt lat="53.3178292" lon="-1.7241987"><ele>380.0</ele><time>2026-04-18T06:29:38.985Z</time></trkpt><trkpt lat="53.3179405" lon="-1.7243635"><ele>380.0</ele><time>2026-04-18T06:29:39.985Z</time></trkpt><trkpt lat="53.3180606" lon="-1.7245132"><ele>380.0</ele><time>2026-04-18T06:29:40.986Z</time></trkpt><trkpt lat="53.3181831" lon="-1.7246484"><ele>380.0</ele><time>2026-04-18T06:29:41.982Z</time></trkpt><trkpt lat="53.3183031" lon="-1.7247798"><ele>379.0</ele><time>2026-04-18T06:29:42.989Z</time></trkpt><trkpt lat="53.3184207" lon="-1.724911"><ele>378.0</ele><time>2026-04-18T06:29:43.987Z</time></trkpt><trkpt lat="53.3185365" lon="-1.7250361"><ele>377.0</ele><time>2026-04-18T06:29:44.986Z</time></trkpt><trkpt lat="53.3186395" lon="-1.7251438"><ele>376.0</ele><time>2026-04-18T06:29:45.986Z</time></trkpt><trkpt lat="53.3187198" lon="-1.7252264"><ele>374.8333333333333</ele><time>2026-04-18T06:29:46.987Z</time></trkpt><trkpt lat="53.3187816" lon="-1.7252789"><ele>373.66666666666663</ele><time>2026-04-18T06:29:47.986Z</time></trkpt><trkpt lat="53.3188526" lon="-1.7253134"><ele>372.5</ele><time>2026-04-18T06:29:49.987Z</time></trkpt><trkpt lat="53.3189223" lon="-1.7253884"><ele>371.3333333333333</ele><time>2026-04-18T06:30:09.98Z</time></trkpt><trkpt lat="53.3189882" lon="-1.7254292"><ele>370.1666666666667</ele><time>2026-04-18T06:30:10.979Z</time></trkpt><trkpt lat="53.3190845" lon="-1.7254914"><ele>369.0</ele><time>2026-04-18T06:30:11.984Z</time></trkpt><trkpt lat="53.319194" lon="-1.7255676"><ele>369.0</ele><time>2026-04-18T06:30:12.988Z</time></trkpt><trkpt lat="53.319313" lon="-1.7256453"><ele>369.0</ele><time>2026-04-18T06:30:13.987Z</time></trkpt><trkpt lat="53.3194361" lon="-1.7257203"><ele>369.0</ele><time>2026-04-18T06:30:14.986Z</time></trkpt><trkpt lat="53.3195587" lon="-1.7258035"><ele>369.0</ele><time>2026-04-18T06:30:15.985Z</time></trkpt><trkpt lat="53.3196857" lon="-1.7258978"><ele>369.6666666666667</ele><time>2026-04-18T06:30:16.985Z</time></trkpt><trkpt lat="53.3198216" lon="-1.7259899"><ele>370.33333333333337</ele><time>2026-04-18T06:30:17.989Z</time></trkpt><trkpt lat="53.3199673" lon="-1.7260795"><ele>371.0</ele><time>2026-04-18T06:30:18.988Z</time></trkpt><trkpt lat="53.3201171" lon="-1.7261704"><ele>371.6666666666667</ele><time>2026-04-18T06:30:19.989Z</time></trkpt><trkpt lat="53.3202682" lon="-1.7262615"><ele>372.3333333333333</ele><time>2026-04-18T06:30:20.986Z</time></trkpt><trkpt lat="53.32042" lon="-1.726352"><ele>373.0</ele><time>2026-04-18T06:30:21.986Z</time></trkpt><trkpt lat="53.3205731" lon="-1.7264434"><ele>373.3333333333333</ele><time>2026-04-18T06:30:22.988Z</time></trkpt><trkpt lat="53.3207226" lon="-1.7265278"><ele>373.6666666666667</ele><time>2026-04-18T06:30:23.985Z</time></trkpt><trkpt lat="53.3208654" lon="-1.7266071"><ele>374.0</ele><time>2026-04-18T06:30:24.987Z</time></trkpt><trkpt lat="53.320998" lon="-1.7266935"><ele>374.0</ele><time>2026-04-18T06:30:25.984Z</time></trkpt><trkpt lat="53.3211202" lon="-1.7267847"><ele>374.0</ele><time>2026-04-18T06:30:26.984Z</time></trkpt><trkpt lat="53.3212371" lon="-1.7268678"><ele>374.0</ele><time>2026-04-18T06:30:27.986Z</time></trkpt><trkpt lat="53.3213515" lon="-1.7269375"><ele>374.0</ele><time>2026-04-18T06:30:28.985Z</time></trkpt><trkpt lat="53.3214654" lon="-1.7269967"><ele>373.4</ele><time>2026-04-18T06:30:29.986Z</time></trkpt><trkpt lat="53.3215751" lon="-1.7270574"><ele>372.79999999999995</ele><time>2026-04-18T06:30:30.98Z</time></trkpt><trkpt lat="53.32168" lon="-1.7271279"><ele>372.20000000000005</ele><time>2026-04-18T06:30:31.981Z</time></trkpt><trkpt lat="53.3217813" lon="-1.7272002"><ele>371.6</ele><time>2026-04-18T06:30:32.984Z</time></trkpt><trkpt lat="53.3218777" lon="-1.7272713"><ele>371.0</ele><time>2026-04-18T06:30:33.983Z</time></trkpt><trkpt lat="53.3219671" lon="-1.7273236"><ele>371.0</ele><time>2026-04-18T06:30:34.98Z</time></trkpt><trkpt lat="53.3220587" lon="-1.7273493"><ele>371.0</ele><time>2026-04-18T06:30:35.984Z</time></trkpt><trkpt lat="53.3221662" lon="-1.7273517"><ele>371.0</ele><time>2026-04-18T06:30:36.982Z</time></trkpt><trkpt lat="53.3222884" lon="-1.7273422"><ele>371.0</ele><time>2026-04-18T06:30:37.98Z</time></trkpt><trkpt lat="53.3224203" lon="-1.7273278"><ele>369.25</ele><time>2026-04-18T06:30:38.983Z</time></trkpt><trkpt lat="53.322554" lon="-1.7273216"><ele>367.5</ele><time>2026-04-18T06:30:39.985Z</time></trkpt><trkpt lat="53.3226902" lon="-1.7273304"><ele>365.75</ele><time>2026-04-18T06:30:40.986Z</time></trkpt><trkpt lat="53.3228372" lon="-1.727352"><ele>364.0</ele><time>2026-04-18T06:30:41.986Z</time></trkpt><trkpt lat="53.3229976" lon="-1.7273702"><ele>361.66666666666663</ele><time>2026-04-18T06:30:42.991Z</time></trkpt><trkpt lat="53.3231658" lon="-1.7273851"><ele>359.3333333333333</ele><time>2026-04-18T06:30:43.986Z</time></trkpt><trkpt lat="53.3233315" lon="-1.727395"><ele>357.0</ele><time>2026-04-18T06:30:44.986Z</time></trkpt><trkpt lat="53.3234984" lon="-1.7274002"><ele>357.0</ele><time>2026-04-18T06:30:45.989Z</time></trkpt><trkpt lat="53.3236702" lon="-1.727406"><ele>357.0</ele><time>2026-04-18T06:30:46.987Z</time></trkpt><trkpt lat="53.3238533" lon="-1.7274174"><ele>357.0</ele><time>2026-04-18T06:30:47.992Z</time></trkpt><trkpt lat="53.3240469" lon="-1.7274308"><ele>353.6666666666667</ele><time>2026-04-18T06:30:48.985Z</time></trkpt><trkpt lat="53.3242414" lon="-1.7274473"><ele>350.33333333333337</ele><time>2026-04-18T06:30:49.987Z</time></trkpt><trkpt lat="53.3244294" lon="-1.7274601"><ele>347.0</ele><time>2026-04-18T06:30:50.987Z</time></trkpt><trkpt lat="53.3246131" lon="-1.7274649"><ele>345.0</ele><time>2026-04-18T06:30:51.987Z</time></trkpt><trkpt lat="53.3247896" lon="-1.7274604"><ele>343.0</ele><time>2026-04-18T06:30:52.989Z</time></trkpt><trkpt lat="53.324963" lon="-1.7274515"><ele>341.0</ele><time>2026-04-18T06:30:53.985Z</time></trkpt><trkpt lat="53.3251328" lon="-1.7274424"><ele>341.0</ele><time>2026-04-18T06:30:54.986Z</time></trkpt><trkpt lat="53.3252954" lon="-1.7274371"><ele>341.0</ele><time>2026-04-18T06:30:55.986Z</time></trkpt><trkpt lat="53.325448" lon="-1.727434"><ele>341.0</ele><time>2026-04-18T06:30:56.987Z</time></trkpt><trkpt lat="53.3255861" lon="-1.7274336"><ele>340.75</ele><time>2026-04-18T06:30:57.979Z</time></trkpt><trkpt lat="53.3257074" lon="-1.7274324"><ele>340.5</ele><time>2026-04-18T06:30:58.984Z</time></trkpt><trkpt lat="53.3258212" lon="-1.7274326"><ele>340.25</ele><time>2026-04-18T06:30:59.985Z</time></trkpt><trkpt lat="53.3259391" lon="-1.727438"><ele>340.0</ele><time>2026-04-18T06:31:00.987Z</time></trkpt><trkpt lat="53.326071" lon="-1.7274444"><ele>340.0</ele><time>2026-04-18T06:31:01.985Z</time></trkpt><trkpt lat="53.3262138" lon="-1.7274515"><ele>340.0</ele><time>2026-04-18T06:31:02.991Z</time></trkpt><trkpt lat="53.326361" lon="-1.727458"><ele>340.0</ele><time>2026-04-18T06:31:03.984Z</time></trkpt><trkpt lat="53.3265107" lon="-1.7274623"><ele>340.0</ele><time>2026-04-18T06:31:04.985Z</time></trkpt><trkpt lat="53.3266667" lon="-1.7274584"><ele>340.3333333333333</ele><time>2026-04-18T06:31:05.984Z</time></trkpt><trkpt lat="53.3268239" lon="-1.7274447"><ele>340.6666666666667</ele><time>2026-04-18T06:31:06.976Z</time></trkpt><trkpt lat="53.3269836" lon="-1.7274128"><ele>341.0</ele><time>2026-04-18T06:31:07.988Z</time></trkpt><trkpt lat="53.3271467" lon="-1.7273587"><ele>341.0</ele><time>2026-04-18T06:31:08.985Z</time></trkpt><trkpt lat="53.3273081" lon="-1.7272935"><ele>341.0</ele><time>2026-04-18T06:31:09.985Z</time></trkpt><trkpt lat="53.3274562" lon="-1.7272382"><ele>341.0</ele><time>2026-04-18T06:31:10.986Z</time></trkpt><trkpt lat="53.3275915" lon="-1.7271988"><ele>341.0</ele><time>2026-04-18T06:31:11.987Z</time></trkpt><trkpt lat="53.3277079" lon="-1.7271687"><ele>341.0</ele><time>2026-04-18T06:31:12.986Z</time></trkpt><trkpt lat="53.3278042" lon="-1.7271467"><ele>341.0</ele><time>2026-04-18T06:31:13.987Z</time></trkpt><trkpt lat="53.3278957" lon="-1.7271269"><ele>341.0</ele><time>2026-04-18T06:31:14.984Z</time></trkpt><trkpt lat="53.3279905" lon="-1.7271114"><ele>341.0</ele><time>2026-04-18T06:31:15.989Z</time></trkpt><trkpt lat="53.3280876" lon="-1.7270961"><ele>339.0</ele><time>2026-04-18T06:31:16.987Z</time></trkpt><trkpt lat="53.3281861" lon="-1.7270903"><ele>337.0</ele><time>2026-04-18T06:31:17.985Z</time></trkpt><trkpt lat="53.328282" lon="-1.7270887"><ele>335.0</ele><time>2026-04-18T06:31:18.984Z</time></trkpt><trkpt lat="53.3283788" lon="-1.7270841"><ele>333.0</ele><time>2026-04-18T06:31:19.99Z</time></trkpt><trkpt lat="53.3284683" lon="-1.7270767"><ele>331.0</ele><time>2026-04-18T06:31:20.992Z</time></trkpt><trkpt lat="53.3285583" lon="-1.7270768"><ele>331.0</ele><time>2026-04-18T06:31:21.992Z</time></trkpt><trkpt lat="53.3286436" lon="-1.7270904"><ele>331.0</ele><time>2026-04-18T06:31:22.994Z</time></trkpt><trkpt lat="53.3287254" lon="-1.7271208"><ele>331.0</ele><time>2026-04-18T06:31:23.99Z</time></trkpt><trkpt lat="53.3288018" lon="-1.727169"><ele>331.0</ele><time>2026-04-18T06:31:24.988Z</time></trkpt><trkpt lat="53.3288768" lon="-1.7272226"><ele>331.0</ele><time>2026-04-18T06:31:25.992Z</time></trkpt><trkpt lat="53.3289481" lon="-1.7272616"><ele>331.0</ele><time>2026-04-18T06:31:26.992Z</time></trkpt><trkpt lat="53.329025" lon="-1.7272695"><ele>327.8</ele><time>2026-04-18T06:31:27.994Z</time></trkpt><trkpt lat="53.3291112" lon="-1.7272438"><ele>324.6</ele><time>2026-04-18T06:31:28.992Z</time></trkpt><trkpt lat="53.3292032" lon="-1.7271953"><ele>321.4</ele><time>2026-04-18T06:31:29.99Z</time></trkpt><trkpt lat="53.3292971" lon="-1.7271479"><ele>318.2</ele><time>2026-04-18T06:31:30.988Z</time></trkpt><trkpt lat="53.3293953" lon="-1.7271013"><ele>315.0</ele><time>2026-04-18T06:31:31.986Z</time></trkpt><trkpt lat="53.3295005" lon="-1.7270443"><ele>315.0</ele><time>2026-04-18T06:31:32.994Z</time></trkpt><trkpt lat="53.3296161" lon="-1.7269641"><ele>315.0</ele><time>2026-04-18T06:31:33.987Z</time></trkpt><trkpt lat="53.3297384" lon="-1.7268632"><ele>315.0</ele><time>2026-04-18T06:31:34.985Z</time></trkpt><trkpt lat="53.3298623" lon="-1.7267425"><ele>315.0</ele><time>2026-04-18T06:31:35.982Z</time></trkpt><trkpt lat="53.3299818" lon="-1.726618"><ele>312.5</ele><time>2026-04-18T06:31:36.984Z</time></trkpt><trkpt lat="53.330089" lon="-1.7264982"><ele>310.0</ele><time>2026-04-18T06:31:37.983Z</time></trkpt><trkpt lat="53.3301832" lon="-1.7263757"><ele>307.5</ele><time>2026-04-18T06:31:38.984Z</time></trkpt><trkpt lat="53.3302665" lon="-1.726232"><ele>305.0</ele><time>2026-04-18T06:31:39.986Z</time></trkpt><trkpt lat="53.3303416" lon="-1.7260722"><ele>306.0</ele><time>2026-04-18T06:31:40.987Z</time></trkpt><trkpt lat="53.3304164" lon="-1.7259173"><ele>307.0</ele><time>2026-04-18T06:31:41.987Z</time></trkpt><trkpt lat="53.3305008" lon="-1.7257947"><ele>308.0</ele><time>2026-04-18T06:31:42.984Z</time></trkpt><trkpt lat="53.3305985" lon="-1.7256963"><ele>309.0</ele><time>2026-04-18T06:31:43.986Z</time></trkpt><trkpt lat="53.3306977" lon="-1.7256076"><ele>306.4</ele><time>2026-04-18T06:31:44.986Z</time></trkpt><trkpt lat="53.3307825" lon="-1.7255305"><ele>303.79999999999995</ele><time>2026-04-18T06:31:45.986Z</time></trkpt><trkpt lat="53.3308476" lon="-1.7254645"><ele>301.20000000000005</ele><time>2026-04-18T06:31:46.987Z</time></trkpt><trkpt lat="53.3309586" lon="-1.7253603"><ele>298.6</ele><time>2026-04-18T06:31:48.988Z</time></trkpt><trkpt lat="53.3310396" lon="-1.725312"><ele>296.0</ele><time>2026-04-18T06:31:49.986Z</time></trkpt><trkpt lat="53.331141" lon="-1.7252549"><ele>294.5</ele><time>2026-04-18T06:31:50.992Z</time></trkpt><trkpt lat="53.3312474" lon="-1.72518"><ele>293.0</ele><time>2026-04-18T06:31:51.987Z</time></trkpt><trkpt lat="53.3313518" lon="-1.7250866"><ele>291.5</ele><time>2026-04-18T06:31:52.99Z</time></trkpt><trkpt lat="53.3314576" lon="-1.724994"><ele>290.0</ele><time>2026-04-18T06:31:53.985Z</time></trkpt><trkpt lat="53.3315576" lon="-1.7249093"><ele>290.0</ele><time>2026-04-18T06:31:54.986Z</time></trkpt><trkpt lat="53.3316571" lon="-1.724842"><ele>290.0</ele><time>2026-04-18T06:31:55.989Z</time></trkpt><trkpt lat="53.3317638" lon="-1.7248165"><ele>290.0</ele><time>2026-04-18T06:31:56.987Z</time></trkpt><trkpt lat="53.3318832" lon="-1.72484"><ele>290.0</ele><time>2026-04-18T06:31:57.991Z</time></trkpt><trkpt lat="53.3320194" lon="-1.724897"><ele>290.0</ele><time>2026-04-18T06:31:58.991Z</time></trkpt><trkpt lat="53.332166" lon="-1.7249572"><ele>290.0</ele><time>2026-04-18T06:31:59.992Z</time></trkpt><trkpt lat="53.332314" lon="-1.7250148"><ele>290.0</ele><time>2026-04-18T06:32:00.987Z</time></trkpt><trkpt lat="53.3324486" lon="-1.7250764"><ele>290.0</ele><time>2026-04-18T06:32:01.986Z</time></trkpt><trkpt lat="53.3325711" lon="-1.7251393"><ele>287.25</ele><time>2026-04-18T06:32:02.995Z</time></trkpt><trkpt lat="53.3326848" lon="-1.7251965"><ele>284.5</ele><time>2026-04-18T06:32:03.983Z</time></trkpt><trkpt lat="53.3327984" lon="-1.7252414"><ele>281.75</ele><time>2026-04-18T06:32:04.983Z</time></trkpt><trkpt lat="53.3329149" lon="-1.7252756"><ele>279.0</ele><time>2026-04-18T06:32:05.984Z</time></trkpt><trkpt lat="53.3330296" lon="-1.7253013"><ele>276.5</ele><time>2026-04-18T06:32:06.986Z</time></trkpt><trkpt lat="53.3331344" lon="-1.7253199"><ele>274.0</ele><time>2026-04-18T06:32:07.985Z</time></trkpt><trkpt lat="53.3332259" lon="-1.7253274"><ele>271.5</ele><time>2026-04-18T06:32:08.987Z</time></trkpt><trkpt lat="53.3333019" lon="-1.7253286"><ele>269.0</ele><time>2026-04-18T06:32:09.987Z</time></trkpt><trkpt lat="53.3333699" lon="-1.7253272"><ele>266.5</ele><time>2026-04-18T06:32:10.991Z</time></trkpt><trkpt lat="53.3334388" lon="-1.7253378"><ele>264.0</ele><time>2026-04-18T06:32:11.989Z</time></trkpt><trkpt lat="53.3335131" lon="-1.7253587"><ele>264.0</ele><time>2026-04-18T06:32:12.993Z</time></trkpt><trkpt lat="53.3335924" lon="-1.725366"><ele>264.0</ele><time>2026-04-18T06:32:13.992Z</time></trkpt><trkpt lat="53.3336726" lon="-1.7253458"><ele>264.0</ele><time>2026-04-18T06:32:14.99Z</time></trkpt><trkpt lat="53.3337548" lon="-1.7253111"><ele>264.0</ele><time>2026-04-18T06:32:15.992Z</time></trkpt><trkpt lat="53.3338423" lon="-1.7252719"><ele>264.0</ele><time>2026-04-18T06:32:16.985Z</time></trkpt><trkpt lat="53.333931" lon="-1.7252293"><ele>264.0</ele><time>2026-04-18T06:32:17.991Z</time></trkpt><trkpt lat="53.3340202" lon="-1.7251927"><ele>262.4</ele><time>2026-04-18T06:32:18.987Z</time></trkpt><trkpt lat="53.3341118" lon="-1.7251822"><ele>260.79999999999995</ele><time>2026-04-18T06:32:19.989Z</time></trkpt><trkpt lat="53.334212" lon="-1.7252027"><ele>259.20000000000005</ele><time>2026-04-18T06:32:20.987Z</time></trkpt><trkpt lat="53.334313" lon="-1.7252423"><ele>257.6</ele><time>2026-04-18T06:32:21.992Z</time></trkpt><trkpt lat="53.3344086" lon="-1.7252953"><ele>256.0</ele><time>2026-04-18T06:32:22.995Z</time></trkpt><trkpt lat="53.3344976" lon="-1.7253537"><ele>254.99999999999997</ele><time>2026-04-18T06:32:23.993Z</time></trkpt><trkpt lat="53.3345807" lon="-1.725404"><ele>254.0</ele><time>2026-04-18T06:32:24.993Z</time></trkpt><trkpt lat="53.3346622" lon="-1.7254388"><ele>253.0</ele><time>2026-04-18T06:32:25.992Z</time></trkpt><trkpt lat="53.3347412" lon="-1.7254558"><ele>252.0</ele><time>2026-04-18T06:32:26.993Z</time></trkpt><trkpt lat="53.3348247" lon="-1.725468"><ele>250.99999999999997</ele><time>2026-04-18T06:32:27.99Z</time></trkpt><trkpt lat="53.3349142" lon="-1.7254862"><ele>250.0</ele><time>2026-04-18T06:32:28.992Z</time></trkpt><trkpt lat="53.3350042" lon="-1.7255141"><ele>247.83333333333331</ele><time>2026-04-18T06:32:29.993Z</time></trkpt><trkpt lat="53.3350923" lon="-1.7255482"><ele>245.66666666666666</ele><time>2026-04-18T06:32:30.986Z</time></trkpt><trkpt lat="53.3351756" lon="-1.7255786"><ele>243.5</ele><time>2026-04-18T06:32:31.987Z</time></trkpt><trkpt lat="53.3352525" lon="-1.7256019"><ele>241.33333333333331</ele><time>2026-04-18T06:32:32.988Z</time></trkpt><trkpt lat="53.3353223" lon="-1.7256223"><ele>239.16666666666666</ele><time>2026-04-18T06:32:33.986Z</time></trkpt><trkpt lat="53.3353848" lon="-1.7256497"><ele>237.0</ele><time>2026-04-18T06:32:34.987Z</time></trkpt><trkpt lat="53.3354474" lon="-1.7256877"><ele>237.0</ele><time>2026-04-18T06:32:35.986Z</time></trkpt><trkpt lat="53.3355147" lon="-1.7257277"><ele>237.0</ele><time>2026-04-18T06:32:36.98Z</time></trkpt><trkpt lat="53.3355949" lon="-1.7257608"><ele>237.0</ele><time>2026-04-18T06:32:37.983Z</time></trkpt><trkpt lat="53.3356853" lon="-1.7257732"><ele>237.0</ele><time>2026-04-18T06:32:38.985Z</time></trkpt><trkpt lat="53.3357825" lon="-1.7257622"><ele>237.0</ele><time>2026-04-18T06:32:39.984Z</time></trkpt><trkpt lat="53.3358878" lon="-1.7257376"><ele>237.0</ele><time>2026-04-18T06:32:40.985Z</time></trkpt><trkpt lat="53.3360089" lon="-1.7257025"><ele>234.5</ele><time>2026-04-18T06:32:41.986Z</time></trkpt><trkpt lat="53.3361449" lon="-1.725659"><ele>232.0</ele><time>2026-04-18T06:32:42.987Z</time></trkpt><trkpt lat="53.3362932" lon="-1.7256122"><ele>229.5</ele><time>2026-04-18T06:32:43.985Z</time></trkpt><trkpt lat="53.3364462" lon="-1.7255673"><ele>227.0</ele><time>2026-04-18T06:32:44.986Z</time></trkpt><trkpt lat="53.3365936" lon="-1.7255225"><ele>223.75</ele><time>2026-04-18T06:32:45.986Z</time></trkpt><trkpt lat="53.3367321" lon="-1.7254785"><ele>220.5</ele><time>2026-04-18T06:32:46.985Z</time></trkpt><trkpt lat="53.3368602" lon="-1.7254398"><ele>217.25</ele><time>2026-04-18T06:32:47.984Z</time></trkpt><trkpt lat="53.3369781" lon="-1.7254076"><ele>214.0</ele><time>2026-04-18T06:32:48.983Z</time></trkpt><trkpt lat="53.3370873" lon="-1.7253708"><ele>214.0</ele><time>2026-04-18T06:32:49.984Z</time></trkpt><trkpt lat="53.337191" lon="-1.7253214"><ele>213.99999999999997</ele><time>2026-04-18T06:32:50.984Z</time></trkpt><trkpt lat="53.3372917" lon="-1.7252582"><ele>213.99999999999997</ele><time>2026-04-18T06:32:51.984Z</time></trkpt><trkpt lat="53.3373906" lon="-1.7251808"><ele>214.0</ele><time>2026-04-18T06:32:52.986Z</time></trkpt><trkpt lat="53.3374902" lon="-1.7250922"><ele>214.0</ele><time>2026-04-18T06:32:53.986Z</time></trkpt><trkpt lat="53.3375927" lon="-1.7249992"><ele>212.39999999999998</ele><time>2026-04-18T06:32:54.985Z</time></trkpt><trkpt lat="53.3376979" lon="-1.724913"><ele>210.79999999999998</ele><time>2026-04-18T06:32:55.987Z</time></trkpt><trkpt lat="53.337803" lon="-1.7248355"><ele>209.2</ele><time>2026-04-18T06:32:56.985Z</time></trkpt><trkpt lat="53.337904" lon="-1.7247641"><ele>207.60000000000002</ele><time>2026-04-18T06:32:57.985Z</time></trkpt><trkpt lat="53.3380034" lon="-1.7246992"><ele>206.0</ele><time>2026-04-18T06:32:58.985Z</time></trkpt><trkpt lat="53.3380989" lon="-1.7246365"><ele>204.00000000000003</ele><time>2026-04-18T06:32:59.984Z</time></trkpt><trkpt lat="53.3381937" lon="-1.7245719"><ele>202.0</ele><time>2026-04-18T06:33:00.981Z</time></trkpt><trkpt lat="53.3382848" lon="-1.7245069"><ele>200.0</ele><time>2026-04-18T06:33:01.981Z</time></trkpt><trkpt lat="53.3383693" lon="-1.7244454"><ele>198.0</ele><time>2026-04-18T06:33:02.981Z</time></trkpt><trkpt lat="53.3384401" lon="-1.7243817"><ele>196.00000000000003</ele><time>2026-04-18T06:33:03.983Z</time></trkpt><trkpt lat="53.3384946" lon="-1.7243115"><ele>194.0</ele><time>2026-04-18T06:33:04.981Z</time></trkpt><trkpt lat="53.3385642" lon="-1.7241712"><ele>194.00000000000003</ele><time>2026-04-18T06:33:06.982Z</time></trkpt><trkpt lat="53.3386292" lon="-1.72416"><ele>194.0</ele><time>2026-04-18T06:33:09.984Z</time></trkpt><trkpt lat="53.3386495" lon="-1.7242617"><ele>194.0</ele><time>2026-04-18T06:33:10.985Z</time></trkpt><trkpt lat="53.3386655" lon="-1.724416"><ele>194.0</ele><time>2026-04-18T06:33:11.987Z</time></trkpt><trkpt lat="53.3386834" lon="-1.7245883"><ele>194.00000000000003</ele><time>2026-04-18T06:33:12.987Z</time></trkpt><trkpt lat="53.3386881" lon="-1.7247602"><ele>194.0</ele><time>2026-04-18T06:33:13.985Z</time></trkpt><trkpt lat="53.3386904" lon="-1.7249227"><ele>192.6</ele><time>2026-04-18T06:33:14.987Z</time></trkpt><trkpt lat="53.338692" lon="-1.7250801"><ele>191.2</ele><time>2026-04-18T06:33:15.987Z</time></trkpt><trkpt lat="53.3386926" lon="-1.725239"><ele>189.79999999999998</ele><time>2026-04-18T06:33:16.986Z</time></trkpt><trkpt lat="53.3387005" lon="-1.7254001"><ele>188.39999999999998</ele><time>2026-04-18T06:33:17.986Z</time></trkpt><trkpt lat="53.3387179" lon="-1.7255551"><ele>187.0</ele><time>2026-04-18T06:33:18.985Z</time></trkpt><trkpt lat="53.3387438" lon="-1.725708"><ele>185.2</ele><time>2026-04-18T06:33:19.988Z</time></trkpt><trkpt lat="53.3387805" lon="-1.7258657"><ele>183.39999999999998</ele><time>2026-04-18T06:33:20.985Z</time></trkpt><trkpt lat="53.3388328" lon="-1.7260288"><ele>181.60000000000002</ele><time>2026-04-18T06:33:21.985Z</time></trkpt><trkpt lat="53.3389005" lon="-1.7261878"><ele>179.8</ele><time>2026-04-18T06:33:22.986Z</time></trkpt><trkpt lat="53.3389818" lon="-1.7263386"><ele>178.0</ele><time>2026-04-18T06:33:23.985Z</time></trkpt><trkpt lat="53.3390732" lon="-1.7264843"><ele>175.4</ele><time>2026-04-18T06:33:24.984Z</time></trkpt><trkpt lat="53.3391608" lon="-1.726611"><ele>172.8</ele><time>2026-04-18T06:33:25.98Z</time></trkpt><trkpt lat="53.339244" lon="-1.7267304"><ele>170.2</ele><time>2026-04-18T06:33:26.979Z</time></trkpt><trkpt lat="53.3393178" lon="-1.7268333"><ele>167.6</ele><time>2026-04-18T06:33:27.987Z</time></trkpt><trkpt lat="53.3393855" lon="-1.7269244"><ele>165.0</ele><time>2026-04-18T06:33:28.986Z</time></trkpt><trkpt lat="53.3394464" lon="-1.7270059"><ele>164.66666666666666</ele><time>2026-04-18T06:33:29.984Z</time></trkpt><trkpt lat="53.3395002" lon="-1.7270801"><ele>164.33333333333334</ele><time>2026-04-18T06:33:30.982Z</time></trkpt><trkpt lat="53.3395969" lon="-1.7271866"><ele>164.0</ele><time>2026-04-18T06:33:32.982Z</time></trkpt><trkpt lat="53.3396886" lon="-1.7271549"><ele>163.66666666666669</ele><time>2026-04-18T06:33:39.983Z</time></trkpt><trkpt lat="53.3397366" lon="-1.7270836"><ele>163.33333333333334</ele><time>2026-04-18T06:33:40.984Z</time></trkpt><trkpt lat="53.3397823" lon="-1.7269506"><ele>163.0</ele><time>2026-04-18T06:33:41.987Z</time></trkpt><trkpt lat="53.3398212" lon="-1.726767"><ele>162.5</ele><time>2026-04-18T06:33:42.987Z</time></trkpt><trkpt lat="53.3398564" lon="-1.726555"><ele>162.0</ele><time>2026-04-18T06:33:43.986Z</time></trkpt><trkpt lat="53.339903" lon="-1.7263258"><ele>161.5</ele><time>2026-04-18T06:33:44.988Z</time></trkpt><trkpt lat="53.3399666" lon="-1.7260878"><ele>161.0</ele><time>2026-04-18T06:33:45.986Z</time></trkpt><trkpt lat="53.3400461" lon="-1.7258694"><ele>161.0</ele><time>2026-04-18T06:33:46.987Z</time></trkpt><trkpt lat="53.3401416" lon="-1.7256956"><ele>161.0</ele><time>2026-04-18T06:33:47.988Z</time></trkpt><trkpt lat="53.3402409" lon="-1.7255634"><ele>161.0</ele><time>2026-04-18T06:33:48.985Z</time></trkpt><trkpt lat="53.3403308" lon="-1.7254704"><ele>161.0</ele><time>2026-04-18T06:33:49.984Z</time></trkpt><trkpt lat="53.3404096" lon="-1.7254061"><ele>161.0</ele><time>2026-04-18T06:33:50.983Z</time></trkpt><trkpt lat="53.3404876" lon="-1.7253397"><ele>161.0</ele><time>2026-04-18T06:33:51.986Z</time></trkpt><trkpt lat="53.3405786" lon="-1.7252661"><ele>161.0</ele><time>2026-04-18T06:33:52.989Z</time></trkpt><trkpt lat="53.340683" lon="-1.7252037"><ele>161.0</ele><time>2026-04-18T06:33:53.985Z</time></trkpt><trkpt lat="53.3408039" lon="-1.725163"><ele>161.0</ele><time>2026-04-18T06:33:54.983Z</time></trkpt><trkpt lat="53.3409337" lon="-1.7251405"><ele>161.0</ele><time>2026-04-18T06:33:55.983Z</time></trkpt><trkpt lat="53.3410589" lon="-1.7251178"><ele>161.0</ele><time>2026-04-18T06:33:56.985Z</time></trkpt><trkpt lat="53.3411674" lon="-1.725092"><ele>161.0</ele><time>2026-04-18T06:33:57.988Z</time></trkpt><trkpt lat="53.3412586" lon="-1.7250626"><ele>161.0</ele><time>2026-04-18T06:33:58.987Z</time></trkpt><trkpt lat="53.3413327" lon="-1.725033"><ele>161.0</ele><time>2026-04-18T06:33:59.987Z</time></trkpt><trkpt lat="53.3414363" lon="-1.7249758"><ele>161.0</ele><time>2026-04-18T06:34:01.982Z</time></trkpt><trkpt lat="53.341496" lon="-1.7249229"><ele>161.0</ele><time>2026-04-18T06:34:03.982Z</time></trkpt><trkpt lat="53.3415485" lon="-1.7248345"><ele>161.0</ele><time>2026-04-18T06:34:18.987Z</time></trkpt><trkpt lat="53.3416792" lon="-1.7247681"><ele>161.0</ele><time>2026-04-18T06:34:20.985Z</time></trkpt><trkpt lat="53.3417565" lon="-1.7247894"><ele>161.0</ele><time>2026-04-18T06:34:21.985Z</time></trkpt><trkpt lat="53.3418186" lon="-1.7248622"><ele>161.0</ele><time>2026-04-18T06:34:22.986Z</time></trkpt><trkpt lat="53.3418699" lon="-1.7249889"><ele>161.0</ele><time>2026-04-18T06:34:23.986Z</time></trkpt><trkpt lat="53.341917" lon="-1.7251439"><ele>161.0</ele><time>2026-04-18T06:34:24.985Z</time></trkpt><trkpt lat="53.3419711" lon="-1.7253143"><ele>161.0</ele><time>2026-04-18T06:34:25.984Z</time></trkpt><trkpt lat="53.3420319" lon="-1.7254906"><ele>161.0</ele><time>2026-04-18T06:34:26.984Z</time></trkpt><trkpt lat="53.3420936" lon="-1.7256825"><ele>160.75</ele><time>2026-04-18T06:34:27.984Z</time></trkpt><trkpt lat="53.3421554" lon="-1.7258846"><ele>160.5</ele><time>2026-04-18T06:34:28.984Z</time></trkpt><trkpt lat="53.3422214" lon="-1.7261025"><ele>160.25</ele><time>2026-04-18T06:34:29.988Z</time></trkpt><trkpt lat="53.342287" lon="-1.7263365"><ele>160.0</ele><time>2026-04-18T06:34:30.985Z</time></trkpt><trkpt lat="53.3423479" lon="-1.7265886"><ele>160.33333333333334</ele><time>2026-04-18T06:34:31.986Z</time></trkpt><trkpt lat="53.3424035" lon="-1.7268601"><ele>160.66666666666666</ele><time>2026-04-18T06:34:32.985Z</time></trkpt><trkpt lat="53.3424513" lon="-1.7271405"><ele>161.0</ele><time>2026-04-18T06:34:33.985Z</time></trkpt><trkpt lat="53.342494" lon="-1.7274235"><ele>161.0</ele><time>2026-04-18T06:34:34.986Z</time></trkpt><trkpt lat="53.3425356" lon="-1.7277061"><ele>161.0</ele><time>2026-04-18T06:34:35.988Z</time></trkpt><trkpt lat="53.3425761" lon="-1.7279804"><ele>161.0</ele><time>2026-04-18T06:34:36.977Z</time></trkpt><trkpt lat="53.3426175" lon="-1.7282281"><ele>161.25</ele><time>2026-04-18T06:34:37.986Z</time></trkpt><trkpt lat="53.3426575" lon="-1.7284462"><ele>161.5</ele><time>2026-04-18T06:34:38.983Z</time></trkpt><trkpt lat="53.342699" lon="-1.7286448"><ele>161.75</ele><time>2026-04-18T06:34:39.983Z</time></trkpt><trkpt lat="53.342759" lon="-1.7288291"><ele>162.0</ele><time>2026-04-18T06:34:40.984Z</time></trkpt><trkpt lat="53.3428436" lon="-1.7289991"><ele>162.0</ele><time>2026-04-18T06:34:41.985Z</time></trkpt><trkpt lat="53.3429513" lon="-1.7291491"><ele>162.0</ele><time>2026-04-18T06:34:42.986Z</time></trkpt><trkpt lat="53.3430714" lon="-1.7293024"><ele>162.0</ele><time>2026-04-18T06:34:43.981Z</time></trkpt><trkpt lat="53.3431975" lon="-1.7294724"><ele>162.0</ele><time>2026-04-18T06:34:44.984Z</time></trkpt><trkpt lat="53.3433206" lon="-1.7296557"><ele>162.0</ele><time>2026-04-18T06:34:45.985Z</time></trkpt><trkpt lat="53.3434377" lon="-1.7298546"><ele>162.0</ele><time>2026-04-18T06:34:46.984Z</time></trkpt><trkpt lat="53.3435394" lon="-1.7300753"><ele>162.33333333333334</ele><time>2026-04-18T06:34:47.985Z</time></trkpt><trkpt lat="53.3436218" lon="-1.7303172"><ele>162.66666666666669</ele><time>2026-04-18T06:34:48.986Z</time></trkpt><trkpt lat="53.3436886" lon="-1.7305811"><ele>163.0</ele><time>2026-04-18T06:34:49.985Z</time></trkpt><trkpt lat="53.3437518" lon="-1.7308388"><ele>162.66666666666669</ele><time>2026-04-18T06:34:50.986Z</time></trkpt><trkpt lat="53.3438229" lon="-1.7310832"><ele>162.33333333333334</ele><time>2026-04-18T06:34:51.986Z</time></trkpt><trkpt lat="53.343902" lon="-1.7313162"><ele>162.0</ele><time>2026-04-18T06:34:52.986Z</time></trkpt><trkpt lat="53.3439897" lon="-1.731541"><ele>162.0</ele><time>2026-04-18T06:34:53.985Z</time></trkpt><trkpt lat="53.3440804" lon="-1.7317613"><ele>162.0</ele><time>2026-04-18T06:34:54.984Z</time></trkpt><trkpt lat="53.3441717" lon="-1.7319785"><ele>162.0</ele><time>2026-04-18T06:34:55.985Z</time></trkpt><trkpt lat="53.3442699" lon="-1.7321886"><ele>162.33333333333334</ele><time>2026-04-18T06:34:56.986Z</time></trkpt><trkpt lat="53.3443823" lon="-1.7323729"><ele>162.66666666666669</ele><time>2026-04-18T06:34:57.987Z</time></trkpt><trkpt lat="53.3445033" lon="-1.7325274"><ele>163.0</ele><time>2026-04-18T06:34:58.985Z</time></trkpt><trkpt lat="53.3446285" lon="-1.7326608"><ele>162.75</ele><time>2026-04-18T06:34:59.985Z</time></trkpt><trkpt lat="53.3447514" lon="-1.7327835"><ele>162.5</ele><time>2026-04-18T06:35:00.984Z</time></trkpt><trkpt lat="53.3448774" lon="-1.7329036"><ele>162.25</ele><time>2026-04-18T06:35:01.985Z</time></trkpt><trkpt lat="53.3450037" lon="-1.7330276"><ele>162.0</ele><time>2026-04-18T06:35:02.985Z</time></trkpt><trkpt lat="53.3451275" lon="-1.7331642"><ele>162.0</ele><time>2026-04-18T06:35:03.983Z</time></trkpt><trkpt lat="53.3452448" lon="-1.7333235"><ele>162.0</ele><time>2026-04-18T06:35:04.983Z</time></trkpt><trkpt lat="53.3453499" lon="-1.7335121"><ele>162.0</ele><time>2026-04-18T06:35:05.984Z</time></trkpt><trkpt lat="53.3454438" lon="-1.7337359"><ele>161.33333333333334</ele><time>2026-04-18T06:35:06.987Z</time></trkpt><trkpt lat="53.3455293" lon="-1.7339866"><ele>160.66666666666669</ele><time>2026-04-18T06:35:07.986Z</time></trkpt><trkpt lat="53.3456073" lon="-1.7342501"><ele>160.0</ele><time>2026-04-18T06:35:08.983Z</time></trkpt><trkpt lat="53.3456794" lon="-1.7345232"><ele>161.0</ele><time>2026-04-18T06:35:09.984Z</time></trkpt><trkpt lat="53.3457515" lon="-1.7348014"><ele>162.0</ele><time>2026-04-18T06:35:10.986Z</time></trkpt><trkpt lat="53.3458213" lon="-1.7350874"><ele>163.0</ele><time>2026-04-18T06:35:11.985Z</time></trkpt><trkpt lat="53.34589" lon="-1.7353827"><ele>163.0</ele><time>2026-04-18T06:35:12.985Z</time></trkpt><trkpt lat="53.3459567" lon="-1.7356838"><ele>163.0</ele><time>2026-04-18T06:35:13.982Z</time></trkpt><trkpt lat="53.3460211" lon="-1.7359737"><ele>163.0</ele><time>2026-04-18T06:35:14.985Z</time></trkpt><trkpt lat="53.3460866" lon="-1.7362377"><ele>163.0</ele><time>2026-04-18T06:35:15.987Z</time></trkpt><trkpt lat="53.3461488" lon="-1.7364781"><ele>163.0</ele><time>2026-04-18T06:35:16.985Z</time></trkpt><trkpt lat="53.3462044" lon="-1.7366948"><ele>163.0</ele><time>2026-04-18T06:35:17.985Z</time></trkpt><trkpt lat="53.346257" lon="-1.7368898"><ele>163.0</ele><time>2026-04-18T06:35:18.984Z</time></trkpt><trkpt lat="53.3463093" lon="-1.7370782"><ele>163.0</ele><time>2026-04-18T06:35:19.986Z</time></trkpt><trkpt lat="53.3463702" lon="-1.7372563"><ele>163.0</ele><time>2026-04-18T06:35:20.985Z</time></trkpt><trkpt lat="53.3464407" lon="-1.7374336"><ele>163.0</ele><time>2026-04-18T06:35:21.986Z</time></trkpt><trkpt lat="53.3465187" lon="-1.7376178"><ele>163.0</ele><time>2026-04-18T06:35:22.986Z</time></trkpt><trkpt lat="53.3466036" lon="-1.7378049"><ele>163.5</ele><time>2026-04-18T06:35:23.985Z</time></trkpt><trkpt lat="53.3466891" lon="-1.7379978"><ele>164.0</ele><time>2026-04-18T06:35:24.985Z</time></trkpt><trkpt lat="53.3467749" lon="-1.7381989"><ele>164.5</ele><time>2026-04-18T06:35:25.985Z</time></trkpt><trkpt lat="53.3468598" lon="-1.7383997"><ele>165.0</ele><time>2026-04-18T06:35:26.984Z</time></trkpt><trkpt lat="53.3469465" lon="-1.738599"><ele>165.75</ele><time>2026-04-18T06:35:27.985Z</time></trkpt><trkpt lat="53.3470284" lon="-1.7387984"><ele>166.5</ele><time>2026-04-18T06:35:28.987Z</time></trkpt><trkpt lat="53.3471005" lon="-1.7390089"><ele>167.25</ele><time>2026-04-18T06:35:29.986Z</time></trkpt><trkpt lat="53.3471627" lon="-1.7392345"><ele>168.0</ele><time>2026-04-18T06:35:30.983Z</time></trkpt><trkpt lat="53.347217" lon="-1.7394718"><ele>168.66666666666666</ele><time>2026-04-18T06:35:31.985Z</time></trkpt><trkpt lat="53.3472671" lon="-1.7397151"><ele>169.33333333333331</ele><time>2026-04-18T06:35:32.984Z</time></trkpt><trkpt lat="53.347314" lon="-1.7399655"><ele>170.0</ele><time>2026-04-18T06:35:33.985Z</time></trkpt><trkpt lat="53.3473591" lon="-1.740211"><ele>170.0</ele><time>2026-04-18T06:35:34.984Z</time></trkpt><trkpt lat="53.3474011" lon="-1.7404391"><ele>170.0</ele><time>2026-04-18T06:35:35.984Z</time></trkpt><trkpt lat="53.3474439" lon="-1.7406551"><ele>170.0</ele><time>2026-04-18T06:35:36.982Z</time></trkpt><trkpt lat="53.347492" lon="-1.7408576"><ele>170.0</ele><time>2026-04-18T06:35:37.982Z</time></trkpt><trkpt lat="53.3475393" lon="-1.7410402"><ele>170.0</ele><time>2026-04-18T06:35:38.981Z</time></trkpt><trkpt lat="53.3475827" lon="-1.7412069"><ele>170.0</ele><time>2026-04-18T06:35:39.985Z</time></trkpt><trkpt lat="53.3476154" lon="-1.7413546"><ele>170.0</ele><time>2026-04-18T06:35:40.984Z</time></trkpt><trkpt lat="53.3476326" lon="-1.7414821"><ele>170.0</ele><time>2026-04-18T06:35:41.983Z</time></trkpt><trkpt lat="53.3476338" lon="-1.741588"><ele>170.0</ele><time>2026-04-18T06:35:42.985Z</time></trkpt><trkpt lat="53.3475663" lon="-1.7416387"><ele>170.0</ele><time>2026-04-18T06:36:24.985Z</time></trkpt><trkpt lat="53.3474796" lon="-1.741789"><ele>170.0</ele><time>2026-04-18T06:36:26.983Z</time></trkpt><trkpt lat="53.347425" lon="-1.741894"><ele>170.0</ele><time>2026-04-18T06:36:27.982Z</time></trkpt><trkpt lat="53.3473791" lon="-1.7419956"><ele>170.0</ele><time>2026-04-18T06:36:28.982Z</time></trkpt><trkpt lat="53.3473493" lon="-1.7421024"><ele>170.0</ele><time>2026-04-18T06:36:29.984Z</time></trkpt><trkpt lat="53.3473322" lon="-1.7422262"><ele>170.0</ele><time>2026-04-18T06:36:30.985Z</time></trkpt><trkpt lat="53.3473262" lon="-1.7423784"><ele>170.0</ele><time>2026-04-18T06:36:31.986Z</time></trkpt><trkpt lat="53.3473227" lon="-1.7425398"><ele>170.0</ele><time>2026-04-18T06:36:32.989Z</time></trkpt><trkpt lat="53.3473184" lon="-1.7426907"><ele>170.0</ele><time>2026-04-18T06:36:33.99Z</time></trkpt><trkpt lat="53.3473063" lon="-1.7428365"><ele>170.0</ele><time>2026-04-18T06:36:34.989Z</time></trkpt><trkpt lat="53.3472884" lon="-1.742958"><ele>170.0</ele><time>2026-04-18T06:36:35.989Z</time></trkpt><trkpt lat="53.3472677" lon="-1.7431191"><ele>170.0</ele><time>2026-04-18T06:36:37.984Z</time></trkpt><trkpt lat="53.3471922" lon="-1.7432111"><ele>170.0</ele><time>2026-04-18T06:36:40.98Z</time></trkpt><trkpt lat="53.347117" lon="-1.7432425"><ele>169.25</ele><time>2026-04-18T06:36:41.982Z</time></trkpt><trkpt lat="53.3470167" lon="-1.7432757"><ele>168.5</ele><time>2026-04-18T06:36:42.982Z</time></trkpt><trkpt lat="53.3468975" lon="-1.7433104"><ele>167.75</ele><time>2026-04-18T06:36:43.982Z</time></trkpt><trkpt lat="53.346771" lon="-1.7433581"><ele>167.0</ele><time>2026-04-18T06:36:44.983Z</time></trkpt><trkpt lat="53.3466439" lon="-1.7434164"><ele>167.0</ele><time>2026-04-18T06:36:45.985Z</time></trkpt><trkpt lat="53.3465234" lon="-1.7434858"><ele>167.0</ele><time>2026-04-18T06:36:46.986Z</time></trkpt><trkpt lat="53.346409" lon="-1.7435621"><ele>167.0</ele><time>2026-04-18T06:36:47.984Z</time></trkpt><trkpt lat="53.3462986" lon="-1.7436522"><ele>167.0</ele><time>2026-04-18T06:36:48.985Z</time></trkpt><trkpt lat="53.3461916" lon="-1.743748"><ele>169.5</ele><time>2026-04-18T06:36:49.985Z</time></trkpt><trkpt lat="53.3460898" lon="-1.7438469"><ele>172.0</ele><time>2026-04-18T06:36:50.983Z</time></trkpt><trkpt lat="53.3459874" lon="-1.7439504"><ele>174.5</ele><time>2026-04-18T06:36:51.986Z</time></trkpt><trkpt lat="53.345878" lon="-1.7440619"><ele>177.0</ele><time>2026-04-18T06:36:52.983Z</time></trkpt><trkpt lat="53.345759" lon="-1.7441773"><ele>177.0</ele><time>2026-04-18T06:36:53.978Z</time></trkpt><trkpt lat="53.3456261" lon="-1.7442887"><ele>177.0</ele><time>2026-04-18T06:36:54.987Z</time></trkpt><trkpt lat="53.3454881" lon="-1.7444133"><ele>177.0</ele><time>2026-04-18T06:36:55.984Z</time></trkpt><trkpt lat="53.3453608" lon="-1.7445603"><ele>182.66666666666669</ele><time>2026-04-18T06:36:56.984Z</time></trkpt><trkpt lat="53.3452565" lon="-1.7447457"><ele>188.33333333333334</ele><time>2026-04-18T06:36:57.984Z</time></trkpt><trkpt lat="53.3451812" lon="-1.7449785"><ele>194.0</ele><time>2026-04-18T06:36:58.979Z</time></trkpt><trkpt lat="53.3451291" lon="-1.7452328"><ele>194.33333333333334</ele><time>2026-04-18T06:36:59.985Z</time></trkpt><trkpt lat="53.3450896" lon="-1.7454889"><ele>194.66666666666669</ele><time>2026-04-18T06:37:00.985Z</time></trkpt><trkpt lat="53.3450535" lon="-1.7457374"><ele>195.0</ele><time>2026-04-18T06:37:01.986Z</time></trkpt><trkpt lat="53.3450138" lon="-1.7459821"><ele>193.66666666666666</ele><time>2026-04-18T06:37:02.986Z</time></trkpt><trkpt lat="53.3449667" lon="-1.7462218"><ele>192.33333333333331</ele><time>2026-04-18T06:37:03.989Z</time></trkpt><trkpt lat="53.3449195" lon="-1.7464727"><ele>191.0</ele><time>2026-04-18T06:37:04.988Z</time></trkpt><trkpt lat="53.3448787" lon="-1.7467408"><ele>190.33333333333331</ele><time>2026-04-18T06:37:05.988Z</time></trkpt><trkpt lat="53.3448425" lon="-1.7470238"><ele>189.66666666666666</ele><time>2026-04-18T06:37:06.988Z</time></trkpt><trkpt lat="53.3448071" lon="-1.7473197"><ele>189.0</ele><time>2026-04-18T06:37:07.988Z</time></trkpt><trkpt lat="53.344767" lon="-1.7476198"><ele>188.0</ele><time>2026-04-18T06:37:08.985Z</time></trkpt><trkpt lat="53.344722" lon="-1.7479257"><ele>187.0</ele><time>2026-04-18T06:37:09.985Z</time></trkpt><trkpt lat="53.3446683" lon="-1.7482339"><ele>186.0</ele><time>2026-04-18T06:37:10.983Z</time></trkpt><trkpt lat="53.3445971" lon="-1.7485345"><ele>189.66666666666669</ele><time>2026-04-18T06:37:11.984Z</time></trkpt><trkpt lat="53.3445075" lon="-1.7488231"><ele>193.33333333333334</ele><time>2026-04-18T06:37:12.983Z</time></trkpt><trkpt lat="53.3444016" lon="-1.7491018"><ele>197.0</ele><time>2026-04-18T06:37:13.983Z</time></trkpt><trkpt lat="53.3443038" lon="-1.7493808"><ele>197.0</ele><time>2026-04-18T06:37:14.982Z</time></trkpt><trkpt lat="53.3442218" lon="-1.7496651"><ele>197.0</ele><time>2026-04-18T06:37:15.984Z</time></trkpt><trkpt lat="53.3441607" lon="-1.7499478"><ele>197.0</ele><time>2026-04-18T06:37:16.985Z</time></trkpt><trkpt lat="53.3441209" lon="-1.7502157"><ele>195.5</ele><time>2026-04-18T06:37:17.984Z</time></trkpt><trkpt lat="53.3440891" lon="-1.7504618"><ele>194.0</ele><time>2026-04-18T06:37:18.987Z</time></trkpt><trkpt lat="53.344049" lon="-1.750694"><ele>192.5</ele><time>2026-04-18T06:37:19.985Z</time></trkpt><trkpt lat="53.3439922" lon="-1.7509207"><ele>191.0</ele><time>2026-04-18T06:37:20.983Z</time></trkpt><trkpt lat="53.3439118" lon="-1.7511352"><ele>193.0</ele><time>2026-04-18T06:37:21.986Z</time></trkpt><trkpt lat="53.3438078" lon="-1.7513336"><ele>195.0</ele><time>2026-04-18T06:37:22.986Z</time></trkpt><trkpt lat="53.343683" lon="-1.7515101"><ele>197.0</ele><time>2026-04-18T06:37:23.984Z</time></trkpt><trkpt lat="53.3435381" lon="-1.7516619"><ele>197.0</ele><time>2026-04-18T06:37:24.985Z</time></trkpt><trkpt lat="53.3433822" lon="-1.751797"><ele>197.0</ele><time>2026-04-18T06:37:25.983Z</time></trkpt><trkpt lat="53.343224" lon="-1.7519269"><ele>197.0</ele><time>2026-04-18T06:37:26.986Z</time></trkpt><trkpt lat="53.3430608" lon="-1.7520487"><ele>195.33333333333334</ele><time>2026-04-18T06:37:27.984Z</time></trkpt><trkpt lat="53.3428874" lon="-1.7521661"><ele>193.66666666666669</ele><time>2026-04-18T06:37:28.983Z</time></trkpt><trkpt lat="53.3427089" lon="-1.7522886"><ele>192.0</ele><time>2026-04-18T06:37:29.986Z</time></trkpt><trkpt lat="53.3425341" lon="-1.7524372"><ele>192.0</ele><time>2026-04-18T06:37:30.984Z</time></trkpt><trkpt lat="53.342369" lon="-1.7526152"><ele>192.0</ele><time>2026-04-18T06:37:31.986Z</time></trkpt><trkpt lat="53.3422197" lon="-1.7528111"><ele>192.0</ele><time>2026-04-18T06:37:32.987Z</time></trkpt><trkpt lat="53.3420913" lon="-1.7530026"><ele>190.75</ele><time>2026-04-18T06:37:33.986Z</time></trkpt><trkpt lat="53.3419806" lon="-1.7531779"><ele>189.5</ele><time>2026-04-18T06:37:34.983Z</time></trkpt><trkpt lat="53.3418723" lon="-1.7533423"><ele>188.25</ele><time>2026-04-18T06:37:35.987Z</time></trkpt><trkpt lat="53.3417661" lon="-1.7535012"><ele>187.0</ele><time>2026-04-18T06:37:36.985Z</time></trkpt><trkpt lat="53.3416713" lon="-1.7536684"><ele>186.75</ele><time>2026-04-18T06:37:37.985Z</time></trkpt><trkpt lat="53.3416001" lon="-1.7538439"><ele>186.5</ele><time>2026-04-18T06:37:38.984Z</time></trkpt><trkpt lat="53.3415541" lon="-1.7540291"><ele>186.25</ele><time>2026-04-18T06:37:39.987Z</time></trkpt><trkpt lat="53.3415188" lon="-1.7542124"><ele>186.0</ele><time>2026-04-18T06:37:40.984Z</time></trkpt><trkpt lat="53.3414743" lon="-1.7543775"><ele>185.5</ele><time>2026-04-18T06:37:41.983Z</time></trkpt><trkpt lat="53.3414035" lon="-1.7545265"><ele>185.0</ele><time>2026-04-18T06:37:42.984Z</time></trkpt><trkpt lat="53.3413115" lon="-1.7546699"><ele>184.5</ele><time>2026-04-18T06:37:43.986Z</time></trkpt><trkpt lat="53.3412158" lon="-1.754825"><ele>184.0</ele><time>2026-04-18T06:37:44.985Z</time></trkpt><trkpt lat="53.3411225" lon="-1.7549606"><ele>185.25</ele><time>2026-04-18T06:37:45.985Z</time></trkpt><trkpt lat="53.3410373" lon="-1.7551029"><ele>186.5</ele><time>2026-04-18T06:37:46.982Z</time></trkpt><trkpt lat="53.3409554" lon="-1.7552415"><ele>187.75</ele><time>2026-04-18T06:37:47.985Z</time></trkpt><trkpt lat="53.3408757" lon="-1.7553814"><ele>189.0</ele><time>2026-04-18T06:37:48.984Z</time></trkpt><trkpt lat="53.3408" lon="-1.7555283"><ele>189.0</ele><time>2026-04-18T06:37:49.984Z</time></trkpt><trkpt lat="53.3407257" lon="-1.755667"><ele>189.0</ele><time>2026-04-18T06:37:50.986Z</time></trkpt><trkpt lat="53.3406513" lon="-1.755788"><ele>189.0</ele><time>2026-04-18T06:37:51.989Z</time></trkpt><trkpt lat="53.3405741" lon="-1.7558861"><ele>189.0</ele><time>2026-04-18T06:37:52.987Z</time></trkpt><trkpt lat="53.3404965" lon="-1.7559688"><ele>189.0</ele><time>2026-04-18T06:37:53.987Z</time></trkpt><trkpt lat="53.3404257" lon="-1.7560393"><ele>190.0</ele><time>2026-04-18T06:37:54.986Z</time></trkpt><trkpt lat="53.3403572" lon="-1.7561099"><ele>191.0</ele><time>2026-04-18T06:37:55.985Z</time></trkpt><trkpt lat="53.340284" lon="-1.7561938"><ele>192.0</ele><time>2026-04-18T06:37:56.984Z</time></trkpt><trkpt lat="53.3402139" lon="-1.7562954"><ele>193.0</ele><time>2026-04-18T06:37:57.983Z</time></trkpt><trkpt lat="53.3401558" lon="-1.7564154"><ele>194.0</ele><time>2026-04-18T06:37:58.982Z</time></trkpt><trkpt lat="53.3401065" lon="-1.7565584"><ele>194.0</ele><time>2026-04-18T06:37:59.979Z</time></trkpt><trkpt lat="53.3400618" lon="-1.7567167"><ele>194.0</ele><time>2026-04-18T06:38:00.987Z</time></trkpt><trkpt lat="53.3400122" lon="-1.7568828"><ele>194.0</ele><time>2026-04-18T06:38:01.987Z</time></trkpt><trkpt lat="53.3399485" lon="-1.7570427"><ele>194.0</ele><time>2026-04-18T06:38:02.987Z</time></trkpt><trkpt lat="53.3398732" lon="-1.7571981"><ele>194.0</ele><time>2026-04-18T06:38:03.985Z</time></trkpt><trkpt lat="53.3397962" lon="-1.7573385"><ele>194.0</ele><time>2026-04-18T06:38:04.985Z</time></trkpt><trkpt lat="53.3397224" lon="-1.7574628"><ele>194.0</ele><time>2026-04-18T06:38:05.985Z</time></trkpt><trkpt lat="53.3396553" lon="-1.7575823"><ele>194.0</ele><time>2026-04-18T06:38:06.984Z</time></trkpt><trkpt lat="53.3395897" lon="-1.75771"><ele>194.0</ele><time>2026-04-18T06:38:07.986Z</time></trkpt><trkpt lat="53.3395247" lon="-1.7578496"><ele>195.6</ele><time>2026-04-18T06:38:08.985Z</time></trkpt><trkpt lat="53.3394613" lon="-1.7579826"><ele>197.2</ele><time>2026-04-18T06:38:09.984Z</time></trkpt><trkpt lat="53.3393986" lon="-1.7580951"><ele>198.79999999999998</ele><time>2026-04-18T06:38:10.982Z</time></trkpt><trkpt lat="53.3393386" lon="-1.758201"><ele>200.39999999999998</ele><time>2026-04-18T06:38:11.983Z</time></trkpt><trkpt lat="53.339278" lon="-1.7583182"><ele>202.0</ele><time>2026-04-18T06:38:12.984Z</time></trkpt><trkpt lat="53.3392243" lon="-1.7584541"><ele>202.6</ele><time>2026-04-18T06:38:13.982Z</time></trkpt><trkpt lat="53.3391813" lon="-1.7586059"><ele>203.2</ele><time>2026-04-18T06:38:14.984Z</time></trkpt><trkpt lat="53.3391479" lon="-1.7587674"><ele>203.8</ele><time>2026-04-18T06:38:15.984Z</time></trkpt><trkpt lat="53.3391193" lon="-1.7589371"><ele>204.4</ele><time>2026-04-18T06:38:16.987Z</time></trkpt><trkpt lat="53.3390813" lon="-1.7590757"><ele>205.0</ele><time>2026-04-18T06:38:17.985Z</time></trkpt><trkpt lat="53.3390309" lon="-1.7591871"><ele>205.0</ele><time>2026-04-18T06:38:18.983Z</time></trkpt><trkpt lat="53.3389632" lon="-1.7592769"><ele>205.0</ele><time>2026-04-18T06:38:19.988Z</time></trkpt><trkpt lat="53.3388832" lon="-1.7593668"><ele>205.0</ele><time>2026-04-18T06:38:20.985Z</time></trkpt><trkpt lat="53.3387963" lon="-1.7594619"><ele>205.0</ele><time>2026-04-18T06:38:21.985Z</time></trkpt><trkpt lat="53.3387132" lon="-1.7595544"><ele>205.0</ele><time>2026-04-18T06:38:22.984Z</time></trkpt><trkpt lat="53.3386437" lon="-1.7596399"><ele>209.2</ele><time>2026-04-18T06:38:23.982Z</time></trkpt><trkpt lat="53.3385868" lon="-1.7597173"><ele>213.4</ele><time>2026-04-18T06:38:24.982Z</time></trkpt><trkpt lat="53.338507" lon="-1.7598611"><ele>217.60000000000002</ele><time>2026-04-18T06:38:26.984Z</time></trkpt><trkpt lat="53.3384155" lon="-1.7599923"><ele>221.8</ele><time>2026-04-18T06:38:28.985Z</time></trkpt><trkpt lat="53.3383713" lon="-1.7600855"><ele>226.0</ele><time>2026-04-18T06:38:29.984Z</time></trkpt><trkpt lat="53.338342" lon="-1.7602113"><ele>227.16666666666666</ele><time>2026-04-18T06:38:30.984Z</time></trkpt><trkpt lat="53.3383281" lon="-1.7603486"><ele>228.33333333333331</ele><time>2026-04-18T06:38:31.986Z</time></trkpt><trkpt lat="53.3383199" lon="-1.7604923"><ele>229.5</ele><time>2026-04-18T06:38:32.988Z</time></trkpt><trkpt lat="53.3383039" lon="-1.7606226"><ele>230.66666666666669</ele><time>2026-04-18T06:38:33.99Z</time></trkpt><trkpt lat="53.3382772" lon="-1.7607469"><ele>231.83333333333334</ele><time>2026-04-18T06:38:34.989Z</time></trkpt><trkpt lat="53.3382543" lon="-1.7608778"><ele>233.0</ele><time>2026-04-18T06:38:35.991Z</time></trkpt><trkpt lat="53.3382409" lon="-1.7610217"><ele>234.66666666666669</ele><time>2026-04-18T06:38:36.99Z</time></trkpt><trkpt lat="53.3382296" lon="-1.7611727"><ele>236.33333333333334</ele><time>2026-04-18T06:38:37.99Z</time></trkpt><trkpt lat="53.3382143" lon="-1.7613225"><ele>238.0</ele><time>2026-04-18T06:38:38.985Z</time></trkpt><trkpt lat="53.3381903" lon="-1.7614649"><ele>239.66666666666669</ele><time>2026-04-18T06:38:39.989Z</time></trkpt><trkpt lat="53.3381535" lon="-1.7615969"><ele>241.33333333333334</ele><time>2026-04-18T06:38:40.98Z</time></trkpt><trkpt lat="53.3381072" lon="-1.7617155"><ele>243.0</ele><time>2026-04-18T06:38:41.985Z</time></trkpt><trkpt lat="53.3380579" lon="-1.7618213"><ele>244.66666666666666</ele><time>2026-04-18T06:38:42.984Z</time></trkpt><trkpt lat="53.3380043" lon="-1.7619179"><ele>246.33333333333331</ele><time>2026-04-18T06:38:43.985Z</time></trkpt><trkpt lat="53.3379471" lon="-1.7619994"><ele>248.0</ele><time>2026-04-18T06:38:44.984Z</time></trkpt><trkpt lat="53.337892" lon="-1.7620717"><ele>249.66666666666666</ele><time>2026-04-18T06:38:45.978Z</time></trkpt><trkpt lat="53.3378415" lon="-1.7621458"><ele>251.33333333333331</ele><time>2026-04-18T06:38:46.986Z</time></trkpt><trkpt lat="53.3377988" lon="-1.7622275"><ele>253.0</ele><time>2026-04-18T06:38:47.978Z</time></trkpt><trkpt lat="53.3377236" lon="-1.762387"><ele>252.99999999999997</ele><time>2026-04-18T06:38:49.973Z</time></trkpt><trkpt lat="53.3376797" lon="-1.7624654"><ele>253.0</ele><time>2026-04-18T06:38:50.987Z</time></trkpt><trkpt lat="53.3376265" lon="-1.762536"><ele>253.0</ele><time>2026-04-18T06:38:51.982Z</time></trkpt><trkpt lat="53.3375694" lon="-1.7625982"><ele>253.0</ele><time>2026-04-18T06:38:52.982Z</time></trkpt><trkpt lat="53.3374994" lon="-1.7626586"><ele>252.99999999999997</ele><time>2026-04-18T06:38:54.981Z</time></trkpt><trkpt lat="53.3375031" lon="-1.7628034"><ele>253.0</ele><time>2026-04-18T06:39:08.986Z</time></trkpt><trkpt lat="53.3374646" lon="-1.7629767"><ele>254.49999999999997</ele><time>2026-04-18T06:39:10.981Z</time></trkpt><trkpt lat="53.3374007" lon="-1.7631129"><ele>256.0</ele><time>2026-04-18T06:39:12.985Z</time></trkpt><trkpt lat="53.337358" lon="-1.7632607"><ele>257.5</ele><time>2026-04-18T06:39:14.98Z</time></trkpt><trkpt lat="53.3373411" lon="-1.7633747"><ele>259.0</ele><time>2026-04-18T06:39:16.981Z</time></trkpt><trkpt lat="53.3373006" lon="-1.7634805"><ele>260.5</ele><time>2026-04-18T06:39:19.981Z</time></trkpt><trkpt lat="53.3372608" lon="-1.7636091"><ele>262.0</ele><time>2026-04-18T06:39:21.981Z</time></trkpt><trkpt lat="53.3372567" lon="-1.7637541"><ele>265.0</ele><time>2026-04-18T06:39:23.981Z</time></trkpt><trkpt lat="53.3372784" lon="-1.7638748"><ele>268.0</ele><time>2026-04-18T06:39:25.986Z</time></trkpt><trkpt lat="53.3372034" lon="-1.7639334"><ele>271.0</ele><time>2026-04-18T06:39:51.986Z</time></trkpt><trkpt lat="53.3370024" lon="-1.7644138"><ele>272.5</ele><time>2026-04-18T06:56:14.992Z</time></trkpt><trkpt lat="53.3369388" lon="-1.7644939"><ele>274.0</ele><time>2026-04-18T06:56:21.991Z</time></trkpt><trkpt lat="53.33689" lon="-1.7646109"><ele>275.5</ele><time>2026-04-18T06:56:23.993Z</time></trkpt><trkpt lat="53.3368808" lon="-1.7647616"><ele>277.0</ele><time>2026-04-18T06:56:25.994Z</time></trkpt><trkpt lat="53.336877" lon="-1.7649349"><ele>278.5</ele><time>2026-04-18T06:56:27.997Z</time></trkpt><trkpt lat="53.3368577" lon="-1.7650553"><ele>280.0</ele><time>2026-04-18T06:56:29.985Z</time></trkpt><trkpt lat="53.3367752" lon="-1.7650992"><ele>280.0</ele><time>2026-04-18T06:56:44.99Z</time></trkpt><trkpt lat="53.3366936" lon="-1.7651814"><ele>280.0</ele><time>2026-04-18T06:56:46.99Z</time></trkpt><trkpt lat="53.3366254" lon="-1.7653687"><ele>280.0</ele><time>2026-04-18T06:56:48.987Z</time></trkpt><trkpt lat="53.3365818" lon="-1.7654878"><ele>280.0</ele><time>2026-04-18T06:56:49.989Z</time></trkpt><trkpt lat="53.3365215" lon="-1.7656085"><ele>280.0</ele><time>2026-04-18T06:56:50.989Z</time></trkpt><trkpt lat="53.3364563" lon="-1.7657227"><ele>281.3333333333333</ele><time>2026-04-18T06:56:51.989Z</time></trkpt><trkpt lat="53.3363905" lon="-1.7658273"><ele>282.66666666666663</ele><time>2026-04-18T06:56:52.989Z</time></trkpt><trkpt lat="53.3363279" lon="-1.7659183"><ele>284.0</ele><time>2026-04-18T06:56:53.985Z</time></trkpt><trkpt lat="53.3362696" lon="-1.7659996"><ele>285.3333333333333</ele><time>2026-04-18T06:56:54.986Z</time></trkpt><trkpt lat="53.3362173" lon="-1.7660775"><ele>286.6666666666667</ele><time>2026-04-18T06:56:55.985Z</time></trkpt><trkpt lat="53.3361527" lon="-1.7661404"><ele>288.0</ele><time>2026-04-18T06:56:56.986Z</time></trkpt><trkpt lat="53.3360731" lon="-1.7661856"><ele>289.0</ele><time>2026-04-18T06:56:57.985Z</time></trkpt><trkpt lat="53.3359912" lon="-1.7662018"><ele>290.0</ele><time>2026-04-18T06:56:58.986Z</time></trkpt><trkpt lat="53.3359097" lon="-1.7661818"><ele>291.0</ele><time>2026-04-18T06:56:59.989Z</time></trkpt><trkpt lat="53.3358313" lon="-1.7661338"><ele>292.0</ele><time>2026-04-18T06:57:00.985Z</time></trkpt><trkpt lat="53.3357592" lon="-1.7660815"><ele>293.0</ele><time>2026-04-18T06:57:01.986Z</time></trkpt><trkpt lat="53.33569" lon="-1.766042"><ele>294.0</ele><time>2026-04-18T06:57:02.986Z</time></trkpt><trkpt lat="53.3356229" lon="-1.7660204"><ele>296.75</ele><time>2026-04-18T06:57:03.987Z</time></trkpt><trkpt lat="53.3355185" lon="-1.7660072"><ele>299.5</ele><time>2026-04-18T06:57:05.99Z</time></trkpt><trkpt lat="53.3354178" lon="-1.7660158"><ele>302.25</ele><time>2026-04-18T06:57:07.991Z</time></trkpt><trkpt lat="53.3353017" lon="-1.7660736"><ele>305.0</ele><time>2026-04-18T06:57:09.987Z</time></trkpt><trkpt lat="53.3352054" lon="-1.7662281"><ele>305.4</ele><time>2026-04-18T06:57:11.987Z</time></trkpt><trkpt lat="53.3351487" lon="-1.7663801"><ele>305.8</ele><time>2026-04-18T06:57:13.989Z</time></trkpt><trkpt lat="53.3350991" lon="-1.7664931"><ele>306.2</ele><time>2026-04-18T06:57:15.995Z</time></trkpt><trkpt lat="53.335039" lon="-1.7665778"><ele>306.6</ele><time>2026-04-18T06:57:17.993Z</time></trkpt><trkpt lat="53.3349608" lon="-1.7666837"><ele>307.0</ele><time>2026-04-18T06:57:19.992Z</time></trkpt><trkpt lat="53.3348533" lon="-1.7667929"><ele>307.0</ele><time>2026-04-18T06:57:21.992Z</time></trkpt><trkpt lat="53.334792" lon="-1.7668439"><ele>307.0</ele><time>2026-04-18T06:57:22.996Z</time></trkpt><trkpt lat="53.3347301" lon="-1.7668992"><ele>307.0</ele><time>2026-04-18T06:57:23.992Z</time></trkpt><trkpt lat="53.3346671" lon="-1.7669602"><ele>307.0</ele><time>2026-04-18T06:57:24.99Z</time></trkpt><trkpt lat="53.3346041" lon="-1.7670346"><ele>307.0</ele><time>2026-04-18T06:57:25.99Z</time></trkpt><trkpt lat="53.3345366" lon="-1.7671287"><ele>307.0</ele><time>2026-04-18T06:57:26.991Z</time></trkpt><trkpt lat="53.3344734" lon="-1.7672306"><ele>308.66666666666663</ele><time>2026-04-18T06:57:27.991Z</time></trkpt><trkpt lat="53.3344159" lon="-1.7673275"><ele>310.3333333333333</ele><time>2026-04-18T06:57:28.991Z</time></trkpt><trkpt lat="53.3343688" lon="-1.7674108"><ele>312.0</ele><time>2026-04-18T06:57:29.991Z</time></trkpt><trkpt lat="53.3342998" lon="-1.767526"><ele>313.6666666666667</ele><time>2026-04-18T06:57:31.991Z</time></trkpt><trkpt lat="53.3343139" lon="-1.7676448"><ele>315.33333333333337</ele><time>2026-04-18T06:57:34.992Z</time></trkpt><trkpt lat="53.3343755" lon="-1.7676983"><ele>317.0</ele><time>2026-04-18T06:57:35.992Z</time></trkpt><trkpt lat="53.3344595" lon="-1.7677545"><ele>318.5</ele><time>2026-04-18T06:57:36.992Z</time></trkpt><trkpt lat="53.3345604" lon="-1.767805"><ele>320.0</ele><time>2026-04-18T06:57:37.995Z</time></trkpt><trkpt lat="53.3346702" lon="-1.7678428"><ele>321.5</ele><time>2026-04-18T06:57:38.995Z</time></trkpt><trkpt lat="53.334794" lon="-1.7678634"><ele>323.0</ele><time>2026-04-18T06:57:39.995Z</time></trkpt><trkpt lat="53.3349302" lon="-1.7678741"><ele>323.0</ele><time>2026-04-18T06:57:40.992Z</time></trkpt><trkpt lat="53.3350712" lon="-1.7678803"><ele>323.0</ele><time>2026-04-18T06:57:41.993Z</time></trkpt><trkpt lat="53.3352155" lon="-1.7678846"><ele>323.0</ele><time>2026-04-18T06:57:42.997Z</time></trkpt><trkpt lat="53.3353586" lon="-1.7678898"><ele>323.0</ele><time>2026-04-18T06:57:43.995Z</time></trkpt><trkpt lat="53.3354927" lon="-1.7678901"><ele>322.2</ele><time>2026-04-18T06:57:44.993Z</time></trkpt><trkpt lat="53.3356083" lon="-1.7678892"><ele>321.4</ele><time>2026-04-18T06:57:45.992Z</time></trkpt><trkpt lat="53.335695" lon="-1.7679033"><ele>320.59999999999997</ele><time>2026-04-18T06:57:46.993Z</time></trkpt><trkpt lat="53.3357553" lon="-1.7679495"><ele>319.79999999999995</ele><time>2026-04-18T06:57:47.996Z</time></trkpt><trkpt lat="53.3358021" lon="-1.7681075"><ele>319.0</ele><time>2026-04-18T06:57:49.996Z</time></trkpt><trkpt lat="53.3357815" lon="-1.7682825"><ele>319.0</ele><time>2026-04-18T06:57:51.996Z</time></trkpt><trkpt lat="53.3357432" lon="-1.7684018"><ele>319.0</ele><time>2026-04-18T06:57:52.995Z</time></trkpt><trkpt lat="53.335696" lon="-1.7685339"><ele>319.0</ele><time>2026-04-18T06:57:53.994Z</time></trkpt><trkpt lat="53.3356609" lon="-1.7686868"><ele>319.0</ele><time>2026-04-18T06:57:54.995Z</time></trkpt><trkpt lat="53.335632" lon="-1.7688584"><ele>319.0</ele><time>2026-04-18T06:57:55.994Z</time></trkpt><trkpt lat="53.335603" lon="-1.7690524"><ele>319.75</ele><time>2026-04-18T06:57:56.995Z</time></trkpt><trkpt lat="53.3355823" lon="-1.7692592"><ele>320.5</ele><time>2026-04-18T06:57:57.993Z</time></trkpt><trkpt lat="53.3355611" lon="-1.7694846"><ele>321.25</ele><time>2026-04-18T06:57:58.994Z</time></trkpt><trkpt lat="53.3355407" lon="-1.7697152"><ele>322.0</ele><time>2026-04-18T06:57:59.995Z</time></trkpt><trkpt lat="53.3355192" lon="-1.7699382"><ele>324.0</ele><time>2026-04-18T06:58:00.995Z</time></trkpt><trkpt lat="53.3354993" lon="-1.7701543"><ele>326.0</ele><time>2026-04-18T06:58:01.994Z</time></trkpt><trkpt lat="53.3354869" lon="-1.7703672"><ele>328.0</ele><time>2026-04-18T06:58:02.994Z</time></trkpt><trkpt lat="53.3354826" lon="-1.7705681"><ele>330.0</ele><time>2026-04-18T06:58:03.991Z</time></trkpt><trkpt lat="53.3354636" lon="-1.7707494"><ele>330.8</ele><time>2026-04-18T06:58:04.992Z</time></trkpt><trkpt lat="53.3354172" lon="-1.7709052"><ele>331.6</ele><time>2026-04-18T06:58:05.996Z</time></trkpt><trkpt lat="53.3353422" lon="-1.7710329"><ele>332.4</ele><time>2026-04-18T06:58:06.993Z</time></trkpt><trkpt lat="53.335247" lon="-1.771139"><ele>333.2</ele><time>2026-04-18T06:58:07.993Z</time></trkpt><trkpt lat="53.3351471" lon="-1.7712193"><ele>334.0</ele><time>2026-04-18T06:58:08.993Z</time></trkpt><trkpt lat="53.33506" lon="-1.7712658"><ele>335.0</ele><time>2026-04-18T06:58:09.994Z</time></trkpt><trkpt lat="53.3349966" lon="-1.7712923"><ele>336.0</ele><time>2026-04-18T06:58:10.992Z</time></trkpt><trkpt lat="53.3349206" lon="-1.7713311"><ele>337.0</ele><time>2026-04-18T06:58:12.996Z</time></trkpt><trkpt lat="53.3348421" lon="-1.7714802"><ele>338.0</ele><time>2026-04-18T06:58:14.997Z</time></trkpt><trkpt lat="53.3348094" lon="-1.7716002"><ele>339.0</ele><time>2026-04-18T06:58:15.995Z</time></trkpt><trkpt lat="53.3347742" lon="-1.7717385"><ele>340.0</ele><time>2026-04-18T06:58:16.995Z</time></trkpt><trkpt lat="53.3347362" lon="-1.7718852"><ele>340.8</ele><time>2026-04-18T06:58:17.995Z</time></trkpt><trkpt lat="53.3346958" lon="-1.7720401"><ele>341.6</ele><time>2026-04-18T06:58:18.995Z</time></trkpt><trkpt lat="53.3346523" lon="-1.7722012"><ele>342.4</ele><time>2026-04-18T06:58:19.995Z</time></trkpt><trkpt lat="53.3346077" lon="-1.7723678"><ele>343.2</ele><time>2026-04-18T06:58:20.997Z</time></trkpt><trkpt lat="53.3345637" lon="-1.7725406"><ele>344.0</ele><time>2026-04-18T06:58:21.997Z</time></trkpt><trkpt lat="53.3345223" lon="-1.7727171"><ele>345.0</ele><time>2026-04-18T06:58:22.995Z</time></trkpt><trkpt lat="53.3344877" lon="-1.7728915"><ele>346.0</ele><time>2026-04-18T06:58:23.997Z</time></trkpt><trkpt lat="53.3344585" lon="-1.7730516"><ele>347.0</ele><time>2026-04-18T06:58:24.994Z</time></trkpt><trkpt lat="53.3344323" lon="-1.7731958"><ele>348.0</ele><time>2026-04-18T06:58:25.995Z</time></trkpt><trkpt lat="53.334405" lon="-1.7733358"><ele>349.0</ele><time>2026-04-18T06:58:26.993Z</time></trkpt><trkpt lat="53.3343725" lon="-1.7734783"><ele>350.4</ele><time>2026-04-18T06:58:27.996Z</time></trkpt><trkpt lat="53.3343375" lon="-1.7736253"><ele>351.79999999999995</ele><time>2026-04-18T06:58:28.996Z</time></trkpt><trkpt lat="53.334299" lon="-1.7737746"><ele>353.20000000000005</ele><time>2026-04-18T06:58:29.995Z</time></trkpt><trkpt lat="53.33426" lon="-1.7739241"><ele>354.6</ele><time>2026-04-18T06:58:30.992Z</time></trkpt><trkpt lat="53.3342248" lon="-1.7740745"><ele>356.0</ele><time>2026-04-18T06:58:31.996Z</time></trkpt><trkpt lat="53.3341916" lon="-1.7742246"><ele>356.8</ele><time>2026-04-18T06:58:33.003Z</time></trkpt><trkpt lat="53.3341558" lon="-1.7743752"><ele>357.6</ele><time>2026-04-18T06:58:33.994Z</time></trkpt><trkpt lat="53.3341179" lon="-1.7745253"><ele>358.4</ele><time>2026-04-18T06:58:34.992Z</time></trkpt><trkpt lat="53.3340816" lon="-1.774675"><ele>359.2</ele><time>2026-04-18T06:58:35.993Z</time></trkpt><trkpt lat="53.334046" lon="-1.7748178"><ele>360.0</ele><time>2026-04-18T06:58:36.996Z</time></trkpt><trkpt lat="53.3340081" lon="-1.774951"><ele>360.0</ele><time>2026-04-18T06:58:37.993Z</time></trkpt><trkpt lat="53.3339633" lon="-1.7750828"><ele>360.0</ele><time>2026-04-18T06:58:38.993Z</time></trkpt><trkpt lat="53.3339149" lon="-1.7752226"><ele>360.0</ele><time>2026-04-18T06:58:39.994Z</time></trkpt><trkpt lat="53.3338637" lon="-1.7753692"><ele>360.0</ele><time>2026-04-18T06:58:40.994Z</time></trkpt><trkpt lat="53.3338094" lon="-1.7755077"><ele>360.0</ele><time>2026-04-18T06:58:41.995Z</time></trkpt><trkpt lat="53.3337541" lon="-1.7756395"><ele>360.4</ele><time>2026-04-18T06:58:43.002Z</time></trkpt><trkpt lat="53.333701" lon="-1.7757815"><ele>360.8</ele><time>2026-04-18T06:58:43.996Z</time></trkpt><trkpt lat="53.3336522" lon="-1.7759353"><ele>361.20000000000005</ele><time>2026-04-18T06:58:44.993Z</time></trkpt><trkpt lat="53.3336081" lon="-1.7760945"><ele>361.6</ele><time>2026-04-18T06:58:45.994Z</time></trkpt><trkpt lat="53.3335632" lon="-1.7762538"><ele>362.0</ele><time>2026-04-18T06:58:46.995Z</time></trkpt><trkpt lat="53.333516" lon="-1.7764078"><ele>363.20000000000005</ele><time>2026-04-18T06:58:47.996Z</time></trkpt><trkpt lat="53.3334655" lon="-1.7765554"><ele>364.4</ele><time>2026-04-18T06:58:48.995Z</time></trkpt><trkpt lat="53.3334137" lon="-1.7766967"><ele>365.6</ele><time>2026-04-18T06:58:49.996Z</time></trkpt><trkpt lat="53.3333613" lon="-1.7768385"><ele>366.79999999999995</ele><time>2026-04-18T06:58:50.995Z</time></trkpt><trkpt lat="53.3333084" lon="-1.7769828"><ele>368.0</ele><time>2026-04-18T06:58:51.996Z</time></trkpt><trkpt lat="53.333252" lon="-1.7771276"><ele>369.0</ele><time>2026-04-18T06:58:52.998Z</time></trkpt><trkpt lat="53.3331899" lon="-1.7772731"><ele>370.0</ele><time>2026-04-18T06:58:53.997Z</time></trkpt><trkpt lat="53.333123" lon="-1.7774197"><ele>371.0</ele><time>2026-04-18T06:58:54.996Z</time></trkpt><trkpt lat="53.3330566" lon="-1.7775555"><ele>372.0</ele><time>2026-04-18T06:58:55.996Z</time></trkpt><trkpt lat="53.3329926" lon="-1.7776811"><ele>373.0</ele><time>2026-04-18T06:58:56.996Z</time></trkpt><trkpt lat="53.3329313" lon="-1.7778047"><ele>374.0</ele><time>2026-04-18T06:58:57.996Z</time></trkpt><trkpt lat="53.3328728" lon="-1.7779308"><ele>375.0</ele><time>2026-04-18T06:58:58.996Z</time></trkpt><trkpt lat="53.3328167" lon="-1.7780575"><ele>376.0</ele><time>2026-04-18T06:58:59.996Z</time></trkpt><trkpt lat="53.3327651" lon="-1.7781843"><ele>377.0</ele><time>2026-04-18T06:59:00.994Z</time></trkpt><trkpt lat="53.3327185" lon="-1.778303"><ele>378.0</ele><time>2026-04-18T06:59:01.994Z</time></trkpt><trkpt lat="53.3326738" lon="-1.7784111"><ele>379.0</ele><time>2026-04-18T06:59:02.996Z</time></trkpt><trkpt lat="53.3326278" lon="-1.7785083"><ele>379.66666666666663</ele><time>2026-04-18T06:59:03.993Z</time></trkpt><trkpt lat="53.3325812" lon="-1.7786005"><ele>380.3333333333333</ele><time>2026-04-18T06:59:04.993Z</time></trkpt><trkpt lat="53.3325322" lon="-1.7786914"><ele>381.0</ele><time>2026-04-18T06:59:05.993Z</time></trkpt><trkpt lat="53.332479" lon="-1.7787812"><ele>381.6666666666667</ele><time>2026-04-18T06:59:06.985Z</time></trkpt><trkpt lat="53.3324262" lon="-1.7788723"><ele>382.33333333333337</ele><time>2026-04-18T06:59:07.993Z</time></trkpt><trkpt lat="53.3323829" lon="-1.7789629"><ele>383.0</ele><time>2026-04-18T06:59:08.992Z</time></trkpt><trkpt lat="53.3323228" lon="-1.7791382"><ele>383.0</ele><time>2026-04-18T06:59:10.996Z</time></trkpt><trkpt lat="53.3322804" lon="-1.779298"><ele>383.0</ele><time>2026-04-18T06:59:12.999Z</time></trkpt><trkpt lat="53.332234" lon="-1.7793938"><ele>383.0</ele><time>2026-04-18T06:59:14.997Z</time></trkpt><trkpt lat="53.3322364" lon="-1.7795213"><ele>383.0</ele><time>2026-04-18T06:59:16.995Z</time></trkpt><trkpt lat="53.3323044" lon="-1.7795994"><ele>383.0</ele><time>2026-04-18T06:59:18.996Z</time></trkpt><trkpt lat="53.3324" lon="-1.7796207"><ele>383.0</ele><time>2026-04-18T06:59:20.991Z</time></trkpt><trkpt lat="53.3324563" lon="-1.7796799"><ele>384.0</ele><time>2026-04-18T06:59:22.995Z</time></trkpt><trkpt lat="53.3323921" lon="-1.7797902"><ele>385.0</ele><time>2026-04-18T06:59:38.993Z</time></trkpt><trkpt lat="53.332347" lon="-1.7798797"><ele>386.0</ele><time>2026-04-18T06:59:40.995Z</time></trkpt><trkpt lat="53.3322935" lon="-1.7800085"><ele>387.0</ele><time>2026-04-18T06:59:43.993Z</time></trkpt><trkpt lat="53.3322398" lon="-1.7801222"><ele>387.99999999999994</ele><time>2026-04-18T06:59:46.992Z</time></trkpt><trkpt lat="53.3322093" lon="-1.7802321"><ele>389.0</ele><time>2026-04-18T06:59:49.989Z</time></trkpt><trkpt lat="53.3322635" lon="-1.7800987"><ele>388.99999999999994</ele><time>2026-04-18T07:00:03.981Z</time></trkpt><trkpt lat="53.3323338" lon="-1.7799433"><ele>389.0</ele><time>2026-04-18T07:00:05.983Z</time></trkpt><trkpt lat="53.3323724" lon="-1.7798523"><ele>389.0</ele><time>2026-04-18T07:00:06.982Z</time></trkpt><trkpt lat="53.3324058" lon="-1.7797595"><ele>389.0</ele><time>2026-04-18T07:00:07.983Z</time></trkpt><trkpt lat="53.3324204" lon="-1.7795922"><ele>388.99999999999994</ele><time>2026-04-18T07:00:09.988Z</time></trkpt><trkpt lat="53.3323291" lon="-1.7795374"><ele>389.0</ele><time>2026-04-18T07:00:11.996Z</time></trkpt><trkpt lat="53.3322186" lon="-1.7796422"><ele>389.3333333333333</ele><time>2026-04-18T07:00:13.996Z</time></trkpt><trkpt lat="53.332177" lon="-1.7797363"><ele>389.66666666666663</ele><time>2026-04-18T07:00:14.995Z</time></trkpt><trkpt lat="53.3321346" lon="-1.7798244"><ele>390.0</ele><time>2026-04-18T07:00:15.996Z</time></trkpt><trkpt lat="53.3320859" lon="-1.7799184"><ele>390.33333333333337</ele><time>2026-04-18T07:00:16.996Z</time></trkpt><trkpt lat="53.3320377" lon="-1.7800541"><ele>390.6666666666667</ele><time>2026-04-18T07:00:17.997Z</time></trkpt><trkpt lat="53.3319871" lon="-1.7801695"><ele>391.0</ele><time>2026-04-18T07:00:18.996Z</time></trkpt><trkpt lat="53.3319392" lon="-1.7802603"><ele>392.0</ele><time>2026-04-18T07:00:20Z</time></trkpt><trkpt lat="53.33185" lon="-1.7803745"><ele>393.0</ele><time>2026-04-18T07:00:21.998Z</time></trkpt><trkpt lat="53.3317654" lon="-1.7804541"><ele>394.0</ele><time>2026-04-18T07:00:23.999Z</time></trkpt><trkpt lat="53.3316855" lon="-1.7805469"><ele>395.0</ele><time>2026-04-18T07:00:26.995Z</time></trkpt><trkpt lat="53.3316212" lon="-1.7806614"><ele>396.0</ele><time>2026-04-18T07:00:28.997Z</time></trkpt><trkpt lat="53.3315443" lon="-1.7808298"><ele>396.0</ele><time>2026-04-18T07:00:30.991Z</time></trkpt><trkpt lat="53.331502" lon="-1.7809449"><ele>396.0</ele><time>2026-04-18T07:00:31.993Z</time></trkpt><trkpt lat="53.331453" lon="-1.7810771"><ele>396.0</ele><time>2026-04-18T07:00:32.995Z</time></trkpt><trkpt lat="53.3313974" lon="-1.7812141"><ele>396.0</ele><time>2026-04-18T07:00:33.99Z</time></trkpt><trkpt lat="53.3313398" lon="-1.7813503"><ele>396.0</ele><time>2026-04-18T07:00:34.99Z</time></trkpt><trkpt lat="53.3312817" lon="-1.7814837"><ele>397.5</ele><time>2026-04-18T07:00:35.994Z</time></trkpt><trkpt lat="53.3312236" lon="-1.7816008"><ele>399.0</ele><time>2026-04-18T07:00:36.992Z</time></trkpt><trkpt lat="53.3311678" lon="-1.7817108"><ele>400.5</ele><time>2026-04-18T07:00:37.994Z</time></trkpt><trkpt lat="53.3311166" lon="-1.7818134"><ele>402.0</ele><time>2026-04-18T07:00:38.993Z</time></trkpt><trkpt lat="53.3310627" lon="-1.7819116"><ele>403.5</ele><time>2026-04-18T07:00:39.995Z</time></trkpt><trkpt lat="53.3310042" lon="-1.7820128"><ele>405.0</ele><time>2026-04-18T07:00:40.997Z</time></trkpt><trkpt lat="53.3309422" lon="-1.7821155"><ele>405.8</ele><time>2026-04-18T07:00:41.997Z</time></trkpt><trkpt lat="53.3308758" lon="-1.7822167"><ele>406.6</ele><time>2026-04-18T07:00:43Z</time></trkpt><trkpt lat="53.3308051" lon="-1.7823189"><ele>407.4</ele><time>2026-04-18T07:00:43.997Z</time></trkpt><trkpt lat="53.3307248" lon="-1.7824184"><ele>408.2</ele><time>2026-04-18T07:00:44.998Z</time></trkpt><trkpt lat="53.3306331" lon="-1.7825105"><ele>409.0</ele><time>2026-04-18T07:00:45.998Z</time></trkpt><trkpt lat="53.3305339" lon="-1.7826017"><ele>410.2</ele><time>2026-04-18T07:00:46.997Z</time></trkpt><trkpt lat="53.3304332" lon="-1.7826975"><ele>411.4</ele><time>2026-04-18T07:00:47.995Z</time></trkpt><trkpt lat="53.330342" lon="-1.7827943"><ele>412.6</ele><time>2026-04-18T07:00:48.988Z</time></trkpt><trkpt lat="53.3302671" lon="-1.7828807"><ele>413.8</ele><time>2026-04-18T07:00:49.998Z</time></trkpt><trkpt lat="53.3302139" lon="-1.7829546"><ele>415.0</ele><time>2026-04-18T07:00:50.997Z</time></trkpt><trkpt lat="53.3301485" lon="-1.7830802"><ele>415.0</ele><time>2026-04-18T07:00:52.999Z</time></trkpt><trkpt lat="53.3300925" lon="-1.7831679"><ele>415.0</ele><time>2026-04-18T07:00:54.998Z</time></trkpt><trkpt lat="53.3299812" lon="-1.7831223"><ele>415.0</ele><time>2026-04-18T07:00:56.999Z</time></trkpt><trkpt lat="53.3299047" lon="-1.7830311"><ele>415.0</ele><time>2026-04-18T07:00:57.997Z</time></trkpt><trkpt lat="53.3298252" lon="-1.7829073"><ele>415.0</ele><time>2026-04-18T07:00:58.997Z</time></trkpt><trkpt lat="53.329758" lon="-1.7827913"><ele>414.50000000000006</ele><time>2026-04-18T07:00:59.999Z</time></trkpt><trkpt lat="53.3297129" lon="-1.7826823"><ele>414.0</ele><time>2026-04-18T07:01:00.995Z</time></trkpt><trkpt lat="53.3296892" lon="-1.7825711"><ele>413.5</ele><time>2026-04-18T07:01:01.995Z</time></trkpt><trkpt lat="53.3296832" lon="-1.78242"><ele>413.0</ele><time>2026-04-18T07:01:03.996Z</time></trkpt><trkpt lat="53.3296704" lon="-1.7823103"><ele>412.50000000000006</ele><time>2026-04-18T07:01:05.993Z</time></trkpt><trkpt lat="53.3295601" lon="-1.7822306"><ele>412.0</ele><time>2026-04-18T07:01:07.994Z</time></trkpt><trkpt lat="53.329468" lon="-1.782233"><ele>411.5</ele><time>2026-04-18T07:01:08.993Z</time></trkpt><trkpt lat="53.3293622" lon="-1.7822519"><ele>411.0</ele><time>2026-04-18T07:01:09.995Z</time></trkpt><trkpt lat="53.3292466" lon="-1.7822745"><ele>410.5</ele><time>2026-04-18T07:01:10.996Z</time></trkpt><trkpt lat="53.3291244" lon="-1.7822906"><ele>410.0</ele><time>2026-04-18T07:01:11.997Z</time></trkpt><trkpt lat="53.3289938" lon="-1.7822928"><ele>410.25</ele><time>2026-04-18T07:01:13Z</time></trkpt><trkpt lat="53.3288572" lon="-1.7822814"><ele>410.5</ele><time>2026-04-18T07:01:13.998Z</time></trkpt><trkpt lat="53.328714" lon="-1.7822491"><ele>410.75</ele><time>2026-04-18T07:01:14.996Z</time></trkpt><trkpt lat="53.3285617" lon="-1.7821994"><ele>411.0</ele><time>2026-04-18T07:01:15.997Z</time></trkpt><trkpt lat="53.3284041" lon="-1.7821354"><ele>411.0</ele><time>2026-04-18T07:01:16.998Z</time></trkpt><trkpt lat="53.3282505" lon="-1.7820564"><ele>411.0</ele><time>2026-04-18T07:01:17.999Z</time></trkpt><trkpt lat="53.3280984" lon="-1.781961"><ele>411.0</ele><time>2026-04-18T07:01:18.997Z</time></trkpt><trkpt lat="53.3279494" lon="-1.7818557"><ele>411.33333333333337</ele><time>2026-04-18T07:01:19.998Z</time></trkpt><trkpt lat="53.3278038" lon="-1.7817418"><ele>411.6666666666667</ele><time>2026-04-18T07:01:20.995Z</time></trkpt><trkpt lat="53.3276613" lon="-1.7816212"><ele>412.0</ele><time>2026-04-18T07:01:21.998Z</time></trkpt><trkpt lat="53.3275259" lon="-1.7814942"><ele>412.0</ele><time>2026-04-18T07:01:23.003Z</time></trkpt><trkpt lat="53.3274006" lon="-1.781365"><ele>412.0</ele><time>2026-04-18T07:01:24.002Z</time></trkpt><trkpt lat="53.3272858" lon="-1.7812401"><ele>412.0</ele><time>2026-04-18T07:01:24.996Z</time></trkpt><trkpt lat="53.3271742" lon="-1.7811102"><ele>412.0</ele><time>2026-04-18T07:01:25.997Z</time></trkpt><trkpt lat="53.32706" lon="-1.7809709"><ele>412.0</ele><time>2026-04-18T07:01:26.996Z</time></trkpt><trkpt lat="53.3269409" lon="-1.7808148"><ele>412.0</ele><time>2026-04-18T07:01:27.997Z</time></trkpt><trkpt lat="53.3268163" lon="-1.7806427"><ele>412.0</ele><time>2026-04-18T07:01:28.999Z</time></trkpt><trkpt lat="53.3266835" lon="-1.7804521"><ele>412.0</ele><time>2026-04-18T07:01:29.999Z</time></trkpt><trkpt lat="53.3265455" lon="-1.780237"><ele>412.0</ele><time>2026-04-18T07:01:30.995Z</time></trkpt><trkpt lat="53.326405" lon="-1.7799987"><ele>412.0</ele><time>2026-04-18T07:01:31.995Z</time></trkpt><trkpt lat="53.3262621" lon="-1.7797376"><ele>411.0</ele><time>2026-04-18T07:01:33.001Z</time></trkpt><trkpt lat="53.3261213" lon="-1.7794584"><ele>410.0</ele><time>2026-04-18T07:01:33.994Z</time></trkpt><trkpt lat="53.3259926" lon="-1.7791693"><ele>409.0</ele><time>2026-04-18T07:01:34.996Z</time></trkpt><trkpt lat="53.325881" lon="-1.7788825"><ele>408.33333333333337</ele><time>2026-04-18T07:01:35.994Z</time></trkpt><trkpt lat="53.3257913" lon="-1.7786142"><ele>407.66666666666663</ele><time>2026-04-18T07:01:36.994Z</time></trkpt><trkpt lat="53.3257223" lon="-1.7783633"><ele>407.0</ele><time>2026-04-18T07:01:37.994Z</time></trkpt><trkpt lat="53.3256653" lon="-1.7781172"><ele>406.0</ele><time>2026-04-18T07:01:38.998Z</time></trkpt><trkpt lat="53.3256158" lon="-1.7778626"><ele>405.0</ele><time>2026-04-18T07:01:39.998Z</time></trkpt><trkpt lat="53.3255685" lon="-1.7775989"><ele>404.0</ele><time>2026-04-18T07:01:40.996Z</time></trkpt><trkpt lat="53.3255269" lon="-1.7773228"><ele>403.0</ele><time>2026-04-18T07:01:41.997Z</time></trkpt><trkpt lat="53.3254942" lon="-1.7770338"><ele>402.0</ele><time>2026-04-18T07:01:43.001Z</time></trkpt><trkpt lat="53.3254719" lon="-1.7767332"><ele>401.0</ele><time>2026-04-18T07:01:44Z</time></trkpt><trkpt lat="53.3254583" lon="-1.7764255"><ele>400.66666666666663</ele><time>2026-04-18T07:01:44.996Z</time></trkpt><trkpt lat="53.3254521" lon="-1.7761116"><ele>400.33333333333337</ele><time>2026-04-18T07:01:45.996Z</time></trkpt><trkpt lat="53.3254521" lon="-1.7757913"><ele>400.0</ele><time>2026-04-18T07:01:46.998Z</time></trkpt><trkpt lat="53.3254605" lon="-1.7754634"><ele>397.6666666666667</ele><time>2026-04-18T07:01:47.996Z</time></trkpt><trkpt lat="53.3254716" lon="-1.7751332"><ele>395.33333333333337</ele><time>2026-04-18T07:01:48.997Z</time></trkpt><trkpt lat="53.3254821" lon="-1.7748155"><ele>393.0</ele><time>2026-04-18T07:01:49.998Z</time></trkpt><trkpt lat="53.3254917" lon="-1.7745237"><ele>392.0</ele><time>2026-04-18T07:01:50.996Z</time></trkpt><trkpt lat="53.3254991" lon="-1.7742585"><ele>391.0</ele><time>2026-04-18T07:01:51.996Z</time></trkpt><trkpt lat="53.3255075" lon="-1.7740116"><ele>390.0</ele><time>2026-04-18T07:01:53Z</time></trkpt><trkpt lat="53.3255149" lon="-1.7737674"><ele>389.33333333333337</ele><time>2026-04-18T07:01:53.997Z</time></trkpt><trkpt lat="53.3255211" lon="-1.7735157"><ele>388.6666666666667</ele><time>2026-04-18T07:01:54.999Z</time></trkpt><trkpt lat="53.3255262" lon="-1.7732511"><ele>388.0</ele><time>2026-04-18T07:01:55.998Z</time></trkpt><trkpt lat="53.3255301" lon="-1.7729701"><ele>387.33333333333337</ele><time>2026-04-18T07:01:56.996Z</time></trkpt><trkpt lat="53.3255343" lon="-1.7726787"><ele>386.66666666666663</ele><time>2026-04-18T07:01:57.998Z</time></trkpt><trkpt lat="53.3255387" lon="-1.7723842"><ele>386.0</ele><time>2026-04-18T07:01:58.996Z</time></trkpt><trkpt lat="53.3255465" lon="-1.7720897"><ele>386.0</ele><time>2026-04-18T07:01:59.998Z</time></trkpt><trkpt lat="53.3255579" lon="-1.771806"><ele>386.0</ele><time>2026-04-18T07:02:00.996Z</time></trkpt><trkpt lat="53.3255711" lon="-1.7715429"><ele>386.0</ele><time>2026-04-18T07:02:01.996Z</time></trkpt><trkpt lat="53.3255912" lon="-1.7713018"><ele>386.0</ele><time>2026-04-18T07:02:03.001Z</time></trkpt><trkpt lat="53.325617" lon="-1.7710778"><ele>386.0</ele><time>2026-04-18T07:02:03.996Z</time></trkpt><trkpt lat="53.3256435" lon="-1.7708621"><ele>386.0</ele><time>2026-04-18T07:02:04.994Z</time></trkpt><trkpt lat="53.3256722" lon="-1.7706534"><ele>386.0</ele><time>2026-04-18T07:02:05.995Z</time></trkpt><trkpt lat="53.3257036" lon="-1.7704463"><ele>385.25</ele><time>2026-04-18T07:02:06.995Z</time></trkpt><trkpt lat="53.3257384" lon="-1.770235"><ele>384.5</ele><time>2026-04-18T07:02:07.996Z</time></trkpt><trkpt lat="53.3257786" lon="-1.7700297"><ele>383.75</ele><time>2026-04-18T07:02:08.995Z</time></trkpt><trkpt lat="53.325822" lon="-1.7698408"><ele>383.0</ele><time>2026-04-18T07:02:09.999Z</time></trkpt><trkpt lat="53.3258664" lon="-1.769663"><ele>382.25</ele><time>2026-04-18T07:02:10.999Z</time></trkpt><trkpt lat="53.3259145" lon="-1.7694793"><ele>381.5</ele><time>2026-04-18T07:02:11.997Z</time></trkpt><trkpt lat="53.325968" lon="-1.7692822"><ele>380.75</ele><time>2026-04-18T07:02:12.998Z</time></trkpt><trkpt lat="53.3260271" lon="-1.7690747"><ele>380.0</ele><time>2026-04-18T07:02:13.998Z</time></trkpt><trkpt lat="53.326089" lon="-1.7688692"><ele>379.0</ele><time>2026-04-18T07:02:14.998Z</time></trkpt><trkpt lat="53.3261594" lon="-1.7686677"><ele>378.0</ele><time>2026-04-18T07:02:15.997Z</time></trkpt><trkpt lat="53.3262362" lon="-1.7684661"><ele>377.0</ele><time>2026-04-18T07:02:16.998Z</time></trkpt><trkpt lat="53.3263215" lon="-1.7682492"><ele>376.0</ele><time>2026-04-18T07:02:17.999Z</time></trkpt><trkpt lat="53.3264087" lon="-1.7680177"><ele>374.0</ele><time>2026-04-18T07:02:18.999Z</time></trkpt><trkpt lat="53.3264939" lon="-1.7677766"><ele>372.0</ele><time>2026-04-18T07:02:19.999Z</time></trkpt><trkpt lat="53.3265725" lon="-1.76754"><ele>370.0</ele><time>2026-04-18T07:02:20.997Z</time></trkpt><trkpt lat="53.3266498" lon="-1.7673163"><ele>368.0</ele><time>2026-04-18T07:02:21.998Z</time></trkpt><trkpt lat="53.3267255" lon="-1.7671008"><ele>366.0</ele><time>2026-04-18T07:02:23Z</time></trkpt><trkpt lat="53.3267995" lon="-1.7668814"><ele>364.0</ele><time>2026-04-18T07:02:23.997Z</time></trkpt><trkpt lat="53.3268663" lon="-1.7666554"><ele>362.75</ele><time>2026-04-18T07:02:24.996Z</time></trkpt><trkpt lat="53.3269206" lon="-1.7664249"><ele>361.5</ele><time>2026-04-18T07:02:25.996Z</time></trkpt><trkpt lat="53.3269602" lon="-1.7661861"><ele>360.25</ele><time>2026-04-18T07:02:26.998Z</time></trkpt><trkpt lat="53.3269912" lon="-1.7659475"><ele>359.0</ele><time>2026-04-18T07:02:27.999Z</time></trkpt><trkpt lat="53.3270117" lon="-1.7657011"><ele>358.0</ele><time>2026-04-18T07:02:28.998Z</time></trkpt><trkpt lat="53.3270185" lon="-1.7654556"><ele>357.0</ele><time>2026-04-18T07:02:29.997Z</time></trkpt><trkpt lat="53.3270173" lon="-1.7652079"><ele>356.0</ele><time>2026-04-18T07:02:30.996Z</time></trkpt><trkpt lat="53.3270054" lon="-1.7649582"><ele>355.0</ele><time>2026-04-18T07:02:31.998Z</time></trkpt><trkpt lat="53.3269862" lon="-1.7647122"><ele>354.0</ele><time>2026-04-18T07:02:32.996Z</time></trkpt><trkpt lat="53.3269582" lon="-1.7644721"><ele>353.0</ele><time>2026-04-18T07:02:33.996Z</time></trkpt><trkpt lat="53.3269228" lon="-1.7642372"><ele>352.0</ele><time>2026-04-18T07:02:34.998Z</time></trkpt><trkpt lat="53.326881" lon="-1.7640107"><ele>351.0</ele><time>2026-04-18T07:02:35.995Z</time></trkpt><trkpt lat="53.3268339" lon="-1.7637927"><ele>350.5</ele><time>2026-04-18T07:02:36.995Z</time></trkpt><trkpt lat="53.3267818" lon="-1.7635931"><ele>350.0</ele><time>2026-04-18T07:02:37.998Z</time></trkpt><trkpt lat="53.3267253" lon="-1.7634156"><ele>349.5</ele><time>2026-04-18T07:02:38.999Z</time></trkpt><trkpt lat="53.3266676" lon="-1.7632463"><ele>349.0</ele><time>2026-04-18T07:02:39.998Z</time></trkpt><trkpt lat="53.3266015" lon="-1.7630832"><ele>348.75</ele><time>2026-04-18T07:02:40.997Z</time></trkpt><trkpt lat="53.3265258" lon="-1.7629168"><ele>348.5</ele><time>2026-04-18T07:02:41.995Z</time></trkpt><trkpt lat="53.32644" lon="-1.762753"><ele>348.25</ele><time>2026-04-18T07:02:43.002Z</time></trkpt><trkpt lat="53.3263458" lon="-1.762597"><ele>348.0</ele><time>2026-04-18T07:02:43.997Z</time></trkpt><trkpt lat="53.3262439" lon="-1.7624525"><ele>347.75</ele><time>2026-04-18T07:02:44.997Z</time></trkpt><trkpt lat="53.3261278" lon="-1.762323"><ele>347.5</ele><time>2026-04-18T07:02:45.997Z</time></trkpt><trkpt lat="53.3260016" lon="-1.7622118"><ele>347.25</ele><time>2026-04-18T07:02:47.001Z</time></trkpt><trkpt lat="53.3258681" lon="-1.7621132"><ele>347.0</ele><time>2026-04-18T07:02:47.998Z</time></trkpt><trkpt lat="53.3257234" lon="-1.7620391"><ele>347.0</ele><time>2026-04-18T07:02:48.996Z</time></trkpt><trkpt lat="53.3255726" lon="-1.7619899"><ele>347.0</ele><time>2026-04-18T07:02:50Z</time></trkpt><trkpt lat="53.3254171" lon="-1.7619684"><ele>347.0</ele><time>2026-04-18T07:02:50.998Z</time></trkpt><trkpt lat="53.3252535" lon="-1.7619579"><ele>347.0</ele><time>2026-04-18T07:02:51.996Z</time></trkpt><trkpt lat="53.3250813" lon="-1.76195"><ele>347.0</ele><time>2026-04-18T07:02:53.001Z</time></trkpt><trkpt lat="53.3249061" lon="-1.7619401"><ele>347.0</ele><time>2026-04-18T07:02:54Z</time></trkpt><trkpt lat="53.3247302" lon="-1.7619198"><ele>345.6666666666667</ele><time>2026-04-18T07:02:54.999Z</time></trkpt><trkpt lat="53.3245497" lon="-1.7618962"><ele>344.3333333333333</ele><time>2026-04-18T07:02:55.999Z</time></trkpt><trkpt lat="53.3243637" lon="-1.7618733"><ele>343.0</ele><time>2026-04-18T07:02:56.999Z</time></trkpt><trkpt lat="53.3241802" lon="-1.7618547"><ele>343.0</ele><time>2026-04-18T07:02:57.998Z</time></trkpt><trkpt lat="53.3240076" lon="-1.761847"><ele>343.0</ele><time>2026-04-18T07:02:58.999Z</time></trkpt><trkpt lat="53.3238421" lon="-1.7618432"><ele>343.0</ele><time>2026-04-18T07:02:59.999Z</time></trkpt><trkpt lat="53.3236778" lon="-1.7618391"><ele>341.66666666666663</ele><time>2026-04-18T07:03:00.997Z</time></trkpt><trkpt lat="53.3235179" lon="-1.7618311"><ele>340.3333333333333</ele><time>2026-04-18T07:03:01.998Z</time></trkpt><trkpt lat="53.3233673" lon="-1.7618237"><ele>339.0</ele><time>2026-04-18T07:03:03.003Z</time></trkpt><trkpt lat="53.3232247" lon="-1.7618182"><ele>339.0</ele><time>2026-04-18T07:03:03.998Z</time></trkpt><trkpt lat="53.3230892" lon="-1.7618127"><ele>339.0</ele><time>2026-04-18T07:03:04.999Z</time></trkpt><trkpt lat="53.3229626" lon="-1.7618037"><ele>339.0</ele><time>2026-04-18T07:03:05.999Z</time></trkpt><trkpt lat="53.3228433" lon="-1.7617809"><ele>339.0</ele><time>2026-04-18T07:03:06.999Z</time></trkpt><trkpt lat="53.3227311" lon="-1.7617369"><ele>337.2</ele><time>2026-04-18T07:03:07.994Z</time></trkpt><trkpt lat="53.3226264" lon="-1.761657"><ele>335.4</ele><time>2026-04-18T07:03:08.998Z</time></trkpt><trkpt lat="53.322532" lon="-1.7615508"><ele>333.6</ele><time>2026-04-18T07:03:09.998Z</time></trkpt><trkpt lat="53.3224504" lon="-1.7614452"><ele>331.8</ele><time>2026-04-18T07:03:10.997Z</time></trkpt><trkpt lat="53.3223872" lon="-1.7613655"><ele>330.0</ele><time>2026-04-18T07:03:11.997Z</time></trkpt><trkpt lat="53.3223322" lon="-1.7613025"><ele>330.0</ele><time>2026-04-18T07:03:13Z</time></trkpt><trkpt lat="53.3222722" lon="-1.7612597"><ele>330.0</ele><time>2026-04-18T07:03:13.997Z</time></trkpt><trkpt lat="53.3222041" lon="-1.7612355"><ele>330.0</ele><time>2026-04-18T07:03:14.997Z</time></trkpt><trkpt lat="53.3221232" lon="-1.7612324"><ele>330.0</ele><time>2026-04-18T07:03:15.995Z</time></trkpt><trkpt lat="53.3220382" lon="-1.7612514"><ele>330.0</ele><time>2026-04-18T07:03:16.996Z</time></trkpt><trkpt lat="53.3219559" lon="-1.7612874"><ele>330.0</ele><time>2026-04-18T07:03:17.996Z</time></trkpt><trkpt lat="53.3218749" lon="-1.7613306"><ele>329.1666666666667</ele><time>2026-04-18T07:03:18.994Z</time></trkpt><trkpt lat="53.3218003" lon="-1.7613756"><ele>328.3333333333333</ele><time>2026-04-18T07:03:19.994Z</time></trkpt><trkpt lat="53.3216913" lon="-1.7614104"><ele>327.5</ele><time>2026-04-18T07:03:21.993Z</time></trkpt><trkpt lat="53.3216284" lon="-1.761403"><ele>326.66666666666663</ele><time>2026-04-18T07:03:23.994Z</time></trkpt><trkpt lat="53.3215717" lon="-1.7614628"><ele>325.8333333333333</ele><time>2026-04-18T07:03:29.996Z</time></trkpt><trkpt lat="53.3216614" lon="-1.7614643"><ele>325.0</ele><time>2026-04-18T07:04:11.993Z</time></trkpt><trkpt lat="53.3217375" lon="-1.7614479"><ele>325.0</ele><time>2026-04-18T07:04:12.992Z</time></trkpt><trkpt lat="53.3218359" lon="-1.7614153"><ele>325.0</ele><time>2026-04-18T07:04:13.992Z</time></trkpt><trkpt lat="53.3219461" lon="-1.761381"><ele>325.0</ele><time>2026-04-18T07:04:14.991Z</time></trkpt><trkpt lat="53.3220611" lon="-1.7613488"><ele>325.0</ele><time>2026-04-18T07:04:15.992Z</time></trkpt><trkpt lat="53.3221738" lon="-1.7613415"><ele>325.0</ele><time>2026-04-18T07:04:16.992Z</time></trkpt><trkpt lat="53.3222868" lon="-1.7613644"><ele>326.25</ele><time>2026-04-18T07:04:17.994Z</time></trkpt><trkpt lat="53.3224014" lon="-1.7614317"><ele>327.5</ele><time>2026-04-18T07:04:19.006Z</time></trkpt><trkpt lat="53.3225113" lon="-1.7615267"><ele>328.75</ele><time>2026-04-18T07:04:19.996Z</time></trkpt><trkpt lat="53.3226246" lon="-1.7616264"><ele>330.0</ele><time>2026-04-18T07:04:20.999Z</time></trkpt><trkpt lat="53.3227442" lon="-1.7617199"><ele>330.0</ele><time>2026-04-18T07:04:22.001Z</time></trkpt><trkpt lat="53.3228618" lon="-1.7617896"><ele>330.0</ele><time>2026-04-18T07:04:22.996Z</time></trkpt><trkpt lat="53.3229763" lon="-1.7618267"><ele>330.0</ele><time>2026-04-18T07:04:24.008Z</time></trkpt><trkpt lat="53.3230909" lon="-1.7618386"><ele>330.0</ele><time>2026-04-18T07:04:24.998Z</time></trkpt><trkpt lat="53.323213" lon="-1.7618387"><ele>332.25</ele><time>2026-04-18T07:04:26.001Z</time></trkpt><trkpt lat="53.3233391" lon="-1.761839"><ele>334.5</ele><time>2026-04-18T07:04:26.999Z</time></trkpt><trkpt lat="53.3234685" lon="-1.7618424"><ele>336.75</ele><time>2026-04-18T07:04:28.006Z</time></trkpt><trkpt lat="53.3236066" lon="-1.7618449"><ele>339.0</ele><time>2026-04-18T07:04:29.006Z</time></trkpt><trkpt lat="53.3237527" lon="-1.7618455"><ele>340.3333333333333</ele><time>2026-04-18T07:04:30.01Z</time></trkpt><trkpt lat="53.3239042" lon="-1.7618503"><ele>341.66666666666663</ele><time>2026-04-18T07:04:30.999Z</time></trkpt><trkpt lat="53.3240646" lon="-1.7618627"><ele>343.0</ele><time>2026-04-18T07:04:32.003Z</time></trkpt><trkpt lat="53.3242411" lon="-1.7618789"><ele>343.0</ele><time>2026-04-18T07:04:33.017Z</time></trkpt><trkpt lat="53.3244201" lon="-1.7618975"><ele>343.0</ele><time>2026-04-18T07:04:34.009Z</time></trkpt><trkpt lat="53.3246025" lon="-1.7619177"><ele>343.0</ele><time>2026-04-18T07:04:34.994Z</time></trkpt><trkpt lat="53.3247965" lon="-1.7619478"><ele>344.3333333333333</ele><time>2026-04-18T07:04:36.015Z</time></trkpt><trkpt lat="53.3250072" lon="-1.7619904"><ele>345.6666666666667</ele><time>2026-04-18T07:04:37.009Z</time></trkpt><trkpt lat="53.3252233" lon="-1.762033"><ele>347.0</ele><time>2026-04-18T07:04:37.997Z</time></trkpt><trkpt lat="53.325431" lon="-1.76207"><ele>347.0</ele><time>2026-04-18T07:04:38.996Z</time></trkpt><trkpt lat="53.3256198" lon="-1.7621105"><ele>347.0</ele><time>2026-04-18T07:04:39.995Z</time></trkpt><trkpt lat="53.3257887" lon="-1.7621614"><ele>347.0</ele><time>2026-04-18T07:04:40.997Z</time></trkpt><trkpt lat="53.3259449" lon="-1.7622389"><ele>347.0</ele><time>2026-04-18T07:04:41.999Z</time></trkpt><trkpt lat="53.3260948" lon="-1.7623479"><ele>347.0</ele><time>2026-04-18T07:04:42.997Z</time></trkpt><trkpt lat="53.3262347" lon="-1.76249"><ele>347.0</ele><time>2026-04-18T07:04:43.994Z</time></trkpt><trkpt lat="53.3263567" lon="-1.7626705"><ele>347.33333333333337</ele><time>2026-04-18T07:04:44.996Z</time></trkpt><trkpt lat="53.3264606" lon="-1.7628894"><ele>347.6666666666667</ele><time>2026-04-18T07:04:45.997Z</time></trkpt><trkpt lat="53.3265536" lon="-1.7631329"><ele>348.0</ele><time>2026-04-18T07:04:46.993Z</time></trkpt><trkpt lat="53.326638" lon="-1.7634049"><ele>348.3333333333333</ele><time>2026-04-18T07:04:47.996Z</time></trkpt><trkpt lat="53.3267118" lon="-1.7636968"><ele>348.66666666666663</ele><time>2026-04-18T07:04:48.995Z</time></trkpt><trkpt lat="53.3267737" lon="-1.7640007"><ele>349.0</ele><time>2026-04-18T07:04:50Z</time></trkpt><trkpt lat="53.3268228" lon="-1.7642838"><ele>349.66666666666663</ele><time>2026-04-18T07:04:50.997Z</time></trkpt><trkpt lat="53.3268607" lon="-1.7645632"><ele>350.3333333333333</ele><time>2026-04-18T07:04:51.999Z</time></trkpt><trkpt lat="53.3268893" lon="-1.7648398"><ele>351.0</ele><time>2026-04-18T07:04:52.999Z</time></trkpt><trkpt lat="53.3269102" lon="-1.7651181"><ele>352.3333333333333</ele><time>2026-04-18T07:04:53.996Z</time></trkpt><trkpt lat="53.3269162" lon="-1.7654003"><ele>353.66666666666663</ele><time>2026-04-18T07:04:54.997Z</time></trkpt><trkpt lat="53.3269077" lon="-1.765692"><ele>355.0</ele><time>2026-04-18T07:04:55.997Z</time></trkpt><trkpt lat="53.3268865" lon="-1.7659827"><ele>356.3333333333333</ele><time>2026-04-18T07:04:56.998Z</time></trkpt><trkpt lat="53.3268541" lon="-1.7662736"><ele>357.6666666666667</ele><time>2026-04-18T07:04:57.999Z</time></trkpt><trkpt lat="53.3268027" lon="-1.7665617"><ele>359.0</ele><time>2026-04-18T07:04:58.999Z</time></trkpt><trkpt lat="53.3267394" lon="-1.766843"><ele>360.6666666666667</ele><time>2026-04-18T07:05:00.005Z</time></trkpt><trkpt lat="53.3266542" lon="-1.7671169"><ele>362.3333333333333</ele><time>2026-04-18T07:05:00.994Z</time></trkpt><trkpt lat="53.3265564" lon="-1.7673843"><ele>364.0</ele><time>2026-04-18T07:05:01.997Z</time></trkpt><trkpt lat="53.3264483" lon="-1.7676491"><ele>367.0</ele><time>2026-04-18T07:05:02.998Z</time></trkpt><trkpt lat="53.3263324" lon="-1.7679232"><ele>370.0</ele><time>2026-04-18T07:05:03.995Z</time></trkpt><trkpt lat="53.3262133" lon="-1.7682185"><ele>373.0</ele><time>2026-04-18T07:05:04.998Z</time></trkpt><trkpt lat="53.3260927" lon="-1.7685407"><ele>374.0</ele><time>2026-04-18T07:05:05.996Z</time></trkpt><trkpt lat="53.3259749" lon="-1.7688794"><ele>375.0</ele><time>2026-04-18T07:05:06.999Z</time></trkpt><trkpt lat="53.3258756" lon="-1.7691974"><ele>376.0</ele><time>2026-04-18T07:05:07.998Z</time></trkpt><trkpt lat="53.3257984" lon="-1.7694616"><ele>377.0</ele><time>2026-04-18T07:05:08.999Z</time></trkpt><trkpt lat="53.3257459" lon="-1.7696767"><ele>378.0</ele><time>2026-04-18T07:05:09.997Z</time></trkpt><trkpt lat="53.3257101" lon="-1.7698614"><ele>379.0</ele><time>2026-04-18T07:05:10.999Z</time></trkpt><trkpt lat="53.325679" lon="-1.7700363"><ele>380.0</ele><time>2026-04-18T07:05:11.997Z</time></trkpt><trkpt lat="53.3256532" lon="-1.7702123"><ele>380.75</ele><time>2026-04-18T07:05:12.997Z</time></trkpt><trkpt lat="53.3256284" lon="-1.7704022"><ele>381.5</ele><time>2026-04-18T07:05:13.998Z</time></trkpt><trkpt lat="53.3255983" lon="-1.7706224"><ele>382.25</ele><time>2026-04-18T07:05:14.998Z</time></trkpt><trkpt lat="53.3255656" lon="-1.7708744"><ele>383.0</ele><time>2026-04-18T07:05:15.999Z</time></trkpt><trkpt lat="53.3255337" lon="-1.7711362"><ele>383.0</ele><time>2026-04-18T07:05:16.999Z</time></trkpt><trkpt lat="53.3255027" lon="-1.7713991"><ele>383.0</ele><time>2026-04-18T07:05:18.009Z</time></trkpt><trkpt lat="53.3254837" lon="-1.771675"><ele>383.0</ele><time>2026-04-18T07:05:19.002Z</time></trkpt><trkpt lat="53.3254779" lon="-1.771953"><ele>384.0</ele><time>2026-04-18T07:05:19.999Z</time></trkpt><trkpt lat="53.3254727" lon="-1.7722334"><ele>385.0</ele><time>2026-04-18T07:05:21Z</time></trkpt><trkpt lat="53.3254724" lon="-1.7725225"><ele>386.0</ele><time>2026-04-18T07:05:22Z</time></trkpt><trkpt lat="53.3254729" lon="-1.7728211"><ele>386.66666666666663</ele><time>2026-04-18T07:05:23.006Z</time></trkpt><trkpt lat="53.3254731" lon="-1.7731241"><ele>387.33333333333337</ele><time>2026-04-18T07:05:24Z</time></trkpt><trkpt lat="53.3254714" lon="-1.7734304"><ele>388.0</ele><time>2026-04-18T07:05:24.999Z</time></trkpt><trkpt lat="53.3254678" lon="-1.7737349"><ele>388.6666666666667</ele><time>2026-04-18T07:05:25.999Z</time></trkpt><trkpt lat="53.3254657" lon="-1.774018"><ele>389.33333333333337</ele><time>2026-04-18T07:05:26.997Z</time></trkpt><trkpt lat="53.3254597" lon="-1.7742736"><ele>390.0</ele><time>2026-04-18T07:05:28Z</time></trkpt><trkpt lat="53.3254552" lon="-1.7745167"><ele>390.75</ele><time>2026-04-18T07:05:29.001Z</time></trkpt><trkpt lat="53.3254513" lon="-1.7747576"><ele>391.5</ele><time>2026-04-18T07:05:29.999Z</time></trkpt><trkpt lat="53.3254482" lon="-1.7750074"><ele>392.25</ele><time>2026-04-18T07:05:30.998Z</time></trkpt><trkpt lat="53.325447" lon="-1.7752683"><ele>393.0</ele><time>2026-04-18T07:05:31.997Z</time></trkpt><trkpt lat="53.3254404" lon="-1.7755311"><ele>393.66666666666663</ele><time>2026-04-18T07:05:33.001Z</time></trkpt><trkpt lat="53.3254386" lon="-1.7757919"><ele>394.3333333333333</ele><time>2026-04-18T07:05:33.997Z</time></trkpt><trkpt lat="53.3254341" lon="-1.7760516"><ele>395.0</ele><time>2026-04-18T07:05:34.997Z</time></trkpt><trkpt lat="53.3254303" lon="-1.7763128"><ele>396.66666666666663</ele><time>2026-04-18T07:05:35.998Z</time></trkpt><trkpt lat="53.325431" lon="-1.7765802"><ele>398.33333333333337</ele><time>2026-04-18T07:05:37.015Z</time></trkpt><trkpt lat="53.3254417" lon="-1.7768609"><ele>400.0</ele><time>2026-04-18T07:05:38.013Z</time></trkpt><trkpt lat="53.3254645" lon="-1.7771541"><ele>400.33333333333337</ele><time>2026-04-18T07:05:39.013Z</time></trkpt><trkpt lat="53.3254969" lon="-1.7774411"><ele>400.66666666666663</ele><time>2026-04-18T07:05:40.016Z</time></trkpt><trkpt lat="53.3255374" lon="-1.7777274"><ele>401.0</ele><time>2026-04-18T07:05:41.006Z</time></trkpt><trkpt lat="53.3255858" lon="-1.7780048"><ele>402.0</ele><time>2026-04-18T07:05:42.013Z</time></trkpt><trkpt lat="53.3256469" lon="-1.7782712"><ele>403.0</ele><time>2026-04-18T07:05:43.019Z</time></trkpt><trkpt lat="53.3257173" lon="-1.7785269"><ele>404.0</ele><time>2026-04-18T07:05:44.015Z</time></trkpt><trkpt lat="53.3257987" lon="-1.778778"><ele>405.0</ele><time>2026-04-18T07:05:45.016Z</time></trkpt><trkpt lat="53.3258897" lon="-1.77902"><ele>406.0</ele><time>2026-04-18T07:05:46.017Z</time></trkpt><trkpt lat="53.3259865" lon="-1.7792554"><ele>407.0</ele><time>2026-04-18T07:05:47.015Z</time></trkpt><trkpt lat="53.3260886" lon="-1.7794857"><ele>407.66666666666663</ele><time>2026-04-18T07:05:48.017Z</time></trkpt><trkpt lat="53.3262005" lon="-1.7797117"><ele>408.33333333333337</ele><time>2026-04-18T07:05:49.015Z</time></trkpt><trkpt lat="53.3263194" lon="-1.779934"><ele>409.0</ele><time>2026-04-18T07:05:50.016Z</time></trkpt><trkpt lat="53.3264543" lon="-1.7801591"><ele>410.0</ele><time>2026-04-18T07:05:51.016Z</time></trkpt><trkpt lat="53.3265944" lon="-1.7803805"><ele>411.0</ele><time>2026-04-18T07:05:52.016Z</time></trkpt><trkpt lat="53.3267329" lon="-1.7805874"><ele>412.0</ele><time>2026-04-18T07:05:53.021Z</time></trkpt><trkpt lat="53.3268651" lon="-1.7807719"><ele>412.0</ele><time>2026-04-18T07:05:54.016Z</time></trkpt><trkpt lat="53.3269866" lon="-1.7809253"><ele>412.0</ele><time>2026-04-18T07:05:54.998Z</time></trkpt><trkpt lat="53.3271075" lon="-1.7810603"><ele>412.0</ele><time>2026-04-18T07:05:56.001Z</time></trkpt><trkpt lat="53.3272296" lon="-1.7811963"><ele>412.0</ele><time>2026-04-18T07:05:57.016Z</time></trkpt><trkpt lat="53.3273587" lon="-1.7813353"><ele>412.0</ele><time>2026-04-18T07:05:58.015Z</time></trkpt><trkpt lat="53.3274983" lon="-1.7814774"><ele>412.0</ele><time>2026-04-18T07:05:59.016Z</time></trkpt><trkpt lat="53.3276473" lon="-1.7816207"><ele>412.0</ele><time>2026-04-18T07:06:00.003Z</time></trkpt><trkpt lat="53.3278081" lon="-1.7817642"><ele>412.33333333333337</ele><time>2026-04-18T07:06:01Z</time></trkpt><trkpt lat="53.3279753" lon="-1.7819047"><ele>412.66666666666663</ele><time>2026-04-18T07:06:02.002Z</time></trkpt><trkpt lat="53.3281513" lon="-1.7820315"><ele>413.0</ele><time>2026-04-18T07:06:03.013Z</time></trkpt><trkpt lat="53.3283313" lon="-1.7821295"><ele>412.3333333333333</ele><time>2026-04-18T07:06:04.006Z</time></trkpt><trkpt lat="53.3285056" lon="-1.7821945"><ele>411.66666666666663</ele><time>2026-04-18T07:06:05.008Z</time></trkpt><trkpt lat="53.3286726" lon="-1.7822359"><ele>411.0</ele><time>2026-04-18T07:06:06.007Z</time></trkpt><trkpt lat="53.3288375" lon="-1.7822799"><ele>410.66666666666663</ele><time>2026-04-18T07:06:07.014Z</time></trkpt><trkpt lat="53.3290007" lon="-1.7823167"><ele>410.3333333333333</ele><time>2026-04-18T07:06:07.999Z</time></trkpt><trkpt lat="53.3291569" lon="-1.7823392"><ele>410.0</ele><time>2026-04-18T07:06:08.998Z</time></trkpt><trkpt lat="53.3292991" lon="-1.7823375"><ele>410.0</ele><time>2026-04-18T07:06:10Z</time></trkpt><trkpt lat="53.3294327" lon="-1.7823249"><ele>410.0</ele><time>2026-04-18T07:06:10.997Z</time></trkpt><trkpt lat="53.3295657" lon="-1.7823012"><ele>410.0</ele><time>2026-04-18T07:06:11.999Z</time></trkpt><trkpt lat="53.3297002" lon="-1.7822641"><ele>410.0</ele><time>2026-04-18T07:06:13Z</time></trkpt><trkpt lat="53.3298388" lon="-1.7822145"><ele>409.75</ele><time>2026-04-18T07:06:13.998Z</time></trkpt><trkpt lat="53.3299838" lon="-1.7821577"><ele>409.5</ele><time>2026-04-18T07:06:14.998Z</time></trkpt><trkpt lat="53.330126" lon="-1.7821"><ele>409.25</ele><time>2026-04-18T07:06:15.998Z</time></trkpt><trkpt lat="53.3302591" lon="-1.7820384"><ele>409.0</ele><time>2026-04-18T07:06:17Z</time></trkpt><trkpt lat="53.3303787" lon="-1.7819769"><ele>409.00000000000006</ele><time>2026-04-18T07:06:18Z</time></trkpt><trkpt lat="53.3304797" lon="-1.7819086"><ele>409.0</ele><time>2026-04-18T07:06:18.999Z</time></trkpt><trkpt lat="53.3305555" lon="-1.781842"><ele>409.0</ele><time>2026-04-18T07:06:20Z</time></trkpt><trkpt lat="53.330612" lon="-1.7817862"><ele>409.0</ele><time>2026-04-18T07:06:20.999Z</time></trkpt><trkpt lat="53.3307082" lon="-1.7817159"><ele>409.00000000000006</ele><time>2026-04-18T07:06:23.002Z</time></trkpt><trkpt lat="53.3307813" lon="-1.7817253"><ele>409.0</ele><time>2026-04-18T07:06:25.998Z</time></trkpt><trkpt lat="53.3307156" lon="-1.7816919"><ele>409.0</ele><time>2026-04-18T07:06:54.999Z</time></trkpt><trkpt lat="53.3306532" lon="-1.7817289"><ele>409.0</ele><time>2026-04-18T07:06:55.999Z</time></trkpt><trkpt lat="53.3305639" lon="-1.7818004"><ele>409.0</ele><time>2026-04-18T07:06:56.996Z</time></trkpt><trkpt lat="53.3304444" lon="-1.7818917"><ele>409.0</ele><time>2026-04-18T07:06:57.998Z</time></trkpt><trkpt lat="53.3302975" lon="-1.7819909"><ele>409.0</ele><time>2026-04-18T07:06:58.999Z</time></trkpt><trkpt lat="53.3301521" lon="-1.7820774"><ele>409.0</ele><time>2026-04-18T07:07:00.002Z</time></trkpt><trkpt lat="53.3300247" lon="-1.7821461"><ele>409.0</ele><time>2026-04-18T07:07:01.001Z</time></trkpt><trkpt lat="53.3299237" lon="-1.7821864"><ele>409.0</ele><time>2026-04-18T07:07:02Z</time></trkpt><trkpt lat="53.3298469" lon="-1.7822102"><ele>409.00000000000006</ele><time>2026-04-18T07:07:03.002Z</time></trkpt><trkpt lat="53.3297421" lon="-1.7822209"><ele>409.0</ele><time>2026-04-18T07:07:05Z</time></trkpt><trkpt lat="53.3296762" lon="-1.7822186"><ele>409.0</ele><time>2026-04-18T07:07:06.999Z</time></trkpt><trkpt lat="53.3296364" lon="-1.7823036"><ele>409.0</ele><time>2026-04-18T07:08:02Z</time></trkpt><trkpt lat="53.3296487" lon="-1.7824115"><ele>409.00000000000006</ele><time>2026-04-18T07:08:03.005Z</time></trkpt><trkpt lat="53.3296837" lon="-1.7825517"><ele>409.0</ele><time>2026-04-18T07:08:04.001Z</time></trkpt><trkpt lat="53.3297344" lon="-1.7827041"><ele>410.2</ele><time>2026-04-18T07:08:04.995Z</time></trkpt><trkpt lat="53.3297968" lon="-1.782851"><ele>411.4</ele><time>2026-04-18T07:08:06.002Z</time></trkpt><trkpt lat="53.3298693" lon="-1.782978"><ele>412.6</ele><time>2026-04-18T07:08:07Z</time></trkpt><trkpt lat="53.3299469" lon="-1.7830861"><ele>413.8</ele><time>2026-04-18T07:08:08.002Z</time></trkpt><trkpt lat="53.3300166" lon="-1.7831663"><ele>415.0</ele><time>2026-04-18T07:08:09Z</time></trkpt><trkpt lat="53.3300723" lon="-1.7832262"><ele>415.0</ele><time>2026-04-18T07:08:10.001Z</time></trkpt><trkpt lat="53.330129" lon="-1.783344"><ele>415.0</ele><time>2026-04-18T07:08:12Z</time></trkpt><trkpt lat="53.3300851" lon="-1.7835519"><ele>415.0</ele><time>2026-04-18T07:08:14.001Z</time></trkpt><trkpt lat="53.3300399" lon="-1.7836823"><ele>415.0</ele><time>2026-04-18T07:08:15Z</time></trkpt><trkpt lat="53.3299884" lon="-1.7838155"><ele>415.0</ele><time>2026-04-18T07:08:15.999Z</time></trkpt><trkpt lat="53.3299372" lon="-1.7839463"><ele>415.4</ele><time>2026-04-18T07:08:16.999Z</time></trkpt><trkpt lat="53.32989" lon="-1.7840759"><ele>415.8</ele><time>2026-04-18T07:08:18Z</time></trkpt><trkpt lat="53.3298433" lon="-1.7842109"><ele>416.20000000000005</ele><time>2026-04-18T07:08:19Z</time></trkpt><trkpt lat="53.3298013" lon="-1.7843583"><ele>416.6</ele><time>2026-04-18T07:08:20.002Z</time></trkpt><trkpt lat="53.3297597" lon="-1.7845152"><ele>417.0</ele><time>2026-04-18T07:08:21Z</time></trkpt><trkpt lat="53.3297151" lon="-1.7846755"><ele>417.20000000000005</ele><time>2026-04-18T07:08:21.999Z</time></trkpt><trkpt lat="53.3296597" lon="-1.7848276"><ele>417.4</ele><time>2026-04-18T07:08:23.003Z</time></trkpt><trkpt lat="53.3295872" lon="-1.7849563"><ele>417.6</ele><time>2026-04-18T07:08:23.999Z</time></trkpt><trkpt lat="53.329503" lon="-1.7850581"><ele>417.79999999999995</ele><time>2026-04-18T07:08:25Z</time></trkpt><trkpt lat="53.3294101" lon="-1.785147"><ele>418.0</ele><time>2026-04-18T07:08:26.004Z</time></trkpt><trkpt lat="53.32931" lon="-1.7852363"><ele>417.25</ele><time>2026-04-18T07:08:27Z</time></trkpt><trkpt lat="53.3292085" lon="-1.7853345"><ele>416.5</ele><time>2026-04-18T07:08:28.001Z</time></trkpt><trkpt lat="53.329106" lon="-1.7854367"><ele>415.75</ele><time>2026-04-18T07:08:29.001Z</time></trkpt><trkpt lat="53.3290054" lon="-1.7855413"><ele>415.0</ele><time>2026-04-18T07:08:30.001Z</time></trkpt><trkpt lat="53.3289113" lon="-1.7856488"><ele>416.4</ele><time>2026-04-18T07:08:31.002Z</time></trkpt><trkpt lat="53.3288286" lon="-1.7857639"><ele>417.8</ele><time>2026-04-18T07:08:32.001Z</time></trkpt><trkpt lat="53.328759" lon="-1.7858884"><ele>419.20000000000005</ele><time>2026-04-18T07:08:33.002Z</time></trkpt><trkpt lat="53.3287003" lon="-1.7860241"><ele>420.6</ele><time>2026-04-18T07:08:33.999Z</time></trkpt><trkpt lat="53.3286584" lon="-1.7861805"><ele>422.0</ele><time>2026-04-18T07:08:35.001Z</time></trkpt><trkpt lat="53.3286325" lon="-1.7863639"><ele>423.0</ele><time>2026-04-18T07:08:36Z</time></trkpt><trkpt lat="53.3286207" lon="-1.7865663"><ele>424.0</ele><time>2026-04-18T07:08:37Z</time></trkpt><trkpt lat="53.328615" lon="-1.7867805"><ele>425.0</ele><time>2026-04-18T07:08:37.999Z</time></trkpt><trkpt lat="53.3285971" lon="-1.7869838"><ele>426.0</ele><time>2026-04-18T07:08:38.999Z</time></trkpt><trkpt lat="53.3285567" lon="-1.7871675"><ele>427.0</ele><time>2026-04-18T07:08:40.003Z</time></trkpt><trkpt lat="53.3284896" lon="-1.7873271"><ele>428.0</ele><time>2026-04-18T07:08:40.997Z</time></trkpt><trkpt lat="53.3283956" lon="-1.7874563"><ele>429.0</ele><time>2026-04-18T07:08:41.999Z</time></trkpt><trkpt lat="53.3282965" lon="-1.7875752"><ele>430.0</ele><time>2026-04-18T07:08:42.999Z</time></trkpt><trkpt lat="53.3282009" lon="-1.7876924"><ele>430.0</ele><time>2026-04-18T07:08:43.999Z</time></trkpt><trkpt lat="53.3281172" lon="-1.7878187"><ele>430.0</ele><time>2026-04-18T07:08:44.999Z</time></trkpt><trkpt lat="53.3280407" lon="-1.7879493"><ele>430.0</ele><time>2026-04-18T07:08:45.999Z</time></trkpt><trkpt lat="53.3279678" lon="-1.7880574"><ele>430.0</ele><time>2026-04-18T07:08:47Z</time></trkpt><trkpt lat="53.3279047" lon="-1.7881498"><ele>430.0</ele><time>2026-04-18T07:08:48.001Z</time></trkpt><trkpt lat="53.3278482" lon="-1.7882378"><ele>430.00000000000006</ele><time>2026-04-18T07:08:49Z</time></trkpt><trkpt lat="53.3277925" lon="-1.7883307"><ele>430.0</ele><time>2026-04-18T07:08:49.999Z</time></trkpt><trkpt lat="53.3277447" lon="-1.7884279"><ele>430.0</ele><time>2026-04-18T07:08:51Z</time></trkpt><trkpt lat="53.3277139" lon="-1.788526"><ele>430.0</ele><time>2026-04-18T07:08:51.998Z</time></trkpt><trkpt lat="53.3277" lon="-1.7886321"><ele>430.00000000000006</ele><time>2026-04-18T07:08:52.997Z</time></trkpt><trkpt lat="53.3276986" lon="-1.7887699"><ele>430.0</ele><time>2026-04-18T07:08:54.001Z</time></trkpt><trkpt lat="53.3277033" lon="-1.7889335"><ele>430.0</ele><time>2026-04-18T07:08:55Z</time></trkpt><trkpt lat="53.3277147" lon="-1.7891152"><ele>430.0</ele><time>2026-04-18T07:08:56Z</time></trkpt><trkpt lat="53.3277239" lon="-1.7893137"><ele>430.0</ele><time>2026-04-18T07:08:57.001Z</time></trkpt><trkpt lat="53.32773" lon="-1.789526"><ele>430.0</ele><time>2026-04-18T07:08:58.001Z</time></trkpt><trkpt lat="53.3277352" lon="-1.7897428"><ele>430.25</ele><time>2026-04-18T07:08:58.999Z</time></trkpt><trkpt lat="53.3277415" lon="-1.7899576"><ele>430.5</ele><time>2026-04-18T07:09:00.001Z</time></trkpt><trkpt lat="53.3277483" lon="-1.7901617"><ele>430.75</ele><time>2026-04-18T07:09:01Z</time></trkpt><trkpt lat="53.327754" lon="-1.7903503"><ele>431.0</ele><time>2026-04-18T07:09:02Z</time></trkpt><trkpt lat="53.3277569" lon="-1.7905276"><ele>430.6</ele><time>2026-04-18T07:09:03.004Z</time></trkpt><trkpt lat="53.327762" lon="-1.7906928"><ele>430.20000000000005</ele><time>2026-04-18T07:09:04.001Z</time></trkpt><trkpt lat="53.3277685" lon="-1.7908446"><ele>429.79999999999995</ele><time>2026-04-18T07:09:04.999Z</time></trkpt><trkpt lat="53.3277757" lon="-1.7909951"><ele>429.4</ele><time>2026-04-18T07:09:05.998Z</time></trkpt><trkpt lat="53.3277815" lon="-1.7911485"><ele>429.0</ele><time>2026-04-18T07:09:07.002Z</time></trkpt><trkpt lat="53.3277849" lon="-1.7913033"><ele>429.0</ele><time>2026-04-18T07:09:08Z</time></trkpt><trkpt lat="53.3277926" lon="-1.7914651"><ele>429.0</ele><time>2026-04-18T07:09:09.001Z</time></trkpt><trkpt lat="53.327816" lon="-1.7916369"><ele>429.0</ele><time>2026-04-18T07:09:10Z</time></trkpt><trkpt lat="53.3278565" lon="-1.7918089"><ele>429.0</ele><time>2026-04-18T07:09:10.997Z</time></trkpt><trkpt lat="53.3279067" lon="-1.7919611"><ele>429.0</ele><time>2026-04-18T07:09:12.001Z</time></trkpt><trkpt lat="53.3279529" lon="-1.792088"><ele>428.6666666666667</ele><time>2026-04-18T07:09:13.002Z</time></trkpt><trkpt lat="53.3279898" lon="-1.792187"><ele>428.33333333333337</ele><time>2026-04-18T07:09:14.002Z</time></trkpt><trkpt lat="53.3280325" lon="-1.7923136"><ele>428.0</ele><time>2026-04-18T07:09:16Z</time></trkpt><trkpt lat="53.3280269" lon="-1.7924213"><ele>427.6666666666667</ele><time>2026-04-18T07:09:23.999Z</time></trkpt><trkpt lat="53.3280441" lon="-1.7925647"><ele>427.33333333333337</ele><time>2026-04-18T07:09:37Z</time></trkpt><trkpt lat="53.3280699" lon="-1.7926611"><ele>427.0</ele><time>2026-04-18T07:09:38Z</time></trkpt><trkpt lat="53.3281001" lon="-1.7927987"><ele>427.0</ele><time>2026-04-18T07:09:38.999Z</time></trkpt><trkpt lat="53.3281277" lon="-1.7929681"><ele>427.00000000000006</ele><time>2026-04-18T07:09:40Z</time></trkpt><trkpt lat="53.3281421" lon="-1.7931382"><ele>427.00000000000006</ele><time>2026-04-18T07:09:40.999Z</time></trkpt><trkpt lat="53.3281456" lon="-1.7933109"><ele>427.0</ele><time>2026-04-18T07:09:42Z</time></trkpt><trkpt lat="53.3281442" lon="-1.7934975"><ele>427.0</ele><time>2026-04-18T07:09:43.006Z</time></trkpt><trkpt lat="53.3281415" lon="-1.7936859"><ele>427.0</ele><time>2026-04-18T07:09:44.002Z</time></trkpt><trkpt lat="53.3281443" lon="-1.7938829"><ele>427.0</ele><time>2026-04-18T07:09:45.002Z</time></trkpt><trkpt lat="53.3281461" lon="-1.7940825"><ele>427.0</ele><time>2026-04-18T07:09:46.001Z</time></trkpt><trkpt lat="53.3281461" lon="-1.7942912"><ele>427.0</ele><time>2026-04-18T07:09:47.004Z</time></trkpt><trkpt lat="53.3281478" lon="-1.7944982"><ele>427.25</ele><time>2026-04-18T07:09:48.002Z</time></trkpt><trkpt lat="53.3281481" lon="-1.7947014"><ele>427.5</ele><time>2026-04-18T07:09:49.001Z</time></trkpt><trkpt lat="53.3281529" lon="-1.7949018"><ele>427.75</ele><time>2026-04-18T07:09:50.002Z</time></trkpt><trkpt lat="53.328161" lon="-1.7950939"><ele>428.0</ele><time>2026-04-18T07:09:50.999Z</time></trkpt><trkpt lat="53.3281733" lon="-1.7952789"><ele>427.5</ele><time>2026-04-18T07:09:52.001Z</time></trkpt><trkpt lat="53.3281935" lon="-1.7954619"><ele>427.0</ele><time>2026-04-18T07:09:53.005Z</time></trkpt><trkpt lat="53.3282262" lon="-1.7956508"><ele>426.5</ele><time>2026-04-18T07:09:54.004Z</time></trkpt><trkpt lat="53.3282664" lon="-1.7958495"><ele>426.0</ele><time>2026-04-18T07:09:55Z</time></trkpt><trkpt lat="53.3283096" lon="-1.7960625"><ele>425.66666666666663</ele><time>2026-04-18T07:09:56.002Z</time></trkpt><trkpt lat="53.3283551" lon="-1.7962945"><ele>425.3333333333333</ele><time>2026-04-18T07:09:57.001Z</time></trkpt><trkpt lat="53.3283959" lon="-1.7965503"><ele>425.0</ele><time>2026-04-18T07:09:58.003Z</time></trkpt><trkpt lat="53.3284318" lon="-1.7968093"><ele>424.5</ele><time>2026-04-18T07:09:59.001Z</time></trkpt><trkpt lat="53.3284626" lon="-1.7970491"><ele>424.0</ele><time>2026-04-18T07:10:00.002Z</time></trkpt><trkpt lat="53.3284852" lon="-1.7972586"><ele>423.5</ele><time>2026-04-18T07:10:01Z</time></trkpt><trkpt lat="53.3285049" lon="-1.7974395"><ele>423.0</ele><time>2026-04-18T07:10:02.002Z</time></trkpt><trkpt lat="53.3285212" lon="-1.7976103"><ele>423.0</ele><time>2026-04-18T07:10:03.005Z</time></trkpt><trkpt lat="53.3285364" lon="-1.7977851"><ele>423.0</ele><time>2026-04-18T07:10:04.002Z</time></trkpt><trkpt lat="53.3285528" lon="-1.7979636"><ele>423.0</ele><time>2026-04-18T07:10:05.003Z</time></trkpt><trkpt lat="53.3285756" lon="-1.798142"><ele>423.0</ele><time>2026-04-18T07:10:06.003Z</time></trkpt><trkpt lat="53.3286119" lon="-1.7983181"><ele>423.0</ele><time>2026-04-18T07:10:07.001Z</time></trkpt><trkpt lat="53.3286621" lon="-1.7985024"><ele>423.0</ele><time>2026-04-18T07:10:08.003Z</time></trkpt><trkpt lat="53.3287201" lon="-1.7987073"><ele>423.0</ele><time>2026-04-18T07:10:09.003Z</time></trkpt><trkpt lat="53.3287824" lon="-1.7989341"><ele>423.0</ele><time>2026-04-18T07:10:10.004Z</time></trkpt><trkpt lat="53.328847" lon="-1.7991792"><ele>423.0</ele><time>2026-04-18T07:10:11Z</time></trkpt><trkpt lat="53.3289104" lon="-1.7994217"><ele>423.0</ele><time>2026-04-18T07:10:11.999Z</time></trkpt><trkpt lat="53.3289668" lon="-1.7996463"><ele>423.0</ele><time>2026-04-18T07:10:13.008Z</time></trkpt><trkpt lat="53.3290151" lon="-1.799849"><ele>423.0</ele><time>2026-04-18T07:10:14.003Z</time></trkpt><trkpt lat="53.3290581" lon="-1.8000327"><ele>423.0</ele><time>2026-04-18T07:10:15.002Z</time></trkpt><trkpt lat="53.3290943" lon="-1.8002203"><ele>423.2</ele><time>2026-04-18T07:10:15.999Z</time></trkpt><trkpt lat="53.3291152" lon="-1.8004158"><ele>423.4</ele><time>2026-04-18T07:10:16.992Z</time></trkpt><trkpt lat="53.3291235" lon="-1.8005962"><ele>423.59999999999997</ele><time>2026-04-18T07:10:17.993Z</time></trkpt><trkpt lat="53.3291262" lon="-1.8007511"><ele>423.79999999999995</ele><time>2026-04-18T07:10:18.993Z</time></trkpt><trkpt lat="53.329129" lon="-1.8008818"><ele>424.0</ele><time>2026-04-18T07:10:19.986Z</time></trkpt><trkpt lat="53.3291587" lon="-1.8010642"><ele>424.4</ele><time>2026-04-18T07:10:21.985Z</time></trkpt><trkpt lat="53.3292139" lon="-1.8011276"><ele>424.79999999999995</ele><time>2026-04-18T07:10:22.986Z</time></trkpt><trkpt lat="53.3292991" lon="-1.8011823"><ele>425.20000000000005</ele><time>2026-04-18T07:10:23.989Z</time></trkpt><trkpt lat="53.3294051" lon="-1.8012461"><ele>425.6</ele><time>2026-04-18T07:10:24.988Z</time></trkpt><trkpt lat="53.3295233" lon="-1.8013191"><ele>426.0</ele><time>2026-04-18T07:10:25.989Z</time></trkpt><trkpt lat="53.3296529" lon="-1.8014033"><ele>425.75</ele><time>2026-04-18T07:10:26.995Z</time></trkpt><trkpt lat="53.3297849" lon="-1.8014945"><ele>425.5</ele><time>2026-04-18T07:10:27.992Z</time></trkpt><trkpt lat="53.329918" lon="-1.801589"><ele>425.25</ele><time>2026-04-18T07:10:29.002Z</time></trkpt><trkpt lat="53.3300444" lon="-1.8016774"><ele>425.0</ele><time>2026-04-18T07:10:29.993Z</time></trkpt><trkpt lat="53.3301673" lon="-1.8017696"><ele>425.5</ele><time>2026-04-18T07:10:30.988Z</time></trkpt><trkpt lat="53.330286" lon="-1.8018604"><ele>426.0</ele><time>2026-04-18T07:10:31.996Z</time></trkpt><trkpt lat="53.3304094" lon="-1.8019466"><ele>426.5</ele><time>2026-04-18T07:10:32.997Z</time></trkpt><trkpt lat="53.3305393" lon="-1.8020311"><ele>427.0</ele><time>2026-04-18T07:10:34.002Z</time></trkpt><trkpt lat="53.3306744" lon="-1.8021242"><ele>427.0</ele><time>2026-04-18T07:10:35.003Z</time></trkpt><trkpt lat="53.3308043" lon="-1.8022251"><ele>427.0</ele><time>2026-04-18T07:10:36.003Z</time></trkpt><trkpt lat="53.330929" lon="-1.8023348"><ele>427.0</ele><time>2026-04-18T07:10:36.995Z</time></trkpt><trkpt lat="53.3310509" lon="-1.8024525"><ele>427.0</ele><time>2026-04-18T07:10:37.997Z</time></trkpt><trkpt lat="53.33117" lon="-1.8025701"><ele>427.5</ele><time>2026-04-18T07:10:38.999Z</time></trkpt><trkpt lat="53.3312869" lon="-1.8026808"><ele>428.0</ele><time>2026-04-18T07:10:40Z</time></trkpt><trkpt lat="53.3314059" lon="-1.8027892"><ele>428.5</ele><time>2026-04-18T07:10:40.999Z</time></trkpt><trkpt lat="53.331526" lon="-1.8029007"><ele>429.0</ele><time>2026-04-18T07:10:41.998Z</time></trkpt><trkpt lat="53.3316519" lon="-1.8030198"><ele>429.5</ele><time>2026-04-18T07:10:43.004Z</time></trkpt><trkpt lat="53.3317812" lon="-1.8031384"><ele>430.0</ele><time>2026-04-18T07:10:44.001Z</time></trkpt><trkpt lat="53.3319153" lon="-1.8032576"><ele>430.5</ele><time>2026-04-18T07:10:45.001Z</time></trkpt><trkpt lat="53.3320466" lon="-1.8033767"><ele>431.0</ele><time>2026-04-18T07:10:46Z</time></trkpt><trkpt lat="53.3321717" lon="-1.8034894"><ele>431.5</ele><time>2026-04-18T07:10:47.003Z</time></trkpt><trkpt lat="53.332294" lon="-1.8035957"><ele>432.0</ele><time>2026-04-18T07:10:48Z</time></trkpt><trkpt lat="53.3324175" lon="-1.8037032"><ele>432.5</ele><time>2026-04-18T07:10:48.999Z</time></trkpt><trkpt lat="53.3325371" lon="-1.8038057"><ele>433.0</ele><time>2026-04-18T07:10:49.992Z</time></trkpt><trkpt lat="53.3326584" lon="-1.8039123"><ele>433.0</ele><time>2026-04-18T07:10:51Z</time></trkpt><trkpt lat="53.3327893" lon="-1.8040256"><ele>433.0</ele><time>2026-04-18T07:10:51.997Z</time></trkpt><trkpt lat="53.3329246" lon="-1.8041426"><ele>433.0</ele><time>2026-04-18T07:10:52.991Z</time></trkpt><trkpt lat="53.3330644" lon="-1.8042582"><ele>435.0</ele><time>2026-04-18T07:10:53.998Z</time></trkpt><trkpt lat="53.3332079" lon="-1.8043734"><ele>437.0</ele><time>2026-04-18T07:10:55.001Z</time></trkpt><trkpt lat="53.3333557" lon="-1.804493"><ele>439.0</ele><time>2026-04-18T07:10:56Z</time></trkpt><trkpt lat="53.3335018" lon="-1.8046065"><ele>439.0</ele><time>2026-04-18T07:10:56.998Z</time></trkpt><trkpt lat="53.3336347" lon="-1.8047018"><ele>439.0</ele><time>2026-04-18T07:10:57.995Z</time></trkpt><trkpt lat="53.3337497" lon="-1.8047804"><ele>439.0</ele><time>2026-04-18T07:10:58.991Z</time></trkpt><trkpt lat="53.3338478" lon="-1.8048432"><ele>439.0</ele><time>2026-04-18T07:10:59.999Z</time></trkpt><trkpt lat="53.3339214" lon="-1.8048763"><ele>439.1666666666667</ele><time>2026-04-18T07:11:01.002Z</time></trkpt><trkpt lat="53.3340049" lon="-1.8048936"><ele>439.33333333333337</ele><time>2026-04-18T07:11:03.006Z</time></trkpt><trkpt lat="53.3340614" lon="-1.8049494"><ele>439.5</ele><time>2026-04-18T07:11:38.012Z</time></trkpt><trkpt lat="53.3341327" lon="-1.8050014"><ele>439.66666666666663</ele><time>2026-04-18T07:12:30.997Z</time></trkpt><trkpt lat="53.3342056" lon="-1.8050458"><ele>439.8333333333333</ele><time>2026-04-18T07:12:31.998Z</time></trkpt><trkpt lat="53.3342945" lon="-1.805101"><ele>440.0</ele><time>2026-04-18T07:12:33.001Z</time></trkpt><trkpt lat="53.3343961" lon="-1.8051712"><ele>441.0</ele><time>2026-04-18T07:12:33.998Z</time></trkpt><trkpt lat="53.3345042" lon="-1.8052501"><ele>442.0</ele><time>2026-04-18T07:12:35.001Z</time></trkpt><trkpt lat="53.3346129" lon="-1.8053485"><ele>443.0</ele><time>2026-04-18T07:12:36Z</time></trkpt><trkpt lat="53.334728" lon="-1.8054518"><ele>444.0</ele><time>2026-04-18T07:12:36.999Z</time></trkpt><trkpt lat="53.334849" lon="-1.8055517"><ele>444.0</ele><time>2026-04-18T07:12:37.999Z</time></trkpt><trkpt lat="53.3349679" lon="-1.8056425"><ele>444.0</ele><time>2026-04-18T07:12:39Z</time></trkpt><trkpt lat="53.3350921" lon="-1.8057442"><ele>444.0</ele><time>2026-04-18T07:12:40.001Z</time></trkpt><trkpt lat="53.3352125" lon="-1.8058566"><ele>444.0</ele><time>2026-04-18T07:12:41Z</time></trkpt><trkpt lat="53.3353292" lon="-1.8059732"><ele>444.5</ele><time>2026-04-18T07:12:41.998Z</time></trkpt><trkpt lat="53.3354474" lon="-1.8060898"><ele>445.0</ele><time>2026-04-18T07:12:43.004Z</time></trkpt><trkpt lat="53.3355706" lon="-1.8062055"><ele>445.5</ele><time>2026-04-18T07:12:44Z</time></trkpt><trkpt lat="53.3356962" lon="-1.8063228"><ele>446.0</ele><time>2026-04-18T07:12:44.999Z</time></trkpt><trkpt lat="53.3358246" lon="-1.8064446"><ele>444.66666666666663</ele><time>2026-04-18T07:12:45.999Z</time></trkpt><trkpt lat="53.335955" lon="-1.8065711"><ele>443.33333333333337</ele><time>2026-04-18T07:12:47Z</time></trkpt><trkpt lat="53.3360884" lon="-1.806705"><ele>442.0</ele><time>2026-04-18T07:12:48Z</time></trkpt><trkpt lat="53.3362251" lon="-1.8068424"><ele>442.0</ele><time>2026-04-18T07:12:49Z</time></trkpt><trkpt lat="53.3363565" lon="-1.8069731"><ele>442.0</ele><time>2026-04-18T07:12:50Z</time></trkpt><trkpt lat="53.3364752" lon="-1.8070968"><ele>442.0</ele><time>2026-04-18T07:12:50.998Z</time></trkpt><trkpt lat="53.3365847" lon="-1.807219"><ele>442.0</ele><time>2026-04-18T07:12:51.999Z</time></trkpt><trkpt lat="53.3366897" lon="-1.80733"><ele>441.0</ele><time>2026-04-18T07:12:53Z</time></trkpt><trkpt lat="53.3367903" lon="-1.8074254"><ele>440.0</ele><time>2026-04-18T07:12:53.999Z</time></trkpt><trkpt lat="53.3368892" lon="-1.807514"><ele>439.0</ele><time>2026-04-18T07:12:55Z</time></trkpt><trkpt lat="53.3369913" lon="-1.8076043"><ele>438.0</ele><time>2026-04-18T07:12:56Z</time></trkpt><trkpt lat="53.3370951" lon="-1.8077026"><ele>438.0</ele><time>2026-04-18T07:12:56.999Z</time></trkpt><trkpt lat="53.3371983" lon="-1.8078057"><ele>438.0</ele><time>2026-04-18T07:12:58Z</time></trkpt><trkpt lat="53.3373034" lon="-1.8079123"><ele>438.0</ele><time>2026-04-18T07:12:59.001Z</time></trkpt><trkpt lat="53.337413" lon="-1.8080272"><ele>438.0</ele><time>2026-04-18T07:12:59.994Z</time></trkpt><trkpt lat="53.337529" lon="-1.8081567"><ele>436.33333333333337</ele><time>2026-04-18T07:13:01Z</time></trkpt><trkpt lat="53.3376562" lon="-1.8082968"><ele>434.6666666666667</ele><time>2026-04-18T07:13:02Z</time></trkpt><trkpt lat="53.3377935" lon="-1.8084384"><ele>433.0</ele><time>2026-04-18T07:13:03.002Z</time></trkpt><trkpt lat="53.3379427" lon="-1.8085918"><ele>432.0</ele><time>2026-04-18T07:13:03.999Z</time></trkpt><trkpt lat="53.3381047" lon="-1.8087459"><ele>431.0</ele><time>2026-04-18T07:13:05.004Z</time></trkpt><trkpt lat="53.3382779" lon="-1.8089017"><ele>430.0</ele><time>2026-04-18T07:13:06.002Z</time></trkpt><trkpt lat="53.3384515" lon="-1.8090588"><ele>430.0</ele><time>2026-04-18T07:13:07Z</time></trkpt><trkpt lat="53.3386166" lon="-1.8092064"><ele>430.0</ele><time>2026-04-18T07:13:08Z</time></trkpt><trkpt lat="53.3387664" lon="-1.8093422"><ele>430.0</ele><time>2026-04-18T07:13:09.001Z</time></trkpt><trkpt lat="53.3388983" lon="-1.8094699"><ele>429.5</ele><time>2026-04-18T07:13:10.002Z</time></trkpt><trkpt lat="53.339014" lon="-1.809578"><ele>429.0</ele><time>2026-04-18T07:13:10.992Z</time></trkpt><trkpt lat="53.3391276" lon="-1.8096862"><ele>428.5</ele><time>2026-04-18T07:13:12Z</time></trkpt><trkpt lat="53.339243" lon="-1.8097974"><ele>428.0</ele><time>2026-04-18T07:13:13.004Z</time></trkpt><trkpt lat="53.3393611" lon="-1.8099113"><ele>428.0</ele><time>2026-04-18T07:13:14.002Z</time></trkpt><trkpt lat="53.3394857" lon="-1.8100286"><ele>428.0</ele><time>2026-04-18T07:13:15.001Z</time></trkpt><trkpt lat="53.3396153" lon="-1.8101489"><ele>428.0</ele><time>2026-04-18T07:13:16.001Z</time></trkpt><trkpt lat="53.33975" lon="-1.8102783"><ele>428.0</ele><time>2026-04-18T07:13:17.003Z</time></trkpt><trkpt lat="53.3398752" lon="-1.8103992"><ele>426.59999999999997</ele><time>2026-04-18T07:13:17.993Z</time></trkpt><trkpt lat="53.3399854" lon="-1.8105057"><ele>425.19999999999993</ele><time>2026-04-18T07:13:19.001Z</time></trkpt><trkpt lat="53.3400812" lon="-1.810603"><ele>423.8</ele><time>2026-04-18T07:13:20.001Z</time></trkpt><trkpt lat="53.340168" lon="-1.8106908"><ele>422.4</ele><time>2026-04-18T07:13:21.002Z</time></trkpt><trkpt lat="53.3402457" lon="-1.8107691"><ele>421.0</ele><time>2026-04-18T07:13:22.001Z</time></trkpt><trkpt lat="53.3403184" lon="-1.8108402"><ele>421.00000000000006</ele><time>2026-04-18T07:13:23.005Z</time></trkpt><trkpt lat="53.3403889" lon="-1.8109016"><ele>421.0</ele><time>2026-04-18T07:13:24.002Z</time></trkpt><trkpt lat="53.3404606" lon="-1.8109591"><ele>421.0</ele><time>2026-04-18T07:13:25.002Z</time></trkpt><trkpt lat="53.3405262" lon="-1.8110081"><ele>421.0</ele><time>2026-04-18T07:13:26Z</time></trkpt><trkpt lat="53.340586" lon="-1.8110543"><ele>421.00000000000006</ele><time>2026-04-18T07:13:27.002Z</time></trkpt><trkpt lat="53.3406808" lon="-1.8111219"><ele>421.0</ele><time>2026-04-18T07:13:29Z</time></trkpt><trkpt lat="53.3407116" lon="-1.8112315"><ele>420.0</ele><time>2026-04-18T07:13:32.002Z</time></trkpt><trkpt lat="53.3406115" lon="-1.8114097"><ele>419.0</ele><time>2026-04-18T07:13:34.002Z</time></trkpt><trkpt lat="53.3405152" lon="-1.8115188"><ele>418.0</ele><time>2026-04-18T07:13:35.001Z</time></trkpt><trkpt lat="53.3404097" lon="-1.8116433"><ele>417.0</ele><time>2026-04-18T07:13:36.009Z</time></trkpt><trkpt lat="53.340301" lon="-1.8117802"><ele>415.75</ele><time>2026-04-18T07:13:37.003Z</time></trkpt><trkpt lat="53.3401888" lon="-1.8119324"><ele>414.5</ele><time>2026-04-18T07:13:38.002Z</time></trkpt><trkpt lat="53.3400772" lon="-1.8120937"><ele>413.25</ele><time>2026-04-18T07:13:39.002Z</time></trkpt><trkpt lat="53.3399689" lon="-1.8122613"><ele>412.0</ele><time>2026-04-18T07:13:40.003Z</time></trkpt><trkpt lat="53.339864" lon="-1.8124338"><ele>412.0</ele><time>2026-04-18T07:13:41Z</time></trkpt><trkpt lat="53.339763" lon="-1.8126031"><ele>412.0</ele><time>2026-04-18T07:13:42Z</time></trkpt><trkpt lat="53.3396664" lon="-1.8127812"><ele>412.0</ele><time>2026-04-18T07:13:43.002Z</time></trkpt><trkpt lat="53.3395781" lon="-1.8129867"><ele>412.0</ele><time>2026-04-18T07:13:44Z</time></trkpt><trkpt lat="53.3395029" lon="-1.8132238"><ele>413.33333333333337</ele><time>2026-04-18T07:13:45.001Z</time></trkpt><trkpt lat="53.339442" lon="-1.8134803"><ele>414.66666666666663</ele><time>2026-04-18T07:13:46.002Z</time></trkpt><trkpt lat="53.339389" lon="-1.813731"><ele>416.0</ele><time>2026-04-18T07:13:46.995Z</time></trkpt><trkpt lat="53.3393392" lon="-1.8139678"><ele>416.0</ele><time>2026-04-18T07:13:48.004Z</time></trkpt><trkpt lat="53.3392864" lon="-1.8141951"><ele>416.0</ele><time>2026-04-18T07:13:48.999Z</time></trkpt><trkpt lat="53.3392286" lon="-1.8144241"><ele>416.0</ele><time>2026-04-18T07:13:50.001Z</time></trkpt><trkpt lat="53.3391627" lon="-1.8146665"><ele>416.0</ele><time>2026-04-18T07:13:50.999Z</time></trkpt><trkpt lat="53.33909" lon="-1.8149265"><ele>416.0</ele><time>2026-04-18T07:13:52Z</time></trkpt><trkpt lat="53.3390116" lon="-1.815208"><ele>416.0</ele><time>2026-04-18T07:13:53Z</time></trkpt><trkpt lat="53.3389255" lon="-1.8155022"><ele>415.66666666666663</ele><time>2026-04-18T07:13:54.001Z</time></trkpt><trkpt lat="53.3388312" lon="-1.8158091"><ele>415.33333333333337</ele><time>2026-04-18T07:13:55.001Z</time></trkpt><trkpt lat="53.3387334" lon="-1.8161247"><ele>415.0</ele><time>2026-04-18T07:13:55.999Z</time></trkpt><trkpt lat="53.3386349" lon="-1.8164447"><ele>414.6666666666667</ele><time>2026-04-18T07:13:56.999Z</time></trkpt><trkpt lat="53.3385355" lon="-1.8167684"><ele>414.33333333333337</ele><time>2026-04-18T07:13:58Z</time></trkpt><trkpt lat="53.3384365" lon="-1.8170894"><ele>414.0</ele><time>2026-04-18T07:13:59.001Z</time></trkpt><trkpt lat="53.3383411" lon="-1.8174033"><ele>414.0</ele><time>2026-04-18T07:14:00.002Z</time></trkpt><trkpt lat="53.3382488" lon="-1.8177126"><ele>414.0</ele><time>2026-04-18T07:14:01Z</time></trkpt><trkpt lat="53.3381572" lon="-1.8180183"><ele>414.0</ele><time>2026-04-18T07:14:02.001Z</time></trkpt><trkpt lat="53.3380647" lon="-1.8183145"><ele>414.0</ele><time>2026-04-18T07:14:03.004Z</time></trkpt><trkpt lat="53.337967" lon="-1.8186054"><ele>414.0</ele><time>2026-04-18T07:14:04.001Z</time></trkpt><trkpt lat="53.3378607" lon="-1.8188884"><ele>414.0</ele><time>2026-04-18T07:14:05.002Z</time></trkpt><trkpt lat="53.3377467" lon="-1.8191626"><ele>413.33333333333337</ele><time>2026-04-18T07:14:06.001Z</time></trkpt><trkpt lat="53.3376263" lon="-1.8194345"><ele>412.6666666666667</ele><time>2026-04-18T07:14:07.001Z</time></trkpt><trkpt lat="53.3374992" lon="-1.8197027"><ele>412.0</ele><time>2026-04-18T07:14:08Z</time></trkpt><trkpt lat="53.3373672" lon="-1.8199674"><ele>412.0</ele><time>2026-04-18T07:14:09.001Z</time></trkpt><trkpt lat="53.3372334" lon="-1.8202337"><ele>412.0</ele><time>2026-04-18T07:14:10.001Z</time></trkpt><trkpt lat="53.3370984" lon="-1.8205036"><ele>412.0</ele><time>2026-04-18T07:14:10.99Z</time></trkpt><trkpt lat="53.3369653" lon="-1.8207748"><ele>410.0</ele><time>2026-04-18T07:14:11.997Z</time></trkpt><trkpt lat="53.3368361" lon="-1.8210489"><ele>408.0</ele><time>2026-04-18T07:14:13Z</time></trkpt><trkpt lat="53.3367129" lon="-1.8213306"><ele>406.0</ele><time>2026-04-18T07:14:13.999Z</time></trkpt><trkpt lat="53.3365913" lon="-1.8216286"><ele>406.0</ele><time>2026-04-18T07:14:14.999Z</time></trkpt><trkpt lat="53.3364773" lon="-1.8219388"><ele>406.0</ele><time>2026-04-18T07:14:15.999Z</time></trkpt><trkpt lat="53.3363682" lon="-1.8222559"><ele>406.0</ele><time>2026-04-18T07:14:16.997Z</time></trkpt><trkpt lat="53.3362613" lon="-1.8225743"><ele>405.0</ele><time>2026-04-18T07:14:17.997Z</time></trkpt><trkpt lat="53.3361568" lon="-1.8228919"><ele>404.0</ele><time>2026-04-18T07:14:18.997Z</time></trkpt><trkpt lat="53.3360514" lon="-1.8232101"><ele>403.0</ele><time>2026-04-18T07:14:19.998Z</time></trkpt><trkpt lat="53.3359424" lon="-1.8235254"><ele>400.33333333333337</ele><time>2026-04-18T07:14:20.996Z</time></trkpt><trkpt lat="53.335833" lon="-1.8238384"><ele>397.66666666666663</ele><time>2026-04-18T07:14:21.997Z</time></trkpt><trkpt lat="53.3357245" lon="-1.824149"><ele>395.0</ele><time>2026-04-18T07:14:23.001Z</time></trkpt><trkpt lat="53.3356158" lon="-1.8244591"><ele>394.66666666666663</ele><time>2026-04-18T07:14:23.997Z</time></trkpt><trkpt lat="53.3355067" lon="-1.8247682"><ele>394.33333333333337</ele><time>2026-04-18T07:14:24.996Z</time></trkpt><trkpt lat="53.3353989" lon="-1.8250792"><ele>394.0</ele><time>2026-04-18T07:14:25.998Z</time></trkpt><trkpt lat="53.3352898" lon="-1.8253903"><ele>394.0</ele><time>2026-04-18T07:14:26.995Z</time></trkpt><trkpt lat="53.3351802" lon="-1.8257006"><ele>394.0</ele><time>2026-04-18T07:14:27.997Z</time></trkpt><trkpt lat="53.3350717" lon="-1.8260095"><ele>394.0</ele><time>2026-04-18T07:14:28.997Z</time></trkpt><trkpt lat="53.3349644" lon="-1.8263204"><ele>395.6666666666667</ele><time>2026-04-18T07:14:29.999Z</time></trkpt><trkpt lat="53.3348547" lon="-1.8266327"><ele>397.33333333333337</ele><time>2026-04-18T07:14:30.997Z</time></trkpt><trkpt lat="53.3347451" lon="-1.8269408"><ele>399.0</ele><time>2026-04-18T07:14:31.997Z</time></trkpt><trkpt lat="53.3346318" lon="-1.8272245"><ele>399.0</ele><time>2026-04-18T07:14:32.999Z</time></trkpt><trkpt lat="53.3345054" lon="-1.8274595"><ele>399.0</ele><time>2026-04-18T07:14:33.997Z</time></trkpt><trkpt lat="53.3343562" lon="-1.8276452"><ele>399.0</ele><time>2026-04-18T07:14:34.996Z</time></trkpt><trkpt lat="53.3341947" lon="-1.8278069"><ele>399.33333333333337</ele><time>2026-04-18T07:14:35.998Z</time></trkpt><trkpt lat="53.3340304" lon="-1.8279696"><ele>399.6666666666667</ele><time>2026-04-18T07:14:36.998Z</time></trkpt><trkpt lat="53.3338703" lon="-1.8281415"><ele>400.0</ele><time>2026-04-18T07:14:37.993Z</time></trkpt><trkpt lat="53.3337121" lon="-1.8283237"><ele>399.0</ele><time>2026-04-18T07:14:38.999Z</time></trkpt><trkpt lat="53.3335494" lon="-1.8284936"><ele>398.0</ele><time>2026-04-18T07:14:40Z</time></trkpt><trkpt lat="53.3333995" lon="-1.8286365"><ele>397.0</ele><time>2026-04-18T07:14:40.998Z</time></trkpt><trkpt lat="53.3332501" lon="-1.8287578"><ele>397.0</ele><time>2026-04-18T07:14:41.998Z</time></trkpt><trkpt lat="53.3331046" lon="-1.828882"><ele>397.0</ele><time>2026-04-18T07:14:42.997Z</time></trkpt><trkpt lat="53.332962" lon="-1.8290104"><ele>397.0</ele><time>2026-04-18T07:14:43.996Z</time></trkpt><trkpt lat="53.332815" lon="-1.829157"><ele>397.33333333333337</ele><time>2026-04-18T07:14:44.996Z</time></trkpt><trkpt lat="53.3326628" lon="-1.8293193"><ele>397.66666666666663</ele><time>2026-04-18T07:14:45.999Z</time></trkpt><trkpt lat="53.332511" lon="-1.8294837"><ele>398.0</ele><time>2026-04-18T07:14:46.998Z</time></trkpt><trkpt lat="53.3323645" lon="-1.8296402"><ele>398.0</ele><time>2026-04-18T07:14:47.999Z</time></trkpt><trkpt lat="53.33223" lon="-1.829789"><ele>398.0</ele><time>2026-04-18T07:14:48.998Z</time></trkpt><trkpt lat="53.3321068" lon="-1.8299398"><ele>398.0</ele><time>2026-04-18T07:14:49.993Z</time></trkpt><trkpt lat="53.3319973" lon="-1.8301118"><ele>395.0</ele><time>2026-04-18T07:14:50.997Z</time></trkpt><trkpt lat="53.3318973" lon="-1.8303124"><ele>392.0</ele><time>2026-04-18T07:14:51.997Z</time></trkpt><trkpt lat="53.3318142" lon="-1.8305436"><ele>389.0</ele><time>2026-04-18T07:14:53Z</time></trkpt><trkpt lat="53.3317371" lon="-1.8307934"><ele>389.66666666666663</ele><time>2026-04-18T07:14:53.997Z</time></trkpt><trkpt lat="53.3316611" lon="-1.8310564"><ele>390.33333333333337</ele><time>2026-04-18T07:14:54.997Z</time></trkpt><trkpt lat="53.331587" lon="-1.8313206"><ele>391.0</ele><time>2026-04-18T07:14:55.998Z</time></trkpt><trkpt lat="53.3315153" lon="-1.8315836"><ele>390.0</ele><time>2026-04-18T07:14:56.996Z</time></trkpt><trkpt lat="53.3314451" lon="-1.8318462"><ele>389.0</ele><time>2026-04-18T07:14:57.997Z</time></trkpt><trkpt lat="53.3313738" lon="-1.8321101"><ele>388.0</ele><time>2026-04-18T07:14:58.996Z</time></trkpt><trkpt lat="53.3312984" lon="-1.8323783"><ele>383.6666666666667</ele><time>2026-04-18T07:14:59.997Z</time></trkpt><trkpt lat="53.3312163" lon="-1.8326476"><ele>379.33333333333337</ele><time>2026-04-18T07:15:00.998Z</time></trkpt><trkpt lat="53.3311292" lon="-1.8329188"><ele>375.0</ele><time>2026-04-18T07:15:01.998Z</time></trkpt><trkpt lat="53.3310398" lon="-1.8331958"><ele>375.0</ele><time>2026-04-18T07:15:02.999Z</time></trkpt><trkpt lat="53.3309508" lon="-1.8334719"><ele>375.0</ele><time>2026-04-18T07:15:03.999Z</time></trkpt><trkpt lat="53.3308621" lon="-1.833736"><ele>375.0</ele><time>2026-04-18T07:15:04.999Z</time></trkpt><trkpt lat="53.3307811" lon="-1.8339821"><ele>375.0</ele><time>2026-04-18T07:15:05.998Z</time></trkpt><trkpt lat="53.3306994" lon="-1.8342193"><ele>375.0</ele><time>2026-04-18T07:15:06.999Z</time></trkpt><trkpt lat="53.3306159" lon="-1.8344561"><ele>375.0</ele><time>2026-04-18T07:15:07.998Z</time></trkpt><trkpt lat="53.3305309" lon="-1.8346905"><ele>374.6666666666667</ele><time>2026-04-18T07:15:08.999Z</time></trkpt><trkpt lat="53.3304476" lon="-1.8349199"><ele>374.33333333333337</ele><time>2026-04-18T07:15:10Z</time></trkpt><trkpt lat="53.3303705" lon="-1.8351484"><ele>374.0</ele><time>2026-04-18T07:15:10.991Z</time></trkpt><trkpt lat="53.3302949" lon="-1.8353772"><ele>374.0</ele><time>2026-04-18T07:15:11.999Z</time></trkpt><trkpt lat="53.3302185" lon="-1.8356191"><ele>374.0</ele><time>2026-04-18T07:15:13.001Z</time></trkpt><trkpt lat="53.3301431" lon="-1.8358758"><ele>374.0</ele><time>2026-04-18T07:15:14.001Z</time></trkpt><trkpt lat="53.3300687" lon="-1.8361432"><ele>374.33333333333337</ele><time>2026-04-18T07:15:15Z</time></trkpt><trkpt lat="53.3299982" lon="-1.8364214"><ele>374.6666666666667</ele><time>2026-04-18T07:15:15.993Z</time></trkpt><trkpt lat="53.3299304" lon="-1.836713"><ele>375.0</ele><time>2026-04-18T07:15:17Z</time></trkpt><trkpt lat="53.3298644" lon="-1.837017"><ele>374.6666666666667</ele><time>2026-04-18T07:15:18.001Z</time></trkpt><trkpt lat="53.3297983" lon="-1.8373327"><ele>374.33333333333337</ele><time>2026-04-18T07:15:18.999Z</time></trkpt><trkpt lat="53.3297253" lon="-1.8376555"><ele>374.0</ele><time>2026-04-18T07:15:19.999Z</time></trkpt><trkpt lat="53.3296442" lon="-1.8379815"><ele>374.0</ele><time>2026-04-18T07:15:20.998Z</time></trkpt><trkpt lat="53.3295605" lon="-1.8383045"><ele>374.0</ele><time>2026-04-18T07:15:21.999Z</time></trkpt><trkpt lat="53.3294795" lon="-1.8386146"><ele>374.0</ele><time>2026-04-18T07:15:22.999Z</time></trkpt><trkpt lat="53.3294003" lon="-1.8389171"><ele>372.33333333333337</ele><time>2026-04-18T07:15:23.999Z</time></trkpt><trkpt lat="53.3293253" lon="-1.8392217"><ele>370.6666666666667</ele><time>2026-04-18T07:15:25Z</time></trkpt><trkpt lat="53.3292559" lon="-1.8395272"><ele>369.0</ele><time>2026-04-18T07:15:25.998Z</time></trkpt><trkpt lat="53.3291976" lon="-1.8398226"><ele>368.3333333333333</ele><time>2026-04-18T07:15:26.998Z</time></trkpt><trkpt lat="53.3291508" lon="-1.8401088"><ele>367.66666666666663</ele><time>2026-04-18T07:15:27.998Z</time></trkpt><trkpt lat="53.3291134" lon="-1.8403994"><ele>367.0</ele><time>2026-04-18T07:15:28.999Z</time></trkpt><trkpt lat="53.3290715" lon="-1.8407001"><ele>366.3333333333333</ele><time>2026-04-18T07:15:29.998Z</time></trkpt><trkpt lat="53.3290294" lon="-1.8410113"><ele>365.6666666666667</ele><time>2026-04-18T07:15:30.999Z</time></trkpt><trkpt lat="53.328984" lon="-1.8413279"><ele>365.0</ele><time>2026-04-18T07:15:31.997Z</time></trkpt><trkpt lat="53.3289427" lon="-1.8416503"><ele>364.6666666666667</ele><time>2026-04-18T07:15:32.999Z</time></trkpt><trkpt lat="53.328898" lon="-1.8419822"><ele>364.3333333333333</ele><time>2026-04-18T07:15:33.997Z</time></trkpt><trkpt lat="53.3288596" lon="-1.8423247"><ele>364.0</ele><time>2026-04-18T07:15:34.999Z</time></trkpt><trkpt lat="53.3288276" lon="-1.8426768"><ele>362.66666666666663</ele><time>2026-04-18T07:15:35.998Z</time></trkpt><trkpt lat="53.3287984" lon="-1.843032"><ele>361.3333333333333</ele><time>2026-04-18T07:15:36.992Z</time></trkpt><trkpt lat="53.328767" lon="-1.8433738"><ele>360.0</ele><time>2026-04-18T07:15:37.998Z</time></trkpt><trkpt lat="53.3287294" lon="-1.8436915"><ele>360.0</ele><time>2026-04-18T07:15:39Z</time></trkpt><trkpt lat="53.3286891" lon="-1.843976"><ele>360.0</ele><time>2026-04-18T07:15:39.999Z</time></trkpt><trkpt lat="53.3286489" lon="-1.8442295"><ele>360.0</ele><time>2026-04-18T07:15:41Z</time></trkpt><trkpt lat="53.3286095" lon="-1.8444754"><ele>359.6666666666667</ele><time>2026-04-18T07:15:41.994Z</time></trkpt><trkpt lat="53.3285726" lon="-1.8447214"><ele>359.33333333333337</ele><time>2026-04-18T07:15:43.005Z</time></trkpt><trkpt lat="53.3285397" lon="-1.8449775"><ele>359.0</ele><time>2026-04-18T07:15:44.002Z</time></trkpt><trkpt lat="53.3285122" lon="-1.8452485"><ele>358.33333333333337</ele><time>2026-04-18T07:15:45.002Z</time></trkpt><trkpt lat="53.328491" lon="-1.8455277"><ele>357.6666666666667</ele><time>2026-04-18T07:15:46.002Z</time></trkpt><trkpt lat="53.3284779" lon="-1.8458109"><ele>357.0</ele><time>2026-04-18T07:15:47.002Z</time></trkpt><trkpt lat="53.3284704" lon="-1.8460907"><ele>356.0</ele><time>2026-04-18T07:15:47.993Z</time></trkpt><trkpt lat="53.3284697" lon="-1.8463479"><ele>355.0</ele><time>2026-04-18T07:15:49.002Z</time></trkpt><trkpt lat="53.3284747" lon="-1.8465912"><ele>354.0</ele><time>2026-04-18T07:15:50.003Z</time></trkpt><trkpt lat="53.3284832" lon="-1.846804"><ele>353.0</ele><time>2026-04-18T07:15:51.003Z</time></trkpt><trkpt lat="53.3284895" lon="-1.8470011"><ele>351.79999999999995</ele><time>2026-04-18T07:15:52.003Z</time></trkpt><trkpt lat="53.32849" lon="-1.8471945"><ele>350.6</ele><time>2026-04-18T07:15:52.999Z</time></trkpt><trkpt lat="53.3284888" lon="-1.8473854"><ele>349.4</ele><time>2026-04-18T07:15:54.001Z</time></trkpt><trkpt lat="53.3284876" lon="-1.8475706"><ele>348.20000000000005</ele><time>2026-04-18T07:15:55.001Z</time></trkpt><trkpt lat="53.328488" lon="-1.8477513"><ele>347.0</ele><time>2026-04-18T07:15:56.002Z</time></trkpt><trkpt lat="53.3284887" lon="-1.8479411"><ele>345.25</ele><time>2026-04-18T07:15:56.994Z</time></trkpt><trkpt lat="53.3284845" lon="-1.8481449"><ele>343.5</ele><time>2026-04-18T07:15:58.002Z</time></trkpt><trkpt lat="53.3284742" lon="-1.8483679"><ele>341.75</ele><time>2026-04-18T07:15:59.001Z</time></trkpt><trkpt lat="53.3284624" lon="-1.8486059"><ele>340.0</ele><time>2026-04-18T07:16:00.001Z</time></trkpt><trkpt lat="53.3284509" lon="-1.8488437"><ele>339.0</ele><time>2026-04-18T07:16:01Z</time></trkpt><trkpt lat="53.328441" lon="-1.8490672"><ele>338.0</ele><time>2026-04-18T07:16:02.001Z</time></trkpt><trkpt lat="53.328427" lon="-1.8492733"><ele>337.0</ele><time>2026-04-18T07:16:03.002Z</time></trkpt><trkpt lat="53.3284097" lon="-1.8494611"><ele>336.0</ele><time>2026-04-18T07:16:03.997Z</time></trkpt><trkpt lat="53.3283885" lon="-1.8496274"><ele>335.1666666666667</ele><time>2026-04-18T07:16:04.997Z</time></trkpt><trkpt lat="53.3283656" lon="-1.849771"><ele>334.3333333333333</ele><time>2026-04-18T07:16:05.997Z</time></trkpt><trkpt lat="53.3283474" lon="-1.8498897"><ele>333.5</ele><time>2026-04-18T07:16:06.998Z</time></trkpt><trkpt lat="53.3283048" lon="-1.8500275"><ele>332.66666666666663</ele><time>2026-04-18T07:16:08.997Z</time></trkpt><trkpt lat="53.3282032" lon="-1.850031"><ele>331.8333333333333</ele><time>2026-04-18T07:16:10.997Z</time></trkpt><trkpt lat="53.3281401" lon="-1.8500037"><ele>331.0</ele><time>2026-04-18T07:16:11.997Z</time></trkpt><trkpt lat="53.3280745" lon="-1.8499687"><ele>331.3333333333333</ele><time>2026-04-18T07:16:13.002Z</time></trkpt><trkpt lat="53.3280116" lon="-1.8499179"><ele>331.66666666666663</ele><time>2026-04-18T07:16:13.997Z</time></trkpt><trkpt lat="53.3279506" lon="-1.8498455"><ele>332.0</ele><time>2026-04-18T07:16:14.999Z</time></trkpt><trkpt lat="53.3278891" lon="-1.8497573"><ele>332.3333333333333</ele><time>2026-04-18T07:16:15.997Z</time></trkpt><trkpt lat="53.3278283" lon="-1.8496499"><ele>332.6666666666667</ele><time>2026-04-18T07:16:16.997Z</time></trkpt><trkpt lat="53.3277676" lon="-1.849524"><ele>333.0</ele><time>2026-04-18T07:16:17.999Z</time></trkpt><trkpt lat="53.3277036" lon="-1.8493666"><ele>332.5</ele><time>2026-04-18T07:16:18.999Z</time></trkpt><trkpt lat="53.3276431" lon="-1.8492034"><ele>332.0</ele><time>2026-04-18T07:16:20.001Z</time></trkpt><trkpt lat="53.3275844" lon="-1.8490224"><ele>331.5</ele><time>2026-04-18T07:16:20.997Z</time></trkpt><trkpt lat="53.3275279" lon="-1.8488285"><ele>331.0</ele><time>2026-04-18T07:16:21.998Z</time></trkpt><trkpt lat="53.3274717" lon="-1.8486279"><ele>331.0</ele><time>2026-04-18T07:16:22.999Z</time></trkpt><trkpt lat="53.327414" lon="-1.8484223"><ele>331.0</ele><time>2026-04-18T07:16:23.997Z</time></trkpt><trkpt lat="53.327356" lon="-1.848225"><ele>331.0</ele><time>2026-04-18T07:16:24.996Z</time></trkpt><trkpt lat="53.327298" lon="-1.8480254"><ele>331.0</ele><time>2026-04-18T07:16:25.999Z</time></trkpt><trkpt lat="53.3272394" lon="-1.8478246"><ele>332.0</ele><time>2026-04-18T07:16:26.998Z</time></trkpt><trkpt lat="53.327178" lon="-1.8476166"><ele>333.0</ele><time>2026-04-18T07:16:27.999Z</time></trkpt><trkpt lat="53.3271086" lon="-1.8474076"><ele>334.0</ele><time>2026-04-18T07:16:28.999Z</time></trkpt><trkpt lat="53.3270357" lon="-1.8471977"><ele>335.0</ele><time>2026-04-18T07:16:29.999Z</time></trkpt><trkpt lat="53.3269618" lon="-1.846991"><ele>333.75</ele><time>2026-04-18T07:16:30.997Z</time></trkpt><trkpt lat="53.3268858" lon="-1.846792"><ele>332.5</ele><time>2026-04-18T07:16:31.996Z</time></trkpt><trkpt lat="53.3268048" lon="-1.8466006"><ele>331.25</ele><time>2026-04-18T07:16:33Z</time></trkpt><trkpt lat="53.3267175" lon="-1.8464155"><ele>330.0</ele><time>2026-04-18T07:16:33.994Z</time></trkpt><trkpt lat="53.3266212" lon="-1.8462391"><ele>330.0</ele><time>2026-04-18T07:16:34.996Z</time></trkpt><trkpt lat="53.3265163" lon="-1.8460613"><ele>330.0</ele><time>2026-04-18T07:16:35.997Z</time></trkpt><trkpt lat="53.3264056" lon="-1.8458737"><ele>330.0</ele><time>2026-04-18T07:16:36.996Z</time></trkpt><trkpt lat="53.326298" lon="-1.8456857"><ele>331.0</ele><time>2026-04-18T07:16:37.996Z</time></trkpt><trkpt lat="53.3261934" lon="-1.8454982"><ele>332.0</ele><time>2026-04-18T07:16:38.996Z</time></trkpt><trkpt lat="53.3260913" lon="-1.8453044"><ele>333.0</ele><time>2026-04-18T07:16:39.998Z</time></trkpt><trkpt lat="53.3259935" lon="-1.8450993"><ele>333.0</ele><time>2026-04-18T07:16:40.994Z</time></trkpt><trkpt lat="53.3259012" lon="-1.8448826"><ele>333.0</ele><time>2026-04-18T07:16:41.995Z</time></trkpt><trkpt lat="53.3258133" lon="-1.8446657"><ele>333.0</ele><time>2026-04-18T07:16:43.001Z</time></trkpt><trkpt lat="53.3257234" lon="-1.8444369"><ele>332.3333333333333</ele><time>2026-04-18T07:16:43.996Z</time></trkpt><trkpt lat="53.3256326" lon="-1.8442108"><ele>331.66666666666663</ele><time>2026-04-18T07:16:44.996Z</time></trkpt><trkpt lat="53.3255409" lon="-1.8439834"><ele>331.0</ele><time>2026-04-18T07:16:45.997Z</time></trkpt><trkpt lat="53.3254522" lon="-1.843748"><ele>331.3333333333333</ele><time>2026-04-18T07:16:46.996Z</time></trkpt><trkpt lat="53.3253679" lon="-1.8435098"><ele>331.6666666666667</ele><time>2026-04-18T07:16:47.996Z</time></trkpt><trkpt lat="53.3252824" lon="-1.8432873"><ele>332.0</ele><time>2026-04-18T07:16:48.996Z</time></trkpt><trkpt lat="53.3251914" lon="-1.8430859"><ele>332.0</ele><time>2026-04-18T07:16:49.997Z</time></trkpt><trkpt lat="53.3250933" lon="-1.8429079"><ele>332.0</ele><time>2026-04-18T07:16:50.998Z</time></trkpt><trkpt lat="53.3249884" lon="-1.8427465"><ele>332.0</ele><time>2026-04-18T07:16:51.996Z</time></trkpt><trkpt lat="53.3248748" lon="-1.8425998"><ele>332.0</ele><time>2026-04-18T07:16:53Z</time></trkpt><trkpt lat="53.3247572" lon="-1.8424687"><ele>332.75</ele><time>2026-04-18T07:16:53.996Z</time></trkpt><trkpt lat="53.3246346" lon="-1.8423498"><ele>333.5</ele><time>2026-04-18T07:16:54.997Z</time></trkpt><trkpt lat="53.3245059" lon="-1.8422428"><ele>334.25</ele><time>2026-04-18T07:16:55.998Z</time></trkpt><trkpt lat="53.324373" lon="-1.8421352"><ele>335.0</ele><time>2026-04-18T07:16:56.997Z</time></trkpt><trkpt lat="53.3242357" lon="-1.8420205"><ele>335.0</ele><time>2026-04-18T07:16:57.999Z</time></trkpt><trkpt lat="53.3240952" lon="-1.8418987"><ele>335.0</ele><time>2026-04-18T07:16:58.997Z</time></trkpt><trkpt lat="53.3239489" lon="-1.8417818"><ele>335.0</ele><time>2026-04-18T07:16:59.997Z</time></trkpt><trkpt lat="53.323793" lon="-1.8416752"><ele>333.0</ele><time>2026-04-18T07:17:00.997Z</time></trkpt><trkpt lat="53.3236352" lon="-1.8415784"><ele>331.0</ele><time>2026-04-18T07:17:01.997Z</time></trkpt><trkpt lat="53.3234723" lon="-1.8414802"><ele>329.0</ele><time>2026-04-18T07:17:03.004Z</time></trkpt><trkpt lat="53.323304" lon="-1.8413781"><ele>329.0</ele><time>2026-04-18T07:17:03.997Z</time></trkpt><trkpt lat="53.3231343" lon="-1.8412822"><ele>329.0</ele><time>2026-04-18T07:17:04.998Z</time></trkpt><trkpt lat="53.3229612" lon="-1.8411924"><ele>329.0</ele><time>2026-04-18T07:17:05.999Z</time></trkpt><trkpt lat="53.3227907" lon="-1.8411042"><ele>329.0</ele><time>2026-04-18T07:17:06.997Z</time></trkpt><trkpt lat="53.3226291" lon="-1.8410116"><ele>329.0</ele><time>2026-04-18T07:17:07.999Z</time></trkpt><trkpt lat="53.3224813" lon="-1.8409139"><ele>329.0</ele><time>2026-04-18T07:17:08.996Z</time></trkpt><trkpt lat="53.3223533" lon="-1.8408118"><ele>328.25</ele><time>2026-04-18T07:17:09.996Z</time></trkpt><trkpt lat="53.3222368" lon="-1.8407047"><ele>327.5</ele><time>2026-04-18T07:17:10.998Z</time></trkpt><trkpt lat="53.3221246" lon="-1.8405977"><ele>326.75</ele><time>2026-04-18T07:17:11.997Z</time></trkpt><trkpt lat="53.3220098" lon="-1.8404873"><ele>326.0</ele><time>2026-04-18T07:17:13.003Z</time></trkpt><trkpt lat="53.3218937" lon="-1.8403762"><ele>325.25</ele><time>2026-04-18T07:17:14Z</time></trkpt><trkpt lat="53.3217771" lon="-1.8402681"><ele>324.5</ele><time>2026-04-18T07:17:15Z</time></trkpt><trkpt lat="53.3216587" lon="-1.8401688"><ele>323.75</ele><time>2026-04-18T07:17:16.002Z</time></trkpt><trkpt lat="53.3215371" lon="-1.8400787"><ele>323.0</ele><time>2026-04-18T07:17:17Z</time></trkpt><trkpt lat="53.3214131" lon="-1.8399888"><ele>323.0</ele><time>2026-04-18T07:17:18.001Z</time></trkpt><trkpt lat="53.3212929" lon="-1.8398856"><ele>323.0</ele><time>2026-04-18T07:17:19Z</time></trkpt><trkpt lat="53.321177" lon="-1.8397601"><ele>323.0</ele><time>2026-04-18T07:17:19.998Z</time></trkpt><trkpt lat="53.3210622" lon="-1.8396102"><ele>323.0</ele><time>2026-04-18T07:17:21.001Z</time></trkpt><trkpt lat="53.3209449" lon="-1.8394446"><ele>323.0</ele><time>2026-04-18T07:17:22.002Z</time></trkpt><trkpt lat="53.3208309" lon="-1.8392732"><ele>323.0</ele><time>2026-04-18T07:17:23.006Z</time></trkpt><trkpt lat="53.3207216" lon="-1.8391077"><ele>323.0</ele><time>2026-04-18T07:17:24.002Z</time></trkpt><trkpt lat="53.3206124" lon="-1.8389508"><ele>323.0</ele><time>2026-04-18T07:17:24.996Z</time></trkpt><trkpt lat="53.3205074" lon="-1.8387989"><ele>323.25</ele><time>2026-04-18T07:17:26.004Z</time></trkpt><trkpt lat="53.3204105" lon="-1.8386327"><ele>323.5</ele><time>2026-04-18T07:17:27.004Z</time></trkpt><trkpt lat="53.3203199" lon="-1.8384426"><ele>323.75</ele><time>2026-04-18T07:17:28.005Z</time></trkpt><trkpt lat="53.3202328" lon="-1.8382279"><ele>324.0</ele><time>2026-04-18T07:17:29.004Z</time></trkpt><trkpt lat="53.320142" lon="-1.8379942"><ele>323.3333333333333</ele><time>2026-04-18T07:17:30.004Z</time></trkpt><trkpt lat="53.3200468" lon="-1.8377446"><ele>322.66666666666663</ele><time>2026-04-18T07:17:31.004Z</time></trkpt><trkpt lat="53.3199417" lon="-1.8374628"><ele>322.0</ele><time>2026-04-18T07:17:32.004Z</time></trkpt><trkpt lat="53.3198191" lon="-1.8371483"><ele>321.5</ele><time>2026-04-18T07:17:33.006Z</time></trkpt><trkpt lat="53.3196863" lon="-1.8368221"><ele>321.0</ele><time>2026-04-18T07:17:34.003Z</time></trkpt><trkpt lat="53.3195552" lon="-1.8365147"><ele>321.0</ele><time>2026-04-18T07:17:35.002Z</time></trkpt><trkpt lat="53.3194325" lon="-1.8362469"><ele>321.0</ele><time>2026-04-18T07:17:36.001Z</time></trkpt><trkpt lat="53.319324" lon="-1.8360202"><ele>321.0</ele><time>2026-04-18T07:17:37Z</time></trkpt><trkpt lat="53.3192242" lon="-1.8358112"><ele>320.6666666666667</ele><time>2026-04-18T07:17:38.002Z</time></trkpt><trkpt lat="53.3191199" lon="-1.8356007"><ele>320.33333333333337</ele><time>2026-04-18T07:17:39.002Z</time></trkpt><trkpt lat="53.3190073" lon="-1.8353907"><ele>320.0</ele><time>2026-04-18T07:17:40Z</time></trkpt><trkpt lat="53.3188945" lon="-1.8351941"><ele>320.0</ele><time>2026-04-18T07:17:41.001Z</time></trkpt><trkpt lat="53.3187916" lon="-1.8350177"><ele>320.0</ele><time>2026-04-18T07:17:42.003Z</time></trkpt><trkpt lat="53.3186979" lon="-1.8348579"><ele>320.0</ele><time>2026-04-18T07:17:43.01Z</time></trkpt><trkpt lat="53.3186078" lon="-1.8347007"><ele>320.0</ele><time>2026-04-18T07:17:44.003Z</time></trkpt><trkpt lat="53.3185186" lon="-1.8345441"><ele>320.0</ele><time>2026-04-18T07:17:45.002Z</time></trkpt><trkpt lat="53.3184339" lon="-1.8343982"><ele>320.0</ele><time>2026-04-18T07:17:46.003Z</time></trkpt><trkpt lat="53.3183564" lon="-1.8342665"><ele>320.0</ele><time>2026-04-18T07:17:47.003Z</time></trkpt><trkpt lat="53.3182889" lon="-1.8341516"><ele>320.0</ele><time>2026-04-18T07:17:48.004Z</time></trkpt><trkpt lat="53.3182279" lon="-1.8340472"><ele>320.0</ele><time>2026-04-18T07:17:49.003Z</time></trkpt><trkpt lat="53.3181653" lon="-1.8339407"><ele>320.0</ele><time>2026-04-18T07:17:50.004Z</time></trkpt><trkpt lat="53.3180977" lon="-1.8338207"><ele>320.0</ele><time>2026-04-18T07:17:51.002Z</time></trkpt><trkpt lat="53.3180294" lon="-1.8336878"><ele>320.0</ele><time>2026-04-18T07:17:52.001Z</time></trkpt><trkpt lat="53.3179504" lon="-1.8335508"><ele>320.0</ele><time>2026-04-18T07:17:53.006Z</time></trkpt><trkpt lat="53.3178628" lon="-1.8334058"><ele>320.0</ele><time>2026-04-18T07:17:54.002Z</time></trkpt><trkpt lat="53.3177716" lon="-1.8332576"><ele>319.25</ele><time>2026-04-18T07:17:55.001Z</time></trkpt><trkpt lat="53.317679" lon="-1.8331129"><ele>318.5</ele><time>2026-04-18T07:17:56.003Z</time></trkpt><trkpt lat="53.3175853" lon="-1.8329678"><ele>317.75</ele><time>2026-04-18T07:17:57.002Z</time></trkpt><trkpt lat="53.317488" lon="-1.8328236"><ele>317.0</ele><time>2026-04-18T07:17:57.995Z</time></trkpt><trkpt lat="53.3173963" lon="-1.8326911"><ele>317.2</ele><time>2026-04-18T07:17:59.002Z</time></trkpt><trkpt lat="53.3173048" lon="-1.8325699"><ele>317.4</ele><time>2026-04-18T07:18:00.001Z</time></trkpt><trkpt lat="53.3172195" lon="-1.8324523"><ele>317.6</ele><time>2026-04-18T07:18:00.999Z</time></trkpt><trkpt lat="53.3171399" lon="-1.8323414"><ele>317.8</ele><time>2026-04-18T07:18:02Z</time></trkpt><trkpt lat="53.3170648" lon="-1.832234"><ele>318.0</ele><time>2026-04-18T07:18:03.002Z</time></trkpt><trkpt lat="53.3169867" lon="-1.8321223"><ele>318.0</ele><time>2026-04-18T07:18:03.998Z</time></trkpt><trkpt lat="53.3169041" lon="-1.8320028"><ele>318.0</ele><time>2026-04-18T07:18:05Z</time></trkpt><trkpt lat="53.3168219" lon="-1.8318741"><ele>318.0</ele><time>2026-04-18T07:18:05.999Z</time></trkpt><trkpt lat="53.3167475" lon="-1.8317518"><ele>318.0</ele><time>2026-04-18T07:18:06.998Z</time></trkpt><trkpt lat="53.316686" lon="-1.8316489"><ele>318.0</ele><time>2026-04-18T07:18:07.999Z</time></trkpt><trkpt lat="53.3166344" lon="-1.831571"><ele>318.2</ele><time>2026-04-18T07:18:08.999Z</time></trkpt><trkpt lat="53.3165648" lon="-1.8314565"><ele>318.4</ele><time>2026-04-18T07:18:11.001Z</time></trkpt><trkpt lat="53.3165039" lon="-1.8313428"><ele>318.59999999999997</ele><time>2026-04-18T07:18:13.008Z</time></trkpt><trkpt lat="53.3164233" lon="-1.8312301"><ele>318.8</ele><time>2026-04-18T07:18:15.002Z</time></trkpt><trkpt lat="53.3163126" lon="-1.8310967"><ele>319.0</ele><time>2026-04-18T07:18:16.999Z</time></trkpt><trkpt lat="53.3162397" lon="-1.8310151"><ele>318.25</ele><time>2026-04-18T07:18:18Z</time></trkpt><trkpt lat="53.3161554" lon="-1.8309221"><ele>317.5</ele><time>2026-04-18T07:18:19.001Z</time></trkpt><trkpt lat="53.3160602" lon="-1.8308135"><ele>316.75</ele><time>2026-04-18T07:18:20.001Z</time></trkpt><trkpt lat="53.3159569" lon="-1.8307027"><ele>316.0</ele><time>2026-04-18T07:18:21.002Z</time></trkpt><trkpt lat="53.3158389" lon="-1.8305847"><ele>316.0</ele><time>2026-04-18T07:18:22.003Z</time></trkpt><trkpt lat="53.3157071" lon="-1.8304578"><ele>316.0</ele><time>2026-04-18T07:18:23.004Z</time></trkpt><trkpt lat="53.3155678" lon="-1.830319"><ele>316.0</ele><time>2026-04-18T07:18:24.002Z</time></trkpt><trkpt lat="53.3154249" lon="-1.830186"><ele>316.25</ele><time>2026-04-18T07:18:25.002Z</time></trkpt><trkpt lat="53.3152892" lon="-1.8300641"><ele>316.5</ele><time>2026-04-18T07:18:26.003Z</time></trkpt><trkpt lat="53.3151664" lon="-1.8299553"><ele>316.75</ele><time>2026-04-18T07:18:27.001Z</time></trkpt><trkpt lat="53.3150551" lon="-1.8298448"><ele>317.0</ele><time>2026-04-18T07:18:28.002Z</time></trkpt><trkpt lat="53.3149496" lon="-1.829729"><ele>317.0</ele><time>2026-04-18T07:18:29.001Z</time></trkpt><trkpt lat="53.3148497" lon="-1.8295999"><ele>317.0</ele><time>2026-04-18T07:18:30.002Z</time></trkpt><trkpt lat="53.3147543" lon="-1.8294533"><ele>317.0</ele><time>2026-04-18T07:18:30.999Z</time></trkpt><trkpt lat="53.3146588" lon="-1.8292952"><ele>317.0</ele><time>2026-04-18T07:18:32.001Z</time></trkpt><trkpt lat="53.3145656" lon="-1.829124"><ele>317.0</ele><time>2026-04-18T07:18:33.006Z</time></trkpt><trkpt lat="53.3144681" lon="-1.8289494"><ele>317.0</ele><time>2026-04-18T07:18:34Z</time></trkpt><trkpt lat="53.3143724" lon="-1.8287806"><ele>317.0</ele><time>2026-04-18T07:18:35Z</time></trkpt><trkpt lat="53.3142773" lon="-1.8286327"><ele>317.0</ele><time>2026-04-18T07:18:36Z</time></trkpt><trkpt lat="53.3141902" lon="-1.8285113"><ele>317.0</ele><time>2026-04-18T07:18:37.002Z</time></trkpt><trkpt lat="53.3141123" lon="-1.8284069"><ele>317.0</ele><time>2026-04-18T07:18:38.002Z</time></trkpt><trkpt lat="53.3140398" lon="-1.8283248"><ele>317.0</ele><time>2026-04-18T07:18:39.002Z</time></trkpt><trkpt lat="53.3139758" lon="-1.8282607"><ele>317.0</ele><time>2026-04-18T07:18:40.003Z</time></trkpt><trkpt lat="53.3139197" lon="-1.8281995"><ele>317.0</ele><time>2026-04-18T07:18:40.999Z</time></trkpt><trkpt lat="53.3138459" lon="-1.8280541"><ele>317.0</ele><time>2026-04-18T07:18:43.002Z</time></trkpt><trkpt lat="53.3138235" lon="-1.8279015"><ele>317.0</ele><time>2026-04-18T07:18:45.001Z</time></trkpt><trkpt lat="53.3138164" lon="-1.8277954"><ele>317.0</ele><time>2026-04-18T07:18:46Z</time></trkpt><trkpt lat="53.3138055" lon="-1.827669"><ele>317.0</ele><time>2026-04-18T07:18:46.998Z</time></trkpt><trkpt lat="53.3137855" lon="-1.8275249"><ele>317.0</ele><time>2026-04-18T07:18:48Z</time></trkpt><trkpt lat="53.3137528" lon="-1.8273616"><ele>317.0</ele><time>2026-04-18T07:18:49Z</time></trkpt><trkpt lat="53.3137103" lon="-1.8271771"><ele>317.0</ele><time>2026-04-18T07:18:50Z</time></trkpt><trkpt lat="53.3136702" lon="-1.8269695"><ele>317.75</ele><time>2026-04-18T07:18:51Z</time></trkpt><trkpt lat="53.3136348" lon="-1.8267395"><ele>318.5</ele><time>2026-04-18T07:18:52.002Z</time></trkpt><trkpt lat="53.3135998" lon="-1.8264979"><ele>319.25</ele><time>2026-04-18T07:18:53.006Z</time></trkpt><trkpt lat="53.313574" lon="-1.8262469"><ele>320.0</ele><time>2026-04-18T07:18:54.003Z</time></trkpt><trkpt lat="53.3135581" lon="-1.8259989"><ele>320.5</ele><time>2026-04-18T07:18:55.002Z</time></trkpt><trkpt lat="53.3135527" lon="-1.8257528"><ele>321.0</ele><time>2026-04-18T07:18:56Z</time></trkpt><trkpt lat="53.313548" lon="-1.825507"><ele>321.5</ele><time>2026-04-18T07:18:57.001Z</time></trkpt><trkpt lat="53.3135408" lon="-1.8252632"><ele>322.0</ele><time>2026-04-18T07:18:58.002Z</time></trkpt><trkpt lat="53.3135324" lon="-1.8250176"><ele>322.75</ele><time>2026-04-18T07:18:59.001Z</time></trkpt><trkpt lat="53.3135139" lon="-1.8247762"><ele>323.5</ele><time>2026-04-18T07:19:00.001Z</time></trkpt><trkpt lat="53.3134877" lon="-1.8245349"><ele>324.25</ele><time>2026-04-18T07:19:01.001Z</time></trkpt><trkpt lat="53.313458" lon="-1.8242885"><ele>325.0</ele><time>2026-04-18T07:19:02.002Z</time></trkpt><trkpt lat="53.3134275" lon="-1.8240399"><ele>327.0</ele><time>2026-04-18T07:19:03.004Z</time></trkpt><trkpt lat="53.3133961" lon="-1.8237896"><ele>329.0</ele><time>2026-04-18T07:19:04.001Z</time></trkpt><trkpt lat="53.3133645" lon="-1.8235367"><ele>331.0</ele><time>2026-04-18T07:19:05Z</time></trkpt><trkpt lat="53.3133309" lon="-1.8232826"><ele>332.66666666666663</ele><time>2026-04-18T07:19:06Z</time></trkpt><trkpt lat="53.3132972" lon="-1.8230279"><ele>334.3333333333333</ele><time>2026-04-18T07:19:07Z</time></trkpt><trkpt lat="53.3132634" lon="-1.8227739"><ele>336.0</ele><time>2026-04-18T07:19:08Z</time></trkpt><trkpt lat="53.3132317" lon="-1.8225225"><ele>337.0</ele><time>2026-04-18T07:19:08.992Z</time></trkpt><trkpt lat="53.3132014" lon="-1.822268"><ele>338.0</ele><time>2026-04-18T07:19:09.999Z</time></trkpt><trkpt lat="53.313173" lon="-1.8220114"><ele>339.0</ele><time>2026-04-18T07:19:10.998Z</time></trkpt><trkpt lat="53.3131473" lon="-1.8217535"><ele>339.3333333333333</ele><time>2026-04-18T07:19:11.998Z</time></trkpt><trkpt lat="53.3131214" lon="-1.8214964"><ele>339.66666666666663</ele><time>2026-04-18T07:19:13.002Z</time></trkpt><trkpt lat="53.3130983" lon="-1.8212386"><ele>340.0</ele><time>2026-04-18T07:19:14Z</time></trkpt><trkpt lat="53.3130709" lon="-1.8209788"><ele>344.3333333333333</ele><time>2026-04-18T07:19:15Z</time></trkpt><trkpt lat="53.3130348" lon="-1.8207238"><ele>348.6666666666667</ele><time>2026-04-18T07:19:15.999Z</time></trkpt><trkpt lat="53.3129835" lon="-1.82048"><ele>353.0</ele><time>2026-04-18T07:19:16.998Z</time></trkpt><trkpt lat="53.312924" lon="-1.8202394"><ele>352.0</ele><time>2026-04-18T07:19:18Z</time></trkpt><trkpt lat="53.3128594" lon="-1.8199984"><ele>351.0</ele><time>2026-04-18T07:19:18.999Z</time></trkpt><trkpt lat="53.3127961" lon="-1.8197562"><ele>350.0</ele><time>2026-04-18T07:19:20.001Z</time></trkpt><trkpt lat="53.3127265" lon="-1.8195172"><ele>350.6666666666667</ele><time>2026-04-18T07:19:21.002Z</time></trkpt><trkpt lat="53.3126439" lon="-1.8192858"><ele>351.3333333333333</ele><time>2026-04-18T07:19:22.002Z</time></trkpt><trkpt lat="53.3125495" lon="-1.8190574"><ele>352.0</ele><time>2026-04-18T07:19:23.003Z</time></trkpt><trkpt lat="53.3124462" lon="-1.8188344"><ele>352.0</ele><time>2026-04-18T07:19:24.002Z</time></trkpt><trkpt lat="53.3123385" lon="-1.818618"><ele>352.0</ele><time>2026-04-18T07:19:25.002Z</time></trkpt><trkpt lat="53.3122297" lon="-1.8183999"><ele>352.0</ele><time>2026-04-18T07:19:26.003Z</time></trkpt><trkpt lat="53.3121231" lon="-1.8181817"><ele>352.3333333333333</ele><time>2026-04-18T07:19:27.002Z</time></trkpt><trkpt lat="53.3120186" lon="-1.8179722"><ele>352.6666666666667</ele><time>2026-04-18T07:19:27.996Z</time></trkpt><trkpt lat="53.3119185" lon="-1.8177739"><ele>353.0</ele><time>2026-04-18T07:19:29Z</time></trkpt><trkpt lat="53.3118197" lon="-1.8175922"><ele>353.0</ele><time>2026-04-18T07:19:30.003Z</time></trkpt><trkpt lat="53.3117155" lon="-1.8174342"><ele>353.0</ele><time>2026-04-18T07:19:31.002Z</time></trkpt><trkpt lat="53.3116031" lon="-1.8172989"><ele>353.0</ele><time>2026-04-18T07:19:32Z</time></trkpt><trkpt lat="53.3114872" lon="-1.8171732"><ele>353.0</ele><time>2026-04-18T07:19:33.007Z</time></trkpt><trkpt lat="53.3113691" lon="-1.8170525"><ele>353.0</ele><time>2026-04-18T07:19:34.001Z</time></trkpt><trkpt lat="53.3112548" lon="-1.8169243"><ele>353.0</ele><time>2026-04-18T07:19:35.004Z</time></trkpt><trkpt lat="53.3111537" lon="-1.8167787"><ele>353.0</ele><time>2026-04-18T07:19:36.003Z</time></trkpt><trkpt lat="53.31108" lon="-1.8166217"><ele>353.0</ele><time>2026-04-18T07:19:37.002Z</time></trkpt><trkpt lat="53.3110395" lon="-1.8164543"><ele>354.0</ele><time>2026-04-18T07:19:38.002Z</time></trkpt><trkpt lat="53.3110249" lon="-1.8162936"><ele>355.0</ele><time>2026-04-18T07:19:39Z</time></trkpt><trkpt lat="53.3110107" lon="-1.8161482"><ele>356.0</ele><time>2026-04-18T07:19:40Z</time></trkpt><trkpt lat="53.3109886" lon="-1.8160157"><ele>357.0</ele><time>2026-04-18T07:19:41Z</time></trkpt><trkpt lat="53.310969" lon="-1.8158743"><ele>358.0</ele><time>2026-04-18T07:19:42.002Z</time></trkpt><trkpt lat="53.3109612" lon="-1.8157065"><ele>359.0</ele><time>2026-04-18T07:19:43.005Z</time></trkpt><trkpt lat="53.3109568" lon="-1.8155217"><ele>360.0</ele><time>2026-04-18T07:19:44.003Z</time></trkpt><trkpt lat="53.3109516" lon="-1.81532"><ele>361.0</ele><time>2026-04-18T07:19:45Z</time></trkpt><trkpt lat="53.3109503" lon="-1.8151062"><ele>362.0</ele><time>2026-04-18T07:19:46.003Z</time></trkpt><trkpt lat="53.3109626" lon="-1.8148961"><ele>363.0</ele><time>2026-04-18T07:19:47.003Z</time></trkpt><trkpt lat="53.3109935" lon="-1.8146929"><ele>364.0</ele><time>2026-04-18T07:19:48.001Z</time></trkpt><trkpt lat="53.3110378" lon="-1.814491"><ele>365.0</ele><time>2026-04-18T07:19:49.002Z</time></trkpt><trkpt lat="53.3110914" lon="-1.8142917"><ele>366.0</ele><time>2026-04-18T07:19:50Z</time></trkpt><trkpt lat="53.3111504" lon="-1.8140857"><ele>367.25</ele><time>2026-04-18T07:19:51.002Z</time></trkpt><trkpt lat="53.311208" lon="-1.8138719"><ele>368.5</ele><time>2026-04-18T07:19:52.002Z</time></trkpt><trkpt lat="53.3112631" lon="-1.8136386"><ele>369.75</ele><time>2026-04-18T07:19:53.003Z</time></trkpt><trkpt lat="53.3113144" lon="-1.8133921"><ele>371.0</ele><time>2026-04-18T07:19:54.002Z</time></trkpt><trkpt lat="53.3113597" lon="-1.8131343"><ele>372.0</ele><time>2026-04-18T07:19:55.003Z</time></trkpt><trkpt lat="53.3113912" lon="-1.8128843"><ele>373.0</ele><time>2026-04-18T07:19:56.001Z</time></trkpt><trkpt lat="53.3114116" lon="-1.812657"><ele>374.0</ele><time>2026-04-18T07:19:57Z</time></trkpt><trkpt lat="53.3114251" lon="-1.8124429"><ele>375.0</ele><time>2026-04-18T07:19:57.999Z</time></trkpt><trkpt lat="53.3114382" lon="-1.8122339"><ele>375.4</ele><time>2026-04-18T07:19:58.999Z</time></trkpt><trkpt lat="53.3114525" lon="-1.8120416"><ele>375.8</ele><time>2026-04-18T07:19:59.999Z</time></trkpt><trkpt lat="53.3114654" lon="-1.8118741"><ele>376.20000000000005</ele><time>2026-04-18T07:20:00.999Z</time></trkpt><trkpt lat="53.3114804" lon="-1.8117091"><ele>376.6</ele><time>2026-04-18T07:20:01.999Z</time></trkpt><trkpt lat="53.3114926" lon="-1.8115397"><ele>377.0</ele><time>2026-04-18T07:20:03.002Z</time></trkpt><trkpt lat="53.3114957" lon="-1.811357"><ele>377.40000000000003</ele><time>2026-04-18T07:20:03.998Z</time></trkpt><trkpt lat="53.311487" lon="-1.8111657"><ele>377.8</ele><time>2026-04-18T07:20:04.999Z</time></trkpt><trkpt lat="53.3114725" lon="-1.8109908"><ele>378.2</ele><time>2026-04-18T07:20:06Z</time></trkpt><trkpt lat="53.3114534" lon="-1.8108506"><ele>378.6</ele><time>2026-04-18T07:20:06.999Z</time></trkpt><trkpt lat="53.3114239" lon="-1.810684"><ele>379.0</ele><time>2026-04-18T07:20:08.999Z</time></trkpt><trkpt lat="53.311419" lon="-1.8105638"><ele>380.6</ele><time>2026-04-18T07:20:11.998Z</time></trkpt><trkpt lat="53.3113498" lon="-1.810479"><ele>382.2</ele><time>2026-04-18T07:20:14.999Z</time></trkpt><trkpt lat="53.3112575" lon="-1.8105837"><ele>383.8</ele><time>2026-04-18T07:20:16.999Z</time></trkpt><trkpt lat="53.3112081" lon="-1.810698"><ele>385.40000000000003</ele><time>2026-04-18T07:20:17.999Z</time></trkpt><trkpt lat="53.3111477" lon="-1.8108316"><ele>387.0</ele><time>2026-04-18T07:20:19Z</time></trkpt><trkpt lat="53.3110863" lon="-1.8109577"><ele>386.5</ele><time>2026-04-18T07:20:20.001Z</time></trkpt><trkpt lat="53.3110126" lon="-1.8110724"><ele>386.0</ele><time>2026-04-18T07:20:20.999Z</time></trkpt><trkpt lat="53.3109223" lon="-1.8111803"><ele>385.5</ele><time>2026-04-18T07:20:21.999Z</time></trkpt><trkpt lat="53.310824" lon="-1.8112917"><ele>385.0</ele><time>2026-04-18T07:20:23.001Z</time></trkpt><trkpt lat="53.3107257" lon="-1.8114128"><ele>385.0</ele><time>2026-04-18T07:20:24Z</time></trkpt><trkpt lat="53.3106309" lon="-1.8115369"><ele>385.0</ele><time>2026-04-18T07:20:25Z</time></trkpt><trkpt lat="53.3105479" lon="-1.8116522"><ele>385.0</ele><time>2026-04-18T07:20:26Z</time></trkpt><trkpt lat="53.3104808" lon="-1.8117471"><ele>385.0</ele><time>2026-04-18T07:20:26.998Z</time></trkpt><trkpt lat="53.3104292" lon="-1.8118217"><ele>385.0</ele><time>2026-04-18T07:20:27.999Z</time></trkpt><trkpt lat="53.310366" lon="-1.8119098"><ele>386.2</ele><time>2026-04-18T07:20:30.001Z</time></trkpt><trkpt lat="53.3103392" lon="-1.8120381"><ele>387.4</ele><time>2026-04-18T07:22:55.003Z</time></trkpt><trkpt lat="53.3102362" lon="-1.8122248"><ele>388.6</ele><time>2026-04-18T07:22:57Z</time></trkpt><trkpt lat="53.3101828" lon="-1.8123544"><ele>389.8</ele><time>2026-04-18T07:22:58Z</time></trkpt><trkpt lat="53.3101277" lon="-1.8124932"><ele>391.0</ele><time>2026-04-18T07:22:59.001Z</time></trkpt><trkpt lat="53.3100762" lon="-1.8126175"><ele>390.57142857142856</ele><time>2026-04-18T07:23:00.001Z</time></trkpt><trkpt lat="53.310025" lon="-1.8127144"><ele>390.1428571428571</ele><time>2026-04-18T07:23:01Z</time></trkpt><trkpt lat="53.3099746" lon="-1.8127998"><ele>389.71428571428567</ele><time>2026-04-18T07:23:02Z</time></trkpt><trkpt lat="53.309921" lon="-1.8128851"><ele>389.2857142857143</ele><time>2026-04-18T07:23:03Z</time></trkpt><trkpt lat="53.3098669" lon="-1.8129604"><ele>388.8571428571429</ele><time>2026-04-18T07:23:03.999Z</time></trkpt><trkpt lat="53.3098122" lon="-1.8130264"><ele>388.4285714285714</ele><time>2026-04-18T07:23:04.998Z</time></trkpt><trkpt lat="53.3097438" lon="-1.813083"><ele>388.0</ele><time>2026-04-18T07:23:06.002Z</time></trkpt><trkpt lat="53.3096566" lon="-1.8131394"><ele>388.0</ele><time>2026-04-18T07:23:07.001Z</time></trkpt><trkpt lat="53.3095418" lon="-1.8132117"><ele>388.0</ele><time>2026-04-18T07:23:08.001Z</time></trkpt><trkpt lat="53.3094092" lon="-1.8132943"><ele>388.0</ele><time>2026-04-18T07:23:09Z</time></trkpt><trkpt lat="53.3092719" lon="-1.8133775"><ele>388.0</ele><time>2026-04-18T07:23:10.002Z</time></trkpt><trkpt lat="53.3091336" lon="-1.8134511"><ele>385.75</ele><time>2026-04-18T07:23:11Z</time></trkpt><trkpt lat="53.3089975" lon="-1.8135243"><ele>383.5</ele><time>2026-04-18T07:23:12Z</time></trkpt><trkpt lat="53.308867" lon="-1.8135906"><ele>381.25</ele><time>2026-04-18T07:23:13.003Z</time></trkpt><trkpt lat="53.308743" lon="-1.8136452"><ele>379.0</ele><time>2026-04-18T07:23:14.001Z</time></trkpt><trkpt lat="53.3086183" lon="-1.813684"><ele>378.5</ele><time>2026-04-18T07:23:15.001Z</time></trkpt><trkpt lat="53.3084949" lon="-1.8137158"><ele>378.0</ele><time>2026-04-18T07:23:16.003Z</time></trkpt><trkpt lat="53.3083737" lon="-1.8137503"><ele>377.5</ele><time>2026-04-18T07:23:17.003Z</time></trkpt><trkpt lat="53.3082491" lon="-1.8137835"><ele>377.0</ele><time>2026-04-18T07:23:18.002Z</time></trkpt><trkpt lat="53.3081276" lon="-1.8138005"><ele>377.40000000000003</ele><time>2026-04-18T07:23:19.001Z</time></trkpt><trkpt lat="53.308008" lon="-1.8137941"><ele>377.8</ele><time>2026-04-18T07:23:20.003Z</time></trkpt><trkpt lat="53.3078989" lon="-1.8137716"><ele>378.2</ele><time>2026-04-18T07:23:21.001Z</time></trkpt><trkpt lat="53.3078069" lon="-1.8137597"><ele>378.6</ele><time>2026-04-18T07:23:22.001Z</time></trkpt><trkpt lat="53.3077332" lon="-1.8137797"><ele>379.0</ele><time>2026-04-18T07:23:23.005Z</time></trkpt><trkpt lat="53.3076714" lon="-1.8138421"><ele>379.0</ele><time>2026-04-18T07:23:24.002Z</time></trkpt><trkpt lat="53.3076277" lon="-1.8139657"><ele>379.0</ele><time>2026-04-18T07:23:25.001Z</time></trkpt><trkpt lat="53.3075962" lon="-1.814139"><ele>379.0</ele><time>2026-04-18T07:23:25.994Z</time></trkpt><trkpt lat="53.3075591" lon="-1.8143182"><ele>379.0</ele><time>2026-04-18T07:23:26.999Z</time></trkpt><trkpt lat="53.3075101" lon="-1.8145007"><ele>379.0</ele><time>2026-04-18T07:23:28.002Z</time></trkpt><trkpt lat="53.3074399" lon="-1.8146628"><ele>378.79999999999995</ele><time>2026-04-18T07:23:29.001Z</time></trkpt><trkpt lat="53.307357" lon="-1.8147959"><ele>378.59999999999997</ele><time>2026-04-18T07:23:30.001Z</time></trkpt><trkpt lat="53.3072635" lon="-1.8149018"><ele>378.4</ele><time>2026-04-18T07:23:31Z</time></trkpt><trkpt lat="53.3071712" lon="-1.8149932"><ele>378.2</ele><time>2026-04-18T07:23:32.002Z</time></trkpt><trkpt lat="53.307078" lon="-1.8150937"><ele>378.0</ele><time>2026-04-18T07:23:33.001Z</time></trkpt><trkpt lat="53.3069815" lon="-1.8151951"><ele>377.2</ele><time>2026-04-18T07:23:34.002Z</time></trkpt><trkpt lat="53.3068866" lon="-1.8152902"><ele>376.4</ele><time>2026-04-18T07:23:34.999Z</time></trkpt><trkpt lat="53.3067962" lon="-1.8153807"><ele>375.59999999999997</ele><time>2026-04-18T07:23:36Z</time></trkpt><trkpt lat="53.3067103" lon="-1.8154692"><ele>374.79999999999995</ele><time>2026-04-18T07:23:37.003Z</time></trkpt><trkpt lat="53.306634" lon="-1.8155466"><ele>374.0</ele><time>2026-04-18T07:23:38.002Z</time></trkpt><trkpt lat="53.3065727" lon="-1.815609"><ele>374.0</ele><time>2026-04-18T07:23:38.999Z</time></trkpt><trkpt lat="53.3064886" lon="-1.8156826"><ele>374.0</ele><time>2026-04-18T07:23:40.999Z</time></trkpt><trkpt lat="53.306426" lon="-1.8157113"><ele>374.0</ele><time>2026-04-18T07:23:59.999Z</time></trkpt><trkpt lat="53.3063606" lon="-1.8157554"><ele>374.0</ele><time>2026-04-18T07:24:20.003Z</time></trkpt><trkpt lat="53.3062889" lon="-1.8156799"><ele>374.0</ele><time>2026-04-18T07:24:23Z</time></trkpt><trkpt lat="53.3062172" lon="-1.8154969"><ele>374.0</ele><time>2026-04-18T07:24:25.001Z</time></trkpt><trkpt lat="53.3061762" lon="-1.8153593"><ele>375.0</ele><time>2026-04-18T07:24:26Z</time></trkpt><trkpt lat="53.3061382" lon="-1.8152189"><ele>376.0</ele><time>2026-04-18T07:24:26.999Z</time></trkpt><trkpt lat="53.3061001" lon="-1.8150912"><ele>377.0</ele><time>2026-04-18T07:24:28Z</time></trkpt><trkpt lat="53.3060562" lon="-1.8149626"><ele>378.0</ele><time>2026-04-18T07:24:29Z</time></trkpt><trkpt lat="53.30601" lon="-1.8148301"><ele>379.0</ele><time>2026-04-18T07:24:30.002Z</time></trkpt><trkpt lat="53.3059629" lon="-1.8146947"><ele>379.3333333333333</ele><time>2026-04-18T07:24:30.999Z</time></trkpt><trkpt lat="53.3059177" lon="-1.8145633"><ele>379.66666666666663</ele><time>2026-04-18T07:24:32.001Z</time></trkpt><trkpt lat="53.3058738" lon="-1.8144594"><ele>380.0</ele><time>2026-04-18T07:24:33Z</time></trkpt><trkpt lat="53.3058152" lon="-1.8143981"><ele>380.3333333333333</ele><time>2026-04-18T07:24:33.998Z</time></trkpt><trkpt lat="53.3057315" lon="-1.8143707"><ele>380.6666666666667</ele><time>2026-04-18T07:24:35Z</time></trkpt><trkpt lat="53.3056263" lon="-1.8143659"><ele>381.0</ele><time>2026-04-18T07:24:36Z</time></trkpt><trkpt lat="53.3055107" lon="-1.814353"><ele>380.75</ele><time>2026-04-18T07:24:37.001Z</time></trkpt><trkpt lat="53.3053783" lon="-1.814321"><ele>380.5</ele><time>2026-04-18T07:24:38.001Z</time></trkpt><trkpt lat="53.3052428" lon="-1.8142731"><ele>380.25</ele><time>2026-04-18T07:24:38.999Z</time></trkpt><trkpt lat="53.3051096" lon="-1.8142101"><ele>380.0</ele><time>2026-04-18T07:24:39.998Z</time></trkpt><trkpt lat="53.3049758" lon="-1.8141297"><ele>380.0</ele><time>2026-04-18T07:24:41.001Z</time></trkpt><trkpt lat="53.3048362" lon="-1.8140342"><ele>380.0</ele><time>2026-04-18T07:24:42.001Z</time></trkpt><trkpt lat="53.3046934" lon="-1.8139269"><ele>380.0</ele><time>2026-04-18T07:24:43.001Z</time></trkpt><trkpt lat="53.3045483" lon="-1.8138062"><ele>381.33333333333337</ele><time>2026-04-18T07:24:44Z</time></trkpt><trkpt lat="53.3044081" lon="-1.8136708"><ele>382.6666666666667</ele><time>2026-04-18T07:24:45.002Z</time></trkpt><trkpt lat="53.3042696" lon="-1.8135173"><ele>384.0</ele><time>2026-04-18T07:24:46.001Z</time></trkpt><trkpt lat="53.3041328" lon="-1.8133463"><ele>384.0</ele><time>2026-04-18T07:24:47.002Z</time></trkpt><trkpt lat="53.3039929" lon="-1.8131685"><ele>384.0</ele><time>2026-04-18T07:24:48.002Z</time></trkpt><trkpt lat="53.3038514" lon="-1.8129915"><ele>384.0</ele><time>2026-04-18T07:24:49.001Z</time></trkpt><trkpt lat="53.3037083" lon="-1.8128194"><ele>385.33333333333337</ele><time>2026-04-18T07:24:50.001Z</time></trkpt><trkpt lat="53.3035636" lon="-1.8126522"><ele>386.6666666666667</ele><time>2026-04-18T07:24:51.001Z</time></trkpt><trkpt lat="53.3034163" lon="-1.8125029"><ele>388.0</ele><time>2026-04-18T07:24:52.001Z</time></trkpt><trkpt lat="53.3032664" lon="-1.8123751"><ele>388.0</ele><time>2026-04-18T07:24:53.004Z</time></trkpt><trkpt lat="53.3031167" lon="-1.8122661"><ele>388.0</ele><time>2026-04-18T07:24:54.002Z</time></trkpt><trkpt lat="53.3029673" lon="-1.8121617"><ele>388.0</ele><time>2026-04-18T07:24:54.994Z</time></trkpt><trkpt lat="53.3028169" lon="-1.8120509"><ele>387.0</ele><time>2026-04-18T07:24:56Z</time></trkpt><trkpt lat="53.3026667" lon="-1.8119314"><ele>386.0</ele><time>2026-04-18T07:24:57.002Z</time></trkpt><trkpt lat="53.3025169" lon="-1.8118023"><ele>385.0</ele><time>2026-04-18T07:24:58.001Z</time></trkpt><trkpt lat="53.3023653" lon="-1.8116727"><ele>383.33333333333337</ele><time>2026-04-18T07:24:59.003Z</time></trkpt><trkpt lat="53.3022058" lon="-1.8115447"><ele>381.6666666666667</ele><time>2026-04-18T07:24:59.996Z</time></trkpt><trkpt lat="53.3020369" lon="-1.8114173"><ele>380.0</ele><time>2026-04-18T07:25:01Z</time></trkpt><trkpt lat="53.3018601" lon="-1.8112926"><ele>380.0</ele><time>2026-04-18T07:25:01.998Z</time></trkpt><trkpt lat="53.3016774" lon="-1.8111693"><ele>380.0</ele><time>2026-04-18T07:25:03.003Z</time></trkpt><trkpt lat="53.301497" lon="-1.8110531"><ele>380.0</ele><time>2026-04-18T07:25:04Z</time></trkpt><trkpt lat="53.301328" lon="-1.8109453"><ele>380.0</ele><time>2026-04-18T07:25:04.993Z</time></trkpt><trkpt lat="53.3011701" lon="-1.8108362"><ele>380.0</ele><time>2026-04-18T07:25:05.999Z</time></trkpt><trkpt lat="53.30102" lon="-1.8107288"><ele>380.0</ele><time>2026-04-18T07:25:07Z</time></trkpt><trkpt lat="53.3008779" lon="-1.8106309"><ele>380.0</ele><time>2026-04-18T07:25:08Z</time></trkpt><trkpt lat="53.3007426" lon="-1.8105454"><ele>380.0</ele><time>2026-04-18T07:25:08.998Z</time></trkpt><trkpt lat="53.3006058" lon="-1.8104634"><ele>380.0</ele><time>2026-04-18T07:25:09.999Z</time></trkpt><trkpt lat="53.3004656" lon="-1.8103892"><ele>380.0</ele><time>2026-04-18T07:25:11.001Z</time></trkpt><trkpt lat="53.3003178" lon="-1.8103091"><ele>379.33333333333337</ele><time>2026-04-18T07:25:12.002Z</time></trkpt><trkpt lat="53.3001592" lon="-1.8102151"><ele>378.6666666666667</ele><time>2026-04-18T07:25:13.007Z</time></trkpt><trkpt lat="53.2999882" lon="-1.8101161"><ele>378.0</ele><time>2026-04-18T07:25:14.004Z</time></trkpt><trkpt lat="53.2998096" lon="-1.8100173"><ele>377.0</ele><time>2026-04-18T07:25:15.002Z</time></trkpt><trkpt lat="53.2996337" lon="-1.8099315"><ele>376.0</ele><time>2026-04-18T07:25:16.004Z</time></trkpt><trkpt lat="53.2994691" lon="-1.8098731"><ele>375.0</ele><time>2026-04-18T07:25:16.999Z</time></trkpt><trkpt lat="53.2993177" lon="-1.8098465"><ele>375.0</ele><time>2026-04-18T07:25:18.002Z</time></trkpt><trkpt lat="53.2991795" lon="-1.8098496"><ele>375.0</ele><time>2026-04-18T07:25:19Z</time></trkpt><trkpt lat="53.2990559" lon="-1.8098674"><ele>375.0</ele><time>2026-04-18T07:25:20.003Z</time></trkpt><trkpt lat="53.2989394" lon="-1.8098915"><ele>375.0</ele><time>2026-04-18T07:25:21Z</time></trkpt><trkpt lat="53.2988156" lon="-1.8099116"><ele>374.0</ele><time>2026-04-18T07:25:21.999Z</time></trkpt><trkpt lat="53.2986796" lon="-1.8099203"><ele>373.0</ele><time>2026-04-18T07:25:23.005Z</time></trkpt><trkpt lat="53.2985256" lon="-1.8099169"><ele>372.0</ele><time>2026-04-18T07:25:24.002Z</time></trkpt><trkpt lat="53.298357" lon="-1.8099104"><ele>372.0</ele><time>2026-04-18T07:25:25.002Z</time></trkpt><trkpt lat="53.2981806" lon="-1.8098993"><ele>372.0</ele><time>2026-04-18T07:25:26.003Z</time></trkpt><trkpt lat="53.2980033" lon="-1.8098791"><ele>372.0</ele><time>2026-04-18T07:25:27.003Z</time></trkpt><trkpt lat="53.2978324" lon="-1.8098533"><ele>371.5</ele><time>2026-04-18T07:25:28.002Z</time></trkpt><trkpt lat="53.2976727" lon="-1.8098261"><ele>371.0</ele><time>2026-04-18T07:25:29.002Z</time></trkpt><trkpt lat="53.29753" lon="-1.8098029"><ele>370.5</ele><time>2026-04-18T07:25:30.002Z</time></trkpt><trkpt lat="53.2974097" lon="-1.8097864"><ele>370.0</ele><time>2026-04-18T07:25:31Z</time></trkpt><trkpt lat="53.297315" lon="-1.8097743"><ele>369.2</ele><time>2026-04-18T07:25:32.001Z</time></trkpt><trkpt lat="53.2972409" lon="-1.8097669"><ele>368.4</ele><time>2026-04-18T07:25:33.004Z</time></trkpt><trkpt lat="53.2971388" lon="-1.8097703"><ele>367.6</ele><time>2026-04-18T07:25:35.002Z</time></trkpt><trkpt lat="53.2970678" lon="-1.8098944"><ele>366.8</ele><time>2026-04-18T07:25:37.001Z</time></trkpt><trkpt lat="53.2970393" lon="-1.810031"><ele>366.0</ele><time>2026-04-18T07:25:38Z</time></trkpt><trkpt lat="53.2970148" lon="-1.8101998"><ele>364.5</ele><time>2026-04-18T07:25:39Z</time></trkpt><trkpt lat="53.2969921" lon="-1.8103911"><ele>363.0</ele><time>2026-04-18T07:25:40.003Z</time></trkpt><trkpt lat="53.2969563" lon="-1.8105912"><ele>361.5</ele><time>2026-04-18T07:25:41.002Z</time></trkpt><trkpt lat="53.296916" lon="-1.8107951"><ele>360.0</ele><time>2026-04-18T07:25:42.002Z</time></trkpt><trkpt lat="53.2968747" lon="-1.8110035"><ele>359.5</ele><time>2026-04-18T07:25:43.005Z</time></trkpt><trkpt lat="53.2968299" lon="-1.8112166"><ele>359.0</ele><time>2026-04-18T07:25:44.003Z</time></trkpt><trkpt lat="53.2967801" lon="-1.811435"><ele>358.5</ele><time>2026-04-18T07:25:45.005Z</time></trkpt><trkpt lat="53.296728" lon="-1.811659"><ele>358.0</ele><time>2026-04-18T07:25:46.003Z</time></trkpt><trkpt lat="53.2966751" lon="-1.8118839"><ele>357.5</ele><time>2026-04-18T07:25:47.003Z</time></trkpt><trkpt lat="53.2966246" lon="-1.8121168"><ele>357.0</ele><time>2026-04-18T07:25:48.001Z</time></trkpt><trkpt lat="53.2965786" lon="-1.8123441"><ele>356.5</ele><time>2026-04-18T07:25:49.004Z</time></trkpt><trkpt lat="53.296537" lon="-1.8125528"><ele>356.0</ele><time>2026-04-18T07:25:50.004Z</time></trkpt><trkpt lat="53.2964945" lon="-1.812757"><ele>355.5</ele><time>2026-04-18T07:25:51.005Z</time></trkpt><trkpt lat="53.2964484" lon="-1.8129686"><ele>355.0</ele><time>2026-04-18T07:25:52.004Z</time></trkpt><trkpt lat="53.2963999" lon="-1.8131966"><ele>354.5</ele><time>2026-04-18T07:25:53.003Z</time></trkpt><trkpt lat="53.29635" lon="-1.8134502"><ele>354.0</ele><time>2026-04-18T07:25:54.002Z</time></trkpt><trkpt lat="53.2962972" lon="-1.8137256"><ele>353.3333333333333</ele><time>2026-04-18T07:25:55.003Z</time></trkpt><trkpt lat="53.2962402" lon="-1.8140158"><ele>352.66666666666663</ele><time>2026-04-18T07:25:56.004Z</time></trkpt><trkpt lat="53.2961773" lon="-1.8143107"><ele>352.0</ele><time>2026-04-18T07:25:57.002Z</time></trkpt><trkpt lat="53.2961127" lon="-1.8145993"><ele>351.66666666666663</ele><time>2026-04-18T07:25:58.005Z</time></trkpt><trkpt lat="53.2960524" lon="-1.8148759"><ele>351.3333333333333</ele><time>2026-04-18T07:25:59.003Z</time></trkpt><trkpt lat="53.2959938" lon="-1.8151457"><ele>351.0</ele><time>2026-04-18T07:26:00.005Z</time></trkpt><trkpt lat="53.2959388" lon="-1.8154039"><ele>350.25</ele><time>2026-04-18T07:26:01.003Z</time></trkpt><trkpt lat="53.2958917" lon="-1.8156426"><ele>349.5</ele><time>2026-04-18T07:26:02.002Z</time></trkpt><trkpt lat="53.2958533" lon="-1.8158567"><ele>348.75</ele><time>2026-04-18T07:26:03.005Z</time></trkpt><trkpt lat="53.2958207" lon="-1.8160431"><ele>348.0</ele><time>2026-04-18T07:26:04.002Z</time></trkpt><trkpt lat="53.2957845" lon="-1.8162097"><ele>347.4</ele><time>2026-04-18T07:26:05.002Z</time></trkpt><trkpt lat="53.2957461" lon="-1.8163697"><ele>346.79999999999995</ele><time>2026-04-18T07:26:06.001Z</time></trkpt><trkpt lat="53.2957083" lon="-1.8165274"><ele>346.2</ele><time>2026-04-18T07:26:07.002Z</time></trkpt><trkpt lat="53.295672" lon="-1.8166972"><ele>345.6</ele><time>2026-04-18T07:26:08.002Z</time></trkpt><trkpt lat="53.2956411" lon="-1.8168884"><ele>345.0</ele><time>2026-04-18T07:26:09.002Z</time></trkpt><trkpt lat="53.2956194" lon="-1.817101"><ele>344.8</ele><time>2026-04-18T07:26:10.004Z</time></trkpt><trkpt lat="53.2955959" lon="-1.8173148"><ele>344.6</ele><time>2026-04-18T07:26:11Z</time></trkpt><trkpt lat="53.2955602" lon="-1.8175029"><ele>344.4</ele><time>2026-04-18T07:26:12.001Z</time></trkpt><trkpt lat="53.2955129" lon="-1.8176614"><ele>344.2</ele><time>2026-04-18T07:26:13.007Z</time></trkpt><trkpt lat="53.2954651" lon="-1.8177939"><ele>344.0</ele><time>2026-04-18T07:26:14.003Z</time></trkpt><trkpt lat="53.2954241" lon="-1.8179125"><ele>343.0</ele><time>2026-04-18T07:26:15.003Z</time></trkpt><trkpt lat="53.2953987" lon="-1.8180311"><ele>342.0</ele><time>2026-04-18T07:26:16.001Z</time></trkpt><trkpt lat="53.2953867" lon="-1.8181513"><ele>341.0</ele><time>2026-04-18T07:26:17.001Z</time></trkpt><trkpt lat="53.2953795" lon="-1.8182685"><ele>340.0</ele><time>2026-04-18T07:26:17.996Z</time></trkpt><trkpt lat="53.2953649" lon="-1.8183912"><ele>339.0</ele><time>2026-04-18T07:26:19.004Z</time></trkpt><trkpt lat="53.2953455" lon="-1.8185235"><ele>338.0</ele><time>2026-04-18T07:26:20.01Z</time></trkpt><trkpt lat="53.2953214" lon="-1.8186591"><ele>337.1666666666667</ele><time>2026-04-18T07:26:21.002Z</time></trkpt><trkpt lat="53.2952902" lon="-1.8187958"><ele>336.33333333333337</ele><time>2026-04-18T07:26:22.002Z</time></trkpt><trkpt lat="53.2952541" lon="-1.8189351"><ele>335.5</ele><time>2026-04-18T07:26:23.005Z</time></trkpt><trkpt lat="53.2952151" lon="-1.8190755"><ele>334.6666666666667</ele><time>2026-04-18T07:26:24.001Z</time></trkpt><trkpt lat="53.2951747" lon="-1.8192116"><ele>333.8333333333333</ele><time>2026-04-18T07:26:25.002Z</time></trkpt><trkpt lat="53.2951386" lon="-1.8193426"><ele>333.0</ele><time>2026-04-18T07:26:26.002Z</time></trkpt><trkpt lat="53.2951087" lon="-1.8194685"><ele>331.8333333333333</ele><time>2026-04-18T07:26:27.004Z</time></trkpt><trkpt lat="53.2950815" lon="-1.8195972"><ele>330.6666666666667</ele><time>2026-04-18T07:26:28.003Z</time></trkpt><trkpt lat="53.2950543" lon="-1.8197214"><ele>329.5</ele><time>2026-04-18T07:26:29.002Z</time></trkpt><trkpt lat="53.2950209" lon="-1.8198305"><ele>328.33333333333337</ele><time>2026-04-18T07:26:30.005Z</time></trkpt><trkpt lat="53.294983" lon="-1.819922"><ele>327.1666666666667</ele><time>2026-04-18T07:26:31.004Z</time></trkpt><trkpt lat="53.2948982" lon="-1.8200712"><ele>326.0</ele><time>2026-04-18T07:26:33.002Z</time></trkpt><trkpt lat="53.2948547" lon="-1.8201562"><ele>325.33333333333337</ele><time>2026-04-18T07:26:33.999Z</time></trkpt><trkpt lat="53.2948134" lon="-1.8202503"><ele>324.6666666666667</ele><time>2026-04-18T07:26:35Z</time></trkpt><trkpt lat="53.2947742" lon="-1.8203432"><ele>324.0</ele><time>2026-04-18T07:26:36Z</time></trkpt><trkpt lat="53.2947352" lon="-1.8204423"><ele>323.3333333333333</ele><time>2026-04-18T07:26:36.999Z</time></trkpt><trkpt lat="53.294693" lon="-1.8205497"><ele>322.66666666666663</ele><time>2026-04-18T07:26:38Z</time></trkpt><trkpt lat="53.2946489" lon="-1.8206628"><ele>322.0</ele><time>2026-04-18T07:26:39.002Z</time></trkpt><trkpt lat="53.294605" lon="-1.8207827"><ele>322.0</ele><time>2026-04-18T07:26:40.002Z</time></trkpt><trkpt lat="53.2945606" lon="-1.8208897"><ele>322.0</ele><time>2026-04-18T07:26:40.999Z</time></trkpt><trkpt lat="53.294515" lon="-1.8209852"><ele>322.0</ele><time>2026-04-18T07:26:41.998Z</time></trkpt><trkpt lat="53.2944686" lon="-1.8210763"><ele>322.0</ele><time>2026-04-18T07:26:43.001Z</time></trkpt><trkpt lat="53.294424" lon="-1.8211628"><ele>322.0</ele><time>2026-04-18T07:26:44.001Z</time></trkpt><trkpt lat="53.2943826" lon="-1.8212462"><ele>322.0</ele><time>2026-04-18T07:26:45Z</time></trkpt><trkpt lat="53.2943447" lon="-1.8213363"><ele>322.0</ele><time>2026-04-18T07:26:46.002Z</time></trkpt><trkpt lat="53.294317" lon="-1.8214509"><ele>319.8333333333333</ele><time>2026-04-18T07:26:47.001Z</time></trkpt><trkpt lat="53.2943014" lon="-1.8215791"><ele>317.66666666666663</ele><time>2026-04-18T07:26:48.001Z</time></trkpt><trkpt lat="53.2942905" lon="-1.8217072"><ele>315.5</ele><time>2026-04-18T07:26:49.003Z</time></trkpt><trkpt lat="53.2942714" lon="-1.8218255"><ele>313.3333333333333</ele><time>2026-04-18T07:26:50.002Z</time></trkpt><trkpt lat="53.2942414" lon="-1.8219273"><ele>311.1666666666667</ele><time>2026-04-18T07:26:50.999Z</time></trkpt><trkpt lat="53.2942046" lon="-1.8220136"><ele>309.0</ele><time>2026-04-18T07:26:51.999Z</time></trkpt><trkpt lat="53.2941254" lon="-1.8221592"><ele>309.25</ele><time>2026-04-18T07:26:53.997Z</time></trkpt><trkpt lat="53.2940322" lon="-1.8223124"><ele>309.5</ele><time>2026-04-18T07:26:56Z</time></trkpt><trkpt lat="53.2939568" lon="-1.8224015"><ele>309.75</ele><time>2026-04-18T07:26:56.999Z</time></trkpt><trkpt lat="53.2938616" lon="-1.8224956"><ele>310.0</ele><time>2026-04-18T07:26:57.992Z</time></trkpt><trkpt lat="53.2937491" lon="-1.8225987"><ele>305.66666666666663</ele><time>2026-04-18T07:26:58.991Z</time></trkpt><trkpt lat="53.2936205" lon="-1.8227238"><ele>301.3333333333333</ele><time>2026-04-18T07:26:59.998Z</time></trkpt><trkpt lat="53.2934789" lon="-1.8228742"><ele>297.0</ele><time>2026-04-18T07:27:00.999Z</time></trkpt><trkpt lat="53.2933301" lon="-1.8230374"><ele>297.0</ele><time>2026-04-18T07:27:01.999Z</time></trkpt><trkpt lat="53.293179" lon="-1.8232031"><ele>297.0</ele><time>2026-04-18T07:27:02.996Z</time></trkpt><trkpt lat="53.2930314" lon="-1.8233633"><ele>297.0</ele><time>2026-04-18T07:27:03.997Z</time></trkpt><trkpt lat="53.2928723" lon="-1.8235145"><ele>295.6666666666667</ele><time>2026-04-18T07:27:04.995Z</time></trkpt><trkpt lat="53.2927137" lon="-1.8236408"><ele>294.33333333333337</ele><time>2026-04-18T07:27:05.999Z</time></trkpt><trkpt lat="53.2925664" lon="-1.8237371"><ele>293.0</ele><time>2026-04-18T07:27:06.997Z</time></trkpt><trkpt lat="53.2924389" lon="-1.8238026"><ele>293.0</ele><time>2026-04-18T07:27:07.998Z</time></trkpt><trkpt lat="53.2923294" lon="-1.8238441"><ele>293.0</ele><time>2026-04-18T07:27:09.002Z</time></trkpt><trkpt lat="53.2922423" lon="-1.8238691"><ele>293.0</ele><time>2026-04-18T07:27:09.999Z</time></trkpt><trkpt lat="53.2921792" lon="-1.823901"><ele>293.0</ele><time>2026-04-18T07:27:10.994Z</time></trkpt><trkpt lat="53.2921223" lon="-1.8240434"><ele>293.0</ele><time>2026-04-18T07:27:13.003Z</time></trkpt><trkpt lat="53.2921475" lon="-1.8241835"><ele>294.0</ele><time>2026-04-18T07:27:13.992Z</time></trkpt><trkpt lat="53.2922052" lon="-1.8243727"><ele>295.0</ele><time>2026-04-18T07:27:15.001Z</time></trkpt><trkpt lat="53.2922709" lon="-1.8245914"><ele>296.0</ele><time>2026-04-18T07:27:16.002Z</time></trkpt><trkpt lat="53.2923356" lon="-1.8248204"><ele>297.0</ele><time>2026-04-18T07:27:17.003Z</time></trkpt><trkpt lat="53.2923931" lon="-1.8250528"><ele>298.0</ele><time>2026-04-18T07:27:18.003Z</time></trkpt><trkpt lat="53.2924458" lon="-1.8252814"><ele>299.0</ele><time>2026-04-18T07:27:19.002Z</time></trkpt><trkpt lat="53.2924876" lon="-1.8255171"><ele>300.0</ele><time>2026-04-18T07:27:20.003Z</time></trkpt><trkpt lat="53.2925181" lon="-1.8257598"><ele>301.0</ele><time>2026-04-18T07:27:21.001Z</time></trkpt><trkpt lat="53.2925509" lon="-1.8260103"><ele>302.66666666666663</ele><time>2026-04-18T07:27:22.002Z</time></trkpt><trkpt lat="53.292602" lon="-1.8262649"><ele>304.3333333333333</ele><time>2026-04-18T07:27:22.999Z</time></trkpt><trkpt lat="53.2926629" lon="-1.8265095"><ele>306.0</ele><time>2026-04-18T07:27:24Z</time></trkpt><trkpt lat="53.2927245" lon="-1.8267427"><ele>306.5</ele><time>2026-04-18T07:27:25.001Z</time></trkpt><trkpt lat="53.2927875" lon="-1.8269635"><ele>307.0</ele><time>2026-04-18T07:27:25.995Z</time></trkpt><trkpt lat="53.2928465" lon="-1.8271755"><ele>307.5</ele><time>2026-04-18T07:27:27.003Z</time></trkpt><trkpt lat="53.2928972" lon="-1.8273844"><ele>308.0</ele><time>2026-04-18T07:27:27.995Z</time></trkpt><trkpt lat="53.2929404" lon="-1.827597"><ele>308.5</ele><time>2026-04-18T07:27:28.996Z</time></trkpt><trkpt lat="53.2929761" lon="-1.8278135"><ele>309.0</ele><time>2026-04-18T07:27:30.005Z</time></trkpt><trkpt lat="53.2930027" lon="-1.8280273"><ele>309.5</ele><time>2026-04-18T07:27:31.003Z</time></trkpt><trkpt lat="53.2930161" lon="-1.8282444"><ele>310.0</ele><time>2026-04-18T07:27:32.002Z</time></trkpt><trkpt lat="53.2930181" lon="-1.8284686"><ele>310.75</ele><time>2026-04-18T07:27:33.006Z</time></trkpt><trkpt lat="53.2930161" lon="-1.8286992"><ele>311.5</ele><time>2026-04-18T07:27:34.003Z</time></trkpt><trkpt lat="53.2930152" lon="-1.8289385"><ele>312.25</ele><time>2026-04-18T07:27:35.001Z</time></trkpt><trkpt lat="53.2930166" lon="-1.8291784"><ele>313.0</ele><time>2026-04-18T07:27:36.002Z</time></trkpt><trkpt lat="53.2930209" lon="-1.8294249"><ele>313.0</ele><time>2026-04-18T07:27:37.003Z</time></trkpt><trkpt lat="53.2930335" lon="-1.8296727"><ele>313.0</ele><time>2026-04-18T07:27:38.003Z</time></trkpt><trkpt lat="53.2930518" lon="-1.829918"><ele>313.0</ele><time>2026-04-18T07:27:39.002Z</time></trkpt><trkpt lat="53.2930677" lon="-1.8301576"><ele>313.0</ele><time>2026-04-18T07:27:40.003Z</time></trkpt><trkpt lat="53.2930868" lon="-1.8303962"><ele>312.75</ele><time>2026-04-18T07:27:41.002Z</time></trkpt><trkpt lat="53.2931048" lon="-1.8306357"><ele>312.5</ele><time>2026-04-18T07:27:42.001Z</time></trkpt><trkpt lat="53.2931126" lon="-1.8308667"><ele>312.25</ele><time>2026-04-18T07:27:43.004Z</time></trkpt><trkpt lat="53.2931113" lon="-1.8310923"><ele>312.0</ele><time>2026-04-18T07:27:44.003Z</time></trkpt><trkpt lat="53.2931071" lon="-1.8313223"><ele>312.0</ele><time>2026-04-18T07:27:45.003Z</time></trkpt><trkpt lat="53.293103" lon="-1.8315556"><ele>312.0</ele><time>2026-04-18T07:27:46.002Z</time></trkpt><trkpt lat="53.2931006" lon="-1.8317902"><ele>312.0</ele><time>2026-04-18T07:27:47Z</time></trkpt><trkpt lat="53.2931034" lon="-1.8320337"><ele>312.0</ele><time>2026-04-18T07:27:48.003Z</time></trkpt><trkpt lat="53.2931133" lon="-1.8322739"><ele>312.0</ele><time>2026-04-18T07:27:49.004Z</time></trkpt><trkpt lat="53.2931347" lon="-1.8324905"><ele>312.0</ele><time>2026-04-18T07:27:50Z</time></trkpt><trkpt lat="53.2931602" lon="-1.832675"><ele>312.0</ele><time>2026-04-18T07:27:51.002Z</time></trkpt><trkpt lat="53.2931908" lon="-1.8328248"><ele>312.0</ele><time>2026-04-18T07:27:52.001Z</time></trkpt><trkpt lat="53.2932213" lon="-1.8329289"><ele>312.0</ele><time>2026-04-18T07:27:52.998Z</time></trkpt><trkpt lat="53.2933274" lon="-1.8329839"><ele>312.2</ele><time>2026-04-18T07:28:54.004Z</time></trkpt><trkpt lat="53.2934055" lon="-1.832995"><ele>312.4</ele><time>2026-04-18T07:28:55.005Z</time></trkpt><trkpt lat="53.2935051" lon="-1.832985"><ele>312.6</ele><time>2026-04-18T07:28:56.005Z</time></trkpt><trkpt lat="53.2936227" lon="-1.8329581"><ele>312.8</ele><time>2026-04-18T07:28:57.004Z</time></trkpt><trkpt lat="53.293749" lon="-1.8329229"><ele>313.0</ele><time>2026-04-18T07:28:58.007Z</time></trkpt><trkpt lat="53.2938806" lon="-1.8328931"><ele>314.0</ele><time>2026-04-18T07:28:59.004Z</time></trkpt><trkpt lat="53.2940161" lon="-1.8328693"><ele>315.0</ele><time>2026-04-18T07:29:00.006Z</time></trkpt><trkpt lat="53.2941589" lon="-1.8328561"><ele>316.0</ele><time>2026-04-18T07:29:01.004Z</time></trkpt><trkpt lat="53.2943061" lon="-1.8328585"><ele>317.0</ele><time>2026-04-18T07:29:02.005Z</time></trkpt><trkpt lat="53.2944623" lon="-1.8328718"><ele>317.0</ele><time>2026-04-18T07:29:03.008Z</time></trkpt><trkpt lat="53.2946279" lon="-1.8328957"><ele>317.0</ele><time>2026-04-18T07:29:04.004Z</time></trkpt><trkpt lat="53.2947995" lon="-1.8329307"><ele>317.0</ele><time>2026-04-18T07:29:05.004Z</time></trkpt><trkpt lat="53.2949761" lon="-1.8329661"><ele>319.0</ele><time>2026-04-18T07:29:06.006Z</time></trkpt><trkpt lat="53.2951557" lon="-1.8329968"><ele>321.0</ele><time>2026-04-18T07:29:07.005Z</time></trkpt><trkpt lat="53.2953383" lon="-1.83302"><ele>323.0</ele><time>2026-04-18T07:29:08.004Z</time></trkpt><trkpt lat="53.2955213" lon="-1.8330372"><ele>324.0</ele><time>2026-04-18T07:29:09.004Z</time></trkpt><trkpt lat="53.2957109" lon="-1.8330398"><ele>325.0</ele><time>2026-04-18T07:29:10.006Z</time></trkpt><trkpt lat="53.2958919" lon="-1.8330419"><ele>326.0</ele><time>2026-04-18T07:29:11.002Z</time></trkpt><trkpt lat="53.2960732" lon="-1.8330406"><ele>326.0</ele><time>2026-04-18T07:29:12.003Z</time></trkpt><trkpt lat="53.2962531" lon="-1.833038"><ele>326.0</ele><time>2026-04-18T07:29:13.005Z</time></trkpt><trkpt lat="53.296428" lon="-1.8330355"><ele>326.0</ele><time>2026-04-18T07:29:14.004Z</time></trkpt><trkpt lat="53.2965996" lon="-1.8330429"><ele>327.0</ele><time>2026-04-18T07:29:15.007Z</time></trkpt><trkpt lat="53.2967693" lon="-1.8330601"><ele>328.0</ele><time>2026-04-18T07:29:16.004Z</time></trkpt><trkpt lat="53.2969431" lon="-1.8330821"><ele>329.0</ele><time>2026-04-18T07:29:17.001Z</time></trkpt><trkpt lat="53.297123" lon="-1.833111"><ele>329.6666666666667</ele><time>2026-04-18T07:29:18.005Z</time></trkpt><trkpt lat="53.297308" lon="-1.833142"><ele>330.3333333333333</ele><time>2026-04-18T07:29:19.003Z</time></trkpt><trkpt lat="53.2974981" lon="-1.8331766"><ele>331.0</ele><time>2026-04-18T07:29:20.005Z</time></trkpt><trkpt lat="53.2976923" lon="-1.8332209"><ele>331.0</ele><time>2026-04-18T07:29:21.005Z</time></trkpt><trkpt lat="53.29789" lon="-1.8332757"><ele>331.0</ele><time>2026-04-18T07:29:22.004Z</time></trkpt><trkpt lat="53.2980893" lon="-1.8333361"><ele>331.0</ele><time>2026-04-18T07:29:23.005Z</time></trkpt><trkpt lat="53.2982851" lon="-1.8333957"><ele>331.0</ele><time>2026-04-18T07:29:24.004Z</time></trkpt><trkpt lat="53.2984729" lon="-1.8334474"><ele>331.0</ele><time>2026-04-18T07:29:25.003Z</time></trkpt><trkpt lat="53.2986574" lon="-1.8334929"><ele>331.0</ele><time>2026-04-18T07:29:26.006Z</time></trkpt><trkpt lat="53.2988313" lon="-1.8335399"><ele>331.5</ele><time>2026-04-18T07:29:27.005Z</time></trkpt><trkpt lat="53.2989852" lon="-1.8335997"><ele>332.0</ele><time>2026-04-18T07:29:28.003Z</time></trkpt><trkpt lat="53.2991176" lon="-1.8336844"><ele>332.5</ele><time>2026-04-18T07:29:29.005Z</time></trkpt><trkpt lat="53.2992334" lon="-1.8337993"><ele>333.0</ele><time>2026-04-18T07:29:30.007Z</time></trkpt><trkpt lat="53.2993336" lon="-1.8339483"><ele>333.0</ele><time>2026-04-18T07:29:31.005Z</time></trkpt><trkpt lat="53.2994249" lon="-1.8341347"><ele>333.0</ele><time>2026-04-18T07:29:32.004Z</time></trkpt><trkpt lat="53.2995115" lon="-1.8343409"><ele>333.0</ele><time>2026-04-18T07:29:33.006Z</time></trkpt><trkpt lat="53.2995994" lon="-1.8345535"><ele>333.0</ele><time>2026-04-18T07:29:34.003Z</time></trkpt><trkpt lat="53.2996907" lon="-1.8347576"><ele>332.5</ele><time>2026-04-18T07:29:35.005Z</time></trkpt><trkpt lat="53.299786" lon="-1.8349364"><ele>332.0</ele><time>2026-04-18T07:29:36.006Z</time></trkpt><trkpt lat="53.2998827" lon="-1.8350921"><ele>331.5</ele><time>2026-04-18T07:29:37.006Z</time></trkpt><trkpt lat="53.2999865" lon="-1.8352341"><ele>331.0</ele><time>2026-04-18T07:29:38.006Z</time></trkpt><trkpt lat="53.3000992" lon="-1.8353548"><ele>331.0</ele><time>2026-04-18T07:29:39.003Z</time></trkpt><trkpt lat="53.3002226" lon="-1.8354579"><ele>331.0</ele><time>2026-04-18T07:29:40.003Z</time></trkpt><trkpt lat="53.3003529" lon="-1.8355461"><ele>331.0</ele><time>2026-04-18T07:29:41.003Z</time></trkpt><trkpt lat="53.3004852" lon="-1.8356175"><ele>331.0</ele><time>2026-04-18T07:29:42.003Z</time></trkpt><trkpt lat="53.3006197" lon="-1.835676"><ele>330.0</ele><time>2026-04-18T07:29:43.003Z</time></trkpt><trkpt lat="53.3007545" lon="-1.8357113"><ele>329.0</ele><time>2026-04-18T07:29:44.003Z</time></trkpt><trkpt lat="53.3008849" lon="-1.8357327"><ele>328.0</ele><time>2026-04-18T07:29:45.004Z</time></trkpt><trkpt lat="53.3010024" lon="-1.8357422"><ele>327.0</ele><time>2026-04-18T07:29:46.002Z</time></trkpt><trkpt lat="53.3011009" lon="-1.835744"><ele>327.0</ele><time>2026-04-18T07:29:47.002Z</time></trkpt><trkpt lat="53.3011797" lon="-1.8357349"><ele>327.0</ele><time>2026-04-18T07:29:48.003Z</time></trkpt><trkpt lat="53.3012855" lon="-1.8357079"><ele>327.0</ele><time>2026-04-18T07:29:50.003Z</time></trkpt><trkpt lat="53.3013771" lon="-1.8357203"><ele>327.0</ele><time>2026-04-18T07:29:53.01Z</time></trkpt><trkpt lat="53.301467" lon="-1.8357541"><ele>327.0</ele><time>2026-04-18T07:29:55.003Z</time></trkpt><trkpt lat="53.3015362" lon="-1.8357672"><ele>327.0</ele><time>2026-04-18T07:29:56.003Z</time></trkpt><trkpt lat="53.3016276" lon="-1.8357709"><ele>325.75</ele><time>2026-04-18T07:29:57.003Z</time></trkpt><trkpt lat="53.301739" lon="-1.8357727"><ele>324.5</ele><time>2026-04-18T07:29:58.004Z</time></trkpt><trkpt lat="53.3018682" lon="-1.8357793"><ele>323.25</ele><time>2026-04-18T07:29:59.003Z</time></trkpt><trkpt lat="53.302015" lon="-1.8357895"><ele>322.0</ele><time>2026-04-18T07:30:00.004Z</time></trkpt><trkpt lat="53.3021722" lon="-1.8357985"><ele>321.0</ele><time>2026-04-18T07:30:00.996Z</time></trkpt><trkpt lat="53.3023301" lon="-1.8358131"><ele>320.0</ele><time>2026-04-18T07:30:01.997Z</time></trkpt><trkpt lat="53.3024805" lon="-1.8358275"><ele>319.0</ele><time>2026-04-18T07:30:03.001Z</time></trkpt><trkpt lat="53.302618" lon="-1.8358409"><ele>318.0</ele><time>2026-04-18T07:30:03.998Z</time></trkpt><trkpt lat="53.3027399" lon="-1.8358554"><ele>318.0</ele><time>2026-04-18T07:30:04.997Z</time></trkpt><trkpt lat="53.302849" lon="-1.8358608"><ele>318.0</ele><time>2026-04-18T07:30:05.997Z</time></trkpt><trkpt lat="53.3029468" lon="-1.8358583"><ele>318.0</ele><time>2026-04-18T07:30:06.997Z</time></trkpt><trkpt lat="53.3030416" lon="-1.8358576"><ele>318.0</ele><time>2026-04-18T07:30:07.998Z</time></trkpt><trkpt lat="53.3031364" lon="-1.8358622"><ele>318.0</ele><time>2026-04-18T07:30:08.998Z</time></trkpt><trkpt lat="53.3032287" lon="-1.8358659"><ele>317.5</ele><time>2026-04-18T07:30:09.998Z</time></trkpt><trkpt lat="53.3033112" lon="-1.8358649"><ele>317.0</ele><time>2026-04-18T07:30:11.003Z</time></trkpt><trkpt lat="53.3033772" lon="-1.8358681"><ele>316.5</ele><time>2026-04-18T07:30:12.001Z</time></trkpt><trkpt lat="53.303443" lon="-1.8359091"><ele>316.0</ele><time>2026-04-18T07:30:14.004Z</time></trkpt><trkpt lat="53.3034469" lon="-1.8360814"><ele>315.5</ele><time>2026-04-18T07:30:16.003Z</time></trkpt><trkpt lat="53.3034308" lon="-1.8362272"><ele>315.0</ele><time>2026-04-18T07:30:17.003Z</time></trkpt><trkpt lat="53.3034034" lon="-1.8364234"><ele>315.0</ele><time>2026-04-18T07:30:18.003Z</time></trkpt><trkpt lat="53.3033677" lon="-1.8366498"><ele>315.0</ele><time>2026-04-18T07:30:19.002Z</time></trkpt><trkpt lat="53.3033325" lon="-1.836892"><ele>315.0</ele><time>2026-04-18T07:30:20.005Z</time></trkpt><trkpt lat="53.3032993" lon="-1.8371527"><ele>315.0</ele><time>2026-04-18T07:30:21.004Z</time></trkpt><trkpt lat="53.3032713" lon="-1.8374122"><ele>315.25</ele><time>2026-04-18T07:30:22.004Z</time></trkpt><trkpt lat="53.3032538" lon="-1.8376591"><ele>315.5</ele><time>2026-04-18T07:30:23.007Z</time></trkpt><trkpt lat="53.3032362" lon="-1.8379085"><ele>315.75</ele><time>2026-04-18T07:30:24.005Z</time></trkpt><trkpt lat="53.303219" lon="-1.8381585"><ele>316.0</ele><time>2026-04-18T07:30:25.003Z</time></trkpt><trkpt lat="53.3031998" lon="-1.8384185"><ele>315.66666666666663</ele><time>2026-04-18T07:30:26.003Z</time></trkpt><trkpt lat="53.3031794" lon="-1.8386855"><ele>315.3333333333333</ele><time>2026-04-18T07:30:27.002Z</time></trkpt><trkpt lat="53.3031538" lon="-1.838958"><ele>315.0</ele><time>2026-04-18T07:30:28.002Z</time></trkpt><trkpt lat="53.3031276" lon="-1.8392285"><ele>315.6666666666667</ele><time>2026-04-18T07:30:29.003Z</time></trkpt><trkpt lat="53.3031018" lon="-1.8394928"><ele>316.33333333333337</ele><time>2026-04-18T07:30:30.005Z</time></trkpt><trkpt lat="53.3030777" lon="-1.8397465"><ele>317.0</ele><time>2026-04-18T07:30:30.998Z</time></trkpt><trkpt lat="53.3030554" lon="-1.8399905"><ele>318.0</ele><time>2026-04-18T07:30:32Z</time></trkpt><trkpt lat="53.3030364" lon="-1.8402282"><ele>319.0</ele><time>2026-04-18T07:30:33.003Z</time></trkpt><trkpt lat="53.3030158" lon="-1.8404623"><ele>320.0</ele><time>2026-04-18T07:30:33.999Z</time></trkpt><trkpt lat="53.3029906" lon="-1.8406938"><ele>321.0</ele><time>2026-04-18T07:30:35.001Z</time></trkpt><trkpt lat="53.3029606" lon="-1.840928"><ele>321.0</ele><time>2026-04-18T07:30:36Z</time></trkpt><trkpt lat="53.3029197" lon="-1.8411693"><ele>321.0</ele><time>2026-04-18T07:30:37Z</time></trkpt><trkpt lat="53.302875" lon="-1.8414239"><ele>321.0</ele><time>2026-04-18T07:30:38.001Z</time></trkpt><trkpt lat="53.3028203" lon="-1.8416913"><ele>321.0</ele><time>2026-04-18T07:30:39Z</time></trkpt><trkpt lat="53.3027645" lon="-1.8419639"><ele>321.0</ele><time>2026-04-18T07:30:40.001Z</time></trkpt><trkpt lat="53.3027086" lon="-1.8422269"><ele>321.0</ele><time>2026-04-18T07:30:41.003Z</time></trkpt><trkpt lat="53.3026563" lon="-1.8424724"><ele>321.5</ele><time>2026-04-18T07:30:42.004Z</time></trkpt><trkpt lat="53.3026072" lon="-1.8427079"><ele>322.0</ele><time>2026-04-18T07:30:43.007Z</time></trkpt><trkpt lat="53.3025644" lon="-1.8429446"><ele>322.5</ele><time>2026-04-18T07:30:44.003Z</time></trkpt><trkpt lat="53.3025268" lon="-1.8431884"><ele>323.0</ele><time>2026-04-18T07:30:45.003Z</time></trkpt><trkpt lat="53.3024997" lon="-1.8434371"><ele>323.6666666666667</ele><time>2026-04-18T07:30:46.003Z</time></trkpt><trkpt lat="53.3024823" lon="-1.8436928"><ele>324.3333333333333</ele><time>2026-04-18T07:30:47.005Z</time></trkpt><trkpt lat="53.302466" lon="-1.8439594"><ele>325.0</ele><time>2026-04-18T07:30:48.004Z</time></trkpt><trkpt lat="53.3024476" lon="-1.844227"><ele>326.0</ele><time>2026-04-18T07:30:49.005Z</time></trkpt><trkpt lat="53.302427" lon="-1.8444969"><ele>327.0</ele><time>2026-04-18T07:30:50.003Z</time></trkpt><trkpt lat="53.3024052" lon="-1.8447689"><ele>328.0</ele><time>2026-04-18T07:30:50.999Z</time></trkpt><trkpt lat="53.3023838" lon="-1.8450198"><ele>328.25</ele><time>2026-04-18T07:30:52.006Z</time></trkpt><trkpt lat="53.3023637" lon="-1.8452472"><ele>328.5</ele><time>2026-04-18T07:30:53.008Z</time></trkpt><trkpt lat="53.302339" lon="-1.845461"><ele>328.75</ele><time>2026-04-18T07:30:54.004Z</time></trkpt><trkpt lat="53.3023137" lon="-1.8456694"><ele>329.0</ele><time>2026-04-18T07:30:55.005Z</time></trkpt><trkpt lat="53.3022897" lon="-1.8458776"><ele>329.5</ele><time>2026-04-18T07:30:56.003Z</time></trkpt><trkpt lat="53.3022713" lon="-1.8460983"><ele>330.0</ele><time>2026-04-18T07:30:57.006Z</time></trkpt><trkpt lat="53.3022655" lon="-1.846329"><ele>330.5</ele><time>2026-04-18T07:30:58.005Z</time></trkpt><trkpt lat="53.3022699" lon="-1.8465736"><ele>331.0</ele><time>2026-04-18T07:30:59.004Z</time></trkpt><trkpt lat="53.3022835" lon="-1.8468219"><ele>331.3333333333333</ele><time>2026-04-18T07:31:00.005Z</time></trkpt><trkpt lat="53.3023049" lon="-1.847078"><ele>331.6666666666667</ele><time>2026-04-18T07:31:01.002Z</time></trkpt><trkpt lat="53.3023269" lon="-1.8473429"><ele>332.0</ele><time>2026-04-18T07:31:02.004Z</time></trkpt><trkpt lat="53.3023494" lon="-1.8476157"><ele>332.6666666666667</ele><time>2026-04-18T07:31:03.007Z</time></trkpt><trkpt lat="53.3023737" lon="-1.8478968"><ele>333.3333333333333</ele><time>2026-04-18T07:31:04.002Z</time></trkpt><trkpt lat="53.3023985" lon="-1.8481796"><ele>334.0</ele><time>2026-04-18T07:31:05.001Z</time></trkpt><trkpt lat="53.3024236" lon="-1.8484648"><ele>334.66666666666663</ele><time>2026-04-18T07:31:06Z</time></trkpt><trkpt lat="53.3024503" lon="-1.8487504"><ele>335.3333333333333</ele><time>2026-04-18T07:31:07.001Z</time></trkpt><trkpt lat="53.302476" lon="-1.8490417"><ele>336.0</ele><time>2026-04-18T07:31:08.001Z</time></trkpt><trkpt lat="53.3025028" lon="-1.8493341"><ele>336.0</ele><time>2026-04-18T07:31:08.997Z</time></trkpt><trkpt lat="53.3025307" lon="-1.8496284"><ele>336.0</ele><time>2026-04-18T07:31:10.003Z</time></trkpt><trkpt lat="53.3025587" lon="-1.8499201"><ele>336.0</ele><time>2026-04-18T07:31:11.004Z</time></trkpt><trkpt lat="53.302585" lon="-1.8502102"><ele>336.0</ele><time>2026-04-18T07:31:12.004Z</time></trkpt><trkpt lat="53.3026068" lon="-1.8504971"><ele>336.0</ele><time>2026-04-18T07:31:13.009Z</time></trkpt><trkpt lat="53.3026233" lon="-1.8507812"><ele>336.0</ele><time>2026-04-18T07:31:14.004Z</time></trkpt><trkpt lat="53.3026415" lon="-1.8510656"><ele>336.0</ele><time>2026-04-18T07:31:15.004Z</time></trkpt><trkpt lat="53.3026604" lon="-1.8513499"><ele>336.0</ele><time>2026-04-18T07:31:16.004Z</time></trkpt><trkpt lat="53.3026832" lon="-1.8516349"><ele>336.0</ele><time>2026-04-18T07:31:17.003Z</time></trkpt><trkpt lat="53.3027105" lon="-1.8519184"><ele>336.3333333333333</ele><time>2026-04-18T07:31:18.005Z</time></trkpt><trkpt lat="53.3027414" lon="-1.8521958"><ele>336.66666666666663</ele><time>2026-04-18T07:31:18.998Z</time></trkpt><trkpt lat="53.3027681" lon="-1.8524509"><ele>337.0</ele><time>2026-04-18T07:31:20.006Z</time></trkpt><trkpt lat="53.3027858" lon="-1.852671"><ele>337.40000000000003</ele><time>2026-04-18T07:31:21.006Z</time></trkpt><trkpt lat="53.3027972" lon="-1.8528536"><ele>337.8</ele><time>2026-04-18T07:31:22.004Z</time></trkpt><trkpt lat="53.3028041" lon="-1.8530019"><ele>338.2</ele><time>2026-04-18T07:31:23.009Z</time></trkpt><trkpt lat="53.3028113" lon="-1.8531332"><ele>338.6</ele><time>2026-04-18T07:31:24.006Z</time></trkpt><trkpt lat="53.3028201" lon="-1.8532792"><ele>339.0</ele><time>2026-04-18T07:31:25.005Z</time></trkpt><trkpt lat="53.3028383" lon="-1.8534506"><ele>339.5</ele><time>2026-04-18T07:31:26.004Z</time></trkpt><trkpt lat="53.3028667" lon="-1.8536459"><ele>340.0</ele><time>2026-04-18T07:31:27.003Z</time></trkpt><trkpt lat="53.3028993" lon="-1.8538563"><ele>340.5</ele><time>2026-04-18T07:31:28.005Z</time></trkpt><trkpt lat="53.3029275" lon="-1.8540831"><ele>341.0</ele><time>2026-04-18T07:31:29.004Z</time></trkpt><trkpt lat="53.3029471" lon="-1.8543245"><ele>341.0</ele><time>2026-04-18T07:31:30.005Z</time></trkpt><trkpt lat="53.3029602" lon="-1.8545848"><ele>341.0</ele><time>2026-04-18T07:31:31.002Z</time></trkpt><trkpt lat="53.3029722" lon="-1.8548618"><ele>341.0</ele><time>2026-04-18T07:31:32.005Z</time></trkpt><trkpt lat="53.3029875" lon="-1.8551497"><ele>341.33333333333337</ele><time>2026-04-18T07:31:33.007Z</time></trkpt><trkpt lat="53.3030023" lon="-1.855428"><ele>341.6666666666667</ele><time>2026-04-18T07:31:34.003Z</time></trkpt><trkpt lat="53.3030118" lon="-1.8556912"><ele>342.0</ele><time>2026-04-18T07:31:35.003Z</time></trkpt><trkpt lat="53.3030229" lon="-1.8559533"><ele>342.6666666666667</ele><time>2026-04-18T07:31:36.003Z</time></trkpt><trkpt lat="53.3030326" lon="-1.8562177"><ele>343.33333333333337</ele><time>2026-04-18T07:31:37.003Z</time></trkpt><trkpt lat="53.3030434" lon="-1.8564885"><ele>344.0</ele><time>2026-04-18T07:31:38.003Z</time></trkpt><trkpt lat="53.3030561" lon="-1.8567654"><ele>345.0</ele><time>2026-04-18T07:31:39.003Z</time></trkpt><trkpt lat="53.3030674" lon="-1.8570468"><ele>346.0</ele><time>2026-04-18T07:31:40.004Z</time></trkpt><trkpt lat="53.3030772" lon="-1.8573312"><ele>347.0</ele><time>2026-04-18T07:31:41.003Z</time></trkpt><trkpt lat="53.3030858" lon="-1.8576135"><ele>348.25</ele><time>2026-04-18T07:31:42.003Z</time></trkpt><trkpt lat="53.3030949" lon="-1.8578844"><ele>349.5</ele><time>2026-04-18T07:31:43.008Z</time></trkpt><trkpt lat="53.3031058" lon="-1.858129"><ele>350.75</ele><time>2026-04-18T07:31:44.005Z</time></trkpt><trkpt lat="53.303112" lon="-1.8583339"><ele>352.0</ele><time>2026-04-18T07:31:45.004Z</time></trkpt><trkpt lat="53.303117" lon="-1.8585092"><ele>352.0</ele><time>2026-04-18T07:31:46.005Z</time></trkpt><trkpt lat="53.3031277" lon="-1.8586915"><ele>352.0</ele><time>2026-04-18T07:31:47.004Z</time></trkpt><trkpt lat="53.3031454" lon="-1.8588983"><ele>352.0</ele><time>2026-04-18T07:31:48.004Z</time></trkpt><trkpt lat="53.3031633" lon="-1.8591363"><ele>352.0</ele><time>2026-04-18T07:31:49.004Z</time></trkpt><trkpt lat="53.3031825" lon="-1.8594025"><ele>352.0</ele><time>2026-04-18T07:31:49.999Z</time></trkpt><trkpt lat="53.3031936" lon="-1.8596685"><ele>352.0</ele><time>2026-04-18T07:31:51.004Z</time></trkpt><trkpt lat="53.3032038" lon="-1.8599147"><ele>352.0</ele><time>2026-04-18T07:31:52.004Z</time></trkpt><trkpt lat="53.3032153" lon="-1.8601379"><ele>352.0</ele><time>2026-04-18T07:31:53.01Z</time></trkpt><trkpt lat="53.3032289" lon="-1.8603411"><ele>351.5</ele><time>2026-04-18T07:31:54.003Z</time></trkpt><trkpt lat="53.3032399" lon="-1.8605056"><ele>351.0</ele><time>2026-04-18T07:31:55.004Z</time></trkpt><trkpt lat="53.3032427" lon="-1.8606122"><ele>350.5</ele><time>2026-04-18T07:31:56.004Z</time></trkpt><trkpt lat="53.303232" lon="-1.8607195"><ele>350.0</ele><time>2026-04-18T07:31:58.004Z</time></trkpt><trkpt lat="53.3033396" lon="-1.8607041"><ele>349.5</ele><time>2026-04-18T07:34:34.005Z</time></trkpt><trkpt lat="53.3034201" lon="-1.8606409"><ele>349.0</ele><time>2026-04-18T07:34:35.005Z</time></trkpt><trkpt lat="53.3035161" lon="-1.860546"><ele>349.0</ele><time>2026-04-18T07:34:36.007Z</time></trkpt><trkpt lat="53.3036257" lon="-1.8604264"><ele>349.0</ele><time>2026-04-18T07:34:37.009Z</time></trkpt><trkpt lat="53.3037468" lon="-1.8603007"><ele>349.0</ele><time>2026-04-18T07:34:38.009Z</time></trkpt><trkpt lat="53.3038783" lon="-1.8601787"><ele>349.0</ele><time>2026-04-18T07:34:39.005Z</time></trkpt><trkpt lat="53.3040173" lon="-1.8600598"><ele>351.66666666666663</ele><time>2026-04-18T07:34:40.007Z</time></trkpt><trkpt lat="53.3041646" lon="-1.8599379"><ele>354.3333333333333</ele><time>2026-04-18T07:34:41.006Z</time></trkpt><trkpt lat="53.3043192" lon="-1.8598112"><ele>357.0</ele><time>2026-04-18T07:34:42.006Z</time></trkpt><trkpt lat="53.3044808" lon="-1.8596765"><ele>357.0</ele><time>2026-04-18T07:34:43.012Z</time></trkpt><trkpt lat="53.3046479" lon="-1.8595279"><ele>357.0</ele><time>2026-04-18T07:34:44.008Z</time></trkpt><trkpt lat="53.3048257" lon="-1.859366"><ele>357.0</ele><time>2026-04-18T07:34:45.008Z</time></trkpt><trkpt lat="53.3050067" lon="-1.8591974"><ele>360.3333333333333</ele><time>2026-04-18T07:34:46.008Z</time></trkpt><trkpt lat="53.3051752" lon="-1.8590381"><ele>363.66666666666663</ele><time>2026-04-18T07:34:47.008Z</time></trkpt><trkpt lat="53.305319" lon="-1.8589012"><ele>367.0</ele><time>2026-04-18T07:34:48.009Z</time></trkpt><trkpt lat="53.3054397" lon="-1.8587936"><ele>367.0</ele><time>2026-04-18T07:34:49.006Z</time></trkpt><trkpt lat="53.305546" lon="-1.8586972"><ele>367.0</ele><time>2026-04-18T07:34:50.007Z</time></trkpt><trkpt lat="53.3056385" lon="-1.8586223"><ele>367.0</ele><time>2026-04-18T07:34:51.004Z</time></trkpt><trkpt lat="53.3057249" lon="-1.8585746"><ele>367.0</ele><time>2026-04-18T07:34:52.006Z</time></trkpt><trkpt lat="53.305814" lon="-1.8585529"><ele>367.0</ele><time>2026-04-18T07:34:53.009Z</time></trkpt><trkpt lat="53.3058953" lon="-1.8585605"><ele>368.8</ele><time>2026-04-18T07:34:54.006Z</time></trkpt><trkpt lat="53.3059624" lon="-1.8585887"><ele>370.6</ele><time>2026-04-18T07:34:55.006Z</time></trkpt><trkpt lat="53.3060656" lon="-1.8587175"><ele>372.40000000000003</ele><time>2026-04-18T07:34:57.006Z</time></trkpt><trkpt lat="53.3061078" lon="-1.8588281"><ele>374.20000000000005</ele><time>2026-04-18T07:34:58.007Z</time></trkpt><trkpt lat="53.3061495" lon="-1.8589684"><ele>376.0</ele><time>2026-04-18T07:34:59.002Z</time></trkpt><trkpt lat="53.3061794" lon="-1.8591334"><ele>376.16666666666663</ele><time>2026-04-18T07:35:00.005Z</time></trkpt><trkpt lat="53.3061968" lon="-1.8592973"><ele>376.3333333333333</ele><time>2026-04-18T07:35:01.003Z</time></trkpt><trkpt lat="53.306213" lon="-1.8594342"><ele>376.5</ele><time>2026-04-18T07:35:02.003Z</time></trkpt><trkpt lat="53.3062314" lon="-1.8595357"><ele>376.6666666666667</ele><time>2026-04-18T07:35:03.006Z</time></trkpt><trkpt lat="53.3062948" lon="-1.8596293"><ele>376.83333333333337</ele><time>2026-04-18T07:35:05.004Z</time></trkpt><trkpt lat="53.3064049" lon="-1.8596164"><ele>377.0</ele><time>2026-04-18T07:35:07.005Z</time></trkpt><trkpt lat="53.3064772" lon="-1.8595812"><ele>377.6666666666667</ele><time>2026-04-18T07:35:08.005Z</time></trkpt><trkpt lat="53.306549" lon="-1.8595269"><ele>378.33333333333337</ele><time>2026-04-18T07:35:09.005Z</time></trkpt><trkpt lat="53.3066147" lon="-1.8594584"><ele>379.0</ele><time>2026-04-18T07:35:10.008Z</time></trkpt><trkpt lat="53.3066788" lon="-1.8593842"><ele>379.6666666666667</ele><time>2026-04-18T07:35:11.004Z</time></trkpt><trkpt lat="53.3067561" lon="-1.8593092"><ele>380.3333333333333</ele><time>2026-04-18T07:35:12.003Z</time></trkpt><trkpt lat="53.3068532" lon="-1.8592364"><ele>381.0</ele><time>2026-04-18T07:35:13.01Z</time></trkpt><trkpt lat="53.3069611" lon="-1.8591621"><ele>381.0</ele><time>2026-04-18T07:35:14.007Z</time></trkpt><trkpt lat="53.3070637" lon="-1.859088"><ele>381.0</ele><time>2026-04-18T07:35:15.007Z</time></trkpt><trkpt lat="53.3071566" lon="-1.8590201"><ele>381.0</ele><time>2026-04-18T07:35:16.005Z</time></trkpt><trkpt lat="53.3072369" lon="-1.8589585"><ele>381.0</ele><time>2026-04-18T07:35:17.006Z</time></trkpt><trkpt lat="53.3073001" lon="-1.858909"><ele>381.0</ele><time>2026-04-18T07:35:18.006Z</time></trkpt><trkpt lat="53.3073782" lon="-1.8588461"><ele>381.5</ele><time>2026-04-18T07:35:20.007Z</time></trkpt><trkpt lat="53.3074357" lon="-1.8587981"><ele>382.0</ele><time>2026-04-18T07:35:23.008Z</time></trkpt><trkpt lat="53.3075105" lon="-1.8587529"><ele>382.5</ele><time>2026-04-18T07:35:33.004Z</time></trkpt><trkpt lat="53.3075822" lon="-1.8587"><ele>383.0</ele><time>2026-04-18T07:35:34.003Z</time></trkpt><trkpt lat="53.3076725" lon="-1.8586482"><ele>383.5</ele><time>2026-04-18T07:35:35.005Z</time></trkpt><trkpt lat="53.307769" lon="-1.8586097"><ele>384.0</ele><time>2026-04-18T07:35:36.001Z</time></trkpt><trkpt lat="53.3078712" lon="-1.8585828"><ele>384.0</ele><time>2026-04-18T07:35:37.004Z</time></trkpt><trkpt lat="53.3079847" lon="-1.8585663"><ele>384.0</ele><time>2026-04-18T07:35:38.005Z</time></trkpt><trkpt lat="53.3081085" lon="-1.8585498"><ele>384.0</ele><time>2026-04-18T07:35:39.007Z</time></trkpt><trkpt lat="53.3082368" lon="-1.8585331"><ele>384.0</ele><time>2026-04-18T07:35:40.007Z</time></trkpt><trkpt lat="53.3083658" lon="-1.8585096"><ele>384.25</ele><time>2026-04-18T07:35:41.005Z</time></trkpt><trkpt lat="53.3085015" lon="-1.8584743"><ele>384.5</ele><time>2026-04-18T07:35:42.006Z</time></trkpt><trkpt lat="53.3086414" lon="-1.8584216"><ele>384.75</ele><time>2026-04-18T07:35:43.01Z</time></trkpt><trkpt lat="53.3087773" lon="-1.8583333"><ele>385.0</ele><time>2026-04-18T07:35:44.005Z</time></trkpt><trkpt lat="53.3089023" lon="-1.85821"><ele>387.75</ele><time>2026-04-18T07:35:45.006Z</time></trkpt><trkpt lat="53.309008" lon="-1.8580549"><ele>390.5</ele><time>2026-04-18T07:35:46.006Z</time></trkpt><trkpt lat="53.3090986" lon="-1.8578943"><ele>393.25</ele><time>2026-04-18T07:35:47.005Z</time></trkpt><trkpt lat="53.3091779" lon="-1.8577538"><ele>396.0</ele><time>2026-04-18T07:35:48.006Z</time></trkpt><trkpt lat="53.3092566" lon="-1.8576293"><ele>394.75</ele><time>2026-04-18T07:35:49.005Z</time></trkpt><trkpt lat="53.3093422" lon="-1.8575244"><ele>393.5</ele><time>2026-04-18T07:35:50.002Z</time></trkpt><trkpt lat="53.309444" lon="-1.857436"><ele>392.25</ele><time>2026-04-18T07:35:51.005Z</time></trkpt><trkpt lat="53.3095637" lon="-1.8573762"><ele>391.0</ele><time>2026-04-18T07:35:52.006Z</time></trkpt><trkpt lat="53.3096955" lon="-1.8573385"><ele>392.25</ele><time>2026-04-18T07:35:53.009Z</time></trkpt><trkpt lat="53.3098317" lon="-1.8573302"><ele>393.5</ele><time>2026-04-18T07:35:54.006Z</time></trkpt><trkpt lat="53.3099724" lon="-1.8573364"><ele>394.75</ele><time>2026-04-18T07:35:55.006Z</time></trkpt><trkpt lat="53.3101163" lon="-1.8573499"><ele>396.0</ele><time>2026-04-18T07:35:56.005Z</time></trkpt><trkpt lat="53.3102654" lon="-1.8573672"><ele>396.0</ele><time>2026-04-18T07:35:57.006Z</time></trkpt><trkpt lat="53.3104105" lon="-1.857392"><ele>396.0</ele><time>2026-04-18T07:35:58.006Z</time></trkpt><trkpt lat="53.3105476" lon="-1.8574243"><ele>396.0</ele><time>2026-04-18T07:35:59Z</time></trkpt><trkpt lat="53.3106803" lon="-1.8574733"><ele>396.0</ele><time>2026-04-18T07:36:00.005Z</time></trkpt><trkpt lat="53.3108123" lon="-1.8575396"><ele>396.5</ele><time>2026-04-18T07:36:00.998Z</time></trkpt><trkpt lat="53.3109459" lon="-1.8576198"><ele>397.0</ele><time>2026-04-18T07:36:02.005Z</time></trkpt><trkpt lat="53.3110851" lon="-1.8577159"><ele>397.5</ele><time>2026-04-18T07:36:03.004Z</time></trkpt><trkpt lat="53.3112218" lon="-1.8578246"><ele>398.0</ele><time>2026-04-18T07:36:03.996Z</time></trkpt><trkpt lat="53.3113577" lon="-1.8579389"><ele>397.0</ele><time>2026-04-18T07:36:05.004Z</time></trkpt><trkpt lat="53.3114916" lon="-1.8580547"><ele>396.0</ele><time>2026-04-18T07:36:06.006Z</time></trkpt><trkpt lat="53.3116266" lon="-1.8581718"><ele>395.0</ele><time>2026-04-18T07:36:07.005Z</time></trkpt><trkpt lat="53.3117618" lon="-1.8582902"><ele>395.0</ele><time>2026-04-18T07:36:08.006Z</time></trkpt><trkpt lat="53.3118927" lon="-1.8584075"><ele>395.0</ele><time>2026-04-18T07:36:09.006Z</time></trkpt><trkpt lat="53.3120222" lon="-1.858523"><ele>395.0</ele><time>2026-04-18T07:36:10.006Z</time></trkpt><trkpt lat="53.3121525" lon="-1.8586368"><ele>395.0</ele><time>2026-04-18T07:36:11.002Z</time></trkpt><trkpt lat="53.3122813" lon="-1.8587454"><ele>395.4</ele><time>2026-04-18T07:36:12.004Z</time></trkpt><trkpt lat="53.3123996" lon="-1.8588362"><ele>395.8</ele><time>2026-04-18T07:36:13.01Z</time></trkpt><trkpt lat="53.3125049" lon="-1.8589283"><ele>396.20000000000005</ele><time>2026-04-18T07:36:14.006Z</time></trkpt><trkpt lat="53.3125919" lon="-1.859009"><ele>396.6</ele><time>2026-04-18T07:36:15.004Z</time></trkpt><trkpt lat="53.312661" lon="-1.8590944"><ele>397.0</ele><time>2026-04-18T07:36:16.007Z</time></trkpt><trkpt lat="53.3127178" lon="-1.8592082"><ele>397.8</ele><time>2026-04-18T07:36:17.003Z</time></trkpt><trkpt lat="53.3127624" lon="-1.8593445"><ele>398.6</ele><time>2026-04-18T07:36:18.004Z</time></trkpt><trkpt lat="53.3127903" lon="-1.8594996"><ele>399.40000000000003</ele><time>2026-04-18T07:36:19.003Z</time></trkpt><trkpt lat="53.3128049" lon="-1.8596842"><ele>400.20000000000005</ele><time>2026-04-18T07:36:20.008Z</time></trkpt><trkpt lat="53.3128106" lon="-1.8598922"><ele>401.0</ele><time>2026-04-18T07:36:21.006Z</time></trkpt><trkpt lat="53.3128146" lon="-1.8601014"><ele>401.4</ele><time>2026-04-18T07:36:22.006Z</time></trkpt><trkpt lat="53.3128165" lon="-1.8602988"><ele>401.8</ele><time>2026-04-18T07:36:23.008Z</time></trkpt><trkpt lat="53.312819" lon="-1.8604633"><ele>402.2</ele><time>2026-04-18T07:36:24.004Z</time></trkpt><trkpt lat="53.3128195" lon="-1.860582"><ele>402.59999999999997</ele><time>2026-04-18T07:36:25.005Z</time></trkpt><trkpt lat="53.3128502" lon="-1.8607569"><ele>403.0</ele><time>2026-04-18T07:36:27.006Z</time></trkpt><trkpt lat="53.3128925" lon="-1.8608705"><ele>403.0</ele><time>2026-04-18T07:36:28.006Z</time></trkpt><trkpt lat="53.312943" lon="-1.8610067"><ele>403.0</ele><time>2026-04-18T07:36:29.006Z</time></trkpt><trkpt lat="53.3129956" lon="-1.8611517"><ele>403.0</ele><time>2026-04-18T07:36:30.006Z</time></trkpt><trkpt lat="53.3130485" lon="-1.8613093"><ele>403.0</ele><time>2026-04-18T07:36:31.006Z</time></trkpt><trkpt lat="53.313096" lon="-1.8614599"><ele>403.0</ele><time>2026-04-18T07:36:32.006Z</time></trkpt><trkpt lat="53.3131341" lon="-1.8615925"><ele>402.83333333333337</ele><time>2026-04-18T07:36:33.007Z</time></trkpt><trkpt lat="53.3131608" lon="-1.8617108"><ele>402.6666666666667</ele><time>2026-04-18T07:36:34.006Z</time></trkpt><trkpt lat="53.3131726" lon="-1.8618245"><ele>402.5</ele><time>2026-04-18T07:36:35.007Z</time></trkpt><trkpt lat="53.3131649" lon="-1.8619366"><ele>402.33333333333337</ele><time>2026-04-18T07:36:36.005Z</time></trkpt><trkpt lat="53.3131373" lon="-1.8620413"><ele>402.1666666666667</ele><time>2026-04-18T07:36:37.004Z</time></trkpt><trkpt lat="53.3130539" lon="-1.862175"><ele>402.0</ele><time>2026-04-18T07:36:39.005Z</time></trkpt><trkpt lat="53.312947" lon="-1.8623155"><ele>402.0</ele><time>2026-04-18T07:36:40.999Z</time></trkpt><trkpt lat="53.3128764" lon="-1.8624031"><ele>402.0</ele><time>2026-04-18T07:36:42.003Z</time></trkpt><trkpt lat="53.3127935" lon="-1.8624922"><ele>402.0</ele><time>2026-04-18T07:36:43.004Z</time></trkpt><trkpt lat="53.3126995" lon="-1.8625809"><ele>402.0</ele><time>2026-04-18T07:36:44.005Z</time></trkpt><trkpt lat="53.3125964" lon="-1.8626785"><ele>402.0</ele><time>2026-04-18T07:36:45.005Z</time></trkpt><trkpt lat="53.3124891" lon="-1.8627797"><ele>402.0</ele><time>2026-04-18T07:36:46.004Z</time></trkpt><trkpt lat="53.3123808" lon="-1.8628882"><ele>402.0</ele><time>2026-04-18T07:36:47.003Z</time></trkpt><trkpt lat="53.3122723" lon="-1.8630164"><ele>402.0</ele><time>2026-04-18T07:36:48.003Z</time></trkpt><trkpt lat="53.3121688" lon="-1.8631738"><ele>402.0</ele><time>2026-04-18T07:36:49.004Z</time></trkpt><trkpt lat="53.3120715" lon="-1.863356"><ele>401.0</ele><time>2026-04-18T07:36:50.006Z</time></trkpt><trkpt lat="53.3119825" lon="-1.8635539"><ele>400.0</ele><time>2026-04-18T07:36:51.004Z</time></trkpt><trkpt lat="53.3119038" lon="-1.8637461"><ele>399.0</ele><time>2026-04-18T07:36:52.004Z</time></trkpt><trkpt lat="53.3118404" lon="-1.8639174"><ele>398.0</ele><time>2026-04-18T07:36:53.008Z</time></trkpt><trkpt lat="53.3117944" lon="-1.8640708"><ele>397.99999999999994</ele><time>2026-04-18T07:36:54.004Z</time></trkpt><trkpt lat="53.3117616" lon="-1.8642106"><ele>398.0</ele><time>2026-04-18T07:36:55.006Z</time></trkpt><trkpt lat="53.311742" lon="-1.864338"><ele>398.0</ele><time>2026-04-18T07:36:56.006Z</time></trkpt><trkpt lat="53.3117365" lon="-1.8644557"><ele>398.0</ele><time>2026-04-18T07:36:57.004Z</time></trkpt><trkpt lat="53.311745" lon="-1.864582"><ele>397.99999999999994</ele><time>2026-04-18T07:36:58.003Z</time></trkpt><trkpt lat="53.3117643" lon="-1.8647285"><ele>398.0</ele><time>2026-04-18T07:36:59.005Z</time></trkpt><trkpt lat="53.3117971" lon="-1.8649062"><ele>396.75</ele><time>2026-04-18T07:37:00.005Z</time></trkpt><trkpt lat="53.3118408" lon="-1.8651025"><ele>395.5</ele><time>2026-04-18T07:37:00.996Z</time></trkpt><trkpt lat="53.3118845" lon="-1.8652917"><ele>394.25</ele><time>2026-04-18T07:37:02.006Z</time></trkpt><trkpt lat="53.3119216" lon="-1.8654762"><ele>393.0</ele><time>2026-04-18T07:37:03.009Z</time></trkpt><trkpt lat="53.3119583" lon="-1.8656517"><ele>391.59999999999997</ele><time>2026-04-18T07:37:04.005Z</time></trkpt><trkpt lat="53.3119934" lon="-1.8658091"><ele>390.2</ele><time>2026-04-18T07:37:05.004Z</time></trkpt><trkpt lat="53.3120245" lon="-1.8659554"><ele>388.8</ele><time>2026-04-18T07:37:06.005Z</time></trkpt><trkpt lat="53.3120481" lon="-1.866081"><ele>387.4</ele><time>2026-04-18T07:37:07.005Z</time></trkpt><trkpt lat="53.3119932" lon="-1.8662592"><ele>386.0</ele><time>2026-04-18T07:37:09.003Z</time></trkpt><trkpt lat="53.3119117" lon="-1.8663248"><ele>385.0</ele><time>2026-04-18T07:37:10.005Z</time></trkpt><trkpt lat="53.3118002" lon="-1.8663922"><ele>384.0</ele><time>2026-04-18T07:37:11.003Z</time></trkpt><trkpt lat="53.3116773" lon="-1.8664777"><ele>383.0</ele><time>2026-04-18T07:37:12.002Z</time></trkpt><trkpt lat="53.311551" lon="-1.866579"><ele>382.0</ele><time>2026-04-18T07:37:13.004Z</time></trkpt><trkpt lat="53.3114248" lon="-1.8666751"><ele>381.8</ele><time>2026-04-18T07:37:14.006Z</time></trkpt><trkpt lat="53.3113104" lon="-1.8667629"><ele>381.6</ele><time>2026-04-18T07:37:15.003Z</time></trkpt><trkpt lat="53.3112129" lon="-1.8668343"><ele>381.40000000000003</ele><time>2026-04-18T07:37:16.003Z</time></trkpt><trkpt lat="53.3111475" lon="-1.8669088"><ele>381.20000000000005</ele><time>2026-04-18T07:37:17.004Z</time></trkpt><trkpt lat="53.3111035" lon="-1.8670147"><ele>381.0</ele><time>2026-04-18T07:37:18.005Z</time></trkpt><trkpt lat="53.311079" lon="-1.8671651"><ele>380.6</ele><time>2026-04-18T07:37:19.004Z</time></trkpt><trkpt lat="53.3110751" lon="-1.8673576"><ele>380.20000000000005</ele><time>2026-04-18T07:37:20.007Z</time></trkpt><trkpt lat="53.311085" lon="-1.8675509"><ele>379.79999999999995</ele><time>2026-04-18T07:37:21.004Z</time></trkpt><trkpt lat="53.3110885" lon="-1.8677213"><ele>379.4</ele><time>2026-04-18T07:37:22.004Z</time></trkpt><trkpt lat="53.3110608" lon="-1.8678576"><ele>379.0</ele><time>2026-04-18T07:37:23.004Z</time></trkpt><trkpt lat="53.3109916" lon="-1.8679459"><ele>378.5</ele><time>2026-04-18T07:37:24.002Z</time></trkpt><trkpt lat="53.3108945" lon="-1.8679877"><ele>378.0</ele><time>2026-04-18T07:37:25.004Z</time></trkpt><trkpt lat="53.3107703" lon="-1.8679968"><ele>377.5</ele><time>2026-04-18T07:37:26.004Z</time></trkpt><trkpt lat="53.3106308" lon="-1.86799"><ele>377.0</ele><time>2026-04-18T07:37:27.005Z</time></trkpt><trkpt lat="53.3104847" lon="-1.8679887"><ele>376.75</ele><time>2026-04-18T07:37:28.005Z</time></trkpt><trkpt lat="53.310337" lon="-1.8679944"><ele>376.5</ele><time>2026-04-18T07:37:29.006Z</time></trkpt><trkpt lat="53.3101969" lon="-1.8679997"><ele>376.25</ele><time>2026-04-18T07:37:30.008Z</time></trkpt><trkpt lat="53.3100645" lon="-1.8679995"><ele>376.0</ele><time>2026-04-18T07:37:31.006Z</time></trkpt><trkpt lat="53.3099427" lon="-1.8679976"><ele>376.0</ele><time>2026-04-18T07:37:32.004Z</time></trkpt><trkpt lat="53.3098291" lon="-1.8679905"><ele>376.0</ele><time>2026-04-18T07:37:33.004Z</time></trkpt><trkpt lat="53.3097262" lon="-1.8679749"><ele>376.0</ele><time>2026-04-18T07:37:34.004Z</time></trkpt><trkpt lat="53.3096362" lon="-1.867937"><ele>376.0</ele><time>2026-04-18T07:37:35.004Z</time></trkpt><trkpt lat="53.3095612" lon="-1.8678811"><ele>376.0</ele><time>2026-04-18T07:37:36.006Z</time></trkpt><trkpt lat="53.3094901" lon="-1.8678396"><ele>375.0</ele><time>2026-04-18T07:37:37.003Z</time></trkpt><trkpt lat="53.3094219" lon="-1.8678558"><ele>374.0</ele><time>2026-04-18T07:37:38.002Z</time></trkpt><trkpt lat="53.3093384" lon="-1.8679414"><ele>373.0</ele><time>2026-04-18T07:37:39.006Z</time></trkpt><trkpt lat="53.3092375" lon="-1.8680682"><ele>372.0</ele><time>2026-04-18T07:37:40.008Z</time></trkpt><trkpt lat="53.3091289" lon="-1.868207"><ele>371.0</ele><time>2026-04-18T07:37:41.003Z</time></trkpt><trkpt lat="53.3090164" lon="-1.8683234"><ele>370.0</ele><time>2026-04-18T07:37:42.004Z</time></trkpt><trkpt lat="53.3089027" lon="-1.8684324"><ele>369.0</ele><time>2026-04-18T07:37:43.011Z</time></trkpt><trkpt lat="53.3087932" lon="-1.8685268"><ele>368.0</ele><time>2026-04-18T07:37:44.005Z</time></trkpt><trkpt lat="53.3086805" lon="-1.8686191"><ele>367.0</ele><time>2026-04-18T07:37:45.002Z</time></trkpt><trkpt lat="53.3085706" lon="-1.8687125"><ele>366.75</ele><time>2026-04-18T07:37:46.003Z</time></trkpt><trkpt lat="53.3084625" lon="-1.8688084"><ele>366.5</ele><time>2026-04-18T07:37:47.004Z</time></trkpt><trkpt lat="53.3083528" lon="-1.8689042"><ele>366.25</ele><time>2026-04-18T07:37:48.003Z</time></trkpt><trkpt lat="53.3082464" lon="-1.8689953"><ele>366.0</ele><time>2026-04-18T07:37:49.001Z</time></trkpt><trkpt lat="53.3081466" lon="-1.8690821"><ele>365.5</ele><time>2026-04-18T07:37:50.004Z</time></trkpt><trkpt lat="53.3080441" lon="-1.8691722"><ele>365.0</ele><time>2026-04-18T07:37:51.005Z</time></trkpt><trkpt lat="53.3079364" lon="-1.8692693"><ele>364.5</ele><time>2026-04-18T07:37:52.004Z</time></trkpt><trkpt lat="53.3078305" lon="-1.8693689"><ele>364.0</ele><time>2026-04-18T07:37:53.005Z</time></trkpt><trkpt lat="53.3077285" lon="-1.8694624"><ele>363.4</ele><time>2026-04-18T07:37:54.004Z</time></trkpt><trkpt lat="53.3076343" lon="-1.8695501"><ele>362.79999999999995</ele><time>2026-04-18T07:37:55.005Z</time></trkpt><trkpt lat="53.3075485" lon="-1.8696284"><ele>362.20000000000005</ele><time>2026-04-18T07:37:56.003Z</time></trkpt><trkpt lat="53.3074743" lon="-1.8696944"><ele>361.6</ele><time>2026-04-18T07:37:57.001Z</time></trkpt><trkpt lat="53.3074096" lon="-1.8697358"><ele>361.0</ele><time>2026-04-18T07:37:58.002Z</time></trkpt><trkpt lat="53.3073011" lon="-1.8697567"><ele>360.5</ele><time>2026-04-18T07:38:00.005Z</time></trkpt><trkpt lat="53.3072002" lon="-1.8698191"><ele>360.0</ele><time>2026-04-18T07:38:02.003Z</time></trkpt><trkpt lat="53.3072029" lon="-1.8700477"><ele>359.5</ele><time>2026-04-18T07:38:04.006Z</time></trkpt><trkpt lat="53.307269" lon="-1.8701839"><ele>359.0</ele><time>2026-04-18T07:38:05.005Z</time></trkpt><trkpt lat="53.3073566" lon="-1.8703329"><ele>359.0</ele><time>2026-04-18T07:38:06.005Z</time></trkpt><trkpt lat="53.3074434" lon="-1.8705028"><ele>359.0</ele><time>2026-04-18T07:38:07.003Z</time></trkpt><trkpt lat="53.3075123" lon="-1.8706857"><ele>359.0</ele><time>2026-04-18T07:38:08.006Z</time></trkpt><trkpt lat="53.3075742" lon="-1.8708845"><ele>359.0</ele><time>2026-04-18T07:38:09.005Z</time></trkpt><trkpt lat="53.3076338" lon="-1.8710827"><ele>358.5</ele><time>2026-04-18T07:38:10.006Z</time></trkpt><trkpt lat="53.307692" lon="-1.8712714"><ele>358.0</ele><time>2026-04-18T07:38:11.003Z</time></trkpt><trkpt lat="53.3077485" lon="-1.8714496"><ele>357.5</ele><time>2026-04-18T07:38:12.003Z</time></trkpt><trkpt lat="53.3078071" lon="-1.8716248"><ele>357.0</ele><time>2026-04-18T07:38:13.008Z</time></trkpt><trkpt lat="53.3078683" lon="-1.8718043"><ele>357.0</ele><time>2026-04-18T07:38:14.004Z</time></trkpt><trkpt lat="53.3079262" lon="-1.871986"><ele>357.0</ele><time>2026-04-18T07:38:15.004Z</time></trkpt><trkpt lat="53.3079777" lon="-1.8721625"><ele>357.0</ele><time>2026-04-18T07:38:16.006Z</time></trkpt><trkpt lat="53.3080232" lon="-1.8723214"><ele>357.0</ele><time>2026-04-18T07:38:17.005Z</time></trkpt><trkpt lat="53.3080701" lon="-1.8724673"><ele>357.0</ele><time>2026-04-18T07:38:18.005Z</time></trkpt><trkpt lat="53.3081233" lon="-1.8726118"><ele>357.0</ele><time>2026-04-18T07:38:19.004Z</time></trkpt><trkpt lat="53.3081797" lon="-1.8727616"><ele>357.0</ele><time>2026-04-18T07:38:20.005Z</time></trkpt><trkpt lat="53.3082337" lon="-1.8729284"><ele>357.0</ele><time>2026-04-18T07:38:21.004Z</time></trkpt><trkpt lat="53.3082765" lon="-1.8731069"><ele>357.0</ele><time>2026-04-18T07:38:22.003Z</time></trkpt><trkpt lat="53.3083077" lon="-1.8732934"><ele>356.6</ele><time>2026-04-18T07:38:23.006Z</time></trkpt><trkpt lat="53.3083366" lon="-1.8734777"><ele>356.20000000000005</ele><time>2026-04-18T07:38:24.003Z</time></trkpt><trkpt lat="53.3083645" lon="-1.8736501"><ele>355.8</ele><time>2026-04-18T07:38:25.002Z</time></trkpt><trkpt lat="53.3083967" lon="-1.873819"><ele>355.4</ele><time>2026-04-18T07:38:26.004Z</time></trkpt><trkpt lat="53.3084318" lon="-1.8739885"><ele>355.0</ele><time>2026-04-18T07:38:27.003Z</time></trkpt><trkpt lat="53.3084673" lon="-1.8741643"><ele>354.25</ele><time>2026-04-18T07:38:28.006Z</time></trkpt><trkpt lat="53.3085104" lon="-1.8743504"><ele>353.5</ele><time>2026-04-18T07:38:29.002Z</time></trkpt><trkpt lat="53.3085584" lon="-1.8745361"><ele>352.75</ele><time>2026-04-18T07:38:30.006Z</time></trkpt><trkpt lat="53.3086157" lon="-1.8747331"><ele>352.0</ele><time>2026-04-18T07:38:31.007Z</time></trkpt><trkpt lat="53.3086818" lon="-1.8749546"><ele>351.0</ele><time>2026-04-18T07:38:32.006Z</time></trkpt><trkpt lat="53.3087513" lon="-1.8751868"><ele>350.0</ele><time>2026-04-18T07:38:33.006Z</time></trkpt><trkpt lat="53.3088244" lon="-1.8754356"><ele>349.0</ele><time>2026-04-18T07:38:34.006Z</time></trkpt><trkpt lat="53.3088992" lon="-1.8756798"><ele>349.0</ele><time>2026-04-18T07:38:35.012Z</time></trkpt><trkpt lat="53.3089672" lon="-1.8759153"><ele>349.0</ele><time>2026-04-18T07:38:36.008Z</time></trkpt><trkpt lat="53.3090268" lon="-1.876136"><ele>349.0</ele><time>2026-04-18T07:38:37.006Z</time></trkpt><trkpt lat="53.3090799" lon="-1.8763358"><ele>349.0</ele><time>2026-04-18T07:38:38.003Z</time></trkpt><trkpt lat="53.3091233" lon="-1.8765186"><ele>349.0</ele><time>2026-04-18T07:38:39.006Z</time></trkpt><trkpt lat="53.3091596" lon="-1.8766996"><ele>349.0</ele><time>2026-04-18T07:38:40.007Z</time></trkpt><trkpt lat="53.3091916" lon="-1.8768866"><ele>349.0</ele><time>2026-04-18T07:38:41.004Z</time></trkpt><trkpt lat="53.3092259" lon="-1.8770807"><ele>349.0</ele><time>2026-04-18T07:38:42.003Z</time></trkpt><trkpt lat="53.3092664" lon="-1.8772858"><ele>349.0</ele><time>2026-04-18T07:38:43.008Z</time></trkpt><trkpt lat="53.309312" lon="-1.8774994"><ele>349.0</ele><time>2026-04-18T07:38:44.003Z</time></trkpt><trkpt lat="53.3093615" lon="-1.8777165"><ele>349.0</ele><time>2026-04-18T07:38:45.004Z</time></trkpt><trkpt lat="53.3094157" lon="-1.8779335"><ele>349.0</ele><time>2026-04-18T07:38:46.005Z</time></trkpt><trkpt lat="53.3094722" lon="-1.8781359"><ele>349.0</ele><time>2026-04-18T07:38:47.004Z</time></trkpt><trkpt lat="53.3095306" lon="-1.8783287"><ele>349.0</ele><time>2026-04-18T07:38:48.004Z</time></trkpt><trkpt lat="53.3095917" lon="-1.8785216"><ele>349.0</ele><time>2026-04-18T07:38:49.003Z</time></trkpt><trkpt lat="53.3096566" lon="-1.8787144"><ele>349.0</ele><time>2026-04-18T07:38:50.005Z</time></trkpt><trkpt lat="53.3097225" lon="-1.8789056"><ele>348.5</ele><time>2026-04-18T07:38:51.004Z</time></trkpt><trkpt lat="53.3097874" lon="-1.8790987"><ele>348.0</ele><time>2026-04-18T07:38:52.004Z</time></trkpt><trkpt lat="53.3098506" lon="-1.8792915"><ele>347.5</ele><time>2026-04-18T07:38:53.005Z</time></trkpt><trkpt lat="53.3099131" lon="-1.879485"><ele>347.0</ele><time>2026-04-18T07:38:54.004Z</time></trkpt><trkpt lat="53.3099749" lon="-1.8796816"><ele>347.0</ele><time>2026-04-18T07:38:55.003Z</time></trkpt><trkpt lat="53.3100357" lon="-1.8798715"><ele>347.0</ele><time>2026-04-18T07:38:56.002Z</time></trkpt><trkpt lat="53.3100953" lon="-1.8800541"><ele>347.0</ele><time>2026-04-18T07:38:57.003Z</time></trkpt><trkpt lat="53.3101532" lon="-1.8802396"><ele>347.0</ele><time>2026-04-18T07:38:58.003Z</time></trkpt><trkpt lat="53.310209" lon="-1.8804334"><ele>346.5</ele><time>2026-04-18T07:38:59.004Z</time></trkpt><trkpt lat="53.3102659" lon="-1.8806333"><ele>346.0</ele><time>2026-04-18T07:39:00.005Z</time></trkpt><trkpt lat="53.3103247" lon="-1.8808371"><ele>345.5</ele><time>2026-04-18T07:39:01.005Z</time></trkpt><trkpt lat="53.3103783" lon="-1.8810389"><ele>345.0</ele><time>2026-04-18T07:39:02.005Z</time></trkpt><trkpt lat="53.3104264" lon="-1.8812387"><ele>344.8</ele><time>2026-04-18T07:39:03.007Z</time></trkpt><trkpt lat="53.3104679" lon="-1.881433"><ele>344.6</ele><time>2026-04-18T07:39:04.007Z</time></trkpt><trkpt lat="53.3105003" lon="-1.8816066"><ele>344.4</ele><time>2026-04-18T07:39:05.005Z</time></trkpt><trkpt lat="53.3105238" lon="-1.8817687"><ele>344.2</ele><time>2026-04-18T07:39:06.006Z</time></trkpt><trkpt lat="53.3105392" lon="-1.8819385"><ele>344.0</ele><time>2026-04-18T07:39:07.005Z</time></trkpt><trkpt lat="53.3105393" lon="-1.8821246"><ele>343.75</ele><time>2026-04-18T07:39:08.005Z</time></trkpt><trkpt lat="53.3105233" lon="-1.882323"><ele>343.5</ele><time>2026-04-18T07:39:09.003Z</time></trkpt><trkpt lat="53.3104878" lon="-1.882529"><ele>343.25</ele><time>2026-04-18T07:39:10.007Z</time></trkpt><trkpt lat="53.3104429" lon="-1.8827294"><ele>343.0</ele><time>2026-04-18T07:39:11.004Z</time></trkpt><trkpt lat="53.3103906" lon="-1.882931"><ele>342.5</ele><time>2026-04-18T07:39:12.003Z</time></trkpt><trkpt lat="53.310332" lon="-1.8831323"><ele>342.0</ele><time>2026-04-18T07:39:13.005Z</time></trkpt><trkpt lat="53.3102696" lon="-1.8833306"><ele>341.5</ele><time>2026-04-18T07:39:14.004Z</time></trkpt><trkpt lat="53.3102016" lon="-1.8835272"><ele>341.0</ele><time>2026-04-18T07:39:15.005Z</time></trkpt><trkpt lat="53.3101283" lon="-1.8837143"><ele>340.25</ele><time>2026-04-18T07:39:16.002Z</time></trkpt><trkpt lat="53.310052" lon="-1.8838996"><ele>339.5</ele><time>2026-04-18T07:39:17.004Z</time></trkpt><trkpt lat="53.3099796" lon="-1.884068"><ele>338.75</ele><time>2026-04-18T07:39:18.003Z</time></trkpt><trkpt lat="53.3099131" lon="-1.8842143"><ele>338.0</ele><time>2026-04-18T07:39:19.003Z</time></trkpt><trkpt lat="53.3098536" lon="-1.8843376"><ele>337.1666666666667</ele><time>2026-04-18T07:39:20.004Z</time></trkpt><trkpt lat="53.3098035" lon="-1.8844421"><ele>336.33333333333337</ele><time>2026-04-18T07:39:21.004Z</time></trkpt><trkpt lat="53.3097581" lon="-1.8845333"><ele>335.5</ele><time>2026-04-18T07:39:22.002Z</time></trkpt><trkpt lat="53.309715" lon="-1.8846209"><ele>334.6666666666667</ele><time>2026-04-18T07:39:23Z</time></trkpt><trkpt lat="53.3096728" lon="-1.8847082"><ele>333.8333333333333</ele><time>2026-04-18T07:39:24Z</time></trkpt><trkpt lat="53.3096097" lon="-1.8848721"><ele>333.0</ele><time>2026-04-18T07:39:26.001Z</time></trkpt><trkpt lat="53.3095667" lon="-1.8850533"><ele>331.3333333333333</ele><time>2026-04-18T07:39:28.003Z</time></trkpt><trkpt lat="53.3095524" lon="-1.8852484"><ele>329.6666666666667</ele><time>2026-04-18T07:39:30.002Z</time></trkpt><trkpt lat="53.309557" lon="-1.8854029"><ele>328.0</ele><time>2026-04-18T07:39:32.003Z</time></trkpt><trkpt lat="53.3095383" lon="-1.8855179"><ele>326.33333333333337</ele><time>2026-04-18T07:39:35.002Z</time></trkpt><trkpt lat="53.3095484" lon="-1.8856298"><ele>324.6666666666667</ele><time>2026-04-18T07:39:38.004Z</time></trkpt><trkpt lat="53.309595" lon="-1.8857119"><ele>323.0</ele><time>2026-04-18T07:39:39.005Z</time></trkpt><trkpt lat="53.3096748" lon="-1.8858067"><ele>323.0</ele><time>2026-04-18T07:39:40.004Z</time></trkpt><trkpt lat="53.309785" lon="-1.8858984"><ele>323.0</ele><time>2026-04-18T07:39:41.002Z</time></trkpt><trkpt lat="53.3099135" lon="-1.8859951"><ele>323.0</ele><time>2026-04-18T07:39:42.004Z</time></trkpt><trkpt lat="53.3100551" lon="-1.8860924"><ele>323.0</ele><time>2026-04-18T07:39:43.003Z</time></trkpt><trkpt lat="53.3102015" lon="-1.8861935"><ele>322.0</ele><time>2026-04-18T07:39:44.002Z</time></trkpt><trkpt lat="53.3103532" lon="-1.8862808"><ele>321.0</ele><time>2026-04-18T07:39:45.002Z</time></trkpt><trkpt lat="53.3105026" lon="-1.8863511"><ele>320.0</ele><time>2026-04-18T07:39:46.002Z</time></trkpt><trkpt lat="53.3106462" lon="-1.8863748"><ele>319.5</ele><time>2026-04-18T07:39:47.003Z</time></trkpt><trkpt lat="53.3107882" lon="-1.8863542"><ele>319.0</ele><time>2026-04-18T07:39:48.003Z</time></trkpt><trkpt lat="53.3109354" lon="-1.8863091"><ele>318.5</ele><time>2026-04-18T07:39:49.003Z</time></trkpt><trkpt lat="53.3110726" lon="-1.8862594"><ele>318.0</ele><time>2026-04-18T07:39:50Z</time></trkpt><trkpt lat="53.3112029" lon="-1.8862195"><ele>318.0</ele><time>2026-04-18T07:39:50.999Z</time></trkpt><trkpt lat="53.3113187" lon="-1.8861945"><ele>318.0</ele><time>2026-04-18T07:39:52.001Z</time></trkpt><trkpt lat="53.3114205" lon="-1.8861889"><ele>318.0</ele><time>2026-04-18T07:39:53.003Z</time></trkpt><trkpt lat="53.311514" lon="-1.8862164"><ele>318.0</ele><time>2026-04-18T07:39:54Z</time></trkpt><trkpt lat="53.311602" lon="-1.8863042"><ele>318.0</ele><time>2026-04-18T07:39:54.995Z</time></trkpt><trkpt lat="53.3116829" lon="-1.8864273"><ele>318.0</ele><time>2026-04-18T07:39:56.001Z</time></trkpt><trkpt lat="53.3117592" lon="-1.8865724"><ele>318.0</ele><time>2026-04-18T07:39:57.003Z</time></trkpt><trkpt lat="53.3118431" lon="-1.8867174"><ele>318.0</ele><time>2026-04-18T07:39:58.003Z</time></trkpt><trkpt lat="53.3119317" lon="-1.8868544"><ele>318.0</ele><time>2026-04-18T07:39:59.001Z</time></trkpt><trkpt lat="53.3120277" lon="-1.8869954"><ele>318.0</ele><time>2026-04-18T07:40:00.001Z</time></trkpt><trkpt lat="53.3121181" lon="-1.8871439"><ele>318.0</ele><time>2026-04-18T07:40:01.006Z</time></trkpt><trkpt lat="53.3122015" lon="-1.8873129"><ele>318.0</ele><time>2026-04-18T07:40:02.004Z</time></trkpt><trkpt lat="53.3122691" lon="-1.8875056"><ele>318.0</ele><time>2026-04-18T07:40:03.002Z</time></trkpt><trkpt lat="53.3123244" lon="-1.8877218"><ele>316.0</ele><time>2026-04-18T07:40:04.002Z</time></trkpt><trkpt lat="53.3123755" lon="-1.8879533"><ele>314.0</ele><time>2026-04-18T07:40:05.001Z</time></trkpt><trkpt lat="53.3124335" lon="-1.8882144"><ele>312.0</ele><time>2026-04-18T07:40:06.003Z</time></trkpt><trkpt lat="53.3124988" lon="-1.8884978"><ele>312.0</ele><time>2026-04-18T07:40:07.001Z</time></trkpt><trkpt lat="53.3125727" lon="-1.8887959"><ele>312.0</ele><time>2026-04-18T07:40:08.002Z</time></trkpt><trkpt lat="53.312646" lon="-1.8891055"><ele>312.0</ele><time>2026-04-18T07:40:09.002Z</time></trkpt><trkpt lat="53.312722" lon="-1.8894208"><ele>312.3333333333333</ele><time>2026-04-18T07:40:10.002Z</time></trkpt><trkpt lat="53.312799" lon="-1.8897365"><ele>312.66666666666663</ele><time>2026-04-18T07:40:11Z</time></trkpt><trkpt lat="53.31288" lon="-1.8900426"><ele>313.0</ele><time>2026-04-18T07:40:11.999Z</time></trkpt><trkpt lat="53.3129686" lon="-1.8903271"><ele>312.3333333333333</ele><time>2026-04-18T07:40:13.005Z</time></trkpt><trkpt lat="53.3130683" lon="-1.8905795"><ele>311.6666666666667</ele><time>2026-04-18T07:40:14.002Z</time></trkpt><trkpt lat="53.3131892" lon="-1.8907981"><ele>311.0</ele><time>2026-04-18T07:40:14.999Z</time></trkpt><trkpt lat="53.3133293" lon="-1.8909879"><ele>312.6666666666667</ele><time>2026-04-18T07:40:15.998Z</time></trkpt><trkpt lat="53.3134764" lon="-1.8911642"><ele>314.3333333333333</ele><time>2026-04-18T07:40:16.997Z</time></trkpt><trkpt lat="53.313624" lon="-1.8913302"><ele>316.0</ele><time>2026-04-18T07:40:18Z</time></trkpt><trkpt lat="53.3137703" lon="-1.8914895"><ele>315.66666666666663</ele><time>2026-04-18T07:40:18.997Z</time></trkpt><trkpt lat="53.3139131" lon="-1.8916406"><ele>315.3333333333333</ele><time>2026-04-18T07:40:20Z</time></trkpt><trkpt lat="53.3140523" lon="-1.891777"><ele>315.0</ele><time>2026-04-18T07:40:21Z</time></trkpt><trkpt lat="53.3141804" lon="-1.8918996"><ele>315.0</ele><time>2026-04-18T07:40:22.002Z</time></trkpt><trkpt lat="53.314305" lon="-1.8920184"><ele>315.0</ele><time>2026-04-18T07:40:23.005Z</time></trkpt><trkpt lat="53.3144211" lon="-1.8921588"><ele>315.0</ele><time>2026-04-18T07:40:24.002Z</time></trkpt><trkpt lat="53.3145316" lon="-1.8923025"><ele>315.0</ele><time>2026-04-18T07:40:25.001Z</time></trkpt><trkpt lat="53.3146457" lon="-1.8924394"><ele>313.75</ele><time>2026-04-18T07:40:25.999Z</time></trkpt><trkpt lat="53.3147737" lon="-1.892553"><ele>312.5</ele><time>2026-04-18T07:40:26.994Z</time></trkpt><trkpt lat="53.3149133" lon="-1.8926431"><ele>311.25</ele><time>2026-04-18T07:40:28.001Z</time></trkpt><trkpt lat="53.3150629" lon="-1.8927033"><ele>310.0</ele><time>2026-04-18T07:40:29.002Z</time></trkpt><trkpt lat="53.3152225" lon="-1.8927461"><ele>310.0</ele><time>2026-04-18T07:40:30.005Z</time></trkpt><trkpt lat="53.3153904" lon="-1.8927851"><ele>310.0</ele><time>2026-04-18T07:40:31.004Z</time></trkpt><trkpt lat="53.3155663" lon="-1.8928229"><ele>310.0</ele><time>2026-04-18T07:40:32.005Z</time></trkpt><trkpt lat="53.3157427" lon="-1.8928605"><ele>308.66666666666663</ele><time>2026-04-18T07:40:33.004Z</time></trkpt><trkpt lat="53.3159096" lon="-1.8929026"><ele>307.3333333333333</ele><time>2026-04-18T07:40:34.002Z</time></trkpt><trkpt lat="53.3160677" lon="-1.8929442"><ele>306.0</ele><time>2026-04-18T07:40:35.004Z</time></trkpt><trkpt lat="53.3162224" lon="-1.8929777"><ele>306.0</ele><time>2026-04-18T07:40:36.002Z</time></trkpt><trkpt lat="53.3163796" lon="-1.8930006"><ele>306.0</ele><time>2026-04-18T07:40:37.002Z</time></trkpt><trkpt lat="53.3165431" lon="-1.8930024"><ele>306.0</ele><time>2026-04-18T07:40:38.001Z</time></trkpt><trkpt lat="53.3167119" lon="-1.8929884"><ele>304.6666666666667</ele><time>2026-04-18T07:40:39.003Z</time></trkpt><trkpt lat="53.3168846" lon="-1.8929613"><ele>303.33333333333337</ele><time>2026-04-18T07:40:40.003Z</time></trkpt><trkpt lat="53.3170604" lon="-1.892931"><ele>302.0</ele><time>2026-04-18T07:40:41Z</time></trkpt><trkpt lat="53.3172358" lon="-1.8929066"><ele>300.33333333333337</ele><time>2026-04-18T07:40:41.999Z</time></trkpt><trkpt lat="53.3174071" lon="-1.8929003"><ele>298.6666666666667</ele><time>2026-04-18T07:40:43.003Z</time></trkpt><trkpt lat="53.3175762" lon="-1.892929"><ele>297.0</ele><time>2026-04-18T07:40:44.001Z</time></trkpt><trkpt lat="53.3177445" lon="-1.8930005"><ele>297.0</ele><time>2026-04-18T07:40:45.001Z</time></trkpt><trkpt lat="53.3179146" lon="-1.8930985"><ele>297.0</ele><time>2026-04-18T07:40:45.997Z</time></trkpt><trkpt lat="53.3180911" lon="-1.8932195"><ele>297.0</ele><time>2026-04-18T07:40:46.999Z</time></trkpt><trkpt lat="53.3182693" lon="-1.8933594"><ele>296.0</ele><time>2026-04-18T07:40:47.998Z</time></trkpt><trkpt lat="53.3184471" lon="-1.8935148"><ele>295.0</ele><time>2026-04-18T07:40:48.995Z</time></trkpt><trkpt lat="53.3186285" lon="-1.8937022"><ele>294.0</ele><time>2026-04-18T07:40:49.998Z</time></trkpt><trkpt lat="53.3188062" lon="-1.8939261"><ele>289.0</ele><time>2026-04-18T07:40:50.998Z</time></trkpt><trkpt lat="53.3189851" lon="-1.894183"><ele>284.0</ele><time>2026-04-18T07:40:52.003Z</time></trkpt><trkpt lat="53.319149" lon="-1.8944247"><ele>284.0</ele><time>2026-04-18T07:40:53.003Z</time></trkpt><trkpt lat="53.3193108" lon="-1.8946528"><ele>284.0</ele><time>2026-04-18T07:40:54.001Z</time></trkpt><trkpt lat="53.3194757" lon="-1.8948534"><ele>284.0</ele><time>2026-04-18T07:40:55Z</time></trkpt><trkpt lat="53.3196435" lon="-1.8950398"><ele>280.6666666666667</ele><time>2026-04-18T07:40:56.004Z</time></trkpt><trkpt lat="53.3198133" lon="-1.8952097"><ele>277.3333333333333</ele><time>2026-04-18T07:40:56.999Z</time></trkpt><trkpt lat="53.3199895" lon="-1.8953747"><ele>274.0</ele><time>2026-04-18T07:40:57.998Z</time></trkpt><trkpt lat="53.3201676" lon="-1.8955392"><ele>274.0</ele><time>2026-04-18T07:40:58.996Z</time></trkpt><trkpt lat="53.3203466" lon="-1.895704"><ele>274.0</ele><time>2026-04-18T07:40:59.999Z</time></trkpt><trkpt lat="53.3205235" lon="-1.895863"><ele>274.0</ele><time>2026-04-18T07:41:01.001Z</time></trkpt><trkpt lat="53.3206961" lon="-1.8960123"><ele>269.66666666666663</ele><time>2026-04-18T07:41:02Z</time></trkpt><trkpt lat="53.3208666" lon="-1.8961538"><ele>265.3333333333333</ele><time>2026-04-18T07:41:03.003Z</time></trkpt><trkpt lat="53.3210354" lon="-1.8962936"><ele>261.0</ele><time>2026-04-18T07:41:04Z</time></trkpt><trkpt lat="53.3211983" lon="-1.896438"><ele>261.0</ele><time>2026-04-18T07:41:05.001Z</time></trkpt><trkpt lat="53.3213572" lon="-1.8965937"><ele>261.0</ele><time>2026-04-18T07:41:06Z</time></trkpt><trkpt lat="53.321518" lon="-1.8967563"><ele>261.0</ele><time>2026-04-18T07:41:07.002Z</time></trkpt><trkpt lat="53.3216819" lon="-1.8969188"><ele>260.3333333333333</ele><time>2026-04-18T07:41:08.006Z</time></trkpt><trkpt lat="53.3218475" lon="-1.8970751"><ele>259.66666666666663</ele><time>2026-04-18T07:41:09.007Z</time></trkpt><trkpt lat="53.3220182" lon="-1.8972305"><ele>259.0</ele><time>2026-04-18T07:41:10.003Z</time></trkpt><trkpt lat="53.3221921" lon="-1.8973854"><ele>256.66666666666663</ele><time>2026-04-18T07:41:11.002Z</time></trkpt><trkpt lat="53.3223651" lon="-1.8975419"><ele>254.33333333333331</ele><time>2026-04-18T07:41:12.002Z</time></trkpt><trkpt lat="53.3225283" lon="-1.8976942"><ele>252.0</ele><time>2026-04-18T07:41:13.008Z</time></trkpt><trkpt lat="53.3226754" lon="-1.8978356"><ele>252.0</ele><time>2026-04-18T07:41:14.005Z</time></trkpt><trkpt lat="53.3228058" lon="-1.8979679"><ele>252.0</ele><time>2026-04-18T07:41:15.005Z</time></trkpt><trkpt lat="53.3229268" lon="-1.8980884"><ele>252.0</ele><time>2026-04-18T07:41:16.006Z</time></trkpt><trkpt lat="53.3230427" lon="-1.8982017"><ele>252.0</ele><time>2026-04-18T07:41:17.004Z</time></trkpt><trkpt lat="53.3231584" lon="-1.8983145"><ele>250.75</ele><time>2026-04-18T07:41:18.005Z</time></trkpt><trkpt lat="53.3232725" lon="-1.8984234"><ele>249.5</ele><time>2026-04-18T07:41:19.004Z</time></trkpt><trkpt lat="53.3233808" lon="-1.8985271"><ele>248.25</ele><time>2026-04-18T07:41:20.004Z</time></trkpt><trkpt lat="53.3234852" lon="-1.8986273"><ele>247.0</ele><time>2026-04-18T07:41:21.004Z</time></trkpt><trkpt lat="53.3235914" lon="-1.8987244"><ele>247.0</ele><time>2026-04-18T07:41:22.001Z</time></trkpt><trkpt lat="53.3236966" lon="-1.898823"><ele>247.0</ele><time>2026-04-18T07:41:23.006Z</time></trkpt><trkpt lat="53.3238049" lon="-1.8989273"><ele>247.0</ele><time>2026-04-18T07:41:24.004Z</time></trkpt><trkpt lat="53.3239154" lon="-1.8990393"><ele>247.0</ele><time>2026-04-18T07:41:25.005Z</time></trkpt><trkpt lat="53.3240286" lon="-1.899159"><ele>246.0</ele><time>2026-04-18T07:41:26.003Z</time></trkpt><trkpt lat="53.3241379" lon="-1.8992844"><ele>245.0</ele><time>2026-04-18T07:41:27.002Z</time></trkpt><trkpt lat="53.3242423" lon="-1.8994123"><ele>244.0</ele><time>2026-04-18T07:41:28.004Z</time></trkpt><trkpt lat="53.3243375" lon="-1.899546"><ele>243.0</ele><time>2026-04-18T07:41:29.002Z</time></trkpt><trkpt lat="53.3244181" lon="-1.8996917"><ele>243.0</ele><time>2026-04-18T07:41:30.002Z</time></trkpt><trkpt lat="53.3244834" lon="-1.8998543"><ele>243.0</ele><time>2026-04-18T07:41:31.002Z</time></trkpt><trkpt lat="53.3245343" lon="-1.9000309"><ele>243.0</ele><time>2026-04-18T07:41:32.003Z</time></trkpt><trkpt lat="53.3245669" lon="-1.9002287"><ele>243.0</ele><time>2026-04-18T07:41:33.006Z</time></trkpt><trkpt lat="53.324584" lon="-1.9004441"><ele>241.75</ele><time>2026-04-18T07:41:34.003Z</time></trkpt><trkpt lat="53.3245857" lon="-1.9006701"><ele>240.5</ele><time>2026-04-18T07:41:35.002Z</time></trkpt><trkpt lat="53.3245864" lon="-1.9008902"><ele>239.25</ele><time>2026-04-18T07:41:36.002Z</time></trkpt><trkpt lat="53.3245847" lon="-1.9011152"><ele>238.0</ele><time>2026-04-18T07:41:37.004Z</time></trkpt><trkpt lat="53.3245909" lon="-1.9013353"><ele>236.75</ele><time>2026-04-18T07:41:38.003Z</time></trkpt><trkpt lat="53.3245992" lon="-1.9015589"><ele>235.5</ele><time>2026-04-18T07:41:39.004Z</time></trkpt><trkpt lat="53.3246074" lon="-1.9017862"><ele>234.25</ele><time>2026-04-18T07:41:40.006Z</time></trkpt><trkpt lat="53.3246143" lon="-1.9020209"><ele>233.0</ele><time>2026-04-18T07:41:41.003Z</time></trkpt><trkpt lat="53.3246181" lon="-1.9022567"><ele>232.25</ele><time>2026-04-18T07:41:41.997Z</time></trkpt><trkpt lat="53.3246196" lon="-1.9024819"><ele>231.5</ele><time>2026-04-18T07:41:43.004Z</time></trkpt><trkpt lat="53.3246211" lon="-1.9027018"><ele>230.75</ele><time>2026-04-18T07:41:44.006Z</time></trkpt><trkpt lat="53.3246185" lon="-1.9029257"><ele>230.0</ele><time>2026-04-18T07:41:45.004Z</time></trkpt><trkpt lat="53.3246199" lon="-1.903159"><ele>229.5</ele><time>2026-04-18T07:41:46.003Z</time></trkpt><trkpt lat="53.3246224" lon="-1.9033965"><ele>229.0</ele><time>2026-04-18T07:41:47.001Z</time></trkpt><trkpt lat="53.3246259" lon="-1.9036338"><ele>228.5</ele><time>2026-04-18T07:41:48.004Z</time></trkpt><trkpt lat="53.3246326" lon="-1.9038573"><ele>228.0</ele><time>2026-04-18T07:41:49.003Z</time></trkpt><trkpt lat="53.3246407" lon="-1.9040712"><ele>227.25</ele><time>2026-04-18T07:41:50.005Z</time></trkpt><trkpt lat="53.3246509" lon="-1.9042737"><ele>226.5</ele><time>2026-04-18T07:41:51.003Z</time></trkpt><trkpt lat="53.3246622" lon="-1.9044668"><ele>225.75</ele><time>2026-04-18T07:41:52.002Z</time></trkpt><trkpt lat="53.3246734" lon="-1.9046574"><ele>225.0</ele><time>2026-04-18T07:41:53.005Z</time></trkpt><trkpt lat="53.3246813" lon="-1.904851"><ele>225.0</ele><time>2026-04-18T07:41:54.003Z</time></trkpt><trkpt lat="53.3246879" lon="-1.9050535"><ele>225.0</ele><time>2026-04-18T07:41:55.002Z</time></trkpt><trkpt lat="53.3246947" lon="-1.905265"><ele>225.0</ele><time>2026-04-18T07:41:56.006Z</time></trkpt><trkpt lat="53.3247049" lon="-1.905476"><ele>225.0</ele><time>2026-04-18T07:41:57.003Z</time></trkpt><trkpt lat="53.3247205" lon="-1.9056799"><ele>224.6</ele><time>2026-04-18T07:41:58.002Z</time></trkpt><trkpt lat="53.3247396" lon="-1.9058684"><ele>224.2</ele><time>2026-04-18T07:41:59.002Z</time></trkpt><trkpt lat="53.324758" lon="-1.9060451"><ele>223.8</ele><time>2026-04-18T07:42:00Z</time></trkpt><trkpt lat="53.324774" lon="-1.9062214"><ele>223.4</ele><time>2026-04-18T07:42:00.997Z</time></trkpt><trkpt lat="53.324789" lon="-1.9064039"><ele>223.0</ele><time>2026-04-18T07:42:02.005Z</time></trkpt><trkpt lat="53.3248044" lon="-1.9065964"><ele>223.25</ele><time>2026-04-18T07:42:03.008Z</time></trkpt><trkpt lat="53.3248186" lon="-1.9068011"><ele>223.5</ele><time>2026-04-18T07:42:04.003Z</time></trkpt><trkpt lat="53.3248306" lon="-1.9070185"><ele>223.75</ele><time>2026-04-18T07:42:05.003Z</time></trkpt><trkpt lat="53.3248426" lon="-1.9072418"><ele>224.0</ele><time>2026-04-18T07:42:06.005Z</time></trkpt><trkpt lat="53.3248521" lon="-1.9074606"><ele>224.0</ele><time>2026-04-18T07:42:07.004Z</time></trkpt><trkpt lat="53.3248569" lon="-1.9076704"><ele>224.0</ele><time>2026-04-18T07:42:08.003Z</time></trkpt><trkpt lat="53.3248551" lon="-1.9078762"><ele>224.0</ele><time>2026-04-18T07:42:09.006Z</time></trkpt><trkpt lat="53.3248501" lon="-1.9080827"><ele>224.0</ele><time>2026-04-18T07:42:10.003Z</time></trkpt><trkpt lat="53.32484" lon="-1.9082897"><ele>223.75</ele><time>2026-04-18T07:42:11.001Z</time></trkpt><trkpt lat="53.3248308" lon="-1.9084967"><ele>223.5</ele><time>2026-04-18T07:42:12.001Z</time></trkpt><trkpt lat="53.3248213" lon="-1.9087"><ele>223.25</ele><time>2026-04-18T07:42:13.006Z</time></trkpt><trkpt lat="53.3248126" lon="-1.9089014"><ele>223.0</ele><time>2026-04-18T07:42:14.003Z</time></trkpt><trkpt lat="53.3248012" lon="-1.909095"><ele>222.60000000000002</ele><time>2026-04-18T07:42:15.003Z</time></trkpt><trkpt lat="53.3247841" lon="-1.9092751"><ele>222.20000000000002</ele><time>2026-04-18T07:42:16.003Z</time></trkpt><trkpt lat="53.3247633" lon="-1.9094452"><ele>221.8</ele><time>2026-04-18T07:42:17.002Z</time></trkpt><trkpt lat="53.3247377" lon="-1.9096131"><ele>221.4</ele><time>2026-04-18T07:42:18.001Z</time></trkpt><trkpt lat="53.3247071" lon="-1.9097819"><ele>221.0</ele><time>2026-04-18T07:42:19.003Z</time></trkpt><trkpt lat="53.3246737" lon="-1.9099602"><ele>220.8</ele><time>2026-04-18T07:42:20.002Z</time></trkpt><trkpt lat="53.3246384" lon="-1.9101505"><ele>220.60000000000002</ele><time>2026-04-18T07:42:21.001Z</time></trkpt><trkpt lat="53.3246034" lon="-1.910341"><ele>220.4</ele><time>2026-04-18T07:42:22.004Z</time></trkpt><trkpt lat="53.3245726" lon="-1.91051"><ele>220.2</ele><time>2026-04-18T07:42:23.005Z</time></trkpt><trkpt lat="53.324543" lon="-1.9106648"><ele>220.0</ele><time>2026-04-18T07:42:24.002Z</time></trkpt><trkpt lat="53.3245147" lon="-1.9108098"><ele>220.33333333333331</ele><time>2026-04-18T07:42:25.001Z</time></trkpt><trkpt lat="53.324487" lon="-1.9109559"><ele>220.66666666666666</ele><time>2026-04-18T07:42:26.003Z</time></trkpt><trkpt lat="53.3244647" lon="-1.9110896"><ele>221.0</ele><time>2026-04-18T07:42:27.006Z</time></trkpt><trkpt lat="53.3244466" lon="-1.9112013"><ele>221.33333333333331</ele><time>2026-04-18T07:42:28.003Z</time></trkpt><trkpt lat="53.3244232" lon="-1.9113145"><ele>221.66666666666666</ele><time>2026-04-18T07:42:29.002Z</time></trkpt><trkpt lat="53.3243903" lon="-1.9114424"><ele>222.0</ele><time>2026-04-18T07:42:30.002Z</time></trkpt><trkpt lat="53.3243472" lon="-1.9115875"><ele>222.39999999999998</ele><time>2026-04-18T07:42:31.003Z</time></trkpt><trkpt lat="53.3243014" lon="-1.9117429"><ele>222.79999999999998</ele><time>2026-04-18T07:42:32.003Z</time></trkpt><trkpt lat="53.3242533" lon="-1.9119107"><ele>223.2</ele><time>2026-04-18T07:42:32.996Z</time></trkpt><trkpt lat="53.3242043" lon="-1.912089"><ele>223.6</ele><time>2026-04-18T07:42:34.003Z</time></trkpt><trkpt lat="53.324163" lon="-1.9122689"><ele>224.0</ele><time>2026-04-18T07:42:35.004Z</time></trkpt><trkpt lat="53.3241194" lon="-1.9124393"><ele>224.6</ele><time>2026-04-18T07:42:35.995Z</time></trkpt><trkpt lat="53.3240719" lon="-1.9126059"><ele>225.2</ele><time>2026-04-18T07:42:36.993Z</time></trkpt><trkpt lat="53.3240222" lon="-1.912768"><ele>225.79999999999998</ele><time>2026-04-18T07:42:37.995Z</time></trkpt><trkpt lat="53.3239783" lon="-1.91293"><ele>226.39999999999998</ele><time>2026-04-18T07:42:39.001Z</time></trkpt><trkpt lat="53.3239365" lon="-1.9130882"><ele>227.0</ele><time>2026-04-18T07:42:40.005Z</time></trkpt><trkpt lat="53.3238904" lon="-1.9132441"><ele>227.0</ele><time>2026-04-18T07:42:41.004Z</time></trkpt><trkpt lat="53.3238436" lon="-1.9133998"><ele>227.0</ele><time>2026-04-18T07:42:41.994Z</time></trkpt><trkpt lat="53.3237947" lon="-1.9135484"><ele>227.0</ele><time>2026-04-18T07:42:43Z</time></trkpt><trkpt lat="53.323748" lon="-1.9136877"><ele>227.0</ele><time>2026-04-18T07:42:44.002Z</time></trkpt><trkpt lat="53.323704" lon="-1.9138192"><ele>227.0</ele><time>2026-04-18T07:42:44.997Z</time></trkpt><trkpt lat="53.32367" lon="-1.9139288"><ele>227.50000000000003</ele><time>2026-04-18T07:42:46.003Z</time></trkpt><trkpt lat="53.3236391" lon="-1.9140224"><ele>228.0</ele><time>2026-04-18T07:42:47.001Z</time></trkpt><trkpt lat="53.3236003" lon="-1.9141307"><ele>228.5</ele><time>2026-04-18T07:42:49.003Z</time></trkpt><trkpt lat="53.3235769" lon="-1.9142694"><ele>229.0</ele><time>2026-04-18T07:43:00.004Z</time></trkpt><trkpt lat="53.3235389" lon="-1.9144328"><ele>229.50000000000003</ele><time>2026-04-18T07:43:02.004Z</time></trkpt><trkpt lat="53.3234898" lon="-1.914605"><ele>230.0</ele><time>2026-04-18T07:43:03.998Z</time></trkpt><trkpt lat="53.3234264" lon="-1.9147837"><ele>230.83333333333334</ele><time>2026-04-18T07:43:05.997Z</time></trkpt><trkpt lat="53.3233887" lon="-1.9148774"><ele>231.66666666666669</ele><time>2026-04-18T07:43:07.003Z</time></trkpt><trkpt lat="53.3233501" lon="-1.9149795"><ele>232.5</ele><time>2026-04-18T07:43:08.002Z</time></trkpt><trkpt lat="53.3233143" lon="-1.9150861"><ele>233.33333333333331</ele><time>2026-04-18T07:43:09.005Z</time></trkpt><trkpt lat="53.3232816" lon="-1.9152025"><ele>234.16666666666666</ele><time>2026-04-18T07:43:09.997Z</time></trkpt><trkpt lat="53.3232506" lon="-1.9153293"><ele>235.0</ele><time>2026-04-18T07:43:11.001Z</time></trkpt><trkpt lat="53.3232215" lon="-1.9154581"><ele>235.49999999999997</ele><time>2026-04-18T07:43:12.001Z</time></trkpt><trkpt lat="53.3231986" lon="-1.9155749"><ele>236.0</ele><time>2026-04-18T07:43:13.007Z</time></trkpt><trkpt lat="53.3231812" lon="-1.9156815"><ele>236.5</ele><time>2026-04-18T07:43:14.001Z</time></trkpt><trkpt lat="53.3231579" lon="-1.9158331"><ele>237.0</ele><time>2026-04-18T07:43:16.003Z</time></trkpt><trkpt lat="53.3231191" lon="-1.9159775"><ele>237.49999999999997</ele><time>2026-04-18T07:43:51.003Z</time></trkpt><trkpt lat="53.3230781" lon="-1.9161253"><ele>238.0</ele><time>2026-04-18T07:43:53.004Z</time></trkpt><trkpt lat="53.3230219" lon="-1.9163069"><ele>238.0</ele><time>2026-04-18T07:43:55.004Z</time></trkpt><trkpt lat="53.3229747" lon="-1.9165127"><ele>238.0</ele><time>2026-04-18T07:43:56.996Z</time></trkpt><trkpt lat="53.3229508" lon="-1.9166327"><ele>238.0</ele><time>2026-04-18T07:43:58.004Z</time></trkpt><trkpt lat="53.3229247" lon="-1.9167635"><ele>238.0</ele><time>2026-04-18T07:43:59.002Z</time></trkpt><trkpt lat="53.3228967" lon="-1.9169033"><ele>238.0</ele><time>2026-04-18T07:44:00.005Z</time></trkpt><trkpt lat="53.3228615" lon="-1.9170559"><ele>238.4</ele><time>2026-04-18T07:44:01.006Z</time></trkpt><trkpt lat="53.3228281" lon="-1.9172104"><ele>238.8</ele><time>2026-04-18T07:44:02.003Z</time></trkpt><trkpt lat="53.3227978" lon="-1.9173766"><ele>239.2</ele><time>2026-04-18T07:44:03.008Z</time></trkpt><trkpt lat="53.3227707" lon="-1.9175498"><ele>239.6</ele><time>2026-04-18T07:44:04.006Z</time></trkpt><trkpt lat="53.3227432" lon="-1.9177288"><ele>240.0</ele><time>2026-04-18T07:44:05.005Z</time></trkpt><trkpt lat="53.3227173" lon="-1.9179092"><ele>240.0</ele><time>2026-04-18T07:44:05.998Z</time></trkpt><trkpt lat="53.3226886" lon="-1.9180891"><ele>240.0</ele><time>2026-04-18T07:44:07.007Z</time></trkpt><trkpt lat="53.3226606" lon="-1.9182656"><ele>240.0</ele><time>2026-04-18T07:44:08.007Z</time></trkpt><trkpt lat="53.3226336" lon="-1.9184305"><ele>240.0</ele><time>2026-04-18T07:44:09.004Z</time></trkpt><trkpt lat="53.3226076" lon="-1.9185937"><ele>240.0</ele><time>2026-04-18T07:44:10.008Z</time></trkpt><trkpt lat="53.3225746" lon="-1.9187671"><ele>239.8</ele><time>2026-04-18T07:44:11.006Z</time></trkpt><trkpt lat="53.3225344" lon="-1.9189313"><ele>239.6</ele><time>2026-04-18T07:44:12.004Z</time></trkpt><trkpt lat="53.3224919" lon="-1.9190771"><ele>239.39999999999998</ele><time>2026-04-18T07:44:13.007Z</time></trkpt><trkpt lat="53.322448" lon="-1.9192119"><ele>239.2</ele><time>2026-04-18T07:44:14.006Z</time></trkpt><trkpt lat="53.3224081" lon="-1.9193375"><ele>239.0</ele><time>2026-04-18T07:44:15.004Z</time></trkpt><trkpt lat="53.3223648" lon="-1.9194578"><ele>239.00000000000003</ele><time>2026-04-18T07:44:16.005Z</time></trkpt><trkpt lat="53.3223181" lon="-1.9195733"><ele>239.0</ele><time>2026-04-18T07:44:17.004Z</time></trkpt><trkpt lat="53.3222773" lon="-1.9196749"><ele>239.0</ele><time>2026-04-18T07:44:18.004Z</time></trkpt><trkpt lat="53.3222245" lon="-1.9198108"><ele>239.0</ele><time>2026-04-18T07:44:20.004Z</time></trkpt><trkpt lat="53.3221724" lon="-1.919894"><ele>239.00000000000003</ele><time>2026-04-18T07:44:32.007Z</time></trkpt><trkpt lat="53.322124" lon="-1.9200212"><ele>239.0</ele><time>2026-04-18T07:44:34.006Z</time></trkpt><trkpt lat="53.3220893" lon="-1.9201376"><ele>239.2</ele><time>2026-04-18T07:44:35.007Z</time></trkpt><trkpt lat="53.3220514" lon="-1.9202628"><ele>239.39999999999998</ele><time>2026-04-18T07:44:36.007Z</time></trkpt><trkpt lat="53.3220089" lon="-1.9204024"><ele>239.6</ele><time>2026-04-18T07:44:37.006Z</time></trkpt><trkpt lat="53.3219637" lon="-1.9205337"><ele>239.8</ele><time>2026-04-18T07:44:38.006Z</time></trkpt><trkpt lat="53.3219194" lon="-1.9206629"><ele>240.0</ele><time>2026-04-18T07:44:39.003Z</time></trkpt><trkpt lat="53.3218743" lon="-1.9208088"><ele>240.4</ele><time>2026-04-18T07:44:40.003Z</time></trkpt><trkpt lat="53.3218313" lon="-1.9209628"><ele>240.8</ele><time>2026-04-18T07:44:41.002Z</time></trkpt><trkpt lat="53.3217938" lon="-1.921103"><ele>241.2</ele><time>2026-04-18T07:44:42.005Z</time></trkpt><trkpt lat="53.3217556" lon="-1.9212292"><ele>241.6</ele><time>2026-04-18T07:44:43.004Z</time></trkpt><trkpt lat="53.3217184" lon="-1.9213588"><ele>242.0</ele><time>2026-04-18T07:44:44.004Z</time></trkpt><trkpt lat="53.3216825" lon="-1.9215073"><ele>242.0</ele><time>2026-04-18T07:44:45.005Z</time></trkpt><trkpt lat="53.3216459" lon="-1.9216628"><ele>242.0</ele><time>2026-04-18T07:44:46.009Z</time></trkpt><trkpt lat="53.3216115" lon="-1.9218174"><ele>242.0</ele><time>2026-04-18T07:44:47.003Z</time></trkpt><trkpt lat="53.3215795" lon="-1.921973"><ele>242.0</ele><time>2026-04-18T07:44:48.005Z</time></trkpt><trkpt lat="53.3215493" lon="-1.9221307"><ele>242.0</ele><time>2026-04-18T07:44:49.005Z</time></trkpt><trkpt lat="53.3215208" lon="-1.9222933"><ele>242.0</ele><time>2026-04-18T07:44:50.004Z</time></trkpt><trkpt lat="53.3214953" lon="-1.9224669"><ele>242.0</ele><time>2026-04-18T07:44:51.004Z</time></trkpt><trkpt lat="53.3214686" lon="-1.9226485"><ele>242.0</ele><time>2026-04-18T07:44:52.004Z</time></trkpt><trkpt lat="53.3214403" lon="-1.9228416"><ele>242.0</ele><time>2026-04-18T07:44:53.005Z</time></trkpt><trkpt lat="53.3214077" lon="-1.9230372"><ele>241.8</ele><time>2026-04-18T07:44:54.007Z</time></trkpt><trkpt lat="53.3213729" lon="-1.9232204"><ele>241.6</ele><time>2026-04-18T07:44:55.004Z</time></trkpt><trkpt lat="53.3213406" lon="-1.9233826"><ele>241.40000000000003</ele><time>2026-04-18T07:44:56.005Z</time></trkpt><trkpt lat="53.3213133" lon="-1.9235321"><ele>241.20000000000002</ele><time>2026-04-18T07:44:57.005Z</time></trkpt><trkpt lat="53.3212864" lon="-1.9236769"><ele>241.0</ele><time>2026-04-18T07:44:58.005Z</time></trkpt><trkpt lat="53.3212653" lon="-1.9238205"><ele>241.0</ele><time>2026-04-18T07:44:59.005Z</time></trkpt><trkpt lat="53.3212428" lon="-1.9239656"><ele>241.00000000000003</ele><time>2026-04-18T07:45:00.005Z</time></trkpt><trkpt lat="53.3212142" lon="-1.9241263"><ele>241.00000000000003</ele><time>2026-04-18T07:45:01.003Z</time></trkpt><trkpt lat="53.3211834" lon="-1.9243154"><ele>241.0</ele><time>2026-04-18T07:45:02.004Z</time></trkpt><trkpt lat="53.3211556" lon="-1.9245345"><ele>241.0</ele><time>2026-04-18T07:45:03.006Z</time></trkpt><trkpt lat="53.3211268" lon="-1.9247747"><ele>241.5</ele><time>2026-04-18T07:45:04.008Z</time></trkpt><trkpt lat="53.321101" lon="-1.9250155"><ele>242.0</ele><time>2026-04-18T07:45:05.006Z</time></trkpt><trkpt lat="53.3210791" lon="-1.9252455"><ele>242.5</ele><time>2026-04-18T07:45:06.005Z</time></trkpt><trkpt lat="53.3210625" lon="-1.9254552"><ele>243.0</ele><time>2026-04-18T07:45:07.005Z</time></trkpt><trkpt lat="53.3210514" lon="-1.9256345"><ele>243.0</ele><time>2026-04-18T07:45:08.006Z</time></trkpt><trkpt lat="53.3210428" lon="-1.9257935"><ele>243.0</ele><time>2026-04-18T07:45:09.006Z</time></trkpt><trkpt lat="53.321025" lon="-1.9259702"><ele>243.0</ele><time>2026-04-18T07:45:10.008Z</time></trkpt><trkpt lat="53.3210072" lon="-1.9261597"><ele>243.0</ele><time>2026-04-18T07:45:11.005Z</time></trkpt><trkpt lat="53.3209837" lon="-1.926363"><ele>243.0</ele><time>2026-04-18T07:45:12.006Z</time></trkpt><trkpt lat="53.3209534" lon="-1.9265689"><ele>242.75</ele><time>2026-04-18T07:45:13.01Z</time></trkpt><trkpt lat="53.3209147" lon="-1.9267761"><ele>242.5</ele><time>2026-04-18T07:45:14.004Z</time></trkpt><trkpt lat="53.3208711" lon="-1.9269835"><ele>242.25</ele><time>2026-04-18T07:45:15.004Z</time></trkpt><trkpt lat="53.3208249" lon="-1.9271896"><ele>242.0</ele><time>2026-04-18T07:45:16.006Z</time></trkpt><trkpt lat="53.3207792" lon="-1.9273927"><ele>242.0</ele><time>2026-04-18T07:45:17.006Z</time></trkpt><trkpt lat="53.3207327" lon="-1.9275896"><ele>242.0</ele><time>2026-04-18T07:45:18.005Z</time></trkpt><trkpt lat="53.320687" lon="-1.9277821"><ele>242.0</ele><time>2026-04-18T07:45:19.007Z</time></trkpt><trkpt lat="53.320638" lon="-1.9279761"><ele>242.0</ele><time>2026-04-18T07:45:20.007Z</time></trkpt><trkpt lat="53.3205842" lon="-1.9281687"><ele>242.25</ele><time>2026-04-18T07:45:21.004Z</time></trkpt><trkpt lat="53.3205215" lon="-1.9283534"><ele>242.5</ele><time>2026-04-18T07:45:22.005Z</time></trkpt><trkpt lat="53.3204484" lon="-1.9285285"><ele>242.75</ele><time>2026-04-18T07:45:23.009Z</time></trkpt><trkpt lat="53.3203767" lon="-1.9286999"><ele>243.0</ele><time>2026-04-18T07:45:24.004Z</time></trkpt><trkpt lat="53.3203072" lon="-1.9288705"><ele>244.0</ele><time>2026-04-18T07:45:25.006Z</time></trkpt><trkpt lat="53.3202389" lon="-1.9290367"><ele>245.0</ele><time>2026-04-18T07:45:26.006Z</time></trkpt><trkpt lat="53.320172" lon="-1.9291989"><ele>246.0</ele><time>2026-04-18T07:45:27.005Z</time></trkpt><trkpt lat="53.3201077" lon="-1.9293625"><ele>247.0</ele><time>2026-04-18T07:45:28.006Z</time></trkpt><trkpt lat="53.3200431" lon="-1.9295302"><ele>247.25</ele><time>2026-04-18T07:45:29.007Z</time></trkpt><trkpt lat="53.3199795" lon="-1.9296954"><ele>247.5</ele><time>2026-04-18T07:45:30.006Z</time></trkpt><trkpt lat="53.319917" lon="-1.9298664"><ele>247.75</ele><time>2026-04-18T07:45:31.006Z</time></trkpt><trkpt lat="53.3198573" lon="-1.9300468"><ele>248.0</ele><time>2026-04-18T07:45:32.006Z</time></trkpt><trkpt lat="53.3197981" lon="-1.9302336"><ele>248.0</ele><time>2026-04-18T07:45:33.006Z</time></trkpt><trkpt lat="53.3197349" lon="-1.9304172"><ele>248.0</ele><time>2026-04-18T07:45:34.004Z</time></trkpt><trkpt lat="53.3196702" lon="-1.9305939"><ele>248.0</ele><time>2026-04-18T07:45:35.006Z</time></trkpt><trkpt lat="53.3196074" lon="-1.9307652"><ele>248.0</ele><time>2026-04-18T07:45:36.005Z</time></trkpt><trkpt lat="53.3195481" lon="-1.9309356"><ele>248.75</ele><time>2026-04-18T07:45:37.004Z</time></trkpt><trkpt lat="53.3194931" lon="-1.93111"><ele>249.5</ele><time>2026-04-18T07:45:38.003Z</time></trkpt><trkpt lat="53.3194403" lon="-1.9312872"><ele>250.25</ele><time>2026-04-18T07:45:39.005Z</time></trkpt><trkpt lat="53.3193897" lon="-1.9314641"><ele>251.0</ele><time>2026-04-18T07:45:40.007Z</time></trkpt><trkpt lat="53.3193358" lon="-1.9316443"><ele>250.25</ele><time>2026-04-18T07:45:41.005Z</time></trkpt><trkpt lat="53.3192784" lon="-1.9318264"><ele>249.5</ele><time>2026-04-18T07:45:41.997Z</time></trkpt><trkpt lat="53.3192148" lon="-1.9320135"><ele>248.75</ele><time>2026-04-18T07:45:43.01Z</time></trkpt><trkpt lat="53.3191486" lon="-1.932208"><ele>248.0</ele><time>2026-04-18T07:45:44.007Z</time></trkpt><trkpt lat="53.3190805" lon="-1.9324057"><ele>247.75</ele><time>2026-04-18T07:45:45.005Z</time></trkpt><trkpt lat="53.3190082" lon="-1.9326053"><ele>247.5</ele><time>2026-04-18T07:45:46.006Z</time></trkpt><trkpt lat="53.3189361" lon="-1.9327971"><ele>247.25</ele><time>2026-04-18T07:45:47.006Z</time></trkpt><trkpt lat="53.3188638" lon="-1.9329892"><ele>247.0</ele><time>2026-04-18T07:45:48.005Z</time></trkpt><trkpt lat="53.3187935" lon="-1.9331807"><ele>247.0</ele><time>2026-04-18T07:45:49.005Z</time></trkpt><trkpt lat="53.3187228" lon="-1.9333765"><ele>247.0</ele><time>2026-04-18T07:45:50.005Z</time></trkpt><trkpt lat="53.3186564" lon="-1.9335756"><ele>247.0</ele><time>2026-04-18T07:45:51.005Z</time></trkpt><trkpt lat="53.3185903" lon="-1.9337772"><ele>247.0</ele><time>2026-04-18T07:45:52.004Z</time></trkpt><trkpt lat="53.3185212" lon="-1.9339803"><ele>246.75</ele><time>2026-04-18T07:45:53.006Z</time></trkpt><trkpt lat="53.3184504" lon="-1.934184"><ele>246.5</ele><time>2026-04-18T07:45:54.004Z</time></trkpt><trkpt lat="53.318379" lon="-1.9343884"><ele>246.25</ele><time>2026-04-18T07:45:55.006Z</time></trkpt><trkpt lat="53.3183054" lon="-1.9345914"><ele>246.0</ele><time>2026-04-18T07:45:56.005Z</time></trkpt><trkpt lat="53.3182295" lon="-1.9347901"><ele>246.0</ele><time>2026-04-18T07:45:57.004Z</time></trkpt><trkpt lat="53.3181524" lon="-1.9349891"><ele>246.0</ele><time>2026-04-18T07:45:58.004Z</time></trkpt><trkpt lat="53.3180719" lon="-1.9351905"><ele>246.0</ele><time>2026-04-18T07:45:59.005Z</time></trkpt><trkpt lat="53.3179873" lon="-1.9353889"><ele>246.0</ele><time>2026-04-18T07:46:00.004Z</time></trkpt><trkpt lat="53.3178992" lon="-1.9355831"><ele>246.0</ele><time>2026-04-18T07:46:01.003Z</time></trkpt><trkpt lat="53.3178076" lon="-1.9357758"><ele>246.0</ele><time>2026-04-18T07:46:02.004Z</time></trkpt><trkpt lat="53.3177131" lon="-1.9359711"><ele>246.0</ele><time>2026-04-18T07:46:03.003Z</time></trkpt><trkpt lat="53.3176191" lon="-1.9361645"><ele>246.0</ele><time>2026-04-18T07:46:03.998Z</time></trkpt><trkpt lat="53.317523" lon="-1.9363609"><ele>245.33333333333331</ele><time>2026-04-18T07:46:05.004Z</time></trkpt><trkpt lat="53.3174243" lon="-1.9365645"><ele>244.66666666666666</ele><time>2026-04-18T07:46:06.005Z</time></trkpt><trkpt lat="53.3173223" lon="-1.9367759"><ele>244.0</ele><time>2026-04-18T07:46:07.006Z</time></trkpt><trkpt lat="53.3172201" lon="-1.9369866"><ele>242.66666666666666</ele><time>2026-04-18T07:46:08.004Z</time></trkpt><trkpt lat="53.3171195" lon="-1.9371953"><ele>241.33333333333331</ele><time>2026-04-18T07:46:09.003Z</time></trkpt><trkpt lat="53.3170188" lon="-1.9374025"><ele>240.0</ele><time>2026-04-18T07:46:10.005Z</time></trkpt><trkpt lat="53.3169184" lon="-1.9376061"><ele>239.33333333333331</ele><time>2026-04-18T07:46:11.003Z</time></trkpt><trkpt lat="53.3168178" lon="-1.9378125"><ele>238.66666666666666</ele><time>2026-04-18T07:46:12.006Z</time></trkpt><trkpt lat="53.3167189" lon="-1.9380278"><ele>238.0</ele><time>2026-04-18T07:46:13.007Z</time></trkpt><trkpt lat="53.3166289" lon="-1.9382484"><ele>237.33333333333331</ele><time>2026-04-18T07:46:14.006Z</time></trkpt><trkpt lat="53.3165515" lon="-1.9384768"><ele>236.66666666666669</ele><time>2026-04-18T07:46:15.005Z</time></trkpt><trkpt lat="53.3164967" lon="-1.9387196"><ele>236.0</ele><time>2026-04-18T07:46:16.007Z</time></trkpt><trkpt lat="53.3164689" lon="-1.938969"><ele>236.0</ele><time>2026-04-18T07:46:17.006Z</time></trkpt><trkpt lat="53.3164686" lon="-1.939201"><ele>236.0</ele><time>2026-04-18T07:46:18.006Z</time></trkpt><trkpt lat="53.3164862" lon="-1.93942"><ele>236.0</ele><time>2026-04-18T07:46:19.008Z</time></trkpt><trkpt lat="53.316526" lon="-1.9396428"><ele>236.0</ele><time>2026-04-18T07:46:20.009Z</time></trkpt><trkpt lat="53.3165861" lon="-1.9398662"><ele>235.0</ele><time>2026-04-18T07:46:21.006Z</time></trkpt><trkpt lat="53.3166642" lon="-1.9400876"><ele>234.0</ele><time>2026-04-18T07:46:22.006Z</time></trkpt><trkpt lat="53.3167525" lon="-1.9403111"><ele>233.0</ele><time>2026-04-18T07:46:23.007Z</time></trkpt><trkpt lat="53.3168498" lon="-1.9405489"><ele>233.0</ele><time>2026-04-18T07:46:24.007Z</time></trkpt><trkpt lat="53.3169443" lon="-1.9407792"><ele>233.0</ele><time>2026-04-18T07:46:25.007Z</time></trkpt><trkpt lat="53.3170366" lon="-1.9410079"><ele>233.0</ele><time>2026-04-18T07:46:26.006Z</time></trkpt><trkpt lat="53.3171218" lon="-1.9412423"><ele>232.0</ele><time>2026-04-18T07:46:27.006Z</time></trkpt><trkpt lat="53.3171931" lon="-1.9414853"><ele>231.0</ele><time>2026-04-18T07:46:28.005Z</time></trkpt><trkpt lat="53.3172508" lon="-1.9417362"><ele>230.0</ele><time>2026-04-18T07:46:29.005Z</time></trkpt><trkpt lat="53.3172961" lon="-1.9419983"><ele>228.33333333333334</ele><time>2026-04-18T07:46:30.008Z</time></trkpt><trkpt lat="53.3173261" lon="-1.942262"><ele>226.66666666666669</ele><time>2026-04-18T07:46:31.006Z</time></trkpt><trkpt lat="53.317342" lon="-1.9425227"><ele>225.0</ele><time>2026-04-18T07:46:32.007Z</time></trkpt><trkpt lat="53.3173442" lon="-1.9427855"><ele>224.33333333333331</ele><time>2026-04-18T07:46:33.009Z</time></trkpt><trkpt lat="53.3173317" lon="-1.9430505"><ele>223.66666666666666</ele><time>2026-04-18T07:46:34.006Z</time></trkpt><trkpt lat="53.3173075" lon="-1.9433206"><ele>223.0</ele><time>2026-04-18T07:46:35.007Z</time></trkpt><trkpt lat="53.317276" lon="-1.9435941"><ele>222.66666666666666</ele><time>2026-04-18T07:46:36.007Z</time></trkpt><trkpt lat="53.3172387" lon="-1.9438638"><ele>222.33333333333331</ele><time>2026-04-18T07:46:37.004Z</time></trkpt><trkpt lat="53.3171923" lon="-1.9441268"><ele>222.0</ele><time>2026-04-18T07:46:38.004Z</time></trkpt><trkpt lat="53.3171333" lon="-1.9443829"><ele>221.33333333333331</ele><time>2026-04-18T07:46:38.999Z</time></trkpt><trkpt lat="53.3170649" lon="-1.9446323"><ele>220.66666666666666</ele><time>2026-04-18T07:46:40.007Z</time></trkpt><trkpt lat="53.3169914" lon="-1.9448884"><ele>220.0</ele><time>2026-04-18T07:46:41.006Z</time></trkpt><trkpt lat="53.3169168" lon="-1.9451468"><ele>220.0</ele><time>2026-04-18T07:46:42.007Z</time></trkpt><trkpt lat="53.3168479" lon="-1.9454152"><ele>220.0</ele><time>2026-04-18T07:46:43.009Z</time></trkpt><trkpt lat="53.3167877" lon="-1.9457014"><ele>220.0</ele><time>2026-04-18T07:46:44.009Z</time></trkpt><trkpt lat="53.316742" lon="-1.9460066"><ele>220.0</ele><time>2026-04-18T07:46:45.006Z</time></trkpt><trkpt lat="53.316711" lon="-1.9463165"><ele>220.0</ele><time>2026-04-18T07:46:46.007Z</time></trkpt><trkpt lat="53.3167008" lon="-1.9466262"><ele>220.0</ele><time>2026-04-18T07:46:47.008Z</time></trkpt><trkpt lat="53.3167187" lon="-1.9469482"><ele>220.0</ele><time>2026-04-18T07:46:48.009Z</time></trkpt><trkpt lat="53.3167579" lon="-1.9472568"><ele>220.0</ele><time>2026-04-18T07:46:49.007Z</time></trkpt><trkpt lat="53.3168091" lon="-1.9475542"><ele>220.0</ele><time>2026-04-18T07:46:50.007Z</time></trkpt><trkpt lat="53.3168683" lon="-1.9478458"><ele>219.33333333333331</ele><time>2026-04-18T07:46:51.007Z</time></trkpt><trkpt lat="53.3169248" lon="-1.9481265"><ele>218.66666666666669</ele><time>2026-04-18T07:46:52.006Z</time></trkpt><trkpt lat="53.3169753" lon="-1.9483927"><ele>218.0</ele><time>2026-04-18T07:46:52.999Z</time></trkpt><trkpt lat="53.3170204" lon="-1.9486511"><ele>216.66666666666669</ele><time>2026-04-18T07:46:54.006Z</time></trkpt><trkpt lat="53.3170598" lon="-1.9489082"><ele>215.33333333333331</ele><time>2026-04-18T07:46:55.006Z</time></trkpt><trkpt lat="53.3170959" lon="-1.9491672"><ele>214.0</ele><time>2026-04-18T07:46:56.006Z</time></trkpt><trkpt lat="53.3171284" lon="-1.9494329"><ele>212.66666666666666</ele><time>2026-04-18T07:46:57.005Z</time></trkpt><trkpt lat="53.3171603" lon="-1.9497075"><ele>211.33333333333331</ele><time>2026-04-18T07:46:58.003Z</time></trkpt><trkpt lat="53.3171928" lon="-1.9499883"><ele>210.0</ele><time>2026-04-18T07:46:59.004Z</time></trkpt><trkpt lat="53.3172259" lon="-1.9502671"><ele>209.66666666666669</ele><time>2026-04-18T07:47:00.005Z</time></trkpt><trkpt lat="53.3172591" lon="-1.9505403"><ele>209.33333333333334</ele><time>2026-04-18T07:47:01.005Z</time></trkpt><trkpt lat="53.3172899" lon="-1.9508077"><ele>209.0</ele><time>2026-04-18T07:47:02.006Z</time></trkpt><trkpt lat="53.3173223" lon="-1.9510678"><ele>209.0</ele><time>2026-04-18T07:47:03.007Z</time></trkpt><trkpt lat="53.3173589" lon="-1.9513321"><ele>209.0</ele><time>2026-04-18T07:47:04.004Z</time></trkpt><trkpt lat="53.317401" lon="-1.9515995"><ele>209.0</ele><time>2026-04-18T07:47:05.005Z</time></trkpt><trkpt lat="53.3174471" lon="-1.9518721"><ele>208.33333333333334</ele><time>2026-04-18T07:47:06.005Z</time></trkpt><trkpt lat="53.3174955" lon="-1.9521442"><ele>207.66666666666669</ele><time>2026-04-18T07:47:07.004Z</time></trkpt><trkpt lat="53.3175421" lon="-1.9524092"><ele>207.0</ele><time>2026-04-18T07:47:08.004Z</time></trkpt><trkpt lat="53.3175857" lon="-1.9526743"><ele>206.33333333333331</ele><time>2026-04-18T07:47:09.004Z</time></trkpt><trkpt lat="53.3176218" lon="-1.9529395"><ele>205.66666666666666</ele><time>2026-04-18T07:47:10.004Z</time></trkpt><trkpt lat="53.3176585" lon="-1.9532076"><ele>205.0</ele><time>2026-04-18T07:47:11.006Z</time></trkpt><trkpt lat="53.3176913" lon="-1.9534818"><ele>204.0</ele><time>2026-04-18T07:47:12.005Z</time></trkpt><trkpt lat="53.3177209" lon="-1.9537619"><ele>203.0</ele><time>2026-04-18T07:47:13.009Z</time></trkpt><trkpt lat="53.3177503" lon="-1.9540497"><ele>202.0</ele><time>2026-04-18T07:47:14.006Z</time></trkpt><trkpt lat="53.3177803" lon="-1.9543381"><ele>201.66666666666666</ele><time>2026-04-18T07:47:15.006Z</time></trkpt><trkpt lat="53.3178119" lon="-1.9546255"><ele>201.33333333333331</ele><time>2026-04-18T07:47:16.004Z</time></trkpt><trkpt lat="53.3178446" lon="-1.9549151"><ele>201.0</ele><time>2026-04-18T07:47:17.004Z</time></trkpt><trkpt lat="53.3178875" lon="-1.9551939"><ele>201.0</ele><time>2026-04-18T07:47:18.005Z</time></trkpt><trkpt lat="53.3179423" lon="-1.9554612"><ele>201.0</ele><time>2026-04-18T07:47:19.006Z</time></trkpt><trkpt lat="53.3180125" lon="-1.9557129"><ele>201.0</ele><time>2026-04-18T07:47:20Z</time></trkpt><trkpt lat="53.3180963" lon="-1.9559432"><ele>200.66666666666669</ele><time>2026-04-18T07:47:21.006Z</time></trkpt><trkpt lat="53.3181948" lon="-1.9561593"><ele>200.33333333333334</ele><time>2026-04-18T07:47:22.004Z</time></trkpt><trkpt lat="53.3183048" lon="-1.9563773"><ele>200.0</ele><time>2026-04-18T07:47:23.007Z</time></trkpt><trkpt lat="53.3184203" lon="-1.9566069"><ele>199.66666666666669</ele><time>2026-04-18T07:47:24.004Z</time></trkpt><trkpt lat="53.3185377" lon="-1.9568551"><ele>199.33333333333331</ele><time>2026-04-18T07:47:25.005Z</time></trkpt><trkpt lat="53.3186497" lon="-1.9571201"><ele>199.0</ele><time>2026-04-18T07:47:26.004Z</time></trkpt><trkpt lat="53.3187551" lon="-1.9573984"><ele>198.66666666666666</ele><time>2026-04-18T07:47:27.004Z</time></trkpt><trkpt lat="53.3188488" lon="-1.9576847"><ele>198.33333333333331</ele><time>2026-04-18T07:47:28.006Z</time></trkpt><trkpt lat="53.3189222" lon="-1.9579871"><ele>198.0</ele><time>2026-04-18T07:47:29.005Z</time></trkpt><trkpt lat="53.3189631" lon="-1.9583023"><ele>199.0</ele><time>2026-04-18T07:47:30.002Z</time></trkpt><trkpt lat="53.3189886" lon="-1.9586093"><ele>200.0</ele><time>2026-04-18T07:47:31.006Z</time></trkpt><trkpt lat="53.3190078" lon="-1.958908"><ele>201.0</ele><time>2026-04-18T07:47:32.005Z</time></trkpt><trkpt lat="53.3190191" lon="-1.9592033"><ele>201.0</ele><time>2026-04-18T07:47:33.008Z</time></trkpt><trkpt lat="53.3190227" lon="-1.9595026"><ele>201.0</ele><time>2026-04-18T07:47:34Z</time></trkpt><trkpt lat="53.3190119" lon="-1.9598099"><ele>201.0</ele><time>2026-04-18T07:47:35.004Z</time></trkpt><trkpt lat="53.3189848" lon="-1.9601282"><ele>202.0</ele><time>2026-04-18T07:47:36.004Z</time></trkpt><trkpt lat="53.3189454" lon="-1.9604625"><ele>203.0</ele><time>2026-04-18T07:47:37.003Z</time></trkpt><trkpt lat="53.318905" lon="-1.9607987"><ele>204.0</ele><time>2026-04-18T07:47:38.004Z</time></trkpt><trkpt lat="53.3188599" lon="-1.9611318"><ele>201.66666666666669</ele><time>2026-04-18T07:47:39.004Z</time></trkpt><trkpt lat="53.3188176" lon="-1.9614459"><ele>199.33333333333334</ele><time>2026-04-18T07:47:40.005Z</time></trkpt><trkpt lat="53.3187658" lon="-1.9617512"><ele>197.0</ele><time>2026-04-18T07:47:41.006Z</time></trkpt><trkpt lat="53.3187009" lon="-1.9620463"><ele>197.0</ele><time>2026-04-18T07:47:42.004Z</time></trkpt><trkpt lat="53.3186271" lon="-1.9623371"><ele>197.0</ele><time>2026-04-18T07:47:43.007Z</time></trkpt><trkpt lat="53.3185406" lon="-1.9626194"><ele>197.0</ele><time>2026-04-18T07:47:44.007Z</time></trkpt><trkpt lat="53.3184453" lon="-1.9628892"><ele>197.0</ele><time>2026-04-18T07:47:45.005Z</time></trkpt><trkpt lat="53.3183484" lon="-1.9631626"><ele>197.0</ele><time>2026-04-18T07:47:46.007Z</time></trkpt><trkpt lat="53.3182511" lon="-1.9634434"><ele>197.0</ele><time>2026-04-18T07:47:47.006Z</time></trkpt><trkpt lat="53.3181637" lon="-1.9637309"><ele>197.66666666666669</ele><time>2026-04-18T07:47:48.005Z</time></trkpt><trkpt lat="53.3180923" lon="-1.9640372"><ele>198.33333333333331</ele><time>2026-04-18T07:47:49.007Z</time></trkpt><trkpt lat="53.3180389" lon="-1.9643544"><ele>199.0</ele><time>2026-04-18T07:47:50.002Z</time></trkpt><trkpt lat="53.3180002" lon="-1.9646763"><ele>198.0</ele><time>2026-04-18T07:47:51.004Z</time></trkpt><trkpt lat="53.3179662" lon="-1.9649946"><ele>197.0</ele><time>2026-04-18T07:47:52.003Z</time></trkpt><trkpt lat="53.3179312" lon="-1.9653095"><ele>196.0</ele><time>2026-04-18T07:47:53.003Z</time></trkpt><trkpt lat="53.3178898" lon="-1.9656121"><ele>196.66666666666666</ele><time>2026-04-18T07:47:54.004Z</time></trkpt><trkpt lat="53.3178444" lon="-1.9659001"><ele>197.33333333333331</ele><time>2026-04-18T07:47:55.005Z</time></trkpt><trkpt lat="53.3178013" lon="-1.9661765"><ele>198.0</ele><time>2026-04-18T07:47:56.004Z</time></trkpt><trkpt lat="53.3177726" lon="-1.9664396"><ele>197.66666666666669</ele><time>2026-04-18T07:47:57.004Z</time></trkpt><trkpt lat="53.3177685" lon="-1.9666999"><ele>197.33333333333334</ele><time>2026-04-18T07:47:58.003Z</time></trkpt><trkpt lat="53.3177968" lon="-1.9669535"><ele>197.0</ele><time>2026-04-18T07:47:59.005Z</time></trkpt><trkpt lat="53.3178587" lon="-1.9671897"><ele>197.0</ele><time>2026-04-18T07:48:00.007Z</time></trkpt><trkpt lat="53.3179436" lon="-1.9674217"><ele>197.0</ele><time>2026-04-18T07:48:01.006Z</time></trkpt><trkpt lat="53.3180616" lon="-1.9676395"><ele>197.0</ele><time>2026-04-18T07:48:02.005Z</time></trkpt><trkpt lat="53.3181873" lon="-1.9678352"><ele>195.0</ele><time>2026-04-18T07:48:03.007Z</time></trkpt><trkpt lat="53.3183218" lon="-1.9680372"><ele>193.0</ele><time>2026-04-18T07:48:04.005Z</time></trkpt><trkpt lat="53.3184606" lon="-1.9682389"><ele>191.0</ele><time>2026-04-18T07:48:05.005Z</time></trkpt><trkpt lat="53.3185968" lon="-1.9684472"><ele>191.0</ele><time>2026-04-18T07:48:06.005Z</time></trkpt><trkpt lat="53.3187261" lon="-1.9686607"><ele>191.0</ele><time>2026-04-18T07:48:07.006Z</time></trkpt><trkpt lat="53.3188561" lon="-1.9688787"><ele>191.0</ele><time>2026-04-18T07:48:08.006Z</time></trkpt><trkpt lat="53.3189852" lon="-1.9690939"><ele>190.33333333333331</ele><time>2026-04-18T07:48:09.005Z</time></trkpt><trkpt lat="53.3191164" lon="-1.9692971"><ele>189.66666666666666</ele><time>2026-04-18T07:48:10.007Z</time></trkpt><trkpt lat="53.3192531" lon="-1.9694907"><ele>189.0</ele><time>2026-04-18T07:48:11.005Z</time></trkpt><trkpt lat="53.3193948" lon="-1.9696765"><ele>189.0</ele><time>2026-04-18T07:48:12.003Z</time></trkpt><trkpt lat="53.3195399" lon="-1.9698628"><ele>189.0</ele><time>2026-04-18T07:48:13.01Z</time></trkpt><trkpt lat="53.319677" lon="-1.9700561"><ele>189.0</ele><time>2026-04-18T07:48:14.006Z</time></trkpt><trkpt lat="53.3198001" lon="-1.9702723"><ele>188.66666666666666</ele><time>2026-04-18T07:48:15.004Z</time></trkpt><trkpt lat="53.3199022" lon="-1.9705175"><ele>188.33333333333331</ele><time>2026-04-18T07:48:16.006Z</time></trkpt><trkpt lat="53.3199842" lon="-1.9707799"><ele>188.0</ele><time>2026-04-18T07:48:17.004Z</time></trkpt><trkpt lat="53.3200536" lon="-1.9710627"><ele>188.0</ele><time>2026-04-18T07:48:18.003Z</time></trkpt><trkpt lat="53.3201033" lon="-1.9713674"><ele>188.0</ele><time>2026-04-18T07:48:19.005Z</time></trkpt><trkpt lat="53.320134" lon="-1.971686"><ele>188.0</ele><time>2026-04-18T07:48:20.005Z</time></trkpt><trkpt lat="53.3201695" lon="-1.9720041"><ele>188.0</ele><time>2026-04-18T07:48:21.006Z</time></trkpt><trkpt lat="53.3202058" lon="-1.9723154"><ele>188.0</ele><time>2026-04-18T07:48:22.006Z</time></trkpt><trkpt lat="53.3202543" lon="-1.9725976"><ele>188.0</ele><time>2026-04-18T07:48:23.004Z</time></trkpt><trkpt lat="53.3203009" lon="-1.9728639"><ele>188.0</ele><time>2026-04-18T07:48:24.004Z</time></trkpt><trkpt lat="53.3203437" lon="-1.9731267"><ele>188.0</ele><time>2026-04-18T07:48:25.003Z</time></trkpt><trkpt lat="53.3203763" lon="-1.9734004"><ele>188.0</ele><time>2026-04-18T07:48:26.002Z</time></trkpt><trkpt lat="53.3203888" lon="-1.9736781"><ele>189.0</ele><time>2026-04-18T07:48:27.004Z</time></trkpt><trkpt lat="53.3203725" lon="-1.9739521"><ele>190.0</ele><time>2026-04-18T07:48:28.002Z</time></trkpt><trkpt lat="53.3203333" lon="-1.9742349"><ele>191.0</ele><time>2026-04-18T07:48:29.003Z</time></trkpt><trkpt lat="53.3202843" lon="-1.9745104"><ele>191.66666666666666</ele><time>2026-04-18T07:48:30.004Z</time></trkpt><trkpt lat="53.320224" lon="-1.9747795"><ele>192.33333333333331</ele><time>2026-04-18T07:48:31.006Z</time></trkpt><trkpt lat="53.3201536" lon="-1.9750412"><ele>193.0</ele><time>2026-04-18T07:48:32.005Z</time></trkpt><trkpt lat="53.3200794" lon="-1.9752969"><ele>193.0</ele><time>2026-04-18T07:48:33.002Z</time></trkpt><trkpt lat="53.3200105" lon="-1.9755487"><ele>193.0</ele><time>2026-04-18T07:48:34.003Z</time></trkpt><trkpt lat="53.3199487" lon="-1.9758015"><ele>193.0</ele><time>2026-04-18T07:48:35Z</time></trkpt><trkpt lat="53.319893" lon="-1.9760593"><ele>193.0</ele><time>2026-04-18T07:48:36.002Z</time></trkpt><trkpt lat="53.3198499" lon="-1.9763185"><ele>193.0</ele><time>2026-04-18T07:48:37.003Z</time></trkpt><trkpt lat="53.3198282" lon="-1.976578"><ele>193.0</ele><time>2026-04-18T07:48:38.003Z</time></trkpt><trkpt lat="53.3198412" lon="-1.97683"><ele>192.33333333333331</ele><time>2026-04-18T07:48:39.003Z</time></trkpt><trkpt lat="53.3198881" lon="-1.9770645"><ele>191.66666666666666</ele><time>2026-04-18T07:48:40.003Z</time></trkpt><trkpt lat="53.3199688" lon="-1.9772897"><ele>191.0</ele><time>2026-04-18T07:48:41.007Z</time></trkpt><trkpt lat="53.3200677" lon="-1.9775069"><ele>189.0</ele><time>2026-04-18T07:48:42.007Z</time></trkpt><trkpt lat="53.320171" lon="-1.9777123"><ele>187.0</ele><time>2026-04-18T07:48:43.007Z</time></trkpt><trkpt lat="53.3202662" lon="-1.9779202"><ele>185.0</ele><time>2026-04-18T07:48:44.006Z</time></trkpt><trkpt lat="53.3203616" lon="-1.9781305"><ele>185.0</ele><time>2026-04-18T07:48:45.005Z</time></trkpt><trkpt lat="53.3204524" lon="-1.9783409"><ele>185.0</ele><time>2026-04-18T07:48:46.002Z</time></trkpt><trkpt lat="53.3205403" lon="-1.9785504"><ele>185.0</ele><time>2026-04-18T07:48:47.004Z</time></trkpt><trkpt lat="53.3206252" lon="-1.9787657"><ele>184.75</ele><time>2026-04-18T07:48:48.003Z</time></trkpt><trkpt lat="53.3207057" lon="-1.9789707"><ele>184.5</ele><time>2026-04-18T07:48:49.004Z</time></trkpt><trkpt lat="53.3207826" lon="-1.9791509"><ele>184.25</ele><time>2026-04-18T07:48:50.004Z</time></trkpt><trkpt lat="53.3208515" lon="-1.9793093"><ele>184.0</ele><time>2026-04-18T07:48:51.005Z</time></trkpt><trkpt lat="53.3209105" lon="-1.9794363"><ele>184.0</ele><time>2026-04-18T07:48:52.003Z</time></trkpt><trkpt lat="53.3209497" lon="-1.9795295"><ele>184.0</ele><time>2026-04-18T07:48:53.003Z</time></trkpt><trkpt lat="53.321004" lon="-1.9796438"><ele>184.0</ele><time>2026-04-18T07:48:54.998Z</time></trkpt><trkpt lat="53.3210284" lon="-1.9795009"><ele>184.0</ele><time>2026-04-18T07:49:00.008Z</time></trkpt><trkpt lat="53.3209844" lon="-1.9794005"><ele>184.0</ele><time>2026-04-18T07:49:01.006Z</time></trkpt><trkpt lat="53.3209316" lon="-1.9792994"><ele>184.0</ele><time>2026-04-18T07:49:02.006Z</time></trkpt><trkpt lat="53.3208742" lon="-1.9792167"><ele>184.71428571428572</ele><time>2026-04-18T07:49:03.001Z</time></trkpt><trkpt lat="53.3208145" lon="-1.9791663"><ele>185.42857142857142</ele><time>2026-04-18T07:49:03.999Z</time></trkpt><trkpt lat="53.3207428" lon="-1.97915"><ele>186.14285714285714</ele><time>2026-04-18T07:49:04.999Z</time></trkpt><trkpt lat="53.3206605" lon="-1.9791646"><ele>186.85714285714286</ele><time>2026-04-18T07:49:06.005Z</time></trkpt><trkpt lat="53.3205809" lon="-1.9791661"><ele>187.57142857142856</ele><time>2026-04-18T07:49:07.005Z</time></trkpt><trkpt lat="53.3205081" lon="-1.9791422"><ele>188.28571428571428</ele><time>2026-04-18T07:49:07.998Z</time></trkpt><trkpt lat="53.320443" lon="-1.9790976"><ele>189.0</ele><time>2026-04-18T07:49:09.002Z</time></trkpt><trkpt lat="53.3203865" lon="-1.9790268"><ele>187.16666666666666</ele><time>2026-04-18T07:49:10.005Z</time></trkpt><trkpt lat="53.3203281" lon="-1.9789377"><ele>185.33333333333334</ele><time>2026-04-18T07:49:11.004Z</time></trkpt><trkpt lat="53.3202618" lon="-1.9788445"><ele>183.5</ele><time>2026-04-18T07:49:12.002Z</time></trkpt><trkpt lat="53.3201875" lon="-1.9787692"><ele>181.66666666666669</ele><time>2026-04-18T07:49:13.003Z</time></trkpt><trkpt lat="53.3201118" lon="-1.9787165"><ele>179.83333333333334</ele><time>2026-04-18T07:49:14.007Z</time></trkpt><trkpt lat="53.3200288" lon="-1.9786776"><ele>178.0</ele><time>2026-04-18T07:49:15.006Z</time></trkpt><trkpt lat="53.3199331" lon="-1.9786585"><ele>178.0</ele><time>2026-04-18T07:49:16.003Z</time></trkpt><trkpt lat="53.3198236" lon="-1.9786486"><ele>178.0</ele><time>2026-04-18T07:49:17.005Z</time></trkpt><trkpt lat="53.3197088" lon="-1.9786451"><ele>178.0</ele><time>2026-04-18T07:49:18.006Z</time></trkpt><trkpt lat="53.3195966" lon="-1.9786489"><ele>178.0</ele><time>2026-04-18T07:49:19.004Z</time></trkpt><trkpt lat="53.3194915" lon="-1.9786597"><ele>178.0</ele><time>2026-04-18T07:49:20.006Z</time></trkpt><trkpt lat="53.3193922" lon="-1.978669"><ele>179.5</ele><time>2026-04-18T07:49:21.004Z</time></trkpt><trkpt lat="53.3192882" lon="-1.9786747"><ele>181.0</ele><time>2026-04-18T07:49:22.004Z</time></trkpt><trkpt lat="53.3191747" lon="-1.9786865"><ele>182.5</ele><time>2026-04-18T07:49:23.004Z</time></trkpt><trkpt lat="53.3190539" lon="-1.9787155"><ele>184.0</ele><time>2026-04-18T07:49:24.005Z</time></trkpt><trkpt lat="53.3189334" lon="-1.9787631"><ele>186.5</ele><time>2026-04-18T07:49:25.005Z</time></trkpt><trkpt lat="53.3188146" lon="-1.9788293"><ele>189.0</ele><time>2026-04-18T07:49:26.008Z</time></trkpt><trkpt lat="53.318702" lon="-1.9789004"><ele>191.5</ele><time>2026-04-18T07:49:27.004Z</time></trkpt><trkpt lat="53.3185942" lon="-1.9789774"><ele>194.0</ele><time>2026-04-18T07:49:28.002Z</time></trkpt><trkpt lat="53.3184823" lon="-1.9790528"><ele>194.0</ele><time>2026-04-18T07:49:29.003Z</time></trkpt><trkpt lat="53.3183718" lon="-1.9791159"><ele>194.0</ele><time>2026-04-18T07:49:30.004Z</time></trkpt><trkpt lat="53.3182587" lon="-1.9791681"><ele>194.0</ele><time>2026-04-18T07:49:31.006Z</time></trkpt><trkpt lat="53.3181413" lon="-1.9792048"><ele>194.0</ele><time>2026-04-18T07:49:32.005Z</time></trkpt><trkpt lat="53.3180191" lon="-1.9792297"><ele>197.75</ele><time>2026-04-18T07:49:33.006Z</time></trkpt><trkpt lat="53.3178932" lon="-1.9792466"><ele>201.5</ele><time>2026-04-18T07:49:34.005Z</time></trkpt><trkpt lat="53.3177666" lon="-1.97926"><ele>205.25</ele><time>2026-04-18T07:49:35.004Z</time></trkpt><trkpt lat="53.3176375" lon="-1.9792623"><ele>209.0</ele><time>2026-04-18T07:49:36Z</time></trkpt><trkpt lat="53.3175035" lon="-1.9792517"><ele>209.0</ele><time>2026-04-18T07:49:37.008Z</time></trkpt><trkpt lat="53.3173611" lon="-1.9792175"><ele>209.0</ele><time>2026-04-18T07:49:38.005Z</time></trkpt><trkpt lat="53.3172231" lon="-1.9791485"><ele>209.0</ele><time>2026-04-18T07:49:39.005Z</time></trkpt><trkpt lat="53.317093" lon="-1.9790516"><ele>209.0</ele><time>2026-04-18T07:49:40.005Z</time></trkpt><trkpt lat="53.3169625" lon="-1.9789374"><ele>211.0</ele><time>2026-04-18T07:49:41.004Z</time></trkpt><trkpt lat="53.316834" lon="-1.9788206"><ele>213.0</ele><time>2026-04-18T07:49:41.999Z</time></trkpt><trkpt lat="53.3167045" lon="-1.978704"><ele>215.0</ele><time>2026-04-18T07:49:43.003Z</time></trkpt><trkpt lat="53.3165692" lon="-1.9785893"><ele>217.0</ele><time>2026-04-18T07:49:44.004Z</time></trkpt><trkpt lat="53.3164252" lon="-1.9784773"><ele>219.0</ele><time>2026-04-18T07:49:45.009Z</time></trkpt><trkpt lat="53.3162827" lon="-1.9783775"><ele>221.0</ele><time>2026-04-18T07:49:46.004Z</time></trkpt><trkpt lat="53.3161512" lon="-1.9782852"><ele>223.0</ele><time>2026-04-18T07:49:47.007Z</time></trkpt><trkpt lat="53.3160228" lon="-1.9781955"><ele>225.0</ele><time>2026-04-18T07:49:48.006Z</time></trkpt><trkpt lat="53.3158923" lon="-1.9781005"><ele>225.0</ele><time>2026-04-18T07:49:49.003Z</time></trkpt><trkpt lat="53.3157613" lon="-1.978002"><ele>225.0</ele><time>2026-04-18T07:49:50.008Z</time></trkpt><trkpt lat="53.3156312" lon="-1.9778951"><ele>225.0</ele><time>2026-04-18T07:49:51.001Z</time></trkpt><trkpt lat="53.3155043" lon="-1.9777818"><ele>225.0</ele><time>2026-04-18T07:49:52.012Z</time></trkpt><trkpt lat="53.3153799" lon="-1.9776629"><ele>227.5</ele><time>2026-04-18T07:49:53.008Z</time></trkpt><trkpt lat="53.3152576" lon="-1.9775508"><ele>230.0</ele><time>2026-04-18T07:49:54.007Z</time></trkpt><trkpt lat="53.3151334" lon="-1.9774454"><ele>232.5</ele><time>2026-04-18T07:49:55.004Z</time></trkpt><trkpt lat="53.3150034" lon="-1.977358"><ele>235.0</ele><time>2026-04-18T07:49:56.005Z</time></trkpt><trkpt lat="53.3148647" lon="-1.9773041"><ele>237.0</ele><time>2026-04-18T07:49:57.006Z</time></trkpt><trkpt lat="53.3147189" lon="-1.9772707"><ele>239.0</ele><time>2026-04-18T07:49:58.01Z</time></trkpt><trkpt lat="53.3145693" lon="-1.9772476"><ele>241.0</ele><time>2026-04-18T07:49:59.007Z</time></trkpt><trkpt lat="53.3144195" lon="-1.9772179"><ele>243.0</ele><time>2026-04-18T07:50:00.007Z</time></trkpt><trkpt lat="53.3142728" lon="-1.9771821"><ele>243.0</ele><time>2026-04-18T07:50:01.006Z</time></trkpt><trkpt lat="53.3141329" lon="-1.9771446"><ele>243.0</ele><time>2026-04-18T07:50:02.007Z</time></trkpt><trkpt lat="53.314007" lon="-1.9771093"><ele>243.0</ele><time>2026-04-18T07:50:03.007Z</time></trkpt><trkpt lat="53.3138977" lon="-1.9770576"><ele>243.0</ele><time>2026-04-18T07:50:04.007Z</time></trkpt><trkpt lat="53.3138012" lon="-1.9769771"><ele>244.5</ele><time>2026-04-18T07:50:05.011Z</time></trkpt><trkpt lat="53.313717" lon="-1.976859"><ele>246.0</ele><time>2026-04-18T07:50:06.008Z</time></trkpt><trkpt lat="53.3136336" lon="-1.9767145"><ele>247.5</ele><time>2026-04-18T07:50:07.007Z</time></trkpt><trkpt lat="53.3135527" lon="-1.9765713"><ele>249.0</ele><time>2026-04-18T07:50:08.006Z</time></trkpt><trkpt lat="53.3134742" lon="-1.9764386"><ele>249.0</ele><time>2026-04-18T07:50:09.007Z</time></trkpt><trkpt lat="53.3133925" lon="-1.9763157"><ele>249.0</ele><time>2026-04-18T07:50:10.008Z</time></trkpt><trkpt lat="53.3133012" lon="-1.9761933"><ele>249.0</ele><time>2026-04-18T07:50:11.006Z</time></trkpt><trkpt lat="53.3131995" lon="-1.9760615"><ele>249.0</ele><time>2026-04-18T07:50:12.005Z</time></trkpt><trkpt lat="53.3130891" lon="-1.9759244"><ele>251.0</ele><time>2026-04-18T07:50:13.007Z</time></trkpt><trkpt lat="53.3129699" lon="-1.9757729"><ele>253.0</ele><time>2026-04-18T07:50:14.007Z</time></trkpt><trkpt lat="53.3128448" lon="-1.97561"><ele>255.0</ele><time>2026-04-18T07:50:15.007Z</time></trkpt><trkpt lat="53.3127191" lon="-1.9754441"><ele>255.0</ele><time>2026-04-18T07:50:16.008Z</time></trkpt><trkpt lat="53.3125988" lon="-1.9752846"><ele>255.0</ele><time>2026-04-18T07:50:17.009Z</time></trkpt><trkpt lat="53.3124835" lon="-1.9751356"><ele>255.0</ele><time>2026-04-18T07:50:18.007Z</time></trkpt><trkpt lat="53.3123699" lon="-1.9749893"><ele>255.0</ele><time>2026-04-18T07:50:19.007Z</time></trkpt><trkpt lat="53.312255" lon="-1.9748412"><ele>257.0</ele><time>2026-04-18T07:50:20.007Z</time></trkpt><trkpt lat="53.312141" lon="-1.974691"><ele>259.0</ele><time>2026-04-18T07:50:21.008Z</time></trkpt><trkpt lat="53.3120298" lon="-1.9745429"><ele>261.0</ele><time>2026-04-18T07:50:22.006Z</time></trkpt><trkpt lat="53.3119205" lon="-1.9743978"><ele>263.0</ele><time>2026-04-18T07:50:23.008Z</time></trkpt><trkpt lat="53.3118131" lon="-1.9742657"><ele>265.0</ele><time>2026-04-18T07:50:24.007Z</time></trkpt><trkpt lat="53.3117033" lon="-1.9741568"><ele>267.0</ele><time>2026-04-18T07:50:25.007Z</time></trkpt><trkpt lat="53.3115885" lon="-1.9740848"><ele>269.0</ele><time>2026-04-18T07:50:26.004Z</time></trkpt><trkpt lat="53.3114696" lon="-1.9740343"><ele>271.0</ele><time>2026-04-18T07:50:27.003Z</time></trkpt><trkpt lat="53.3113543" lon="-1.9739857"><ele>272.25</ele><time>2026-04-18T07:50:28.004Z</time></trkpt><trkpt lat="53.3112359" lon="-1.9739361"><ele>273.5</ele><time>2026-04-18T07:50:29.006Z</time></trkpt><trkpt lat="53.3111131" lon="-1.9738858"><ele>274.75</ele><time>2026-04-18T07:50:30.007Z</time></trkpt><trkpt lat="53.310999" lon="-1.9738291"><ele>276.0</ele><time>2026-04-18T07:50:31.005Z</time></trkpt><trkpt lat="53.3109017" lon="-1.9737688"><ele>276.0</ele><time>2026-04-18T07:50:32.006Z</time></trkpt><trkpt lat="53.3108189" lon="-1.9737122"><ele>276.0</ele><time>2026-04-18T07:50:33.008Z</time></trkpt><trkpt lat="53.3107609" lon="-1.9736682"><ele>276.0</ele><time>2026-04-18T07:50:33.998Z</time></trkpt><trkpt lat="53.3107166" lon="-1.9735909"><ele>276.0</ele><time>2026-04-18T07:50:37.007Z</time></trkpt><trkpt lat="53.3107842" lon="-1.9735956"><ele>276.0</ele><time>2026-04-18T07:50:42.004Z</time></trkpt><trkpt lat="53.3107961" lon="-1.9734513"><ele>276.0</ele><time>2026-04-18T07:50:48.004Z</time></trkpt><trkpt lat="53.3108223" lon="-1.9733553"><ele>276.0</ele><time>2026-04-18T07:50:49.003Z</time></trkpt><trkpt lat="53.3108633" lon="-1.9732479"><ele>278.1666666666667</ele><time>2026-04-18T07:50:50.005Z</time></trkpt><trkpt lat="53.3109043" lon="-1.9731169"><ele>280.3333333333333</ele><time>2026-04-18T07:50:51.005Z</time></trkpt><trkpt lat="53.3109345" lon="-1.9729757"><ele>282.5</ele><time>2026-04-18T07:50:52.005Z</time></trkpt><trkpt lat="53.310966" lon="-1.9728435"><ele>284.66666666666663</ele><time>2026-04-18T07:50:52.997Z</time></trkpt><trkpt lat="53.3110077" lon="-1.9727336"><ele>286.8333333333333</ele><time>2026-04-18T07:50:54.004Z</time></trkpt><trkpt lat="53.3110554" lon="-1.9726377"><ele>289.0</ele><time>2026-04-18T07:50:55.003Z</time></trkpt><trkpt lat="53.3111056" lon="-1.9725439"><ele>291.0</ele><time>2026-04-18T07:50:56.006Z</time></trkpt><trkpt lat="53.3111553" lon="-1.9724449"><ele>293.0</ele><time>2026-04-18T07:50:57.006Z</time></trkpt><trkpt lat="53.3112017" lon="-1.9723321"><ele>295.0</ele><time>2026-04-18T07:50:58.003Z</time></trkpt><trkpt lat="53.3112419" lon="-1.9722097"><ele>297.0</ele><time>2026-04-18T07:50:59.004Z</time></trkpt><trkpt lat="53.3112815" lon="-1.9720766"><ele>299.0</ele><time>2026-04-18T07:51:00.002Z</time></trkpt><trkpt lat="53.3113245" lon="-1.9719404"><ele>301.0</ele><time>2026-04-18T07:51:01.003Z</time></trkpt><trkpt lat="53.3113715" lon="-1.9718041"><ele>301.2</ele><time>2026-04-18T07:51:02.004Z</time></trkpt><trkpt lat="53.3114223" lon="-1.971668"><ele>301.40000000000003</ele><time>2026-04-18T07:51:03.004Z</time></trkpt><trkpt lat="53.3114745" lon="-1.9715363"><ele>301.6</ele><time>2026-04-18T07:51:04.005Z</time></trkpt><trkpt lat="53.3115272" lon="-1.9714081"><ele>301.8</ele><time>2026-04-18T07:51:05.004Z</time></trkpt><trkpt lat="53.3115827" lon="-1.971283"><ele>302.0</ele><time>2026-04-18T07:51:06.005Z</time></trkpt><trkpt lat="53.31164" lon="-1.9711585"><ele>302.0</ele><time>2026-04-18T07:51:07.006Z</time></trkpt><trkpt lat="53.3116998" lon="-1.971037"><ele>302.0</ele><time>2026-04-18T07:51:08.006Z</time></trkpt><trkpt lat="53.3117592" lon="-1.9709144"><ele>302.0</ele><time>2026-04-18T07:51:09.005Z</time></trkpt><trkpt lat="53.31181" lon="-1.9707806"><ele>302.0</ele><time>2026-04-18T07:51:10.008Z</time></trkpt><trkpt lat="53.3118459" lon="-1.9706304"><ele>302.0</ele><time>2026-04-18T07:51:11.004Z</time></trkpt><trkpt lat="53.3118733" lon="-1.9704682"><ele>304.2</ele><time>2026-04-18T07:51:12.005Z</time></trkpt><trkpt lat="53.3118895" lon="-1.9703071"><ele>306.4</ele><time>2026-04-18T07:51:13.005Z</time></trkpt><trkpt lat="53.311893" lon="-1.9701458"><ele>308.6</ele><time>2026-04-18T07:51:14.004Z</time></trkpt><trkpt lat="53.3118751" lon="-1.969987"><ele>310.8</ele><time>2026-04-18T07:51:15.004Z</time></trkpt><trkpt lat="53.311844" lon="-1.9698239"><ele>313.0</ele><time>2026-04-18T07:51:16.004Z</time></trkpt><trkpt lat="53.3118042" lon="-1.9696574"><ele>314.4</ele><time>2026-04-18T07:51:17.006Z</time></trkpt><trkpt lat="53.3117545" lon="-1.9694946"><ele>315.8</ele><time>2026-04-18T07:51:18.006Z</time></trkpt><trkpt lat="53.3116953" lon="-1.9693425"><ele>317.2</ele><time>2026-04-18T07:51:19.006Z</time></trkpt><trkpt lat="53.3116266" lon="-1.9692013"><ele>318.6</ele><time>2026-04-18T07:51:20.005Z</time></trkpt><trkpt lat="53.3115377" lon="-1.9690763"><ele>320.0</ele><time>2026-04-18T07:51:21.004Z</time></trkpt><trkpt lat="53.3114333" lon="-1.968969"><ele>323.0</ele><time>2026-04-18T07:51:22.005Z</time></trkpt><trkpt lat="53.3113219" lon="-1.9688535"><ele>326.0</ele><time>2026-04-18T07:51:23.007Z</time></trkpt><trkpt lat="53.311227" lon="-1.9687271"><ele>329.0</ele><time>2026-04-18T07:51:24.005Z</time></trkpt><trkpt lat="53.3111627" lon="-1.9685893"><ele>332.0</ele><time>2026-04-18T07:51:25.004Z</time></trkpt><trkpt lat="53.3111374" lon="-1.9684547"><ele>335.0</ele><time>2026-04-18T07:51:26.004Z</time></trkpt><trkpt lat="53.3111362" lon="-1.9683356"><ele>335.1666666666667</ele><time>2026-04-18T07:51:27.004Z</time></trkpt><trkpt lat="53.3111637" lon="-1.9681699"><ele>335.33333333333337</ele><time>2026-04-18T07:51:29.006Z</time></trkpt><trkpt lat="53.311211" lon="-1.9680538"><ele>335.5</ele><time>2026-04-18T07:51:31.005Z</time></trkpt><trkpt lat="53.3112821" lon="-1.9679404"><ele>335.6666666666667</ele><time>2026-04-18T07:51:33.007Z</time></trkpt><trkpt lat="53.3113348" lon="-1.967867"><ele>335.8333333333333</ele><time>2026-04-18T07:51:35.006Z</time></trkpt><trkpt lat="53.3113626" lon="-1.9677309"><ele>336.0</ele><time>2026-04-18T07:52:05.012Z</time></trkpt><trkpt lat="53.3113872" lon="-1.9676336"><ele>333.6666666666667</ele><time>2026-04-18T07:52:07.017Z</time></trkpt><trkpt lat="53.3114083" lon="-1.96751"><ele>331.3333333333333</ele><time>2026-04-18T07:52:10.017Z</time></trkpt><trkpt lat="53.311423" lon="-1.9673908"><ele>329.0</ele><time>2026-04-18T07:52:13.019Z</time></trkpt><trkpt lat="53.3114277" lon="-1.9672521"><ele>326.66666666666663</ele><time>2026-04-18T07:52:16.02Z</time></trkpt><trkpt lat="53.3114313" lon="-1.9671459"><ele>324.3333333333333</ele><time>2026-04-18T07:52:18.007Z</time></trkpt><trkpt lat="53.3114367" lon="-1.9670397"><ele>322.0</ele><time>2026-04-18T07:52:20.006Z</time></trkpt><trkpt lat="53.3114502" lon="-1.9668868"><ele>322.0</ele><time>2026-04-18T07:52:23.005Z</time></trkpt><trkpt lat="53.3114538" lon="-1.9667724"><ele>322.0</ele><time>2026-04-18T07:52:25.006Z</time></trkpt><trkpt lat="53.3114596" lon="-1.966652"><ele>322.0</ele><time>2026-04-18T07:52:27.008Z</time></trkpt><trkpt lat="53.3114683" lon="-1.9665344"><ele>322.0</ele><time>2026-04-18T07:52:29.008Z</time></trkpt><trkpt lat="53.3114892" lon="-1.9663976"><ele>322.0</ele><time>2026-04-18T07:52:31.007Z</time></trkpt><trkpt lat="53.3115069" lon="-1.9662416"><ele>322.0</ele><time>2026-04-18T07:52:33.013Z</time></trkpt><trkpt lat="53.3115293" lon="-1.966042"><ele>323.0</ele><time>2026-04-18T07:52:35.007Z</time></trkpt><trkpt lat="53.3115282" lon="-1.9659361"><ele>324.0</ele><time>2026-04-18T07:52:36.007Z</time></trkpt><trkpt lat="53.3115232" lon="-1.965819"><ele>325.0</ele><time>2026-04-18T07:52:37.007Z</time></trkpt><trkpt lat="53.3115181" lon="-1.9656887"><ele>326.0</ele><time>2026-04-18T07:52:38.009Z</time></trkpt><trkpt lat="53.3115175" lon="-1.9655428"><ele>327.0</ele><time>2026-04-18T07:52:39.008Z</time></trkpt><trkpt lat="53.3115228" lon="-1.965383"><ele>328.0</ele><time>2026-04-18T07:52:40.009Z</time></trkpt><trkpt lat="53.3115249" lon="-1.9652079"><ele>329.5</ele><time>2026-04-18T07:52:41.005Z</time></trkpt><trkpt lat="53.3115266" lon="-1.9650223"><ele>331.0</ele><time>2026-04-18T07:52:42.006Z</time></trkpt><trkpt lat="53.3115354" lon="-1.9648242"><ele>332.5</ele><time>2026-04-18T07:52:43.011Z</time></trkpt><trkpt lat="53.3115441" lon="-1.9646267"><ele>334.0</ele><time>2026-04-18T07:52:44.008Z</time></trkpt><trkpt lat="53.3115481" lon="-1.9644518"><ele>334.0</ele><time>2026-04-18T07:52:45.006Z</time></trkpt><trkpt lat="53.311545" lon="-1.9643058"><ele>334.0</ele><time>2026-04-18T07:52:46.006Z</time></trkpt><trkpt lat="53.3115347" lon="-1.9641593"><ele>334.0</ele><time>2026-04-18T07:52:47.007Z</time></trkpt><trkpt lat="53.3115177" lon="-1.9639917"><ele>334.0</ele><time>2026-04-18T07:52:48.008Z</time></trkpt><trkpt lat="53.3114911" lon="-1.9638087"><ele>334.0</ele><time>2026-04-18T07:52:49.008Z</time></trkpt><trkpt lat="53.3114517" lon="-1.9636109"><ele>337.0</ele><time>2026-04-18T07:52:50.01Z</time></trkpt><trkpt lat="53.3114049" lon="-1.9634046"><ele>340.0</ele><time>2026-04-18T07:52:51.006Z</time></trkpt><trkpt lat="53.3113591" lon="-1.9631876"><ele>343.0</ele><time>2026-04-18T07:52:52.008Z</time></trkpt><trkpt lat="53.3113154" lon="-1.9629496"><ele>346.0</ele><time>2026-04-18T07:52:53.011Z</time></trkpt><trkpt lat="53.3112734" lon="-1.9627015"><ele>348.0</ele><time>2026-04-18T07:52:54.009Z</time></trkpt><trkpt lat="53.3112343" lon="-1.9624632"><ele>350.0</ele><time>2026-04-18T07:52:55.009Z</time></trkpt><trkpt lat="53.3111864" lon="-1.9622377"><ele>352.0</ele><time>2026-04-18T07:52:56.009Z</time></trkpt><trkpt lat="53.3111305" lon="-1.9620124"><ele>354.0</ele><time>2026-04-18T07:52:57.008Z</time></trkpt><trkpt lat="53.3110677" lon="-1.9617835"><ele>352.5</ele><time>2026-04-18T07:52:58.007Z</time></trkpt><trkpt lat="53.3109987" lon="-1.9615713"><ele>351.0</ele><time>2026-04-18T07:52:59.008Z</time></trkpt><trkpt lat="53.31093" lon="-1.9613803"><ele>349.5</ele><time>2026-04-18T07:53:00.007Z</time></trkpt><trkpt lat="53.3108672" lon="-1.9611902"><ele>348.0</ele><time>2026-04-18T07:53:01.008Z</time></trkpt><trkpt lat="53.3108163" lon="-1.961001"><ele>345.75</ele><time>2026-04-18T07:53:02.008Z</time></trkpt><trkpt lat="53.3107713" lon="-1.9608285"><ele>343.5</ele><time>2026-04-18T07:53:03.011Z</time></trkpt><trkpt lat="53.3107208" lon="-1.9606569"><ele>341.25</ele><time>2026-04-18T07:53:04.011Z</time></trkpt><trkpt lat="53.3106646" lon="-1.9604626"><ele>339.0</ele><time>2026-04-18T07:53:05.011Z</time></trkpt><trkpt lat="53.310603" lon="-1.9602529"><ele>341.5</ele><time>2026-04-18T07:53:06.011Z</time></trkpt><trkpt lat="53.3105417" lon="-1.9600284"><ele>344.0</ele><time>2026-04-18T07:53:07.012Z</time></trkpt><trkpt lat="53.3104787" lon="-1.9598051"><ele>346.5</ele><time>2026-04-18T07:53:08.011Z</time></trkpt><trkpt lat="53.3104194" lon="-1.9595807"><ele>349.0</ele><time>2026-04-18T07:53:09.012Z</time></trkpt><trkpt lat="53.3103704" lon="-1.9593479"><ele>347.0</ele><time>2026-04-18T07:53:10.015Z</time></trkpt><trkpt lat="53.3103255" lon="-1.9591063"><ele>345.0</ele><time>2026-04-18T07:53:11.009Z</time></trkpt><trkpt lat="53.3102781" lon="-1.9588682"><ele>343.0</ele><time>2026-04-18T07:53:12.011Z</time></trkpt><trkpt lat="53.3102277" lon="-1.9586356"><ele>341.0</ele><time>2026-04-18T07:53:13.013Z</time></trkpt><trkpt lat="53.3101733" lon="-1.9584051"><ele>340.0</ele><time>2026-04-18T07:53:14.009Z</time></trkpt><trkpt lat="53.3101147" lon="-1.9581904"><ele>339.0</ele><time>2026-04-18T07:53:15.009Z</time></trkpt><trkpt lat="53.3100538" lon="-1.9580059"><ele>338.0</ele><time>2026-04-18T07:53:16.005Z</time></trkpt><trkpt lat="53.3099932" lon="-1.957867"><ele>337.0</ele><time>2026-04-18T07:53:17.009Z</time></trkpt><trkpt lat="53.3099411" lon="-1.9577778"><ele>336.0</ele><time>2026-04-18T07:53:18.009Z</time></trkpt><trkpt lat="53.30987" lon="-1.957639"><ele>337.1666666666667</ele><time>2026-04-18T07:53:20.009Z</time></trkpt><trkpt lat="53.3098038" lon="-1.9575096"><ele>338.3333333333333</ele><time>2026-04-18T07:53:22.007Z</time></trkpt><trkpt lat="53.3097525" lon="-1.9573963"><ele>339.5</ele><time>2026-04-18T07:53:24.01Z</time></trkpt><trkpt lat="53.3097003" lon="-1.9572458"><ele>340.66666666666663</ele><time>2026-04-18T07:53:26.01Z</time></trkpt><trkpt lat="53.3096656" lon="-1.9571563"><ele>341.8333333333333</ele><time>2026-04-18T07:53:27.009Z</time></trkpt><trkpt lat="53.3096275" lon="-1.9570452"><ele>343.0</ele><time>2026-04-18T07:53:28.011Z</time></trkpt><trkpt lat="53.3095901" lon="-1.9569265"><ele>343.0</ele><time>2026-04-18T07:53:29.01Z</time></trkpt><trkpt lat="53.309562" lon="-1.9568157"><ele>343.0</ele><time>2026-04-18T07:53:30.009Z</time></trkpt><trkpt lat="53.3095462" lon="-1.9567071"><ele>343.0</ele><time>2026-04-18T07:53:31.011Z</time></trkpt><trkpt lat="53.3095335" lon="-1.9565966"><ele>343.0</ele><time>2026-04-18T07:53:32.012Z</time></trkpt><trkpt lat="53.3095193" lon="-1.9564779"><ele>343.0</ele><time>2026-04-18T07:53:33.015Z</time></trkpt><trkpt lat="53.3094998" lon="-1.9563676"><ele>343.0</ele><time>2026-04-18T07:53:34.01Z</time></trkpt><trkpt lat="53.3094717" lon="-1.9562632"><ele>343.0</ele><time>2026-04-18T07:53:35.012Z</time></trkpt><trkpt lat="53.3094378" lon="-1.956149"><ele>341.79999999999995</ele><time>2026-04-18T07:53:36.011Z</time></trkpt><trkpt lat="53.309398" lon="-1.9560208"><ele>340.6</ele><time>2026-04-18T07:53:37.011Z</time></trkpt><trkpt lat="53.309351" lon="-1.955876"><ele>339.4</ele><time>2026-04-18T07:53:38.01Z</time></trkpt><trkpt lat="53.3092951" lon="-1.9557067"><ele>338.20000000000005</ele><time>2026-04-18T07:53:39.004Z</time></trkpt><trkpt lat="53.3092341" lon="-1.955524"><ele>337.0</ele><time>2026-04-18T07:53:40.011Z</time></trkpt><trkpt lat="53.3091729" lon="-1.955332"><ele>337.5</ele><time>2026-04-18T07:53:41.012Z</time></trkpt><trkpt lat="53.3091108" lon="-1.9551371"><ele>338.0</ele><time>2026-04-18T07:53:42.01Z</time></trkpt><trkpt lat="53.3090434" lon="-1.9549587"><ele>338.5</ele><time>2026-04-18T07:53:43.013Z</time></trkpt><trkpt lat="53.3089714" lon="-1.9548015"><ele>339.0</ele><time>2026-04-18T07:53:44.01Z</time></trkpt><trkpt lat="53.3088954" lon="-1.9546615"><ele>339.0</ele><time>2026-04-18T07:53:45.011Z</time></trkpt><trkpt lat="53.3088149" lon="-1.9545355"><ele>339.0</ele><time>2026-04-18T07:53:46.011Z</time></trkpt><trkpt lat="53.3087381" lon="-1.9544252"><ele>339.0</ele><time>2026-04-18T07:53:47.01Z</time></trkpt><trkpt lat="53.3086707" lon="-1.9543095"><ele>339.0</ele><time>2026-04-18T07:53:48.011Z</time></trkpt><trkpt lat="53.3086128" lon="-1.954176"><ele>339.0</ele><time>2026-04-18T07:53:49.012Z</time></trkpt><trkpt lat="53.308563" lon="-1.9540236"><ele>337.5</ele><time>2026-04-18T07:53:50.01Z</time></trkpt><trkpt lat="53.3085109" lon="-1.9538567"><ele>336.0</ele><time>2026-04-18T07:53:51.009Z</time></trkpt><trkpt lat="53.3084533" lon="-1.9536821"><ele>334.5</ele><time>2026-04-18T07:53:52.01Z</time></trkpt><trkpt lat="53.3083923" lon="-1.9535079"><ele>333.0</ele><time>2026-04-18T07:53:53.013Z</time></trkpt><trkpt lat="53.3083373" lon="-1.953347"><ele>332.2</ele><time>2026-04-18T07:53:54.01Z</time></trkpt><trkpt lat="53.3082936" lon="-1.9532078"><ele>331.4</ele><time>2026-04-18T07:53:55.009Z</time></trkpt><trkpt lat="53.30826" lon="-1.9530986"><ele>330.59999999999997</ele><time>2026-04-18T07:53:56.011Z</time></trkpt><trkpt lat="53.3081911" lon="-1.9529489"><ele>329.79999999999995</ele><time>2026-04-18T07:53:58.011Z</time></trkpt><trkpt lat="53.3081223" lon="-1.9528136"><ele>329.0</ele><time>2026-04-18T07:54:00.011Z</time></trkpt><trkpt lat="53.3080231" lon="-1.9527021"><ele>329.0</ele><time>2026-04-18T07:54:02.009Z</time></trkpt><trkpt lat="53.3079547" lon="-1.9526689"><ele>329.0</ele><time>2026-04-18T07:54:03.015Z</time></trkpt><trkpt lat="53.307881" lon="-1.9526418"><ele>329.0</ele><time>2026-04-18T07:54:04.012Z</time></trkpt><trkpt lat="53.3078107" lon="-1.9526107"><ele>329.0</ele><time>2026-04-18T07:54:05.011Z</time></trkpt><trkpt lat="53.3077452" lon="-1.9525759"><ele>329.0</ele><time>2026-04-18T07:54:06.011Z</time></trkpt><trkpt lat="53.3076812" lon="-1.9525414"><ele>329.0</ele><time>2026-04-18T07:54:07.01Z</time></trkpt><trkpt lat="53.3076133" lon="-1.9525091"><ele>329.0</ele><time>2026-04-18T07:54:08.01Z</time></trkpt><trkpt lat="53.3075453" lon="-1.9524816"><ele>327.42857142857144</ele><time>2026-04-18T07:54:09.011Z</time></trkpt><trkpt lat="53.3074816" lon="-1.9524706"><ele>325.8571428571429</ele><time>2026-04-18T07:54:10.01Z</time></trkpt><trkpt lat="53.3074178" lon="-1.9524673"><ele>324.2857142857143</ele><time>2026-04-18T07:54:11.009Z</time></trkpt><trkpt lat="53.3073444" lon="-1.9524569"><ele>322.7142857142857</ele><time>2026-04-18T07:54:12.006Z</time></trkpt><trkpt lat="53.3072702" lon="-1.9524582"><ele>321.14285714285717</ele><time>2026-04-18T07:54:13.009Z</time></trkpt><trkpt lat="53.3071888" lon="-1.9524682"><ele>319.57142857142856</ele><time>2026-04-18T07:54:14.01Z</time></trkpt><trkpt lat="53.3071052" lon="-1.9524946"><ele>318.0</ele><time>2026-04-18T07:54:15.009Z</time></trkpt><trkpt lat="53.3070247" lon="-1.9525314"><ele>317.6666666666667</ele><time>2026-04-18T07:54:16.011Z</time></trkpt><trkpt lat="53.3069486" lon="-1.9525728"><ele>317.3333333333333</ele><time>2026-04-18T07:54:17.01Z</time></trkpt><trkpt lat="53.3068724" lon="-1.9526213"><ele>317.0</ele><time>2026-04-18T07:54:18.009Z</time></trkpt><trkpt lat="53.3067951" lon="-1.9526681"><ele>316.66666666666663</ele><time>2026-04-18T07:54:19.008Z</time></trkpt><trkpt lat="53.3067172" lon="-1.9527049"><ele>316.3333333333333</ele><time>2026-04-18T07:54:20.01Z</time></trkpt><trkpt lat="53.3066437" lon="-1.9527238"><ele>316.0</ele><time>2026-04-18T07:54:21.007Z</time></trkpt><trkpt lat="53.3065736" lon="-1.9527163"><ele>316.0</ele><time>2026-04-18T07:54:22.009Z</time></trkpt><trkpt lat="53.3065073" lon="-1.9526799"><ele>316.0</ele><time>2026-04-18T07:54:23.003Z</time></trkpt><trkpt lat="53.3064074" lon="-1.9526067"><ele>316.0</ele><time>2026-04-18T07:54:25.01Z</time></trkpt><trkpt lat="53.3063251" lon="-1.9526071"><ele>316.0</ele><time>2026-04-18T07:54:27.01Z</time></trkpt><trkpt lat="53.3062643" lon="-1.9526449"><ele>316.0</ele><time>2026-04-18T07:54:29.007Z</time></trkpt><trkpt lat="53.3061928" lon="-1.952727"><ele>316.0</ele><time>2026-04-18T07:54:32.011Z</time></trkpt><trkpt lat="53.3060854" lon="-1.952852"><ele>315.0</ele><time>2026-04-18T07:54:34.009Z</time></trkpt><trkpt lat="53.3059801" lon="-1.9529442"><ele>314.0</ele><time>2026-04-18T07:54:35.01Z</time></trkpt><trkpt lat="53.3058619" lon="-1.9530208"><ele>313.0</ele><time>2026-04-18T07:54:36.009Z</time></trkpt><trkpt lat="53.3057419" lon="-1.9530822"><ele>312.0</ele><time>2026-04-18T07:54:37.01Z</time></trkpt><trkpt lat="53.3056237" lon="-1.9531414"><ele>313.75</ele><time>2026-04-18T07:54:38.008Z</time></trkpt><trkpt lat="53.3055061" lon="-1.9531925"><ele>315.5</ele><time>2026-04-18T07:54:39.008Z</time></trkpt><trkpt lat="53.3053926" lon="-1.9532478"><ele>317.25</ele><time>2026-04-18T07:54:40.009Z</time></trkpt><trkpt lat="53.3052834" lon="-1.9533163"><ele>319.0</ele><time>2026-04-18T07:54:41.006Z</time></trkpt><trkpt lat="53.3051759" lon="-1.9533933"><ele>322.0</ele><time>2026-04-18T07:54:42.007Z</time></trkpt><trkpt lat="53.3050685" lon="-1.953478"><ele>325.0</ele><time>2026-04-18T07:54:43.007Z</time></trkpt><trkpt lat="53.3049635" lon="-1.9535791"><ele>328.0</ele><time>2026-04-18T07:54:44.004Z</time></trkpt><trkpt lat="53.3048561" lon="-1.9536808"><ele>331.0</ele><time>2026-04-18T07:54:45.006Z</time></trkpt><trkpt lat="53.3047477" lon="-1.9537578"><ele>332.20000000000005</ele><time>2026-04-18T07:54:46.005Z</time></trkpt><trkpt lat="53.3046398" lon="-1.9538068"><ele>333.40000000000003</ele><time>2026-04-18T07:54:47.006Z</time></trkpt><trkpt lat="53.3045285" lon="-1.9538178"><ele>334.6</ele><time>2026-04-18T07:54:48.005Z</time></trkpt><trkpt lat="53.3044223" lon="-1.9538199"><ele>335.8</ele><time>2026-04-18T07:54:49.008Z</time></trkpt><trkpt lat="53.30432" lon="-1.9538214"><ele>337.0</ele><time>2026-04-18T07:54:50.006Z</time></trkpt><trkpt lat="53.3042252" lon="-1.9538336"><ele>337.0</ele><time>2026-04-18T07:54:51.004Z</time></trkpt><trkpt lat="53.3041419" lon="-1.9538501"><ele>337.0</ele><time>2026-04-18T07:54:52.009Z</time></trkpt><trkpt lat="53.304073" lon="-1.9538582"><ele>337.0</ele><time>2026-04-18T07:54:53.007Z</time></trkpt><trkpt lat="53.3039546" lon="-1.9537952"><ele>337.0</ele><time>2026-04-18T07:54:55.01Z</time></trkpt><trkpt lat="53.3039037" lon="-1.9537165"><ele>337.0</ele><time>2026-04-18T07:54:56.009Z</time></trkpt><trkpt lat="53.3038605" lon="-1.9536074"><ele>337.0</ele><time>2026-04-18T07:54:57.009Z</time></trkpt><trkpt lat="53.3038244" lon="-1.9534803"><ele>335.0</ele><time>2026-04-18T07:54:58.007Z</time></trkpt><trkpt lat="53.3037886" lon="-1.9533546"><ele>333.0</ele><time>2026-04-18T07:54:59.008Z</time></trkpt><trkpt lat="53.3037546" lon="-1.9532523"><ele>331.0</ele><time>2026-04-18T07:55:00.008Z</time></trkpt><trkpt lat="53.3037118" lon="-1.953139"><ele>329.0</ele><time>2026-04-18T07:55:02.01Z</time></trkpt><trkpt lat="53.3036354" lon="-1.9530994"><ele>327.0</ele><time>2026-04-18T07:55:27.01Z</time></trkpt><trkpt lat="53.3036957" lon="-1.9532098"><ele>325.0</ele><time>2026-04-18T07:55:31.01Z</time></trkpt><trkpt lat="53.3037803" lon="-1.953369"><ele>326.5</ele><time>2026-04-18T07:55:33.008Z</time></trkpt><trkpt lat="53.3038233" lon="-1.9534656"><ele>328.0</ele><time>2026-04-18T07:55:34.009Z</time></trkpt><trkpt lat="53.3038681" lon="-1.9535677"><ele>329.5</ele><time>2026-04-18T07:55:35.01Z</time></trkpt><trkpt lat="53.3039044" lon="-1.9536606"><ele>331.0</ele><time>2026-04-18T07:55:36.01Z</time></trkpt><trkpt lat="53.3039712" lon="-1.9538238"><ele>332.5</ele><time>2026-04-18T07:55:38.01Z</time></trkpt><trkpt lat="53.3040669" lon="-1.9538952"><ele>334.0</ele><time>2026-04-18T07:55:40.012Z</time></trkpt><trkpt lat="53.3041279" lon="-1.953937"><ele>334.0</ele><time>2026-04-18T07:55:43.014Z</time></trkpt><trkpt lat="53.3040465" lon="-1.9539763"><ele>334.0</ele><time>2026-04-18T07:55:46.003Z</time></trkpt><trkpt lat="53.3039858" lon="-1.9539369"><ele>334.0</ele><time>2026-04-18T07:55:56.012Z</time></trkpt><trkpt lat="53.3040518" lon="-1.9539409"><ele>334.0</ele><time>2026-04-18T07:56:37.013Z</time></trkpt><trkpt lat="53.3039937" lon="-1.9539903"><ele>334.0</ele><time>2026-04-18T07:56:58.013Z</time></trkpt><trkpt lat="53.3039078" lon="-1.9540704"><ele>334.0</ele><time>2026-04-18T07:57:45.006Z</time></trkpt><trkpt lat="53.3038174" lon="-1.9541802"><ele>336.66666666666663</ele><time>2026-04-18T07:57:46.009Z</time></trkpt><trkpt lat="53.3037534" lon="-1.9542798"><ele>339.3333333333333</ele><time>2026-04-18T07:57:47.01Z</time></trkpt><trkpt lat="53.3036862" lon="-1.9543841"><ele>342.0</ele><time>2026-04-18T07:57:48.01Z</time></trkpt><trkpt lat="53.3036228" lon="-1.954478"><ele>344.6666666666667</ele><time>2026-04-18T07:57:49.011Z</time></trkpt><trkpt lat="53.3035586" lon="-1.9545682"><ele>347.33333333333337</ele><time>2026-04-18T07:57:50.011Z</time></trkpt><trkpt lat="53.3034956" lon="-1.9546579"><ele>350.0</ele><time>2026-04-18T07:57:51.009Z</time></trkpt><trkpt lat="53.3034328" lon="-1.954748"><ele>350.0</ele><time>2026-04-18T07:57:52.01Z</time></trkpt><trkpt lat="53.3033678" lon="-1.9548389"><ele>350.0</ele><time>2026-04-18T07:57:53.013Z</time></trkpt><trkpt lat="53.3033035" lon="-1.9549284"><ele>350.0</ele><time>2026-04-18T07:57:54.012Z</time></trkpt><trkpt lat="53.3032351" lon="-1.9550176"><ele>350.0</ele><time>2026-04-18T07:57:55.012Z</time></trkpt><trkpt lat="53.3031648" lon="-1.955102"><ele>350.0</ele><time>2026-04-18T07:57:56.01Z</time></trkpt><trkpt lat="53.3030935" lon="-1.9551785"><ele>350.0</ele><time>2026-04-18T07:57:57.01Z</time></trkpt><trkpt lat="53.3030179" lon="-1.9552443"><ele>352.4</ele><time>2026-04-18T07:57:58.004Z</time></trkpt><trkpt lat="53.3029355" lon="-1.9553029"><ele>354.8</ele><time>2026-04-18T07:57:59.009Z</time></trkpt><trkpt lat="53.3028454" lon="-1.9553696"><ele>357.20000000000005</ele><time>2026-04-18T07:58:00.009Z</time></trkpt><trkpt lat="53.3027521" lon="-1.9554458"><ele>359.6</ele><time>2026-04-18T07:58:01.011Z</time></trkpt><trkpt lat="53.3026631" lon="-1.9555193"><ele>362.0</ele><time>2026-04-18T07:58:02.012Z</time></trkpt><trkpt lat="53.302576" lon="-1.9555922"><ele>362.0</ele><time>2026-04-18T07:58:03.005Z</time></trkpt><trkpt lat="53.3024909" lon="-1.9556656"><ele>362.0</ele><time>2026-04-18T07:58:04.009Z</time></trkpt><trkpt lat="53.3024129" lon="-1.955729"><ele>362.0</ele><time>2026-04-18T07:58:05.01Z</time></trkpt><trkpt lat="53.3023408" lon="-1.9557793"><ele>362.0</ele><time>2026-04-18T07:58:06.01Z</time></trkpt><trkpt lat="53.3022709" lon="-1.9558156"><ele>362.0</ele><time>2026-04-18T07:58:07.011Z</time></trkpt><trkpt lat="53.3022007" lon="-1.9558438"><ele>362.0</ele><time>2026-04-18T07:58:08.008Z</time></trkpt><trkpt lat="53.3021282" lon="-1.9558815"><ele>362.1666666666667</ele><time>2026-04-18T07:58:09.008Z</time></trkpt><trkpt lat="53.3020592" lon="-1.955951"><ele>362.33333333333337</ele><time>2026-04-18T07:58:10.011Z</time></trkpt><trkpt lat="53.3019921" lon="-1.9560501"><ele>362.5</ele><time>2026-04-18T07:58:11.008Z</time></trkpt><trkpt lat="53.3019322" lon="-1.9561748"><ele>362.6666666666667</ele><time>2026-04-18T07:58:12.006Z</time></trkpt><trkpt lat="53.3018824" lon="-1.9562939"><ele>362.8333333333333</ele><time>2026-04-18T07:58:13.011Z</time></trkpt><trkpt lat="53.3018472" lon="-1.9564199"><ele>363.0</ele><time>2026-04-18T07:58:14.008Z</time></trkpt><trkpt lat="53.3018211" lon="-1.9565422"><ele>363.0</ele><time>2026-04-18T07:58:15.008Z</time></trkpt><trkpt lat="53.3017959" lon="-1.9566564"><ele>363.0</ele><time>2026-04-18T07:58:16.008Z</time></trkpt><trkpt lat="53.3017782" lon="-1.9568437"><ele>363.0</ele><time>2026-04-18T07:58:18.008Z</time></trkpt><trkpt lat="53.3017877" lon="-1.9570087"><ele>363.0</ele><time>2026-04-18T07:58:20.01Z</time></trkpt><trkpt lat="53.3018027" lon="-1.9571857"><ele>363.0</ele><time>2026-04-18T07:58:22.01Z</time></trkpt><trkpt lat="53.3018362" lon="-1.9573875"><ele>366.59999999999997</ele><time>2026-04-18T07:58:24.01Z</time></trkpt><trkpt lat="53.3018378" lon="-1.9575505"><ele>370.2</ele><time>2026-04-18T07:58:26.009Z</time></trkpt><trkpt lat="53.301746" lon="-1.9576887"><ele>373.8</ele><time>2026-04-18T07:58:28.009Z</time></trkpt><trkpt lat="53.3016757" lon="-1.9577571"><ele>377.4</ele><time>2026-04-18T07:58:29.01Z</time></trkpt><trkpt lat="53.3015941" lon="-1.9578255"><ele>381.0</ele><time>2026-04-18T07:58:30.01Z</time></trkpt><trkpt lat="53.3015011" lon="-1.9578866"><ele>380.0</ele><time>2026-04-18T07:58:31.011Z</time></trkpt><trkpt lat="53.3013955" lon="-1.9579382"><ele>379.0</ele><time>2026-04-18T07:58:32.013Z</time></trkpt><trkpt lat="53.3012819" lon="-1.957988"><ele>378.0</ele><time>2026-04-18T07:58:33.015Z</time></trkpt><trkpt lat="53.3011766" lon="-1.9580353"><ele>377.0</ele><time>2026-04-18T07:58:34.013Z</time></trkpt><trkpt lat="53.3010707" lon="-1.9580853"><ele>376.0</ele><time>2026-04-18T07:58:35.013Z</time></trkpt><trkpt lat="53.3009655" lon="-1.9581405"><ele>376.0</ele><time>2026-04-18T07:58:36.002Z</time></trkpt><trkpt lat="53.3008642" lon="-1.9582046"><ele>376.0</ele><time>2026-04-18T07:58:37.012Z</time></trkpt><trkpt lat="53.3007632" lon="-1.9582766"><ele>376.0</ele><time>2026-04-18T07:58:38.013Z</time></trkpt><trkpt lat="53.3006542" lon="-1.9583497"><ele>376.0</ele><time>2026-04-18T07:58:39.014Z</time></trkpt><trkpt lat="53.3005349" lon="-1.9584147"><ele>378.0</ele><time>2026-04-18T07:58:40.015Z</time></trkpt><trkpt lat="53.3004039" lon="-1.9584755"><ele>380.0</ele><time>2026-04-18T07:58:41.009Z</time></trkpt><trkpt lat="53.3002622" lon="-1.9585409"><ele>382.0</ele><time>2026-04-18T07:58:42.011Z</time></trkpt><trkpt lat="53.3001224" lon="-1.9586138"><ele>384.0</ele><time>2026-04-18T07:58:43.014Z</time></trkpt><trkpt lat="53.2999917" lon="-1.9586881"><ele>384.0</ele><time>2026-04-18T07:58:44.012Z</time></trkpt><trkpt lat="53.2998636" lon="-1.9587614"><ele>384.0</ele><time>2026-04-18T07:58:45.012Z</time></trkpt><trkpt lat="53.2997428" lon="-1.9588362"><ele>384.0</ele><time>2026-04-18T07:58:46.013Z</time></trkpt><trkpt lat="53.2996273" lon="-1.9589072"><ele>384.0</ele><time>2026-04-18T07:58:47.012Z</time></trkpt><trkpt lat="53.2995095" lon="-1.9589768"><ele>384.0</ele><time>2026-04-18T07:58:48.013Z</time></trkpt><trkpt lat="53.2993818" lon="-1.9590474"><ele>384.0</ele><time>2026-04-18T07:58:49.011Z</time></trkpt><trkpt lat="53.299253" lon="-1.9591194"><ele>384.0</ele><time>2026-04-18T07:58:50.014Z</time></trkpt><trkpt lat="53.2991217" lon="-1.9591935"><ele>384.0</ele><time>2026-04-18T07:58:51.014Z</time></trkpt><trkpt lat="53.2989875" lon="-1.9592697"><ele>384.0</ele><time>2026-04-18T07:58:52.014Z</time></trkpt><trkpt lat="53.298861" lon="-1.9593417"><ele>384.0</ele><time>2026-04-18T07:58:53.016Z</time></trkpt><trkpt lat="53.298756" lon="-1.9594041"><ele>384.0</ele><time>2026-04-18T07:58:54.013Z</time></trkpt><trkpt lat="53.2986715" lon="-1.9594523"><ele>384.0</ele><time>2026-04-18T07:58:55.014Z</time></trkpt><trkpt lat="53.2986043" lon="-1.9594869"><ele>384.0</ele><time>2026-04-18T07:58:56.013Z</time></trkpt><trkpt lat="53.2985293" lon="-1.9595199"><ele>384.0</ele><time>2026-04-18T07:58:58.011Z</time></trkpt><trkpt lat="53.2984521" lon="-1.9595913"><ele>384.0</ele><time>2026-04-18T07:59:47.01Z</time></trkpt><trkpt lat="53.2983624" lon="-1.9596842"><ele>384.0</ele><time>2026-04-18T07:59:49.011Z</time></trkpt><trkpt lat="53.2982642" lon="-1.9597884"><ele>384.0</ele><time>2026-04-18T07:59:51.011Z</time></trkpt><trkpt lat="53.2981611" lon="-1.9599033"><ele>384.0</ele><time>2026-04-18T07:59:53.006Z</time></trkpt><trkpt lat="53.2981055" lon="-1.9599706"><ele>383.6</ele><time>2026-04-18T07:59:54.009Z</time></trkpt><trkpt lat="53.2980527" lon="-1.960037"><ele>383.2</ele><time>2026-04-18T07:59:55.01Z</time></trkpt><trkpt lat="53.2979647" lon="-1.9601503"><ele>382.8</ele><time>2026-04-18T07:59:57.012Z</time></trkpt><trkpt lat="53.2978831" lon="-1.9602531"><ele>382.40000000000003</ele><time>2026-04-18T07:59:59.009Z</time></trkpt><trkpt lat="53.2978014" lon="-1.9603529"><ele>382.0</ele><time>2026-04-18T08:00:01.011Z</time></trkpt><trkpt lat="53.297729" lon="-1.9604395"><ele>382.0</ele><time>2026-04-18T08:00:03.002Z</time></trkpt><trkpt lat="53.2976716" lon="-1.9605072"><ele>382.0</ele><time>2026-04-18T08:00:05.001Z</time></trkpt><trkpt lat="53.2976192" lon="-1.9605677"><ele>382.0</ele><time>2026-04-18T08:00:07.008Z</time></trkpt><trkpt lat="53.2975348" lon="-1.9606284"><ele>382.0</ele><time>2026-04-18T08:00:10.01Z</time></trkpt><trkpt lat="53.2974558" lon="-1.9606568"><ele>382.0</ele><time>2026-04-18T08:00:13.013Z</time></trkpt><trkpt lat="53.2973659" lon="-1.9606854"><ele>382.0</ele><time>2026-04-18T08:00:16.012Z</time></trkpt><trkpt lat="53.2972737" lon="-1.9607289"><ele>381.5714285714286</ele><time>2026-04-18T08:00:19.018Z</time></trkpt><trkpt lat="53.2972096" lon="-1.960761"><ele>381.1428571428571</ele><time>2026-04-18T08:00:21.013Z</time></trkpt><trkpt lat="53.2971415" lon="-1.9607844"><ele>380.7142857142857</ele><time>2026-04-18T08:00:23.012Z</time></trkpt><trkpt lat="53.29707" lon="-1.9608154"><ele>380.28571428571433</ele><time>2026-04-18T08:00:25.013Z</time></trkpt><trkpt lat="53.2969969" lon="-1.9608529"><ele>379.8571428571429</ele><time>2026-04-18T08:00:27.011Z</time></trkpt><trkpt lat="53.2969287" lon="-1.9608948"><ele>379.42857142857144</ele><time>2026-04-18T08:00:29.015Z</time></trkpt><trkpt lat="53.2968613" lon="-1.9609315"><ele>379.0</ele><time>2026-04-18T08:00:31.003Z</time></trkpt><trkpt lat="53.2967942" lon="-1.9609718"><ele>378.42857142857144</ele><time>2026-04-18T08:00:33.008Z</time></trkpt><trkpt lat="53.2967266" lon="-1.9610035"><ele>377.8571428571429</ele><time>2026-04-18T08:00:35.007Z</time></trkpt><trkpt lat="53.2966607" lon="-1.9610398"><ele>377.28571428571433</ele><time>2026-04-18T08:00:37.011Z</time></trkpt><trkpt lat="53.2965951" lon="-1.9610834"><ele>376.7142857142857</ele><time>2026-04-18T08:00:39.01Z</time></trkpt><trkpt lat="53.2965307" lon="-1.9611336"><ele>376.1428571428571</ele><time>2026-04-18T08:00:41.011Z</time></trkpt><trkpt lat="53.2964644" lon="-1.9611767"><ele>375.5714285714286</ele><time>2026-04-18T08:00:43.016Z</time></trkpt><trkpt lat="53.2963987" lon="-1.9612225"><ele>375.0</ele><time>2026-04-18T08:00:45.013Z</time></trkpt><trkpt lat="53.2963416" lon="-1.961281"><ele>375.0</ele><time>2026-04-18T08:00:47.011Z</time></trkpt><trkpt lat="53.2962703" lon="-1.9613389"><ele>375.0</ele><time>2026-04-18T08:00:50.013Z</time></trkpt><trkpt lat="53.2962155" lon="-1.9614102"><ele>375.0</ele><time>2026-04-18T08:01:15.011Z</time></trkpt><trkpt lat="53.2961489" lon="-1.9614613"><ele>375.0</ele><time>2026-04-18T08:01:17.01Z</time></trkpt><trkpt lat="53.2960602" lon="-1.9615346"><ele>375.0</ele><time>2026-04-18T08:01:19.012Z</time></trkpt><trkpt lat="53.2959964" lon="-1.9615622"><ele>375.0</ele><time>2026-04-18T08:01:20.012Z</time></trkpt><trkpt lat="53.2959138" lon="-1.9615688"><ele>375.0</ele><time>2026-04-18T08:01:21.012Z</time></trkpt><trkpt lat="53.2958128" lon="-1.9615426"><ele>375.0</ele><time>2026-04-18T08:01:22.012Z</time></trkpt><trkpt lat="53.2956993" lon="-1.961499"><ele>375.0</ele><time>2026-04-18T08:01:23.018Z</time></trkpt><trkpt lat="53.2955794" lon="-1.9614686"><ele>375.0</ele><time>2026-04-18T08:01:24.014Z</time></trkpt><trkpt lat="53.295463" lon="-1.9614641"><ele>374.5</ele><time>2026-04-18T08:01:25.016Z</time></trkpt><trkpt lat="53.2953498" lon="-1.9614817"><ele>374.0</ele><time>2026-04-18T08:01:26.019Z</time></trkpt><trkpt lat="53.2952294" lon="-1.9615208"><ele>373.5</ele><time>2026-04-18T08:01:27.015Z</time></trkpt><trkpt lat="53.2951076" lon="-1.9615819"><ele>373.0</ele><time>2026-04-18T08:01:28.014Z</time></trkpt><trkpt lat="53.2949848" lon="-1.9616609"><ele>372.75</ele><time>2026-04-18T08:01:29.016Z</time></trkpt><trkpt lat="53.2948626" lon="-1.9617544"><ele>372.5</ele><time>2026-04-18T08:01:30.016Z</time></trkpt><trkpt lat="53.2947402" lon="-1.9618473"><ele>372.25</ele><time>2026-04-18T08:01:31.013Z</time></trkpt><trkpt lat="53.2946145" lon="-1.9619243"><ele>372.0</ele><time>2026-04-18T08:01:32.015Z</time></trkpt><trkpt lat="53.2944908" lon="-1.9619757"><ele>372.0</ele><time>2026-04-18T08:01:33.017Z</time></trkpt><trkpt lat="53.2943729" lon="-1.9620061"><ele>372.0</ele><time>2026-04-18T08:01:34.007Z</time></trkpt><trkpt lat="53.2942552" lon="-1.9620297"><ele>372.0</ele><time>2026-04-18T08:01:35.014Z</time></trkpt><trkpt lat="53.2941356" lon="-1.9620525"><ele>372.0</ele><time>2026-04-18T08:01:36.012Z</time></trkpt><trkpt lat="53.2940132" lon="-1.9620718"><ele>372.75</ele><time>2026-04-18T08:01:37.014Z</time></trkpt><trkpt lat="53.2938854" lon="-1.9620845"><ele>373.5</ele><time>2026-04-18T08:01:38.014Z</time></trkpt><trkpt lat="53.2937529" lon="-1.962096"><ele>374.25</ele><time>2026-04-18T08:01:39.015Z</time></trkpt><trkpt lat="53.2936177" lon="-1.9621018"><ele>375.0</ele><time>2026-04-18T08:01:40.015Z</time></trkpt><trkpt lat="53.2934812" lon="-1.9620919"><ele>375.0</ele><time>2026-04-18T08:01:41.016Z</time></trkpt><trkpt lat="53.2933529" lon="-1.9620573"><ele>375.0</ele><time>2026-04-18T08:01:42.015Z</time></trkpt><trkpt lat="53.2932431" lon="-1.9619953"><ele>375.0</ele><time>2026-04-18T08:01:43.016Z</time></trkpt><trkpt lat="53.2931491" lon="-1.9619078"><ele>375.0</ele><time>2026-04-18T08:01:44.014Z</time></trkpt><trkpt lat="53.2930691" lon="-1.9617852"><ele>376.75</ele><time>2026-04-18T08:01:45.015Z</time></trkpt><trkpt lat="53.293002" lon="-1.9616326"><ele>378.5</ele><time>2026-04-18T08:01:46.009Z</time></trkpt><trkpt lat="53.2929403" lon="-1.9614592"><ele>380.25</ele><time>2026-04-18T08:01:47.006Z</time></trkpt><trkpt lat="53.2928741" lon="-1.9612769"><ele>382.0</ele><time>2026-04-18T08:01:48.008Z</time></trkpt><trkpt lat="53.2927965" lon="-1.9610958"><ele>382.0</ele><time>2026-04-18T08:01:49.008Z</time></trkpt><trkpt lat="53.2927032" lon="-1.9609304"><ele>382.0</ele><time>2026-04-18T08:01:50.016Z</time></trkpt><trkpt lat="53.2925963" lon="-1.9607765"><ele>382.0</ele><time>2026-04-18T08:01:51.008Z</time></trkpt><trkpt lat="53.2924782" lon="-1.9606345"><ele>382.0</ele><time>2026-04-18T08:01:52.017Z</time></trkpt><trkpt lat="53.2923484" lon="-1.9605116"><ele>383.3333333333333</ele><time>2026-04-18T08:01:53.015Z</time></trkpt><trkpt lat="53.2922133" lon="-1.9603918"><ele>384.66666666666663</ele><time>2026-04-18T08:01:54.015Z</time></trkpt><trkpt lat="53.2920747" lon="-1.9602668"><ele>386.0</ele><time>2026-04-18T08:01:55.018Z</time></trkpt><trkpt lat="53.2919349" lon="-1.9601393"><ele>388.3333333333333</ele><time>2026-04-18T08:01:56.015Z</time></trkpt><trkpt lat="53.2917902" lon="-1.9600067"><ele>390.66666666666663</ele><time>2026-04-18T08:01:57.016Z</time></trkpt><trkpt lat="53.2916433" lon="-1.9598641"><ele>393.0</ele><time>2026-04-18T08:01:58.015Z</time></trkpt><trkpt lat="53.2915054" lon="-1.9597204"><ele>394.0</ele><time>2026-04-18T08:01:59.017Z</time></trkpt><trkpt lat="53.2913882" lon="-1.9595807"><ele>395.0</ele><time>2026-04-18T08:02:00.017Z</time></trkpt><trkpt lat="53.2912951" lon="-1.9594512"><ele>396.0</ele><time>2026-04-18T08:02:01.015Z</time></trkpt><trkpt lat="53.2912222" lon="-1.959345"><ele>397.0</ele><time>2026-04-18T08:02:02.013Z</time></trkpt><trkpt lat="53.291157" lon="-1.9592716"><ele>398.0</ele><time>2026-04-18T08:02:03.016Z</time></trkpt><trkpt lat="53.2910808" lon="-1.9592205"><ele>398.0</ele><time>2026-04-18T08:02:04.014Z</time></trkpt><trkpt lat="53.2909892" lon="-1.95921"><ele>398.0</ele><time>2026-04-18T08:02:05.013Z</time></trkpt><trkpt lat="53.2908795" lon="-1.9591941"><ele>398.0</ele><time>2026-04-18T08:02:06.015Z</time></trkpt><trkpt lat="53.2907703" lon="-1.9591598"><ele>398.0</ele><time>2026-04-18T08:02:07.015Z</time></trkpt><trkpt lat="53.2906724" lon="-1.9590868"><ele>398.0</ele><time>2026-04-18T08:02:08.01Z</time></trkpt><trkpt lat="53.2905894" lon="-1.9589754"><ele>396.0</ele><time>2026-04-18T08:02:09.013Z</time></trkpt><trkpt lat="53.2905144" lon="-1.958839"><ele>394.0</ele><time>2026-04-18T08:02:10.013Z</time></trkpt><trkpt lat="53.2904341" lon="-1.9586873"><ele>392.0</ele><time>2026-04-18T08:02:11.012Z</time></trkpt><trkpt lat="53.2903415" lon="-1.9585238"><ele>390.0</ele><time>2026-04-18T08:02:12.012Z</time></trkpt><trkpt lat="53.2902358" lon="-1.9583531"><ele>387.0</ele><time>2026-04-18T08:02:13.017Z</time></trkpt><trkpt lat="53.2901174" lon="-1.9581835"><ele>384.0</ele><time>2026-04-18T08:02:14.014Z</time></trkpt><trkpt lat="53.2899887" lon="-1.9580141"><ele>381.0</ele><time>2026-04-18T08:02:15.014Z</time></trkpt><trkpt lat="53.2898534" lon="-1.9578483"><ele>381.6666666666667</ele><time>2026-04-18T08:02:16.015Z</time></trkpt><trkpt lat="53.2897152" lon="-1.9576854"><ele>382.33333333333337</ele><time>2026-04-18T08:02:17.015Z</time></trkpt><trkpt lat="53.2895764" lon="-1.9575343"><ele>383.0</ele><time>2026-04-18T08:02:18.016Z</time></trkpt><trkpt lat="53.2894361" lon="-1.9574043"><ele>380.33333333333337</ele><time>2026-04-18T08:02:19.009Z</time></trkpt><trkpt lat="53.2892973" lon="-1.9572863"><ele>377.6666666666667</ele><time>2026-04-18T08:02:20.016Z</time></trkpt><trkpt lat="53.2891638" lon="-1.957176"><ele>375.0</ele><time>2026-04-18T08:02:21.014Z</time></trkpt><trkpt lat="53.2890348" lon="-1.9570572"><ele>374.5</ele><time>2026-04-18T08:02:22.014Z</time></trkpt><trkpt lat="53.2889115" lon="-1.9569269"><ele>374.0</ele><time>2026-04-18T08:02:23.017Z</time></trkpt><trkpt lat="53.2887999" lon="-1.9567799"><ele>373.5</ele><time>2026-04-18T08:02:24.014Z</time></trkpt><trkpt lat="53.2886958" lon="-1.9566174"><ele>373.0</ele><time>2026-04-18T08:02:25.013Z</time></trkpt><trkpt lat="53.2885918" lon="-1.956439"><ele>373.0</ele><time>2026-04-18T08:02:26.015Z</time></trkpt><trkpt lat="53.2884817" lon="-1.956255"><ele>373.0</ele><time>2026-04-18T08:02:27.015Z</time></trkpt><trkpt lat="53.2883711" lon="-1.9560652"><ele>373.0</ele><time>2026-04-18T08:02:28.017Z</time></trkpt><trkpt lat="53.2882619" lon="-1.955868"><ele>373.3333333333333</ele><time>2026-04-18T08:02:29.016Z</time></trkpt><trkpt lat="53.2881551" lon="-1.9556678"><ele>373.6666666666667</ele><time>2026-04-18T08:02:30.017Z</time></trkpt><trkpt lat="53.2880534" lon="-1.9554684"><ele>374.0</ele><time>2026-04-18T08:02:31.011Z</time></trkpt><trkpt lat="53.2879521" lon="-1.9552759"><ele>374.75</ele><time>2026-04-18T08:02:32.013Z</time></trkpt><trkpt lat="53.2878497" lon="-1.9550897"><ele>375.5</ele><time>2026-04-18T08:02:33.018Z</time></trkpt><trkpt lat="53.287743" lon="-1.9549133"><ele>376.25</ele><time>2026-04-18T08:02:34.014Z</time></trkpt><trkpt lat="53.2876303" lon="-1.9547568"><ele>377.0</ele><time>2026-04-18T08:02:35.014Z</time></trkpt><trkpt lat="53.2875158" lon="-1.9546123"><ele>377.6</ele><time>2026-04-18T08:02:36.014Z</time></trkpt><trkpt lat="53.2874152" lon="-1.9544811"><ele>378.20000000000005</ele><time>2026-04-18T08:02:37.014Z</time></trkpt><trkpt lat="53.2873344" lon="-1.9543691"><ele>378.8</ele><time>2026-04-18T08:02:38.015Z</time></trkpt><trkpt lat="53.2872624" lon="-1.9542588"><ele>379.4</ele><time>2026-04-18T08:02:39.013Z</time></trkpt><trkpt lat="53.287183" lon="-1.9541486"><ele>380.0</ele><time>2026-04-18T08:02:40.015Z</time></trkpt><trkpt lat="53.2870877" lon="-1.9540526"><ele>381.75</ele><time>2026-04-18T08:02:41.015Z</time></trkpt><trkpt lat="53.2869765" lon="-1.9539739"><ele>383.5</ele><time>2026-04-18T08:02:42.015Z</time></trkpt><trkpt lat="53.2868502" lon="-1.9539151"><ele>385.25</ele><time>2026-04-18T08:02:43.017Z</time></trkpt><trkpt lat="53.2867115" lon="-1.9538761"><ele>387.0</ele><time>2026-04-18T08:02:44.015Z</time></trkpt><trkpt lat="53.2865651" lon="-1.9538549"><ele>388.66666666666663</ele><time>2026-04-18T08:02:45.015Z</time></trkpt><trkpt lat="53.2864127" lon="-1.9538345"><ele>390.3333333333333</ele><time>2026-04-18T08:02:46.016Z</time></trkpt><trkpt lat="53.2862571" lon="-1.9538038"><ele>392.0</ele><time>2026-04-18T08:02:47.019Z</time></trkpt><trkpt lat="53.2860986" lon="-1.9537584"><ele>392.0</ele><time>2026-04-18T08:02:48.016Z</time></trkpt><trkpt lat="53.2859398" lon="-1.9537016"><ele>392.0</ele><time>2026-04-18T08:02:49.016Z</time></trkpt><trkpt lat="53.2857834" lon="-1.9536348"><ele>392.0</ele><time>2026-04-18T08:02:50.016Z</time></trkpt><trkpt lat="53.2856374" lon="-1.9535634"><ele>394.8</ele><time>2026-04-18T08:02:51.018Z</time></trkpt><trkpt lat="53.2855105" lon="-1.9534915"><ele>397.6</ele><time>2026-04-18T08:02:52.016Z</time></trkpt><trkpt lat="53.285411" lon="-1.9534242"><ele>400.40000000000003</ele><time>2026-04-18T08:02:53.016Z</time></trkpt><trkpt lat="53.2853387" lon="-1.9533725"><ele>403.20000000000005</ele><time>2026-04-18T08:02:54.016Z</time></trkpt><trkpt lat="53.2852354" lon="-1.9532743"><ele>406.0</ele><time>2026-04-18T08:02:56.016Z</time></trkpt><trkpt lat="53.2852071" lon="-1.9531767"><ele>406.20000000000005</ele><time>2026-04-18T08:02:57.015Z</time></trkpt><trkpt lat="53.2851915" lon="-1.9530361"><ele>406.40000000000003</ele><time>2026-04-18T08:02:58.014Z</time></trkpt><trkpt lat="53.2851566" lon="-1.9528682"><ele>406.6</ele><time>2026-04-18T08:02:59.014Z</time></trkpt><trkpt lat="53.285096" lon="-1.9526971"><ele>406.8</ele><time>2026-04-18T08:03:00.01Z</time></trkpt><trkpt lat="53.2850261" lon="-1.952523"><ele>407.0</ele><time>2026-04-18T08:03:01.007Z</time></trkpt><trkpt lat="53.2849436" lon="-1.9523444"><ele>406.5</ele><time>2026-04-18T08:03:02.014Z</time></trkpt><trkpt lat="53.2848486" lon="-1.9521716"><ele>406.0</ele><time>2026-04-18T08:03:03.015Z</time></trkpt><trkpt lat="53.2847446" lon="-1.952008"><ele>405.5</ele><time>2026-04-18T08:03:04.013Z</time></trkpt><trkpt lat="53.2846358" lon="-1.9518609"><ele>405.0</ele><time>2026-04-18T08:03:05.01Z</time></trkpt><trkpt lat="53.2845227" lon="-1.9517287"><ele>408.25</ele><time>2026-04-18T08:03:06.015Z</time></trkpt><trkpt lat="53.2844018" lon="-1.9516038"><ele>411.5</ele><time>2026-04-18T08:03:07.012Z</time></trkpt><trkpt lat="53.2842889" lon="-1.9514859"><ele>414.75</ele><time>2026-04-18T08:03:08.014Z</time></trkpt><trkpt lat="53.2841754" lon="-1.9513622"><ele>418.0</ele><time>2026-04-18T08:03:09.015Z</time></trkpt><trkpt lat="53.2840645" lon="-1.9512315"><ele>418.0</ele><time>2026-04-18T08:03:10.015Z</time></trkpt><trkpt lat="53.28395" lon="-1.9510906"><ele>418.0</ele><time>2026-04-18T08:03:11.013Z</time></trkpt><trkpt lat="53.2838296" lon="-1.9509308"><ele>418.0</ele><time>2026-04-18T08:03:12.014Z</time></trkpt><trkpt lat="53.283702" lon="-1.9507552"><ele>419.33333333333337</ele><time>2026-04-18T08:03:13.016Z</time></trkpt><trkpt lat="53.2835698" lon="-1.9505688"><ele>420.66666666666663</ele><time>2026-04-18T08:03:14.015Z</time></trkpt><trkpt lat="53.2834291" lon="-1.9503693"><ele>422.0</ele><time>2026-04-18T08:03:15.015Z</time></trkpt><trkpt lat="53.28328" lon="-1.9501674"><ele>424.0</ele><time>2026-04-18T08:03:16.015Z</time></trkpt><trkpt lat="53.2831339" lon="-1.9499674"><ele>426.0</ele><time>2026-04-18T08:03:17.016Z</time></trkpt><trkpt lat="53.2829898" lon="-1.949777"><ele>428.0</ele><time>2026-04-18T08:03:18.017Z</time></trkpt><trkpt lat="53.2828579" lon="-1.9495952"><ele>428.5</ele><time>2026-04-18T08:03:19.014Z</time></trkpt><trkpt lat="53.2827409" lon="-1.9494254"><ele>429.0</ele><time>2026-04-18T08:03:20.015Z</time></trkpt><trkpt lat="53.2826307" lon="-1.9492843"><ele>429.5</ele><time>2026-04-18T08:03:21.016Z</time></trkpt><trkpt lat="53.2825217" lon="-1.9491848"><ele>430.0</ele><time>2026-04-18T08:03:22.017Z</time></trkpt><trkpt lat="53.2824078" lon="-1.9491117"><ele>431.75</ele><time>2026-04-18T08:03:23.021Z</time></trkpt><trkpt lat="53.2822804" lon="-1.9490575"><ele>433.5</ele><time>2026-04-18T08:03:24.014Z</time></trkpt><trkpt lat="53.2821346" lon="-1.9489958"><ele>435.25</ele><time>2026-04-18T08:03:25.015Z</time></trkpt><trkpt lat="53.2819753" lon="-1.9489268"><ele>437.0</ele><time>2026-04-18T08:03:26.018Z</time></trkpt><trkpt lat="53.2818105" lon="-1.9488582"><ele>437.0</ele><time>2026-04-18T08:03:27.011Z</time></trkpt><trkpt lat="53.2816498" lon="-1.9487858"><ele>437.0</ele><time>2026-04-18T08:03:28.016Z</time></trkpt><trkpt lat="53.281497" lon="-1.94871"><ele>437.0</ele><time>2026-04-18T08:03:29.014Z</time></trkpt><trkpt lat="53.2813488" lon="-1.948638"><ele>436.25</ele><time>2026-04-18T08:03:30.016Z</time></trkpt><trkpt lat="53.2812033" lon="-1.9485666"><ele>435.5</ele><time>2026-04-18T08:03:31.014Z</time></trkpt><trkpt lat="53.2810629" lon="-1.9484855"><ele>434.75</ele><time>2026-04-18T08:03:32.015Z</time></trkpt><trkpt lat="53.2809282" lon="-1.9483882"><ele>434.0</ele><time>2026-04-18T08:03:33.015Z</time></trkpt><trkpt lat="53.2808" lon="-1.9482704"><ele>435.25</ele><time>2026-04-18T08:03:34.012Z</time></trkpt><trkpt lat="53.2806825" lon="-1.9481274"><ele>436.5</ele><time>2026-04-18T08:03:35.013Z</time></trkpt><trkpt lat="53.2805729" lon="-1.9479635"><ele>437.75</ele><time>2026-04-18T08:03:36.014Z</time></trkpt><trkpt lat="53.2804722" lon="-1.9477859"><ele>439.0</ele><time>2026-04-18T08:03:37.013Z</time></trkpt><trkpt lat="53.2803765" lon="-1.947604"><ele>440.5</ele><time>2026-04-18T08:03:38.015Z</time></trkpt><trkpt lat="53.2802818" lon="-1.9474247"><ele>442.0</ele><time>2026-04-18T08:03:39.005Z</time></trkpt><trkpt lat="53.2801868" lon="-1.9472488"><ele>443.5</ele><time>2026-04-18T08:03:40.014Z</time></trkpt><trkpt lat="53.2800885" lon="-1.9470771"><ele>445.0</ele><time>2026-04-18T08:03:41.011Z</time></trkpt><trkpt lat="53.2799845" lon="-1.9469087"><ele>445.0</ele><time>2026-04-18T08:03:42.014Z</time></trkpt><trkpt lat="53.2798767" lon="-1.9467386"><ele>445.0</ele><time>2026-04-18T08:03:43.014Z</time></trkpt><trkpt lat="53.279766" lon="-1.9465711"><ele>445.0</ele><time>2026-04-18T08:03:44.015Z</time></trkpt><trkpt lat="53.2796601" lon="-1.9464078"><ele>445.0</ele><time>2026-04-18T08:03:45.014Z</time></trkpt><trkpt lat="53.2795627" lon="-1.9462339"><ele>445.75</ele><time>2026-04-18T08:03:46.014Z</time></trkpt><trkpt lat="53.279477" lon="-1.9460323"><ele>446.5</ele><time>2026-04-18T08:03:47.012Z</time></trkpt><trkpt lat="53.2793975" lon="-1.9458194"><ele>447.25</ele><time>2026-04-18T08:03:48.014Z</time></trkpt><trkpt lat="53.2793143" lon="-1.9456181"><ele>448.0</ele><time>2026-04-18T08:03:49.014Z</time></trkpt><trkpt lat="53.279219" lon="-1.9454401"><ele>449.6666666666667</ele><time>2026-04-18T08:03:50.008Z</time></trkpt><trkpt lat="53.2791051" lon="-1.9452944"><ele>451.33333333333337</ele><time>2026-04-18T08:03:51.015Z</time></trkpt><trkpt lat="53.2789736" lon="-1.9451599"><ele>453.0</ele><time>2026-04-18T08:03:52.014Z</time></trkpt><trkpt lat="53.2788386" lon="-1.9450173"><ele>453.0</ele><time>2026-04-18T08:03:53.018Z</time></trkpt><trkpt lat="53.2787075" lon="-1.9448593"><ele>453.0</ele><time>2026-04-18T08:03:54.013Z</time></trkpt><trkpt lat="53.2785795" lon="-1.9446897"><ele>453.0</ele><time>2026-04-18T08:03:55.015Z</time></trkpt><trkpt lat="53.2784516" lon="-1.9445159"><ele>453.0</ele><time>2026-04-18T08:03:56.014Z</time></trkpt><trkpt lat="53.2783152" lon="-1.9443483"><ele>453.0</ele><time>2026-04-18T08:03:57.013Z</time></trkpt><trkpt lat="53.2781822" lon="-1.9441928"><ele>453.0</ele><time>2026-04-18T08:03:58.016Z</time></trkpt><trkpt lat="53.2780624" lon="-1.9440482"><ele>454.0</ele><time>2026-04-18T08:03:59.015Z</time></trkpt><trkpt lat="53.2779618" lon="-1.9439216"><ele>454.99999999999994</ele><time>2026-04-18T08:04:00.015Z</time></trkpt><trkpt lat="53.2778788" lon="-1.9438166"><ele>455.99999999999994</ele><time>2026-04-18T08:04:01.017Z</time></trkpt><trkpt lat="53.2778133" lon="-1.9437353"><ele>457.0</ele><time>2026-04-18T08:04:02.016Z</time></trkpt><trkpt lat="53.2777622" lon="-1.9436721"><ele>458.0</ele><time>2026-04-18T08:04:03.017Z</time></trkpt><trkpt lat="53.2776661" lon="-1.9435846"><ele>458.0</ele><time>2026-04-18T08:04:05.017Z</time></trkpt><trkpt lat="53.2775538" lon="-1.9435474"><ele>457.99999999999994</ele><time>2026-04-18T08:04:07.016Z</time></trkpt><trkpt lat="53.2774445" lon="-1.9434714"><ele>457.99999999999994</ele><time>2026-04-18T08:04:09.018Z</time></trkpt><trkpt lat="53.2773897" lon="-1.9434124"><ele>458.0</ele><time>2026-04-18T08:04:10.018Z</time></trkpt><trkpt lat="53.2773129" lon="-1.9432471"><ele>458.0</ele><time>2026-04-18T08:04:12.014Z</time></trkpt><trkpt lat="53.2772801" lon="-1.9431489"><ele>460.0</ele><time>2026-04-18T08:04:13.02Z</time></trkpt><trkpt lat="53.2772254" lon="-1.9430656"><ele>461.99999999999994</ele><time>2026-04-18T08:04:14.014Z</time></trkpt><trkpt lat="53.2771416" lon="-1.9429973"><ele>463.99999999999994</ele><time>2026-04-18T08:04:15.016Z</time></trkpt><trkpt lat="53.2770364" lon="-1.9429289"><ele>466.0</ele><time>2026-04-18T08:04:16.017Z</time></trkpt><trkpt lat="53.2769078" lon="-1.9428458"><ele>468.0</ele><time>2026-04-18T08:04:17.016Z</time></trkpt><trkpt lat="53.2767687" lon="-1.9427468"><ele>468.0</ele><time>2026-04-18T08:04:18.016Z</time></trkpt><trkpt lat="53.2766274" lon="-1.9426449"><ele>468.0</ele><time>2026-04-18T08:04:19.015Z</time></trkpt><trkpt lat="53.2765044" lon="-1.9425474"><ele>468.0</ele><time>2026-04-18T08:04:20.018Z</time></trkpt><trkpt lat="53.2763939" lon="-1.9424611"><ele>468.0</ele><time>2026-04-18T08:04:21.018Z</time></trkpt><trkpt lat="53.2762989" lon="-1.9423893"><ele>467.2</ele><time>2026-04-18T08:04:22.017Z</time></trkpt><trkpt lat="53.2762134" lon="-1.942328"><ele>466.4</ele><time>2026-04-18T08:04:23.018Z</time></trkpt><trkpt lat="53.2761212" lon="-1.9422626"><ele>465.59999999999997</ele><time>2026-04-18T08:04:24.016Z</time></trkpt><trkpt lat="53.2760201" lon="-1.9421951"><ele>464.79999999999995</ele><time>2026-04-18T08:04:25.018Z</time></trkpt><trkpt lat="53.2758993" lon="-1.9421135"><ele>464.0</ele><time>2026-04-18T08:04:26.019Z</time></trkpt><trkpt lat="53.2757761" lon="-1.9420016"><ele>464.0</ele><time>2026-04-18T08:04:27.017Z</time></trkpt><trkpt lat="53.2756616" lon="-1.9418532"><ele>464.0</ele><time>2026-04-18T08:04:28.019Z</time></trkpt><trkpt lat="53.2755665" lon="-1.9416709"><ele>464.0</ele><time>2026-04-18T08:04:29.02Z</time></trkpt><trkpt lat="53.2754839" lon="-1.9414809"><ele>464.0</ele><time>2026-04-18T08:04:30.018Z</time></trkpt><trkpt lat="53.2754035" lon="-1.9412987"><ele>462.5</ele><time>2026-04-18T08:04:31.011Z</time></trkpt><trkpt lat="53.2753164" lon="-1.9411154"><ele>461.0</ele><time>2026-04-18T08:04:32.019Z</time></trkpt><trkpt lat="53.2752197" lon="-1.9409348"><ele>459.5</ele><time>2026-04-18T08:04:33.021Z</time></trkpt><trkpt lat="53.2751109" lon="-1.9407742"><ele>458.0</ele><time>2026-04-18T08:04:34.017Z</time></trkpt><trkpt lat="53.2749961" lon="-1.9406421"><ele>457.0</ele><time>2026-04-18T08:04:35.018Z</time></trkpt><trkpt lat="53.2748862" lon="-1.9405323"><ele>456.0</ele><time>2026-04-18T08:04:36.021Z</time></trkpt><trkpt lat="53.274784" lon="-1.9404364"><ele>455.0</ele><time>2026-04-18T08:04:37.019Z</time></trkpt><trkpt lat="53.2746927" lon="-1.9403496"><ele>454.0</ele><time>2026-04-18T08:04:38.017Z</time></trkpt><trkpt lat="53.2746085" lon="-1.9402602"><ele>452.5</ele><time>2026-04-18T08:04:39.014Z</time></trkpt><trkpt lat="53.2744442" lon="-1.9400545"><ele>451.0</ele><time>2026-04-18T08:04:41.017Z</time></trkpt><trkpt lat="53.2743579" lon="-1.9399438"><ele>449.5</ele><time>2026-04-18T08:04:42.018Z</time></trkpt><trkpt lat="53.274267" lon="-1.939838"><ele>448.0</ele><time>2026-04-18T08:04:43.021Z</time></trkpt><trkpt lat="53.2741804" lon="-1.9397428"><ele>447.4</ele><time>2026-04-18T08:04:44.018Z</time></trkpt><trkpt lat="53.2740989" lon="-1.939665"><ele>446.79999999999995</ele><time>2026-04-18T08:04:45.017Z</time></trkpt><trkpt lat="53.2740146" lon="-1.9396152"><ele>446.2</ele><time>2026-04-18T08:04:46.016Z</time></trkpt><trkpt lat="53.2739188" lon="-1.9395981"><ele>445.6</ele><time>2026-04-18T08:04:47.016Z</time></trkpt><trkpt lat="53.2738094" lon="-1.9396077"><ele>445.0</ele><time>2026-04-18T08:04:48.016Z</time></trkpt><trkpt lat="53.2736946" lon="-1.9396158"><ele>442.25</ele><time>2026-04-18T08:04:49.016Z</time></trkpt><trkpt lat="53.2735797" lon="-1.9396083"><ele>439.5</ele><time>2026-04-18T08:04:50.015Z</time></trkpt><trkpt lat="53.2734696" lon="-1.939589"><ele>436.75</ele><time>2026-04-18T08:04:51.014Z</time></trkpt><trkpt lat="53.273362" lon="-1.9395424"><ele>434.0</ele><time>2026-04-18T08:04:52.017Z</time></trkpt><trkpt lat="53.2732548" lon="-1.9394699"><ele>434.0</ele><time>2026-04-18T08:04:53.018Z</time></trkpt><trkpt lat="53.2731491" lon="-1.9393745"><ele>434.0</ele><time>2026-04-18T08:04:54.015Z</time></trkpt><trkpt lat="53.2730439" lon="-1.9392702"><ele>434.0</ele><time>2026-04-18T08:04:55.014Z</time></trkpt><trkpt lat="53.2729427" lon="-1.9391704"><ele>434.0</ele><time>2026-04-18T08:04:56.013Z</time></trkpt><trkpt lat="53.2728399" lon="-1.9390788"><ele>431.0</ele><time>2026-04-18T08:04:57.016Z</time></trkpt><trkpt lat="53.2727388" lon="-1.9389976"><ele>428.0</ele><time>2026-04-18T08:04:58.015Z</time></trkpt><trkpt lat="53.272634" lon="-1.9389181"><ele>425.0</ele><time>2026-04-18T08:04:59.014Z</time></trkpt><trkpt lat="53.2725224" lon="-1.9388378"><ele>422.0</ele><time>2026-04-18T08:05:00.016Z</time></trkpt><trkpt lat="53.2724031" lon="-1.9387547"><ele>420.25</ele><time>2026-04-18T08:05:01.005Z</time></trkpt><trkpt lat="53.272273" lon="-1.9386587"><ele>418.5</ele><time>2026-04-18T08:05:02.012Z</time></trkpt><trkpt lat="53.2721355" lon="-1.9385558"><ele>416.75</ele><time>2026-04-18T08:05:03.015Z</time></trkpt><trkpt lat="53.2719937" lon="-1.9384482"><ele>415.0</ele><time>2026-04-18T08:05:04.013Z</time></trkpt><trkpt lat="53.2718509" lon="-1.9383436"><ele>415.0</ele><time>2026-04-18T08:05:05.013Z</time></trkpt><trkpt lat="53.2717106" lon="-1.938249"><ele>415.0</ele><time>2026-04-18T08:05:06.012Z</time></trkpt><trkpt lat="53.271577" lon="-1.9381596"><ele>415.0</ele><time>2026-04-18T08:05:07.014Z</time></trkpt><trkpt lat="53.2714455" lon="-1.9380678"><ele>415.0</ele><time>2026-04-18T08:05:08.013Z</time></trkpt><trkpt lat="53.2713147" lon="-1.9379699"><ele>412.0</ele><time>2026-04-18T08:05:09.014Z</time></trkpt><trkpt lat="53.2711808" lon="-1.93786"><ele>409.0</ele><time>2026-04-18T08:05:10.016Z</time></trkpt><trkpt lat="53.2710383" lon="-1.9377369"><ele>406.0</ele><time>2026-04-18T08:05:11.014Z</time></trkpt><trkpt lat="53.2708884" lon="-1.9376035"><ele>405.6666666666667</ele><time>2026-04-18T08:05:12.013Z</time></trkpt><trkpt lat="53.2707403" lon="-1.9374725"><ele>405.33333333333337</ele><time>2026-04-18T08:05:13.019Z</time></trkpt><trkpt lat="53.2705978" lon="-1.9373512"><ele>405.0</ele><time>2026-04-18T08:05:14.015Z</time></trkpt><trkpt lat="53.270465" lon="-1.937239"><ele>402.25</ele><time>2026-04-18T08:05:15.015Z</time></trkpt><trkpt lat="53.2703444" lon="-1.937135"><ele>399.5</ele><time>2026-04-18T08:05:16.016Z</time></trkpt><trkpt lat="53.2702342" lon="-1.9370369"><ele>396.75</ele><time>2026-04-18T08:05:17.015Z</time></trkpt><trkpt lat="53.2701316" lon="-1.9369432"><ele>394.0</ele><time>2026-04-18T08:05:18.017Z</time></trkpt><trkpt lat="53.2700389" lon="-1.9368587"><ele>394.0</ele><time>2026-04-18T08:05:19.017Z</time></trkpt><trkpt lat="53.2699616" lon="-1.936787"><ele>394.0</ele><time>2026-04-18T08:05:20.015Z</time></trkpt><trkpt lat="53.2699023" lon="-1.9367352"><ele>394.0</ele><time>2026-04-18T08:05:21.007Z</time></trkpt><trkpt lat="53.2698176" lon="-1.936674"><ele>394.0</ele><time>2026-04-18T08:05:23.015Z</time></trkpt><trkpt lat="53.2697188" lon="-1.9365585"><ele>394.0</ele><time>2026-04-18T08:05:25.014Z</time></trkpt><trkpt lat="53.2696547" lon="-1.9364381"><ele>390.5</ele><time>2026-04-18T08:05:26.009Z</time></trkpt><trkpt lat="53.2695702" lon="-1.9362977"><ele>387.0</ele><time>2026-04-18T08:05:27.015Z</time></trkpt><trkpt lat="53.2694625" lon="-1.9361608"><ele>383.5</ele><time>2026-04-18T08:05:28.015Z</time></trkpt><trkpt lat="53.2693417" lon="-1.9360366"><ele>380.0</ele><time>2026-04-18T08:05:29.016Z</time></trkpt><trkpt lat="53.2692148" lon="-1.9359188"><ele>379.0</ele><time>2026-04-18T08:05:30.015Z</time></trkpt><trkpt lat="53.269085" lon="-1.9358031"><ele>378.0</ele><time>2026-04-18T08:05:31.012Z</time></trkpt><trkpt lat="53.2689485" lon="-1.9356852"><ele>377.0</ele><time>2026-04-18T08:05:32.014Z</time></trkpt><trkpt lat="53.2688047" lon="-1.9355577"><ele>377.0</ele><time>2026-04-18T08:05:33.014Z</time></trkpt><trkpt lat="53.2686552" lon="-1.9354179"><ele>377.0</ele><time>2026-04-18T08:05:34.008Z</time></trkpt><trkpt lat="53.2684979" lon="-1.9352658"><ele>377.0</ele><time>2026-04-18T08:05:35.014Z</time></trkpt><trkpt lat="53.268333" lon="-1.9351006"><ele>377.6666666666667</ele><time>2026-04-18T08:05:36.015Z</time></trkpt><trkpt lat="53.2681652" lon="-1.9349183"><ele>378.3333333333333</ele><time>2026-04-18T08:05:37.013Z</time></trkpt><trkpt lat="53.2680015" lon="-1.9347223"><ele>379.0</ele><time>2026-04-18T08:05:38.016Z</time></trkpt><trkpt lat="53.2678498" lon="-1.9345236"><ele>377.66666666666663</ele><time>2026-04-18T08:05:39.013Z</time></trkpt><trkpt lat="53.2677098" lon="-1.9343281"><ele>376.3333333333333</ele><time>2026-04-18T08:05:40.014Z</time></trkpt><trkpt lat="53.2675791" lon="-1.934136"><ele>375.0</ele><time>2026-04-18T08:05:41.013Z</time></trkpt><trkpt lat="53.2674513" lon="-1.9339504"><ele>375.0</ele><time>2026-04-18T08:05:42.011Z</time></trkpt><trkpt lat="53.2673149" lon="-1.9337703"><ele>375.0</ele><time>2026-04-18T08:05:43.012Z</time></trkpt><trkpt lat="53.2671597" lon="-1.9335863"><ele>375.0</ele><time>2026-04-18T08:05:44.013Z</time></trkpt><trkpt lat="53.266982" lon="-1.9333949"><ele>375.0</ele><time>2026-04-18T08:05:45.011Z</time></trkpt><trkpt lat="53.2668022" lon="-1.9332124"><ele>375.0</ele><time>2026-04-18T08:05:46.011Z</time></trkpt><trkpt lat="53.2666346" lon="-1.933041"><ele>375.0</ele><time>2026-04-18T08:05:47.012Z</time></trkpt><trkpt lat="53.2664755" lon="-1.9328768"><ele>376.0</ele><time>2026-04-18T08:05:48.014Z</time></trkpt><trkpt lat="53.2663181" lon="-1.9327107"><ele>377.0</ele><time>2026-04-18T08:05:49.014Z</time></trkpt><trkpt lat="53.266161" lon="-1.932532"><ele>378.0</ele><time>2026-04-18T08:05:50.014Z</time></trkpt><trkpt lat="53.2660019" lon="-1.9323325"><ele>378.0</ele><time>2026-04-18T08:05:51.011Z</time></trkpt><trkpt lat="53.2658377" lon="-1.9321158"><ele>378.0</ele><time>2026-04-18T08:05:52.011Z</time></trkpt><trkpt lat="53.2656644" lon="-1.93188"><ele>378.0</ele><time>2026-04-18T08:05:53.011Z</time></trkpt><trkpt lat="53.2654846" lon="-1.9316338"><ele>377.0</ele><time>2026-04-18T08:05:54.011Z</time></trkpt><trkpt lat="53.2653104" lon="-1.9313979"><ele>376.0</ele><time>2026-04-18T08:05:55.011Z</time></trkpt><trkpt lat="53.265148" lon="-1.9311827"><ele>375.0</ele><time>2026-04-18T08:05:56.01Z</time></trkpt><trkpt lat="53.2649988" lon="-1.9309842"><ele>372.3333333333333</ele><time>2026-04-18T08:05:57.011Z</time></trkpt><trkpt lat="53.2648615" lon="-1.9308017"><ele>369.66666666666663</ele><time>2026-04-18T08:05:58.012Z</time></trkpt><trkpt lat="53.2647284" lon="-1.9306229"><ele>367.0</ele><time>2026-04-18T08:05:59.012Z</time></trkpt><trkpt lat="53.2645952" lon="-1.9304549"><ele>367.0</ele><time>2026-04-18T08:06:00.011Z</time></trkpt><trkpt lat="53.2644642" lon="-1.9302892"><ele>367.0</ele><time>2026-04-18T08:06:01.009Z</time></trkpt><trkpt lat="53.2643347" lon="-1.9301195"><ele>367.0</ele><time>2026-04-18T08:06:02.009Z</time></trkpt><trkpt lat="53.2642041" lon="-1.929942"><ele>367.66666666666663</ele><time>2026-04-18T08:06:03.008Z</time></trkpt><trkpt lat="53.2640734" lon="-1.9297618"><ele>368.3333333333333</ele><time>2026-04-18T08:06:04.009Z</time></trkpt><trkpt lat="53.2639479" lon="-1.9295827"><ele>369.0</ele><time>2026-04-18T08:06:05.011Z</time></trkpt><trkpt lat="53.263833" lon="-1.9294173"><ele>366.0</ele><time>2026-04-18T08:06:06.017Z</time></trkpt><trkpt lat="53.2637266" lon="-1.9292636"><ele>363.0</ele><time>2026-04-18T08:06:07.012Z</time></trkpt><trkpt lat="53.2636286" lon="-1.9291106"><ele>360.0</ele><time>2026-04-18T08:06:08.011Z</time></trkpt><trkpt lat="53.2635324" lon="-1.9289699"><ele>357.0</ele><time>2026-04-18T08:06:09.013Z</time></trkpt><trkpt lat="53.2634441" lon="-1.9288388"><ele>357.0</ele><time>2026-04-18T08:06:10.013Z</time></trkpt><trkpt lat="53.2633746" lon="-1.9287309"><ele>357.0</ele><time>2026-04-18T08:06:11.014Z</time></trkpt><trkpt lat="53.2633259" lon="-1.9286509"><ele>357.0</ele><time>2026-04-18T08:06:12.016Z</time></trkpt><trkpt lat="53.2632702" lon="-1.9285712"><ele>357.0</ele><time>2026-04-18T08:06:14.015Z</time></trkpt><trkpt lat="53.2632102" lon="-1.9284767"><ele>357.0</ele><time>2026-04-18T08:06:51.013Z</time></trkpt><trkpt lat="53.263137" lon="-1.9283752"><ele>357.0</ele><time>2026-04-18T08:06:52.014Z</time></trkpt><trkpt lat="53.2630477" lon="-1.9282459"><ele>355.25</ele><time>2026-04-18T08:06:53.014Z</time></trkpt><trkpt lat="53.2629556" lon="-1.9280967"><ele>353.5</ele><time>2026-04-18T08:06:54.014Z</time></trkpt><trkpt lat="53.2628684" lon="-1.9279302"><ele>351.75</ele><time>2026-04-18T08:06:55.016Z</time></trkpt><trkpt lat="53.2627888" lon="-1.9277436"><ele>350.0</ele><time>2026-04-18T08:06:56.015Z</time></trkpt><trkpt lat="53.2627142" lon="-1.9275617"><ele>350.6</ele><time>2026-04-18T08:06:57.014Z</time></trkpt><trkpt lat="53.2626482" lon="-1.9273887"><ele>351.2</ele><time>2026-04-18T08:06:58.012Z</time></trkpt><trkpt lat="53.2625908" lon="-1.92723"><ele>351.79999999999995</ele><time>2026-04-18T08:06:59.012Z</time></trkpt><trkpt lat="53.2625408" lon="-1.9270778"><ele>352.4</ele><time>2026-04-18T08:07:00.014Z</time></trkpt><trkpt lat="53.2624941" lon="-1.9269239"><ele>353.0</ele><time>2026-04-18T08:07:01.014Z</time></trkpt><trkpt lat="53.2624522" lon="-1.9267586"><ele>353.0</ele><time>2026-04-18T08:07:02.014Z</time></trkpt><trkpt lat="53.2624087" lon="-1.9265782"><ele>353.0</ele><time>2026-04-18T08:07:03.014Z</time></trkpt><trkpt lat="53.2623622" lon="-1.9263865"><ele>353.0</ele><time>2026-04-18T08:07:04.014Z</time></trkpt><trkpt lat="53.2623188" lon="-1.9262016"><ele>353.0</ele><time>2026-04-18T08:07:05.011Z</time></trkpt><trkpt lat="53.2622892" lon="-1.9260396"><ele>351.33333333333337</ele><time>2026-04-18T08:07:06.013Z</time></trkpt><trkpt lat="53.2622728" lon="-1.9259051"><ele>349.6666666666667</ele><time>2026-04-18T08:07:07.014Z</time></trkpt><trkpt lat="53.2622597" lon="-1.9257465"><ele>348.0</ele><time>2026-04-18T08:07:09.009Z</time></trkpt><trkpt lat="53.2621955" lon="-1.9257344"><ele>346.3333333333333</ele><time>2026-04-18T08:11:19.014Z</time></trkpt><trkpt lat="53.2621216" lon="-1.925702"><ele>344.66666666666663</ele><time>2026-04-18T08:11:21.013Z</time></trkpt><trkpt lat="53.2620198" lon="-1.9256536"><ele>343.0</ele><time>2026-04-18T08:11:23.016Z</time></trkpt><trkpt lat="53.2619077" lon="-1.9255836"><ele>342.8333333333333</ele><time>2026-04-18T08:11:25.014Z</time></trkpt><trkpt lat="53.2618477" lon="-1.9255492"><ele>342.66666666666663</ele><time>2026-04-18T08:11:26.013Z</time></trkpt><trkpt lat="53.2617503" lon="-1.9254859"><ele>342.5</ele><time>2026-04-18T08:11:28.012Z</time></trkpt><trkpt lat="53.261667" lon="-1.9255319"><ele>342.3333333333333</ele><time>2026-04-18T08:11:30.014Z</time></trkpt><trkpt lat="53.2616132" lon="-1.9256042"><ele>342.1666666666667</ele><time>2026-04-18T08:11:31.015Z</time></trkpt><trkpt lat="53.2615457" lon="-1.9256957"><ele>342.0</ele><time>2026-04-18T08:11:32.016Z</time></trkpt><trkpt lat="53.261468" lon="-1.9258043"><ele>339.75</ele><time>2026-04-18T08:11:33.018Z</time></trkpt><trkpt lat="53.2613866" lon="-1.9259182"><ele>337.5</ele><time>2026-04-18T08:11:34.014Z</time></trkpt><trkpt lat="53.2612944" lon="-1.9260259"><ele>335.25</ele><time>2026-04-18T08:11:35.016Z</time></trkpt><trkpt lat="53.2611946" lon="-1.9261351"><ele>333.0</ele><time>2026-04-18T08:11:36.016Z</time></trkpt><trkpt lat="53.261094" lon="-1.9262258"><ele>333.0</ele><time>2026-04-18T08:11:37.015Z</time></trkpt><trkpt lat="53.2609807" lon="-1.9263096"><ele>333.0</ele><time>2026-04-18T08:11:38.016Z</time></trkpt><trkpt lat="53.2608537" lon="-1.9263954"><ele>333.0</ele><time>2026-04-18T08:11:39.016Z</time></trkpt><trkpt lat="53.2607221" lon="-1.9264703"><ele>333.0</ele><time>2026-04-18T08:11:40.017Z</time></trkpt><trkpt lat="53.260592" lon="-1.9265388"><ele>331.25</ele><time>2026-04-18T08:11:41.015Z</time></trkpt><trkpt lat="53.2604652" lon="-1.9266045"><ele>329.5</ele><time>2026-04-18T08:11:42.014Z</time></trkpt><trkpt lat="53.2603363" lon="-1.9266593"><ele>327.75</ele><time>2026-04-18T08:11:43.014Z</time></trkpt><trkpt lat="53.2602083" lon="-1.926706"><ele>326.0</ele><time>2026-04-18T08:11:44.014Z</time></trkpt><trkpt lat="53.2600801" lon="-1.9267411"><ele>326.0</ele><time>2026-04-18T08:11:45.015Z</time></trkpt><trkpt lat="53.2599514" lon="-1.9267677"><ele>326.0</ele><time>2026-04-18T08:11:46.01Z</time></trkpt><trkpt lat="53.2598217" lon="-1.9267881"><ele>326.0</ele><time>2026-04-18T08:11:47.015Z</time></trkpt><trkpt lat="53.259694" lon="-1.9268054"><ele>326.0</ele><time>2026-04-18T08:11:48.019Z</time></trkpt><trkpt lat="53.2595688" lon="-1.9268108"><ele>325.0</ele><time>2026-04-18T08:11:49.016Z</time></trkpt><trkpt lat="53.259448" lon="-1.9268109"><ele>324.0</ele><time>2026-04-18T08:11:50.008Z</time></trkpt><trkpt lat="53.25933" lon="-1.9268043"><ele>323.0</ele><time>2026-04-18T08:11:51.015Z</time></trkpt><trkpt lat="53.2592207" lon="-1.926792"><ele>322.0</ele><time>2026-04-18T08:11:52.016Z</time></trkpt><trkpt lat="53.2591275" lon="-1.9267762"><ele>321.0</ele><time>2026-04-18T08:11:53.017Z</time></trkpt><trkpt lat="53.2590453" lon="-1.9267584"><ele>321.0</ele><time>2026-04-18T08:11:54.015Z</time></trkpt><trkpt lat="53.2589752" lon="-1.926742"><ele>321.0</ele><time>2026-04-18T08:11:55.014Z</time></trkpt><trkpt lat="53.2588705" lon="-1.9267179"><ele>321.0</ele><time>2026-04-18T08:11:57.016Z</time></trkpt><trkpt lat="53.25879" lon="-1.9268076"><ele>321.0</ele><time>2026-04-18T08:11:59.014Z</time></trkpt><trkpt lat="53.2587678" lon="-1.9269146"><ele>321.0</ele><time>2026-04-18T08:12:00.016Z</time></trkpt><trkpt lat="53.2587621" lon="-1.9270699"><ele>321.0</ele><time>2026-04-18T08:12:01.017Z</time></trkpt><trkpt lat="53.2587779" lon="-1.9272567"><ele>319.25</ele><time>2026-04-18T08:12:02.016Z</time></trkpt><trkpt lat="53.2588045" lon="-1.9274728"><ele>317.5</ele><time>2026-04-18T08:12:03.015Z</time></trkpt><trkpt lat="53.2588231" lon="-1.92769"><ele>315.75</ele><time>2026-04-18T08:12:04.017Z</time></trkpt><trkpt lat="53.2588442" lon="-1.9279103"><ele>314.0</ele><time>2026-04-18T08:12:05.016Z</time></trkpt><trkpt lat="53.2588622" lon="-1.9281028"><ele>314.0</ele><time>2026-04-18T08:12:06.017Z</time></trkpt><trkpt lat="53.25888" lon="-1.9282652"><ele>314.0</ele><time>2026-04-18T08:12:07.015Z</time></trkpt><trkpt lat="53.2588922" lon="-1.9284165"><ele>314.0</ele><time>2026-04-18T08:12:08.014Z</time></trkpt><trkpt lat="53.258902" lon="-1.9285584"><ele>314.0</ele><time>2026-04-18T08:12:09.013Z</time></trkpt><trkpt lat="53.2589143" lon="-1.9287066"><ele>314.0</ele><time>2026-04-18T08:12:10.014Z</time></trkpt><trkpt lat="53.2589279" lon="-1.9288346"><ele>314.0</ele><time>2026-04-18T08:12:11.008Z</time></trkpt><trkpt lat="53.2589433" lon="-1.9289657"><ele>313.8</ele><time>2026-04-18T08:12:13.016Z</time></trkpt><trkpt lat="53.25892" lon="-1.9291128"><ele>313.59999999999997</ele><time>2026-04-18T08:12:16.015Z</time></trkpt><trkpt lat="53.2588572" lon="-1.9292643"><ele>313.4</ele><time>2026-04-18T08:12:18.015Z</time></trkpt><trkpt lat="53.258786" lon="-1.9293973"><ele>313.2</ele><time>2026-04-18T08:12:20.015Z</time></trkpt><trkpt lat="53.2587006" lon="-1.9295086"><ele>313.0</ele><time>2026-04-18T08:12:22.014Z</time></trkpt><trkpt lat="53.2585769" lon="-1.9295692"><ele>312.8</ele><time>2026-04-18T08:12:24.013Z</time></trkpt><trkpt lat="53.2585032" lon="-1.9295537"><ele>312.6</ele><time>2026-04-18T08:12:25.006Z</time></trkpt><trkpt lat="53.2584186" lon="-1.929514"><ele>312.4</ele><time>2026-04-18T08:12:26.012Z</time></trkpt><trkpt lat="53.2583235" lon="-1.9294652"><ele>312.2</ele><time>2026-04-18T08:12:27.014Z</time></trkpt><trkpt lat="53.258216" lon="-1.9294198"><ele>312.0</ele><time>2026-04-18T08:12:28.016Z</time></trkpt><trkpt lat="53.2580976" lon="-1.9293772"><ele>311.6</ele><time>2026-04-18T08:12:29.014Z</time></trkpt><trkpt lat="53.2579711" lon="-1.929338"><ele>311.2</ele><time>2026-04-18T08:12:30.016Z</time></trkpt><trkpt lat="53.257852" lon="-1.929304"><ele>310.8</ele><time>2026-04-18T08:12:31.015Z</time></trkpt><trkpt lat="53.2577527" lon="-1.9292797"><ele>310.4</ele><time>2026-04-18T08:12:32.014Z</time></trkpt><trkpt lat="53.2576768" lon="-1.9292606"><ele>310.0</ele><time>2026-04-18T08:12:33.017Z</time></trkpt><trkpt lat="53.2576034" lon="-1.9292415"><ele>310.0</ele><time>2026-04-18T08:12:35.014Z</time></trkpt><trkpt lat="53.2575405" lon="-1.9292458"><ele>310.0</ele><time>2026-04-18T08:12:47.013Z</time></trkpt><trkpt lat="53.2574767" lon="-1.9292407"><ele>310.0</ele><time>2026-04-18T08:12:57.015Z</time></trkpt><trkpt lat="53.2573978" lon="-1.9292235"><ele>310.0</ele><time>2026-04-18T08:12:59.013Z</time></trkpt><trkpt lat="53.2573006" lon="-1.9292156"><ele>310.0</ele><time>2026-04-18T08:13:01.013Z</time></trkpt><trkpt lat="53.2571682" lon="-1.929146"><ele>310.0</ele><time>2026-04-18T08:13:03.016Z</time></trkpt><trkpt lat="53.2570854" lon="-1.9290966"><ele>310.75</ele><time>2026-04-18T08:13:04.015Z</time></trkpt><trkpt lat="53.2569826" lon="-1.9290465"><ele>311.5</ele><time>2026-04-18T08:13:05.015Z</time></trkpt><trkpt lat="53.2568659" lon="-1.9290122"><ele>312.25</ele><time>2026-04-18T08:13:06.016Z</time></trkpt><trkpt lat="53.2567509" lon="-1.9289878"><ele>313.0</ele><time>2026-04-18T08:13:07.015Z</time></trkpt><trkpt lat="53.2566422" lon="-1.9289506"><ele>313.0</ele><time>2026-04-18T08:13:08.016Z</time></trkpt><trkpt lat="53.2565558" lon="-1.9289026"><ele>313.0</ele><time>2026-04-18T08:13:09.014Z</time></trkpt><trkpt lat="53.2564837" lon="-1.9288441"><ele>313.0</ele><time>2026-04-18T08:13:10.018Z</time></trkpt><trkpt lat="53.2564113" lon="-1.9287903"><ele>313.0</ele><time>2026-04-18T08:13:11.014Z</time></trkpt><trkpt lat="53.2563324" lon="-1.9287722"><ele>313.0</ele><time>2026-04-18T08:13:12.017Z</time></trkpt><trkpt lat="53.25626" lon="-1.9287767"><ele>313.0</ele><time>2026-04-18T08:13:13.022Z</time></trkpt><trkpt lat="53.256181" lon="-1.9287973"><ele>313.2</ele><time>2026-04-18T08:13:15.013Z</time></trkpt><trkpt lat="53.2560961" lon="-1.9288868"><ele>313.4</ele><time>2026-04-18T08:13:26.018Z</time></trkpt><trkpt lat="53.2560249" lon="-1.9289712"><ele>313.59999999999997</ele><time>2026-04-18T08:13:27.016Z</time></trkpt><trkpt lat="53.2559654" lon="-1.9290875"><ele>313.8</ele><time>2026-04-18T08:13:28.015Z</time></trkpt><trkpt lat="53.2559078" lon="-1.9292369"><ele>314.0</ele><time>2026-04-18T08:13:29.014Z</time></trkpt><trkpt lat="53.2558505" lon="-1.9294344"><ele>314.0</ele><time>2026-04-18T08:13:30.018Z</time></trkpt><trkpt lat="53.2557731" lon="-1.929659"><ele>314.0</ele><time>2026-04-18T08:13:31.016Z</time></trkpt><trkpt lat="53.2557038" lon="-1.9298723"><ele>314.0</ele><time>2026-04-18T08:13:32.009Z</time></trkpt><trkpt lat="53.2556434" lon="-1.9300637"><ele>314.0</ele><time>2026-04-18T08:13:33.018Z</time></trkpt><trkpt lat="53.2555854" lon="-1.9302374"><ele>315.5</ele><time>2026-04-18T08:13:34.017Z</time></trkpt><trkpt lat="53.2555308" lon="-1.9304216"><ele>317.0</ele><time>2026-04-18T08:13:35.015Z</time></trkpt><trkpt lat="53.2554678" lon="-1.9306081"><ele>318.5</ele><time>2026-04-18T08:13:36.016Z</time></trkpt><trkpt lat="53.2554046" lon="-1.9308084"><ele>320.0</ele><time>2026-04-18T08:13:37.017Z</time></trkpt><trkpt lat="53.2553378" lon="-1.9310193"><ele>320.5</ele><time>2026-04-18T08:13:38.018Z</time></trkpt><trkpt lat="53.2552706" lon="-1.9312341"><ele>321.0</ele><time>2026-04-18T08:13:39.018Z</time></trkpt><trkpt lat="53.2552029" lon="-1.9314421"><ele>321.5</ele><time>2026-04-18T08:13:40.018Z</time></trkpt><trkpt lat="53.2551354" lon="-1.9316421"><ele>322.0</ele><time>2026-04-18T08:13:41.016Z</time></trkpt><trkpt lat="53.2550686" lon="-1.9318346"><ele>322.25</ele><time>2026-04-18T08:13:42.018Z</time></trkpt><trkpt lat="53.255005" lon="-1.9320198"><ele>322.5</ele><time>2026-04-18T08:13:43.019Z</time></trkpt><trkpt lat="53.2549416" lon="-1.9322075"><ele>322.75</ele><time>2026-04-18T08:13:44.016Z</time></trkpt><trkpt lat="53.2548769" lon="-1.9323865"><ele>323.0</ele><time>2026-04-18T08:13:45.017Z</time></trkpt><trkpt lat="53.2548052" lon="-1.9325577"><ele>324.75</ele><time>2026-04-18T08:13:46.016Z</time></trkpt><trkpt lat="53.2547225" lon="-1.9327211"><ele>326.5</ele><time>2026-04-18T08:13:47.015Z</time></trkpt><trkpt lat="53.2546289" lon="-1.9328761"><ele>328.25</ele><time>2026-04-18T08:13:48.016Z</time></trkpt><trkpt lat="53.254521" lon="-1.9330152"><ele>330.0</ele><time>2026-04-18T08:13:49.014Z</time></trkpt><trkpt lat="53.2544095" lon="-1.9331538"><ele>330.0</ele><time>2026-04-18T08:13:50.016Z</time></trkpt><trkpt lat="53.2542946" lon="-1.9332891"><ele>330.0</ele><time>2026-04-18T08:13:51.015Z</time></trkpt><trkpt lat="53.2541852" lon="-1.93342"><ele>330.0</ele><time>2026-04-18T08:13:52.017Z</time></trkpt><trkpt lat="53.25408" lon="-1.9335486"><ele>330.0</ele><time>2026-04-18T08:13:53.023Z</time></trkpt><trkpt lat="53.253977" lon="-1.9336755"><ele>330.2</ele><time>2026-04-18T08:13:54.018Z</time></trkpt><trkpt lat="53.2538834" lon="-1.9337976"><ele>330.4</ele><time>2026-04-18T08:13:55.016Z</time></trkpt><trkpt lat="53.2537982" lon="-1.9339145"><ele>330.6</ele><time>2026-04-18T08:13:56.021Z</time></trkpt><trkpt lat="53.2537173" lon="-1.934029"><ele>330.8</ele><time>2026-04-18T08:13:57.016Z</time></trkpt><trkpt lat="53.2536387" lon="-1.9341474"><ele>331.0</ele><time>2026-04-18T08:13:58.018Z</time></trkpt><trkpt lat="53.2535584" lon="-1.9342714"><ele>331.0</ele><time>2026-04-18T08:13:59.017Z</time></trkpt><trkpt lat="53.2534761" lon="-1.9343917"><ele>331.0</ele><time>2026-04-18T08:14:00.018Z</time></trkpt><trkpt lat="53.2533931" lon="-1.9345076"><ele>331.0</ele><time>2026-04-18T08:14:01.017Z</time></trkpt><trkpt lat="53.2533095" lon="-1.9346173"><ele>331.0</ele><time>2026-04-18T08:14:02.018Z</time></trkpt><trkpt lat="53.2532306" lon="-1.9347188"><ele>331.0</ele><time>2026-04-18T08:14:03.019Z</time></trkpt><trkpt lat="53.2531651" lon="-1.934809"><ele>332.16666666666663</ele><time>2026-04-18T08:14:04.019Z</time></trkpt><trkpt lat="53.2531109" lon="-1.934884"><ele>333.3333333333333</ele><time>2026-04-18T08:14:05.021Z</time></trkpt><trkpt lat="53.2530355" lon="-1.9349983"><ele>334.5</ele><time>2026-04-18T08:14:07.02Z</time></trkpt><trkpt lat="53.2529916" lon="-1.9350787"><ele>335.6666666666667</ele><time>2026-04-18T08:14:10.021Z</time></trkpt><trkpt lat="53.2529311" lon="-1.9351924"><ele>336.83333333333337</ele><time>2026-04-18T08:14:30.017Z</time></trkpt><trkpt lat="53.252833" lon="-1.9353076"><ele>338.0</ele><time>2026-04-18T08:14:32.019Z</time></trkpt><trkpt lat="53.2527352" lon="-1.9354176"><ele>338.0</ele><time>2026-04-18T08:14:34.013Z</time></trkpt><trkpt lat="53.2526806" lon="-1.9354881"><ele>338.0</ele><time>2026-04-18T08:14:35.017Z</time></trkpt><trkpt lat="53.2526223" lon="-1.9355623"><ele>338.0</ele><time>2026-04-18T08:14:36.023Z</time></trkpt><trkpt lat="53.2525294" lon="-1.9356784"><ele>338.0</ele><time>2026-04-18T08:14:38.021Z</time></trkpt><trkpt lat="53.2524301" lon="-1.9357924"><ele>338.0</ele><time>2026-04-18T08:14:40.017Z</time></trkpt><trkpt lat="53.252363" lon="-1.9358579"><ele>339.0</ele><time>2026-04-18T08:14:41.017Z</time></trkpt><trkpt lat="53.2522864" lon="-1.9359525"><ele>340.0</ele><time>2026-04-18T08:14:42.016Z</time></trkpt><trkpt lat="53.2522014" lon="-1.9360597"><ele>341.0</ele><time>2026-04-18T08:14:43.02Z</time></trkpt><trkpt lat="53.2521114" lon="-1.9361738"><ele>342.0</ele><time>2026-04-18T08:14:44.018Z</time></trkpt><trkpt lat="53.2520181" lon="-1.9362951"><ele>343.0</ele><time>2026-04-18T08:14:45.017Z</time></trkpt><trkpt lat="53.2519164" lon="-1.9364233"><ele>343.0</ele><time>2026-04-18T08:14:46.021Z</time></trkpt><trkpt lat="53.2518081" lon="-1.9365555"><ele>343.0</ele><time>2026-04-18T08:14:47.021Z</time></trkpt><trkpt lat="53.2516972" lon="-1.9366895"><ele>343.0</ele><time>2026-04-18T08:14:48.022Z</time></trkpt><trkpt lat="53.2515837" lon="-1.9368285"><ele>343.0</ele><time>2026-04-18T08:14:49.021Z</time></trkpt><trkpt lat="53.2514696" lon="-1.936972"><ele>344.25</ele><time>2026-04-18T08:14:50.019Z</time></trkpt><trkpt lat="53.2513553" lon="-1.9371191"><ele>345.5</ele><time>2026-04-18T08:14:51.017Z</time></trkpt><trkpt lat="53.2512463" lon="-1.9372545"><ele>346.75</ele><time>2026-04-18T08:14:52.023Z</time></trkpt><trkpt lat="53.2511405" lon="-1.937383"><ele>348.0</ele><time>2026-04-18T08:14:53.02Z</time></trkpt><trkpt lat="53.2510325" lon="-1.9375247"><ele>346.3333333333333</ele><time>2026-04-18T08:14:54.017Z</time></trkpt><trkpt lat="53.2509099" lon="-1.9376753"><ele>344.66666666666663</ele><time>2026-04-18T08:14:55.019Z</time></trkpt><trkpt lat="53.2507719" lon="-1.9378457"><ele>343.0</ele><time>2026-04-18T08:14:56.019Z</time></trkpt><trkpt lat="53.2506348" lon="-1.9380036"><ele>342.25</ele><time>2026-04-18T08:14:57.021Z</time></trkpt><trkpt lat="53.2505163" lon="-1.9381382"><ele>341.5</ele><time>2026-04-18T08:14:58.02Z</time></trkpt><trkpt lat="53.2504104" lon="-1.93825"><ele>340.75</ele><time>2026-04-18T08:14:59.018Z</time></trkpt><trkpt lat="53.2503084" lon="-1.9383529"><ele>340.0</ele><time>2026-04-18T08:15:00.021Z</time></trkpt><trkpt lat="53.2501973" lon="-1.938439"><ele>340.0</ele><time>2026-04-18T08:15:01.017Z</time></trkpt><trkpt lat="53.2500726" lon="-1.9385329"><ele>340.0</ele><time>2026-04-18T08:15:02.021Z</time></trkpt><trkpt lat="53.2499298" lon="-1.938632"><ele>340.0</ele><time>2026-04-18T08:15:03.017Z</time></trkpt><trkpt lat="53.2497689" lon="-1.9387226"><ele>343.3333333333333</ele><time>2026-04-18T08:15:04.019Z</time></trkpt><trkpt lat="53.2495918" lon="-1.9387913"><ele>346.6666666666667</ele><time>2026-04-18T08:15:05.016Z</time></trkpt><trkpt lat="53.2494104" lon="-1.9388391"><ele>350.0</ele><time>2026-04-18T08:15:06.018Z</time></trkpt><trkpt lat="53.2492371" lon="-1.9388744"><ele>350.0</ele><time>2026-04-18T08:15:07.016Z</time></trkpt><trkpt lat="53.249071" lon="-1.9389136"><ele>350.0</ele><time>2026-04-18T08:15:08.018Z</time></trkpt><trkpt lat="53.2489062" lon="-1.9389507"><ele>350.0</ele><time>2026-04-18T08:15:09.021Z</time></trkpt><trkpt lat="53.2487469" lon="-1.9389818"><ele>351.6666666666667</ele><time>2026-04-18T08:15:10.022Z</time></trkpt><trkpt lat="53.2485831" lon="-1.9390044"><ele>353.3333333333333</ele><time>2026-04-18T08:15:11.01Z</time></trkpt><trkpt lat="53.2484082" lon="-1.939012"><ele>355.0</ele><time>2026-04-18T08:15:12.017Z</time></trkpt><trkpt lat="53.2482276" lon="-1.9389983"><ele>356.0</ele><time>2026-04-18T08:15:13.021Z</time></trkpt><trkpt lat="53.2480435" lon="-1.9389746"><ele>357.0</ele><time>2026-04-18T08:15:14.019Z</time></trkpt><trkpt lat="53.2478699" lon="-1.9389512"><ele>358.0</ele><time>2026-04-18T08:15:15.017Z</time></trkpt><trkpt lat="53.2477181" lon="-1.9389378"><ele>358.0</ele><time>2026-04-18T08:15:16.019Z</time></trkpt><trkpt lat="53.2475951" lon="-1.9389459"><ele>358.0</ele><time>2026-04-18T08:15:17.018Z</time></trkpt><trkpt lat="53.2475162" lon="-1.9389572"><ele>358.0</ele><time>2026-04-18T08:15:18.017Z</time></trkpt><trkpt lat="53.2474545" lon="-1.9389083"><ele>358.0</ele><time>2026-04-18T08:15:20.018Z</time></trkpt><trkpt lat="53.2474318" lon="-1.9387744"><ele>358.0</ele><time>2026-04-18T08:15:22.016Z</time></trkpt><trkpt lat="53.2473693" lon="-1.9387215"><ele>358.0</ele><time>2026-04-18T08:17:39.016Z</time></trkpt><trkpt lat="53.2473426" lon="-1.9388206"><ele>358.0</ele><time>2026-04-18T08:17:47.012Z</time></trkpt><trkpt lat="53.2472834" lon="-1.9388765"><ele>358.0</ele><time>2026-04-18T08:17:55.02Z</time></trkpt><trkpt lat="53.2473225" lon="-1.938755"><ele>358.0</ele><time>2026-04-18T08:19:56.011Z</time></trkpt><trkpt lat="53.2473889" lon="-1.938691"><ele>358.0</ele><time>2026-04-18T08:20:01.015Z</time></trkpt><trkpt lat="53.2474411" lon="-1.9386142"><ele>358.0</ele><time>2026-04-18T08:20:18.02Z</time></trkpt><trkpt lat="53.2473747" lon="-1.9386297"><ele>358.0</ele><time>2026-04-18T08:21:28.015Z</time></trkpt><trkpt lat="53.2473077" lon="-1.9387279"><ele>358.0</ele><time>2026-04-18T08:26:31.019Z</time></trkpt><trkpt lat="53.2472902" lon="-1.938896"><ele>358.0</ele><time>2026-04-18T08:26:33.014Z</time></trkpt><trkpt lat="53.2472893" lon="-1.9390062"><ele>358.0</ele><time>2026-04-18T08:26:47.021Z</time></trkpt><trkpt lat="53.2474166" lon="-1.9390392"><ele>358.0</ele><time>2026-04-18T08:26:49.019Z</time></trkpt><trkpt lat="53.2475096" lon="-1.9390258"><ele>358.0</ele><time>2026-04-18T08:26:50.022Z</time></trkpt><trkpt lat="53.2476119" lon="-1.9390175"><ele>358.0</ele><time>2026-04-18T08:26:51.024Z</time></trkpt><trkpt lat="53.247721" lon="-1.9390112"><ele>358.0</ele><time>2026-04-18T08:26:52.025Z</time></trkpt><trkpt lat="53.2478435" lon="-1.9390087"><ele>358.0</ele><time>2026-04-18T08:26:53.021Z</time></trkpt><trkpt lat="53.2479728" lon="-1.9390136"><ele>358.0</ele><time>2026-04-18T08:26:54.021Z</time></trkpt><trkpt lat="53.2481044" lon="-1.9390233"><ele>357.25</ele><time>2026-04-18T08:26:55.02Z</time></trkpt><trkpt lat="53.2482408" lon="-1.9390408"><ele>356.5</ele><time>2026-04-18T08:26:56.021Z</time></trkpt><trkpt lat="53.2483834" lon="-1.9390641"><ele>355.75</ele><time>2026-04-18T08:26:57.018Z</time></trkpt><trkpt lat="53.248533" lon="-1.9390856"><ele>355.0</ele><time>2026-04-18T08:26:58.02Z</time></trkpt><trkpt lat="53.2486823" lon="-1.9390936"><ele>355.0</ele><time>2026-04-18T08:26:59.021Z</time></trkpt><trkpt lat="53.2488283" lon="-1.9390809"><ele>355.0</ele><time>2026-04-18T08:27:00.022Z</time></trkpt><trkpt lat="53.2489709" lon="-1.9390561"><ele>355.0</ele><time>2026-04-18T08:27:01.022Z</time></trkpt><trkpt lat="53.2491129" lon="-1.9390141"><ele>355.0</ele><time>2026-04-18T08:27:02.022Z</time></trkpt><trkpt lat="53.2492568" lon="-1.9389674"><ele>353.3333333333333</ele><time>2026-04-18T08:27:03.023Z</time></trkpt><trkpt lat="53.2494019" lon="-1.9389169"><ele>351.6666666666667</ele><time>2026-04-18T08:27:04.022Z</time></trkpt><trkpt lat="53.249551" lon="-1.9388669"><ele>350.0</ele><time>2026-04-18T08:27:05.021Z</time></trkpt><trkpt lat="53.2497003" lon="-1.9388209"><ele>346.6666666666667</ele><time>2026-04-18T08:27:06.026Z</time></trkpt><trkpt lat="53.2498496" lon="-1.938768"><ele>343.3333333333333</ele><time>2026-04-18T08:27:07.02Z</time></trkpt><trkpt lat="53.2499958" lon="-1.9387028"><ele>340.0</ele><time>2026-04-18T08:27:08.021Z</time></trkpt><trkpt lat="53.2501385" lon="-1.9386215"><ele>340.0</ele><time>2026-04-18T08:27:09.02Z</time></trkpt><trkpt lat="53.2502745" lon="-1.9385214"><ele>340.0</ele><time>2026-04-18T08:27:10.024Z</time></trkpt><trkpt lat="53.2504028" lon="-1.9384045"><ele>340.0</ele><time>2026-04-18T08:27:11.02Z</time></trkpt><trkpt lat="53.2505229" lon="-1.9382831"><ele>340.0</ele><time>2026-04-18T08:27:12.018Z</time></trkpt><trkpt lat="53.2506321" lon="-1.9381601"><ele>340.75</ele><time>2026-04-18T08:27:13.022Z</time></trkpt><trkpt lat="53.2507327" lon="-1.9380369"><ele>341.5</ele><time>2026-04-18T08:27:14.021Z</time></trkpt><trkpt lat="53.2508276" lon="-1.937915"><ele>342.25</ele><time>2026-04-18T08:27:15.023Z</time></trkpt><trkpt lat="53.2509188" lon="-1.9377942"><ele>343.0</ele><time>2026-04-18T08:27:16.021Z</time></trkpt><trkpt lat="53.2510085" lon="-1.9376733"><ele>344.25</ele><time>2026-04-18T08:27:17.02Z</time></trkpt><trkpt lat="53.2510997" lon="-1.9375477"><ele>345.5</ele><time>2026-04-18T08:27:18.02Z</time></trkpt><trkpt lat="53.2511928" lon="-1.9374266"><ele>346.75</ele><time>2026-04-18T08:27:19.019Z</time></trkpt><trkpt lat="53.2512827" lon="-1.9373129"><ele>348.0</ele><time>2026-04-18T08:27:20.021Z</time></trkpt><trkpt lat="53.2513647" lon="-1.9372061"><ele>348.0</ele><time>2026-04-18T08:27:21.017Z</time></trkpt><trkpt lat="53.2514415" lon="-1.9371053"><ele>348.0</ele><time>2026-04-18T08:27:22.021Z</time></trkpt><trkpt lat="53.2515114" lon="-1.9370079"><ele>348.0</ele><time>2026-04-18T08:27:23.019Z</time></trkpt><trkpt lat="53.2515762" lon="-1.9369145"><ele>348.0</ele><time>2026-04-18T08:27:24.02Z</time></trkpt><trkpt lat="53.2516424" lon="-1.9368287"><ele>348.0</ele><time>2026-04-18T08:27:25.017Z</time></trkpt><trkpt lat="53.2517068" lon="-1.9367517"><ele>348.0</ele><time>2026-04-18T08:27:26.017Z</time></trkpt><trkpt lat="53.2517621" lon="-1.9366848"><ele>347.1666666666667</ele><time>2026-04-18T08:27:27.016Z</time></trkpt><trkpt lat="53.2518415" lon="-1.9365924"><ele>346.3333333333333</ele><time>2026-04-18T08:27:29.02Z</time></trkpt><trkpt lat="53.2518933" lon="-1.9365273"><ele>345.5</ele><time>2026-04-18T08:27:36.015Z</time></trkpt><trkpt lat="53.2519624" lon="-1.9364303"><ele>344.66666666666663</ele><time>2026-04-18T08:27:39.022Z</time></trkpt><trkpt lat="53.2520513" lon="-1.9363254"><ele>343.8333333333333</ele><time>2026-04-18T08:27:41.017Z</time></trkpt><trkpt lat="53.2521076" lon="-1.9362604"><ele>343.0</ele><time>2026-04-18T08:27:42.018Z</time></trkpt><trkpt lat="53.2521676" lon="-1.9361982"><ele>343.0</ele><time>2026-04-18T08:27:43.02Z</time></trkpt><trkpt lat="53.2522741" lon="-1.9361611"><ele>343.0</ele><time>2026-04-18T08:27:45.02Z</time></trkpt><trkpt lat="53.2523328" lon="-1.9362863"><ele>343.0</ele><time>2026-04-18T08:27:47.017Z</time></trkpt><trkpt lat="53.2523274" lon="-1.9363997"><ele>343.0</ele><time>2026-04-18T08:27:48.019Z</time></trkpt><trkpt lat="53.252291" lon="-1.9365215"><ele>343.0</ele><time>2026-04-18T08:27:49.019Z</time></trkpt><trkpt lat="53.2522308" lon="-1.9366585"><ele>341.75</ele><time>2026-04-18T08:27:50.014Z</time></trkpt><trkpt lat="53.2521569" lon="-1.9368127"><ele>340.5</ele><time>2026-04-18T08:27:51.02Z</time></trkpt><trkpt lat="53.2520883" lon="-1.9369777"><ele>339.25</ele><time>2026-04-18T08:27:52.02Z</time></trkpt><trkpt lat="53.2520146" lon="-1.9371523"><ele>338.0</ele><time>2026-04-18T08:27:53.02Z</time></trkpt><trkpt lat="53.2519361" lon="-1.9373312"><ele>338.0</ele><time>2026-04-18T08:27:54.019Z</time></trkpt><trkpt lat="53.2518568" lon="-1.9375115"><ele>338.0</ele><time>2026-04-18T08:27:55.019Z</time></trkpt><trkpt lat="53.2517783" lon="-1.9376932"><ele>338.0</ele><time>2026-04-18T08:27:56.018Z</time></trkpt><trkpt lat="53.2516917" lon="-1.9378745"><ele>338.0</ele><time>2026-04-18T08:27:57.014Z</time></trkpt><trkpt lat="53.251612" lon="-1.9380642"><ele>337.25</ele><time>2026-04-18T08:27:58.02Z</time></trkpt><trkpt lat="53.2515342" lon="-1.938254"><ele>336.5</ele><time>2026-04-18T08:27:59.018Z</time></trkpt><trkpt lat="53.2514559" lon="-1.9384401"><ele>335.75</ele><time>2026-04-18T08:28:00.019Z</time></trkpt><trkpt lat="53.2513764" lon="-1.938623"><ele>335.0</ele><time>2026-04-18T08:28:01.021Z</time></trkpt><trkpt lat="53.2512993" lon="-1.9388015"><ele>335.0</ele><time>2026-04-18T08:28:02.019Z</time></trkpt><trkpt lat="53.2512291" lon="-1.9389719"><ele>335.0</ele><time>2026-04-18T08:28:03.023Z</time></trkpt><trkpt lat="53.2511656" lon="-1.939138"><ele>335.0</ele><time>2026-04-18T08:28:04.022Z</time></trkpt><trkpt lat="53.251107" lon="-1.939311"><ele>335.0</ele><time>2026-04-18T08:28:05.021Z</time></trkpt><trkpt lat="53.251049" lon="-1.9394833"><ele>335.0</ele><time>2026-04-18T08:28:06.022Z</time></trkpt><trkpt lat="53.2509853" lon="-1.939673"><ele>335.0</ele><time>2026-04-18T08:28:07.021Z</time></trkpt><trkpt lat="53.25092" lon="-1.9398666"><ele>335.0</ele><time>2026-04-18T08:28:08.021Z</time></trkpt><trkpt lat="53.2508544" lon="-1.940072"><ele>335.0</ele><time>2026-04-18T08:28:09.019Z</time></trkpt><trkpt lat="53.2507969" lon="-1.940289"><ele>336.0</ele><time>2026-04-18T08:28:10.021Z</time></trkpt><trkpt lat="53.2507519" lon="-1.9405074"><ele>337.0</ele><time>2026-04-18T08:28:11.011Z</time></trkpt><trkpt lat="53.2507171" lon="-1.9407227"><ele>338.0</ele><time>2026-04-18T08:28:12.019Z</time></trkpt><trkpt lat="53.2506797" lon="-1.9409294"><ele>339.0</ele><time>2026-04-18T08:28:13.021Z</time></trkpt><trkpt lat="53.2506336" lon="-1.9411318"><ele>340.25</ele><time>2026-04-18T08:28:14.02Z</time></trkpt><trkpt lat="53.2505768" lon="-1.9413342"><ele>341.5</ele><time>2026-04-18T08:28:15.018Z</time></trkpt><trkpt lat="53.2505131" lon="-1.9415417"><ele>342.75</ele><time>2026-04-18T08:28:16.019Z</time></trkpt><trkpt lat="53.2504478" lon="-1.9417553"><ele>344.0</ele><time>2026-04-18T08:28:17.019Z</time></trkpt><trkpt lat="53.2503825" lon="-1.9419747"><ele>345.0</ele><time>2026-04-18T08:28:18.02Z</time></trkpt><trkpt lat="53.2503163" lon="-1.9421981"><ele>346.0</ele><time>2026-04-18T08:28:19.02Z</time></trkpt><trkpt lat="53.2502475" lon="-1.9424235"><ele>347.0</ele><time>2026-04-18T08:28:20.021Z</time></trkpt><trkpt lat="53.250175" lon="-1.9426486"><ele>348.0</ele><time>2026-04-18T08:28:21.021Z</time></trkpt><trkpt lat="53.2500995" lon="-1.9428748"><ele>349.0</ele><time>2026-04-18T08:28:22.022Z</time></trkpt><trkpt lat="53.250024" lon="-1.9431034"><ele>350.0</ele><time>2026-04-18T08:28:23.024Z</time></trkpt><trkpt lat="53.2499558" lon="-1.9433179"><ele>351.25</ele><time>2026-04-18T08:28:24.019Z</time></trkpt><trkpt lat="53.2498988" lon="-1.9435053"><ele>352.5</ele><time>2026-04-18T08:28:25.021Z</time></trkpt><trkpt lat="53.2498495" lon="-1.9436723"><ele>353.75</ele><time>2026-04-18T08:28:26.021Z</time></trkpt><trkpt lat="53.2498035" lon="-1.9438362"><ele>355.0</ele><time>2026-04-18T08:28:27.019Z</time></trkpt><trkpt lat="53.2497565" lon="-1.9440148"><ele>355.0</ele><time>2026-04-18T08:28:28.02Z</time></trkpt><trkpt lat="53.2497062" lon="-1.9442128"><ele>355.0</ele><time>2026-04-18T08:28:29.021Z</time></trkpt><trkpt lat="53.2496456" lon="-1.9444279"><ele>355.0</ele><time>2026-04-18T08:28:30.022Z</time></trkpt><trkpt lat="53.2495797" lon="-1.9446566"><ele>355.0</ele><time>2026-04-18T08:28:31.022Z</time></trkpt><trkpt lat="53.2495133" lon="-1.9448929"><ele>358.0</ele><time>2026-04-18T08:28:32.022Z</time></trkpt><trkpt lat="53.2494509" lon="-1.9451271"><ele>361.0</ele><time>2026-04-18T08:28:33.027Z</time></trkpt><trkpt lat="53.2493908" lon="-1.9453533"><ele>364.0</ele><time>2026-04-18T08:28:34.025Z</time></trkpt><trkpt lat="53.2493333" lon="-1.9455784"><ele>367.0</ele><time>2026-04-18T08:28:35.024Z</time></trkpt><trkpt lat="53.2492726" lon="-1.9458031"><ele>368.75</ele><time>2026-04-18T08:28:36.025Z</time></trkpt><trkpt lat="53.2492074" lon="-1.9460233"><ele>370.5</ele><time>2026-04-18T08:28:37.026Z</time></trkpt><trkpt lat="53.2491396" lon="-1.9462318"><ele>372.25</ele><time>2026-04-18T08:28:38.026Z</time></trkpt><trkpt lat="53.2490761" lon="-1.9464271"><ele>374.0</ele><time>2026-04-18T08:28:39.023Z</time></trkpt><trkpt lat="53.2490224" lon="-1.9465939"><ele>374.33333333333337</ele><time>2026-04-18T08:28:40.024Z</time></trkpt><trkpt lat="53.2489791" lon="-1.9467343"><ele>374.6666666666667</ele><time>2026-04-18T08:28:41.022Z</time></trkpt><trkpt lat="53.2489414" lon="-1.9468608"><ele>375.0</ele><time>2026-04-18T08:28:42.02Z</time></trkpt><trkpt lat="53.2489052" lon="-1.9469837"><ele>375.3333333333333</ele><time>2026-04-18T08:28:43.022Z</time></trkpt><trkpt lat="53.2488698" lon="-1.9471018"><ele>375.66666666666663</ele><time>2026-04-18T08:28:44.02Z</time></trkpt><trkpt lat="53.2488368" lon="-1.9472264"><ele>376.0</ele><time>2026-04-18T08:28:45.02Z</time></trkpt><trkpt lat="53.2488061" lon="-1.947367"><ele>376.0</ele><time>2026-04-18T08:28:46.022Z</time></trkpt><trkpt lat="53.2487739" lon="-1.9475233"><ele>376.0</ele><time>2026-04-18T08:28:47.02Z</time></trkpt><trkpt lat="53.2487314" lon="-1.9476897"><ele>376.0</ele><time>2026-04-18T08:28:48.021Z</time></trkpt><trkpt lat="53.2486797" lon="-1.9478627"><ele>376.0</ele><time>2026-04-18T08:28:49.021Z</time></trkpt><trkpt lat="53.248624" lon="-1.9480454"><ele>376.0</ele><time>2026-04-18T08:28:50.023Z</time></trkpt><trkpt lat="53.2485662" lon="-1.9482313"><ele>380.0</ele><time>2026-04-18T08:28:51.02Z</time></trkpt><trkpt lat="53.2485081" lon="-1.9484188"><ele>384.0</ele><time>2026-04-18T08:28:52.021Z</time></trkpt><trkpt lat="53.248452" lon="-1.9485992"><ele>388.0</ele><time>2026-04-18T08:28:53.021Z</time></trkpt><trkpt lat="53.2483909" lon="-1.948763"><ele>392.0</ele><time>2026-04-18T08:28:54.02Z</time></trkpt><trkpt lat="53.248321" lon="-1.9489006"><ele>391.99999999999994</ele><time>2026-04-18T08:28:55.021Z</time></trkpt><trkpt lat="53.2482448" lon="-1.9489978"><ele>392.0</ele><time>2026-04-18T08:28:56.021Z</time></trkpt><trkpt lat="53.2481689" lon="-1.9490503"><ele>392.0</ele><time>2026-04-18T08:28:57.018Z</time></trkpt><trkpt lat="53.2480951" lon="-1.949087"><ele>392.0</ele><time>2026-04-18T08:28:58.021Z</time></trkpt><trkpt lat="53.248032" lon="-1.9491422"><ele>391.99999999999994</ele><time>2026-04-18T08:28:59.021Z</time></trkpt><trkpt lat="53.2479823" lon="-1.9492298"><ele>392.0</ele><time>2026-04-18T08:29:00.022Z</time></trkpt><trkpt lat="53.2479436" lon="-1.9493484"><ele>394.40000000000003</ele><time>2026-04-18T08:29:01.023Z</time></trkpt><trkpt lat="53.2479062" lon="-1.9494818"><ele>396.8</ele><time>2026-04-18T08:29:02.022Z</time></trkpt><trkpt lat="53.2478581" lon="-1.9496091"><ele>399.2</ele><time>2026-04-18T08:29:03.02Z</time></trkpt><trkpt lat="53.2477892" lon="-1.9497118"><ele>401.6</ele><time>2026-04-18T08:29:04.02Z</time></trkpt><trkpt lat="53.2477025" lon="-1.9497873"><ele>404.0</ele><time>2026-04-18T08:29:05.02Z</time></trkpt><trkpt lat="53.247603" lon="-1.9498571"><ele>404.0</ele><time>2026-04-18T08:29:06.021Z</time></trkpt><trkpt lat="53.2475031" lon="-1.9499427"><ele>404.0</ele><time>2026-04-18T08:29:07.02Z</time></trkpt><trkpt lat="53.2474082" lon="-1.9500496"><ele>404.0</ele><time>2026-04-18T08:29:08.019Z</time></trkpt><trkpt lat="53.24732" lon="-1.950169"><ele>404.0</ele><time>2026-04-18T08:29:09.019Z</time></trkpt><trkpt lat="53.247236" lon="-1.9502932"><ele>403.2</ele><time>2026-04-18T08:29:10.022Z</time></trkpt><trkpt lat="53.2471541" lon="-1.9504162"><ele>402.4</ele><time>2026-04-18T08:29:11.015Z</time></trkpt><trkpt lat="53.2470745" lon="-1.9505348"><ele>401.6</ele><time>2026-04-18T08:29:12.017Z</time></trkpt><trkpt lat="53.2469995" lon="-1.950648"><ele>400.8</ele><time>2026-04-18T08:29:13.012Z</time></trkpt><trkpt lat="53.2469305" lon="-1.9507488"><ele>400.0</ele><time>2026-04-18T08:29:14.019Z</time></trkpt><trkpt lat="53.2468719" lon="-1.9508399"><ele>401.50000000000006</ele><time>2026-04-18T08:29:15.019Z</time></trkpt><trkpt lat="53.2468277" lon="-1.950919"><ele>403.0</ele><time>2026-04-18T08:29:16.019Z</time></trkpt><trkpt lat="53.2467785" lon="-1.9510368"><ele>404.5</ele><time>2026-04-18T08:29:18.018Z</time></trkpt><trkpt lat="53.2467436" lon="-1.9511911"><ele>406.0</ele><time>2026-04-18T08:29:20.02Z</time></trkpt><trkpt lat="53.2467175" lon="-1.9512951"><ele>407.50000000000006</ele><time>2026-04-18T08:29:21.019Z</time></trkpt><trkpt lat="53.2466882" lon="-1.9514132"><ele>409.0</ele><time>2026-04-18T08:29:22.02Z</time></trkpt><trkpt lat="53.2466562" lon="-1.9515297"><ele>409.0</ele><time>2026-04-18T08:29:23.018Z</time></trkpt><trkpt lat="53.2466211" lon="-1.9516397"><ele>409.0</ele><time>2026-04-18T08:29:24.018Z</time></trkpt><trkpt lat="53.2465928" lon="-1.951743"><ele>409.0</ele><time>2026-04-18T08:29:25.021Z</time></trkpt><trkpt lat="53.2465694" lon="-1.9518478"><ele>409.0</ele><time>2026-04-18T08:29:26.019Z</time></trkpt><trkpt lat="53.246553" lon="-1.9519539"><ele>409.0</ele><time>2026-04-18T08:29:27.014Z</time></trkpt><trkpt lat="53.2465462" lon="-1.952066"><ele>409.0</ele><time>2026-04-18T08:29:28.017Z</time></trkpt><trkpt lat="53.2465467" lon="-1.9521791"><ele>409.0</ele><time>2026-04-18T08:29:29.019Z</time></trkpt><trkpt lat="53.2465528" lon="-1.9523157"><ele>410.6</ele><time>2026-04-18T08:29:30.021Z</time></trkpt><trkpt lat="53.2465605" lon="-1.9524715"><ele>412.2</ele><time>2026-04-18T08:29:31.023Z</time></trkpt><trkpt lat="53.2465725" lon="-1.9526355"><ele>413.8</ele><time>2026-04-18T08:29:32.021Z</time></trkpt><trkpt lat="53.2465851" lon="-1.9528002"><ele>415.40000000000003</ele><time>2026-04-18T08:29:33.024Z</time></trkpt><trkpt lat="53.2465927" lon="-1.9529499"><ele>417.0</ele><time>2026-04-18T08:29:34.023Z</time></trkpt><trkpt lat="53.2466017" lon="-1.9530836"><ele>417.8333333333333</ele><time>2026-04-18T08:29:35.021Z</time></trkpt><trkpt lat="53.2466113" lon="-1.9532091"><ele>418.66666666666663</ele><time>2026-04-18T08:29:36.022Z</time></trkpt><trkpt lat="53.2466211" lon="-1.9533379"><ele>419.5</ele><time>2026-04-18T08:29:37.021Z</time></trkpt><trkpt lat="53.2466276" lon="-1.9534758"><ele>420.3333333333333</ele><time>2026-04-18T08:29:38.022Z</time></trkpt><trkpt lat="53.2466327" lon="-1.9536081"><ele>421.16666666666663</ele><time>2026-04-18T08:29:39.023Z</time></trkpt><trkpt lat="53.2466447" lon="-1.9537354"><ele>422.0</ele><time>2026-04-18T08:29:40.022Z</time></trkpt><trkpt lat="53.2466635" lon="-1.9538674"><ele>423.0</ele><time>2026-04-18T08:29:41.021Z</time></trkpt><trkpt lat="53.2466833" lon="-1.9540046"><ele>424.0</ele><time>2026-04-18T08:29:42.023Z</time></trkpt><trkpt lat="53.2466996" lon="-1.9541441"><ele>425.00000000000006</ele><time>2026-04-18T08:29:43.023Z</time></trkpt><trkpt lat="53.2467053" lon="-1.9542914"><ele>426.0</ele><time>2026-04-18T08:29:44.023Z</time></trkpt><trkpt lat="53.2466963" lon="-1.954444"><ele>427.0</ele><time>2026-04-18T08:29:45.022Z</time></trkpt><trkpt lat="53.2466811" lon="-1.9546093"><ele>428.20000000000005</ele><time>2026-04-18T08:29:46.023Z</time></trkpt><trkpt lat="53.2466673" lon="-1.9547881"><ele>429.40000000000003</ele><time>2026-04-18T08:29:47.021Z</time></trkpt><trkpt lat="53.2466506" lon="-1.9549672"><ele>430.59999999999997</ele><time>2026-04-18T08:29:48.022Z</time></trkpt><trkpt lat="53.2466339" lon="-1.9551411"><ele>431.79999999999995</ele><time>2026-04-18T08:29:49.021Z</time></trkpt><trkpt lat="53.246615" lon="-1.9553023"><ele>433.0</ele><time>2026-04-18T08:29:50.023Z</time></trkpt><trkpt lat="53.2465949" lon="-1.9554507"><ele>434.4</ele><time>2026-04-18T08:29:51.024Z</time></trkpt><trkpt lat="53.2465745" lon="-1.955588"><ele>435.79999999999995</ele><time>2026-04-18T08:29:52.018Z</time></trkpt><trkpt lat="53.2465506" lon="-1.9557065"><ele>437.2</ele><time>2026-04-18T08:29:53.027Z</time></trkpt><trkpt lat="53.2465001" lon="-1.9558515"><ele>438.6</ele><time>2026-04-18T08:29:55.026Z</time></trkpt><trkpt lat="53.2464784" lon="-1.9559981"><ele>440.0</ele><time>2026-04-18T08:29:57.019Z</time></trkpt><trkpt lat="53.2464524" lon="-1.9561732"><ele>442.2</ele><time>2026-04-18T08:29:59.024Z</time></trkpt><trkpt lat="53.2464495" lon="-1.9563526"><ele>444.4</ele><time>2026-04-18T08:30:01.019Z</time></trkpt><trkpt lat="53.2464679" lon="-1.9564861"><ele>446.6</ele><time>2026-04-18T08:30:03.021Z</time></trkpt><trkpt lat="53.2464848" lon="-1.9566489"><ele>448.8</ele><time>2026-04-18T08:30:05.016Z</time></trkpt><trkpt lat="53.2465148" lon="-1.9568196"><ele>451.0</ele><time>2026-04-18T08:30:07.014Z</time></trkpt><trkpt lat="53.246556" lon="-1.9569681"><ele>452.4</ele><time>2026-04-18T08:30:09.017Z</time></trkpt><trkpt lat="53.2466102" lon="-1.9570851"><ele>453.8</ele><time>2026-04-18T08:30:11.017Z</time></trkpt><trkpt lat="53.2466749" lon="-1.957266"><ele>455.19999999999993</ele><time>2026-04-18T08:30:13.023Z</time></trkpt><trkpt lat="53.2467187" lon="-1.9573775"><ele>456.59999999999997</ele><time>2026-04-18T08:30:14.02Z</time></trkpt><trkpt lat="53.246767" lon="-1.9574884"><ele>458.0</ele><time>2026-04-18T08:30:15.019Z</time></trkpt><trkpt lat="53.2468127" lon="-1.9575908"><ele>459.1428571428571</ele><time>2026-04-18T08:30:16.016Z</time></trkpt><trkpt lat="53.246853" lon="-1.9576912"><ele>460.28571428571433</ele><time>2026-04-18T08:30:17.021Z</time></trkpt><trkpt lat="53.2468895" lon="-1.9577954"><ele>461.42857142857144</ele><time>2026-04-18T08:30:18.019Z</time></trkpt><trkpt lat="53.2469248" lon="-1.9579085"><ele>462.57142857142856</ele><time>2026-04-18T08:30:19.021Z</time></trkpt><trkpt lat="53.2469543" lon="-1.9580287"><ele>463.71428571428567</ele><time>2026-04-18T08:30:20.022Z</time></trkpt><trkpt lat="53.2469715" lon="-1.9581492"><ele>464.8571428571429</ele><time>2026-04-18T08:30:21.02Z</time></trkpt><trkpt lat="53.2469757" lon="-1.9582751"><ele>466.0</ele><time>2026-04-18T08:30:22.029Z</time></trkpt><trkpt lat="53.2469723" lon="-1.9584081"><ele>467.0</ele><time>2026-04-18T08:30:23.028Z</time></trkpt><trkpt lat="53.246967" lon="-1.9585539"><ele>468.0</ele><time>2026-04-18T08:30:24.027Z</time></trkpt><trkpt lat="53.2469547" lon="-1.958709"><ele>469.0</ele><time>2026-04-18T08:30:25.023Z</time></trkpt><trkpt lat="53.2469356" lon="-1.9588751"><ele>470.0</ele><time>2026-04-18T08:30:26.022Z</time></trkpt><trkpt lat="53.2469132" lon="-1.9590514"><ele>471.0</ele><time>2026-04-18T08:30:27.021Z</time></trkpt><trkpt lat="53.2468958" lon="-1.959229"><ele>471.8</ele><time>2026-04-18T08:30:28.022Z</time></trkpt><trkpt lat="53.2468807" lon="-1.9594036"><ele>472.6</ele><time>2026-04-18T08:30:29.021Z</time></trkpt><trkpt lat="53.2468625" lon="-1.9595701"><ele>473.4</ele><time>2026-04-18T08:30:30.021Z</time></trkpt><trkpt lat="53.2468415" lon="-1.959732"><ele>474.2</ele><time>2026-04-18T08:30:31.018Z</time></trkpt><trkpt lat="53.2468181" lon="-1.9598909"><ele>475.0</ele><time>2026-04-18T08:30:32.019Z</time></trkpt><trkpt lat="53.2467958" lon="-1.960044"><ele>475.6</ele><time>2026-04-18T08:30:33.023Z</time></trkpt><trkpt lat="53.2467765" lon="-1.9601855"><ele>476.2</ele><time>2026-04-18T08:30:34.018Z</time></trkpt><trkpt lat="53.2467556" lon="-1.9603116"><ele>476.79999999999995</ele><time>2026-04-18T08:30:35.017Z</time></trkpt><trkpt lat="53.2467284" lon="-1.9604147"><ele>477.4</ele><time>2026-04-18T08:30:36.018Z</time></trkpt><trkpt lat="53.2466633" lon="-1.9605688"><ele>478.0</ele><time>2026-04-18T08:30:38.012Z</time></trkpt><trkpt lat="53.2466087" lon="-1.9607466"><ele>478.0</ele><time>2026-04-18T08:30:40.019Z</time></trkpt><trkpt lat="53.2465846" lon="-1.9608573"><ele>477.99999999999994</ele><time>2026-04-18T08:30:41.022Z</time></trkpt><trkpt lat="53.246553" lon="-1.9609589"><ele>477.99999999999994</ele><time>2026-04-18T08:30:42.021Z</time></trkpt><trkpt lat="53.246472" lon="-1.9610887"><ele>478.0</ele><time>2026-04-18T08:30:44.022Z</time></trkpt><trkpt lat="53.2463735" lon="-1.9612186"><ele>478.0</ele><time>2026-04-18T08:30:46.021Z</time></trkpt><trkpt lat="53.2463113" lon="-1.9613269"><ele>477.25</ele><time>2026-04-18T08:30:47.023Z</time></trkpt><trkpt lat="53.246235" lon="-1.9614624"><ele>476.5</ele><time>2026-04-18T08:30:48.024Z</time></trkpt><trkpt lat="53.2461533" lon="-1.9616083"><ele>475.75</ele><time>2026-04-18T08:30:49.025Z</time></trkpt><trkpt lat="53.2460649" lon="-1.9617603"><ele>475.0</ele><time>2026-04-18T08:30:50.024Z</time></trkpt><trkpt lat="53.2459729" lon="-1.9619099"><ele>474.0</ele><time>2026-04-18T08:30:51.025Z</time></trkpt><trkpt lat="53.2458777" lon="-1.9620755"><ele>473.0</ele><time>2026-04-18T08:30:52.027Z</time></trkpt><trkpt lat="53.2457835" lon="-1.9622485"><ele>472.0</ele><time>2026-04-18T08:30:53.03Z</time></trkpt><trkpt lat="53.2456954" lon="-1.9624251"><ele>471.0</ele><time>2026-04-18T08:30:54.027Z</time></trkpt><trkpt lat="53.2456203" lon="-1.9626035"><ele>471.0</ele><time>2026-04-18T08:30:55.024Z</time></trkpt><trkpt lat="53.2455567" lon="-1.9627809"><ele>471.0</ele><time>2026-04-18T08:30:56.021Z</time></trkpt><trkpt lat="53.2455051" lon="-1.9629517"><ele>471.0</ele><time>2026-04-18T08:30:57.022Z</time></trkpt><trkpt lat="53.2454585" lon="-1.9631229"><ele>471.0</ele><time>2026-04-18T08:30:58.017Z</time></trkpt><trkpt lat="53.2454168" lon="-1.9632982"><ele>470.6</ele><time>2026-04-18T08:30:59.015Z</time></trkpt><trkpt lat="53.2453844" lon="-1.9634761"><ele>470.20000000000005</ele><time>2026-04-18T08:31:00.013Z</time></trkpt><trkpt lat="53.2453654" lon="-1.9636494"><ele>469.79999999999995</ele><time>2026-04-18T08:31:01.013Z</time></trkpt><trkpt lat="53.2453532" lon="-1.9638275"><ele>469.4</ele><time>2026-04-18T08:31:02.021Z</time></trkpt><trkpt lat="53.2453358" lon="-1.9640163"><ele>469.0</ele><time>2026-04-18T08:31:03.018Z</time></trkpt><trkpt lat="53.245313" lon="-1.9642054"><ele>468.0</ele><time>2026-04-18T08:31:04.021Z</time></trkpt><trkpt lat="53.2452785" lon="-1.9643985"><ele>467.0</ele><time>2026-04-18T08:31:05.022Z</time></trkpt><trkpt lat="53.245231" lon="-1.964592"><ele>466.0</ele><time>2026-04-18T08:31:06.019Z</time></trkpt><trkpt lat="53.2451718" lon="-1.9647863"><ele>465.0</ele><time>2026-04-18T08:31:07.015Z</time></trkpt><trkpt lat="53.2451073" lon="-1.9649612"><ele>463.0</ele><time>2026-04-18T08:31:08.017Z</time></trkpt><trkpt lat="53.2450371" lon="-1.965126"><ele>461.0</ele><time>2026-04-18T08:31:09.023Z</time></trkpt><trkpt lat="53.2449638" lon="-1.9652781"><ele>459.0</ele><time>2026-04-18T08:31:10.026Z</time></trkpt><trkpt lat="53.2448903" lon="-1.9654234"><ele>457.0</ele><time>2026-04-18T08:31:11.024Z</time></trkpt><trkpt lat="53.2448178" lon="-1.9655644"><ele>458.0</ele><time>2026-04-18T08:31:12.024Z</time></trkpt><trkpt lat="53.2447407" lon="-1.9657107"><ele>459.0</ele><time>2026-04-18T08:31:13.034Z</time></trkpt><trkpt lat="53.2446571" lon="-1.9658479"><ele>460.0</ele><time>2026-04-18T08:31:14.026Z</time></trkpt><trkpt lat="53.2445667" lon="-1.9659771"><ele>461.0</ele><time>2026-04-18T08:31:15.025Z</time></trkpt><trkpt lat="53.2444737" lon="-1.9660938"><ele>458.5</ele><time>2026-04-18T08:31:16.026Z</time></trkpt><trkpt lat="53.2443723" lon="-1.9662119"><ele>456.0</ele><time>2026-04-18T08:31:17.028Z</time></trkpt><trkpt lat="53.2442633" lon="-1.9663361"><ele>453.5</ele><time>2026-04-18T08:31:18.024Z</time></trkpt><trkpt lat="53.244151" lon="-1.9664748"><ele>451.0</ele><time>2026-04-18T08:31:19.028Z</time></trkpt><trkpt lat="53.2440381" lon="-1.9666249"><ele>450.0</ele><time>2026-04-18T08:31:20.028Z</time></trkpt><trkpt lat="53.24393" lon="-1.9667753"><ele>449.0</ele><time>2026-04-18T08:31:21.027Z</time></trkpt><trkpt lat="53.2438249" lon="-1.9669206"><ele>448.0</ele><time>2026-04-18T08:31:22.028Z</time></trkpt><trkpt lat="53.2437208" lon="-1.9670741"><ele>447.0</ele><time>2026-04-18T08:31:23.031Z</time></trkpt><trkpt lat="53.2436144" lon="-1.9672323"><ele>447.0</ele><time>2026-04-18T08:31:24.028Z</time></trkpt><trkpt lat="53.2435092" lon="-1.9673817"><ele>447.0</ele><time>2026-04-18T08:31:25.027Z</time></trkpt><trkpt lat="53.2434054" lon="-1.9675303"><ele>447.0</ele><time>2026-04-18T08:31:26.029Z</time></trkpt><trkpt lat="53.2433022" lon="-1.9676885"><ele>447.0</ele><time>2026-04-18T08:31:27.027Z</time></trkpt><trkpt lat="53.243203" lon="-1.967846"><ele>446.0</ele><time>2026-04-18T08:31:28.026Z</time></trkpt><trkpt lat="53.2431058" lon="-1.967996"><ele>445.0</ele><time>2026-04-18T08:31:29.028Z</time></trkpt><trkpt lat="53.2430071" lon="-1.968152"><ele>444.0</ele><time>2026-04-18T08:31:30.029Z</time></trkpt><trkpt lat="53.2429131" lon="-1.9683103"><ele>443.0</ele><time>2026-04-18T08:31:31.019Z</time></trkpt><trkpt lat="53.242823" lon="-1.9684699"><ele>441.75</ele><time>2026-04-18T08:31:32.026Z</time></trkpt><trkpt lat="53.2427432" lon="-1.9686403"><ele>440.5</ele><time>2026-04-18T08:31:33.03Z</time></trkpt><trkpt lat="53.2426786" lon="-1.968819"><ele>439.25</ele><time>2026-04-18T08:31:34.023Z</time></trkpt><trkpt lat="53.2426289" lon="-1.9690052"><ele>438.0</ele><time>2026-04-18T08:31:35.022Z</time></trkpt><trkpt lat="53.2425888" lon="-1.9691919"><ele>437.5</ele><time>2026-04-18T08:31:36.016Z</time></trkpt><trkpt lat="53.2425513" lon="-1.9693727"><ele>437.0</ele><time>2026-04-18T08:31:37.025Z</time></trkpt><trkpt lat="53.2425205" lon="-1.9695509"><ele>436.5</ele><time>2026-04-18T08:31:38.026Z</time></trkpt><trkpt lat="53.2424888" lon="-1.9697363"><ele>436.0</ele><time>2026-04-18T08:31:39.028Z</time></trkpt><trkpt lat="53.2424596" lon="-1.9699244"><ele>435.5</ele><time>2026-04-18T08:31:40.03Z</time></trkpt><trkpt lat="53.2424266" lon="-1.9701178"><ele>435.0</ele><time>2026-04-18T08:31:41.027Z</time></trkpt><trkpt lat="53.2423916" lon="-1.97032"><ele>434.5</ele><time>2026-04-18T08:31:42.028Z</time></trkpt><trkpt lat="53.2423525" lon="-1.9705272"><ele>434.0</ele><time>2026-04-18T08:31:43.029Z</time></trkpt><trkpt lat="53.2423139" lon="-1.9707301"><ele>434.25</ele><time>2026-04-18T08:31:44.029Z</time></trkpt><trkpt lat="53.2422777" lon="-1.970941"><ele>434.5</ele><time>2026-04-18T08:31:45.029Z</time></trkpt><trkpt lat="53.2422472" lon="-1.9711618"><ele>434.75</ele><time>2026-04-18T08:31:46.027Z</time></trkpt><trkpt lat="53.242221" lon="-1.9713874"><ele>435.0</ele><time>2026-04-18T08:31:47.031Z</time></trkpt><trkpt lat="53.2421917" lon="-1.9716044"><ele>434.2</ele><time>2026-04-18T08:31:48.027Z</time></trkpt><trkpt lat="53.2421575" lon="-1.9718034"><ele>433.4</ele><time>2026-04-18T08:31:49.023Z</time></trkpt><trkpt lat="53.2421198" lon="-1.9719842"><ele>432.6</ele><time>2026-04-18T08:31:50.016Z</time></trkpt><trkpt lat="53.242088" lon="-1.9721329"><ele>431.8</ele><time>2026-04-18T08:31:51.022Z</time></trkpt><trkpt lat="53.2420582" lon="-1.97226"><ele>431.0</ele><time>2026-04-18T08:31:52.022Z</time></trkpt><trkpt lat="53.2420145" lon="-1.9723822"><ele>431.0</ele><time>2026-04-18T08:31:53.025Z</time></trkpt><trkpt lat="53.2419498" lon="-1.9724939"><ele>431.0</ele><time>2026-04-18T08:31:54.023Z</time></trkpt><trkpt lat="53.2418613" lon="-1.9725919"><ele>431.0</ele><time>2026-04-18T08:31:55.023Z</time></trkpt><trkpt lat="53.2417653" lon="-1.9726709"><ele>431.0</ele><time>2026-04-18T08:31:56.023Z</time></trkpt><trkpt lat="53.2416842" lon="-1.9727292"><ele>431.0</ele><time>2026-04-18T08:31:57.023Z</time></trkpt><trkpt lat="53.2416172" lon="-1.9727787"><ele>430.8333333333333</ele><time>2026-04-18T08:31:58.018Z</time></trkpt><trkpt lat="53.2415603" lon="-1.9728293"><ele>430.66666666666663</ele><time>2026-04-18T08:31:59.02Z</time></trkpt><trkpt lat="53.2415096" lon="-1.9728986"><ele>430.5</ele><time>2026-04-18T08:32:00.021Z</time></trkpt><trkpt lat="53.241471" lon="-1.9730075"><ele>430.33333333333337</ele><time>2026-04-18T08:32:01.021Z</time></trkpt><trkpt lat="53.2414463" lon="-1.9731553"><ele>430.1666666666667</ele><time>2026-04-18T08:32:02.021Z</time></trkpt><trkpt lat="53.2414426" lon="-1.9733177"><ele>430.0</ele><time>2026-04-18T08:32:03.025Z</time></trkpt><trkpt lat="53.2414387" lon="-1.9734644"><ele>429.2</ele><time>2026-04-18T08:32:04.02Z</time></trkpt><trkpt lat="53.241439" lon="-1.973582"><ele>428.4</ele><time>2026-04-18T08:32:05.021Z</time></trkpt><trkpt lat="53.2414646" lon="-1.9737176"><ele>427.6</ele><time>2026-04-18T08:34:03.028Z</time></trkpt><trkpt lat="53.2414601" lon="-1.9739203"><ele>426.8</ele><time>2026-04-18T08:34:05.022Z</time></trkpt><trkpt lat="53.2414502" lon="-1.9740669"><ele>426.0</ele><time>2026-04-18T08:34:06.023Z</time></trkpt><trkpt lat="53.2414338" lon="-1.9742218"><ele>425.5</ele><time>2026-04-18T08:34:07.024Z</time></trkpt><trkpt lat="53.2414159" lon="-1.9743547"><ele>425.0</ele><time>2026-04-18T08:34:08.026Z</time></trkpt><trkpt lat="53.2413932" lon="-1.9744744"><ele>424.5</ele><time>2026-04-18T08:34:09.021Z</time></trkpt><trkpt lat="53.2413687" lon="-1.9745846"><ele>424.0</ele><time>2026-04-18T08:34:10.026Z</time></trkpt><trkpt lat="53.2413147" lon="-1.9747493"><ele>423.5</ele><time>2026-04-18T08:34:12.02Z</time></trkpt><trkpt lat="53.2412663" lon="-1.9748464"><ele>423.0</ele><time>2026-04-18T08:34:15.021Z</time></trkpt><trkpt lat="53.2412333" lon="-1.9749492"><ele>423.0</ele><time>2026-04-18T08:34:17.022Z</time></trkpt><trkpt lat="53.241206" lon="-1.9750628"><ele>423.0</ele><time>2026-04-18T08:34:19.021Z</time></trkpt><trkpt lat="53.2411711" lon="-1.9751899"><ele>423.0</ele><time>2026-04-18T08:34:22.024Z</time></trkpt><trkpt lat="53.2411076" lon="-1.9750905"><ele>423.0</ele><time>2026-04-18T08:34:28.024Z</time></trkpt><trkpt lat="53.2410958" lon="-1.9748763"><ele>423.0</ele><time>2026-04-18T08:34:30.024Z</time></trkpt><trkpt lat="53.2410721" lon="-1.9747071"><ele>423.0</ele><time>2026-04-18T08:34:32.024Z</time></trkpt><trkpt lat="53.2410572" lon="-1.9745715"><ele>423.0</ele><time>2026-04-18T08:34:34.025Z</time></trkpt><trkpt lat="53.2410255" lon="-1.9744383"><ele>423.0</ele><time>2026-04-18T08:34:37.023Z</time></trkpt><trkpt lat="53.2410254" lon="-1.9743271"><ele>423.0</ele><time>2026-04-18T08:34:39.023Z</time></trkpt><trkpt lat="53.2409992" lon="-1.9741987"><ele>423.0</ele><time>2026-04-18T08:34:41.021Z</time></trkpt><trkpt lat="53.2409398" lon="-1.9740936"><ele>423.0</ele><time>2026-04-18T08:34:43.026Z</time></trkpt><trkpt lat="53.2410118" lon="-1.974178"><ele>423.0</ele><time>2026-04-18T08:34:48.023Z</time></trkpt><trkpt lat="53.241031" lon="-1.9743176"><ele>423.0</ele><time>2026-04-18T08:34:50.025Z</time></trkpt><trkpt lat="53.2410407" lon="-1.9744676"><ele>423.0</ele><time>2026-04-18T08:34:52.025Z</time></trkpt><trkpt lat="53.2410378" lon="-1.9745961"><ele>423.0</ele><time>2026-04-18T08:34:54.026Z</time></trkpt><trkpt lat="53.2410527" lon="-1.9746999"><ele>423.0</ele><time>2026-04-18T08:34:56.023Z</time></trkpt><trkpt lat="53.2410764" lon="-1.9748377"><ele>423.0</ele><time>2026-04-18T08:34:58.022Z</time></trkpt><trkpt lat="53.2411233" lon="-1.9749112"><ele>422.59999999999997</ele><time>2026-04-18T08:35:01.029Z</time></trkpt><trkpt lat="53.2411589" lon="-1.9750264"><ele>422.2</ele><time>2026-04-18T08:35:04.027Z</time></trkpt><trkpt lat="53.2411573" lon="-1.9751456"><ele>421.8</ele><time>2026-04-18T08:35:06.024Z</time></trkpt><trkpt lat="53.2410855" lon="-1.9753781"><ele>421.4</ele><time>2026-04-18T08:35:07.022Z</time></trkpt><trkpt lat="53.2410201" lon="-1.9755174"><ele>421.0</ele><time>2026-04-18T08:35:08.021Z</time></trkpt><trkpt lat="53.2409398" lon="-1.9756812"><ele>421.5</ele><time>2026-04-18T08:35:09.022Z</time></trkpt><trkpt lat="53.2408614" lon="-1.9758692"><ele>422.0</ele><time>2026-04-18T08:35:10.024Z</time></trkpt><trkpt lat="53.2407877" lon="-1.9760703"><ele>422.5</ele><time>2026-04-18T08:35:11.023Z</time></trkpt><trkpt lat="53.2407171" lon="-1.9762865"><ele>423.0</ele><time>2026-04-18T08:35:12.023Z</time></trkpt><trkpt lat="53.2406547" lon="-1.9765141"><ele>425.0</ele><time>2026-04-18T08:35:13.022Z</time></trkpt><trkpt lat="53.2406016" lon="-1.9767423"><ele>427.0</ele><time>2026-04-18T08:35:14.025Z</time></trkpt><trkpt lat="53.2405536" lon="-1.9769633"><ele>429.0</ele><time>2026-04-18T08:35:15.024Z</time></trkpt><trkpt lat="53.2405107" lon="-1.977179"><ele>431.0</ele><time>2026-04-18T08:35:16.023Z</time></trkpt><trkpt lat="53.2404696" lon="-1.9773902"><ele>431.0</ele><time>2026-04-18T08:35:17.019Z</time></trkpt><trkpt lat="53.2404302" lon="-1.9775974"><ele>431.0</ele><time>2026-04-18T08:35:18.02Z</time></trkpt><trkpt lat="53.2403936" lon="-1.9777984"><ele>431.0</ele><time>2026-04-18T08:35:19.023Z</time></trkpt><trkpt lat="53.2403611" lon="-1.9779948"><ele>431.0</ele><time>2026-04-18T08:35:20.023Z</time></trkpt><trkpt lat="53.2403307" lon="-1.9781918"><ele>432.0</ele><time>2026-04-18T08:35:21.022Z</time></trkpt><trkpt lat="53.2402979" lon="-1.9783875"><ele>433.0</ele><time>2026-04-18T08:35:22.019Z</time></trkpt><trkpt lat="53.2402634" lon="-1.978588"><ele>434.0</ele><time>2026-04-18T08:35:23.021Z</time></trkpt><trkpt lat="53.2402234" lon="-1.9787934"><ele>435.0</ele><time>2026-04-18T08:35:24.023Z</time></trkpt><trkpt lat="53.2401795" lon="-1.9790051"><ele>435.75</ele><time>2026-04-18T08:35:25.02Z</time></trkpt><trkpt lat="53.2401327" lon="-1.9792236"><ele>436.5</ele><time>2026-04-18T08:35:26.019Z</time></trkpt><trkpt lat="53.2400887" lon="-1.9794508"><ele>437.25</ele><time>2026-04-18T08:35:27.021Z</time></trkpt><trkpt lat="53.240051" lon="-1.9796823"><ele>438.0</ele><time>2026-04-18T08:35:28.021Z</time></trkpt><trkpt lat="53.2400276" lon="-1.9799221"><ele>439.0</ele><time>2026-04-18T08:35:29.02Z</time></trkpt><trkpt lat="53.2400254" lon="-1.9801615"><ele>440.0</ele><time>2026-04-18T08:35:30.021Z</time></trkpt><trkpt lat="53.2400537" lon="-1.9804009"><ele>441.0</ele><time>2026-04-18T08:35:31.021Z</time></trkpt><trkpt lat="53.2401055" lon="-1.9806363"><ele>442.0</ele><time>2026-04-18T08:35:32.019Z</time></trkpt><trkpt lat="53.2401676" lon="-1.9808629"><ele>443.25</ele><time>2026-04-18T08:35:33.02Z</time></trkpt><trkpt lat="53.2402233" lon="-1.9810925"><ele>444.5</ele><time>2026-04-18T08:35:34.018Z</time></trkpt><trkpt lat="53.2402673" lon="-1.9813242"><ele>445.75</ele><time>2026-04-18T08:35:35.02Z</time></trkpt><trkpt lat="53.2403054" lon="-1.9815613"><ele>447.0</ele><time>2026-04-18T08:35:36.019Z</time></trkpt><trkpt lat="53.2403405" lon="-1.9818095"><ele>448.0</ele><time>2026-04-18T08:35:37.02Z</time></trkpt><trkpt lat="53.2403775" lon="-1.9820724"><ele>449.0</ele><time>2026-04-18T08:35:38.021Z</time></trkpt><trkpt lat="53.2404223" lon="-1.982352"><ele>450.0</ele><time>2026-04-18T08:35:39.019Z</time></trkpt><trkpt lat="53.2404742" lon="-1.982659"><ele>451.33333333333337</ele><time>2026-04-18T08:35:40.023Z</time></trkpt><trkpt lat="53.2405299" lon="-1.9829925"><ele>452.6666666666667</ele><time>2026-04-18T08:35:41.021Z</time></trkpt><trkpt lat="53.2405848" lon="-1.9833249"><ele>454.0</ele><time>2026-04-18T08:35:42.023Z</time></trkpt><trkpt lat="53.240636" lon="-1.9836417"><ele>456.6666666666667</ele><time>2026-04-18T08:35:43.026Z</time></trkpt><trkpt lat="53.2406849" lon="-1.9839416"><ele>459.33333333333337</ele><time>2026-04-18T08:35:44.021Z</time></trkpt><trkpt lat="53.2407348" lon="-1.984229"><ele>462.0</ele><time>2026-04-18T08:35:45.019Z</time></trkpt><trkpt lat="53.2407813" lon="-1.9845071"><ele>463.33333333333337</ele><time>2026-04-18T08:35:46.024Z</time></trkpt><trkpt lat="53.2408316" lon="-1.9847856"><ele>464.6666666666667</ele><time>2026-04-18T08:35:47.025Z</time></trkpt><trkpt lat="53.2408849" lon="-1.9850672"><ele>466.0</ele><time>2026-04-18T08:35:48.024Z</time></trkpt><trkpt lat="53.2409434" lon="-1.9853557"><ele>467.6666666666667</ele><time>2026-04-18T08:35:49.023Z</time></trkpt><trkpt lat="53.241005" lon="-1.9856531"><ele>469.33333333333337</ele><time>2026-04-18T08:35:50.017Z</time></trkpt><trkpt lat="53.2410701" lon="-1.9859571"><ele>471.0</ele><time>2026-04-18T08:35:51.027Z</time></trkpt><trkpt lat="53.2411375" lon="-1.986268"><ele>472.66666666666663</ele><time>2026-04-18T08:35:52.025Z</time></trkpt><trkpt lat="53.241206" lon="-1.9865766"><ele>474.3333333333333</ele><time>2026-04-18T08:35:53.027Z</time></trkpt><trkpt lat="53.2412734" lon="-1.9868859"><ele>476.0</ele><time>2026-04-18T08:35:54.024Z</time></trkpt><trkpt lat="53.2413394" lon="-1.9871958"><ele>478.3333333333333</ele><time>2026-04-18T08:35:55.025Z</time></trkpt><trkpt lat="53.2413985" lon="-1.9875108"><ele>480.66666666666663</ele><time>2026-04-18T08:35:56.024Z</time></trkpt><trkpt lat="53.2414485" lon="-1.9878327"><ele>483.0</ele><time>2026-04-18T08:35:57.024Z</time></trkpt><trkpt lat="53.2414877" lon="-1.9881602"><ele>484.66666666666663</ele><time>2026-04-18T08:35:58.025Z</time></trkpt><trkpt lat="53.2415173" lon="-1.9884928"><ele>486.3333333333333</ele><time>2026-04-18T08:35:59.024Z</time></trkpt><trkpt lat="53.2415421" lon="-1.9888315"><ele>488.0</ele><time>2026-04-18T08:36:00.023Z</time></trkpt><trkpt lat="53.2415634" lon="-1.9891722"><ele>489.0</ele><time>2026-04-18T08:36:01.024Z</time></trkpt><trkpt lat="53.2415863" lon="-1.9895087"><ele>490.0</ele><time>2026-04-18T08:36:02.024Z</time></trkpt><trkpt lat="53.2416154" lon="-1.9898362"><ele>491.0</ele><time>2026-04-18T08:36:03.03Z</time></trkpt><trkpt lat="53.2416559" lon="-1.9901573"><ele>492.0</ele><time>2026-04-18T08:36:04.023Z</time></trkpt><trkpt lat="53.241703" lon="-1.9904746"><ele>493.0</ele><time>2026-04-18T08:36:05.023Z</time></trkpt><trkpt lat="53.2417587" lon="-1.9907866"><ele>494.0</ele><time>2026-04-18T08:36:06.023Z</time></trkpt><trkpt lat="53.2418176" lon="-1.9911006"><ele>495.0</ele><time>2026-04-18T08:36:07.026Z</time></trkpt><trkpt lat="53.2418778" lon="-1.9914201"><ele>496.0</ele><time>2026-04-18T08:36:08.026Z</time></trkpt><trkpt lat="53.241937" lon="-1.9917402"><ele>497.0</ele><time>2026-04-18T08:36:09.026Z</time></trkpt><trkpt lat="53.2419943" lon="-1.9920673"><ele>497.3333333333333</ele><time>2026-04-18T08:36:10.027Z</time></trkpt><trkpt lat="53.2420488" lon="-1.9923971"><ele>497.66666666666663</ele><time>2026-04-18T08:36:11.024Z</time></trkpt><trkpt lat="53.2421044" lon="-1.9927319"><ele>498.0</ele><time>2026-04-18T08:36:12.025Z</time></trkpt><trkpt lat="53.2421619" lon="-1.9930719"><ele>498.66666666666663</ele><time>2026-04-18T08:36:13.029Z</time></trkpt><trkpt lat="53.2422204" lon="-1.9934042"><ele>499.3333333333333</ele><time>2026-04-18T08:36:14.026Z</time></trkpt><trkpt lat="53.2422779" lon="-1.9937065"><ele>500.0</ele><time>2026-04-18T08:36:15.024Z</time></trkpt><trkpt lat="53.24233" lon="-1.9939668"><ele>501.3333333333333</ele><time>2026-04-18T08:36:16.027Z</time></trkpt><trkpt lat="53.2423753" lon="-1.9942138"><ele>502.66666666666663</ele><time>2026-04-18T08:36:17.024Z</time></trkpt><trkpt lat="53.2424085" lon="-1.9944756"><ele>504.0</ele><time>2026-04-18T08:36:18.024Z</time></trkpt><trkpt lat="53.2424301" lon="-1.994747"><ele>504.75</ele><time>2026-04-18T08:36:19.023Z</time></trkpt><trkpt lat="53.2424404" lon="-1.9950091"><ele>505.5</ele><time>2026-04-18T08:36:20.026Z</time></trkpt><trkpt lat="53.2424466" lon="-1.9952475"><ele>506.25</ele><time>2026-04-18T08:36:21.026Z</time></trkpt><trkpt lat="53.2424542" lon="-1.9954688"><ele>507.0</ele><time>2026-04-18T08:36:22.023Z</time></trkpt><trkpt lat="53.2424606" lon="-1.9956802"><ele>507.40000000000003</ele><time>2026-04-18T08:36:23.03Z</time></trkpt><trkpt lat="53.2424698" lon="-1.9958823"><ele>507.80000000000007</ele><time>2026-04-18T08:36:24.026Z</time></trkpt><trkpt lat="53.2424815" lon="-1.9960804"><ele>508.2</ele><time>2026-04-18T08:36:25.025Z</time></trkpt><trkpt lat="53.2424936" lon="-1.99626"><ele>508.6</ele><time>2026-04-18T08:36:26.025Z</time></trkpt><trkpt lat="53.2425048" lon="-1.9964056"><ele>509.0</ele><time>2026-04-18T08:36:27.025Z</time></trkpt><trkpt lat="53.2425124" lon="-1.9965119"><ele>509.4</ele><time>2026-04-18T08:36:28.024Z</time></trkpt><trkpt lat="53.2425355" lon="-1.9966819"><ele>509.79999999999995</ele><time>2026-04-18T08:36:30.025Z</time></trkpt><trkpt lat="53.2425705" lon="-1.9968391"><ele>510.20000000000005</ele><time>2026-04-18T08:36:32.026Z</time></trkpt><trkpt lat="53.2426142" lon="-1.9970524"><ele>510.6</ele><time>2026-04-18T08:36:34.022Z</time></trkpt><trkpt lat="53.2426581" lon="-1.9972014"><ele>511.0</ele><time>2026-04-18T08:36:35.023Z</time></trkpt><trkpt lat="53.2427215" lon="-1.9973613"><ele>511.5</ele><time>2026-04-18T08:36:36.025Z</time></trkpt><trkpt lat="53.2428027" lon="-1.9975304"><ele>512.0</ele><time>2026-04-18T08:36:37.026Z</time></trkpt><trkpt lat="53.2428901" lon="-1.9977101"><ele>512.5</ele><time>2026-04-18T08:36:38.025Z</time></trkpt><trkpt lat="53.2429806" lon="-1.9978931"><ele>513.0</ele><time>2026-04-18T08:36:39.026Z</time></trkpt><trkpt lat="53.2430713" lon="-1.9980782"><ele>513.0</ele><time>2026-04-18T08:36:40.027Z</time></trkpt><trkpt lat="53.243163" lon="-1.9982655"><ele>513.0</ele><time>2026-04-18T08:36:41.022Z</time></trkpt><trkpt lat="53.2432568" lon="-1.9984587"><ele>513.0</ele><time>2026-04-18T08:36:42.023Z</time></trkpt><trkpt lat="53.2433505" lon="-1.9986575"><ele>513.0</ele><time>2026-04-18T08:36:43.022Z</time></trkpt><trkpt lat="53.2434447" lon="-1.9988647"><ele>514.0</ele><time>2026-04-18T08:36:44.024Z</time></trkpt><trkpt lat="53.2435408" lon="-1.9990761"><ele>515.0</ele><time>2026-04-18T08:36:45.026Z</time></trkpt><trkpt lat="53.2436393" lon="-1.9992887"><ele>516.0</ele><time>2026-04-18T08:36:46.025Z</time></trkpt><trkpt lat="53.2437356" lon="-1.9994927"><ele>516.0</ele><time>2026-04-18T08:36:47.024Z</time></trkpt><trkpt lat="53.2438278" lon="-1.9996739"><ele>516.0</ele><time>2026-04-18T08:36:48.024Z</time></trkpt><trkpt lat="53.2439205" lon="-1.9998266"><ele>516.0</ele><time>2026-04-18T08:36:49.026Z</time></trkpt><trkpt lat="53.2440217" lon="-1.9999511"><ele>516.0</ele><time>2026-04-18T08:36:50.027Z</time></trkpt><trkpt lat="53.2441377" lon="-2.0000607"><ele>516.0</ele><time>2026-04-18T08:36:51.026Z</time></trkpt><trkpt lat="53.2442675" lon="-2.0001652"><ele>516.0</ele><time>2026-04-18T08:36:52.025Z</time></trkpt><trkpt lat="53.244416" lon="-2.0002631"><ele>516.0</ele><time>2026-04-18T08:36:53.028Z</time></trkpt><trkpt lat="53.2445821" lon="-2.000345"><ele>516.0</ele><time>2026-04-18T08:36:54.024Z</time></trkpt><trkpt lat="53.2447645" lon="-2.0004136"><ele>516.0</ele><time>2026-04-18T08:36:55.027Z</time></trkpt><trkpt lat="53.2449434" lon="-2.000469"><ele>516.0</ele><time>2026-04-18T08:36:56.026Z</time></trkpt><trkpt lat="53.2451059" lon="-2.0005167"><ele>516.0</ele><time>2026-04-18T08:36:57.024Z</time></trkpt><trkpt lat="53.24526" lon="-2.0005656"><ele>516.0</ele><time>2026-04-18T08:36:58.027Z</time></trkpt><trkpt lat="53.2454107" lon="-2.0006241"><ele>516.0</ele><time>2026-04-18T08:36:59.024Z</time></trkpt><trkpt lat="53.2455618" lon="-2.0006924"><ele>516.25</ele><time>2026-04-18T08:37:00.026Z</time></trkpt><trkpt lat="53.2457045" lon="-2.0007703"><ele>516.5</ele><time>2026-04-18T08:37:01.027Z</time></trkpt><trkpt lat="53.2458336" lon="-2.0008688"><ele>516.75</ele><time>2026-04-18T08:37:02.025Z</time></trkpt><trkpt lat="53.2459488" lon="-2.0009962"><ele>517.0</ele><time>2026-04-18T08:37:03.031Z</time></trkpt><trkpt lat="53.2460491" lon="-2.0011555"><ele>515.25</ele><time>2026-04-18T08:37:04.025Z</time></trkpt><trkpt lat="53.2461281" lon="-2.0013496"><ele>513.5</ele><time>2026-04-18T08:37:05.026Z</time></trkpt><trkpt lat="53.2461825" lon="-2.0015716"><ele>511.75</ele><time>2026-04-18T08:37:06.026Z</time></trkpt><trkpt lat="53.2462076" lon="-2.0018268"><ele>510.0</ele><time>2026-04-18T08:37:07.026Z</time></trkpt><trkpt lat="53.2462061" lon="-2.0021196"><ele>508.33333333333337</ele><time>2026-04-18T08:37:08.025Z</time></trkpt><trkpt lat="53.2461808" lon="-2.0024283"><ele>506.6666666666667</ele><time>2026-04-18T08:37:09.023Z</time></trkpt><trkpt lat="53.2461447" lon="-2.0027496"><ele>505.0</ele><time>2026-04-18T08:37:10.025Z</time></trkpt><trkpt lat="53.2461101" lon="-2.0030856"><ele>504.0</ele><time>2026-04-18T08:37:11.025Z</time></trkpt><trkpt lat="53.2460826" lon="-2.0034247"><ele>503.0</ele><time>2026-04-18T08:37:12.026Z</time></trkpt><trkpt lat="53.2460628" lon="-2.0037359"><ele>502.0</ele><time>2026-04-18T08:37:13.028Z</time></trkpt><trkpt lat="53.2460497" lon="-2.0040107"><ele>501.6</ele><time>2026-04-18T08:37:14.025Z</time></trkpt><trkpt lat="53.2460479" lon="-2.0042338"><ele>501.20000000000005</ele><time>2026-04-18T08:37:15.027Z</time></trkpt><trkpt lat="53.2460682" lon="-2.0044142"><ele>500.8</ele><time>2026-04-18T08:37:16.028Z</time></trkpt><trkpt lat="53.2461207" lon="-2.0045462"><ele>500.4</ele><time>2026-04-18T08:37:17.025Z</time></trkpt><trkpt lat="53.246212" lon="-2.0046184"><ele>500.0</ele><time>2026-04-18T08:37:18.026Z</time></trkpt><trkpt lat="53.246337" lon="-2.004635"><ele>500.66666666666663</ele><time>2026-04-18T08:37:19.025Z</time></trkpt><trkpt lat="53.2464807" lon="-2.0046326"><ele>501.33333333333337</ele><time>2026-04-18T08:37:20.028Z</time></trkpt><trkpt lat="53.2466609" lon="-2.0045951"><ele>502.0</ele><time>2026-04-18T08:37:21.025Z</time></trkpt><trkpt lat="53.2468559" lon="-2.0045672"><ele>502.0</ele><time>2026-04-18T08:37:22.027Z</time></trkpt><trkpt lat="53.2470569" lon="-2.0045543"><ele>502.0</ele><time>2026-04-18T08:37:23.026Z</time></trkpt><trkpt lat="53.2472564" lon="-2.0045721"><ele>502.0</ele><time>2026-04-18T08:37:24.028Z</time></trkpt><trkpt lat="53.2474473" lon="-2.0046117"><ele>502.0</ele><time>2026-04-18T08:37:25.025Z</time></trkpt><trkpt lat="53.2476382" lon="-2.0046358"><ele>502.0</ele><time>2026-04-18T08:37:26.024Z</time></trkpt><trkpt lat="53.2478222" lon="-2.004648"><ele>502.0</ele><time>2026-04-18T08:37:27.025Z</time></trkpt><trkpt lat="53.2479925" lon="-2.0046508"><ele>501.6666666666667</ele><time>2026-04-18T08:37:28.028Z</time></trkpt><trkpt lat="53.2481494" lon="-2.0046534"><ele>501.33333333333337</ele><time>2026-04-18T08:37:29.027Z</time></trkpt><trkpt lat="53.2482957" lon="-2.0046715"><ele>501.0</ele><time>2026-04-18T08:37:30.02Z</time></trkpt><trkpt lat="53.2484453" lon="-2.0046956"><ele>501.0</ele><time>2026-04-18T08:37:31.024Z</time></trkpt><trkpt lat="53.2485984" lon="-2.0047209"><ele>501.0</ele><time>2026-04-18T08:37:32.023Z</time></trkpt><trkpt lat="53.2487534" lon="-2.0047535"><ele>501.0</ele><time>2026-04-18T08:37:33.031Z</time></trkpt><trkpt lat="53.2489147" lon="-2.0047844"><ele>499.0</ele><time>2026-04-18T08:37:34.025Z</time></trkpt><trkpt lat="53.2490805" lon="-2.004822"><ele>497.0</ele><time>2026-04-18T08:37:35.023Z</time></trkpt><trkpt lat="53.2492502" lon="-2.0048872"><ele>495.0</ele><time>2026-04-18T08:37:36.024Z</time></trkpt><trkpt lat="53.249418" lon="-2.0049831"><ele>491.66666666666663</ele><time>2026-04-18T08:37:37.023Z</time></trkpt><trkpt lat="53.2495728" lon="-2.0050982"><ele>488.3333333333333</ele><time>2026-04-18T08:37:38.023Z</time></trkpt><trkpt lat="53.2497185" lon="-2.0052173"><ele>485.0</ele><time>2026-04-18T08:37:39.023Z</time></trkpt><trkpt lat="53.2498618" lon="-2.0053436"><ele>484.66666666666663</ele><time>2026-04-18T08:37:40.024Z</time></trkpt><trkpt lat="53.2500049" lon="-2.0054783"><ele>484.33333333333337</ele><time>2026-04-18T08:37:41.024Z</time></trkpt><trkpt lat="53.2501426" lon="-2.0056408"><ele>484.0</ele><time>2026-04-18T08:37:42.024Z</time></trkpt><trkpt lat="53.2502628" lon="-2.0058502"><ele>481.6666666666667</ele><time>2026-04-18T08:37:43.029Z</time></trkpt><trkpt lat="53.2503609" lon="-2.0060986"><ele>479.33333333333337</ele><time>2026-04-18T08:37:44.024Z</time></trkpt><trkpt lat="53.2504577" lon="-2.0063363"><ele>477.0</ele><time>2026-04-18T08:37:45.025Z</time></trkpt><trkpt lat="53.2505576" lon="-2.0065624"><ele>475.33333333333337</ele><time>2026-04-18T08:37:46.024Z</time></trkpt><trkpt lat="53.2506662" lon="-2.0067808"><ele>473.6666666666667</ele><time>2026-04-18T08:37:47.025Z</time></trkpt><trkpt lat="53.2507804" lon="-2.0070003"><ele>472.0</ele><time>2026-04-18T08:37:48.025Z</time></trkpt><trkpt lat="53.2508833" lon="-2.0072205"><ele>472.0</ele><time>2026-04-18T08:37:49.024Z</time></trkpt><trkpt lat="53.2509553" lon="-2.0074418"><ele>472.0</ele><time>2026-04-18T08:37:50.027Z</time></trkpt><trkpt lat="53.2509812" lon="-2.0076826"><ele>472.0</ele><time>2026-04-18T08:37:51.024Z</time></trkpt><trkpt lat="53.2509576" lon="-2.0079425"><ele>472.0</ele><time>2026-04-18T08:37:52.027Z</time></trkpt><trkpt lat="53.2508985" lon="-2.0082274"><ele>472.0</ele><time>2026-04-18T08:37:53.028Z</time></trkpt><trkpt lat="53.2508309" lon="-2.0085295"><ele>472.0</ele><time>2026-04-18T08:37:54.017Z</time></trkpt><trkpt lat="53.2507703" lon="-2.008828"><ele>471.33333333333337</ele><time>2026-04-18T08:37:55.018Z</time></trkpt><trkpt lat="53.2507311" lon="-2.0091162"><ele>470.66666666666663</ele><time>2026-04-18T08:37:56.017Z</time></trkpt><trkpt lat="53.2507105" lon="-2.0093933"><ele>470.0</ele><time>2026-04-18T08:37:57.017Z</time></trkpt><trkpt lat="53.2507016" lon="-2.0096683"><ele>469.3333333333333</ele><time>2026-04-18T08:37:58.017Z</time></trkpt><trkpt lat="53.2507031" lon="-2.009939"><ele>468.66666666666663</ele><time>2026-04-18T08:37:59.02Z</time></trkpt><trkpt lat="53.2507186" lon="-2.0102035"><ele>468.0</ele><time>2026-04-18T08:38:00.023Z</time></trkpt><trkpt lat="53.2507483" lon="-2.0104669"><ele>467.33333333333337</ele><time>2026-04-18T08:38:01.022Z</time></trkpt><trkpt lat="53.2507907" lon="-2.0107332"><ele>466.6666666666667</ele><time>2026-04-18T08:38:02.017Z</time></trkpt><trkpt lat="53.2508481" lon="-2.0109687"><ele>466.0</ele><time>2026-04-18T08:38:03.035Z</time></trkpt><trkpt lat="53.2509202" lon="-2.0111621"><ele>465.0</ele><time>2026-04-18T08:38:04.017Z</time></trkpt><trkpt lat="53.2509892" lon="-2.0113299"><ele>464.0</ele><time>2026-04-18T08:38:05.022Z</time></trkpt><trkpt lat="53.2510393" lon="-2.011491"><ele>463.0</ele><time>2026-04-18T08:38:06.022Z</time></trkpt><trkpt lat="53.2510476" lon="-2.011673"><ele>462.0</ele><time>2026-04-18T08:38:07.022Z</time></trkpt><trkpt lat="53.2509974" lon="-2.0118772"><ele>461.0</ele><time>2026-04-18T08:38:08.022Z</time></trkpt><trkpt lat="53.2509035" lon="-2.0120978"><ele>460.0</ele><time>2026-04-18T08:38:09.022Z</time></trkpt><trkpt lat="53.2508177" lon="-2.0123358"><ele>459.0</ele><time>2026-04-18T08:38:10.024Z</time></trkpt><trkpt lat="53.2507536" lon="-2.0125971"><ele>459.0</ele><time>2026-04-18T08:38:11.021Z</time></trkpt><trkpt lat="53.2507237" lon="-2.0128506"><ele>459.0</ele><time>2026-04-18T08:38:12.022Z</time></trkpt><trkpt lat="53.2507254" lon="-2.0130967"><ele>459.0</ele><time>2026-04-18T08:38:13.015Z</time></trkpt><trkpt lat="53.2507519" lon="-2.0133311"><ele>459.0</ele><time>2026-04-18T08:38:14.025Z</time></trkpt><trkpt lat="53.2508021" lon="-2.0135481"><ele>457.5</ele><time>2026-04-18T08:38:15.024Z</time></trkpt><trkpt lat="53.2508644" lon="-2.0137431"><ele>456.0</ele><time>2026-04-18T08:38:16.025Z</time></trkpt><trkpt lat="53.2509536" lon="-2.0139086"><ele>454.5</ele><time>2026-04-18T08:38:17.024Z</time></trkpt><trkpt lat="53.2510769" lon="-2.0140232"><ele>453.0</ele><time>2026-04-18T08:38:18.024Z</time></trkpt><trkpt lat="53.2512095" lon="-2.0141046"><ele>454.33333333333337</ele><time>2026-04-18T08:38:19.022Z</time></trkpt><trkpt lat="53.2513528" lon="-2.01416"><ele>455.6666666666667</ele><time>2026-04-18T08:38:20.024Z</time></trkpt><trkpt lat="53.2515052" lon="-2.0141946"><ele>457.0</ele><time>2026-04-18T08:38:21.023Z</time></trkpt><trkpt lat="53.2516553" lon="-2.0142283"><ele>457.0</ele><time>2026-04-18T08:38:22.026Z</time></trkpt><trkpt lat="53.2518089" lon="-2.0142331"><ele>457.0</ele><time>2026-04-18T08:38:23.03Z</time></trkpt><trkpt lat="53.2519685" lon="-2.014214"><ele>457.0</ele><time>2026-04-18T08:38:24.025Z</time></trkpt><trkpt lat="53.2521316" lon="-2.0141814"><ele>462.33333333333337</ele><time>2026-04-18T08:38:25.023Z</time></trkpt><trkpt lat="53.2522996" lon="-2.0141357"><ele>467.66666666666663</ele><time>2026-04-18T08:38:26.014Z</time></trkpt><trkpt lat="53.2524665" lon="-2.0140813"><ele>473.0</ele><time>2026-04-18T08:38:27.019Z</time></trkpt><trkpt lat="53.2526267" lon="-2.0140228"><ele>473.0</ele><time>2026-04-18T08:38:28.025Z</time></trkpt><trkpt lat="53.2527839" lon="-2.013953"><ele>473.0</ele><time>2026-04-18T08:38:29.024Z</time></trkpt><trkpt lat="53.2529314" lon="-2.0138776"><ele>473.0</ele><time>2026-04-18T08:38:30.024Z</time></trkpt><trkpt lat="53.2530633" lon="-2.0137999"><ele>469.2</ele><time>2026-04-18T08:38:31.019Z</time></trkpt><trkpt lat="53.2531787" lon="-2.0137236"><ele>465.4</ele><time>2026-04-18T08:38:32.023Z</time></trkpt><trkpt lat="53.2532768" lon="-2.0136477"><ele>461.59999999999997</ele><time>2026-04-18T08:38:33.026Z</time></trkpt><trkpt lat="53.2533594" lon="-2.013569"><ele>457.79999999999995</ele><time>2026-04-18T08:38:34.023Z</time></trkpt><trkpt lat="53.2534368" lon="-2.013486"><ele>454.0</ele><time>2026-04-18T08:38:35.022Z</time></trkpt><trkpt lat="53.2535088" lon="-2.0134061"><ele>454.0</ele><time>2026-04-18T08:38:36.02Z</time></trkpt><trkpt lat="53.2535672" lon="-2.013338"><ele>454.0</ele><time>2026-04-18T08:38:37.024Z</time></trkpt><trkpt lat="53.2534679" lon="-2.0133545"><ele>454.0</ele><time>2026-04-18T08:39:10.022Z</time></trkpt><trkpt lat="53.2533768" lon="-2.0134767"><ele>454.0</ele><time>2026-04-18T08:39:11.021Z</time></trkpt><trkpt lat="53.2532643" lon="-2.0136108"><ele>454.0</ele><time>2026-04-18T08:39:12.014Z</time></trkpt><trkpt lat="53.2531343" lon="-2.0137356"><ele>460.33333333333337</ele><time>2026-04-18T08:39:13.023Z</time></trkpt><trkpt lat="53.2529933" lon="-2.0138417"><ele>466.66666666666663</ele><time>2026-04-18T08:39:14.022Z</time></trkpt><trkpt lat="53.2528444" lon="-2.0139295"><ele>473.0</ele><time>2026-04-18T08:39:15.023Z</time></trkpt><trkpt lat="53.2526894" lon="-2.0140018"><ele>473.0</ele><time>2026-04-18T08:39:16.023Z</time></trkpt><trkpt lat="53.2525277" lon="-2.0140647"><ele>473.0</ele><time>2026-04-18T08:39:17.023Z</time></trkpt><trkpt lat="53.2523598" lon="-2.0141145"><ele>473.0</ele><time>2026-04-18T08:39:18.022Z</time></trkpt><trkpt lat="53.2521872" lon="-2.0141585"><ele>467.66666666666663</ele><time>2026-04-18T08:39:19.022Z</time></trkpt><trkpt lat="53.2520103" lon="-2.0141923"><ele>462.33333333333337</ele><time>2026-04-18T08:39:20.025Z</time></trkpt><trkpt lat="53.2518286" lon="-2.0142142"><ele>457.0</ele><time>2026-04-18T08:39:21.022Z</time></trkpt><trkpt lat="53.2516418" lon="-2.0142051"><ele>455.6666666666667</ele><time>2026-04-18T08:39:22.021Z</time></trkpt><trkpt lat="53.2514567" lon="-2.0141675"><ele>454.33333333333337</ele><time>2026-04-18T08:39:23.016Z</time></trkpt><trkpt lat="53.2512772" lon="-2.0141021"><ele>453.0</ele><time>2026-04-18T08:39:24.024Z</time></trkpt><trkpt lat="53.2511157" lon="-2.014011"><ele>453.0</ele><time>2026-04-18T08:39:25.022Z</time></trkpt><trkpt lat="53.2509769" lon="-2.0138901"><ele>453.0</ele><time>2026-04-18T08:39:26.024Z</time></trkpt><trkpt lat="53.2508705" lon="-2.0137276"><ele>453.0</ele><time>2026-04-18T08:39:27.025Z</time></trkpt><trkpt lat="53.2508039" lon="-2.0135098"><ele>453.0</ele><time>2026-04-18T08:39:28.027Z</time></trkpt><trkpt lat="53.2507809" lon="-2.0132303"><ele>455.0</ele><time>2026-04-18T08:39:29.024Z</time></trkpt><trkpt lat="53.2507845" lon="-2.0129238"><ele>457.0</ele><time>2026-04-18T08:39:30.024Z</time></trkpt><trkpt lat="53.2507951" lon="-2.01262"><ele>459.0</ele><time>2026-04-18T08:39:31.022Z</time></trkpt><trkpt lat="53.2508274" lon="-2.0123106"><ele>459.0</ele><time>2026-04-18T08:39:32.023Z</time></trkpt><trkpt lat="53.2508842" lon="-2.0120262"><ele>459.0</ele><time>2026-04-18T08:39:33.025Z</time></trkpt><trkpt lat="53.2509656" lon="-2.0117866"><ele>459.0</ele><time>2026-04-18T08:39:34.022Z</time></trkpt><trkpt lat="53.2510533" lon="-2.0115796"><ele>459.75</ele><time>2026-04-18T08:39:35.022Z</time></trkpt><trkpt lat="53.2511127" lon="-2.0113783"><ele>460.5</ele><time>2026-04-18T08:39:36.023Z</time></trkpt><trkpt lat="53.2511231" lon="-2.0111685"><ele>461.25</ele><time>2026-04-18T08:39:37.024Z</time></trkpt><trkpt lat="53.2510617" lon="-2.0109654"><ele>462.0</ele><time>2026-04-18T08:39:38.026Z</time></trkpt><trkpt lat="53.2509647" lon="-2.0107506"><ele>463.33333333333337</ele><time>2026-04-18T08:39:39.024Z</time></trkpt><trkpt lat="53.2508712" lon="-2.0104995"><ele>464.6666666666667</ele><time>2026-04-18T08:39:40.025Z</time></trkpt><trkpt lat="53.2508082" lon="-2.0102151"><ele>466.0</ele><time>2026-04-18T08:39:41.022Z</time></trkpt><trkpt lat="53.2507678" lon="-2.0099117"><ele>466.6666666666667</ele><time>2026-04-18T08:39:42.024Z</time></trkpt><trkpt lat="53.2507509" lon="-2.0095816"><ele>467.33333333333337</ele><time>2026-04-18T08:39:43.025Z</time></trkpt><trkpt lat="53.2507636" lon="-2.0092316"><ele>468.0</ele><time>2026-04-18T08:39:44.024Z</time></trkpt><trkpt lat="53.250797" lon="-2.0088752"><ele>468.66666666666663</ele><time>2026-04-18T08:39:45.025Z</time></trkpt><trkpt lat="53.2508406" lon="-2.0085249"><ele>469.3333333333333</ele><time>2026-04-18T08:39:46.025Z</time></trkpt><trkpt lat="53.2508855" lon="-2.0082116"><ele>470.0</ele><time>2026-04-18T08:39:47.023Z</time></trkpt><trkpt lat="53.2509291" lon="-2.0079356"><ele>470.5</ele><time>2026-04-18T08:39:48.024Z</time></trkpt><trkpt lat="53.2509671" lon="-2.0077001"><ele>471.0</ele><time>2026-04-18T08:39:49.023Z</time></trkpt><trkpt lat="53.2509892" lon="-2.0074811"><ele>471.5</ele><time>2026-04-18T08:39:50.017Z</time></trkpt><trkpt lat="53.2509837" lon="-2.0072833"><ele>472.0</ele><time>2026-04-18T08:39:51.021Z</time></trkpt><trkpt lat="53.2509388" lon="-2.0071011"><ele>472.0</ele><time>2026-04-18T08:39:52.024Z</time></trkpt><trkpt lat="53.2508572" lon="-2.0069358"><ele>472.00000000000006</ele><time>2026-04-18T08:39:53.027Z</time></trkpt><trkpt lat="53.2507611" lon="-2.006804"><ele>472.00000000000006</ele><time>2026-04-18T08:39:54.024Z</time></trkpt><trkpt lat="53.2506784" lon="-2.0067094"><ele>472.0</ele><time>2026-04-18T08:39:55.025Z</time></trkpt><trkpt lat="53.2506255" lon="-2.0066506"><ele>472.0</ele><time>2026-04-18T08:39:56.024Z</time></trkpt><trkpt lat="53.2505518" lon="-2.0066399"><ele>472.0</ele><time>2026-04-18T08:39:58.026Z</time></trkpt><trkpt lat="53.2505287" lon="-2.006826"><ele>472.00000000000006</ele><time>2026-04-18T08:40:00.026Z</time></trkpt><trkpt lat="53.250545" lon="-2.0069577"><ele>472.00000000000006</ele><time>2026-04-18T08:40:02.023Z</time></trkpt><trkpt lat="53.2505957" lon="-2.0070545"><ele>472.0</ele><time>2026-04-18T08:40:17.022Z</time></trkpt><trkpt lat="53.2506292" lon="-2.0072024"><ele>472.0</ele><time>2026-04-18T08:40:18.023Z</time></trkpt><trkpt lat="53.2506613" lon="-2.0073891"><ele>472.0</ele><time>2026-04-18T08:40:19.022Z</time></trkpt><trkpt lat="53.2506853" lon="-2.0075974"><ele>472.0</ele><time>2026-04-18T08:40:20.024Z</time></trkpt><trkpt lat="53.2506966" lon="-2.0078111"><ele>472.0</ele><time>2026-04-18T08:40:21.023Z</time></trkpt><trkpt lat="53.2506876" lon="-2.0080323"><ele>472.0</ele><time>2026-04-18T08:40:22.025Z</time></trkpt><trkpt lat="53.2506495" lon="-2.0082565"><ele>470.6666666666667</ele><time>2026-04-18T08:40:23.026Z</time></trkpt><trkpt lat="53.2506038" lon="-2.0084857"><ele>469.33333333333337</ele><time>2026-04-18T08:40:24.023Z</time></trkpt><trkpt lat="53.2505584" lon="-2.0087299"><ele>468.0</ele><time>2026-04-18T08:40:25.022Z</time></trkpt><trkpt lat="53.2505274" lon="-2.0089875"><ele>466.66666666666663</ele><time>2026-04-18T08:40:26.024Z</time></trkpt><trkpt lat="53.2505014" lon="-2.0092527"><ele>465.3333333333333</ele><time>2026-04-18T08:40:27.02Z</time></trkpt><trkpt lat="53.2504832" lon="-2.0095264"><ele>464.0</ele><time>2026-04-18T08:40:28.019Z</time></trkpt><trkpt lat="53.2504671" lon="-2.0098083"><ele>462.66666666666663</ele><time>2026-04-18T08:40:29.019Z</time></trkpt><trkpt lat="53.2504484" lon="-2.0100972"><ele>461.33333333333337</ele><time>2026-04-18T08:40:30.02Z</time></trkpt><trkpt lat="53.2504332" lon="-2.0103825"><ele>460.0</ele><time>2026-04-18T08:40:31.02Z</time></trkpt><trkpt lat="53.2504227" lon="-2.0106644"><ele>456.33333333333337</ele><time>2026-04-18T08:40:32.014Z</time></trkpt><trkpt lat="53.2504236" lon="-2.010937"><ele>452.66666666666663</ele><time>2026-04-18T08:40:33.02Z</time></trkpt><trkpt lat="53.2504354" lon="-2.0111973"><ele>449.0</ele><time>2026-04-18T08:40:34.017Z</time></trkpt><trkpt lat="53.2504398" lon="-2.0114551"><ele>446.0</ele><time>2026-04-18T08:40:35.019Z</time></trkpt><trkpt lat="53.2504316" lon="-2.0117176"><ele>443.0</ele><time>2026-04-18T08:40:36.018Z</time></trkpt><trkpt lat="53.250411" lon="-2.0119898"><ele>440.0</ele><time>2026-04-18T08:40:37.017Z</time></trkpt><trkpt lat="53.2503769" lon="-2.0122646"><ele>438.0</ele><time>2026-04-18T08:40:38.017Z</time></trkpt><trkpt lat="53.2503381" lon="-2.0125324"><ele>436.0</ele><time>2026-04-18T08:40:39.016Z</time></trkpt><trkpt lat="53.2503112" lon="-2.0127989"><ele>434.0</ele><time>2026-04-18T08:40:40.02Z</time></trkpt><trkpt lat="53.2502996" lon="-2.0130632"><ele>431.0</ele><time>2026-04-18T08:40:41.018Z</time></trkpt><trkpt lat="53.2502979" lon="-2.0133413"><ele>428.0</ele><time>2026-04-18T08:40:42.017Z</time></trkpt><trkpt lat="53.2502907" lon="-2.0136304"><ele>425.0</ele><time>2026-04-18T08:40:43.021Z</time></trkpt><trkpt lat="53.2502742" lon="-2.0139266"><ele>423.0</ele><time>2026-04-18T08:40:44.017Z</time></trkpt><trkpt lat="53.2502511" lon="-2.0142396"><ele>421.0</ele><time>2026-04-18T08:40:45.018Z</time></trkpt><trkpt lat="53.2502263" lon="-2.0145589"><ele>419.0</ele><time>2026-04-18T08:40:46.021Z</time></trkpt><trkpt lat="53.2502076" lon="-2.0148749"><ele>418.0</ele><time>2026-04-18T08:40:47.019Z</time></trkpt><trkpt lat="53.2501949" lon="-2.0151839"><ele>417.0</ele><time>2026-04-18T08:40:48.02Z</time></trkpt><trkpt lat="53.2501896" lon="-2.0154812"><ele>416.0</ele><time>2026-04-18T08:40:49.02Z</time></trkpt><trkpt lat="53.2501903" lon="-2.0157651"><ele>415.0</ele><time>2026-04-18T08:40:50.02Z</time></trkpt><trkpt lat="53.2501904" lon="-2.0160302"><ele>414.0</ele><time>2026-04-18T08:40:51.019Z</time></trkpt><trkpt lat="53.2501909" lon="-2.0162787"><ele>413.0</ele><time>2026-04-18T08:40:52.02Z</time></trkpt><trkpt lat="53.2501949" lon="-2.0165241"><ele>412.66666666666663</ele><time>2026-04-18T08:40:53.022Z</time></trkpt><trkpt lat="53.2502055" lon="-2.016778"><ele>412.33333333333337</ele><time>2026-04-18T08:40:54.022Z</time></trkpt><trkpt lat="53.2502337" lon="-2.0170415"><ele>412.0</ele><time>2026-04-18T08:40:55.02Z</time></trkpt><trkpt lat="53.2502792" lon="-2.0173233"><ele>410.33333333333337</ele><time>2026-04-18T08:40:56.022Z</time></trkpt><trkpt lat="53.2503401" lon="-2.0176216"><ele>408.66666666666663</ele><time>2026-04-18T08:40:57.025Z</time></trkpt><trkpt lat="53.2504031" lon="-2.0179314"><ele>407.0</ele><time>2026-04-18T08:40:58.023Z</time></trkpt><trkpt lat="53.2504677" lon="-2.018236"><ele>404.3333333333333</ele><time>2026-04-18T08:40:59.024Z</time></trkpt><trkpt lat="53.2505273" lon="-2.0185256"><ele>401.66666666666663</ele><time>2026-04-18T08:41:00.025Z</time></trkpt><trkpt lat="53.2505768" lon="-2.0188022"><ele>399.0</ele><time>2026-04-18T08:41:01.023Z</time></trkpt><trkpt lat="53.250616" lon="-2.0190662"><ele>397.33333333333337</ele><time>2026-04-18T08:41:02.025Z</time></trkpt><trkpt lat="53.2506464" lon="-2.0193291"><ele>395.6666666666667</ele><time>2026-04-18T08:41:03.028Z</time></trkpt><trkpt lat="53.2506671" lon="-2.0195951"><ele>394.0</ele><time>2026-04-18T08:41:04.024Z</time></trkpt><trkpt lat="53.2506722" lon="-2.0198599"><ele>393.33333333333337</ele><time>2026-04-18T08:41:05.025Z</time></trkpt><trkpt lat="53.2506568" lon="-2.0201235"><ele>392.66666666666663</ele><time>2026-04-18T08:41:06.024Z</time></trkpt><trkpt lat="53.2506276" lon="-2.0203806"><ele>392.0</ele><time>2026-04-18T08:41:07.024Z</time></trkpt><trkpt lat="53.2505935" lon="-2.0206426"><ele>391.3333333333333</ele><time>2026-04-18T08:41:08.028Z</time></trkpt><trkpt lat="53.2505544" lon="-2.0209121"><ele>390.66666666666663</ele><time>2026-04-18T08:41:09.024Z</time></trkpt><trkpt lat="53.2505171" lon="-2.0211916"><ele>390.0</ele><time>2026-04-18T08:41:10.024Z</time></trkpt><trkpt lat="53.2504784" lon="-2.0214786"><ele>388.66666666666663</ele><time>2026-04-18T08:41:11.024Z</time></trkpt><trkpt lat="53.2504417" lon="-2.0217656"><ele>387.3333333333333</ele><time>2026-04-18T08:41:12.025Z</time></trkpt><trkpt lat="53.2504099" lon="-2.0220482"><ele>386.0</ele><time>2026-04-18T08:41:13.028Z</time></trkpt><trkpt lat="53.2503784" lon="-2.0223187"><ele>385.25</ele><time>2026-04-18T08:41:14.024Z</time></trkpt><trkpt lat="53.2503499" lon="-2.0225737"><ele>384.5</ele><time>2026-04-18T08:41:15.022Z</time></trkpt><trkpt lat="53.250323" lon="-2.0228196"><ele>383.75</ele><time>2026-04-18T08:41:16.024Z</time></trkpt><trkpt lat="53.2502981" lon="-2.0230545"><ele>383.0</ele><time>2026-04-18T08:41:17.024Z</time></trkpt><trkpt lat="53.2502738" lon="-2.0232765"><ele>381.25</ele><time>2026-04-18T08:41:18.025Z</time></trkpt><trkpt lat="53.2502479" lon="-2.023491"><ele>379.5</ele><time>2026-04-18T08:41:19.023Z</time></trkpt><trkpt lat="53.2502194" lon="-2.023705"><ele>377.75</ele><time>2026-04-18T08:41:20.024Z</time></trkpt><trkpt lat="53.2501895" lon="-2.0239179"><ele>376.0</ele><time>2026-04-18T08:41:21.024Z</time></trkpt><trkpt lat="53.250163" lon="-2.024122"><ele>374.75</ele><time>2026-04-18T08:41:22.023Z</time></trkpt><trkpt lat="53.2501411" lon="-2.0243221"><ele>373.5</ele><time>2026-04-18T08:41:23.028Z</time></trkpt><trkpt lat="53.2501223" lon="-2.0245297"><ele>372.25</ele><time>2026-04-18T08:41:24.025Z</time></trkpt><trkpt lat="53.2501024" lon="-2.0247503"><ele>371.0</ele><time>2026-04-18T08:41:25.022Z</time></trkpt><trkpt lat="53.2500701" lon="-2.0249768"><ele>370.33333333333337</ele><time>2026-04-18T08:41:26.022Z</time></trkpt><trkpt lat="53.2500151" lon="-2.025202"><ele>369.6666666666667</ele><time>2026-04-18T08:41:27.023Z</time></trkpt><trkpt lat="53.2499248" lon="-2.0254114"><ele>369.0</ele><time>2026-04-18T08:41:28.022Z</time></trkpt><trkpt lat="53.2498006" lon="-2.025593"><ele>367.6666666666667</ele><time>2026-04-18T08:41:29.024Z</time></trkpt><trkpt lat="53.2496721" lon="-2.0257607"><ele>366.33333333333337</ele><time>2026-04-18T08:41:30.024Z</time></trkpt><trkpt lat="53.249553" lon="-2.0259301"><ele>365.0</ele><time>2026-04-18T08:41:31.023Z</time></trkpt><trkpt lat="53.24945" lon="-2.0261133"><ele>364.6666666666667</ele><time>2026-04-18T08:41:32.022Z</time></trkpt><trkpt lat="53.2493656" lon="-2.0263255"><ele>364.3333333333333</ele><time>2026-04-18T08:41:33.024Z</time></trkpt><trkpt lat="53.2492931" lon="-2.0265569"><ele>364.0</ele><time>2026-04-18T08:41:34.021Z</time></trkpt><trkpt lat="53.2492262" lon="-2.0267936"><ele>364.0</ele><time>2026-04-18T08:41:35.023Z</time></trkpt><trkpt lat="53.2491584" lon="-2.0270307"><ele>364.0</ele><time>2026-04-18T08:41:36.02Z</time></trkpt><trkpt lat="53.2490952" lon="-2.0272723"><ele>364.0</ele><time>2026-04-18T08:41:37.021Z</time></trkpt><trkpt lat="53.2490423" lon="-2.0275141"><ele>364.0</ele><time>2026-04-18T08:41:38.022Z</time></trkpt><trkpt lat="53.2490047" lon="-2.0277532"><ele>364.0</ele><time>2026-04-18T08:41:39.02Z</time></trkpt><trkpt lat="53.2489772" lon="-2.0279896"><ele>364.0</ele><time>2026-04-18T08:41:40.024Z</time></trkpt><trkpt lat="53.2489519" lon="-2.0282294"><ele>364.0</ele><time>2026-04-18T08:41:41.023Z</time></trkpt><trkpt lat="53.2489226" lon="-2.0284653"><ele>361.66666666666663</ele><time>2026-04-18T08:41:42.02Z</time></trkpt><trkpt lat="53.2488892" lon="-2.0287039"><ele>359.3333333333333</ele><time>2026-04-18T08:41:43.02Z</time></trkpt><trkpt lat="53.2488531" lon="-2.0289483"><ele>357.0</ele><time>2026-04-18T08:41:44.024Z</time></trkpt><trkpt lat="53.2488119" lon="-2.0291963"><ele>356.3333333333333</ele><time>2026-04-18T08:41:45.024Z</time></trkpt><trkpt lat="53.2487673" lon="-2.0294469"><ele>355.66666666666663</ele><time>2026-04-18T08:41:46.025Z</time></trkpt><trkpt lat="53.2487231" lon="-2.0296953"><ele>355.0</ele><time>2026-04-18T08:41:47.024Z</time></trkpt><trkpt lat="53.2486845" lon="-2.0299288"><ele>354.5</ele><time>2026-04-18T08:41:48.019Z</time></trkpt><trkpt lat="53.2486494" lon="-2.0301445"><ele>354.0</ele><time>2026-04-18T08:41:49.023Z</time></trkpt><trkpt lat="53.2486199" lon="-2.0303436"><ele>353.5</ele><time>2026-04-18T08:41:50.025Z</time></trkpt><trkpt lat="53.2485939" lon="-2.0305293"><ele>353.0</ele><time>2026-04-18T08:41:51.025Z</time></trkpt><trkpt lat="53.2485706" lon="-2.0307045"><ele>353.0</ele><time>2026-04-18T08:41:52.022Z</time></trkpt><trkpt lat="53.2485497" lon="-2.0308604"><ele>353.0</ele><time>2026-04-18T08:41:53.029Z</time></trkpt><trkpt lat="53.2485258" lon="-2.0309928"><ele>353.0</ele><time>2026-04-18T08:41:54.024Z</time></trkpt><trkpt lat="53.2484943" lon="-2.0310983"><ele>353.0</ele><time>2026-04-18T08:41:55.024Z</time></trkpt><trkpt lat="53.2484354" lon="-2.0311879"><ele>353.0</ele><time>2026-04-18T08:41:56.024Z</time></trkpt><trkpt lat="53.2483391" lon="-2.0312805"><ele>353.0</ele><time>2026-04-18T08:41:57.025Z</time></trkpt><trkpt lat="53.2482187" lon="-2.0313887"><ele>353.0</ele><time>2026-04-18T08:41:58.024Z</time></trkpt><trkpt lat="53.2480967" lon="-2.0315035"><ele>353.0</ele><time>2026-04-18T08:41:59.023Z</time></trkpt><trkpt lat="53.2479754" lon="-2.0316236"><ele>353.0</ele><time>2026-04-18T08:42:00.026Z</time></trkpt><trkpt lat="53.2478656" lon="-2.0317305"><ele>353.0</ele><time>2026-04-18T08:42:01.024Z</time></trkpt><trkpt lat="53.2477607" lon="-2.0318378"><ele>352.25</ele><time>2026-04-18T08:42:02.023Z</time></trkpt><trkpt lat="53.2476644" lon="-2.0319553"><ele>351.5</ele><time>2026-04-18T08:42:03.025Z</time></trkpt><trkpt lat="53.2475784" lon="-2.0320928"><ele>350.75</ele><time>2026-04-18T08:42:04.023Z</time></trkpt><trkpt lat="53.2474992" lon="-2.0322275"><ele>350.0</ele><time>2026-04-18T08:42:05.021Z</time></trkpt><trkpt lat="53.2474197" lon="-2.0323443"><ele>350.0</ele><time>2026-04-18T08:42:06.026Z</time></trkpt><trkpt lat="53.2473376" lon="-2.0324452"><ele>350.0</ele><time>2026-04-18T08:42:07.024Z</time></trkpt><trkpt lat="53.2472499" lon="-2.0325374"><ele>350.0</ele><time>2026-04-18T08:42:08.025Z</time></trkpt><trkpt lat="53.2471598" lon="-2.0326169"><ele>350.0</ele><time>2026-04-18T08:42:09.024Z</time></trkpt><trkpt lat="53.2470687" lon="-2.0326718"><ele>350.0</ele><time>2026-04-18T08:42:10.023Z</time></trkpt><trkpt lat="53.2469755" lon="-2.0327074"><ele>349.6</ele><time>2026-04-18T08:42:11.021Z</time></trkpt><trkpt lat="53.2468792" lon="-2.0327291"><ele>349.2</ele><time>2026-04-18T08:42:12.022Z</time></trkpt><trkpt lat="53.2467753" lon="-2.0327381"><ele>348.79999999999995</ele><time>2026-04-18T08:42:13.02Z</time></trkpt><trkpt lat="53.2466585" lon="-2.0327269"><ele>348.4</ele><time>2026-04-18T08:42:14.021Z</time></trkpt><trkpt lat="53.2465293" lon="-2.0326983"><ele>348.0</ele><time>2026-04-18T08:42:15.011Z</time></trkpt><trkpt lat="53.2463983" lon="-2.0326616"><ele>348.0</ele><time>2026-04-18T08:42:16.014Z</time></trkpt><trkpt lat="53.2462679" lon="-2.0326223"><ele>348.0</ele><time>2026-04-18T08:42:17.015Z</time></trkpt><trkpt lat="53.2461295" lon="-2.032602"><ele>348.0</ele><time>2026-04-18T08:42:18.022Z</time></trkpt><trkpt lat="53.2459836" lon="-2.0326129"><ele>348.0</ele><time>2026-04-18T08:42:19.016Z</time></trkpt><trkpt lat="53.2458298" lon="-2.0326496"><ele>348.0</ele><time>2026-04-18T08:42:20.013Z</time></trkpt><trkpt lat="53.2456684" lon="-2.0327012"><ele>348.0</ele><time>2026-04-18T08:42:21.019Z</time></trkpt><trkpt lat="53.2455033" lon="-2.0327538"><ele>348.0</ele><time>2026-04-18T08:42:22.022Z</time></trkpt><trkpt lat="53.2453413" lon="-2.0328009"><ele>346.6666666666667</ele><time>2026-04-18T08:42:23.02Z</time></trkpt><trkpt lat="53.2451807" lon="-2.0328465"><ele>345.33333333333337</ele><time>2026-04-18T08:42:24.02Z</time></trkpt><trkpt lat="53.2450196" lon="-2.0328881"><ele>344.0</ele><time>2026-04-18T08:42:25.019Z</time></trkpt><trkpt lat="53.2448635" lon="-2.0329226"><ele>344.33333333333337</ele><time>2026-04-18T08:42:26.019Z</time></trkpt><trkpt lat="53.2447069" lon="-2.0329507"><ele>344.6666666666667</ele><time>2026-04-18T08:42:27.013Z</time></trkpt><trkpt lat="53.24455" lon="-2.0329606"><ele>345.0</ele><time>2026-04-18T08:42:28.022Z</time></trkpt><trkpt lat="53.2443933" lon="-2.0329362"><ele>345.0</ele><time>2026-04-18T08:42:29.019Z</time></trkpt><trkpt lat="53.2442397" lon="-2.0328728"><ele>345.0</ele><time>2026-04-18T08:42:30.02Z</time></trkpt><trkpt lat="53.2440812" lon="-2.0327879"><ele>345.0</ele><time>2026-04-18T08:42:31.019Z</time></trkpt><trkpt lat="53.243919" lon="-2.0326836"><ele>344.3333333333333</ele><time>2026-04-18T08:42:32.018Z</time></trkpt><trkpt lat="53.2437604" lon="-2.0325644"><ele>343.66666666666663</ele><time>2026-04-18T08:42:33.019Z</time></trkpt><trkpt lat="53.2436024" lon="-2.0324457"><ele>343.0</ele><time>2026-04-18T08:42:34.019Z</time></trkpt><trkpt lat="53.2434439" lon="-2.0323202"><ele>343.0</ele><time>2026-04-18T08:42:35.018Z</time></trkpt><trkpt lat="53.2432848" lon="-2.0321989"><ele>343.0</ele><time>2026-04-18T08:42:36.018Z</time></trkpt><trkpt lat="53.2431237" lon="-2.0320809"><ele>343.0</ele><time>2026-04-18T08:42:37.018Z</time></trkpt><trkpt lat="53.2429598" lon="-2.0319628"><ele>341.66666666666663</ele><time>2026-04-18T08:42:38.024Z</time></trkpt><trkpt lat="53.2427898" lon="-2.0318503"><ele>340.3333333333333</ele><time>2026-04-18T08:42:39.022Z</time></trkpt><trkpt lat="53.242612" lon="-2.0317458"><ele>339.0</ele><time>2026-04-18T08:42:40.022Z</time></trkpt><trkpt lat="53.2424269" lon="-2.0316516"><ele>339.0</ele><time>2026-04-18T08:42:41.021Z</time></trkpt><trkpt lat="53.2422332" lon="-2.0315635"><ele>339.0</ele><time>2026-04-18T08:42:42.024Z</time></trkpt><trkpt lat="53.2420336" lon="-2.0314731"><ele>339.0</ele><time>2026-04-18T08:42:43.02Z</time></trkpt><trkpt lat="53.2418333" lon="-2.0313795"><ele>339.0</ele><time>2026-04-18T08:42:44.021Z</time></trkpt><trkpt lat="53.2416402" lon="-2.0312867"><ele>339.0</ele><time>2026-04-18T08:42:45.021Z</time></trkpt><trkpt lat="53.2414579" lon="-2.0311957"><ele>339.0</ele><time>2026-04-18T08:42:46.022Z</time></trkpt><trkpt lat="53.2412902" lon="-2.0311077"><ele>338.3333333333333</ele><time>2026-04-18T08:42:47.018Z</time></trkpt><trkpt lat="53.2411308" lon="-2.0310056"><ele>337.66666666666663</ele><time>2026-04-18T08:42:48.02Z</time></trkpt><trkpt lat="53.2409742" lon="-2.0308732"><ele>337.0</ele><time>2026-04-18T08:42:49.023Z</time></trkpt><trkpt lat="53.2408167" lon="-2.03071"><ele>337.0</ele><time>2026-04-18T08:42:50.015Z</time></trkpt><trkpt lat="53.2406581" lon="-2.0305305"><ele>337.0</ele><time>2026-04-18T08:42:51.02Z</time></trkpt><trkpt lat="53.2405002" lon="-2.030338"><ele>337.0</ele><time>2026-04-18T08:42:52.021Z</time></trkpt><trkpt lat="53.2403355" lon="-2.0301303"><ele>334.3333333333333</ele><time>2026-04-18T08:42:53.025Z</time></trkpt><trkpt lat="53.2401613" lon="-2.0299087"><ele>331.6666666666667</ele><time>2026-04-18T08:42:54.021Z</time></trkpt><trkpt lat="53.2399811" lon="-2.0296822"><ele>329.0</ele><time>2026-04-18T08:42:55.022Z</time></trkpt><trkpt lat="53.2398012" lon="-2.0294612"><ele>328.6666666666667</ele><time>2026-04-18T08:42:56.02Z</time></trkpt><trkpt lat="53.2396199" lon="-2.0292424"><ele>328.3333333333333</ele><time>2026-04-18T08:42:57.022Z</time></trkpt><trkpt lat="53.2394512" lon="-2.029038"><ele>328.0</ele><time>2026-04-18T08:42:58.023Z</time></trkpt><trkpt lat="53.2393009" lon="-2.0288629"><ele>327.66666666666663</ele><time>2026-04-18T08:42:59.021Z</time></trkpt><trkpt lat="53.239172" lon="-2.0287137"><ele>327.3333333333333</ele><time>2026-04-18T08:43:00.023Z</time></trkpt><trkpt lat="53.2390519" lon="-2.0285574"><ele>327.0</ele><time>2026-04-18T08:43:01.025Z</time></trkpt><trkpt lat="53.2389411" lon="-2.02839"><ele>327.0</ele><time>2026-04-18T08:43:02.024Z</time></trkpt><trkpt lat="53.2388519" lon="-2.0281968"><ele>327.0</ele><time>2026-04-18T08:43:03.026Z</time></trkpt><trkpt lat="53.2387703" lon="-2.0280114"><ele>327.0</ele><time>2026-04-18T08:43:04.026Z</time></trkpt><trkpt lat="53.2386849" lon="-2.0278506"><ele>327.0</ele><time>2026-04-18T08:43:05.024Z</time></trkpt><trkpt lat="53.2385928" lon="-2.027728"><ele>327.0</ele><time>2026-04-18T08:43:06.024Z</time></trkpt><trkpt lat="53.2384903" lon="-2.0276421"><ele>327.0</ele><time>2026-04-18T08:43:07.023Z</time></trkpt><trkpt lat="53.2383762" lon="-2.0275984"><ele>327.0</ele><time>2026-04-18T08:43:08.026Z</time></trkpt><trkpt lat="53.2382541" lon="-2.0276061"><ele>327.0</ele><time>2026-04-18T08:43:09.025Z</time></trkpt><trkpt lat="53.2381219" lon="-2.0276536"><ele>326.5</ele><time>2026-04-18T08:43:10.025Z</time></trkpt><trkpt lat="53.2379821" lon="-2.0277117"><ele>326.0</ele><time>2026-04-18T08:43:11.022Z</time></trkpt><trkpt lat="53.2378363" lon="-2.0277513"><ele>325.5</ele><time>2026-04-18T08:43:12.024Z</time></trkpt><trkpt lat="53.2376914" lon="-2.0277725"><ele>325.0</ele><time>2026-04-18T08:43:13.029Z</time></trkpt><trkpt lat="53.237552" lon="-2.0277719"><ele>325.0</ele><time>2026-04-18T08:43:14.025Z</time></trkpt><trkpt lat="53.2374188" lon="-2.0277468"><ele>325.0</ele><time>2026-04-18T08:43:15.023Z</time></trkpt><trkpt lat="53.2372959" lon="-2.0276845"><ele>325.0</ele><time>2026-04-18T08:43:16.023Z</time></trkpt><trkpt lat="53.2371807" lon="-2.0275782"><ele>325.0</ele><time>2026-04-18T08:43:17.023Z</time></trkpt><trkpt lat="53.2370816" lon="-2.0274283"><ele>325.0</ele><time>2026-04-18T08:43:18.024Z</time></trkpt><trkpt lat="53.2370019" lon="-2.0272418"><ele>325.0</ele><time>2026-04-18T08:43:19.022Z</time></trkpt><trkpt lat="53.2369356" lon="-2.0270502"><ele>325.0</ele><time>2026-04-18T08:43:20.022Z</time></trkpt><trkpt lat="53.2368817" lon="-2.0268763"><ele>325.0</ele><time>2026-04-18T08:43:21.016Z</time></trkpt><trkpt lat="53.236823" lon="-2.0267428"><ele>325.0</ele><time>2026-04-18T08:43:22.022Z</time></trkpt><trkpt lat="53.2367582" lon="-2.026664"><ele>325.0</ele><time>2026-04-18T08:43:23.027Z</time></trkpt><trkpt lat="53.2366762" lon="-2.026645"><ele>325.0</ele><time>2026-04-18T08:43:24.021Z</time></trkpt><trkpt lat="53.2365754" lon="-2.0266848"><ele>325.0</ele><time>2026-04-18T08:43:25.02Z</time></trkpt><trkpt lat="53.2364568" lon="-2.0267628"><ele>325.0</ele><time>2026-04-18T08:43:26.022Z</time></trkpt><trkpt lat="53.2363273" lon="-2.0268538"><ele>325.0</ele><time>2026-04-18T08:43:27.022Z</time></trkpt><trkpt lat="53.2361865" lon="-2.0269429"><ele>325.0</ele><time>2026-04-18T08:43:28.023Z</time></trkpt><trkpt lat="53.2360387" lon="-2.0270246"><ele>325.0</ele><time>2026-04-18T08:43:29.023Z</time></trkpt><trkpt lat="53.2358922" lon="-2.0270971"><ele>325.0</ele><time>2026-04-18T08:43:30.022Z</time></trkpt><trkpt lat="53.2357523" lon="-2.0271532"><ele>325.0</ele><time>2026-04-18T08:43:31.022Z</time></trkpt><trkpt lat="53.2356216" lon="-2.0271826"><ele>325.0</ele><time>2026-04-18T08:43:32.023Z</time></trkpt><trkpt lat="53.2354909" lon="-2.0271665"><ele>325.0</ele><time>2026-04-18T08:43:33.022Z</time></trkpt><trkpt lat="53.2353571" lon="-2.0271099"><ele>325.25</ele><time>2026-04-18T08:43:34.025Z</time></trkpt><trkpt lat="53.2352216" lon="-2.0270402"><ele>325.5</ele><time>2026-04-18T08:43:35.02Z</time></trkpt><trkpt lat="53.2350858" lon="-2.0269714"><ele>325.75</ele><time>2026-04-18T08:43:36.015Z</time></trkpt><trkpt lat="53.234947" lon="-2.0269007"><ele>326.0</ele><time>2026-04-18T08:43:37.022Z</time></trkpt><trkpt lat="53.2348081" lon="-2.0268161"><ele>326.0</ele><time>2026-04-18T08:43:38.023Z</time></trkpt><trkpt lat="53.2346662" lon="-2.0266983"><ele>326.0</ele><time>2026-04-18T08:43:39.023Z</time></trkpt><trkpt lat="53.2345265" lon="-2.0265595"><ele>326.0</ele><time>2026-04-18T08:43:40.026Z</time></trkpt><trkpt lat="53.2343832" lon="-2.0264237"><ele>326.0</ele><time>2026-04-18T08:43:41.019Z</time></trkpt><trkpt lat="53.2342343" lon="-2.0263091"><ele>326.0</ele><time>2026-04-18T08:43:42.019Z</time></trkpt><trkpt lat="53.2340816" lon="-2.0262146"><ele>326.0</ele><time>2026-04-18T08:43:43.017Z</time></trkpt><trkpt lat="53.2339243" lon="-2.0261299"><ele>326.0</ele><time>2026-04-18T08:43:44.02Z</time></trkpt><trkpt lat="53.2337784" lon="-2.0260549"><ele>326.0</ele><time>2026-04-18T08:43:45.021Z</time></trkpt><trkpt lat="53.2336458" lon="-2.0259848"><ele>326.0</ele><time>2026-04-18T08:43:46.022Z</time></trkpt><trkpt lat="53.2335338" lon="-2.025907"><ele>326.0</ele><time>2026-04-18T08:43:47.019Z</time></trkpt><trkpt lat="53.2334367" lon="-2.0258188"><ele>325.8</ele><time>2026-04-18T08:43:48.022Z</time></trkpt><trkpt lat="53.2333506" lon="-2.0257306"><ele>325.6</ele><time>2026-04-18T08:43:49.022Z</time></trkpt><trkpt lat="53.2332659" lon="-2.0256813"><ele>325.4</ele><time>2026-04-18T08:43:50.017Z</time></trkpt><trkpt lat="53.2331721" lon="-2.0256832"><ele>325.2</ele><time>2026-04-18T08:43:51.02Z</time></trkpt><trkpt lat="53.2330625" lon="-2.0257069"><ele>325.0</ele><time>2026-04-18T08:43:52.021Z</time></trkpt><trkpt lat="53.2329437" lon="-2.0257034"><ele>325.0</ele><time>2026-04-18T08:43:53.023Z</time></trkpt><trkpt lat="53.2328256" lon="-2.0256455"><ele>325.0</ele><time>2026-04-18T08:43:54.022Z</time></trkpt><trkpt lat="53.2327215" lon="-2.0255483"><ele>325.0</ele><time>2026-04-18T08:43:55.021Z</time></trkpt><trkpt lat="53.232632" lon="-2.0254307"><ele>325.0</ele><time>2026-04-18T08:43:56.021Z</time></trkpt><trkpt lat="53.2325474" lon="-2.0252844"><ele>325.0</ele><time>2026-04-18T08:43:57.019Z</time></trkpt><trkpt lat="53.2324646" lon="-2.0251358"><ele>325.0</ele><time>2026-04-18T08:43:58.018Z</time></trkpt><trkpt lat="53.2323868" lon="-2.0249792"><ele>325.0</ele><time>2026-04-18T08:43:59.021Z</time></trkpt><trkpt lat="53.2323136" lon="-2.0248029"><ele>325.0</ele><time>2026-04-18T08:44:00.025Z</time></trkpt><trkpt lat="53.2322483" lon="-2.0246077"><ele>325.0</ele><time>2026-04-18T08:44:01.021Z</time></trkpt><trkpt lat="53.2321804" lon="-2.0244062"><ele>325.0</ele><time>2026-04-18T08:44:02.021Z</time></trkpt><trkpt lat="53.2321137" lon="-2.0241991"><ele>325.0</ele><time>2026-04-18T08:44:03.016Z</time></trkpt><trkpt lat="53.2320425" lon="-2.0239995"><ele>325.0</ele><time>2026-04-18T08:44:04.021Z</time></trkpt><trkpt lat="53.2319626" lon="-2.0238093"><ele>327.25</ele><time>2026-04-18T08:44:05.02Z</time></trkpt><trkpt lat="53.2318709" lon="-2.0236363"><ele>329.5</ele><time>2026-04-18T08:44:06.022Z</time></trkpt><trkpt lat="53.2317594" lon="-2.0234893"><ele>331.75</ele><time>2026-04-18T08:44:07.022Z</time></trkpt><trkpt lat="53.2316339" lon="-2.0233575"><ele>334.0</ele><time>2026-04-18T08:44:08.019Z</time></trkpt><trkpt lat="53.2315001" lon="-2.023229"><ele>333.0</ele><time>2026-04-18T08:44:09.021Z</time></trkpt><trkpt lat="53.2313637" lon="-2.0231059"><ele>332.0</ele><time>2026-04-18T08:44:10.021Z</time></trkpt><trkpt lat="53.2312197" lon="-2.0229978"><ele>331.0</ele><time>2026-04-18T08:44:11.016Z</time></trkpt><trkpt lat="53.2310777" lon="-2.0228983"><ele>331.0</ele><time>2026-04-18T08:44:12.017Z</time></trkpt><trkpt lat="53.2309462" lon="-2.0228057"><ele>331.0</ele><time>2026-04-18T08:44:13.021Z</time></trkpt><trkpt lat="53.2308215" lon="-2.0227326"><ele>331.0</ele><time>2026-04-18T08:44:14.018Z</time></trkpt><trkpt lat="53.2306928" lon="-2.0227038"><ele>331.0</ele><time>2026-04-18T08:44:15.019Z</time></trkpt><trkpt lat="53.2305557" lon="-2.0227246"><ele>327.5</ele><time>2026-04-18T08:44:16.02Z</time></trkpt><trkpt lat="53.2304047" lon="-2.022779"><ele>324.0</ele><time>2026-04-18T08:44:17.019Z</time></trkpt><trkpt lat="53.2302618" lon="-2.0228409"><ele>320.5</ele><time>2026-04-18T08:44:18.026Z</time></trkpt><trkpt lat="53.2301291" lon="-2.0228967"><ele>317.0</ele><time>2026-04-18T08:44:19.035Z</time></trkpt><trkpt lat="53.2299992" lon="-2.0229355"><ele>317.0</ele><time>2026-04-18T08:44:20.022Z</time></trkpt><trkpt lat="53.229873" lon="-2.0229585"><ele>317.0</ele><time>2026-04-18T08:44:21.018Z</time></trkpt><trkpt lat="53.2297478" lon="-2.0229525"><ele>317.0</ele><time>2026-04-18T08:44:22.018Z</time></trkpt><trkpt lat="53.2296249" lon="-2.0229125"><ele>317.0</ele><time>2026-04-18T08:44:23.019Z</time></trkpt><trkpt lat="53.2295055" lon="-2.0228331"><ele>317.25</ele><time>2026-04-18T08:44:24.018Z</time></trkpt><trkpt lat="53.2293843" lon="-2.0227151"><ele>317.5</ele><time>2026-04-18T08:44:25.024Z</time></trkpt><trkpt lat="53.2292674" lon="-2.0225788"><ele>317.75</ele><time>2026-04-18T08:44:26.023Z</time></trkpt><trkpt lat="53.2291601" lon="-2.0224295"><ele>318.0</ele><time>2026-04-18T08:44:27.016Z</time></trkpt><trkpt lat="53.2290704" lon="-2.022273"><ele>316.75</ele><time>2026-04-18T08:44:28.019Z</time></trkpt><trkpt lat="53.2289859" lon="-2.0221272"><ele>315.5</ele><time>2026-04-18T08:44:29.019Z</time></trkpt><trkpt lat="53.2288899" lon="-2.0219963"><ele>314.25</ele><time>2026-04-18T08:44:30.022Z</time></trkpt><trkpt lat="53.2287823" lon="-2.0218693"><ele>313.0</ele><time>2026-04-18T08:44:31.02Z</time></trkpt><trkpt lat="53.2286733" lon="-2.0217351"><ele>314.25</ele><time>2026-04-18T08:44:32.022Z</time></trkpt><trkpt lat="53.2285544" lon="-2.0216053"><ele>315.5</ele><time>2026-04-18T08:44:33.023Z</time></trkpt><trkpt lat="53.2284374" lon="-2.0214771"><ele>316.75</ele><time>2026-04-18T08:44:34.021Z</time></trkpt><trkpt lat="53.2283199" lon="-2.0213493"><ele>318.0</ele><time>2026-04-18T08:44:35.02Z</time></trkpt><trkpt lat="53.2282062" lon="-2.0212313"><ele>316.0</ele><time>2026-04-18T08:44:36.022Z</time></trkpt><trkpt lat="53.2280897" lon="-2.0211279"><ele>314.0</ele><time>2026-04-18T08:44:37.021Z</time></trkpt><trkpt lat="53.2279632" lon="-2.0210357"><ele>312.0</ele><time>2026-04-18T08:44:38.022Z</time></trkpt><trkpt lat="53.2278317" lon="-2.0209521"><ele>310.0</ele><time>2026-04-18T08:44:39.02Z</time></trkpt><trkpt lat="53.2277036" lon="-2.0208777"><ele>310.25</ele><time>2026-04-18T08:44:40.021Z</time></trkpt><trkpt lat="53.2275798" lon="-2.0208071"><ele>310.5</ele><time>2026-04-18T08:44:41.019Z</time></trkpt><trkpt lat="53.2274567" lon="-2.0207351"><ele>310.75</ele><time>2026-04-18T08:44:42.02Z</time></trkpt><trkpt lat="53.2273293" lon="-2.0206574"><ele>311.0</ele><time>2026-04-18T08:44:43.022Z</time></trkpt><trkpt lat="53.2271959" lon="-2.0205677"><ele>311.0</ele><time>2026-04-18T08:44:44.012Z</time></trkpt><trkpt lat="53.2270682" lon="-2.0204661"><ele>311.0</ele><time>2026-04-18T08:44:45.02Z</time></trkpt><trkpt lat="53.2269452" lon="-2.020362"><ele>311.0</ele><time>2026-04-18T08:44:46.02Z</time></trkpt><trkpt lat="53.2268247" lon="-2.0202691"><ele>311.0</ele><time>2026-04-18T08:44:47.019Z</time></trkpt><trkpt lat="53.2267014" lon="-2.0202021"><ele>311.0</ele><time>2026-04-18T08:44:48.021Z</time></trkpt><trkpt lat="53.226577" lon="-2.0201562"><ele>311.0</ele><time>2026-04-18T08:44:49.022Z</time></trkpt><trkpt lat="53.2264466" lon="-2.0201364"><ele>311.0</ele><time>2026-04-18T08:44:50.021Z</time></trkpt><trkpt lat="53.2263166" lon="-2.0201181"><ele>311.0</ele><time>2026-04-18T08:44:51.022Z</time></trkpt><trkpt lat="53.2261852" lon="-2.0200915"><ele>309.75</ele><time>2026-04-18T08:44:52.024Z</time></trkpt><trkpt lat="53.2260566" lon="-2.0200696"><ele>308.5</ele><time>2026-04-18T08:44:53.016Z</time></trkpt><trkpt lat="53.2259323" lon="-2.0200493"><ele>307.25</ele><time>2026-04-18T08:44:54.02Z</time></trkpt><trkpt lat="53.2258131" lon="-2.0200264"><ele>306.0</ele><time>2026-04-18T08:44:55.021Z</time></trkpt><trkpt lat="53.2256962" lon="-2.0199937"><ele>306.6</ele><time>2026-04-18T08:44:56.022Z</time></trkpt><trkpt lat="53.2255818" lon="-2.0199499"><ele>307.20000000000005</ele><time>2026-04-18T08:44:57.02Z</time></trkpt><trkpt lat="53.2254755" lon="-2.0199016"><ele>307.79999999999995</ele><time>2026-04-18T08:44:58.02Z</time></trkpt><trkpt lat="53.2253751" lon="-2.0198519"><ele>308.4</ele><time>2026-04-18T08:44:59.021Z</time></trkpt><trkpt lat="53.225275" lon="-2.0198006"><ele>309.0</ele><time>2026-04-18T08:45:00.025Z</time></trkpt><trkpt lat="53.2251775" lon="-2.0197433"><ele>309.00000000000006</ele><time>2026-04-18T08:45:01.023Z</time></trkpt><trkpt lat="53.2250911" lon="-2.0196911"><ele>309.0</ele><time>2026-04-18T08:45:02.024Z</time></trkpt><trkpt lat="53.225023" lon="-2.0196472"><ele>309.0</ele><time>2026-04-18T08:45:03.023Z</time></trkpt><trkpt lat="53.2249554" lon="-2.0195827"><ele>309.0</ele><time>2026-04-18T08:45:05.022Z</time></trkpt><trkpt lat="53.2250012" lon="-2.0195071"><ele>309.0</ele><time>2026-04-18T08:45:37.025Z</time></trkpt><trkpt lat="53.2249994" lon="-2.0193936"><ele>309.00000000000006</ele><time>2026-04-18T08:45:41.023Z</time></trkpt><trkpt lat="53.2250059" lon="-2.0195102"><ele>309.0</ele><time>2026-04-18T08:45:52.026Z</time></trkpt><trkpt lat="53.2249919" lon="-2.0194013"><ele>309.0</ele><time>2026-04-18T08:46:21.025Z</time></trkpt><trkpt lat="53.2249796" lon="-2.0192023"><ele>309.0</ele><time>2026-04-18T08:48:51.023Z</time></trkpt><trkpt lat="53.2249718" lon="-2.0190726"><ele>309.0</ele><time>2026-04-18T08:48:52.021Z</time></trkpt><trkpt lat="53.2249566" lon="-2.0189279"><ele>309.0</ele><time>2026-04-18T08:48:53.032Z</time></trkpt><trkpt lat="53.2249343" lon="-2.0187761"><ele>309.0</ele><time>2026-04-18T08:48:54.025Z</time></trkpt><trkpt lat="53.2249117" lon="-2.0186269"><ele>309.8333333333333</ele><time>2026-04-18T08:48:55.023Z</time></trkpt><trkpt lat="53.2248913" lon="-2.018489"><ele>310.6666666666667</ele><time>2026-04-18T08:48:56.025Z</time></trkpt><trkpt lat="53.2248782" lon="-2.0183593"><ele>311.5</ele><time>2026-04-18T08:48:57.023Z</time></trkpt><trkpt lat="53.2248792" lon="-2.018229"><ele>312.33333333333337</ele><time>2026-04-18T08:48:58.022Z</time></trkpt><trkpt lat="53.2248952" lon="-2.0181"><ele>313.1666666666667</ele><time>2026-04-18T08:48:59.024Z</time></trkpt><trkpt lat="53.224923" lon="-2.0179764"><ele>314.0</ele><time>2026-04-18T08:49:00.027Z</time></trkpt><trkpt lat="53.2249533" lon="-2.0178425"><ele>314.4</ele><time>2026-04-18T08:49:01.027Z</time></trkpt><trkpt lat="53.2249774" lon="-2.0176903"><ele>314.79999999999995</ele><time>2026-04-18T08:49:02.026Z</time></trkpt><trkpt lat="53.2249943" lon="-2.0175277"><ele>315.20000000000005</ele><time>2026-04-18T08:49:03.026Z</time></trkpt><trkpt lat="53.2250076" lon="-2.0173595"><ele>315.6</ele><time>2026-04-18T08:49:04.023Z</time></trkpt><trkpt lat="53.2250207" lon="-2.0172072"><ele>316.0</ele><time>2026-04-18T08:49:05.025Z</time></trkpt><trkpt lat="53.2250374" lon="-2.0170752"><ele>316.8333333333333</ele><time>2026-04-18T08:49:06.029Z</time></trkpt><trkpt lat="53.2250605" lon="-2.016963"><ele>317.66666666666663</ele><time>2026-04-18T08:49:07.027Z</time></trkpt><trkpt lat="53.2250895" lon="-2.0168629"><ele>318.5</ele><time>2026-04-18T08:49:08.027Z</time></trkpt><trkpt lat="53.2251448" lon="-2.0167093"><ele>319.3333333333333</ele><time>2026-04-18T08:49:10.029Z</time></trkpt><trkpt lat="53.2251875" lon="-2.0166044"><ele>320.1666666666667</ele><time>2026-04-18T08:49:12.022Z</time></trkpt><trkpt lat="53.2252573" lon="-2.0165239"><ele>321.0</ele><time>2026-04-18T08:49:14.02Z</time></trkpt><trkpt lat="53.2252904" lon="-2.0163928"><ele>322.5</ele><time>2026-04-18T08:49:16.024Z</time></trkpt><trkpt lat="53.2252574" lon="-2.0162164"><ele>324.0</ele><time>2026-04-18T08:49:18.02Z</time></trkpt><trkpt lat="53.2252524" lon="-2.0161089"><ele>325.5</ele><time>2026-04-18T08:49:19.02Z</time></trkpt><trkpt lat="53.2252609" lon="-2.0159774"><ele>327.0</ele><time>2026-04-18T08:49:20.021Z</time></trkpt><trkpt lat="53.2252759" lon="-2.0158336"><ele>328.5</ele><time>2026-04-18T08:49:21.021Z</time></trkpt><trkpt lat="53.2252858" lon="-2.0156617"><ele>330.0</ele><time>2026-04-18T08:49:22.021Z</time></trkpt><trkpt lat="53.2252979" lon="-2.0155079"><ele>331.8</ele><time>2026-04-18T08:49:23.021Z</time></trkpt><trkpt lat="53.2253097" lon="-2.0153959"><ele>333.6</ele><time>2026-04-18T08:49:24.021Z</time></trkpt><trkpt lat="53.2253444" lon="-2.0152784"><ele>335.4</ele><time>2026-04-18T08:49:47.018Z</time></trkpt><trkpt lat="53.2253692" lon="-2.0151675"><ele>337.2</ele><time>2026-04-18T08:50:06.024Z</time></trkpt><trkpt lat="53.2253919" lon="-2.0149357"><ele>339.0</ele><time>2026-04-18T08:50:08.022Z</time></trkpt><trkpt lat="53.22541" lon="-2.0147784"><ele>341.25</ele><time>2026-04-18T08:50:09.022Z</time></trkpt><trkpt lat="53.2254387" lon="-2.0146042"><ele>343.5</ele><time>2026-04-18T08:50:10.027Z</time></trkpt><trkpt lat="53.2254686" lon="-2.0144148"><ele>345.75</ele><time>2026-04-18T08:50:11.019Z</time></trkpt><trkpt lat="53.225496" lon="-2.0142129"><ele>348.0</ele><time>2026-04-18T08:50:12.018Z</time></trkpt><trkpt lat="53.2255124" lon="-2.0140129"><ele>349.1666666666667</ele><time>2026-04-18T08:50:13.021Z</time></trkpt><trkpt lat="53.2255247" lon="-2.0138361"><ele>350.3333333333333</ele><time>2026-04-18T08:50:14.02Z</time></trkpt><trkpt lat="53.225541" lon="-2.013683"><ele>351.5</ele><time>2026-04-18T08:50:15.019Z</time></trkpt><trkpt lat="53.2255591" lon="-2.013547"><ele>352.66666666666663</ele><time>2026-04-18T08:50:16.023Z</time></trkpt><trkpt lat="53.2255818" lon="-2.0134166"><ele>353.8333333333333</ele><time>2026-04-18T08:50:17.019Z</time></trkpt><trkpt lat="53.2256097" lon="-2.0132877"><ele>355.0</ele><time>2026-04-18T08:50:18.017Z</time></trkpt><trkpt lat="53.2256437" lon="-2.0131647"><ele>354.8333333333333</ele><time>2026-04-18T08:50:19.019Z</time></trkpt><trkpt lat="53.2256718" lon="-2.0130477"><ele>354.66666666666663</ele><time>2026-04-18T08:50:20.018Z</time></trkpt><trkpt lat="53.2256934" lon="-2.0129399"><ele>354.5</ele><time>2026-04-18T08:50:21.017Z</time></trkpt><trkpt lat="53.2257269" lon="-2.012751"><ele>354.3333333333333</ele><time>2026-04-18T08:50:23.021Z</time></trkpt><trkpt lat="53.2257446" lon="-2.0125641"><ele>354.1666666666667</ele><time>2026-04-18T08:50:25.019Z</time></trkpt><trkpt lat="53.225752" lon="-2.0124577"><ele>354.0</ele><time>2026-04-18T08:50:26.021Z</time></trkpt><trkpt lat="53.2257745" lon="-2.0122718"><ele>354.3333333333333</ele><time>2026-04-18T08:50:28.017Z</time></trkpt><trkpt lat="53.2257989" lon="-2.0121643"><ele>354.6666666666667</ele><time>2026-04-18T08:50:30.02Z</time></trkpt><trkpt lat="53.2258177" lon="-2.0120603"><ele>355.0</ele><time>2026-04-18T08:50:32.02Z</time></trkpt><trkpt lat="53.2258174" lon="-2.0119323"><ele>355.33333333333337</ele><time>2026-04-18T08:50:34.019Z</time></trkpt><trkpt lat="53.2258185" lon="-2.0117922"><ele>355.6666666666667</ele><time>2026-04-18T08:50:37.018Z</time></trkpt><trkpt lat="53.2257979" lon="-2.011692"><ele>356.0</ele><time>2026-04-18T08:51:05.02Z</time></trkpt><trkpt lat="53.2258228" lon="-2.0114906"><ele>357.20000000000005</ele><time>2026-04-18T08:51:07.022Z</time></trkpt><trkpt lat="53.2258535" lon="-2.0113544"><ele>358.40000000000003</ele><time>2026-04-18T08:51:08.021Z</time></trkpt><trkpt lat="53.2258922" lon="-2.0112046"><ele>359.6</ele><time>2026-04-18T08:51:09.021Z</time></trkpt><trkpt lat="53.2259321" lon="-2.0110493"><ele>360.8</ele><time>2026-04-18T08:51:10.021Z</time></trkpt><trkpt lat="53.2259682" lon="-2.0108918"><ele>362.0</ele><time>2026-04-18T08:51:11.017Z</time></trkpt><trkpt lat="53.2259941" lon="-2.0107439"><ele>363.0</ele><time>2026-04-18T08:51:12.017Z</time></trkpt><trkpt lat="53.2260172" lon="-2.0106383"><ele>364.0</ele><time>2026-04-18T08:51:13.021Z</time></trkpt><trkpt lat="53.2260521" lon="-2.0104846"><ele>365.0</ele><time>2026-04-18T08:51:15.017Z</time></trkpt><trkpt lat="53.2260686" lon="-2.0103122"><ele>366.0</ele><time>2026-04-18T08:51:17.017Z</time></trkpt><trkpt lat="53.2260842" lon="-2.0101196"><ele>367.0</ele><time>2026-04-18T08:51:19.017Z</time></trkpt><trkpt lat="53.2261002" lon="-2.0099274"><ele>368.0</ele><time>2026-04-18T08:51:21.019Z</time></trkpt><trkpt lat="53.2261108" lon="-2.009721"><ele>369.0</ele><time>2026-04-18T08:51:23.019Z</time></trkpt><trkpt lat="53.2261207" lon="-2.0095187"><ele>370.0</ele><time>2026-04-18T08:51:25.02Z</time></trkpt><trkpt lat="53.2261358" lon="-2.0093258"><ele>371.0</ele><time>2026-04-18T08:51:27.021Z</time></trkpt><trkpt lat="53.2261462" lon="-2.0091334"><ele>372.1666666666667</ele><time>2026-04-18T08:51:29.023Z</time></trkpt><trkpt lat="53.2261754" lon="-2.0089409"><ele>373.33333333333337</ele><time>2026-04-18T08:51:31.025Z</time></trkpt><trkpt lat="53.2261883" lon="-2.0088374"><ele>374.5</ele><time>2026-04-18T08:51:32.025Z</time></trkpt><trkpt lat="53.2261995" lon="-2.0087296"><ele>375.6666666666667</ele><time>2026-04-18T08:51:33.016Z</time></trkpt><trkpt lat="53.2262137" lon="-2.0086257"><ele>376.8333333333333</ele><time>2026-04-18T08:51:34.025Z</time></trkpt><trkpt lat="53.2262518" lon="-2.0084353"><ele>378.0</ele><time>2026-04-18T08:51:36.025Z</time></trkpt><trkpt lat="53.2262851" lon="-2.0082402"><ele>378.79999999999995</ele><time>2026-04-18T08:51:38.021Z</time></trkpt><trkpt lat="53.2263113" lon="-2.0080824"><ele>379.6</ele><time>2026-04-18T08:51:40.025Z</time></trkpt><trkpt lat="53.2263317" lon="-2.0079254"><ele>380.4</ele><time>2026-04-18T08:51:42.017Z</time></trkpt><trkpt lat="53.2263398" lon="-2.0077026"><ele>381.20000000000005</ele><time>2026-04-18T08:51:44.026Z</time></trkpt><trkpt lat="53.2263352" lon="-2.0075645"><ele>382.0</ele><time>2026-04-18T08:51:45.025Z</time></trkpt><trkpt lat="53.2263314" lon="-2.0074222"><ele>382.3333333333333</ele><time>2026-04-18T08:51:46.022Z</time></trkpt><trkpt lat="53.2263356" lon="-2.007281"><ele>382.66666666666663</ele><time>2026-04-18T08:51:47.02Z</time></trkpt><trkpt lat="53.2263527" lon="-2.0071475"><ele>383.0</ele><time>2026-04-18T08:51:48.022Z</time></trkpt><trkpt lat="53.2263809" lon="-2.0070204"><ele>383.3333333333333</ele><time>2026-04-18T08:51:49.019Z</time></trkpt><trkpt lat="53.2264093" lon="-2.0068924"><ele>383.6666666666667</ele><time>2026-04-18T08:51:50.017Z</time></trkpt><trkpt lat="53.2264257" lon="-2.0067648"><ele>384.0</ele><time>2026-04-18T08:51:51.021Z</time></trkpt><trkpt lat="53.2264316" lon="-2.0066315"><ele>384.8333333333333</ele><time>2026-04-18T08:51:52.022Z</time></trkpt><trkpt lat="53.2264322" lon="-2.0064991"><ele>385.66666666666663</ele><time>2026-04-18T08:51:53.023Z</time></trkpt><trkpt lat="53.226434" lon="-2.0063693"><ele>386.5</ele><time>2026-04-18T08:51:54.022Z</time></trkpt><trkpt lat="53.2264348" lon="-2.0062355"><ele>387.3333333333333</ele><time>2026-04-18T08:51:55.022Z</time></trkpt><trkpt lat="53.2264451" lon="-2.0061089"><ele>388.16666666666663</ele><time>2026-04-18T08:51:56.021Z</time></trkpt><trkpt lat="53.2264601" lon="-2.0059761"><ele>389.0</ele><time>2026-04-18T08:51:57.024Z</time></trkpt><trkpt lat="53.226483" lon="-2.005848"><ele>389.42857142857144</ele><time>2026-04-18T08:51:58.016Z</time></trkpt><trkpt lat="53.226509" lon="-2.0057234"><ele>389.85714285714283</ele><time>2026-04-18T08:51:59.021Z</time></trkpt><trkpt lat="53.2265361" lon="-2.0056022"><ele>390.2857142857143</ele><time>2026-04-18T08:52:00.021Z</time></trkpt><trkpt lat="53.226563" lon="-2.0054871"><ele>390.7142857142857</ele><time>2026-04-18T08:52:01.024Z</time></trkpt><trkpt lat="53.2265965" lon="-2.0053863"><ele>391.1428571428571</ele><time>2026-04-18T08:52:02.017Z</time></trkpt><trkpt lat="53.2266411" lon="-2.0053082"><ele>391.57142857142856</ele><time>2026-04-18T08:52:03.023Z</time></trkpt><trkpt lat="53.2266936" lon="-2.0052354"><ele>392.0</ele><time>2026-04-18T08:52:04.023Z</time></trkpt><trkpt lat="53.2267444" lon="-2.0051503"><ele>392.0</ele><time>2026-04-18T08:52:05.021Z</time></trkpt><trkpt lat="53.2267818" lon="-2.0050566"><ele>392.0</ele><time>2026-04-18T08:52:06.022Z</time></trkpt><trkpt lat="53.2268212" lon="-2.0048851"><ele>392.0</ele><time>2026-04-18T08:52:08.022Z</time></trkpt><trkpt lat="53.2268118" lon="-2.0047668"><ele>392.0</ele><time>2026-04-18T08:53:11.021Z</time></trkpt><trkpt lat="53.226781" lon="-2.0046185"><ele>392.0</ele><time>2026-04-18T08:53:13.021Z</time></trkpt><trkpt lat="53.2266918" lon="-2.0044949"><ele>393.8</ele><time>2026-04-18T08:53:15.014Z</time></trkpt><trkpt lat="53.2266288" lon="-2.0045143"><ele>395.6</ele><time>2026-04-18T08:53:16.02Z</time></trkpt><trkpt lat="53.2265677" lon="-2.0046021"><ele>397.40000000000003</ele><time>2026-04-18T08:53:17.017Z</time></trkpt><trkpt lat="53.2265065" lon="-2.0047418"><ele>399.20000000000005</ele><time>2026-04-18T08:53:18.018Z</time></trkpt><trkpt lat="53.2264328" lon="-2.0048909"><ele>401.0</ele><time>2026-04-18T08:53:19.014Z</time></trkpt><trkpt lat="53.2263437" lon="-2.0050287"><ele>401.4</ele><time>2026-04-18T08:53:20.019Z</time></trkpt><trkpt lat="53.2262406" lon="-2.005127"><ele>401.8</ele><time>2026-04-18T08:53:21.019Z</time></trkpt><trkpt lat="53.2261349" lon="-2.005182"><ele>402.2</ele><time>2026-04-18T08:53:22.019Z</time></trkpt><trkpt lat="53.226035" lon="-2.0052263"><ele>402.59999999999997</ele><time>2026-04-18T08:53:23.028Z</time></trkpt><trkpt lat="53.2259391" lon="-2.0052828"><ele>403.0</ele><time>2026-04-18T08:53:24.017Z</time></trkpt><trkpt lat="53.2258491" lon="-2.0053496"><ele>403.00000000000006</ele><time>2026-04-18T08:53:25.017Z</time></trkpt><trkpt lat="53.2257642" lon="-2.0054088"><ele>403.0</ele><time>2026-04-18T08:53:26.023Z</time></trkpt><trkpt lat="53.2256829" lon="-2.0054453"><ele>403.0</ele><time>2026-04-18T08:53:27.024Z</time></trkpt><trkpt lat="53.2256072" lon="-2.0054624"><ele>403.0</ele><time>2026-04-18T08:53:28.025Z</time></trkpt><trkpt lat="53.2254995" lon="-2.0054773"><ele>403.00000000000006</ele><time>2026-04-18T08:53:30.019Z</time></trkpt><trkpt lat="53.2254173" lon="-2.0054767"><ele>403.0</ele><time>2026-04-18T08:53:32.025Z</time></trkpt><trkpt lat="53.2253271" lon="-2.0054559"><ele>405.0</ele><time>2026-04-18T08:53:34.025Z</time></trkpt><trkpt lat="53.2252145" lon="-2.0053983"><ele>407.0</ele><time>2026-04-18T08:53:36.026Z</time></trkpt><trkpt lat="53.2251461" lon="-2.0053511"><ele>409.0</ele><time>2026-04-18T08:53:37.028Z</time></trkpt><trkpt lat="53.2250725" lon="-2.0052767"><ele>411.0</ele><time>2026-04-18T08:53:38.027Z</time></trkpt><trkpt lat="53.2250016" lon="-2.0051765"><ele>413.0</ele><time>2026-04-18T08:53:39.027Z</time></trkpt><trkpt lat="53.224934" lon="-2.0050669"><ele>413.99999999999994</ele><time>2026-04-18T08:53:40.023Z</time></trkpt><trkpt lat="53.2248763" lon="-2.004951"><ele>415.0</ele><time>2026-04-18T08:53:41.024Z</time></trkpt><trkpt lat="53.2248267" lon="-2.0048309"><ele>416.0</ele><time>2026-04-18T08:53:42.024Z</time></trkpt><trkpt lat="53.2247781" lon="-2.0047049"><ele>417.0</ele><time>2026-04-18T08:53:43.03Z</time></trkpt><trkpt lat="53.22473" lon="-2.0045811"><ele>417.99999999999994</ele><time>2026-04-18T08:53:44.026Z</time></trkpt><trkpt lat="53.2246874" lon="-2.0044775"><ele>419.0</ele><time>2026-04-18T08:53:45.025Z</time></trkpt><trkpt lat="53.2246003" lon="-2.0043224"><ele>418.99999999999994</ele><time>2026-04-18T08:53:47.017Z</time></trkpt><trkpt lat="53.2245477" lon="-2.0042504"><ele>419.0</ele><time>2026-04-18T08:53:48.026Z</time></trkpt><trkpt lat="53.2244837" lon="-2.0041892"><ele>419.0</ele><time>2026-04-18T08:53:49.021Z</time></trkpt><trkpt lat="53.2244174" lon="-2.0041256"><ele>419.0</ele><time>2026-04-18T08:53:50.027Z</time></trkpt><trkpt lat="53.2243595" lon="-2.0040488"><ele>418.99999999999994</ele><time>2026-04-18T08:53:51.025Z</time></trkpt><trkpt lat="53.2243126" lon="-2.0039497"><ele>419.0</ele><time>2026-04-18T08:53:52.022Z</time></trkpt><trkpt lat="53.2242819" lon="-2.0038197"><ele>419.85714285714283</ele><time>2026-04-18T08:53:53.029Z</time></trkpt><trkpt lat="53.2242603" lon="-2.0036789"><ele>420.7142857142857</ele><time>2026-04-18T08:53:54.028Z</time></trkpt><trkpt lat="53.2242381" lon="-2.0035454"><ele>421.57142857142856</ele><time>2026-04-18T08:53:55.027Z</time></trkpt><trkpt lat="53.2242088" lon="-2.0034324"><ele>422.42857142857144</ele><time>2026-04-18T08:53:56.026Z</time></trkpt><trkpt lat="53.2241738" lon="-2.0033388"><ele>423.2857142857143</ele><time>2026-04-18T08:53:57.025Z</time></trkpt><trkpt lat="53.2241344" lon="-2.0032463"><ele>424.1428571428571</ele><time>2026-04-18T08:53:58.024Z</time></trkpt><trkpt lat="53.224092" lon="-2.0031511"><ele>425.0</ele><time>2026-04-18T08:53:59.026Z</time></trkpt><trkpt lat="53.2240457" lon="-2.0030502"><ele>426.8333333333333</ele><time>2026-04-18T08:54:00.027Z</time></trkpt><trkpt lat="53.2239963" lon="-2.0029557"><ele>428.66666666666663</ele><time>2026-04-18T08:54:01.031Z</time></trkpt><trkpt lat="53.2239402" lon="-2.0028852"><ele>430.5</ele><time>2026-04-18T08:54:02.029Z</time></trkpt><trkpt lat="53.2238761" lon="-2.0028455"><ele>432.33333333333337</ele><time>2026-04-18T08:54:03.031Z</time></trkpt><trkpt lat="53.2238026" lon="-2.0028331"><ele>434.1666666666667</ele><time>2026-04-18T08:54:04.031Z</time></trkpt><trkpt lat="53.2237217" lon="-2.0028297"><ele>436.0</ele><time>2026-04-18T08:54:05.027Z</time></trkpt><trkpt lat="53.2236354" lon="-2.002821"><ele>436.50000000000006</ele><time>2026-04-18T08:54:06.028Z</time></trkpt><trkpt lat="53.2235522" lon="-2.0027987"><ele>437.0</ele><time>2026-04-18T08:54:07.029Z</time></trkpt><trkpt lat="53.2234764" lon="-2.0027739"><ele>437.5</ele><time>2026-04-18T08:54:08.03Z</time></trkpt><trkpt lat="53.2234035" lon="-2.0027426"><ele>438.0</ele><time>2026-04-18T08:54:09.026Z</time></trkpt><trkpt lat="53.2233299" lon="-2.0027063"><ele>438.50000000000006</ele><time>2026-04-18T08:54:10.03Z</time></trkpt><trkpt lat="53.2232528" lon="-2.0026613"><ele>439.0</ele><time>2026-04-18T08:54:11.026Z</time></trkpt><trkpt lat="53.223167" lon="-2.0026035"><ele>439.79999999999995</ele><time>2026-04-18T08:54:12.026Z</time></trkpt><trkpt lat="53.2230732" lon="-2.0025454"><ele>440.59999999999997</ele><time>2026-04-18T08:54:13.028Z</time></trkpt><trkpt lat="53.2229763" lon="-2.0024943"><ele>441.4</ele><time>2026-04-18T08:54:14.026Z</time></trkpt><trkpt lat="53.2228812" lon="-2.0024431"><ele>442.2</ele><time>2026-04-18T08:54:15.026Z</time></trkpt><trkpt lat="53.2227891" lon="-2.0023895"><ele>443.0</ele><time>2026-04-18T08:54:16.026Z</time></trkpt><trkpt lat="53.2227015" lon="-2.0023273"><ele>444.59999999999997</ele><time>2026-04-18T08:54:17.024Z</time></trkpt><trkpt lat="53.2226197" lon="-2.0022491"><ele>446.19999999999993</ele><time>2026-04-18T08:54:18.024Z</time></trkpt><trkpt lat="53.2225423" lon="-2.0021558"><ele>447.8</ele><time>2026-04-18T08:54:19.028Z</time></trkpt><trkpt lat="53.2224691" lon="-2.0020449"><ele>449.4</ele><time>2026-04-18T08:54:20.027Z</time></trkpt><trkpt lat="53.222394" lon="-2.001933"><ele>451.0</ele><time>2026-04-18T08:54:21.026Z</time></trkpt><trkpt lat="53.2223203" lon="-2.0018213"><ele>451.0</ele><time>2026-04-18T08:54:22.027Z</time></trkpt><trkpt lat="53.222249" lon="-2.0017158"><ele>451.0</ele><time>2026-04-18T08:54:23.027Z</time></trkpt><trkpt lat="53.2221798" lon="-2.0016182"><ele>451.0</ele><time>2026-04-18T08:54:24.027Z</time></trkpt><trkpt lat="53.2221128" lon="-2.0015206"><ele>451.0</ele><time>2026-04-18T08:54:25.019Z</time></trkpt><trkpt lat="53.2220406" lon="-2.0014205"><ele>451.0</ele><time>2026-04-18T08:54:26.03Z</time></trkpt><trkpt lat="53.2219561" lon="-2.0013186"><ele>452.5</ele><time>2026-04-18T08:54:27.029Z</time></trkpt><trkpt lat="53.2218618" lon="-2.0012029"><ele>454.0</ele><time>2026-04-18T08:54:28.028Z</time></trkpt><trkpt lat="53.2217677" lon="-2.0010742"><ele>455.5</ele><time>2026-04-18T08:54:29.024Z</time></trkpt><trkpt lat="53.2216771" lon="-2.0009391"><ele>457.0</ele><time>2026-04-18T08:54:30.027Z</time></trkpt><trkpt lat="53.2215865" lon="-2.0008042"><ele>457.0</ele><time>2026-04-18T08:54:31.028Z</time></trkpt><trkpt lat="53.2214998" lon="-2.0006718"><ele>457.0</ele><time>2026-04-18T08:54:32.027Z</time></trkpt><trkpt lat="53.2214123" lon="-2.0005365"><ele>457.0</ele><time>2026-04-18T08:54:33.024Z</time></trkpt><trkpt lat="53.2213225" lon="-2.0003973"><ele>457.0</ele><time>2026-04-18T08:54:34.024Z</time></trkpt><trkpt lat="53.2212387" lon="-2.000265"><ele>457.00000000000006</ele><time>2026-04-18T08:54:35.026Z</time></trkpt><trkpt lat="53.2211692" lon="-2.0001424"><ele>457.0</ele><time>2026-04-18T08:54:36.031Z</time></trkpt><trkpt lat="53.2211193" lon="-2.0000215"><ele>457.0</ele><time>2026-04-18T08:54:37.029Z</time></trkpt><trkpt lat="53.2210867" lon="-1.999915"><ele>457.0</ele><time>2026-04-18T08:54:38.029Z</time></trkpt><trkpt lat="53.2210579" lon="-1.9998121"><ele>457.00000000000006</ele><time>2026-04-18T08:54:39.027Z</time></trkpt><trkpt lat="53.221025" lon="-1.9997058"><ele>457.0</ele><time>2026-04-18T08:54:40.028Z</time></trkpt><trkpt lat="53.2209939" lon="-1.9995979"><ele>457.00000000000006</ele><time>2026-04-18T08:54:41.025Z</time></trkpt><trkpt lat="53.2209622" lon="-1.999485"><ele>457.0</ele><time>2026-04-18T08:54:42.026Z</time></trkpt><trkpt lat="53.2209318" lon="-1.999365"><ele>457.0</ele><time>2026-04-18T08:54:43.028Z</time></trkpt><trkpt lat="53.2209009" lon="-1.999237"><ele>457.0</ele><time>2026-04-18T08:54:44.025Z</time></trkpt><trkpt lat="53.2208665" lon="-1.9990984"><ele>457.00000000000006</ele><time>2026-04-18T08:54:45.026Z</time></trkpt><trkpt lat="53.2208285" lon="-1.9989459"><ele>457.0</ele><time>2026-04-18T08:54:46.025Z</time></trkpt><trkpt lat="53.2207899" lon="-1.9987778"><ele>458.25</ele><time>2026-04-18T08:54:47.025Z</time></trkpt><trkpt lat="53.2207528" lon="-1.9985864"><ele>459.5</ele><time>2026-04-18T08:54:48.026Z</time></trkpt><trkpt lat="53.2207178" lon="-1.9983734"><ele>460.75</ele><time>2026-04-18T08:54:49.027Z</time></trkpt><trkpt lat="53.2206825" lon="-1.9981578"><ele>462.0</ele><time>2026-04-18T08:54:50.026Z</time></trkpt><trkpt lat="53.2206509" lon="-1.9979628"><ele>460.1666666666667</ele><time>2026-04-18T08:54:51.026Z</time></trkpt><trkpt lat="53.220622" lon="-1.9978003"><ele>458.33333333333337</ele><time>2026-04-18T08:54:52.023Z</time></trkpt><trkpt lat="53.2205889" lon="-1.9976659"><ele>456.5</ele><time>2026-04-18T08:54:53.029Z</time></trkpt><trkpt lat="53.2205457" lon="-1.99755"><ele>454.6666666666667</ele><time>2026-04-18T08:54:54.024Z</time></trkpt><trkpt lat="53.2204972" lon="-1.9974462"><ele>452.83333333333337</ele><time>2026-04-18T08:54:55.024Z</time></trkpt><trkpt lat="53.2204534" lon="-1.9973537"><ele>451.0</ele><time>2026-04-18T08:54:56.024Z</time></trkpt><trkpt lat="53.2204104" lon="-1.9971747"><ele>450.83333333333337</ele><time>2026-04-18T08:54:58.024Z</time></trkpt><trkpt lat="53.2204496" lon="-1.997075"><ele>450.6666666666667</ele><time>2026-04-18T08:55:31.023Z</time></trkpt><trkpt lat="53.2204724" lon="-1.9969628"><ele>450.5</ele><time>2026-04-18T08:55:33.025Z</time></trkpt><trkpt lat="53.2205137" lon="-1.9968457"><ele>450.33333333333337</ele><time>2026-04-18T08:55:35.024Z</time></trkpt><trkpt lat="53.2205901" lon="-1.9967873"><ele>450.1666666666667</ele><time>2026-04-18T08:55:37.021Z</time></trkpt><trkpt lat="53.2205965" lon="-1.9969239"><ele>450.0</ele><time>2026-04-18T08:55:59.021Z</time></trkpt><trkpt lat="53.2205952" lon="-1.9968171"><ele>450.0</ele><time>2026-04-18T09:14:47.033Z</time></trkpt><trkpt lat="53.220527" lon="-1.9968675"><ele>450.0</ele><time>2026-04-18T09:15:39.034Z</time></trkpt><trkpt lat="53.2204658" lon="-1.9969419"><ele>450.0</ele><time>2026-04-18T09:15:42.023Z</time></trkpt><trkpt lat="53.2204431" lon="-1.9970588"><ele>450.0</ele><time>2026-04-18T09:15:45.031Z</time></trkpt><trkpt lat="53.2204263" lon="-1.9969418"><ele>450.0</ele><time>2026-04-18T09:16:55.032Z</time></trkpt><trkpt lat="53.2203302" lon="-1.9970195"><ele>450.0</ele><time>2026-04-18T09:17:10.029Z</time></trkpt><trkpt lat="53.2202898" lon="-1.9972042"><ele>450.0</ele><time>2026-04-18T09:17:11.03Z</time></trkpt><trkpt lat="53.2202456" lon="-1.9974296"><ele>450.0</ele><time>2026-04-18T09:17:12.033Z</time></trkpt><trkpt lat="53.2201923" lon="-1.9976889"><ele>450.0</ele><time>2026-04-18T09:17:13.036Z</time></trkpt><trkpt lat="53.2201255" lon="-1.997963"><ele>450.0</ele><time>2026-04-18T09:17:14.034Z</time></trkpt><trkpt lat="53.2200565" lon="-1.9982671"><ele>450.0</ele><time>2026-04-18T09:17:15.034Z</time></trkpt><trkpt lat="53.2199751" lon="-1.9986046"><ele>450.0</ele><time>2026-04-18T09:17:16.032Z</time></trkpt><trkpt lat="53.219869" lon="-1.998965"><ele>446.5</ele><time>2026-04-18T09:17:17.033Z</time></trkpt><trkpt lat="53.2197384" lon="-1.9993454"><ele>443.0</ele><time>2026-04-18T09:17:18.036Z</time></trkpt><trkpt lat="53.2195983" lon="-1.9997181"><ele>443.0</ele><time>2026-04-18T09:17:19.036Z</time></trkpt><trkpt lat="53.2194514" lon="-2.0000695"><ele>443.0</ele><time>2026-04-18T09:17:20.036Z</time></trkpt><trkpt lat="53.2192959" lon="-2.0003897"><ele>443.0</ele><time>2026-04-18T09:17:21.036Z</time></trkpt><trkpt lat="53.2191262" lon="-2.0006739"><ele>443.0</ele><time>2026-04-18T09:17:22.036Z</time></trkpt><trkpt lat="53.2189489" lon="-2.0009453"><ele>442.5</ele><time>2026-04-18T09:17:23.04Z</time></trkpt><trkpt lat="53.2187616" lon="-2.0012014"><ele>442.0</ele><time>2026-04-18T09:17:24.037Z</time></trkpt><trkpt lat="53.2185636" lon="-2.0014232"><ele>442.0</ele><time>2026-04-18T09:17:25.036Z</time></trkpt><trkpt lat="53.2183548" lon="-2.0015977"><ele>442.0</ele><time>2026-04-18T09:17:26.036Z</time></trkpt><trkpt lat="53.2181336" lon="-2.0017438"><ele>444.5</ele><time>2026-04-18T09:17:27.034Z</time></trkpt><trkpt lat="53.2178973" lon="-2.0018744"><ele>447.0</ele><time>2026-04-18T09:17:28.036Z</time></trkpt><trkpt lat="53.2176638" lon="-2.0019922"><ele>447.0</ele><time>2026-04-18T09:17:29.038Z</time></trkpt><trkpt lat="53.2174501" lon="-2.0020983"><ele>447.0</ele><time>2026-04-18T09:17:30.036Z</time></trkpt><trkpt lat="53.2172545" lon="-2.0021944"><ele>447.0</ele><time>2026-04-18T09:17:31.033Z</time></trkpt><trkpt lat="53.2170677" lon="-2.0022858"><ele>448.66666666666663</ele><time>2026-04-18T09:17:32.033Z</time></trkpt><trkpt lat="53.2168973" lon="-2.0023746"><ele>450.3333333333333</ele><time>2026-04-18T09:17:33.036Z</time></trkpt><trkpt lat="53.2167541" lon="-2.002451"><ele>452.0</ele><time>2026-04-18T09:17:34.036Z</time></trkpt><trkpt lat="53.2166384" lon="-2.0025087"><ele>452.16666666666663</ele><time>2026-04-18T09:17:35.035Z</time></trkpt><trkpt lat="53.2165455" lon="-2.0025533"><ele>452.3333333333333</ele><time>2026-04-18T09:17:36.033Z</time></trkpt><trkpt lat="53.2164681" lon="-2.0025875"><ele>452.5</ele><time>2026-04-18T09:17:37.032Z</time></trkpt><trkpt lat="53.2164005" lon="-2.00262"><ele>452.66666666666663</ele><time>2026-04-18T09:17:38.032Z</time></trkpt><trkpt lat="53.2163304" lon="-2.00265"><ele>452.8333333333333</ele><time>2026-04-18T09:17:39.034Z</time></trkpt><trkpt lat="53.216253" lon="-2.002677"><ele>453.0</ele><time>2026-04-18T09:17:40.037Z</time></trkpt><trkpt lat="53.2161555" lon="-2.0026867"><ele>452.25</ele><time>2026-04-18T09:17:41.032Z</time></trkpt><trkpt lat="53.2160366" lon="-2.0026594"><ele>451.5</ele><time>2026-04-18T09:17:42.025Z</time></trkpt><trkpt lat="53.2159098" lon="-2.0025941"><ele>450.75</ele><time>2026-04-18T09:17:43.036Z</time></trkpt><trkpt lat="53.2157845" lon="-2.0025064"><ele>450.0</ele><time>2026-04-18T09:17:44.036Z</time></trkpt><trkpt lat="53.2156709" lon="-2.0024177"><ele>449.0</ele><time>2026-04-18T09:17:45.035Z</time></trkpt><trkpt lat="53.2155685" lon="-2.0023557"><ele>448.0</ele><time>2026-04-18T09:17:46.036Z</time></trkpt><trkpt lat="53.2154637" lon="-2.0023257"><ele>447.0</ele><time>2026-04-18T09:17:47.036Z</time></trkpt><trkpt lat="53.2153569" lon="-2.0023361"><ele>446.0</ele><time>2026-04-18T09:17:48.037Z</time></trkpt><trkpt lat="53.2152522" lon="-2.0023847"><ele>445.0</ele><time>2026-04-18T09:17:49.036Z</time></trkpt><trkpt lat="53.2151541" lon="-2.0024572"><ele>443.75</ele><time>2026-04-18T09:17:50.039Z</time></trkpt><trkpt lat="53.2150572" lon="-2.002548"><ele>442.5</ele><time>2026-04-18T09:17:51.036Z</time></trkpt><trkpt lat="53.2149549" lon="-2.002657"><ele>441.25</ele><time>2026-04-18T09:17:52.037Z</time></trkpt><trkpt lat="53.214857" lon="-2.0027853"><ele>440.0</ele><time>2026-04-18T09:17:53.041Z</time></trkpt><trkpt lat="53.2147625" lon="-2.0029274"><ele>438.5</ele><time>2026-04-18T09:17:54.037Z</time></trkpt><trkpt lat="53.2146775" lon="-2.0030954"><ele>437.0</ele><time>2026-04-18T09:17:55.039Z</time></trkpt><trkpt lat="53.2146047" lon="-2.0032878"><ele>435.5</ele><time>2026-04-18T09:17:56.039Z</time></trkpt><trkpt lat="53.214541" lon="-2.0034981"><ele>434.0</ele><time>2026-04-18T09:17:57.036Z</time></trkpt><trkpt lat="53.2144827" lon="-2.003731"><ele>432.3333333333333</ele><time>2026-04-18T09:17:58.036Z</time></trkpt><trkpt lat="53.2144243" lon="-2.003981"><ele>430.66666666666663</ele><time>2026-04-18T09:17:59.036Z</time></trkpt><trkpt lat="53.2143622" lon="-2.0042422"><ele>429.0</ele><time>2026-04-18T09:18:00.038Z</time></trkpt><trkpt lat="53.2142967" lon="-2.004511"><ele>427.66666666666663</ele><time>2026-04-18T09:18:01.037Z</time></trkpt><trkpt lat="53.2142217" lon="-2.0047801"><ele>426.3333333333333</ele><time>2026-04-18T09:18:02.036Z</time></trkpt><trkpt lat="53.2141426" lon="-2.0050655"><ele>425.0</ele><time>2026-04-18T09:18:03.038Z</time></trkpt><trkpt lat="53.2140662" lon="-2.0053779"><ele>422.3333333333333</ele><time>2026-04-18T09:18:04.036Z</time></trkpt><trkpt lat="53.2139875" lon="-2.0056907"><ele>419.66666666666663</ele><time>2026-04-18T09:18:05.037Z</time></trkpt><trkpt lat="53.2139187" lon="-2.0060196"><ele>417.0</ele><time>2026-04-18T09:18:06.037Z</time></trkpt><trkpt lat="53.2138524" lon="-2.0063523"><ele>415.33333333333337</ele><time>2026-04-18T09:18:07.036Z</time></trkpt><trkpt lat="53.2137849" lon="-2.0066813"><ele>413.6666666666667</ele><time>2026-04-18T09:18:08.036Z</time></trkpt><trkpt lat="53.2137144" lon="-2.007004"><ele>412.0</ele><time>2026-04-18T09:18:09.036Z</time></trkpt><trkpt lat="53.2136456" lon="-2.0073288"><ele>411.6666666666667</ele><time>2026-04-18T09:18:10.038Z</time></trkpt><trkpt lat="53.2135813" lon="-2.0076599"><ele>411.33333333333337</ele><time>2026-04-18T09:18:11.037Z</time></trkpt><trkpt lat="53.2135189" lon="-2.0079916"><ele>411.0</ele><time>2026-04-18T09:18:12.038Z</time></trkpt><trkpt lat="53.2134555" lon="-2.0082944"><ele>411.0</ele><time>2026-04-18T09:18:13.044Z</time></trkpt><trkpt lat="53.2133928" lon="-2.0085661"><ele>411.0</ele><time>2026-04-18T09:18:14.04Z</time></trkpt><trkpt lat="53.2133268" lon="-2.0088209"><ele>411.0</ele><time>2026-04-18T09:18:15.039Z</time></trkpt><trkpt lat="53.2132478" lon="-2.0090627"><ele>413.33333333333337</ele><time>2026-04-18T09:18:16.039Z</time></trkpt><trkpt lat="53.2131526" lon="-2.0093026"><ele>415.6666666666667</ele><time>2026-04-18T09:18:17.037Z</time></trkpt><trkpt lat="53.2130467" lon="-2.0095527"><ele>418.0</ele><time>2026-04-18T09:18:18.038Z</time></trkpt><trkpt lat="53.2129367" lon="-2.0098172"><ele>415.0</ele><time>2026-04-18T09:18:19.038Z</time></trkpt><trkpt lat="53.2128264" lon="-2.0100946"><ele>412.0</ele><time>2026-04-18T09:18:20.037Z</time></trkpt><trkpt lat="53.2127135" lon="-2.0103883"><ele>409.0</ele><time>2026-04-18T09:18:21.039Z</time></trkpt><trkpt lat="53.2125947" lon="-2.010682"><ele>411.33333333333337</ele><time>2026-04-18T09:18:22.029Z</time></trkpt><trkpt lat="53.2124681" lon="-2.0109758"><ele>413.66666666666663</ele><time>2026-04-18T09:18:23.041Z</time></trkpt><trkpt lat="53.2123441" lon="-2.0112693"><ele>416.0</ele><time>2026-04-18T09:18:24.027Z</time></trkpt><trkpt lat="53.2122278" lon="-2.0115679"><ele>411.3333333333333</ele><time>2026-04-18T09:18:25.036Z</time></trkpt><trkpt lat="53.2121231" lon="-2.0118734"><ele>406.66666666666663</ele><time>2026-04-18T09:18:26.038Z</time></trkpt><trkpt lat="53.2120333" lon="-2.0121653"><ele>402.0</ele><time>2026-04-18T09:18:27.037Z</time></trkpt><trkpt lat="53.2119529" lon="-2.0124357"><ele>400.33333333333337</ele><time>2026-04-18T09:18:28.038Z</time></trkpt><trkpt lat="53.2118788" lon="-2.0127092"><ele>398.6666666666667</ele><time>2026-04-18T09:18:29.036Z</time></trkpt><trkpt lat="53.2118078" lon="-2.0129721"><ele>397.0</ele><time>2026-04-18T09:18:30.035Z</time></trkpt><trkpt lat="53.2117407" lon="-2.0132123"><ele>396.75</ele><time>2026-04-18T09:18:31.035Z</time></trkpt><trkpt lat="53.2116845" lon="-2.0134368"><ele>396.5</ele><time>2026-04-18T09:18:32.035Z</time></trkpt><trkpt lat="53.2116367" lon="-2.013635"><ele>396.25</ele><time>2026-04-18T09:18:33.039Z</time></trkpt><trkpt lat="53.2115931" lon="-2.0138043"><ele>396.0</ele><time>2026-04-18T09:18:34.035Z</time></trkpt><trkpt lat="53.2115574" lon="-2.0139426"><ele>396.0</ele><time>2026-04-18T09:18:35.034Z</time></trkpt><trkpt lat="53.2115231" lon="-2.0140441"><ele>396.0</ele><time>2026-04-18T09:18:36.034Z</time></trkpt><trkpt lat="53.2114709" lon="-2.0141894"><ele>396.0</ele><time>2026-04-18T09:18:38.035Z</time></trkpt><trkpt lat="53.211479" lon="-2.0143142"><ele>396.0</ele><time>2026-04-18T09:18:40.035Z</time></trkpt><trkpt lat="53.2115755" lon="-2.0144064"><ele>396.0</ele><time>2026-04-18T09:18:42.025Z</time></trkpt><trkpt lat="53.2116536" lon="-2.0144238"><ele>396.0</ele><time>2026-04-18T09:18:43.036Z</time></trkpt><trkpt lat="53.2117487" lon="-2.0144394"><ele>395.5</ele><time>2026-04-18T09:18:44.034Z</time></trkpt><trkpt lat="53.2118565" lon="-2.0144775"><ele>395.0</ele><time>2026-04-18T09:18:45.036Z</time></trkpt><trkpt lat="53.2119765" lon="-2.0145318"><ele>394.5</ele><time>2026-04-18T09:18:46.033Z</time></trkpt><trkpt lat="53.2121076" lon="-2.0145936"><ele>394.0</ele><time>2026-04-18T09:18:47.034Z</time></trkpt><trkpt lat="53.2122487" lon="-2.0146552"><ele>392.6666666666667</ele><time>2026-04-18T09:18:48.035Z</time></trkpt><trkpt lat="53.212399" lon="-2.014717"><ele>391.33333333333337</ele><time>2026-04-18T09:18:49.037Z</time></trkpt><trkpt lat="53.2125493" lon="-2.014777"><ele>390.0</ele><time>2026-04-18T09:18:50.038Z</time></trkpt><trkpt lat="53.2126915" lon="-2.0148333"><ele>390.0</ele><time>2026-04-18T09:18:51.032Z</time></trkpt><trkpt lat="53.2128208" lon="-2.0148948"><ele>390.0</ele><time>2026-04-18T09:18:52.031Z</time></trkpt><trkpt lat="53.2129389" lon="-2.0149635"><ele>390.0</ele><time>2026-04-18T09:18:53.033Z</time></trkpt><trkpt lat="53.2130477" lon="-2.0150375"><ele>390.0</ele><time>2026-04-18T09:18:54.035Z</time></trkpt><trkpt lat="53.2131532" lon="-2.0151216"><ele>387.75</ele><time>2026-04-18T09:18:55.032Z</time></trkpt><trkpt lat="53.2132607" lon="-2.0152204"><ele>385.5</ele><time>2026-04-18T09:18:56.033Z</time></trkpt><trkpt lat="53.213369" lon="-2.0153354"><ele>383.25</ele><time>2026-04-18T09:18:57.036Z</time></trkpt><trkpt lat="53.2134723" lon="-2.0154652"><ele>381.0</ele><time>2026-04-18T09:18:58.037Z</time></trkpt><trkpt lat="53.2135654" lon="-2.0156155"><ele>381.0</ele><time>2026-04-18T09:18:59.033Z</time></trkpt><trkpt lat="53.2136449" lon="-2.0157771"><ele>381.0</ele><time>2026-04-18T09:19:00.035Z</time></trkpt><trkpt lat="53.2137187" lon="-2.0159315"><ele>381.0</ele><time>2026-04-18T09:19:01.033Z</time></trkpt><trkpt lat="53.2137904" lon="-2.0160533"><ele>381.0</ele><time>2026-04-18T09:19:02.032Z</time></trkpt><trkpt lat="53.2138618" lon="-2.0161376"><ele>381.0</ele><time>2026-04-18T09:19:03.034Z</time></trkpt><trkpt lat="53.2139395" lon="-2.0161848"><ele>378.75</ele><time>2026-04-18T09:19:04.033Z</time></trkpt><trkpt lat="53.2140308" lon="-2.0161991"><ele>376.5</ele><time>2026-04-18T09:19:05.031Z</time></trkpt><trkpt lat="53.2141383" lon="-2.0161831"><ele>374.25</ele><time>2026-04-18T09:19:06.031Z</time></trkpt><trkpt lat="53.2142616" lon="-2.0161428"><ele>372.0</ele><time>2026-04-18T09:19:07.034Z</time></trkpt><trkpt lat="53.2143991" lon="-2.0160924"><ele>372.0</ele><time>2026-04-18T09:19:08.025Z</time></trkpt><trkpt lat="53.214545" lon="-2.0160462"><ele>372.0</ele><time>2026-04-18T09:19:09.024Z</time></trkpt><trkpt lat="53.2146921" lon="-2.0160096"><ele>372.0</ele><time>2026-04-18T09:19:10.03Z</time></trkpt><trkpt lat="53.2148203" lon="-2.0159953"><ele>372.0</ele><time>2026-04-18T09:19:11.033Z</time></trkpt><trkpt lat="53.2149302" lon="-2.0160024"><ele>370.6</ele><time>2026-04-18T09:19:12.032Z</time></trkpt><trkpt lat="53.2150239" lon="-2.0160318"><ele>369.20000000000005</ele><time>2026-04-18T09:19:13.033Z</time></trkpt><trkpt lat="53.215108" lon="-2.0161009"><ele>367.8</ele><time>2026-04-18T09:19:14.034Z</time></trkpt><trkpt lat="53.2151806" lon="-2.0162266"><ele>366.4</ele><time>2026-04-18T09:19:15.035Z</time></trkpt><trkpt lat="53.2152467" lon="-2.0163854"><ele>365.0</ele><time>2026-04-18T09:19:16.031Z</time></trkpt><trkpt lat="53.215302" lon="-2.0165636"><ele>363.75</ele><time>2026-04-18T09:19:17.039Z</time></trkpt><trkpt lat="53.2153497" lon="-2.0167562"><ele>362.5</ele><time>2026-04-18T09:19:18.035Z</time></trkpt><trkpt lat="53.215397" lon="-2.016964"><ele>361.25</ele><time>2026-04-18T09:19:19.037Z</time></trkpt><trkpt lat="53.2154422" lon="-2.0171866"><ele>360.0</ele><time>2026-04-18T09:19:20.039Z</time></trkpt><trkpt lat="53.2154896" lon="-2.0174038"><ele>359.0</ele><time>2026-04-18T09:19:21.036Z</time></trkpt><trkpt lat="53.215533" lon="-2.0175989"><ele>358.0</ele><time>2026-04-18T09:19:22.036Z</time></trkpt><trkpt lat="53.2155681" lon="-2.0177719"><ele>357.0</ele><time>2026-04-18T09:19:23.034Z</time></trkpt><trkpt lat="53.2155914" lon="-2.0179354"><ele>356.0</ele><time>2026-04-18T09:19:24.031Z</time></trkpt><trkpt lat="53.2155985" lon="-2.0181074"><ele>355.0</ele><time>2026-04-18T09:19:25.033Z</time></trkpt><trkpt lat="53.2155879" lon="-2.0182917"><ele>352.75</ele><time>2026-04-18T09:19:26.032Z</time></trkpt><trkpt lat="53.215557" lon="-2.0184737"><ele>350.5</ele><time>2026-04-18T09:19:27.03Z</time></trkpt><trkpt lat="53.2155082" lon="-2.018663"><ele>348.25</ele><time>2026-04-18T09:19:28.03Z</time></trkpt><trkpt lat="53.2154488" lon="-2.0188539"><ele>346.0</ele><time>2026-04-18T09:19:29.034Z</time></trkpt><trkpt lat="53.2153861" lon="-2.0190472"><ele>343.6</ele><time>2026-04-18T09:19:30.033Z</time></trkpt><trkpt lat="53.2153344" lon="-2.0192352"><ele>341.20000000000005</ele><time>2026-04-18T09:19:31.034Z</time></trkpt><trkpt lat="53.2152975" lon="-2.0194081"><ele>338.79999999999995</ele><time>2026-04-18T09:19:32.033Z</time></trkpt><trkpt lat="53.2152685" lon="-2.019576"><ele>336.4</ele><time>2026-04-18T09:19:33.033Z</time></trkpt><trkpt lat="53.215254" lon="-2.0197339"><ele>334.0</ele><time>2026-04-18T09:19:34.032Z</time></trkpt><trkpt lat="53.2152545" lon="-2.0198994"><ele>332.5</ele><time>2026-04-18T09:19:35.031Z</time></trkpt><trkpt lat="53.2152715" lon="-2.0200814"><ele>331.0</ele><time>2026-04-18T09:19:36.033Z</time></trkpt><trkpt lat="53.2152912" lon="-2.0202908"><ele>329.5</ele><time>2026-04-18T09:19:37.033Z</time></trkpt><trkpt lat="53.2153152" lon="-2.0205304"><ele>328.0</ele><time>2026-04-18T09:19:38.027Z</time></trkpt><trkpt lat="53.2153383" lon="-2.0207974"><ele>325.3333333333333</ele><time>2026-04-18T09:19:39.033Z</time></trkpt><trkpt lat="53.2153638" lon="-2.0210794"><ele>322.6666666666667</ele><time>2026-04-18T09:19:40.034Z</time></trkpt><trkpt lat="53.2153884" lon="-2.0213664"><ele>320.0</ele><time>2026-04-18T09:19:41.029Z</time></trkpt><trkpt lat="53.2154047" lon="-2.0216634"><ele>317.6666666666667</ele><time>2026-04-18T09:19:42.034Z</time></trkpt><trkpt lat="53.2154113" lon="-2.0219635"><ele>315.3333333333333</ele><time>2026-04-18T09:19:43.037Z</time></trkpt><trkpt lat="53.2154102" lon="-2.0222462"><ele>313.0</ele><time>2026-04-18T09:19:44.035Z</time></trkpt><trkpt lat="53.2154075" lon="-2.022501"><ele>311.25</ele><time>2026-04-18T09:19:45.032Z</time></trkpt><trkpt lat="53.215402" lon="-2.0227224"><ele>309.5</ele><time>2026-04-18T09:19:46.031Z</time></trkpt><trkpt lat="53.2154026" lon="-2.0229243"><ele>307.75</ele><time>2026-04-18T09:19:47.036Z</time></trkpt><trkpt lat="53.2154134" lon="-2.0231168"><ele>306.0</ele><time>2026-04-18T09:19:48.033Z</time></trkpt><trkpt lat="53.2154384" lon="-2.0233142"><ele>305.0</ele><time>2026-04-18T09:19:49.033Z</time></trkpt><trkpt lat="53.215479" lon="-2.0235189"><ele>304.0</ele><time>2026-04-18T09:19:50.029Z</time></trkpt><trkpt lat="53.2155385" lon="-2.0237263"><ele>303.0</ele><time>2026-04-18T09:19:51.033Z</time></trkpt><trkpt lat="53.2156012" lon="-2.023922"><ele>302.0</ele><time>2026-04-18T09:19:52.033Z</time></trkpt><trkpt lat="53.2156657" lon="-2.0241002"><ele>301.6</ele><time>2026-04-18T09:19:53.026Z</time></trkpt><trkpt lat="53.2157297" lon="-2.0242618"><ele>301.2</ele><time>2026-04-18T09:19:54.03Z</time></trkpt><trkpt lat="53.2157839" lon="-2.0244152"><ele>300.8</ele><time>2026-04-18T09:19:55.031Z</time></trkpt><trkpt lat="53.2158241" lon="-2.0245609"><ele>300.4</ele><time>2026-04-18T09:19:56.031Z</time></trkpt><trkpt lat="53.215841" lon="-2.0247124"><ele>300.0</ele><time>2026-04-18T09:19:57.029Z</time></trkpt><trkpt lat="53.2158381" lon="-2.0248615"><ele>299.2</ele><time>2026-04-18T09:19:58.027Z</time></trkpt><trkpt lat="53.2158147" lon="-2.0250107"><ele>298.4</ele><time>2026-04-18T09:19:59.031Z</time></trkpt><trkpt lat="53.2157692" lon="-2.0251632"><ele>297.6</ele><time>2026-04-18T09:20:00.033Z</time></trkpt><trkpt lat="53.2157075" lon="-2.0253233"><ele>296.8</ele><time>2026-04-18T09:20:01.028Z</time></trkpt><trkpt lat="53.2156408" lon="-2.0255007"><ele>296.0</ele><time>2026-04-18T09:20:02.029Z</time></trkpt><trkpt lat="53.2155795" lon="-2.0256947"><ele>294.5</ele><time>2026-04-18T09:20:03.024Z</time></trkpt><trkpt lat="53.2155209" lon="-2.0259013"><ele>293.0</ele><time>2026-04-18T09:20:04.029Z</time></trkpt><trkpt lat="53.215466" lon="-2.0261203"><ele>291.5</ele><time>2026-04-18T09:20:05.03Z</time></trkpt><trkpt lat="53.2154076" lon="-2.0263332"><ele>290.0</ele><time>2026-04-18T09:20:06.028Z</time></trkpt><trkpt lat="53.2153487" lon="-2.0265356"><ele>289.4</ele><time>2026-04-18T09:20:07.028Z</time></trkpt><trkpt lat="53.2152971" lon="-2.0267196"><ele>288.8</ele><time>2026-04-18T09:20:08.027Z</time></trkpt><trkpt lat="53.2152515" lon="-2.0268893"><ele>288.2</ele><time>2026-04-18T09:20:09.028Z</time></trkpt><trkpt lat="53.2152118" lon="-2.0270319"><ele>287.6</ele><time>2026-04-18T09:20:10.028Z</time></trkpt><trkpt lat="53.2151762" lon="-2.0271485"><ele>287.0</ele><time>2026-04-18T09:20:11.027Z</time></trkpt><trkpt lat="53.2151306" lon="-2.0273103"><ele>287.0</ele><time>2026-04-18T09:20:13.029Z</time></trkpt><trkpt lat="53.2150814" lon="-2.0274277"><ele>287.0</ele><time>2026-04-18T09:20:15.029Z</time></trkpt><trkpt lat="53.2149451" lon="-2.0274327"><ele>287.0</ele><time>2026-04-18T09:20:17.03Z</time></trkpt><trkpt lat="53.2148464" lon="-2.0274129"><ele>287.0</ele><time>2026-04-18T09:20:18.03Z</time></trkpt><trkpt lat="53.2147371" lon="-2.027408"><ele>287.0</ele><time>2026-04-18T09:20:19.031Z</time></trkpt><trkpt lat="53.2146185" lon="-2.0274163"><ele>287.2</ele><time>2026-04-18T09:20:20.031Z</time></trkpt><trkpt lat="53.2145027" lon="-2.0274393"><ele>287.4</ele><time>2026-04-18T09:20:21.028Z</time></trkpt><trkpt lat="53.2143956" lon="-2.027481"><ele>287.6</ele><time>2026-04-18T09:20:22.038Z</time></trkpt><trkpt lat="53.2142994" lon="-2.0275518"><ele>287.8</ele><time>2026-04-18T09:20:23.035Z</time></trkpt><trkpt lat="53.2142105" lon="-2.0276661"><ele>288.0</ele><time>2026-04-18T09:20:24.032Z</time></trkpt><trkpt lat="53.2141234" lon="-2.0278054"><ele>285.75</ele><time>2026-04-18T09:20:25.034Z</time></trkpt><trkpt lat="53.2140315" lon="-2.0279642"><ele>283.5</ele><time>2026-04-18T09:20:26.035Z</time></trkpt><trkpt lat="53.2139372" lon="-2.0281313"><ele>281.25</ele><time>2026-04-18T09:20:27.036Z</time></trkpt><trkpt lat="53.2138406" lon="-2.0283017"><ele>279.0</ele><time>2026-04-18T09:20:28.039Z</time></trkpt><trkpt lat="53.213743" lon="-2.0284692"><ele>276.5</ele><time>2026-04-18T09:20:29.035Z</time></trkpt><trkpt lat="53.2136438" lon="-2.028629"><ele>274.0</ele><time>2026-04-18T09:20:30.033Z</time></trkpt><trkpt lat="53.213554" lon="-2.0287781"><ele>271.5</ele><time>2026-04-18T09:20:31.033Z</time></trkpt><trkpt lat="53.2134741" lon="-2.028911"><ele>269.0</ele><time>2026-04-18T09:20:32.032Z</time></trkpt><trkpt lat="53.213396" lon="-2.0290249"><ele>269.0</ele><time>2026-04-18T09:20:33.036Z</time></trkpt><trkpt lat="53.2133142" lon="-2.0291311"><ele>269.0</ele><time>2026-04-18T09:20:34.034Z</time></trkpt><trkpt lat="53.2132307" lon="-2.0292426"><ele>269.0</ele><time>2026-04-18T09:20:35.028Z</time></trkpt><trkpt lat="53.2131447" lon="-2.029345"><ele>269.0</ele><time>2026-04-18T09:20:36.03Z</time></trkpt><trkpt lat="53.2130557" lon="-2.0294286"><ele>269.0</ele><time>2026-04-18T09:20:37.031Z</time></trkpt><trkpt lat="53.2129671" lon="-2.0294927"><ele>268.4</ele><time>2026-04-18T09:20:38.03Z</time></trkpt><trkpt lat="53.2128653" lon="-2.0295374"><ele>267.79999999999995</ele><time>2026-04-18T09:20:39.028Z</time></trkpt><trkpt lat="53.2127544" lon="-2.0295675"><ele>267.20000000000005</ele><time>2026-04-18T09:20:40.031Z</time></trkpt><trkpt lat="53.2126421" lon="-2.0295967"><ele>266.6</ele><time>2026-04-18T09:20:41.029Z</time></trkpt><trkpt lat="53.2125299" lon="-2.0296359"><ele>266.0</ele><time>2026-04-18T09:20:42.029Z</time></trkpt><trkpt lat="53.212413" lon="-2.0296807"><ele>267.0</ele><time>2026-04-18T09:20:43.032Z</time></trkpt><trkpt lat="53.2122947" lon="-2.0297302"><ele>268.0</ele><time>2026-04-18T09:20:44.035Z</time></trkpt><trkpt lat="53.2121769" lon="-2.0297868"><ele>269.0</ele><time>2026-04-18T09:20:45.034Z</time></trkpt><trkpt lat="53.2120591" lon="-2.0298512"><ele>270.0</ele><time>2026-04-18T09:20:46.032Z</time></trkpt><trkpt lat="53.2119432" lon="-2.0299204"><ele>268.75</ele><time>2026-04-18T09:20:47.031Z</time></trkpt><trkpt lat="53.2118237" lon="-2.0300011"><ele>267.5</ele><time>2026-04-18T09:20:48.037Z</time></trkpt><trkpt lat="53.2117028" lon="-2.030093"><ele>266.25</ele><time>2026-04-18T09:20:49.032Z</time></trkpt><trkpt lat="53.2115813" lon="-2.0301898"><ele>265.0</ele><time>2026-04-18T09:20:50.034Z</time></trkpt><trkpt lat="53.2114532" lon="-2.0302957"><ele>264.3333333333333</ele><time>2026-04-18T09:20:51.038Z</time></trkpt><trkpt lat="53.2113105" lon="-2.0304081"><ele>263.6666666666667</ele><time>2026-04-18T09:20:52.028Z</time></trkpt><trkpt lat="53.211156" lon="-2.0305146"><ele>263.0</ele><time>2026-04-18T09:20:53.035Z</time></trkpt><trkpt lat="53.2109939" lon="-2.0306074"><ele>263.0</ele><time>2026-04-18T09:20:54.03Z</time></trkpt><trkpt lat="53.2108349" lon="-2.0306864"><ele>263.0</ele><time>2026-04-18T09:20:55.03Z</time></trkpt><trkpt lat="53.2106803" lon="-2.0307622"><ele>263.0</ele><time>2026-04-18T09:20:56.036Z</time></trkpt><trkpt lat="53.2105322" lon="-2.0308436"><ele>262.25</ele><time>2026-04-18T09:20:57.032Z</time></trkpt><trkpt lat="53.2103917" lon="-2.0309377"><ele>261.5</ele><time>2026-04-18T09:20:58.034Z</time></trkpt><trkpt lat="53.2102698" lon="-2.0310431"><ele>260.75</ele><time>2026-04-18T09:20:59.032Z</time></trkpt><trkpt lat="53.2101603" lon="-2.0311659"><ele>260.0</ele><time>2026-04-18T09:21:00.033Z</time></trkpt><trkpt lat="53.2100612" lon="-2.0313134"><ele>260.0</ele><time>2026-04-18T09:21:01.031Z</time></trkpt><trkpt lat="53.2099705" lon="-2.0314827"><ele>260.0</ele><time>2026-04-18T09:21:02.036Z</time></trkpt><trkpt lat="53.2098802" lon="-2.0316621"><ele>260.0</ele><time>2026-04-18T09:21:03.033Z</time></trkpt><trkpt lat="53.2097852" lon="-2.0318363"><ele>260.0</ele><time>2026-04-18T09:21:04.032Z</time></trkpt><trkpt lat="53.2096953" lon="-2.0320102"><ele>260.0</ele><time>2026-04-18T09:21:05.032Z</time></trkpt><trkpt lat="53.2096168" lon="-2.0321903"><ele>260.0</ele><time>2026-04-18T09:21:06.032Z</time></trkpt><trkpt lat="53.2095544" lon="-2.0323814"><ele>260.0</ele><time>2026-04-18T09:21:07.031Z</time></trkpt><trkpt lat="53.2095103" lon="-2.0325818"><ele>260.0</ele><time>2026-04-18T09:21:08.033Z</time></trkpt><trkpt lat="53.2094777" lon="-2.0327936"><ele>260.0</ele><time>2026-04-18T09:21:09.032Z</time></trkpt><trkpt lat="53.2094456" lon="-2.0330065"><ele>260.0</ele><time>2026-04-18T09:21:10.033Z</time></trkpt><trkpt lat="53.2094185" lon="-2.0332335"><ele>260.0</ele><time>2026-04-18T09:21:11.027Z</time></trkpt><trkpt lat="53.2093922" lon="-2.0334665"><ele>260.0</ele><time>2026-04-18T09:21:12.032Z</time></trkpt><trkpt lat="53.2093624" lon="-2.033706"><ele>259.0</ele><time>2026-04-18T09:21:13.037Z</time></trkpt><trkpt lat="53.2093289" lon="-2.0339543"><ele>258.0</ele><time>2026-04-18T09:21:14.033Z</time></trkpt><trkpt lat="53.2092901" lon="-2.0342112"><ele>257.0</ele><time>2026-04-18T09:21:15.033Z</time></trkpt><trkpt lat="53.2092519" lon="-2.034465"><ele>257.0</ele><time>2026-04-18T09:21:16.035Z</time></trkpt><trkpt lat="53.2092193" lon="-2.0347087"><ele>257.0</ele><time>2026-04-18T09:21:17.031Z</time></trkpt><trkpt lat="53.2091938" lon="-2.0349488"><ele>257.0</ele><time>2026-04-18T09:21:18.034Z</time></trkpt><trkpt lat="53.2091836" lon="-2.035196"><ele>257.0</ele><time>2026-04-18T09:21:19.032Z</time></trkpt><trkpt lat="53.2091822" lon="-2.0354608"><ele>257.0</ele><time>2026-04-18T09:21:20.034Z</time></trkpt><trkpt lat="53.2091844" lon="-2.0357463"><ele>257.0</ele><time>2026-04-18T09:21:21.033Z</time></trkpt><trkpt lat="53.2091902" lon="-2.0360446"><ele>257.0</ele><time>2026-04-18T09:21:22.032Z</time></trkpt><trkpt lat="53.2091951" lon="-2.0363285"><ele>257.0</ele><time>2026-04-18T09:21:23.034Z</time></trkpt><trkpt lat="53.2091949" lon="-2.0365869"><ele>257.0</ele><time>2026-04-18T09:21:24.032Z</time></trkpt><trkpt lat="53.2091936" lon="-2.0368177"><ele>257.0</ele><time>2026-04-18T09:21:25.031Z</time></trkpt><trkpt lat="53.2091933" lon="-2.0370413"><ele>257.0</ele><time>2026-04-18T09:21:26.034Z</time></trkpt><trkpt lat="53.2092026" lon="-2.0372659"><ele>257.5</ele><time>2026-04-18T09:21:27.033Z</time></trkpt><trkpt lat="53.2092212" lon="-2.0374962"><ele>258.0</ele><time>2026-04-18T09:21:28.03Z</time></trkpt><trkpt lat="53.2092478" lon="-2.0377318"><ele>258.5</ele><time>2026-04-18T09:21:29.033Z</time></trkpt><trkpt lat="53.2092783" lon="-2.0379633"><ele>259.0</ele><time>2026-04-18T09:21:30.032Z</time></trkpt><trkpt lat="53.2093044" lon="-2.0381805"><ele>259.25</ele><time>2026-04-18T09:21:31.03Z</time></trkpt><trkpt lat="53.2093221" lon="-2.0383852"><ele>259.5</ele><time>2026-04-18T09:21:32.029Z</time></trkpt><trkpt lat="53.2093229" lon="-2.0385791"><ele>259.75</ele><time>2026-04-18T09:21:33.03Z</time></trkpt><trkpt lat="53.2093023" lon="-2.0387633"><ele>260.0</ele><time>2026-04-18T09:21:34.03Z</time></trkpt><trkpt lat="53.2092542" lon="-2.0389446"><ele>260.25</ele><time>2026-04-18T09:21:35.034Z</time></trkpt><trkpt lat="53.2091843" lon="-2.039136"><ele>260.5</ele><time>2026-04-18T09:21:36.033Z</time></trkpt><trkpt lat="53.2091105" lon="-2.0393339"><ele>260.75</ele><time>2026-04-18T09:21:37.033Z</time></trkpt><trkpt lat="53.2090436" lon="-2.0395247"><ele>261.0</ele><time>2026-04-18T09:21:38.032Z</time></trkpt><trkpt lat="53.2089885" lon="-2.0397108"><ele>261.0</ele><time>2026-04-18T09:21:39.029Z</time></trkpt><trkpt lat="53.2089502" lon="-2.03991"><ele>261.0</ele><time>2026-04-18T09:21:40.033Z</time></trkpt><trkpt lat="53.2089267" lon="-2.0401266"><ele>261.0</ele><time>2026-04-18T09:21:41.03Z</time></trkpt><trkpt lat="53.2089055" lon="-2.0403437"><ele>261.0</ele><time>2026-04-18T09:21:42.03Z</time></trkpt><trkpt lat="53.2088791" lon="-2.0405605"><ele>259.25</ele><time>2026-04-18T09:21:43.034Z</time></trkpt><trkpt lat="53.2088435" lon="-2.0407717"><ele>257.5</ele><time>2026-04-18T09:21:44.033Z</time></trkpt><trkpt lat="53.2088021" lon="-2.0409672"><ele>255.75</ele><time>2026-04-18T09:21:45.034Z</time></trkpt><trkpt lat="53.2087651" lon="-2.0411552"><ele>254.0</ele><time>2026-04-18T09:21:46.032Z</time></trkpt><trkpt lat="53.2087362" lon="-2.0413437"><ele>253.75</ele><time>2026-04-18T09:21:47.033Z</time></trkpt><trkpt lat="53.2087217" lon="-2.0415384"><ele>253.5</ele><time>2026-04-18T09:21:48.033Z</time></trkpt><trkpt lat="53.2087255" lon="-2.0417508"><ele>253.25</ele><time>2026-04-18T09:21:49.031Z</time></trkpt><trkpt lat="53.2087509" lon="-2.0419745"><ele>253.0</ele><time>2026-04-18T09:21:50.034Z</time></trkpt><trkpt lat="53.2087989" lon="-2.0421966"><ele>253.0</ele><time>2026-04-18T09:21:51.034Z</time></trkpt><trkpt lat="53.2088578" lon="-2.0424031"><ele>253.0</ele><time>2026-04-18T09:21:52.033Z</time></trkpt><trkpt lat="53.2089198" lon="-2.0425852"><ele>253.0</ele><time>2026-04-18T09:21:53.033Z</time></trkpt><trkpt lat="53.2089533" lon="-2.0427465"><ele>253.0</ele><time>2026-04-18T09:21:54.033Z</time></trkpt><trkpt lat="53.2089463" lon="-2.0428999"><ele>253.16666666666666</ele><time>2026-04-18T09:21:55.03Z</time></trkpt><trkpt lat="53.2089172" lon="-2.0430427"><ele>253.33333333333331</ele><time>2026-04-18T09:21:56.035Z</time></trkpt><trkpt lat="53.2088839" lon="-2.0431799"><ele>253.5</ele><time>2026-04-18T09:21:57.033Z</time></trkpt><trkpt lat="53.2088632" lon="-2.0433094"><ele>253.66666666666669</ele><time>2026-04-18T09:21:58.032Z</time></trkpt><trkpt lat="53.2088616" lon="-2.043441"><ele>253.83333333333334</ele><time>2026-04-18T09:21:59.032Z</time></trkpt><trkpt lat="53.2088674" lon="-2.0435874"><ele>254.0</ele><time>2026-04-18T09:22:00.033Z</time></trkpt><trkpt lat="53.2088482" lon="-2.0437393"><ele>253.6</ele><time>2026-04-18T09:22:01.031Z</time></trkpt><trkpt lat="53.2087863" lon="-2.0438806"><ele>253.2</ele><time>2026-04-18T09:22:02.032Z</time></trkpt><trkpt lat="53.2086978" lon="-2.043999"><ele>252.79999999999998</ele><time>2026-04-18T09:22:03.032Z</time></trkpt><trkpt lat="53.2086154" lon="-2.0441237"><ele>252.39999999999998</ele><time>2026-04-18T09:22:04.03Z</time></trkpt><trkpt lat="53.2085521" lon="-2.0442587"><ele>252.0</ele><time>2026-04-18T09:22:05.032Z</time></trkpt><trkpt lat="53.2085009" lon="-2.0443986"><ele>251.83333333333334</ele><time>2026-04-18T09:22:06.033Z</time></trkpt><trkpt lat="53.2084615" lon="-2.0445497"><ele>251.66666666666669</ele><time>2026-04-18T09:22:07.031Z</time></trkpt><trkpt lat="53.2084302" lon="-2.0446947"><ele>251.5</ele><time>2026-04-18T09:22:08.032Z</time></trkpt><trkpt lat="53.208407" lon="-2.0448253"><ele>251.33333333333334</ele><time>2026-04-18T09:22:09.03Z</time></trkpt><trkpt lat="53.2083894" lon="-2.0449409"><ele>251.16666666666669</ele><time>2026-04-18T09:22:10.032Z</time></trkpt><trkpt lat="53.208361" lon="-2.0450411"><ele>251.0</ele><time>2026-04-18T09:22:11.029Z</time></trkpt><trkpt lat="53.2083054" lon="-2.0451208"><ele>250.0</ele><time>2026-04-18T09:22:12.031Z</time></trkpt><trkpt lat="53.2082168" lon="-2.0451762"><ele>249.0</ele><time>2026-04-18T09:22:13.033Z</time></trkpt><trkpt lat="53.2080993" lon="-2.0452064"><ele>248.0</ele><time>2026-04-18T09:22:14.031Z</time></trkpt><trkpt lat="53.207968" lon="-2.0452291"><ele>247.0</ele><time>2026-04-18T09:22:15.032Z</time></trkpt><trkpt lat="53.207837" lon="-2.0452528"><ele>247.0</ele><time>2026-04-18T09:22:16.034Z</time></trkpt><trkpt lat="53.2077138" lon="-2.0452785"><ele>247.0</ele><time>2026-04-18T09:22:17.035Z</time></trkpt><trkpt lat="53.2075975" lon="-2.0453152"><ele>247.0</ele><time>2026-04-18T09:22:18.036Z</time></trkpt><trkpt lat="53.2074837" lon="-2.0453565"><ele>247.0</ele><time>2026-04-18T09:22:19.035Z</time></trkpt><trkpt lat="53.2073751" lon="-2.0453961"><ele>245.5</ele><time>2026-04-18T09:22:20.035Z</time></trkpt><trkpt lat="53.2072673" lon="-2.0454328"><ele>244.0</ele><time>2026-04-18T09:22:21.032Z</time></trkpt><trkpt lat="53.2071562" lon="-2.0454628"><ele>242.5</ele><time>2026-04-18T09:22:22.027Z</time></trkpt><trkpt lat="53.2070404" lon="-2.0454852"><ele>241.0</ele><time>2026-04-18T09:22:23.037Z</time></trkpt><trkpt lat="53.206916" lon="-2.0454912"><ele>241.0</ele><time>2026-04-18T09:22:24.035Z</time></trkpt><trkpt lat="53.2067826" lon="-2.0454891"><ele>241.0</ele><time>2026-04-18T09:22:25.034Z</time></trkpt><trkpt lat="53.206645" lon="-2.045477"><ele>241.0</ele><time>2026-04-18T09:22:26.034Z</time></trkpt><trkpt lat="53.2065206" lon="-2.0454552"><ele>241.0</ele><time>2026-04-18T09:22:27.032Z</time></trkpt><trkpt lat="53.206427" lon="-2.0454236"><ele>240.99999999999997</ele><time>2026-04-18T09:22:28.034Z</time></trkpt><trkpt lat="53.2063509" lon="-2.0453789"><ele>241.0</ele><time>2026-04-18T09:22:30.035Z</time></trkpt><trkpt lat="53.2064293" lon="-2.0453973"><ele>241.0</ele><time>2026-04-18T09:22:54.035Z</time></trkpt><trkpt lat="53.2065159" lon="-2.0454258"><ele>241.0</ele><time>2026-04-18T09:22:56.032Z</time></trkpt><trkpt lat="53.2065955" lon="-2.0454717"><ele>240.99999999999997</ele><time>2026-04-18T09:22:58.034Z</time></trkpt><trkpt lat="53.2066498" lon="-2.045526"><ele>241.0</ele><time>2026-04-18T09:23:00.033Z</time></trkpt><trkpt lat="53.2067205" lon="-2.0455084"><ele>240.99999999999997</ele><time>2026-04-18T09:23:04.031Z</time></trkpt><trkpt lat="53.206688" lon="-2.0453993"><ele>241.0</ele><time>2026-04-18T09:23:07.032Z</time></trkpt><trkpt lat="53.20661" lon="-2.045366"><ele>241.0</ele><time>2026-04-18T09:23:12.03Z</time></trkpt><trkpt lat="53.2065438" lon="-2.0453403"><ele>241.0</ele><time>2026-04-18T09:23:14.026Z</time></trkpt><trkpt lat="53.2064585" lon="-2.0453103"><ele>240.99999999999997</ele><time>2026-04-18T09:23:16.026Z</time></trkpt><trkpt lat="53.2063833" lon="-2.0452729"><ele>241.0</ele><time>2026-04-18T09:23:18.033Z</time></trkpt><trkpt lat="53.2063084" lon="-2.0452209"><ele>240.99999999999997</ele><time>2026-04-18T09:23:21.031Z</time></trkpt><trkpt lat="53.2062511" lon="-2.0451431"><ele>241.0</ele><time>2026-04-18T09:23:26.032Z</time></trkpt><trkpt lat="53.2061874" lon="-2.0450823"><ele>241.0</ele><time>2026-04-18T09:23:29.036Z</time></trkpt><trkpt lat="53.2060941" lon="-2.045078"><ele>241.0</ele><time>2026-04-18T09:23:34.037Z</time></trkpt><trkpt lat="53.2059927" lon="-2.0451127"><ele>240.99999999999997</ele><time>2026-04-18T09:23:36.034Z</time></trkpt><trkpt lat="53.2058875" lon="-2.0451205"><ele>241.0</ele><time>2026-04-18T09:23:38.035Z</time></trkpt><trkpt lat="53.2057853" lon="-2.0451089"><ele>241.0</ele><time>2026-04-18T09:23:40.031Z</time></trkpt><trkpt lat="53.2056821" lon="-2.0450902"><ele>241.00000000000003</ele><time>2026-04-18T09:23:42.032Z</time></trkpt><trkpt lat="53.2055913" lon="-2.0450602"><ele>241.00000000000003</ele><time>2026-04-18T09:23:44.034Z</time></trkpt><trkpt lat="53.2054968" lon="-2.0450033"><ele>241.0</ele><time>2026-04-18T09:23:46.035Z</time></trkpt><trkpt lat="53.2054209" lon="-2.0448465"><ele>241.0</ele><time>2026-04-18T09:23:48.035Z</time></trkpt><trkpt lat="53.205382" lon="-2.0447354"><ele>240.99999999999997</ele><time>2026-04-18T09:23:49.036Z</time></trkpt><trkpt lat="53.2053304" lon="-2.0446281"><ele>241.0</ele><time>2026-04-18T09:23:50.031Z</time></trkpt><trkpt lat="53.2052603" lon="-2.0445122"><ele>241.0</ele><time>2026-04-18T09:23:51.035Z</time></trkpt><trkpt lat="53.20519" lon="-2.0444158"><ele>241.0</ele><time>2026-04-18T09:23:52.034Z</time></trkpt><trkpt lat="53.2051257" lon="-2.0443361"><ele>240.99999999999997</ele><time>2026-04-18T09:23:53.034Z</time></trkpt><trkpt lat="53.2050705" lon="-2.0442652"><ele>241.0</ele><time>2026-04-18T09:23:54.035Z</time></trkpt><trkpt lat="53.2050257" lon="-2.0441339"><ele>242.49999999999997</ele><time>2026-04-18T09:23:56.035Z</time></trkpt><trkpt lat="53.2050157" lon="-2.0439247"><ele>244.0</ele><time>2026-04-18T09:23:58.033Z</time></trkpt><trkpt lat="53.2049991" lon="-2.0438075"><ele>245.5</ele><time>2026-04-18T09:23:59.032Z</time></trkpt><trkpt lat="53.2049659" lon="-2.0436951"><ele>247.0</ele><time>2026-04-18T09:24:00.035Z</time></trkpt><trkpt lat="53.204915" lon="-2.0435718"><ele>248.49999999999997</ele><time>2026-04-18T09:24:01.033Z</time></trkpt><trkpt lat="53.2048728" lon="-2.0434738"><ele>250.0</ele><time>2026-04-18T09:24:02.034Z</time></trkpt><trkpt lat="53.2047709" lon="-2.0433529"><ele>251.4</ele><time>2026-04-18T09:24:04.034Z</time></trkpt><trkpt lat="53.2046493" lon="-2.0433038"><ele>252.8</ele><time>2026-04-18T09:24:06.033Z</time></trkpt><trkpt lat="53.2045735" lon="-2.0432768"><ele>254.2</ele><time>2026-04-18T09:24:07.032Z</time></trkpt><trkpt lat="53.2044911" lon="-2.0432564"><ele>255.6</ele><time>2026-04-18T09:24:08.031Z</time></trkpt><trkpt lat="53.2043997" lon="-2.0432413"><ele>257.0</ele><time>2026-04-18T09:24:09.031Z</time></trkpt><trkpt lat="53.2042955" lon="-2.0432348"><ele>259.4</ele><time>2026-04-18T09:24:10.033Z</time></trkpt><trkpt lat="53.204187" lon="-2.0432358"><ele>261.79999999999995</ele><time>2026-04-18T09:24:11.034Z</time></trkpt><trkpt lat="53.2040818" lon="-2.0432432"><ele>264.2</ele><time>2026-04-18T09:24:12.033Z</time></trkpt><trkpt lat="53.2039775" lon="-2.0432535"><ele>266.59999999999997</ele><time>2026-04-18T09:24:13.04Z</time></trkpt><trkpt lat="53.2038695" lon="-2.0432563"><ele>269.0</ele><time>2026-04-18T09:24:14.034Z</time></trkpt><trkpt lat="53.2037625" lon="-2.0432481"><ele>269.5</ele><time>2026-04-18T09:24:15.034Z</time></trkpt><trkpt lat="53.2036459" lon="-2.0432295"><ele>270.0</ele><time>2026-04-18T09:24:16.032Z</time></trkpt><trkpt lat="53.2035129" lon="-2.0431988"><ele>270.5</ele><time>2026-04-18T09:24:17.034Z</time></trkpt><trkpt lat="53.203356" lon="-2.0431413"><ele>271.0</ele><time>2026-04-18T09:24:18.036Z</time></trkpt><trkpt lat="53.2031792" lon="-2.0430588"><ele>271.0</ele><time>2026-04-18T09:24:19.032Z</time></trkpt><trkpt lat="53.2030059" lon="-2.0429783"><ele>271.0</ele><time>2026-04-18T09:24:20.036Z</time></trkpt><trkpt lat="53.2028439" lon="-2.042899"><ele>271.0</ele><time>2026-04-18T09:24:21.034Z</time></trkpt><trkpt lat="53.2026956" lon="-2.0428197"><ele>271.0</ele><time>2026-04-18T09:24:22.033Z</time></trkpt><trkpt lat="53.2025548" lon="-2.0427522"><ele>271.0</ele><time>2026-04-18T09:24:23.031Z</time></trkpt><trkpt lat="53.2024215" lon="-2.042684"><ele>271.0</ele><time>2026-04-18T09:24:24.035Z</time></trkpt><trkpt lat="53.2022925" lon="-2.0426113"><ele>271.0</ele><time>2026-04-18T09:24:25.033Z</time></trkpt><trkpt lat="53.2021637" lon="-2.0425396"><ele>270.5</ele><time>2026-04-18T09:24:26.034Z</time></trkpt><trkpt lat="53.2020337" lon="-2.0424681"><ele>270.0</ele><time>2026-04-18T09:24:27.036Z</time></trkpt><trkpt lat="53.2019021" lon="-2.0423908"><ele>269.5</ele><time>2026-04-18T09:24:28.035Z</time></trkpt><trkpt lat="53.2017728" lon="-2.0423159"><ele>269.0</ele><time>2026-04-18T09:24:29.028Z</time></trkpt><trkpt lat="53.201646" lon="-2.0422438"><ele>271.5</ele><time>2026-04-18T09:24:30.028Z</time></trkpt><trkpt lat="53.2015161" lon="-2.0421672"><ele>274.0</ele><time>2026-04-18T09:24:31.036Z</time></trkpt><trkpt lat="53.2013828" lon="-2.0420836"><ele>276.5</ele><time>2026-04-18T09:24:32.039Z</time></trkpt><trkpt lat="53.2012618" lon="-2.0420103"><ele>279.0</ele><time>2026-04-18T09:24:33.035Z</time></trkpt><trkpt lat="53.2011646" lon="-2.0419575"><ele>279.0</ele><time>2026-04-18T09:24:34.034Z</time></trkpt><trkpt lat="53.2010963" lon="-2.0419319"><ele>279.0</ele><time>2026-04-18T09:24:35.033Z</time></trkpt><trkpt lat="53.2010241" lon="-2.0419174"><ele>279.0</ele><time>2026-04-18T09:24:37.034Z</time></trkpt><trkpt lat="53.2010734" lon="-2.0418056"><ele>279.0</ele><time>2026-04-18T09:24:42.039Z</time></trkpt><trkpt lat="53.2011378" lon="-2.0417851"><ele>279.0</ele><time>2026-04-18T09:24:43.037Z</time></trkpt><trkpt lat="53.201227" lon="-2.041775"><ele>279.0</ele><time>2026-04-18T09:24:44.037Z</time></trkpt><trkpt lat="53.2013363" lon="-2.0417689"><ele>279.0</ele><time>2026-04-18T09:24:45.032Z</time></trkpt><trkpt lat="53.2014629" lon="-2.0417583"><ele>279.0</ele><time>2026-04-18T09:24:46.033Z</time></trkpt><trkpt lat="53.2016021" lon="-2.0417429"><ele>279.0</ele><time>2026-04-18T09:24:47.035Z</time></trkpt><trkpt lat="53.2017524" lon="-2.0417235"><ele>279.0</ele><time>2026-04-18T09:24:48.036Z</time></trkpt><trkpt lat="53.201917" lon="-2.0417127"><ele>280.3333333333333</ele><time>2026-04-18T09:24:49.036Z</time></trkpt><trkpt lat="53.2020879" lon="-2.0416935"><ele>281.66666666666663</ele><time>2026-04-18T09:24:50.037Z</time></trkpt><trkpt lat="53.2022678" lon="-2.0416631"><ele>283.0</ele><time>2026-04-18T09:24:51.037Z</time></trkpt><trkpt lat="53.2024614" lon="-2.0416165"><ele>290.0</ele><time>2026-04-18T09:24:52.037Z</time></trkpt><trkpt lat="53.2026599" lon="-2.0415657"><ele>297.0</ele><time>2026-04-18T09:24:53.035Z</time></trkpt><trkpt lat="53.2028405" lon="-2.0415015"><ele>304.0</ele><time>2026-04-18T09:24:54.038Z</time></trkpt><trkpt lat="53.2029964" lon="-2.0414277"><ele>304.0</ele><time>2026-04-18T09:24:55.036Z</time></trkpt><trkpt lat="53.2031187" lon="-2.0413608"><ele>304.0</ele><time>2026-04-18T09:24:56.035Z</time></trkpt><trkpt lat="53.2032155" lon="-2.041277"><ele>304.0</ele><time>2026-04-18T09:24:57.038Z</time></trkpt><trkpt lat="53.2033012" lon="-2.0411725"><ele>304.0</ele><time>2026-04-18T09:24:58.039Z</time></trkpt><trkpt lat="53.2033722" lon="-2.0410336"><ele>303.25</ele><time>2026-04-18T09:24:59.037Z</time></trkpt><trkpt lat="53.2034294" lon="-2.0408569"><ele>302.5</ele><time>2026-04-18T09:25:00.039Z</time></trkpt><trkpt lat="53.2034835" lon="-2.0406469"><ele>301.75</ele><time>2026-04-18T09:25:01.026Z</time></trkpt><trkpt lat="53.2035411" lon="-2.0404018"><ele>301.0</ele><time>2026-04-18T09:25:02.035Z</time></trkpt><trkpt lat="53.2036015" lon="-2.0401432"><ele>307.3333333333333</ele><time>2026-04-18T09:25:03.04Z</time></trkpt><trkpt lat="53.203667" lon="-2.0398809"><ele>313.6666666666667</ele><time>2026-04-18T09:25:04.037Z</time></trkpt><trkpt lat="53.2037389" lon="-2.0396042"><ele>320.0</ele><time>2026-04-18T09:25:05.036Z</time></trkpt><trkpt lat="53.203816" lon="-2.0392986"><ele>323.5</ele><time>2026-04-18T09:25:06.034Z</time></trkpt><trkpt lat="53.2038977" lon="-2.0389604"><ele>327.0</ele><time>2026-04-18T09:25:07.038Z</time></trkpt><trkpt lat="53.2039911" lon="-2.0385824"><ele>323.5</ele><time>2026-04-18T09:25:08.035Z</time></trkpt><trkpt lat="53.2040955" lon="-2.0381796"><ele>320.0</ele><time>2026-04-18T09:25:09.035Z</time></trkpt><trkpt lat="53.204208" lon="-2.0377617"><ele>323.0</ele><time>2026-04-18T09:25:10.028Z</time></trkpt><trkpt lat="53.2043177" lon="-2.037348"><ele>326.0</ele><time>2026-04-18T09:25:11.035Z</time></trkpt><trkpt lat="53.204416" lon="-2.03696"><ele>327.6666666666667</ele><time>2026-04-18T09:25:12.034Z</time></trkpt><trkpt lat="53.2045068" lon="-2.0366235"><ele>329.3333333333333</ele><time>2026-04-18T09:25:13.037Z</time></trkpt><trkpt lat="53.2045829" lon="-2.0363263"><ele>331.0</ele><time>2026-04-18T09:25:14.038Z</time></trkpt><trkpt lat="53.20465" lon="-2.0360297"><ele>332.66666666666663</ele><time>2026-04-18T09:25:15.037Z</time></trkpt><trkpt lat="53.2047058" lon="-2.0357201"><ele>334.3333333333333</ele><time>2026-04-18T09:25:16.038Z</time></trkpt><trkpt lat="53.2047537" lon="-2.0353965"><ele>336.0</ele><time>2026-04-18T09:25:17.039Z</time></trkpt><trkpt lat="53.2047913" lon="-2.0350856"><ele>336.6666666666667</ele><time>2026-04-18T09:25:18.039Z</time></trkpt><trkpt lat="53.2048193" lon="-2.0347877"><ele>337.33333333333337</ele><time>2026-04-18T09:25:19.038Z</time></trkpt><trkpt lat="53.204837" lon="-2.0344971"><ele>338.0</ele><time>2026-04-18T09:25:20.039Z</time></trkpt><trkpt lat="53.2048502" lon="-2.0342033"><ele>337.33333333333337</ele><time>2026-04-18T09:25:21.038Z</time></trkpt><trkpt lat="53.2048635" lon="-2.0338912"><ele>336.6666666666667</ele><time>2026-04-18T09:25:22.037Z</time></trkpt><trkpt lat="53.2048822" lon="-2.0335645"><ele>336.0</ele><time>2026-04-18T09:25:23.044Z</time></trkpt><trkpt lat="53.2049086" lon="-2.0332164"><ele>336.0</ele><time>2026-04-18T09:25:24.037Z</time></trkpt><trkpt lat="53.2049349" lon="-2.0328477"><ele>336.0</ele><time>2026-04-18T09:25:25.041Z</time></trkpt><trkpt lat="53.2049592" lon="-2.0324659"><ele>338.0</ele><time>2026-04-18T09:25:26.032Z</time></trkpt><trkpt lat="53.2049866" lon="-2.0320756"><ele>340.0</ele><time>2026-04-18T09:25:27.038Z</time></trkpt><trkpt lat="53.2050192" lon="-2.0316828"><ele>342.0</ele><time>2026-04-18T09:25:28.032Z</time></trkpt><trkpt lat="53.2050512" lon="-2.0312833"><ele>344.0</ele><time>2026-04-18T09:25:29.039Z</time></trkpt><trkpt lat="53.2050869" lon="-2.0308805"><ele>345.5</ele><time>2026-04-18T09:25:30.04Z</time></trkpt><trkpt lat="53.2051211" lon="-2.0304772"><ele>347.0</ele><time>2026-04-18T09:25:31.037Z</time></trkpt><trkpt lat="53.2051527" lon="-2.0300873"><ele>349.0</ele><time>2026-04-18T09:25:32.036Z</time></trkpt><trkpt lat="53.2052177" lon="-2.0294063"><ele>351.0</ele><time>2026-04-18T09:25:34.037Z</time></trkpt><trkpt lat="53.2052479" lon="-2.0291066"><ele>352.0</ele><time>2026-04-18T09:25:35.037Z</time></trkpt><trkpt lat="53.2052758" lon="-2.0288346"><ele>353.0</ele><time>2026-04-18T09:25:36.039Z</time></trkpt><trkpt lat="53.2053001" lon="-2.0285738"><ele>354.0</ele><time>2026-04-18T09:25:37.04Z</time></trkpt><trkpt lat="53.2053222" lon="-2.0283188"><ele>355.3333333333333</ele><time>2026-04-18T09:25:38.039Z</time></trkpt><trkpt lat="53.205349" lon="-2.0280695"><ele>356.66666666666663</ele><time>2026-04-18T09:25:39.039Z</time></trkpt><trkpt lat="53.2053919" lon="-2.0278275"><ele>358.0</ele><time>2026-04-18T09:25:40.037Z</time></trkpt><trkpt lat="53.205456" lon="-2.0275878"><ele>359.3333333333333</ele><time>2026-04-18T09:25:41.039Z</time></trkpt><trkpt lat="53.20554" lon="-2.0273494"><ele>360.6666666666667</ele><time>2026-04-18T09:25:42.038Z</time></trkpt><trkpt lat="53.2056356" lon="-2.0271133"><ele>362.0</ele><time>2026-04-18T09:25:43.042Z</time></trkpt><trkpt lat="53.2057245" lon="-2.026877"><ele>359.6666666666667</ele><time>2026-04-18T09:25:44.039Z</time></trkpt><trkpt lat="53.2058061" lon="-2.0266327"><ele>357.3333333333333</ele><time>2026-04-18T09:25:45.039Z</time></trkpt><trkpt lat="53.2058848" lon="-2.0263835"><ele>355.0</ele><time>2026-04-18T09:25:46.04Z</time></trkpt><trkpt lat="53.2059657" lon="-2.0261385"><ele>355.0</ele><time>2026-04-18T09:25:47.039Z</time></trkpt><trkpt lat="53.2060481" lon="-2.0259287"><ele>355.0</ele><time>2026-04-18T09:25:48.045Z</time></trkpt><trkpt lat="53.2061156" lon="-2.0257879"><ele>355.0</ele><time>2026-04-18T09:25:49.04Z</time></trkpt><trkpt lat="53.2061499" lon="-2.0256905"><ele>355.0</ele><time>2026-04-18T09:25:50.039Z</time></trkpt><trkpt lat="53.2061333" lon="-2.0254959"><ele>355.0</ele><time>2026-04-18T09:25:52.037Z</time></trkpt><trkpt lat="53.2061209" lon="-2.0253562"><ele>357.4</ele><time>2026-04-18T09:25:53.043Z</time></trkpt><trkpt lat="53.2061137" lon="-2.0251662"><ele>359.8</ele><time>2026-04-18T09:25:54.038Z</time></trkpt><trkpt lat="53.2061126" lon="-2.0249694"><ele>362.20000000000005</ele><time>2026-04-18T09:25:55.036Z</time></trkpt><trkpt lat="53.2061149" lon="-2.0247927"><ele>364.6</ele><time>2026-04-18T09:25:56.038Z</time></trkpt><trkpt lat="53.2061263" lon="-2.024664"><ele>367.0</ele><time>2026-04-18T09:25:57.038Z</time></trkpt><trkpt lat="53.2061673" lon="-2.0245093"><ele>368.66666666666663</ele><time>2026-04-18T09:25:59.037Z</time></trkpt><trkpt lat="53.2061934" lon="-2.0243804"><ele>370.3333333333333</ele><time>2026-04-18T09:26:01.036Z</time></trkpt><trkpt lat="53.2062019" lon="-2.0242607"><ele>372.0</ele><time>2026-04-18T09:26:03.041Z</time></trkpt><trkpt lat="53.206123" lon="-2.0242385"><ele>373.6666666666667</ele><time>2026-04-18T09:26:05.036Z</time></trkpt><trkpt lat="53.2060555" lon="-2.0243217"><ele>375.33333333333337</ele><time>2026-04-18T09:26:06.039Z</time></trkpt><trkpt lat="53.2059757" lon="-2.0244199"><ele>377.0</ele><time>2026-04-18T09:26:07.035Z</time></trkpt><trkpt lat="53.2058795" lon="-2.0245223"><ele>377.0</ele><time>2026-04-18T09:26:08.039Z</time></trkpt><trkpt lat="53.2057755" lon="-2.0246183"><ele>377.0</ele><time>2026-04-18T09:26:09.037Z</time></trkpt><trkpt lat="53.2056814" lon="-2.0246921"><ele>377.0</ele><time>2026-04-18T09:26:10.038Z</time></trkpt><trkpt lat="53.2056037" lon="-2.0247369"><ele>377.0</ele><time>2026-04-18T09:26:11.036Z</time></trkpt><trkpt lat="53.205497" lon="-2.0247373"><ele>377.0</ele><time>2026-04-18T09:26:13.04Z</time></trkpt><trkpt lat="53.2053982" lon="-2.0247233"><ele>379.8</ele><time>2026-04-18T09:26:15.038Z</time></trkpt><trkpt lat="53.2053038" lon="-2.0247421"><ele>382.6</ele><time>2026-04-18T09:26:17.035Z</time></trkpt><trkpt lat="53.205211" lon="-2.0247728"><ele>385.40000000000003</ele><time>2026-04-18T09:26:19.037Z</time></trkpt><trkpt lat="53.2051128" lon="-2.0247817"><ele>388.20000000000005</ele><time>2026-04-18T09:26:21.037Z</time></trkpt><trkpt lat="53.2050119" lon="-2.0247633"><ele>391.0</ele><time>2026-04-18T09:26:23.041Z</time></trkpt><trkpt lat="53.2049064" lon="-2.0247173"><ele>390.99999999999994</ele><time>2026-04-18T09:26:25.037Z</time></trkpt><trkpt lat="53.2048442" lon="-2.0246992"><ele>391.0</ele><time>2026-04-18T09:26:26.038Z</time></trkpt><trkpt lat="53.2047809" lon="-2.0246807"><ele>391.0</ele><time>2026-04-18T09:26:27.038Z</time></trkpt><trkpt lat="53.2047175" lon="-2.024659"><ele>391.0</ele><time>2026-04-18T09:26:28.038Z</time></trkpt><trkpt lat="53.2046491" lon="-2.0246326"><ele>391.0</ele><time>2026-04-18T09:26:29.038Z</time></trkpt><trkpt lat="53.2045752" lon="-2.0246081"><ele>390.99999999999994</ele><time>2026-04-18T09:26:30.039Z</time></trkpt><trkpt lat="53.2044991" lon="-2.0245841"><ele>391.0</ele><time>2026-04-18T09:26:31.039Z</time></trkpt><trkpt lat="53.204425" lon="-2.0245675"><ele>391.6666666666667</ele><time>2026-04-18T09:26:32.039Z</time></trkpt><trkpt lat="53.204347" lon="-2.0245485"><ele>392.33333333333337</ele><time>2026-04-18T09:26:33.038Z</time></trkpt><trkpt lat="53.2042677" lon="-2.0245266"><ele>393.0</ele><time>2026-04-18T09:26:34.039Z</time></trkpt><trkpt lat="53.2041829" lon="-2.0245039"><ele>393.66666666666663</ele><time>2026-04-18T09:26:35.04Z</time></trkpt><trkpt lat="53.2040917" lon="-2.0244731"><ele>394.3333333333333</ele><time>2026-04-18T09:26:36.039Z</time></trkpt><trkpt lat="53.2039955" lon="-2.0244296"><ele>395.0</ele><time>2026-04-18T09:26:37.04Z</time></trkpt><trkpt lat="53.2038944" lon="-2.024377"><ele>395.0</ele><time>2026-04-18T09:26:38.041Z</time></trkpt><trkpt lat="53.2037838" lon="-2.0243199"><ele>395.0</ele><time>2026-04-18T09:26:39.038Z</time></trkpt><trkpt lat="53.2036778" lon="-2.0242689"><ele>395.0</ele><time>2026-04-18T09:26:40.032Z</time></trkpt><trkpt lat="53.2035793" lon="-2.0242268"><ele>395.0</ele><time>2026-04-18T09:26:41.039Z</time></trkpt><trkpt lat="53.2034825" lon="-2.0241865"><ele>395.0</ele><time>2026-04-18T09:26:42.041Z</time></trkpt><trkpt lat="53.203385" lon="-2.0241473"><ele>396.0</ele><time>2026-04-18T09:26:43.044Z</time></trkpt><trkpt lat="53.2032909" lon="-2.0241076"><ele>397.0</ele><time>2026-04-18T09:26:44.031Z</time></trkpt><trkpt lat="53.2031905" lon="-2.0240589"><ele>398.0</ele><time>2026-04-18T09:26:45.039Z</time></trkpt><trkpt lat="53.2030852" lon="-2.0240008"><ele>399.0</ele><time>2026-04-18T09:26:46.04Z</time></trkpt><trkpt lat="53.2029898" lon="-2.0239444"><ele>400.0</ele><time>2026-04-18T09:26:47.04Z</time></trkpt><trkpt lat="53.2029099" lon="-2.0238958"><ele>400.00000000000006</ele><time>2026-04-18T09:26:48.041Z</time></trkpt><trkpt lat="53.2028416" lon="-2.0238436"><ele>400.0</ele><time>2026-04-18T09:26:49.041Z</time></trkpt><trkpt lat="53.2027784" lon="-2.023784"><ele>400.0</ele><time>2026-04-18T09:26:50.042Z</time></trkpt><trkpt lat="53.2027149" lon="-2.0237131"><ele>400.0</ele><time>2026-04-18T09:26:51.042Z</time></trkpt><trkpt lat="53.2026522" lon="-2.023636"><ele>400.00000000000006</ele><time>2026-04-18T09:26:52.041Z</time></trkpt><trkpt lat="53.2025771" lon="-2.0235486"><ele>400.0</ele><time>2026-04-18T09:26:53.044Z</time></trkpt><trkpt lat="53.2024912" lon="-2.0234499"><ele>400.00000000000006</ele><time>2026-04-18T09:26:54.036Z</time></trkpt><trkpt lat="53.2024078" lon="-2.0233514"><ele>400.0</ele><time>2026-04-18T09:26:55.044Z</time></trkpt><trkpt lat="53.2023313" lon="-2.0232633"><ele>400.0</ele><time>2026-04-18T09:26:56.04Z</time></trkpt><trkpt lat="53.2022574" lon="-2.0231865"><ele>400.0</ele><time>2026-04-18T09:26:57.043Z</time></trkpt><trkpt lat="53.2021921" lon="-2.0231236"><ele>400.00000000000006</ele><time>2026-04-18T09:26:58.041Z</time></trkpt><trkpt lat="53.2021249" lon="-2.0230637"><ele>400.0</ele><time>2026-04-18T09:26:59.043Z</time></trkpt><trkpt lat="53.2020567" lon="-2.0230019"><ele>400.0</ele><time>2026-04-18T09:27:00.041Z</time></trkpt><trkpt lat="53.2019863" lon="-2.0229321"><ele>400.0</ele><time>2026-04-18T09:27:01.043Z</time></trkpt><trkpt lat="53.2019183" lon="-2.0228461"><ele>400.0</ele><time>2026-04-18T09:27:02.039Z</time></trkpt><trkpt lat="53.2018509" lon="-2.0227412"><ele>400.0</ele><time>2026-04-18T09:27:03.044Z</time></trkpt><trkpt lat="53.2017791" lon="-2.0226105"><ele>400.0</ele><time>2026-04-18T09:27:04.041Z</time></trkpt><trkpt lat="53.201706" lon="-2.0224598"><ele>400.00000000000006</ele><time>2026-04-18T09:27:05.04Z</time></trkpt><trkpt lat="53.201647" lon="-2.022326"><ele>400.0</ele><time>2026-04-18T09:27:06.042Z</time></trkpt><trkpt lat="53.2015949" lon="-2.0222161"><ele>400.0</ele><time>2026-04-18T09:27:07.04Z</time></trkpt><trkpt lat="53.2015362" lon="-2.02209"><ele>400.0</ele><time>2026-04-18T09:27:09.039Z</time></trkpt><trkpt lat="53.2014874" lon="-2.0220148"><ele>400.00000000000006</ele><time>2026-04-18T09:27:13.042Z</time></trkpt><trkpt lat="53.2014186" lon="-2.0219217"><ele>400.0</ele><time>2026-04-18T09:28:00.042Z</time></trkpt><trkpt lat="53.2013796" lon="-2.0218208"><ele>398.6</ele><time>2026-04-18T09:28:01.041Z</time></trkpt><trkpt lat="53.2013142" lon="-2.0216897"><ele>397.2</ele><time>2026-04-18T09:28:02.039Z</time></trkpt><trkpt lat="53.2012428" lon="-2.021563"><ele>395.79999999999995</ele><time>2026-04-18T09:28:03.041Z</time></trkpt><trkpt lat="53.2011689" lon="-2.021453"><ele>394.4</ele><time>2026-04-18T09:28:04.031Z</time></trkpt><trkpt lat="53.2010928" lon="-2.0213612"><ele>393.0</ele><time>2026-04-18T09:28:05.042Z</time></trkpt><trkpt lat="53.2010208" lon="-2.0212829"><ele>393.0</ele><time>2026-04-18T09:28:06.043Z</time></trkpt><trkpt lat="53.2009531" lon="-2.0212179"><ele>393.0</ele><time>2026-04-18T09:28:07.041Z</time></trkpt><trkpt lat="53.2008847" lon="-2.0211492"><ele>393.0</ele><time>2026-04-18T09:28:08.041Z</time></trkpt><trkpt lat="53.200814" lon="-2.0210682"><ele>393.0</ele><time>2026-04-18T09:28:09.04Z</time></trkpt><trkpt lat="53.2007447" lon="-2.0209909"><ele>393.0</ele><time>2026-04-18T09:28:10.042Z</time></trkpt><trkpt lat="53.2006713" lon="-2.0209105"><ele>393.0</ele><time>2026-04-18T09:28:11.043Z</time></trkpt><trkpt lat="53.2005997" lon="-2.0208263"><ele>392.3333333333333</ele><time>2026-04-18T09:28:12.042Z</time></trkpt><trkpt lat="53.2005283" lon="-2.0207432"><ele>391.66666666666663</ele><time>2026-04-18T09:28:13.048Z</time></trkpt><trkpt lat="53.2004601" lon="-2.0206564"><ele>391.0</ele><time>2026-04-18T09:28:14.044Z</time></trkpt><trkpt lat="53.2003977" lon="-2.020571"><ele>390.3333333333333</ele><time>2026-04-18T09:28:15.043Z</time></trkpt><trkpt lat="53.2003335" lon="-2.0204851"><ele>389.66666666666663</ele><time>2026-04-18T09:28:16.04Z</time></trkpt><trkpt lat="53.2002577" lon="-2.0203981"><ele>389.0</ele><time>2026-04-18T09:28:17.043Z</time></trkpt><trkpt lat="53.2001739" lon="-2.0203119"><ele>389.0</ele><time>2026-04-18T09:28:18.04Z</time></trkpt><trkpt lat="53.2000913" lon="-2.0202266"><ele>389.0</ele><time>2026-04-18T09:28:19.043Z</time></trkpt><trkpt lat="53.2000164" lon="-2.0201358"><ele>389.0</ele><time>2026-04-18T09:28:20.044Z</time></trkpt><trkpt lat="53.1999487" lon="-2.0200347"><ele>389.0</ele><time>2026-04-18T09:28:21.045Z</time></trkpt><trkpt lat="53.1998826" lon="-2.0199248"><ele>389.0</ele><time>2026-04-18T09:28:22.045Z</time></trkpt><trkpt lat="53.1998175" lon="-2.019848"><ele>388.42857142857144</ele><time>2026-04-18T09:28:23.046Z</time></trkpt><trkpt lat="53.1997551" lon="-2.0197964"><ele>387.85714285714283</ele><time>2026-04-18T09:28:24.045Z</time></trkpt><trkpt lat="53.199691" lon="-2.0197622"><ele>387.2857142857143</ele><time>2026-04-18T09:28:25.044Z</time></trkpt><trkpt lat="53.199629" lon="-2.0197241"><ele>386.7142857142857</ele><time>2026-04-18T09:28:26.044Z</time></trkpt><trkpt lat="53.1995668" lon="-2.0196886"><ele>386.1428571428571</ele><time>2026-04-18T09:28:27.044Z</time></trkpt><trkpt lat="53.1995031" lon="-2.0196507"><ele>385.57142857142856</ele><time>2026-04-18T09:28:28.045Z</time></trkpt><trkpt lat="53.1994397" lon="-2.019609"><ele>385.0</ele><time>2026-04-18T09:28:29.045Z</time></trkpt><trkpt lat="53.19938" lon="-2.0195559"><ele>385.00000000000006</ele><time>2026-04-18T09:28:30.046Z</time></trkpt><trkpt lat="53.1993244" lon="-2.0194953"><ele>385.0</ele><time>2026-04-18T09:28:31.042Z</time></trkpt><trkpt lat="53.1992659" lon="-2.0194304"><ele>385.0</ele><time>2026-04-18T09:28:32.042Z</time></trkpt><trkpt lat="53.1991953" lon="-2.0193709"><ele>385.0</ele><time>2026-04-18T09:28:33.046Z</time></trkpt><trkpt lat="53.1991114" lon="-2.019308"><ele>385.00000000000006</ele><time>2026-04-18T09:28:34.042Z</time></trkpt><trkpt lat="53.1990175" lon="-2.0192351"><ele>385.0</ele><time>2026-04-18T09:28:35.041Z</time></trkpt><trkpt lat="53.19892" lon="-2.0191649"><ele>384.00000000000006</ele><time>2026-04-18T09:28:36.042Z</time></trkpt><trkpt lat="53.1988287" lon="-2.0191033"><ele>383.0</ele><time>2026-04-18T09:28:37.041Z</time></trkpt><trkpt lat="53.1987468" lon="-2.0190438"><ele>382.0</ele><time>2026-04-18T09:28:38.044Z</time></trkpt><trkpt lat="53.1986746" lon="-2.0189896"><ele>381.0</ele><time>2026-04-18T09:28:39.044Z</time></trkpt><trkpt lat="53.1986129" lon="-2.0189326"><ele>380.0</ele><time>2026-04-18T09:28:40.043Z</time></trkpt><trkpt lat="53.1985564" lon="-2.0188676"><ele>379.0</ele><time>2026-04-18T09:28:41.04Z</time></trkpt><trkpt lat="53.1984997" lon="-2.0187917"><ele>379.0</ele><time>2026-04-18T09:28:42.041Z</time></trkpt><trkpt lat="53.1984471" lon="-2.0187118"><ele>379.0</ele><time>2026-04-18T09:28:43.048Z</time></trkpt><trkpt lat="53.198396" lon="-2.0186323"><ele>379.0</ele><time>2026-04-18T09:28:44.045Z</time></trkpt><trkpt lat="53.1983426" lon="-2.0185594"><ele>379.0</ele><time>2026-04-18T09:28:45.046Z</time></trkpt><trkpt lat="53.1982895" lon="-2.0185"><ele>379.0</ele><time>2026-04-18T09:28:46.044Z</time></trkpt><trkpt lat="53.1981912" lon="-2.0183914"><ele>379.0</ele><time>2026-04-18T09:28:48.043Z</time></trkpt><trkpt lat="53.1981064" lon="-2.018251"><ele>377.5</ele><time>2026-04-18T09:28:50.048Z</time></trkpt><trkpt lat="53.1980094" lon="-2.0181251"><ele>376.0</ele><time>2026-04-18T09:28:52.044Z</time></trkpt><trkpt lat="53.1979544" lon="-2.0180695"><ele>374.5</ele><time>2026-04-18T09:28:53.044Z</time></trkpt><trkpt lat="53.1978964" lon="-2.0180173"><ele>373.0</ele><time>2026-04-18T09:28:54.046Z</time></trkpt><trkpt lat="53.1978353" lon="-2.0179791"><ele>371.5</ele><time>2026-04-18T09:28:55.044Z</time></trkpt><trkpt lat="53.197769" lon="-2.0179454"><ele>370.0</ele><time>2026-04-18T09:28:56.046Z</time></trkpt><trkpt lat="53.1977016" lon="-2.0179061"><ele>370.0</ele><time>2026-04-18T09:28:57.047Z</time></trkpt><trkpt lat="53.1976375" lon="-2.0178516"><ele>370.0</ele><time>2026-04-18T09:28:58.044Z</time></trkpt><trkpt lat="53.1975765" lon="-2.0177876"><ele>370.0</ele><time>2026-04-18T09:28:59.043Z</time></trkpt><trkpt lat="53.1975178" lon="-2.0177213"><ele>370.0</ele><time>2026-04-18T09:29:00.043Z</time></trkpt><trkpt lat="53.1974602" lon="-2.0176531"><ele>370.0</ele><time>2026-04-18T09:29:01.044Z</time></trkpt><trkpt lat="53.1974021" lon="-2.0175965"><ele>370.0</ele><time>2026-04-18T09:29:02.041Z</time></trkpt><trkpt lat="53.1973027" lon="-2.0175308"><ele>369.66666666666663</ele><time>2026-04-18T09:29:04.042Z</time></trkpt><trkpt lat="53.1972439" lon="-2.0174856"><ele>369.3333333333333</ele><time>2026-04-18T09:29:35.042Z</time></trkpt><trkpt lat="53.1971839" lon="-2.0174492"><ele>369.0</ele><time>2026-04-18T09:30:26.048Z</time></trkpt><trkpt lat="53.1970615" lon="-2.0173456"><ele>368.6666666666667</ele><time>2026-04-18T09:30:28.041Z</time></trkpt><trkpt lat="53.1969909" lon="-2.0172651"><ele>368.33333333333337</ele><time>2026-04-18T09:30:29.043Z</time></trkpt><trkpt lat="53.1969243" lon="-2.0171724"><ele>368.0</ele><time>2026-04-18T09:30:30.045Z</time></trkpt><trkpt lat="53.1968564" lon="-2.0170743"><ele>366.59999999999997</ele><time>2026-04-18T09:30:31.037Z</time></trkpt><trkpt lat="53.1967819" lon="-2.0169799"><ele>365.2</ele><time>2026-04-18T09:30:32.039Z</time></trkpt><trkpt lat="53.1967041" lon="-2.0169081"><ele>363.8</ele><time>2026-04-18T09:30:33.045Z</time></trkpt><trkpt lat="53.1966207" lon="-2.0168416"><ele>362.4</ele><time>2026-04-18T09:30:34.037Z</time></trkpt><trkpt lat="53.1965332" lon="-2.0167818"><ele>361.0</ele><time>2026-04-18T09:30:35.037Z</time></trkpt><trkpt lat="53.1964408" lon="-2.0167269"><ele>361.0</ele><time>2026-04-18T09:30:36.036Z</time></trkpt><trkpt lat="53.1963468" lon="-2.0166802"><ele>361.0</ele><time>2026-04-18T09:30:37.035Z</time></trkpt><trkpt lat="53.1962569" lon="-2.0166365"><ele>361.0</ele><time>2026-04-18T09:30:38.037Z</time></trkpt><trkpt lat="53.1961748" lon="-2.0165836"><ele>361.0</ele><time>2026-04-18T09:30:39.034Z</time></trkpt><trkpt lat="53.1961032" lon="-2.0165144"><ele>361.0</ele><time>2026-04-18T09:30:40.037Z</time></trkpt><trkpt lat="53.196038" lon="-2.0164282"><ele>361.0</ele><time>2026-04-18T09:30:41.043Z</time></trkpt><trkpt lat="53.1959763" lon="-2.0163378"><ele>360.14285714285717</ele><time>2026-04-18T09:30:42.04Z</time></trkpt><trkpt lat="53.1959168" lon="-2.0162638"><ele>359.2857142857143</ele><time>2026-04-18T09:30:43.049Z</time></trkpt><trkpt lat="53.1958566" lon="-2.0162077"><ele>358.42857142857144</ele><time>2026-04-18T09:30:44.043Z</time></trkpt><trkpt lat="53.1957929" lon="-2.0161659"><ele>357.57142857142856</ele><time>2026-04-18T09:30:45.041Z</time></trkpt><trkpt lat="53.195731" lon="-2.0161321"><ele>356.7142857142857</ele><time>2026-04-18T09:30:46.041Z</time></trkpt><trkpt lat="53.195631" lon="-2.0160831"><ele>355.85714285714283</ele><time>2026-04-18T09:30:48.044Z</time></trkpt><trkpt lat="53.1955673" lon="-2.0160626"><ele>355.0</ele><time>2026-04-18T09:31:16.042Z</time></trkpt><trkpt lat="53.1954952" lon="-2.0160523"><ele>354.3333333333333</ele><time>2026-04-18T09:32:15.044Z</time></trkpt><trkpt lat="53.1954247" lon="-2.0160237"><ele>353.66666666666663</ele><time>2026-04-18T09:32:17.043Z</time></trkpt><trkpt lat="53.1953273" lon="-2.0160275"><ele>353.0</ele><time>2026-04-18T09:32:19.046Z</time></trkpt><trkpt lat="53.1952617" lon="-2.0160284"><ele>352.3333333333333</ele><time>2026-04-18T09:32:20.045Z</time></trkpt><trkpt lat="53.1951596" lon="-2.0160309"><ele>351.6666666666667</ele><time>2026-04-18T09:32:22.042Z</time></trkpt><trkpt lat="53.1950894" lon="-2.0160215"><ele>351.0</ele><time>2026-04-18T09:32:24.042Z</time></trkpt><trkpt lat="53.195029" lon="-2.0159677"><ele>351.0</ele><time>2026-04-18T09:32:55.043Z</time></trkpt><trkpt lat="53.1949601" lon="-2.0159558"><ele>351.0</ele><time>2026-04-18T09:34:35.04Z</time></trkpt><trkpt lat="53.1948968" lon="-2.0158735"><ele>351.0</ele><time>2026-04-18T09:34:56.032Z</time></trkpt><trkpt lat="53.1948395" lon="-2.0157833"><ele>351.0</ele><time>2026-04-18T09:34:58.04Z</time></trkpt><trkpt lat="53.1947782" lon="-2.0156856"><ele>351.0</ele><time>2026-04-18T09:35:00.039Z</time></trkpt><trkpt lat="53.1947082" lon="-2.0155899"><ele>351.0</ele><time>2026-04-18T09:35:02.041Z</time></trkpt><trkpt lat="53.1946365" lon="-2.0155104"><ele>349.0</ele><time>2026-04-18T09:35:04.04Z</time></trkpt><trkpt lat="53.1945749" lon="-2.0154566"><ele>347.0</ele><time>2026-04-18T09:35:06.042Z</time></trkpt><trkpt lat="53.1944962" lon="-2.0153703"><ele>345.0</ele><time>2026-04-18T09:35:09.04Z</time></trkpt><trkpt lat="53.1944305" lon="-2.0152966"><ele>343.0</ele><time>2026-04-18T09:35:11.04Z</time></trkpt><trkpt lat="53.1943712" lon="-2.0152302"><ele>341.0</ele><time>2026-04-18T09:35:13.045Z</time></trkpt><trkpt lat="53.1943144" lon="-2.0151718"><ele>339.0</ele><time>2026-04-18T09:35:15.039Z</time></trkpt><trkpt lat="53.1942692" lon="-2.0150742"><ele>339.25</ele><time>2026-04-18T09:35:17.042Z</time></trkpt><trkpt lat="53.1942736" lon="-2.0148309"><ele>339.5</ele><time>2026-04-18T09:35:19.042Z</time></trkpt><trkpt lat="53.1942879" lon="-2.0146608"><ele>339.75</ele><time>2026-04-18T09:35:20.044Z</time></trkpt><trkpt lat="53.1943114" lon="-2.0144684"><ele>340.0</ele><time>2026-04-18T09:35:21.039Z</time></trkpt><trkpt lat="53.1943503" lon="-2.014237"><ele>340.3333333333333</ele><time>2026-04-18T09:35:22.04Z</time></trkpt><trkpt lat="53.1944047" lon="-2.0139827"><ele>340.6666666666667</ele><time>2026-04-18T09:35:23.043Z</time></trkpt><trkpt lat="53.1944672" lon="-2.0137421"><ele>341.0</ele><time>2026-04-18T09:35:24.043Z</time></trkpt><trkpt lat="53.1945228" lon="-2.0135273"><ele>340.0</ele><time>2026-04-18T09:35:25.041Z</time></trkpt><trkpt lat="53.1945604" lon="-2.0133169"><ele>339.0</ele><time>2026-04-18T09:35:26.04Z</time></trkpt><trkpt lat="53.1945842" lon="-2.0130831"><ele>338.0</ele><time>2026-04-18T09:35:27.041Z</time></trkpt><trkpt lat="53.1946027" lon="-2.0128288"><ele>337.0</ele><time>2026-04-18T09:35:28.042Z</time></trkpt><trkpt lat="53.1946172" lon="-2.0125714"><ele>336.25</ele><time>2026-04-18T09:35:29.041Z</time></trkpt><trkpt lat="53.1946298" lon="-2.0123243"><ele>335.5</ele><time>2026-04-18T09:35:30.041Z</time></trkpt><trkpt lat="53.1946485" lon="-2.0120911"><ele>334.75</ele><time>2026-04-18T09:35:31.04Z</time></trkpt><trkpt lat="53.1946717" lon="-2.0118758"><ele>334.0</ele><time>2026-04-18T09:35:32.041Z</time></trkpt><trkpt lat="53.1946892" lon="-2.0116687"><ele>332.25</ele><time>2026-04-18T09:35:33.031Z</time></trkpt><trkpt lat="53.1947007" lon="-2.0114665"><ele>330.5</ele><time>2026-04-18T09:35:34.041Z</time></trkpt><trkpt lat="53.1947172" lon="-2.0112748"><ele>328.75</ele><time>2026-04-18T09:35:35.042Z</time></trkpt><trkpt lat="53.1947457" lon="-2.0110906"><ele>327.0</ele><time>2026-04-18T09:35:36.043Z</time></trkpt><trkpt lat="53.1947827" lon="-2.0109038"><ele>325.5</ele><time>2026-04-18T09:35:37.043Z</time></trkpt><trkpt lat="53.1948219" lon="-2.0107164"><ele>324.0</ele><time>2026-04-18T09:35:38.041Z</time></trkpt><trkpt lat="53.1948554" lon="-2.0105108"><ele>322.5</ele><time>2026-04-18T09:35:39.042Z</time></trkpt><trkpt lat="53.1948794" lon="-2.0102755"><ele>321.0</ele><time>2026-04-18T09:35:40.043Z</time></trkpt><trkpt lat="53.1948992" lon="-2.0100314"><ele>319.75</ele><time>2026-04-18T09:35:41.041Z</time></trkpt><trkpt lat="53.1949133" lon="-2.0097825"><ele>318.5</ele><time>2026-04-18T09:35:42.04Z</time></trkpt><trkpt lat="53.1949261" lon="-2.0095408"><ele>317.25</ele><time>2026-04-18T09:35:43.045Z</time></trkpt><trkpt lat="53.1949472" lon="-2.0093117"><ele>316.0</ele><time>2026-04-18T09:35:44.041Z</time></trkpt><trkpt lat="53.1949813" lon="-2.0091017"><ele>314.5</ele><time>2026-04-18T09:35:45.039Z</time></trkpt><trkpt lat="53.1950269" lon="-2.0089057"><ele>313.0</ele><time>2026-04-18T09:35:46.039Z</time></trkpt><trkpt lat="53.1950811" lon="-2.0087144"><ele>311.5</ele><time>2026-04-18T09:35:47.04Z</time></trkpt><trkpt lat="53.1951361" lon="-2.0085212"><ele>310.0</ele><time>2026-04-18T09:35:48.041Z</time></trkpt><trkpt lat="53.1951923" lon="-2.0083339"><ele>308.75</ele><time>2026-04-18T09:35:49.039Z</time></trkpt><trkpt lat="53.1952436" lon="-2.0081391"><ele>307.5</ele><time>2026-04-18T09:35:50.032Z</time></trkpt><trkpt lat="53.1952913" lon="-2.0079435"><ele>306.25</ele><time>2026-04-18T09:35:51.041Z</time></trkpt><trkpt lat="53.195328" lon="-2.0077547"><ele>305.0</ele><time>2026-04-18T09:35:52.04Z</time></trkpt><trkpt lat="53.1953489" lon="-2.0075712"><ele>304.6</ele><time>2026-04-18T09:35:53.041Z</time></trkpt><trkpt lat="53.1953609" lon="-2.0073888"><ele>304.2</ele><time>2026-04-18T09:35:54.041Z</time></trkpt><trkpt lat="53.1953683" lon="-2.0072196"><ele>303.8</ele><time>2026-04-18T09:35:55.041Z</time></trkpt><trkpt lat="53.1953658" lon="-2.0070672"><ele>303.4</ele><time>2026-04-18T09:35:56.042Z</time></trkpt><trkpt lat="53.1953593" lon="-2.0069247"><ele>303.0</ele><time>2026-04-18T09:35:57.041Z</time></trkpt><trkpt lat="53.1953517" lon="-2.0067743"><ele>303.6</ele><time>2026-04-18T09:35:58.039Z</time></trkpt><trkpt lat="53.1953479" lon="-2.0066125"><ele>304.20000000000005</ele><time>2026-04-18T09:35:59.04Z</time></trkpt><trkpt lat="53.1953499" lon="-2.006435"><ele>304.8</ele><time>2026-04-18T09:36:00.032Z</time></trkpt><trkpt lat="53.1953592" lon="-2.0062465"><ele>305.40000000000003</ele><time>2026-04-18T09:36:01.04Z</time></trkpt><trkpt lat="53.1953731" lon="-2.0060434"><ele>306.0</ele><time>2026-04-18T09:36:02.039Z</time></trkpt><trkpt lat="53.1953859" lon="-2.0058227"><ele>306.6</ele><time>2026-04-18T09:36:03.041Z</time></trkpt><trkpt lat="53.1953975" lon="-2.0056084"><ele>307.20000000000005</ele><time>2026-04-18T09:36:04.04Z</time></trkpt><trkpt lat="53.1954101" lon="-2.005428"><ele>307.79999999999995</ele><time>2026-04-18T09:36:05.038Z</time></trkpt><trkpt lat="53.1954287" lon="-2.0052687"><ele>308.4</ele><time>2026-04-18T09:36:06.041Z</time></trkpt><trkpt lat="53.1954651" lon="-2.0051063"><ele>309.0</ele><time>2026-04-18T09:36:07.04Z</time></trkpt><trkpt lat="53.195509" lon="-2.0049207"><ele>309.0</ele><time>2026-04-18T09:36:08.042Z</time></trkpt><trkpt lat="53.1955504" lon="-2.0047139"><ele>309.0</ele><time>2026-04-18T09:36:09.038Z</time></trkpt><trkpt lat="53.1955897" lon="-2.0045126"><ele>309.0</ele><time>2026-04-18T09:36:10.04Z</time></trkpt><trkpt lat="53.1956367" lon="-2.0043315"><ele>309.0</ele><time>2026-04-18T09:36:11.037Z</time></trkpt><trkpt lat="53.1957014" lon="-2.0041765"><ele>313.4</ele><time>2026-04-18T09:36:12.037Z</time></trkpt><trkpt lat="53.1957734" lon="-2.0040314"><ele>317.79999999999995</ele><time>2026-04-18T09:36:13.043Z</time></trkpt><trkpt lat="53.1958376" lon="-2.0038805"><ele>322.20000000000005</ele><time>2026-04-18T09:36:14.039Z</time></trkpt><trkpt lat="53.1958886" lon="-2.0037157"><ele>326.6</ele><time>2026-04-18T09:36:15.038Z</time></trkpt><trkpt lat="53.1959308" lon="-2.0035378"><ele>331.0</ele><time>2026-04-18T09:36:16.04Z</time></trkpt><trkpt lat="53.195977" lon="-2.0033595"><ele>330.20000000000005</ele><time>2026-04-18T09:36:17.039Z</time></trkpt><trkpt lat="53.1960281" lon="-2.0031949"><ele>329.40000000000003</ele><time>2026-04-18T09:36:18.041Z</time></trkpt><trkpt lat="53.1960799" lon="-2.0030472"><ele>328.6</ele><time>2026-04-18T09:36:19.043Z</time></trkpt><trkpt lat="53.1961283" lon="-2.0029055"><ele>327.8</ele><time>2026-04-18T09:36:20.043Z</time></trkpt><trkpt lat="53.1961786" lon="-2.002762"><ele>327.0</ele><time>2026-04-18T09:36:21.043Z</time></trkpt><trkpt lat="53.1962374" lon="-2.0026103"><ele>327.75</ele><time>2026-04-18T09:36:22.042Z</time></trkpt><trkpt lat="53.196309" lon="-2.0024572"><ele>328.5</ele><time>2026-04-18T09:36:23.046Z</time></trkpt><trkpt lat="53.1963958" lon="-2.0023075"><ele>329.25</ele><time>2026-04-18T09:36:24.041Z</time></trkpt><trkpt lat="53.1964898" lon="-2.0021557"><ele>330.0</ele><time>2026-04-18T09:36:25.042Z</time></trkpt><trkpt lat="53.1965854" lon="-2.0019932"><ele>330.0</ele><time>2026-04-18T09:36:26.042Z</time></trkpt><trkpt lat="53.1966803" lon="-2.0018327"><ele>330.0</ele><time>2026-04-18T09:36:27.043Z</time></trkpt><trkpt lat="53.1967834" lon="-2.0016778"><ele>330.0</ele><time>2026-04-18T09:36:28.041Z</time></trkpt><trkpt lat="53.1968935" lon="-2.0015292"><ele>330.0</ele><time>2026-04-18T09:36:29.042Z</time></trkpt><trkpt lat="53.1969993" lon="-2.0013813"><ele>329.75</ele><time>2026-04-18T09:36:30.042Z</time></trkpt><trkpt lat="53.1970983" lon="-2.0012375"><ele>329.5</ele><time>2026-04-18T09:36:31.04Z</time></trkpt><trkpt lat="53.1971999" lon="-2.0011095"><ele>329.25</ele><time>2026-04-18T09:36:32.041Z</time></trkpt><trkpt lat="53.1973121" lon="-2.000998"><ele>329.0</ele><time>2026-04-18T09:36:33.043Z</time></trkpt><trkpt lat="53.1974239" lon="-2.0008872"><ele>326.2</ele><time>2026-04-18T09:36:34.042Z</time></trkpt><trkpt lat="53.1975259" lon="-2.0007834"><ele>323.4</ele><time>2026-04-18T09:36:35.041Z</time></trkpt><trkpt lat="53.1976244" lon="-2.0006907"><ele>320.6</ele><time>2026-04-18T09:36:36.041Z</time></trkpt><trkpt lat="53.1977198" lon="-2.0006076"><ele>317.8</ele><time>2026-04-18T09:36:37.04Z</time></trkpt><trkpt lat="53.1978107" lon="-2.0005347"><ele>315.0</ele><time>2026-04-18T09:36:38.04Z</time></trkpt><trkpt lat="53.197901" lon="-2.0004844"><ele>315.0</ele><time>2026-04-18T09:36:39.038Z</time></trkpt><trkpt lat="53.1979898" lon="-2.0004615"><ele>315.0</ele><time>2026-04-18T09:36:40.043Z</time></trkpt><trkpt lat="53.1980912" lon="-2.0004803"><ele>315.0</ele><time>2026-04-18T09:36:41.039Z</time></trkpt><trkpt lat="53.1982038" lon="-2.0005296"><ele>315.0</ele><time>2026-04-18T09:36:42.04Z</time></trkpt><trkpt lat="53.1983159" lon="-2.0005651"><ele>315.0</ele><time>2026-04-18T09:36:43.044Z</time></trkpt><trkpt lat="53.198427" lon="-2.0005898"><ele>317.0</ele><time>2026-04-18T09:36:44.039Z</time></trkpt><trkpt lat="53.1985287" lon="-2.0006055"><ele>319.0</ele><time>2026-04-18T09:36:45.04Z</time></trkpt><trkpt lat="53.1986252" lon="-2.0006219"><ele>321.0</ele><time>2026-04-18T09:36:46.042Z</time></trkpt><trkpt lat="53.1987112" lon="-2.0006443"><ele>323.0</ele><time>2026-04-18T09:36:47.04Z</time></trkpt><trkpt lat="53.1987814" lon="-2.0006799"><ele>325.0</ele><time>2026-04-18T09:36:48.039Z</time></trkpt><trkpt lat="53.1988433" lon="-2.0007191"><ele>327.0</ele><time>2026-04-18T09:36:49.038Z</time></trkpt><trkpt lat="53.1989525" lon="-2.0008284"><ele>328.6666666666667</ele><time>2026-04-18T09:36:51.039Z</time></trkpt><trkpt lat="53.1989923" lon="-2.0009225"><ele>330.3333333333333</ele><time>2026-04-18T09:36:52.038Z</time></trkpt><trkpt lat="53.1990278" lon="-2.0010384"><ele>332.0</ele><time>2026-04-18T09:36:53.039Z</time></trkpt><trkpt lat="53.1990664" lon="-2.0011589"><ele>333.66666666666663</ele><time>2026-04-18T09:36:54.037Z</time></trkpt><trkpt lat="53.1991031" lon="-2.001266"><ele>335.3333333333333</ele><time>2026-04-18T09:36:55.039Z</time></trkpt><trkpt lat="53.1991487" lon="-2.0013438"><ele>337.0</ele><time>2026-04-18T09:36:56.038Z</time></trkpt><trkpt lat="53.1992553" lon="-2.00135"><ele>338.0</ele><time>2026-04-18T09:36:58.036Z</time></trkpt><trkpt lat="53.1993219" lon="-2.0013043"><ele>339.0</ele><time>2026-04-18T09:36:59.039Z</time></trkpt><trkpt lat="53.1994037" lon="-2.0012343"><ele>340.0</ele><time>2026-04-18T09:37:00.039Z</time></trkpt><trkpt lat="53.1995067" lon="-2.0011353"><ele>341.0</ele><time>2026-04-18T09:37:01.038Z</time></trkpt><trkpt lat="53.1996206" lon="-2.0010089"><ele>342.0</ele><time>2026-04-18T09:37:02.038Z</time></trkpt><trkpt lat="53.1997379" lon="-2.0008853"><ele>342.75</ele><time>2026-04-18T09:37:03.039Z</time></trkpt><trkpt lat="53.1998515" lon="-2.000769"><ele>343.5</ele><time>2026-04-18T09:37:04.038Z</time></trkpt><trkpt lat="53.1999595" lon="-2.0006561"><ele>344.25</ele><time>2026-04-18T09:37:05.039Z</time></trkpt><trkpt lat="53.2000626" lon="-2.000547"><ele>345.0</ele><time>2026-04-18T09:37:06.039Z</time></trkpt><trkpt lat="53.2001592" lon="-2.0004361"><ele>345.0</ele><time>2026-04-18T09:37:07.039Z</time></trkpt><trkpt lat="53.2002579" lon="-2.0003189"><ele>345.0</ele><time>2026-04-18T09:37:08.031Z</time></trkpt><trkpt lat="53.2003629" lon="-2.0001943"><ele>345.0</ele><time>2026-04-18T09:37:09.036Z</time></trkpt><trkpt lat="53.2004692" lon="-2.0000603"><ele>345.0</ele><time>2026-04-18T09:37:10.039Z</time></trkpt><trkpt lat="53.2005739" lon="-1.9999206"><ele>347.2</ele><time>2026-04-18T09:37:11.037Z</time></trkpt><trkpt lat="53.200671" lon="-1.9997946"><ele>349.4</ele><time>2026-04-18T09:37:12.04Z</time></trkpt><trkpt lat="53.2007605" lon="-1.9996839"><ele>351.6</ele><time>2026-04-18T09:37:13.04Z</time></trkpt><trkpt lat="53.2008415" lon="-1.9995779"><ele>353.8</ele><time>2026-04-18T09:37:14.038Z</time></trkpt><trkpt lat="53.2009213" lon="-1.9994687"><ele>356.0</ele><time>2026-04-18T09:37:15.038Z</time></trkpt><trkpt lat="53.2009992" lon="-1.9993615"><ele>356.0</ele><time>2026-04-18T09:37:16.038Z</time></trkpt><trkpt lat="53.2010833" lon="-1.9992683"><ele>356.0</ele><time>2026-04-18T09:37:17.036Z</time></trkpt><trkpt lat="53.2011707" lon="-1.9991965"><ele>356.0</ele><time>2026-04-18T09:37:18.039Z</time></trkpt><trkpt lat="53.2012508" lon="-1.9991243"><ele>356.0</ele><time>2026-04-18T09:37:19.039Z</time></trkpt><trkpt lat="53.2013153" lon="-1.9990137"><ele>356.0</ele><time>2026-04-18T09:37:20.037Z</time></trkpt><trkpt lat="53.2013702" lon="-1.9988621"><ele>354.8</ele><time>2026-04-18T09:37:21.037Z</time></trkpt><trkpt lat="53.2014273" lon="-1.9987151"><ele>353.6</ele><time>2026-04-18T09:37:22.036Z</time></trkpt><trkpt lat="53.2014912" lon="-1.9985991"><ele>352.4</ele><time>2026-04-18T09:37:23.037Z</time></trkpt><trkpt lat="53.2015703" lon="-1.9985246"><ele>351.2</ele><time>2026-04-18T09:37:24.036Z</time></trkpt><trkpt lat="53.2016602" lon="-1.998464"><ele>350.0</ele><time>2026-04-18T09:37:25.036Z</time></trkpt><trkpt lat="53.2017562" lon="-1.9983958"><ele>351.0</ele><time>2026-04-18T09:37:26.035Z</time></trkpt><trkpt lat="53.2018577" lon="-1.9983155"><ele>352.0</ele><time>2026-04-18T09:37:27.033Z</time></trkpt><trkpt lat="53.2019662" lon="-1.998241"><ele>353.0</ele><time>2026-04-18T09:37:28.035Z</time></trkpt><trkpt lat="53.2020773" lon="-1.9981663"><ele>354.0</ele><time>2026-04-18T09:37:29.034Z</time></trkpt><trkpt lat="53.2021833" lon="-1.9980904"><ele>354.0</ele><time>2026-04-18T09:37:30.037Z</time></trkpt><trkpt lat="53.2022879" lon="-1.9980323"><ele>354.0</ele><time>2026-04-18T09:37:31.036Z</time></trkpt><trkpt lat="53.2023924" lon="-1.9980068"><ele>354.0</ele><time>2026-04-18T09:37:32.035Z</time></trkpt><trkpt lat="53.2024986" lon="-1.9980178"><ele>354.0</ele><time>2026-04-18T09:37:33.037Z</time></trkpt><trkpt lat="53.2026077" lon="-1.9980437"><ele>354.0</ele><time>2026-04-18T09:37:34.037Z</time></trkpt><trkpt lat="53.2027085" lon="-1.9980339"><ele>356.2</ele><time>2026-04-18T09:37:35.035Z</time></trkpt><trkpt lat="53.202806" lon="-1.9979829"><ele>358.4</ele><time>2026-04-18T09:37:36.034Z</time></trkpt><trkpt lat="53.2029104" lon="-1.9979285"><ele>360.6</ele><time>2026-04-18T09:37:37.035Z</time></trkpt><trkpt lat="53.2030236" lon="-1.9978882"><ele>362.8</ele><time>2026-04-18T09:37:38.035Z</time></trkpt><trkpt lat="53.2031303" lon="-1.9978648"><ele>365.0</ele><time>2026-04-18T09:37:39.029Z</time></trkpt><trkpt lat="53.203218" lon="-1.9978446"><ele>366.8</ele><time>2026-04-18T09:37:40.036Z</time></trkpt><trkpt lat="53.2032855" lon="-1.9978207"><ele>368.6</ele><time>2026-04-18T09:37:41.036Z</time></trkpt><trkpt lat="53.2033841" lon="-1.9977937"><ele>370.4</ele><time>2026-04-18T09:37:43.037Z</time></trkpt><trkpt lat="53.2034471" lon="-1.9978201"><ele>372.2</ele><time>2026-04-18T09:38:02.035Z</time></trkpt><trkpt lat="53.2035695" lon="-1.9977638"><ele>374.0</ele><time>2026-04-18T09:38:14.035Z</time></trkpt><trkpt lat="53.2036555" lon="-1.9977193"><ele>374.0</ele><time>2026-04-18T09:38:15.033Z</time></trkpt><trkpt lat="53.203752" lon="-1.9976634"><ele>374.0</ele><time>2026-04-18T09:38:16.034Z</time></trkpt><trkpt lat="53.2038635" lon="-1.9976182"><ele>374.0</ele><time>2026-04-18T09:38:17.028Z</time></trkpt><trkpt lat="53.2039631" lon="-1.9975833"><ele>374.0</ele><time>2026-04-18T09:38:18.033Z</time></trkpt><trkpt lat="53.204051" lon="-1.9975467"><ele>374.0</ele><time>2026-04-18T09:38:19.031Z</time></trkpt><trkpt lat="53.2041345" lon="-1.9975191"><ele>371.0</ele><time>2026-04-18T09:38:20.033Z</time></trkpt><trkpt lat="53.2042225" lon="-1.9974873"><ele>368.0</ele><time>2026-04-18T09:38:21.034Z</time></trkpt><trkpt lat="53.2043228" lon="-1.9974405"><ele>365.0</ele><time>2026-04-18T09:38:22.033Z</time></trkpt><trkpt lat="53.204435" lon="-1.9973926"><ele>362.0</ele><time>2026-04-18T09:38:23.034Z</time></trkpt><trkpt lat="53.2045505" lon="-1.99734"><ele>359.0</ele><time>2026-04-18T09:38:24.035Z</time></trkpt><trkpt lat="53.204661" lon="-1.9973087"><ele>359.0</ele><time>2026-04-18T09:38:25.036Z</time></trkpt><trkpt lat="53.2047663" lon="-1.9972962"><ele>359.0</ele><time>2026-04-18T09:38:26.039Z</time></trkpt><trkpt lat="53.204866" lon="-1.9972951"><ele>359.0</ele><time>2026-04-18T09:38:27.034Z</time></trkpt><trkpt lat="53.2049654" lon="-1.9973094"><ele>359.0</ele><time>2026-04-18T09:38:28.037Z</time></trkpt><trkpt lat="53.2050635" lon="-1.9973227"><ele>359.0</ele><time>2026-04-18T09:38:29.037Z</time></trkpt><trkpt lat="53.2051616" lon="-1.9973332"><ele>359.0</ele><time>2026-04-18T09:38:30.037Z</time></trkpt><trkpt lat="53.2052568" lon="-1.9973421"><ele>359.0</ele><time>2026-04-18T09:38:31.036Z</time></trkpt><trkpt lat="53.2053509" lon="-1.9973545"><ele>359.0</ele><time>2026-04-18T09:38:32.037Z</time></trkpt><trkpt lat="53.2054472" lon="-1.9973658"><ele>359.0</ele><time>2026-04-18T09:38:33.038Z</time></trkpt><trkpt lat="53.2055525" lon="-1.997369"><ele>359.0</ele><time>2026-04-18T09:38:34.039Z</time></trkpt><trkpt lat="53.2056686" lon="-1.9973717"><ele>357.25</ele><time>2026-04-18T09:38:35.039Z</time></trkpt><trkpt lat="53.2057889" lon="-1.9973793"><ele>355.5</ele><time>2026-04-18T09:38:36.039Z</time></trkpt><trkpt lat="53.2059073" lon="-1.9973915"><ele>353.75</ele><time>2026-04-18T09:38:37.041Z</time></trkpt><trkpt lat="53.2060302" lon="-1.9974104"><ele>352.0</ele><time>2026-04-18T09:38:38.04Z</time></trkpt><trkpt lat="53.2061538" lon="-1.9974354"><ele>352.0</ele><time>2026-04-18T09:38:39.041Z</time></trkpt><trkpt lat="53.2062664" lon="-1.9974707"><ele>352.0</ele><time>2026-04-18T09:38:40.04Z</time></trkpt><trkpt lat="53.2063694" lon="-1.9975176"><ele>352.0</ele><time>2026-04-18T09:38:41.036Z</time></trkpt><trkpt lat="53.2064626" lon="-1.9975704"><ele>352.0</ele><time>2026-04-18T09:38:42.036Z</time></trkpt><trkpt lat="53.2065494" lon="-1.9976343"><ele>352.0</ele><time>2026-04-18T09:38:43.044Z</time></trkpt><trkpt lat="53.2066289" lon="-1.9977057"><ele>352.16666666666663</ele><time>2026-04-18T09:38:44.037Z</time></trkpt><trkpt lat="53.206698" lon="-1.997771"><ele>352.3333333333333</ele><time>2026-04-18T09:38:45.031Z</time></trkpt><trkpt lat="53.2067683" lon="-1.9978184"><ele>352.5</ele><time>2026-04-18T09:38:46.038Z</time></trkpt><trkpt lat="53.2068404" lon="-1.9978303"><ele>352.6666666666667</ele><time>2026-04-18T09:38:47.04Z</time></trkpt><trkpt lat="53.2069051" lon="-1.9977896"><ele>352.83333333333337</ele><time>2026-04-18T09:38:48.038Z</time></trkpt><trkpt lat="53.2069534" lon="-1.9976984"><ele>353.0</ele><time>2026-04-18T09:38:49.039Z</time></trkpt><trkpt lat="53.206979" lon="-1.9975644"><ele>350.5</ele><time>2026-04-18T09:38:50.042Z</time></trkpt><trkpt lat="53.2069781" lon="-1.9973971"><ele>348.0</ele><time>2026-04-18T09:38:51.035Z</time></trkpt><trkpt lat="53.2069555" lon="-1.9972127"><ele>345.5</ele><time>2026-04-18T09:38:52.036Z</time></trkpt><trkpt lat="53.2069197" lon="-1.9970265"><ele>343.0</ele><time>2026-04-18T09:38:53.041Z</time></trkpt><trkpt lat="53.2068745" lon="-1.9968311"><ele>342.0</ele><time>2026-04-18T09:38:54.039Z</time></trkpt><trkpt lat="53.2068385" lon="-1.9966534"><ele>341.0</ele><time>2026-04-18T09:38:55.037Z</time></trkpt><trkpt lat="53.2068189" lon="-1.9965026"><ele>340.0</ele><time>2026-04-18T09:38:56.039Z</time></trkpt><trkpt lat="53.2068172" lon="-1.9963862"><ele>339.0</ele><time>2026-04-18T09:38:57.039Z</time></trkpt><trkpt lat="53.2068272" lon="-1.9962353"><ele>338.0</ele><time>2026-04-18T09:38:59.037Z</time></trkpt><trkpt lat="53.2068394" lon="-1.9961254"><ele>337.0</ele><time>2026-04-18T09:39:46.04Z</time></trkpt><trkpt lat="53.2068762" lon="-1.9959448"><ele>336.8571428571429</ele><time>2026-04-18T09:39:49.038Z</time></trkpt><trkpt lat="53.2068963" lon="-1.9958346"><ele>336.7142857142857</ele><time>2026-04-18T09:39:50.032Z</time></trkpt><trkpt lat="53.2069148" lon="-1.9957127"><ele>336.57142857142856</ele><time>2026-04-18T09:39:51.038Z</time></trkpt><trkpt lat="53.2069378" lon="-1.9955981"><ele>336.42857142857144</ele><time>2026-04-18T09:39:52.03Z</time></trkpt><trkpt lat="53.2069724" lon="-1.9954845"><ele>336.2857142857143</ele><time>2026-04-18T09:39:53.038Z</time></trkpt><trkpt lat="53.207019" lon="-1.9953712"><ele>336.14285714285717</ele><time>2026-04-18T09:39:54.038Z</time></trkpt><trkpt lat="53.2070685" lon="-1.9952827"><ele>336.0</ele><time>2026-04-18T09:39:55.037Z</time></trkpt><trkpt lat="53.2071575" lon="-1.9951698"><ele>336.0</ele><time>2026-04-18T09:39:57.035Z</time></trkpt><trkpt lat="53.2072402" lon="-1.9950948"><ele>336.0</ele><time>2026-04-18T09:39:59.038Z</time></trkpt><trkpt lat="53.20734" lon="-1.9951197"><ele>336.0</ele><time>2026-04-18T09:40:01.037Z</time></trkpt><trkpt lat="53.2073955" lon="-1.9951892"><ele>336.0</ele><time>2026-04-18T09:40:02.036Z</time></trkpt><trkpt lat="53.2074604" lon="-1.99527"><ele>336.0</ele><time>2026-04-18T09:40:03.038Z</time></trkpt><trkpt lat="53.2075303" lon="-1.995355"><ele>336.0</ele><time>2026-04-18T09:40:04.04Z</time></trkpt><trkpt lat="53.2076088" lon="-1.9954465"><ele>339.20000000000005</ele><time>2026-04-18T09:40:05.037Z</time></trkpt><trkpt lat="53.2076948" lon="-1.9955438"><ele>342.40000000000003</ele><time>2026-04-18T09:40:06.03Z</time></trkpt><trkpt lat="53.2077859" lon="-1.9956421"><ele>345.6</ele><time>2026-04-18T09:40:07.038Z</time></trkpt><trkpt lat="53.2078721" lon="-1.9957317"><ele>348.8</ele><time>2026-04-18T09:40:08.038Z</time></trkpt><trkpt lat="53.2079539" lon="-1.9958103"><ele>352.0</ele><time>2026-04-18T09:40:09.034Z</time></trkpt><trkpt lat="53.2080202" lon="-1.9958738"><ele>352.16666666666663</ele><time>2026-04-18T09:40:10.041Z</time></trkpt><trkpt lat="53.208106" lon="-1.995977"><ele>352.3333333333333</ele><time>2026-04-18T09:40:12.039Z</time></trkpt><trkpt lat="53.2081579" lon="-1.996054"><ele>352.5</ele><time>2026-04-18T09:40:37.031Z</time></trkpt><trkpt lat="53.2082325" lon="-1.9960711"><ele>352.6666666666667</ele><time>2026-04-18T09:41:32.042Z</time></trkpt><trkpt lat="53.2082991" lon="-1.996069"><ele>352.83333333333337</ele><time>2026-04-18T09:41:33.038Z</time></trkpt><trkpt lat="53.2083982" lon="-1.9960468"><ele>353.0</ele><time>2026-04-18T09:41:34.039Z</time></trkpt><trkpt lat="53.2085158" lon="-1.9960071"><ele>356.5</ele><time>2026-04-18T09:41:35.041Z</time></trkpt><trkpt lat="53.2086457" lon="-1.9959793"><ele>360.0</ele><time>2026-04-18T09:41:36.042Z</time></trkpt><trkpt lat="53.2087827" lon="-1.9959562"><ele>363.5</ele><time>2026-04-18T09:41:37.039Z</time></trkpt><trkpt lat="53.2089156" lon="-1.9959302"><ele>367.0</ele><time>2026-04-18T09:41:38.038Z</time></trkpt><trkpt lat="53.2090397" lon="-1.9959027"><ele>369.66666666666663</ele><time>2026-04-18T09:41:39.043Z</time></trkpt><trkpt lat="53.2091355" lon="-1.9958869"><ele>372.3333333333333</ele><time>2026-04-18T09:41:40.041Z</time></trkpt><trkpt lat="53.2092063" lon="-1.9959189"><ele>375.0</ele><time>2026-04-18T09:41:41.038Z</time></trkpt><trkpt lat="53.2092596" lon="-1.9960064"><ele>377.6666666666667</ele><time>2026-04-18T09:41:42.038Z</time></trkpt><trkpt lat="53.2093097" lon="-1.9961369"><ele>380.33333333333337</ele><time>2026-04-18T09:41:43.041Z</time></trkpt><trkpt lat="53.2093709" lon="-1.9962739"><ele>383.0</ele><time>2026-04-18T09:41:44.041Z</time></trkpt><trkpt lat="53.2094383" lon="-1.9964335"><ele>383.0</ele><time>2026-04-18T09:41:45.042Z</time></trkpt><trkpt lat="53.2095045" lon="-1.9966198"><ele>383.0</ele><time>2026-04-18T09:41:46.042Z</time></trkpt><trkpt lat="53.2095705" lon="-1.9968106"><ele>383.0</ele><time>2026-04-18T09:41:47.04Z</time></trkpt><trkpt lat="53.2096403" lon="-1.9969907"><ele>383.0</ele><time>2026-04-18T09:41:48.042Z</time></trkpt><trkpt lat="53.2097141" lon="-1.9971687"><ele>383.0</ele><time>2026-04-18T09:41:49.038Z</time></trkpt><trkpt lat="53.2097903" lon="-1.9973467"><ele>383.0</ele><time>2026-04-18T09:41:50.042Z</time></trkpt><trkpt lat="53.2098732" lon="-1.997516"><ele>383.0</ele><time>2026-04-18T09:41:51.038Z</time></trkpt><trkpt lat="53.2099546" lon="-1.9976718"><ele>383.0</ele><time>2026-04-18T09:41:52.039Z</time></trkpt><trkpt lat="53.2100288" lon="-1.9978024"><ele>385.83333333333337</ele><time>2026-04-18T09:41:53.042Z</time></trkpt><trkpt lat="53.2100809" lon="-1.9979015"><ele>388.6666666666667</ele><time>2026-04-18T09:41:54.039Z</time></trkpt><trkpt lat="53.2101176" lon="-1.9980017"><ele>391.5</ele><time>2026-04-18T09:41:56.037Z</time></trkpt><trkpt lat="53.2101066" lon="-1.9978073"><ele>394.33333333333337</ele><time>2026-04-18T09:42:03.039Z</time></trkpt><trkpt lat="53.210071" lon="-1.9976826"><ele>397.1666666666667</ele><time>2026-04-18T09:42:04.037Z</time></trkpt><trkpt lat="53.2100368" lon="-1.9975429"><ele>400.0</ele><time>2026-04-18T09:42:05.03Z</time></trkpt><trkpt lat="53.2100047" lon="-1.9974035"><ele>400.83333333333337</ele><time>2026-04-18T09:42:06.036Z</time></trkpt><trkpt lat="53.2099711" lon="-1.9972735"><ele>401.6666666666667</ele><time>2026-04-18T09:42:07.039Z</time></trkpt><trkpt lat="53.2099429" lon="-1.9971521"><ele>402.5</ele><time>2026-04-18T09:42:08.039Z</time></trkpt><trkpt lat="53.2099144" lon="-1.9970344"><ele>403.33333333333337</ele><time>2026-04-18T09:42:09.036Z</time></trkpt><trkpt lat="53.2098878" lon="-1.9969193"><ele>404.1666666666667</ele><time>2026-04-18T09:42:10.038Z</time></trkpt><trkpt lat="53.2098637" lon="-1.9968064"><ele>405.0</ele><time>2026-04-18T09:42:11.035Z</time></trkpt><trkpt lat="53.2098429" lon="-1.9966944"><ele>401.3333333333333</ele><time>2026-04-18T09:42:12.036Z</time></trkpt><trkpt lat="53.2098242" lon="-1.9965864"><ele>397.6666666666667</ele><time>2026-04-18T09:42:13.039Z</time></trkpt><trkpt lat="53.2097824" lon="-1.9963904"><ele>394.0</ele><time>2026-04-18T09:42:15.037Z</time></trkpt><trkpt lat="53.2097597" lon="-1.9962863"><ele>390.33333333333337</ele><time>2026-04-18T09:42:16.036Z</time></trkpt><trkpt lat="53.2097372" lon="-1.9961721"><ele>386.6666666666667</ele><time>2026-04-18T09:42:17.039Z</time></trkpt><trkpt lat="53.2097215" lon="-1.996049"><ele>383.0</ele><time>2026-04-18T09:42:18.04Z</time></trkpt><trkpt lat="53.2097181" lon="-1.9959111"><ele>382.4</ele><time>2026-04-18T09:42:19.041Z</time></trkpt><trkpt lat="53.209726" lon="-1.9957515"><ele>381.79999999999995</ele><time>2026-04-18T09:42:20.041Z</time></trkpt><trkpt lat="53.2097391" lon="-1.9955893"><ele>381.2</ele><time>2026-04-18T09:42:21.039Z</time></trkpt><trkpt lat="53.2097534" lon="-1.9954268"><ele>380.6</ele><time>2026-04-18T09:42:22.039Z</time></trkpt><trkpt lat="53.2097739" lon="-1.995272"><ele>380.0</ele><time>2026-04-18T09:42:23.044Z</time></trkpt><trkpt lat="53.2098005" lon="-1.9951328"><ele>384.0</ele><time>2026-04-18T09:42:24.039Z</time></trkpt><trkpt lat="53.2098288" lon="-1.9950078"><ele>388.0</ele><time>2026-04-18T09:42:25.038Z</time></trkpt><trkpt lat="53.2098561" lon="-1.9949078"><ele>392.0</ele><time>2026-04-18T09:42:26.037Z</time></trkpt><trkpt lat="53.2098796" lon="-1.9948043"><ele>396.0</ele><time>2026-04-18T09:42:28.039Z</time></trkpt><trkpt lat="53.2098808" lon="-1.9946816"><ele>399.99999999999994</ele><time>2026-04-18T09:42:31.037Z</time></trkpt><trkpt lat="53.209889" lon="-1.9945572"><ele>404.0</ele><time>2026-04-18T09:42:33.038Z</time></trkpt><trkpt lat="53.2099071" lon="-1.9944113"><ele>404.0</ele><time>2026-04-18T09:42:35.036Z</time></trkpt><trkpt lat="53.2099399" lon="-1.9942326"><ele>404.0</ele><time>2026-04-18T09:42:37.037Z</time></trkpt><trkpt lat="53.2099862" lon="-1.9940468"><ele>404.0</ele><time>2026-04-18T09:42:39.036Z</time></trkpt><trkpt lat="53.2100348" lon="-1.9938792"><ele>404.0</ele><time>2026-04-18T09:42:41.034Z</time></trkpt><trkpt lat="53.2100876" lon="-1.9937029"><ele>401.4</ele><time>2026-04-18T09:42:43.037Z</time></trkpt><trkpt lat="53.2101465" lon="-1.9935189"><ele>398.79999999999995</ele><time>2026-04-18T09:42:45.035Z</time></trkpt><trkpt lat="53.2102048" lon="-1.9933466"><ele>396.20000000000005</ele><time>2026-04-18T09:42:47.035Z</time></trkpt><trkpt lat="53.210252" lon="-1.9932216"><ele>393.6</ele><time>2026-04-18T09:42:49.036Z</time></trkpt><trkpt lat="53.2102885" lon="-1.9931268"><ele>391.0</ele><time>2026-04-18T09:42:51.029Z</time></trkpt><trkpt lat="53.21034" lon="-1.9929717"><ele>388.4</ele><time>2026-04-18T09:42:53.04Z</time></trkpt><trkpt lat="53.2103752" lon="-1.9928576"><ele>385.8</ele><time>2026-04-18T09:42:54.033Z</time></trkpt><trkpt lat="53.2104066" lon="-1.9927411"><ele>383.2</ele><time>2026-04-18T09:42:55.037Z</time></trkpt><trkpt lat="53.2104353" lon="-1.9926426"><ele>380.59999999999997</ele><time>2026-04-18T09:42:56.036Z</time></trkpt><trkpt lat="53.2104947" lon="-1.992478"><ele>378.0</ele><time>2026-04-18T09:42:58.033Z</time></trkpt><trkpt lat="53.2105475" lon="-1.9923014"><ele>378.3333333333333</ele><time>2026-04-18T09:43:00.039Z</time></trkpt><trkpt lat="53.2105656" lon="-1.9922007"><ele>378.6666666666667</ele><time>2026-04-18T09:43:01.037Z</time></trkpt><trkpt lat="53.2105795" lon="-1.9920743"><ele>379.0</ele><time>2026-04-18T09:43:02.036Z</time></trkpt><trkpt lat="53.2106" lon="-1.9919422"><ele>379.33333333333337</ele><time>2026-04-18T09:43:03.035Z</time></trkpt><trkpt lat="53.2106288" lon="-1.9918125"><ele>379.6666666666667</ele><time>2026-04-18T09:43:04.037Z</time></trkpt><trkpt lat="53.2106603" lon="-1.991685"><ele>380.0</ele><time>2026-04-18T09:43:05.036Z</time></trkpt><trkpt lat="53.2106977" lon="-1.9915666"><ele>380.0</ele><time>2026-04-18T09:43:06.036Z</time></trkpt><trkpt lat="53.2107373" lon="-1.9914514"><ele>380.0</ele><time>2026-04-18T09:43:07.037Z</time></trkpt><trkpt lat="53.2107771" lon="-1.9913445"><ele>380.0</ele><time>2026-04-18T09:43:08.035Z</time></trkpt><trkpt lat="53.2108138" lon="-1.9912391"><ele>380.0</ele><time>2026-04-18T09:43:09.035Z</time></trkpt><trkpt lat="53.2108487" lon="-1.9911355"><ele>380.0</ele><time>2026-04-18T09:43:10.036Z</time></trkpt><trkpt lat="53.2108787" lon="-1.991036"><ele>380.0</ele><time>2026-04-18T09:43:11.034Z</time></trkpt><trkpt lat="53.2109287" lon="-1.9908713"><ele>378.33333333333337</ele><time>2026-04-18T09:43:13.039Z</time></trkpt><trkpt lat="53.2109825" lon="-1.9907287"><ele>376.6666666666667</ele><time>2026-04-18T09:43:15.032Z</time></trkpt><trkpt lat="53.2110431" lon="-1.9905598"><ele>375.0</ele><time>2026-04-18T09:43:17.035Z</time></trkpt><trkpt lat="53.2110771" lon="-1.9904706"><ele>373.3333333333333</ele><time>2026-04-18T09:43:18.036Z</time></trkpt><trkpt lat="53.2111115" lon="-1.9903821"><ele>371.66666666666663</ele><time>2026-04-18T09:43:19.034Z</time></trkpt><trkpt lat="53.2111474" lon="-1.9902949"><ele>370.0</ele><time>2026-04-18T09:43:20.033Z</time></trkpt><trkpt lat="53.2111825" lon="-1.9901935"><ele>370.0</ele><time>2026-04-18T09:43:21.033Z</time></trkpt><trkpt lat="53.2112206" lon="-1.990087"><ele>370.0</ele><time>2026-04-18T09:43:22.035Z</time></trkpt><trkpt lat="53.2112609" lon="-1.9899902"><ele>370.0</ele><time>2026-04-18T09:43:23.038Z</time></trkpt><trkpt lat="53.211297" lon="-1.9898952"><ele>370.0</ele><time>2026-04-18T09:43:24.032Z</time></trkpt><trkpt lat="53.2113292" lon="-1.9898041"><ele>370.0</ele><time>2026-04-18T09:43:25.034Z</time></trkpt><trkpt lat="53.2113976" lon="-1.989626"><ele>370.0</ele><time>2026-04-18T09:43:27.029Z</time></trkpt><trkpt lat="53.2114362" lon="-1.9895234"><ele>369.71428571428567</ele><time>2026-04-18T09:43:28.035Z</time></trkpt><trkpt lat="53.2114779" lon="-1.9894091"><ele>369.42857142857144</ele><time>2026-04-18T09:43:29.032Z</time></trkpt><trkpt lat="53.2115209" lon="-1.9893013"><ele>369.1428571428571</ele><time>2026-04-18T09:43:30.035Z</time></trkpt><trkpt lat="53.2115613" lon="-1.989196"><ele>368.85714285714283</ele><time>2026-04-18T09:43:31.034Z</time></trkpt><trkpt lat="53.2116002" lon="-1.9890921"><ele>368.57142857142856</ele><time>2026-04-18T09:43:32.036Z</time></trkpt><trkpt lat="53.2116431" lon="-1.9889987"><ele>368.2857142857143</ele><time>2026-04-18T09:43:33.034Z</time></trkpt><trkpt lat="53.2116893" lon="-1.9889184"><ele>368.0</ele><time>2026-04-18T09:43:34.034Z</time></trkpt><trkpt lat="53.2117668" lon="-1.9887804"><ele>368.0</ele><time>2026-04-18T09:43:36.034Z</time></trkpt><trkpt lat="53.2118123" lon="-1.9886761"><ele>368.0</ele><time>2026-04-18T09:43:38.033Z</time></trkpt><trkpt lat="53.2118411" lon="-1.9885745"><ele>368.0</ele><time>2026-04-18T09:43:40.035Z</time></trkpt><trkpt lat="53.2119" lon="-1.9884403"><ele>368.0</ele><time>2026-04-18T09:43:43.037Z</time></trkpt><trkpt lat="53.2119886" lon="-1.9883032"><ele>368.0</ele><time>2026-04-18T09:43:45.033Z</time></trkpt><trkpt lat="53.2120404" lon="-1.9882076"><ele>368.0</ele><time>2026-04-18T09:43:46.033Z</time></trkpt><trkpt lat="53.2120967" lon="-1.9881123"><ele>369.2</ele><time>2026-04-18T09:43:47.032Z</time></trkpt><trkpt lat="53.2121499" lon="-1.9880219"><ele>370.4</ele><time>2026-04-18T09:43:48.035Z</time></trkpt><trkpt lat="53.2122317" lon="-1.9879016"><ele>371.59999999999997</ele><time>2026-04-18T09:43:50.029Z</time></trkpt><trkpt lat="53.212293" lon="-1.9878089"><ele>372.79999999999995</ele><time>2026-04-18T09:43:52.035Z</time></trkpt><trkpt lat="53.2123646" lon="-1.9876883"><ele>374.0</ele><time>2026-04-18T09:43:54.034Z</time></trkpt><trkpt lat="53.212464" lon="-1.9875838"><ele>374.0</ele><time>2026-04-18T09:43:56.033Z</time></trkpt><trkpt lat="53.2125433" lon="-1.9875433"><ele>374.0</ele><time>2026-04-18T09:43:57.033Z</time></trkpt><trkpt lat="53.2126408" lon="-1.9875077"><ele>374.0</ele><time>2026-04-18T09:43:58.032Z</time></trkpt><trkpt lat="53.2127403" lon="-1.9874894"><ele>374.0</ele><time>2026-04-18T09:43:59.035Z</time></trkpt><trkpt lat="53.2128227" lon="-1.9874852"><ele>374.0</ele><time>2026-04-18T09:44:00.035Z</time></trkpt><trkpt lat="53.2128894" lon="-1.9874818"><ele>374.0</ele><time>2026-04-18T09:44:01.033Z</time></trkpt><trkpt lat="53.2130165" lon="-1.9874777"><ele>375.0</ele><time>2026-04-18T09:44:03.036Z</time></trkpt><trkpt lat="53.2130831" lon="-1.9874699"><ele>376.0</ele><time>2026-04-18T09:44:04.035Z</time></trkpt><trkpt lat="53.2131484" lon="-1.9874649"><ele>377.0</ele><time>2026-04-18T09:44:05.034Z</time></trkpt><trkpt lat="53.2132618" lon="-1.9874709"><ele>378.0</ele><time>2026-04-18T09:44:07.035Z</time></trkpt><trkpt lat="53.2133573" lon="-1.9875082"><ele>379.0</ele><time>2026-04-18T09:44:09.034Z</time></trkpt><trkpt lat="53.2134308" lon="-1.9875357"><ele>380.0</ele><time>2026-04-18T09:44:11.034Z</time></trkpt><trkpt lat="53.2135239" lon="-1.9875512"><ele>380.0</ele><time>2026-04-18T09:44:13.034Z</time></trkpt><trkpt lat="53.213618" lon="-1.9875627"><ele>380.0</ele><time>2026-04-18T09:44:15.036Z</time></trkpt><trkpt lat="53.2137015" lon="-1.9875879"><ele>380.0</ele><time>2026-04-18T09:44:17.033Z</time></trkpt><trkpt lat="53.2137771" lon="-1.9876172"><ele>380.0</ele><time>2026-04-18T09:44:19.034Z</time></trkpt><trkpt lat="53.2138586" lon="-1.9876551"><ele>380.0</ele><time>2026-04-18T09:44:22.036Z</time></trkpt><trkpt lat="53.213899" lon="-1.9875678"><ele>380.0</ele><time>2026-04-18T09:44:26.036Z</time></trkpt><trkpt lat="53.2139247" lon="-1.9874687"><ele>376.6666666666667</ele><time>2026-04-18T09:44:32.036Z</time></trkpt><trkpt lat="53.2138862" lon="-1.9873539"><ele>373.33333333333337</ele><time>2026-04-18T09:44:36.037Z</time></trkpt><trkpt lat="53.2138233" lon="-1.9872587"><ele>370.0</ele><time>2026-04-18T09:44:38.036Z</time></trkpt><trkpt lat="53.2137675" lon="-1.9872074"><ele>366.6666666666667</ele><time>2026-04-18T09:44:53.037Z</time></trkpt><trkpt lat="53.2136903" lon="-1.9871808"><ele>363.3333333333333</ele><time>2026-04-18T09:49:05.038Z</time></trkpt><trkpt lat="53.2135795" lon="-1.9871728"><ele>360.0</ele><time>2026-04-18T09:49:07.035Z</time></trkpt><trkpt lat="53.2134523" lon="-1.9871547"><ele>360.0</ele><time>2026-04-18T09:49:09.034Z</time></trkpt><trkpt lat="53.2133607" lon="-1.9871138"><ele>360.0</ele><time>2026-04-18T09:49:10.038Z</time></trkpt><trkpt lat="53.2132541" lon="-1.987059"><ele>360.0</ele><time>2026-04-18T09:49:11.035Z</time></trkpt><trkpt lat="53.2131331" lon="-1.987004"><ele>360.0</ele><time>2026-04-18T09:49:12.034Z</time></trkpt><trkpt lat="53.2130216" lon="-1.9869467"><ele>360.0</ele><time>2026-04-18T09:49:13.039Z</time></trkpt><trkpt lat="53.2129288" lon="-1.9868927"><ele>359.1666666666667</ele><time>2026-04-18T09:49:14.038Z</time></trkpt><trkpt lat="53.2128437" lon="-1.9868508"><ele>358.3333333333333</ele><time>2026-04-18T09:49:15.036Z</time></trkpt><trkpt lat="53.2127628" lon="-1.9868139"><ele>357.5</ele><time>2026-04-18T09:49:16.037Z</time></trkpt><trkpt lat="53.2126865" lon="-1.9867853"><ele>356.66666666666663</ele><time>2026-04-18T09:49:17.035Z</time></trkpt><trkpt lat="53.2126157" lon="-1.9867666"><ele>355.8333333333333</ele><time>2026-04-18T09:49:18.037Z</time></trkpt><trkpt lat="53.212549" lon="-1.9867501"><ele>355.0</ele><time>2026-04-18T09:49:19.037Z</time></trkpt><trkpt lat="53.2124813" lon="-1.9867321"><ele>355.0</ele><time>2026-04-18T09:49:20.033Z</time></trkpt><trkpt lat="53.2124106" lon="-1.9867178"><ele>355.0</ele><time>2026-04-18T09:49:21.034Z</time></trkpt><trkpt lat="53.2123358" lon="-1.986714"><ele>355.0</ele><time>2026-04-18T09:49:22.035Z</time></trkpt><trkpt lat="53.2122584" lon="-1.9867183"><ele>355.0</ele><time>2026-04-18T09:49:23.034Z</time></trkpt><trkpt lat="53.2121817" lon="-1.9867267"><ele>355.0</ele><time>2026-04-18T09:49:24.035Z</time></trkpt><trkpt lat="53.2120993" lon="-1.9867332"><ele>355.0</ele><time>2026-04-18T09:49:25.033Z</time></trkpt><trkpt lat="53.2120109" lon="-1.9867322"><ele>353.66666666666663</ele><time>2026-04-18T09:49:26.035Z</time></trkpt><trkpt lat="53.2119268" lon="-1.9867361"><ele>352.3333333333333</ele><time>2026-04-18T09:49:27.034Z</time></trkpt><trkpt lat="53.211859" lon="-1.9867582"><ele>351.0</ele><time>2026-04-18T09:49:28.034Z</time></trkpt><trkpt lat="53.2117789" lon="-1.986839"><ele>349.6666666666667</ele><time>2026-04-18T09:49:30.036Z</time></trkpt><trkpt lat="53.2117174" lon="-1.9869204"><ele>348.33333333333337</ele><time>2026-04-18T09:49:32.035Z</time></trkpt><trkpt lat="53.2116618" lon="-1.9869918"><ele>347.0</ele><time>2026-04-18T09:49:34.032Z</time></trkpt><trkpt lat="53.2116038" lon="-1.9870805"><ele>347.0</ele><time>2026-04-18T09:49:37.032Z</time></trkpt><trkpt lat="53.21154" lon="-1.9871098"><ele>347.0</ele><time>2026-04-18T09:51:45.037Z</time></trkpt><trkpt lat="53.2114193" lon="-1.9871225"><ele>347.0</ele><time>2026-04-18T09:51:47.035Z</time></trkpt><trkpt lat="53.2113508" lon="-1.9871324"><ele>347.0</ele><time>2026-04-18T09:51:48.035Z</time></trkpt><trkpt lat="53.2112808" lon="-1.9871507"><ele>347.0</ele><time>2026-04-18T09:51:49.034Z</time></trkpt><trkpt lat="53.2112191" lon="-1.9871734"><ele>347.0</ele><time>2026-04-18T09:51:50.034Z</time></trkpt><trkpt lat="53.2111327" lon="-1.9872083"><ele>348.33333333333337</ele><time>2026-04-18T09:51:52.028Z</time></trkpt><trkpt lat="53.2110651" lon="-1.9872168"><ele>349.6666666666667</ele><time>2026-04-18T09:51:54.034Z</time></trkpt><trkpt lat="53.2109788" lon="-1.9872279"><ele>351.0</ele><time>2026-04-18T09:51:56.035Z</time></trkpt><trkpt lat="53.210915" lon="-1.9872601"><ele>352.3333333333333</ele><time>2026-04-18T09:51:58.035Z</time></trkpt><trkpt lat="53.2108268" lon="-1.9872861"><ele>353.66666666666663</ele><time>2026-04-18T09:52:01.035Z</time></trkpt><trkpt lat="53.2107452" lon="-1.9873095"><ele>355.0</ele><time>2026-04-18T09:52:03.036Z</time></trkpt><trkpt lat="53.2106211" lon="-1.9873515"><ele>353.6</ele><time>2026-04-18T09:52:05.037Z</time></trkpt><trkpt lat="53.2105453" lon="-1.9873844"><ele>352.2</ele><time>2026-04-18T09:52:06.036Z</time></trkpt><trkpt lat="53.2104613" lon="-1.9874157"><ele>350.79999999999995</ele><time>2026-04-18T09:52:07.036Z</time></trkpt><trkpt lat="53.2103643" lon="-1.987448"><ele>349.4</ele><time>2026-04-18T09:52:08.036Z</time></trkpt><trkpt lat="53.2102606" lon="-1.9874873"><ele>348.0</ele><time>2026-04-18T09:52:09.036Z</time></trkpt><trkpt lat="53.2101604" lon="-1.9875317"><ele>348.0</ele><time>2026-04-18T09:52:10.036Z</time></trkpt><trkpt lat="53.2100775" lon="-1.9875768"><ele>348.0</ele><time>2026-04-18T09:52:11.035Z</time></trkpt><trkpt lat="53.2100141" lon="-1.9876125"><ele>348.0</ele><time>2026-04-18T09:52:12.037Z</time></trkpt><trkpt lat="53.209953" lon="-1.9876441"><ele>348.0</ele><time>2026-04-18T09:52:13.037Z</time></trkpt><trkpt lat="53.2098868" lon="-1.9876718"><ele>348.0</ele><time>2026-04-18T09:52:14.036Z</time></trkpt><trkpt lat="53.2098163" lon="-1.9877068"><ele>348.0</ele><time>2026-04-18T09:52:15.037Z</time></trkpt><trkpt lat="53.2097457" lon="-1.9877421"><ele>348.0</ele><time>2026-04-18T09:52:16.036Z</time></trkpt><trkpt lat="53.2096749" lon="-1.9877691"><ele>349.6666666666667</ele><time>2026-04-18T09:52:17.038Z</time></trkpt><trkpt lat="53.2095997" lon="-1.9877941"><ele>351.3333333333333</ele><time>2026-04-18T09:52:18.039Z</time></trkpt><trkpt lat="53.2095099" lon="-1.9878289"><ele>353.0</ele><time>2026-04-18T09:52:19.038Z</time></trkpt><trkpt lat="53.2094101" lon="-1.9878695"><ele>354.66666666666663</ele><time>2026-04-18T09:52:20.039Z</time></trkpt><trkpt lat="53.2093234" lon="-1.9879059"><ele>356.3333333333333</ele><time>2026-04-18T09:52:21.038Z</time></trkpt><trkpt lat="53.2092528" lon="-1.987936"><ele>358.0</ele><time>2026-04-18T09:52:22.037Z</time></trkpt><trkpt lat="53.2091443" lon="-1.9879738"><ele>358.0</ele><time>2026-04-18T09:52:24.037Z</time></trkpt><trkpt lat="53.2090455" lon="-1.9880045"><ele>358.0</ele><time>2026-04-18T09:52:26.03Z</time></trkpt><trkpt lat="53.2089394" lon="-1.9880324"><ele>358.0</ele><time>2026-04-18T09:52:28.038Z</time></trkpt><trkpt lat="53.208838" lon="-1.9880651"><ele>358.0</ele><time>2026-04-18T09:52:30.039Z</time></trkpt><trkpt lat="53.2087354" lon="-1.9880928"><ele>358.0</ele><time>2026-04-18T09:52:32.036Z</time></trkpt><trkpt lat="53.2086207" lon="-1.9881501"><ele>360.2</ele><time>2026-04-18T09:52:34.036Z</time></trkpt><trkpt lat="53.2085031" lon="-1.9882104"><ele>362.4</ele><time>2026-04-18T09:52:36.037Z</time></trkpt><trkpt lat="53.2084279" lon="-1.9882445"><ele>364.59999999999997</ele><time>2026-04-18T09:52:38.037Z</time></trkpt><trkpt lat="53.2083402" lon="-1.9882398"><ele>366.79999999999995</ele><time>2026-04-18T09:52:45.036Z</time></trkpt><trkpt lat="53.2082377" lon="-1.9882547"><ele>369.0</ele><time>2026-04-18T09:52:47.037Z</time></trkpt><trkpt lat="53.2081424" lon="-1.9882653"><ele>370.79999999999995</ele><time>2026-04-18T09:52:49.034Z</time></trkpt><trkpt lat="53.2080625" lon="-1.9882977"><ele>372.59999999999997</ele><time>2026-04-18T09:52:51.04Z</time></trkpt><trkpt lat="53.207984" lon="-1.9883315"><ele>374.4</ele><time>2026-04-18T09:52:53.037Z</time></trkpt><trkpt lat="53.2078789" lon="-1.988383"><ele>376.2</ele><time>2026-04-18T09:52:55.038Z</time></trkpt><trkpt lat="53.2078182" lon="-1.988411"><ele>378.0</ele><time>2026-04-18T09:52:56.038Z</time></trkpt><trkpt lat="53.2077058" lon="-1.9884982"><ele>376.1666666666667</ele><time>2026-04-18T09:52:58.039Z</time></trkpt><trkpt lat="53.207643" lon="-1.9885392"><ele>374.3333333333333</ele><time>2026-04-18T09:52:59.039Z</time></trkpt><trkpt lat="53.207573" lon="-1.9885783"><ele>372.5</ele><time>2026-04-18T09:53:00.04Z</time></trkpt><trkpt lat="53.2075016" lon="-1.9886186"><ele>370.66666666666663</ele><time>2026-04-18T09:53:01.036Z</time></trkpt><trkpt lat="53.2074267" lon="-1.9886587"><ele>368.8333333333333</ele><time>2026-04-18T09:53:02.039Z</time></trkpt><trkpt lat="53.2073518" lon="-1.9887016"><ele>367.0</ele><time>2026-04-18T09:53:03.041Z</time></trkpt><trkpt lat="53.2072812" lon="-1.9887447"><ele>367.0</ele><time>2026-04-18T09:53:04.036Z</time></trkpt><trkpt lat="53.2072141" lon="-1.9887769"><ele>367.0</ele><time>2026-04-18T09:53:05.037Z</time></trkpt><trkpt lat="53.2071451" lon="-1.9887861"><ele>367.0</ele><time>2026-04-18T09:53:06.038Z</time></trkpt><trkpt lat="53.2070748" lon="-1.9887808"><ele>367.0</ele><time>2026-04-18T09:53:07.039Z</time></trkpt><trkpt lat="53.2070112" lon="-1.9887868"><ele>367.0</ele><time>2026-04-18T09:53:08.036Z</time></trkpt><trkpt lat="53.2069032" lon="-1.9888327"><ele>367.0</ele><time>2026-04-18T09:53:10.038Z</time></trkpt><trkpt lat="53.2068005" lon="-1.9888636"><ele>367.0</ele><time>2026-04-18T09:53:12.037Z</time></trkpt><trkpt lat="53.2067121" lon="-1.9888886"><ele>367.0</ele><time>2026-04-18T09:53:14.039Z</time></trkpt><trkpt lat="53.2066436" lon="-1.9889157"><ele>367.0</ele><time>2026-04-18T09:53:16.04Z</time></trkpt><trkpt lat="53.2065481" lon="-1.9889342"><ele>367.0</ele><time>2026-04-18T09:53:18.041Z</time></trkpt><trkpt lat="53.2064794" lon="-1.988939"><ele>367.0</ele><time>2026-04-18T09:53:19.042Z</time></trkpt><trkpt lat="53.2063991" lon="-1.9889576"><ele>367.0</ele><time>2026-04-18T09:53:20.04Z</time></trkpt><trkpt lat="53.2063121" lon="-1.988984"><ele>367.3333333333333</ele><time>2026-04-18T09:53:21.04Z</time></trkpt><trkpt lat="53.206223" lon="-1.9889989"><ele>367.66666666666663</ele><time>2026-04-18T09:53:22.041Z</time></trkpt><trkpt lat="53.2061286" lon="-1.9889982"><ele>368.0</ele><time>2026-04-18T09:53:23.047Z</time></trkpt><trkpt lat="53.2060378" lon="-1.98898"><ele>368.3333333333333</ele><time>2026-04-18T09:53:24.042Z</time></trkpt><trkpt lat="53.2059553" lon="-1.9889489"><ele>368.6666666666667</ele><time>2026-04-18T09:53:25.04Z</time></trkpt><trkpt lat="53.2058838" lon="-1.9889186"><ele>369.0</ele><time>2026-04-18T09:53:26.041Z</time></trkpt><trkpt lat="53.2058181" lon="-1.9888805"><ele>369.0</ele><time>2026-04-18T09:53:27.041Z</time></trkpt><trkpt lat="53.2057537" lon="-1.9888337"><ele>369.0</ele><time>2026-04-18T09:53:28.04Z</time></trkpt><trkpt lat="53.2056887" lon="-1.9887809"><ele>369.0</ele><time>2026-04-18T09:53:29.042Z</time></trkpt><trkpt lat="53.2056242" lon="-1.9887212"><ele>369.0</ele><time>2026-04-18T09:53:30.041Z</time></trkpt><trkpt lat="53.2055588" lon="-1.988666"><ele>369.0</ele><time>2026-04-18T09:53:31.041Z</time></trkpt><trkpt lat="53.2054953" lon="-1.9886232"><ele>369.0</ele><time>2026-04-18T09:53:32.041Z</time></trkpt><trkpt lat="53.2053921" lon="-1.988566"><ele>368.2</ele><time>2026-04-18T09:53:34.041Z</time></trkpt><trkpt lat="53.2052836" lon="-1.9884978"><ele>367.4</ele><time>2026-04-18T09:53:36.039Z</time></trkpt><trkpt lat="53.2052243" lon="-1.988443"><ele>366.6</ele><time>2026-04-18T09:53:37.039Z</time></trkpt><trkpt lat="53.2051517" lon="-1.9883743"><ele>365.8</ele><time>2026-04-18T09:53:38.039Z</time></trkpt><trkpt lat="53.2050697" lon="-1.9882963"><ele>365.0</ele><time>2026-04-18T09:53:39.039Z</time></trkpt><trkpt lat="53.2049925" lon="-1.9882191"><ele>365.83333333333337</ele><time>2026-04-18T09:53:40.039Z</time></trkpt><trkpt lat="53.2049259" lon="-1.9881412"><ele>366.6666666666667</ele><time>2026-04-18T09:53:41.036Z</time></trkpt><trkpt lat="53.2048617" lon="-1.9880707"><ele>367.5</ele><time>2026-04-18T09:53:42.037Z</time></trkpt><trkpt lat="53.2047952" lon="-1.9880008"><ele>368.3333333333333</ele><time>2026-04-18T09:53:43.045Z</time></trkpt><trkpt lat="53.2047282" lon="-1.9879225"><ele>369.16666666666663</ele><time>2026-04-18T09:53:44.039Z</time></trkpt><trkpt lat="53.2046547" lon="-1.9878349"><ele>370.0</ele><time>2026-04-18T09:53:45.037Z</time></trkpt><trkpt lat="53.2045723" lon="-1.987731"><ele>370.0</ele><time>2026-04-18T09:53:46.038Z</time></trkpt><trkpt lat="53.2044771" lon="-1.9875952"><ele>370.0</ele><time>2026-04-18T09:53:47.039Z</time></trkpt><trkpt lat="53.2043615" lon="-1.9874291"><ele>370.0</ele><time>2026-04-18T09:53:48.041Z</time></trkpt><trkpt lat="53.2042277" lon="-1.9872657"><ele>370.0</ele><time>2026-04-18T09:53:49.042Z</time></trkpt><trkpt lat="53.2041014" lon="-1.9871299"><ele>370.0</ele><time>2026-04-18T09:53:50.04Z</time></trkpt><trkpt lat="53.203998" lon="-1.9870174"><ele>370.0</ele><time>2026-04-18T09:53:51.038Z</time></trkpt><trkpt lat="53.2039097" lon="-1.9869186"><ele>370.0</ele><time>2026-04-18T09:53:52.039Z</time></trkpt><trkpt lat="53.203828" lon="-1.9868211"><ele>370.0</ele><time>2026-04-18T09:53:53.042Z</time></trkpt><trkpt lat="53.2037539" lon="-1.9867274"><ele>370.0</ele><time>2026-04-18T09:53:54.039Z</time></trkpt><trkpt lat="53.203686" lon="-1.9866531"><ele>371.0</ele><time>2026-04-18T09:53:55.038Z</time></trkpt><trkpt lat="53.2036214" lon="-1.9865808"><ele>372.0</ele><time>2026-04-18T09:53:56.038Z</time></trkpt><trkpt lat="53.2035607" lon="-1.9864921"><ele>373.0</ele><time>2026-04-18T09:53:57.038Z</time></trkpt><trkpt lat="53.2035" lon="-1.9863656"><ele>374.0</ele><time>2026-04-18T09:53:58.038Z</time></trkpt><trkpt lat="53.2034412" lon="-1.9861813"><ele>375.0</ele><time>2026-04-18T09:53:59.036Z</time></trkpt><trkpt lat="53.203379" lon="-1.9859847"><ele>376.3333333333333</ele><time>2026-04-18T09:54:00.039Z</time></trkpt><trkpt lat="53.2033204" lon="-1.9858115"><ele>377.6666666666667</ele><time>2026-04-18T09:54:01.039Z</time></trkpt><trkpt lat="53.2032751" lon="-1.9856689"><ele>379.0</ele><time>2026-04-18T09:54:02.038Z</time></trkpt><trkpt lat="53.2032508" lon="-1.9855195"><ele>380.33333333333337</ele><time>2026-04-18T09:54:04.035Z</time></trkpt><trkpt lat="53.2032979" lon="-1.9854382"><ele>381.6666666666667</ele><time>2026-04-18T09:54:10.04Z</time></trkpt><trkpt lat="53.2032952" lon="-1.9853167"><ele>383.0</ele><time>2026-04-18T09:54:11.037Z</time></trkpt><trkpt lat="53.2032878" lon="-1.9851797"><ele>383.0</ele><time>2026-04-18T09:54:12.036Z</time></trkpt><trkpt lat="53.2032761" lon="-1.9850459"><ele>383.0</ele><time>2026-04-18T09:54:13.04Z</time></trkpt><trkpt lat="53.2032629" lon="-1.9849059"><ele>383.0</ele><time>2026-04-18T09:54:14.035Z</time></trkpt><trkpt lat="53.203249" lon="-1.9847591"><ele>383.0</ele><time>2026-04-18T09:54:15.037Z</time></trkpt><trkpt lat="53.2032293" lon="-1.9846148"><ele>383.0</ele><time>2026-04-18T09:54:16.037Z</time></trkpt><trkpt lat="53.203205" lon="-1.9844805"><ele>383.0</ele><time>2026-04-18T09:54:17.036Z</time></trkpt><trkpt lat="53.2031797" lon="-1.9843545"><ele>380.6666666666667</ele><time>2026-04-18T09:54:18.036Z</time></trkpt><trkpt lat="53.2031553" lon="-1.9842304"><ele>378.33333333333337</ele><time>2026-04-18T09:54:19.036Z</time></trkpt><trkpt lat="53.2031318" lon="-1.9841006"><ele>376.0</ele><time>2026-04-18T09:54:20.036Z</time></trkpt><trkpt lat="53.2031054" lon="-1.9839647"><ele>373.6666666666667</ele><time>2026-04-18T09:54:21.037Z</time></trkpt><trkpt lat="53.2030818" lon="-1.983835"><ele>371.3333333333333</ele><time>2026-04-18T09:54:22.035Z</time></trkpt><trkpt lat="53.2030643" lon="-1.9837168"><ele>369.0</ele><time>2026-04-18T09:54:23.039Z</time></trkpt><trkpt lat="53.203038" lon="-1.9835494"><ele>369.0</ele><time>2026-04-18T09:54:25.037Z</time></trkpt><trkpt lat="53.2030249" lon="-1.9834285"><ele>369.0</ele><time>2026-04-18T09:54:27.037Z</time></trkpt><trkpt lat="53.2030081" lon="-1.9833184"><ele>369.0</ele><time>2026-04-18T09:54:31.04Z</time></trkpt><trkpt lat="53.2029959" lon="-1.9832053"><ele>369.0</ele><time>2026-04-18T09:54:45.028Z</time></trkpt><trkpt lat="53.2029572" lon="-1.9831156"><ele>369.0</ele><time>2026-04-18T09:55:22.035Z</time></trkpt><trkpt lat="53.202933" lon="-1.9829983"><ele>369.0</ele><time>2026-04-18T09:55:23.037Z</time></trkpt><trkpt lat="53.2028952" lon="-1.9828434"><ele>369.0</ele><time>2026-04-18T09:55:24.034Z</time></trkpt><trkpt lat="53.2028533" lon="-1.9826481"><ele>369.0</ele><time>2026-04-18T09:55:25.036Z</time></trkpt><trkpt lat="53.2028195" lon="-1.9824463"><ele>369.0</ele><time>2026-04-18T09:55:26.036Z</time></trkpt><trkpt lat="53.2027948" lon="-1.982248"><ele>369.0</ele><time>2026-04-18T09:55:27.035Z</time></trkpt><trkpt lat="53.2027771" lon="-1.9820556"><ele>369.0</ele><time>2026-04-18T09:55:28.036Z</time></trkpt><trkpt lat="53.2027661" lon="-1.9818622"><ele>369.0</ele><time>2026-04-18T09:55:29.027Z</time></trkpt><trkpt lat="53.2027595" lon="-1.9816644"><ele>369.0</ele><time>2026-04-18T09:55:30.037Z</time></trkpt><trkpt lat="53.2027465" lon="-1.9814696"><ele>369.0</ele><time>2026-04-18T09:55:31.036Z</time></trkpt><trkpt lat="53.2027268" lon="-1.9812942"><ele>369.2</ele><time>2026-04-18T09:55:32.037Z</time></trkpt><trkpt lat="53.2027056" lon="-1.981124"><ele>369.4</ele><time>2026-04-18T09:55:33.037Z</time></trkpt><trkpt lat="53.2026803" lon="-1.9809613"><ele>369.6</ele><time>2026-04-18T09:55:34.037Z</time></trkpt><trkpt lat="53.2026557" lon="-1.9808151"><ele>369.8</ele><time>2026-04-18T09:55:35.035Z</time></trkpt><trkpt lat="53.2026341" lon="-1.9806731"><ele>370.0</ele><time>2026-04-18T09:55:36.038Z</time></trkpt><trkpt lat="53.2026188" lon="-1.9805314"><ele>370.16666666666663</ele><time>2026-04-18T09:55:37.038Z</time></trkpt><trkpt lat="53.2026079" lon="-1.9803864"><ele>370.3333333333333</ele><time>2026-04-18T09:55:38.037Z</time></trkpt><trkpt lat="53.2026027" lon="-1.9802496"><ele>370.5</ele><time>2026-04-18T09:55:39.038Z</time></trkpt><trkpt lat="53.2026013" lon="-1.9801293"><ele>370.6666666666667</ele><time>2026-04-18T09:55:40.038Z</time></trkpt><trkpt lat="53.2026092" lon="-1.979932"><ele>370.83333333333337</ele><time>2026-04-18T09:55:42.036Z</time></trkpt><trkpt lat="53.2026193" lon="-1.9798229"><ele>371.0</ele><time>2026-04-18T09:55:43.039Z</time></trkpt><trkpt lat="53.2026339" lon="-1.979705"><ele>371.0</ele><time>2026-04-18T09:55:44.036Z</time></trkpt><trkpt lat="53.2026578" lon="-1.9795801"><ele>371.0</ele><time>2026-04-18T09:55:45.036Z</time></trkpt><trkpt lat="53.2026936" lon="-1.9794427"><ele>371.0</ele><time>2026-04-18T09:55:46.037Z</time></trkpt><trkpt lat="53.2027501" lon="-1.9792881"><ele>371.0</ele><time>2026-04-18T09:55:47.036Z</time></trkpt><trkpt lat="53.2028277" lon="-1.9791197"><ele>371.0</ele><time>2026-04-18T09:55:48.039Z</time></trkpt><trkpt lat="53.2029109" lon="-1.9789535"><ele>370.20000000000005</ele><time>2026-04-18T09:55:49.038Z</time></trkpt><trkpt lat="53.2029979" lon="-1.9787898"><ele>369.40000000000003</ele><time>2026-04-18T09:55:50.037Z</time></trkpt><trkpt lat="53.2030802" lon="-1.9786462"><ele>368.6</ele><time>2026-04-18T09:55:51.036Z</time></trkpt><trkpt lat="53.2031484" lon="-1.9785339"><ele>367.8</ele><time>2026-04-18T09:55:52.034Z</time></trkpt><trkpt lat="53.203201" lon="-1.9784357"><ele>367.0</ele><time>2026-04-18T09:55:53.036Z</time></trkpt><trkpt lat="53.2032402" lon="-1.9783526"><ele>367.0</ele><time>2026-04-18T09:55:54.036Z</time></trkpt><trkpt lat="53.2032737" lon="-1.9782462"><ele>367.0</ele><time>2026-04-18T09:55:56.038Z</time></trkpt><trkpt lat="53.2032001" lon="-1.9782789"><ele>367.0</ele><time>2026-04-18T09:56:12.036Z</time></trkpt><trkpt lat="53.2031503" lon="-1.9784336"><ele>367.0</ele><time>2026-04-18T09:56:14.036Z</time></trkpt><trkpt lat="53.2030943" lon="-1.9785904"><ele>367.0</ele><time>2026-04-18T09:56:16.035Z</time></trkpt><trkpt lat="53.2030207" lon="-1.9787259"><ele>367.0</ele><time>2026-04-18T09:56:18.037Z</time></trkpt><trkpt lat="53.2029646" lon="-1.9788102"><ele>367.0</ele><time>2026-04-18T09:56:20.036Z</time></trkpt><trkpt lat="53.2029054" lon="-1.978859"><ele>367.0</ele><time>2026-04-18T09:57:44.04Z</time></trkpt><trkpt lat="53.2029895" lon="-1.9788291"><ele>367.0</ele><time>2026-04-18T09:57:47.039Z</time></trkpt><trkpt lat="53.203033" lon="-1.978749"><ele>367.0</ele><time>2026-04-18T09:57:48.04Z</time></trkpt><trkpt lat="53.2030848" lon="-1.9786332"><ele>367.0</ele><time>2026-04-18T09:57:49.04Z</time></trkpt><trkpt lat="53.2031487" lon="-1.9784893"><ele>371.0</ele><time>2026-04-18T09:57:50.04Z</time></trkpt><trkpt lat="53.2032214" lon="-1.9783109"><ele>375.0</ele><time>2026-04-18T09:57:51.038Z</time></trkpt><trkpt lat="53.2033141" lon="-1.9780993"><ele>379.0</ele><time>2026-04-18T09:57:52.038Z</time></trkpt><trkpt lat="53.2034069" lon="-1.9778918"><ele>383.0</ele><time>2026-04-18T09:57:53.039Z</time></trkpt><trkpt lat="53.203496" lon="-1.9777262"><ele>383.0</ele><time>2026-04-18T09:57:54.039Z</time></trkpt><trkpt lat="53.2035754" lon="-1.9775982"><ele>383.0</ele><time>2026-04-18T09:57:55.038Z</time></trkpt><trkpt lat="53.2036571" lon="-1.9774879"><ele>383.0</ele><time>2026-04-18T09:57:56.039Z</time></trkpt><trkpt lat="53.2037483" lon="-1.9773786"><ele>383.0</ele><time>2026-04-18T09:57:57.037Z</time></trkpt><trkpt lat="53.2038559" lon="-1.977271"><ele>383.75</ele><time>2026-04-18T09:57:58.036Z</time></trkpt><trkpt lat="53.2039758" lon="-1.9771682"><ele>384.5</ele><time>2026-04-18T09:57:59.036Z</time></trkpt><trkpt lat="53.2040932" lon="-1.9770847"><ele>385.25</ele><time>2026-04-18T09:58:00.038Z</time></trkpt><trkpt lat="53.2041982" lon="-1.9770307"><ele>386.0</ele><time>2026-04-18T09:58:01.04Z</time></trkpt><trkpt lat="53.2042862" lon="-1.9769903"><ele>386.0</ele><time>2026-04-18T09:58:02.04Z</time></trkpt><trkpt lat="53.2043726" lon="-1.9769603"><ele>386.0</ele><time>2026-04-18T09:58:03.042Z</time></trkpt><trkpt lat="53.2044626" lon="-1.9769279"><ele>386.0</ele><time>2026-04-18T09:58:04.037Z</time></trkpt><trkpt lat="53.2045606" lon="-1.976888"><ele>386.0</ele><time>2026-04-18T09:58:05.039Z</time></trkpt><trkpt lat="53.2046707" lon="-1.9768492"><ele>386.0</ele><time>2026-04-18T09:58:06.038Z</time></trkpt><trkpt lat="53.2047886" lon="-1.9768147"><ele>388.0</ele><time>2026-04-18T09:58:07.039Z</time></trkpt><trkpt lat="53.2049072" lon="-1.9768009"><ele>390.0</ele><time>2026-04-18T09:58:08.04Z</time></trkpt><trkpt lat="53.2050151" lon="-1.9768068"><ele>392.0</ele><time>2026-04-18T09:58:09.037Z</time></trkpt><trkpt lat="53.205107" lon="-1.9768166"><ele>394.0</ele><time>2026-04-18T09:58:10.039Z</time></trkpt><trkpt lat="53.2051865" lon="-1.976807"><ele>396.0</ele><time>2026-04-18T09:58:11.034Z</time></trkpt><trkpt lat="53.2052673" lon="-1.976786"><ele>396.0</ele><time>2026-04-18T09:58:12.036Z</time></trkpt><trkpt lat="53.2053606" lon="-1.9767521"><ele>396.0</ele><time>2026-04-18T09:58:13.039Z</time></trkpt><trkpt lat="53.2054724" lon="-1.9767196"><ele>396.0</ele><time>2026-04-18T09:58:14.035Z</time></trkpt><trkpt lat="53.2055919" lon="-1.9766888"><ele>396.0</ele><time>2026-04-18T09:58:15.035Z</time></trkpt><trkpt lat="53.205714" lon="-1.9766463"><ele>396.0</ele><time>2026-04-18T09:58:16.036Z</time></trkpt><trkpt lat="53.2058344" lon="-1.9765729"><ele>396.0</ele><time>2026-04-18T09:58:17.038Z</time></trkpt><trkpt lat="53.2059575" lon="-1.976474"><ele>396.0</ele><time>2026-04-18T09:58:18.037Z</time></trkpt><trkpt lat="53.206089" lon="-1.9763564"><ele>396.0</ele><time>2026-04-18T09:58:19.03Z</time></trkpt><trkpt lat="53.2062151" lon="-1.9762229"><ele>396.0</ele><time>2026-04-18T09:58:20.037Z</time></trkpt><trkpt lat="53.2063263" lon="-1.9760693"><ele>396.0</ele><time>2026-04-18T09:58:21.038Z</time></trkpt><trkpt lat="53.2064225" lon="-1.9758889"><ele>396.0</ele><time>2026-04-18T09:58:22.038Z</time></trkpt><trkpt lat="53.2065042" lon="-1.9756971"><ele>396.0</ele><time>2026-04-18T09:58:23.038Z</time></trkpt><trkpt lat="53.2065847" lon="-1.975503"><ele>397.25</ele><time>2026-04-18T09:58:24.036Z</time></trkpt><trkpt lat="53.206672" lon="-1.9753368"><ele>398.5</ele><time>2026-04-18T09:58:25.036Z</time></trkpt><trkpt lat="53.2067629" lon="-1.9752029"><ele>399.75</ele><time>2026-04-18T09:58:26.032Z</time></trkpt><trkpt lat="53.2068472" lon="-1.9750998"><ele>401.0</ele><time>2026-04-18T09:58:27.037Z</time></trkpt><trkpt lat="53.2069275" lon="-1.9750132"><ele>401.0</ele><time>2026-04-18T09:58:28.036Z</time></trkpt><trkpt lat="53.2070071" lon="-1.9749465"><ele>401.0</ele><time>2026-04-18T09:58:29.037Z</time></trkpt><trkpt lat="53.2070982" lon="-1.9748998"><ele>401.0</ele><time>2026-04-18T09:58:30.036Z</time></trkpt><trkpt lat="53.207196" lon="-1.9748627"><ele>401.0</ele><time>2026-04-18T09:58:31.033Z</time></trkpt><trkpt lat="53.2073015" lon="-1.9748271"><ele>401.0</ele><time>2026-04-18T09:58:32.038Z</time></trkpt><trkpt lat="53.2074179" lon="-1.9747931"><ele>401.20000000000005</ele><time>2026-04-18T09:58:33.039Z</time></trkpt><trkpt lat="53.2075336" lon="-1.9747499"><ele>401.40000000000003</ele><time>2026-04-18T09:58:34.038Z</time></trkpt><trkpt lat="53.2076426" lon="-1.9747006"><ele>401.6</ele><time>2026-04-18T09:58:35.039Z</time></trkpt><trkpt lat="53.207741" lon="-1.9746498"><ele>401.8</ele><time>2026-04-18T09:58:36.038Z</time></trkpt><trkpt lat="53.2078265" lon="-1.9746074"><ele>402.0</ele><time>2026-04-18T09:58:37.037Z</time></trkpt><trkpt lat="53.2079" lon="-1.9745831"><ele>402.0</ele><time>2026-04-18T09:58:38.038Z</time></trkpt><trkpt lat="53.2079706" lon="-1.9745875"><ele>402.0</ele><time>2026-04-18T09:58:39.04Z</time></trkpt><trkpt lat="53.208044" lon="-1.9746046"><ele>402.0</ele><time>2026-04-18T09:58:40.04Z</time></trkpt><trkpt lat="53.2081195" lon="-1.9746238"><ele>402.0</ele><time>2026-04-18T09:58:41.042Z</time></trkpt><trkpt lat="53.2081902" lon="-1.9746219"><ele>402.0</ele><time>2026-04-18T09:58:42.043Z</time></trkpt><trkpt lat="53.208259" lon="-1.9745772"><ele>402.0</ele><time>2026-04-18T09:58:43.045Z</time></trkpt><trkpt lat="53.2083291" lon="-1.9744829"><ele>402.20000000000005</ele><time>2026-04-18T09:58:44.043Z</time></trkpt><trkpt lat="53.2084011" lon="-1.9743577"><ele>402.4</ele><time>2026-04-18T09:58:45.044Z</time></trkpt><trkpt lat="53.2084832" lon="-1.9742549"><ele>402.6</ele><time>2026-04-18T09:58:46.044Z</time></trkpt><trkpt lat="53.20858" lon="-1.9741986"><ele>402.79999999999995</ele><time>2026-04-18T09:58:47.042Z</time></trkpt><trkpt lat="53.2086825" lon="-1.9742108"><ele>403.0</ele><time>2026-04-18T09:58:48.044Z</time></trkpt><trkpt lat="53.2087878" lon="-1.9742632"><ele>403.0</ele><time>2026-04-18T09:58:49.043Z</time></trkpt><trkpt lat="53.2088889" lon="-1.9743481"><ele>403.0</ele><time>2026-04-18T09:58:50.044Z</time></trkpt><trkpt lat="53.2089859" lon="-1.9744678"><ele>403.0</ele><time>2026-04-18T09:58:51.043Z</time></trkpt><trkpt lat="53.2090819" lon="-1.9746111"><ele>403.0</ele><time>2026-04-18T09:58:52.043Z</time></trkpt><trkpt lat="53.2091809" lon="-1.9747509"><ele>404.59999999999997</ele><time>2026-04-18T09:58:53.045Z</time></trkpt><trkpt lat="53.2092739" lon="-1.9748678"><ele>406.2</ele><time>2026-04-18T09:58:54.044Z</time></trkpt><trkpt lat="53.2093445" lon="-1.9749493"><ele>407.8</ele><time>2026-04-18T09:58:55.044Z</time></trkpt><trkpt lat="53.2094324" lon="-1.9750168"><ele>409.4</ele><time>2026-04-18T09:58:57.044Z</time></trkpt><trkpt lat="53.2094981" lon="-1.9749171"><ele>411.0</ele><time>2026-04-18T09:58:59.043Z</time></trkpt><trkpt lat="53.209518" lon="-1.9747976"><ele>411.0</ele><time>2026-04-18T09:59:00.044Z</time></trkpt><trkpt lat="53.2095409" lon="-1.9746534"><ele>411.0</ele><time>2026-04-18T09:59:01.043Z</time></trkpt><trkpt lat="53.2095742" lon="-1.974494"><ele>411.0</ele><time>2026-04-18T09:59:02.044Z</time></trkpt><trkpt lat="53.209616" lon="-1.9743304"><ele>411.0</ele><time>2026-04-18T09:59:03.046Z</time></trkpt><trkpt lat="53.2096651" lon="-1.974172"><ele>411.0</ele><time>2026-04-18T09:59:04.046Z</time></trkpt><trkpt lat="53.2097172" lon="-1.9740105"><ele>410.5</ele><time>2026-04-18T09:59:05.047Z</time></trkpt><trkpt lat="53.209764" lon="-1.9738599"><ele>410.0</ele><time>2026-04-18T09:59:06.049Z</time></trkpt><trkpt lat="53.2097959" lon="-1.9737291"><ele>409.5</ele><time>2026-04-18T09:59:07.045Z</time></trkpt><trkpt lat="53.2098145" lon="-1.9735573"><ele>409.0</ele><time>2026-04-18T09:59:09.047Z</time></trkpt><trkpt lat="53.2098055" lon="-1.9734241"><ele>408.5</ele><time>2026-04-18T09:59:12.045Z</time></trkpt><trkpt lat="53.2097942" lon="-1.9733166"><ele>408.0</ele><time>2026-04-18T09:59:14.046Z</time></trkpt><trkpt lat="53.2097827" lon="-1.9731903"><ele>408.1666666666667</ele><time>2026-04-18T09:59:16.048Z</time></trkpt><trkpt lat="53.209769" lon="-1.9730609"><ele>408.33333333333337</ele><time>2026-04-18T09:59:18.045Z</time></trkpt><trkpt lat="53.2097533" lon="-1.9729366"><ele>408.5</ele><time>2026-04-18T09:59:20.045Z</time></trkpt><trkpt lat="53.20974" lon="-1.9728018"><ele>408.6666666666667</ele><time>2026-04-18T09:59:22.045Z</time></trkpt><trkpt lat="53.2097226" lon="-1.9726512"><ele>408.83333333333337</ele><time>2026-04-18T09:59:24.044Z</time></trkpt><trkpt lat="53.2097109" lon="-1.9725006"><ele>409.0</ele><time>2026-04-18T09:59:26.044Z</time></trkpt><trkpt lat="53.209715" lon="-1.9723537"><ele>409.0</ele><time>2026-04-18T09:59:28.038Z</time></trkpt><trkpt lat="53.2097461" lon="-1.9722074"><ele>409.0</ele><time>2026-04-18T09:59:30.044Z</time></trkpt><trkpt lat="53.2098195" lon="-1.9720552"><ele>409.0</ele><time>2026-04-18T09:59:32.043Z</time></trkpt><trkpt lat="53.2098667" lon="-1.971951"><ele>409.0</ele><time>2026-04-18T09:59:33.049Z</time></trkpt><trkpt lat="53.2099238" lon="-1.9718338"><ele>409.0</ele><time>2026-04-18T09:59:34.042Z</time></trkpt><trkpt lat="53.2099857" lon="-1.9717076"><ele>409.0</ele><time>2026-04-18T09:59:35.042Z</time></trkpt><trkpt lat="53.2100483" lon="-1.9715653"><ele>409.0</ele><time>2026-04-18T09:59:36.042Z</time></trkpt><trkpt lat="53.2101033" lon="-1.9713871"><ele>409.0</ele><time>2026-04-18T09:59:37.044Z</time></trkpt><trkpt lat="53.2101465" lon="-1.9711736"><ele>409.0</ele><time>2026-04-18T09:59:38.043Z</time></trkpt><trkpt lat="53.2101726" lon="-1.9709606"><ele>409.6</ele><time>2026-04-18T09:59:39.042Z</time></trkpt><trkpt lat="53.2101826" lon="-1.9707687"><ele>410.2</ele><time>2026-04-18T09:59:40.043Z</time></trkpt><trkpt lat="53.2101967" lon="-1.9705952"><ele>410.8</ele><time>2026-04-18T09:59:41.042Z</time></trkpt><trkpt lat="53.2102312" lon="-1.9704266"><ele>411.40000000000003</ele><time>2026-04-18T09:59:42.044Z</time></trkpt><trkpt lat="53.2102886" lon="-1.9702497"><ele>412.0</ele><time>2026-04-18T09:59:43.044Z</time></trkpt><trkpt lat="53.210363" lon="-1.9700683"><ele>413.25</ele><time>2026-04-18T09:59:44.043Z</time></trkpt><trkpt lat="53.2104452" lon="-1.9698854"><ele>414.5</ele><time>2026-04-18T09:59:45.044Z</time></trkpt><trkpt lat="53.2105274" lon="-1.9696996"><ele>415.75</ele><time>2026-04-18T09:59:46.044Z</time></trkpt><trkpt lat="53.2106045" lon="-1.969515"><ele>417.0</ele><time>2026-04-18T09:59:47.045Z</time></trkpt><trkpt lat="53.2106805" lon="-1.9693404"><ele>417.0</ele><time>2026-04-18T09:59:48.045Z</time></trkpt><trkpt lat="53.2107623" lon="-1.9691891"><ele>417.0</ele><time>2026-04-18T09:59:49.044Z</time></trkpt><trkpt lat="53.2108486" lon="-1.9690603"><ele>417.0</ele><time>2026-04-18T09:59:50.037Z</time></trkpt><trkpt lat="53.2109306" lon="-1.968931"><ele>417.0</ele><time>2026-04-18T09:59:51.041Z</time></trkpt><trkpt lat="53.2110061" lon="-1.9687865"><ele>417.0</ele><time>2026-04-18T09:59:52.044Z</time></trkpt><trkpt lat="53.2110677" lon="-1.9686308"><ele>417.0</ele><time>2026-04-18T09:59:53.048Z</time></trkpt><trkpt lat="53.2111188" lon="-1.9684832"><ele>417.0</ele><time>2026-04-18T09:59:54.045Z</time></trkpt><trkpt lat="53.2111657" lon="-1.9683611"><ele>417.0</ele><time>2026-04-18T09:59:55.044Z</time></trkpt><trkpt lat="53.2112138" lon="-1.9682626"><ele>417.0</ele><time>2026-04-18T09:59:56.044Z</time></trkpt><trkpt lat="53.2112615" lon="-1.968183"><ele>417.0</ele><time>2026-04-18T09:59:57.043Z</time></trkpt><trkpt lat="53.2113078" lon="-1.9681066"><ele>417.6666666666667</ele><time>2026-04-18T09:59:58.045Z</time></trkpt><trkpt lat="53.2113508" lon="-1.9680273"><ele>418.33333333333337</ele><time>2026-04-18T09:59:59.045Z</time></trkpt><trkpt lat="53.2113895" lon="-1.9678502"><ele>419.0</ele><time>2026-04-18T10:00:01.04Z</time></trkpt><trkpt lat="53.2113732" lon="-1.9677448"><ele>419.6666666666667</ele><time>2026-04-18T10:00:02.038Z</time></trkpt><trkpt lat="53.2113414" lon="-1.9676442"><ele>420.33333333333337</ele><time>2026-04-18T10:00:03.034Z</time></trkpt><trkpt lat="53.2113032" lon="-1.9674553"><ele>421.0</ele><time>2026-04-18T10:00:05.042Z</time></trkpt><trkpt lat="53.2112949" lon="-1.9673421"><ele>421.4</ele><time>2026-04-18T10:00:06.04Z</time></trkpt><trkpt lat="53.2112946" lon="-1.9672188"><ele>421.8</ele><time>2026-04-18T10:00:07.041Z</time></trkpt><trkpt lat="53.2112977" lon="-1.9670738"><ele>422.2</ele><time>2026-04-18T10:00:08.039Z</time></trkpt><trkpt lat="53.2112964" lon="-1.966903"><ele>422.59999999999997</ele><time>2026-04-18T10:00:09.042Z</time></trkpt><trkpt lat="53.211298" lon="-1.9667062"><ele>423.0</ele><time>2026-04-18T10:00:10.041Z</time></trkpt><trkpt lat="53.2113051" lon="-1.9664779"><ele>424.0</ele><time>2026-04-18T10:00:11.047Z</time></trkpt><trkpt lat="53.2113129" lon="-1.9662396"><ele>425.0</ele><time>2026-04-18T10:00:12.046Z</time></trkpt><trkpt lat="53.211319" lon="-1.9660114"><ele>426.0</ele><time>2026-04-18T10:00:13.042Z</time></trkpt><trkpt lat="53.2113163" lon="-1.9657788"><ele>427.0</ele><time>2026-04-18T10:00:14.046Z</time></trkpt><trkpt lat="53.2112898" lon="-1.9655403"><ele>429.0</ele><time>2026-04-18T10:00:15.046Z</time></trkpt><trkpt lat="53.2112332" lon="-1.965303"><ele>431.0</ele><time>2026-04-18T10:00:16.044Z</time></trkpt><trkpt lat="53.2111476" lon="-1.9650899"><ele>433.0</ele><time>2026-04-18T10:00:17.046Z</time></trkpt><trkpt lat="53.2110483" lon="-1.9648918"><ele>434.25</ele><time>2026-04-18T10:00:18.046Z</time></trkpt><trkpt lat="53.2109422" lon="-1.9647076"><ele>435.5</ele><time>2026-04-18T10:00:19.047Z</time></trkpt><trkpt lat="53.2108429" lon="-1.9645257"><ele>436.75</ele><time>2026-04-18T10:00:20.048Z</time></trkpt><trkpt lat="53.2107652" lon="-1.9643473"><ele>438.0</ele><time>2026-04-18T10:00:21.047Z</time></trkpt><trkpt lat="53.2107226" lon="-1.9641584"><ele>439.0</ele><time>2026-04-18T10:00:22.048Z</time></trkpt><trkpt lat="53.2107114" lon="-1.9639517"><ele>440.0</ele><time>2026-04-18T10:00:23.052Z</time></trkpt><trkpt lat="53.2107225" lon="-1.9637349"><ele>441.0</ele><time>2026-04-18T10:00:24.047Z</time></trkpt><trkpt lat="53.2107309" lon="-1.9635122"><ele>442.0</ele><time>2026-04-18T10:00:25.046Z</time></trkpt><trkpt lat="53.2107269" lon="-1.9632843"><ele>444.33333333333337</ele><time>2026-04-18T10:00:26.047Z</time></trkpt><trkpt lat="53.210706" lon="-1.963041"><ele>446.66666666666663</ele><time>2026-04-18T10:00:27.045Z</time></trkpt><trkpt lat="53.2106727" lon="-1.9627814"><ele>449.0</ele><time>2026-04-18T10:00:28.045Z</time></trkpt><trkpt lat="53.2106283" lon="-1.9625149"><ele>450.3333333333333</ele><time>2026-04-18T10:00:29.047Z</time></trkpt><trkpt lat="53.210582" lon="-1.9622428"><ele>451.66666666666663</ele><time>2026-04-18T10:00:30.046Z</time></trkpt><trkpt lat="53.2105406" lon="-1.961958"><ele>453.0</ele><time>2026-04-18T10:00:31.041Z</time></trkpt><trkpt lat="53.2105065" lon="-1.9616698"><ele>453.25</ele><time>2026-04-18T10:00:32.041Z</time></trkpt><trkpt lat="53.2104758" lon="-1.9614044"><ele>453.5</ele><time>2026-04-18T10:00:33.042Z</time></trkpt><trkpt lat="53.2104489" lon="-1.9611697"><ele>453.75</ele><time>2026-04-18T10:00:34.038Z</time></trkpt><trkpt lat="53.2104218" lon="-1.9609583"><ele>454.0</ele><time>2026-04-18T10:00:35.038Z</time></trkpt><trkpt lat="53.2103803" lon="-1.9607623"><ele>454.75</ele><time>2026-04-18T10:00:36.041Z</time></trkpt><trkpt lat="53.2103077" lon="-1.9605862"><ele>455.5</ele><time>2026-04-18T10:00:37.039Z</time></trkpt><trkpt lat="53.2102031" lon="-1.9604306"><ele>456.25</ele><time>2026-04-18T10:00:38.041Z</time></trkpt><trkpt lat="53.2100782" lon="-1.9602732"><ele>457.0</ele><time>2026-04-18T10:00:39.042Z</time></trkpt><trkpt lat="53.2099482" lon="-1.9601151"><ele>458.75</ele><time>2026-04-18T10:00:40.044Z</time></trkpt><trkpt lat="53.2098384" lon="-1.9599562"><ele>460.5</ele><time>2026-04-18T10:00:41.046Z</time></trkpt><trkpt lat="53.2097441" lon="-1.95979"><ele>462.25</ele><time>2026-04-18T10:00:42.046Z</time></trkpt><trkpt lat="53.2096679" lon="-1.9596034"><ele>464.0</ele><time>2026-04-18T10:00:43.047Z</time></trkpt><trkpt lat="53.2096123" lon="-1.9593963"><ele>466.0</ele><time>2026-04-18T10:00:44.047Z</time></trkpt><trkpt lat="53.2095644" lon="-1.9591599"><ele>468.0</ele><time>2026-04-18T10:00:45.048Z</time></trkpt><trkpt lat="53.2095201" lon="-1.958901"><ele>470.0</ele><time>2026-04-18T10:00:46.047Z</time></trkpt><trkpt lat="53.2094833" lon="-1.9586161"><ele>470.66666666666663</ele><time>2026-04-18T10:00:47.048Z</time></trkpt><trkpt lat="53.2094528" lon="-1.9583146"><ele>471.33333333333337</ele><time>2026-04-18T10:00:48.048Z</time></trkpt><trkpt lat="53.2094204" lon="-1.958003"><ele>472.0</ele><time>2026-04-18T10:00:49.046Z</time></trkpt><trkpt lat="53.2093814" lon="-1.9576777"><ele>472.6666666666667</ele><time>2026-04-18T10:00:50.05Z</time></trkpt><trkpt lat="53.2093375" lon="-1.9573529"><ele>473.33333333333337</ele><time>2026-04-18T10:00:51.047Z</time></trkpt><trkpt lat="53.2092898" lon="-1.9570505"><ele>474.0</ele><time>2026-04-18T10:00:52.048Z</time></trkpt><trkpt lat="53.2092405" lon="-1.9567723"><ele>474.33333333333337</ele><time>2026-04-18T10:00:53.051Z</time></trkpt><trkpt lat="53.2091863" lon="-1.9565155"><ele>474.6666666666667</ele><time>2026-04-18T10:00:54.046Z</time></trkpt><trkpt lat="53.2091219" lon="-1.9562828"><ele>475.0</ele><time>2026-04-18T10:00:55.047Z</time></trkpt><trkpt lat="53.2090461" lon="-1.9560844"><ele>475.25</ele><time>2026-04-18T10:00:56.045Z</time></trkpt><trkpt lat="53.2089631" lon="-1.9559206"><ele>475.5</ele><time>2026-04-18T10:00:57.046Z</time></trkpt><trkpt lat="53.2088811" lon="-1.9557772"><ele>475.75</ele><time>2026-04-18T10:00:58.037Z</time></trkpt><trkpt lat="53.2088061" lon="-1.9556253"><ele>476.0</ele><time>2026-04-18T10:00:59.046Z</time></trkpt><trkpt lat="53.2087405" lon="-1.9554635"><ele>475.99999999999994</ele><time>2026-04-18T10:01:00.047Z</time></trkpt><trkpt lat="53.2086851" lon="-1.9553031"><ele>476.0</ele><time>2026-04-18T10:01:01.044Z</time></trkpt><trkpt lat="53.2086404" lon="-1.9551553"><ele>476.0</ele><time>2026-04-18T10:01:02.043Z</time></trkpt><trkpt lat="53.2086077" lon="-1.9550305"><ele>476.0</ele><time>2026-04-18T10:01:03.045Z</time></trkpt><trkpt lat="53.2085934" lon="-1.954926"><ele>475.99999999999994</ele><time>2026-04-18T10:01:04.043Z</time></trkpt><trkpt lat="53.2086303" lon="-1.9547827"><ele>476.0</ele><time>2026-04-18T10:01:06.045Z</time></trkpt><trkpt lat="53.2086745" lon="-1.9547065"><ele>475.5</ele><time>2026-04-18T10:01:08.046Z</time></trkpt><trkpt lat="53.2086285" lon="-1.9545542"><ele>475.0</ele><time>2026-04-18T10:01:10.043Z</time></trkpt><trkpt lat="53.2085464" lon="-1.9544542"><ele>474.5</ele><time>2026-04-18T10:01:11.044Z</time></trkpt><trkpt lat="53.2084471" lon="-1.9543493"><ele>474.0</ele><time>2026-04-18T10:01:12.044Z</time></trkpt><trkpt lat="53.2083379" lon="-1.9542352"><ele>473.0</ele><time>2026-04-18T10:01:13.051Z</time></trkpt><trkpt lat="53.2082264" lon="-1.9541047"><ele>472.0</ele><time>2026-04-18T10:01:14.046Z</time></trkpt><trkpt lat="53.2081172" lon="-1.9539659"><ele>471.0</ele><time>2026-04-18T10:01:15.047Z</time></trkpt><trkpt lat="53.2080136" lon="-1.9538454"><ele>470.0</ele><time>2026-04-18T10:01:16.047Z</time></trkpt><trkpt lat="53.2079169" lon="-1.9537524"><ele>469.5</ele><time>2026-04-18T10:01:17.045Z</time></trkpt><trkpt lat="53.2078166" lon="-1.9536863"><ele>469.0</ele><time>2026-04-18T10:01:18.046Z</time></trkpt><trkpt lat="53.2077106" lon="-1.9536456"><ele>468.5</ele><time>2026-04-18T10:01:19.046Z</time></trkpt><trkpt lat="53.2075945" lon="-1.9536292"><ele>468.0</ele><time>2026-04-18T10:01:20.049Z</time></trkpt><trkpt lat="53.2074674" lon="-1.9536413"><ele>468.0</ele><time>2026-04-18T10:01:21.047Z</time></trkpt><trkpt lat="53.2073441" lon="-1.9537008"><ele>468.0</ele><time>2026-04-18T10:01:22.047Z</time></trkpt><trkpt lat="53.2072388" lon="-1.9538036"><ele>468.0</ele><time>2026-04-18T10:01:23.048Z</time></trkpt><trkpt lat="53.2071445" lon="-1.9539186"><ele>468.0</ele><time>2026-04-18T10:01:24.047Z</time></trkpt><trkpt lat="53.2070625" lon="-1.9540368"><ele>467.6666666666667</ele><time>2026-04-18T10:01:25.047Z</time></trkpt><trkpt lat="53.206993" lon="-1.9541436"><ele>467.33333333333337</ele><time>2026-04-18T10:01:26.043Z</time></trkpt><trkpt lat="53.2069261" lon="-1.9542391"><ele>467.0</ele><time>2026-04-18T10:01:27.045Z</time></trkpt><trkpt lat="53.2068646" lon="-1.9543199"><ele>466.6666666666667</ele><time>2026-04-18T10:01:28.043Z</time></trkpt><trkpt lat="53.2068087" lon="-1.9543865"><ele>466.33333333333337</ele><time>2026-04-18T10:01:29.045Z</time></trkpt><trkpt lat="53.2067353" lon="-1.9544921"><ele>466.0</ele><time>2026-04-18T10:01:31.044Z</time></trkpt><trkpt lat="53.2067984" lon="-1.9544791"><ele>466.0</ele><time>2026-04-18T10:02:06.042Z</time></trkpt><trkpt lat="53.2068782" lon="-1.954354"><ele>466.0</ele><time>2026-04-18T10:02:08.046Z</time></trkpt><trkpt lat="53.2069534" lon="-1.9542715"><ele>466.0</ele><time>2026-04-18T10:02:09.046Z</time></trkpt><trkpt lat="53.2070527" lon="-1.9541723"><ele>466.0</ele><time>2026-04-18T10:02:10.047Z</time></trkpt><trkpt lat="53.2071691" lon="-1.9540524"><ele>466.5</ele><time>2026-04-18T10:02:11.038Z</time></trkpt><trkpt lat="53.2072905" lon="-1.9539249"><ele>467.0</ele><time>2026-04-18T10:02:12.045Z</time></trkpt><trkpt lat="53.2074203" lon="-1.9537968"><ele>467.5</ele><time>2026-04-18T10:02:13.054Z</time></trkpt><trkpt lat="53.2075499" lon="-1.953706"><ele>468.0</ele><time>2026-04-18T10:02:14.047Z</time></trkpt><trkpt lat="53.2076569" lon="-1.9536689"><ele>468.0</ele><time>2026-04-18T10:02:15.047Z</time></trkpt><trkpt lat="53.2077304" lon="-1.9536795"><ele>467.99999999999994</ele><time>2026-04-18T10:02:16.045Z</time></trkpt><trkpt lat="53.2078073" lon="-1.9536589"><ele>467.99999999999994</ele><time>2026-04-18T10:02:18.044Z</time></trkpt><trkpt lat="53.2077752" lon="-1.9534458"><ele>468.0</ele><time>2026-04-18T10:02:20.046Z</time></trkpt><trkpt lat="53.2077259" lon="-1.9532922"><ele>468.0</ele><time>2026-04-18T10:02:21.044Z</time></trkpt><trkpt lat="53.2076595" lon="-1.9531207"><ele>467.5</ele><time>2026-04-18T10:02:22.044Z</time></trkpt><trkpt lat="53.2075885" lon="-1.9529396"><ele>467.0</ele><time>2026-04-18T10:02:23.039Z</time></trkpt><trkpt lat="53.2075194" lon="-1.9527426"><ele>466.5</ele><time>2026-04-18T10:02:24.037Z</time></trkpt><trkpt lat="53.2074511" lon="-1.9525393"><ele>466.0</ele><time>2026-04-18T10:02:25.049Z</time></trkpt><trkpt lat="53.2073836" lon="-1.9523383"><ele>464.5</ele><time>2026-04-18T10:02:26.048Z</time></trkpt><trkpt lat="53.2073145" lon="-1.9521408"><ele>463.0</ele><time>2026-04-18T10:02:27.045Z</time></trkpt><trkpt lat="53.2072371" lon="-1.9519437"><ele>461.5</ele><time>2026-04-18T10:02:28.046Z</time></trkpt><trkpt lat="53.2071424" lon="-1.9517578"><ele>460.0</ele><time>2026-04-18T10:02:29.04Z</time></trkpt><trkpt lat="53.2070241" lon="-1.9515977"><ele>460.0</ele><time>2026-04-18T10:02:30.047Z</time></trkpt><trkpt lat="53.2068826" lon="-1.9514827"><ele>460.0</ele><time>2026-04-18T10:02:31.046Z</time></trkpt><trkpt lat="53.2067296" lon="-1.9514146"><ele>460.0</ele><time>2026-04-18T10:02:32.045Z</time></trkpt><trkpt lat="53.2065831" lon="-1.9513742"><ele>459.0</ele><time>2026-04-18T10:02:33.048Z</time></trkpt><trkpt lat="53.206449" lon="-1.9513338"><ele>458.0</ele><time>2026-04-18T10:02:34.047Z</time></trkpt><trkpt lat="53.2063207" lon="-1.9512631"><ele>457.0</ele><time>2026-04-18T10:02:35.046Z</time></trkpt><trkpt lat="53.2061925" lon="-1.951167"><ele>456.0</ele><time>2026-04-18T10:02:36.047Z</time></trkpt><trkpt lat="53.2060628" lon="-1.9510528"><ele>456.0</ele><time>2026-04-18T10:02:37.045Z</time></trkpt><trkpt lat="53.2059343" lon="-1.9509299"><ele>456.0</ele><time>2026-04-18T10:02:38.047Z</time></trkpt><trkpt lat="53.2058085" lon="-1.9508069"><ele>456.0</ele><time>2026-04-18T10:02:39.048Z</time></trkpt><trkpt lat="53.2056875" lon="-1.9506802"><ele>456.0</ele><time>2026-04-18T10:02:40.048Z</time></trkpt><trkpt lat="53.205566" lon="-1.9505495"><ele>456.5</ele><time>2026-04-18T10:02:41.045Z</time></trkpt><trkpt lat="53.2054494" lon="-1.9504051"><ele>457.0</ele><time>2026-04-18T10:02:42.045Z</time></trkpt><trkpt lat="53.2053397" lon="-1.9502436"><ele>457.5</ele><time>2026-04-18T10:02:43.049Z</time></trkpt><trkpt lat="53.2052376" lon="-1.9500593"><ele>458.0</ele><time>2026-04-18T10:02:44.047Z</time></trkpt><trkpt lat="53.2051445" lon="-1.9498574"><ele>458.66666666666663</ele><time>2026-04-18T10:02:45.047Z</time></trkpt><trkpt lat="53.205059" lon="-1.9496418"><ele>459.33333333333337</ele><time>2026-04-18T10:02:46.047Z</time></trkpt><trkpt lat="53.2049802" lon="-1.9494116"><ele>460.0</ele><time>2026-04-18T10:02:47.044Z</time></trkpt><trkpt lat="53.2049087" lon="-1.9491632"><ele>460.0</ele><time>2026-04-18T10:02:48.046Z</time></trkpt><trkpt lat="53.2048465" lon="-1.948893"><ele>460.0</ele><time>2026-04-18T10:02:49.045Z</time></trkpt><trkpt lat="53.2047986" lon="-1.9486175"><ele>460.0</ele><time>2026-04-18T10:02:50.048Z</time></trkpt><trkpt lat="53.2047639" lon="-1.9483614"><ele>460.0</ele><time>2026-04-18T10:02:51.048Z</time></trkpt><trkpt lat="53.2047253" lon="-1.9481251"><ele>460.0</ele><time>2026-04-18T10:02:52.046Z</time></trkpt><trkpt lat="53.2046676" lon="-1.9479069"><ele>460.0</ele><time>2026-04-18T10:02:53.048Z</time></trkpt><trkpt lat="53.2045905" lon="-1.9476778"><ele>460.0</ele><time>2026-04-18T10:02:54.044Z</time></trkpt><trkpt lat="53.2045025" lon="-1.9474236"><ele>459.6666666666667</ele><time>2026-04-18T10:02:55.044Z</time></trkpt><trkpt lat="53.2044133" lon="-1.9471607"><ele>459.33333333333337</ele><time>2026-04-18T10:02:56.045Z</time></trkpt><trkpt lat="53.2043298" lon="-1.9469116"><ele>459.0</ele><time>2026-04-18T10:02:57.044Z</time></trkpt><trkpt lat="53.2042484" lon="-1.9466838"><ele>459.0</ele><time>2026-04-18T10:02:58.044Z</time></trkpt><trkpt lat="53.2041682" lon="-1.9464836"><ele>459.0</ele><time>2026-04-18T10:02:59.039Z</time></trkpt><trkpt lat="53.2040895" lon="-1.9463125"><ele>459.0</ele><time>2026-04-18T10:03:00.038Z</time></trkpt><trkpt lat="53.2040143" lon="-1.9461653"><ele>459.0</ele><time>2026-04-18T10:03:01.044Z</time></trkpt><trkpt lat="53.2039449" lon="-1.9460279"><ele>458.25</ele><time>2026-04-18T10:03:02.044Z</time></trkpt><trkpt lat="53.2038734" lon="-1.9458916"><ele>457.5</ele><time>2026-04-18T10:03:03.049Z</time></trkpt><trkpt lat="53.2037862" lon="-1.9457623"><ele>456.75</ele><time>2026-04-18T10:03:04.044Z</time></trkpt><trkpt lat="53.2036822" lon="-1.9456302"><ele>456.0</ele><time>2026-04-18T10:03:05.044Z</time></trkpt><trkpt lat="53.2035695" lon="-1.9454885"><ele>454.75</ele><time>2026-04-18T10:03:06.044Z</time></trkpt><trkpt lat="53.2034575" lon="-1.9453446"><ele>453.5</ele><time>2026-04-18T10:03:07.043Z</time></trkpt><trkpt lat="53.2033545" lon="-1.9452101"><ele>452.25</ele><time>2026-04-18T10:03:08.047Z</time></trkpt><trkpt lat="53.2032611" lon="-1.9450824"><ele>451.0</ele><time>2026-04-18T10:03:09.045Z</time></trkpt><trkpt lat="53.2031756" lon="-1.9449549"><ele>448.5</ele><time>2026-04-18T10:03:10.048Z</time></trkpt><trkpt lat="53.2030946" lon="-1.9448282"><ele>446.0</ele><time>2026-04-18T10:03:11.044Z</time></trkpt><trkpt lat="53.2030193" lon="-1.9446853"><ele>443.5</ele><time>2026-04-18T10:03:12.043Z</time></trkpt><trkpt lat="53.2029511" lon="-1.944516"><ele>441.0</ele><time>2026-04-18T10:03:13.043Z</time></trkpt><trkpt lat="53.2028861" lon="-1.944313"><ele>438.66666666666663</ele><time>2026-04-18T10:03:14.044Z</time></trkpt><trkpt lat="53.2028198" lon="-1.9440822"><ele>436.3333333333333</ele><time>2026-04-18T10:03:15.042Z</time></trkpt><trkpt lat="53.202756" lon="-1.9438475"><ele>434.0</ele><time>2026-04-18T10:03:16.045Z</time></trkpt><trkpt lat="53.2026975" lon="-1.9436163"><ele>434.0</ele><time>2026-04-18T10:03:17.044Z</time></trkpt><trkpt lat="53.2026456" lon="-1.9433924"><ele>434.0</ele><time>2026-04-18T10:03:18.045Z</time></trkpt><trkpt lat="53.2026021" lon="-1.9431728"><ele>434.0</ele><time>2026-04-18T10:03:19.043Z</time></trkpt><trkpt lat="53.2025707" lon="-1.9429447"><ele>434.0</ele><time>2026-04-18T10:03:20.041Z</time></trkpt><trkpt lat="53.2025539" lon="-1.9426946"><ele>429.3333333333333</ele><time>2026-04-18T10:03:21.042Z</time></trkpt><trkpt lat="53.2025429" lon="-1.9424356"><ele>424.66666666666663</ele><time>2026-04-18T10:03:22.044Z</time></trkpt><trkpt lat="53.202527" lon="-1.9421761"><ele>420.0</ele><time>2026-04-18T10:03:23.046Z</time></trkpt><trkpt lat="53.2025023" lon="-1.9419115"><ele>418.33333333333337</ele><time>2026-04-18T10:03:24.043Z</time></trkpt><trkpt lat="53.2024702" lon="-1.9416497"><ele>416.6666666666667</ele><time>2026-04-18T10:03:25.045Z</time></trkpt><trkpt lat="53.2024259" lon="-1.9413893"><ele>415.0</ele><time>2026-04-18T10:03:26.043Z</time></trkpt><trkpt lat="53.2023693" lon="-1.9411232"><ele>411.0</ele><time>2026-04-18T10:03:27.045Z</time></trkpt><trkpt lat="53.2023011" lon="-1.9408479"><ele>407.0</ele><time>2026-04-18T10:03:28.043Z</time></trkpt><trkpt lat="53.2022096" lon="-1.9405676"><ele>403.0</ele><time>2026-04-18T10:03:29.045Z</time></trkpt><trkpt lat="53.2020989" lon="-1.9402854"><ele>403.0</ele><time>2026-04-18T10:03:30.045Z</time></trkpt><trkpt lat="53.2019944" lon="-1.9399892"><ele>403.0</ele><time>2026-04-18T10:03:31.048Z</time></trkpt><trkpt lat="53.2019054" lon="-1.939676"><ele>403.0</ele><time>2026-04-18T10:03:32.048Z</time></trkpt><trkpt lat="53.2018325" lon="-1.9393433"><ele>405.33333333333337</ele><time>2026-04-18T10:03:33.05Z</time></trkpt><trkpt lat="53.2017644" lon="-1.9390038"><ele>407.66666666666663</ele><time>2026-04-18T10:03:34.048Z</time></trkpt><trkpt lat="53.2016999" lon="-1.938689"><ele>410.0</ele><time>2026-04-18T10:03:35.048Z</time></trkpt><trkpt lat="53.2016427" lon="-1.9384138"><ele>410.25</ele><time>2026-04-18T10:03:36.048Z</time></trkpt><trkpt lat="53.2015898" lon="-1.9381875"><ele>410.5</ele><time>2026-04-18T10:03:37.049Z</time></trkpt><trkpt lat="53.2015256" lon="-1.9379958"><ele>410.75</ele><time>2026-04-18T10:03:38.047Z</time></trkpt><trkpt lat="53.2014571" lon="-1.9378013"><ele>411.0</ele><time>2026-04-18T10:03:39.047Z</time></trkpt><trkpt lat="53.20139" lon="-1.9376094"><ele>409.4</ele><time>2026-04-18T10:03:40.047Z</time></trkpt><trkpt lat="53.2013276" lon="-1.9374319"><ele>407.8</ele><time>2026-04-18T10:03:41.043Z</time></trkpt><trkpt lat="53.2012738" lon="-1.9372723"><ele>406.2</ele><time>2026-04-18T10:03:42.041Z</time></trkpt><trkpt lat="53.2012276" lon="-1.9371354"><ele>404.59999999999997</ele><time>2026-04-18T10:03:43.045Z</time></trkpt><trkpt lat="53.201189" lon="-1.9370072"><ele>403.0</ele><time>2026-04-18T10:03:44.037Z</time></trkpt><trkpt lat="53.2011623" lon="-1.9368768"><ele>403.0</ele><time>2026-04-18T10:03:45.047Z</time></trkpt><trkpt lat="53.2011618" lon="-1.936745"><ele>403.0</ele><time>2026-04-18T10:03:46.048Z</time></trkpt><trkpt lat="53.2012045" lon="-1.9366131"><ele>403.0</ele><time>2026-04-18T10:03:47.043Z</time></trkpt><trkpt lat="53.2012782" lon="-1.9364758"><ele>403.0</ele><time>2026-04-18T10:03:48.046Z</time></trkpt><trkpt lat="53.201359" lon="-1.9363187"><ele>403.0</ele><time>2026-04-18T10:03:49.039Z</time></trkpt><trkpt lat="53.2014207" lon="-1.9361493"><ele>403.0</ele><time>2026-04-18T10:03:50.041Z</time></trkpt><trkpt lat="53.2014538" lon="-1.9359519"><ele>403.0</ele><time>2026-04-18T10:03:51.043Z</time></trkpt><trkpt lat="53.2014695" lon="-1.9357233"><ele>403.0</ele><time>2026-04-18T10:03:52.045Z</time></trkpt><trkpt lat="53.2014815" lon="-1.9354742"><ele>403.0</ele><time>2026-04-18T10:03:53.046Z</time></trkpt><trkpt lat="53.201493" lon="-1.9352106"><ele>402.0</ele><time>2026-04-18T10:03:54.045Z</time></trkpt><trkpt lat="53.2015034" lon="-1.9349475"><ele>401.0</ele><time>2026-04-18T10:03:55.044Z</time></trkpt><trkpt lat="53.2015157" lon="-1.9347199"><ele>400.0</ele><time>2026-04-18T10:03:56.045Z</time></trkpt><trkpt lat="53.2015223" lon="-1.9345482"><ele>399.0</ele><time>2026-04-18T10:03:57.044Z</time></trkpt><trkpt lat="53.2015203" lon="-1.9344377"><ele>398.79999999999995</ele><time>2026-04-18T10:03:58.045Z</time></trkpt><trkpt lat="53.2014899" lon="-1.9342654"><ele>398.59999999999997</ele><time>2026-04-18T10:04:00.047Z</time></trkpt><trkpt lat="53.2014728" lon="-1.934141"><ele>398.4</ele><time>2026-04-18T10:04:01.048Z</time></trkpt><trkpt lat="53.2014692" lon="-1.93399"><ele>398.2</ele><time>2026-04-18T10:04:02.047Z</time></trkpt><trkpt lat="53.2014826" lon="-1.9338241"><ele>398.0</ele><time>2026-04-18T10:04:03.054Z</time></trkpt><trkpt lat="53.2015086" lon="-1.9336535"><ele>398.0</ele><time>2026-04-18T10:04:04.046Z</time></trkpt><trkpt lat="53.2015387" lon="-1.9334781"><ele>398.0</ele><time>2026-04-18T10:04:05.047Z</time></trkpt><trkpt lat="53.2015659" lon="-1.9333015"><ele>398.0</ele><time>2026-04-18T10:04:06.048Z</time></trkpt><trkpt lat="53.2015924" lon="-1.9331281"><ele>398.0</ele><time>2026-04-18T10:04:07.045Z</time></trkpt><trkpt lat="53.201619" lon="-1.9329621"><ele>398.0</ele><time>2026-04-18T10:04:08.046Z</time></trkpt><trkpt lat="53.2016431" lon="-1.9328008"><ele>396.59999999999997</ele><time>2026-04-18T10:04:09.047Z</time></trkpt><trkpt lat="53.2016586" lon="-1.9326411"><ele>395.2</ele><time>2026-04-18T10:04:10.046Z</time></trkpt><trkpt lat="53.2016686" lon="-1.9324805"><ele>393.8</ele><time>2026-04-18T10:04:11.042Z</time></trkpt><trkpt lat="53.2016784" lon="-1.932316"><ele>392.4</ele><time>2026-04-18T10:04:12.04Z</time></trkpt><trkpt lat="53.201693" lon="-1.9321479"><ele>391.0</ele><time>2026-04-18T10:04:13.045Z</time></trkpt><trkpt lat="53.2017107" lon="-1.931976"><ele>388.75</ele><time>2026-04-18T10:04:14.042Z</time></trkpt><trkpt lat="53.201728" lon="-1.9317991"><ele>386.5</ele><time>2026-04-18T10:04:15.042Z</time></trkpt><trkpt lat="53.2017406" lon="-1.931615"><ele>384.25</ele><time>2026-04-18T10:04:16.042Z</time></trkpt><trkpt lat="53.2017467" lon="-1.9314182"><ele>382.0</ele><time>2026-04-18T10:04:17.041Z</time></trkpt><trkpt lat="53.2017443" lon="-1.931215"><ele>380.0</ele><time>2026-04-18T10:04:18.042Z</time></trkpt><trkpt lat="53.2017326" lon="-1.9310183"><ele>378.0</ele><time>2026-04-18T10:04:19.043Z</time></trkpt><trkpt lat="53.201722" lon="-1.9308273"><ele>376.0</ele><time>2026-04-18T10:04:20.041Z</time></trkpt><trkpt lat="53.201714" lon="-1.9306263"><ele>374.0</ele><time>2026-04-18T10:04:21.042Z</time></trkpt><trkpt lat="53.2017078" lon="-1.9304124"><ele>372.75</ele><time>2026-04-18T10:04:22.042Z</time></trkpt><trkpt lat="53.2017023" lon="-1.930187"><ele>371.5</ele><time>2026-04-18T10:04:23.043Z</time></trkpt><trkpt lat="53.2016958" lon="-1.9299498"><ele>370.25</ele><time>2026-04-18T10:04:24.043Z</time></trkpt><trkpt lat="53.2016907" lon="-1.9297018"><ele>369.0</ele><time>2026-04-18T10:04:25.043Z</time></trkpt><trkpt lat="53.2016877" lon="-1.9294353"><ele>365.0</ele><time>2026-04-18T10:04:26.044Z</time></trkpt><trkpt lat="53.2016854" lon="-1.9291466"><ele>361.0</ele><time>2026-04-18T10:04:27.045Z</time></trkpt><trkpt lat="53.2016819" lon="-1.9288547"><ele>357.0</ele><time>2026-04-18T10:04:28.045Z</time></trkpt><trkpt lat="53.2016776" lon="-1.9285782"><ele>356.0</ele><time>2026-04-18T10:04:29.044Z</time></trkpt><trkpt lat="53.201671" lon="-1.9283235"><ele>355.0</ele><time>2026-04-18T10:04:30.045Z</time></trkpt><trkpt lat="53.201661" lon="-1.9280884"><ele>354.0</ele><time>2026-04-18T10:04:31.049Z</time></trkpt><trkpt lat="53.2016436" lon="-1.9278628"><ele>353.0</ele><time>2026-04-18T10:04:32.048Z</time></trkpt><trkpt lat="53.2016116" lon="-1.9276298"><ele>352.0</ele><time>2026-04-18T10:04:33.054Z</time></trkpt><trkpt lat="53.2015667" lon="-1.9273893"><ele>351.0</ele><time>2026-04-18T10:04:34.048Z</time></trkpt><trkpt lat="53.2015197" lon="-1.9271549"><ele>350.0</ele><time>2026-04-18T10:04:35.048Z</time></trkpt><trkpt lat="53.2014781" lon="-1.9269295"><ele>349.0</ele><time>2026-04-18T10:04:36.047Z</time></trkpt><trkpt lat="53.2014442" lon="-1.9266994"><ele>347.75</ele><time>2026-04-18T10:04:37.049Z</time></trkpt><trkpt lat="53.2014133" lon="-1.9264726"><ele>346.5</ele><time>2026-04-18T10:04:38.047Z</time></trkpt><trkpt lat="53.2013815" lon="-1.9262554"><ele>345.25</ele><time>2026-04-18T10:04:39.043Z</time></trkpt><trkpt lat="53.2013511" lon="-1.9260455"><ele>344.0</ele><time>2026-04-18T10:04:40.043Z</time></trkpt><trkpt lat="53.2013199" lon="-1.9258411"><ele>343.0</ele><time>2026-04-18T10:04:41.043Z</time></trkpt><trkpt lat="53.2012864" lon="-1.9256391"><ele>342.0</ele><time>2026-04-18T10:04:42.042Z</time></trkpt><trkpt lat="53.2012486" lon="-1.9254355"><ele>341.0</ele><time>2026-04-18T10:04:43.047Z</time></trkpt><trkpt lat="53.2012047" lon="-1.9252391"><ele>340.0</ele><time>2026-04-18T10:04:44.046Z</time></trkpt><trkpt lat="53.2011562" lon="-1.925061"><ele>339.3333333333333</ele><time>2026-04-18T10:04:45.044Z</time></trkpt><trkpt lat="53.2011139" lon="-1.9248983"><ele>338.66666666666663</ele><time>2026-04-18T10:04:46.043Z</time></trkpt><trkpt lat="53.2010877" lon="-1.9247419"><ele>338.0</ele><time>2026-04-18T10:04:47.042Z</time></trkpt><trkpt lat="53.2010672" lon="-1.9245982"><ele>337.3333333333333</ele><time>2026-04-18T10:04:48.043Z</time></trkpt><trkpt lat="53.2010528" lon="-1.9244728"><ele>336.6666666666667</ele><time>2026-04-18T10:04:49.041Z</time></trkpt><trkpt lat="53.2010351" lon="-1.9243651"><ele>336.0</ele><time>2026-04-18T10:04:50.045Z</time></trkpt><trkpt lat="53.2009792" lon="-1.9241797"><ele>335.20000000000005</ele><time>2026-04-18T10:04:52.04Z</time></trkpt><trkpt lat="53.2009228" lon="-1.9240991"><ele>334.40000000000003</ele><time>2026-04-18T10:04:53.048Z</time></trkpt><trkpt lat="53.2008551" lon="-1.9240123"><ele>333.6</ele><time>2026-04-18T10:04:54.042Z</time></trkpt><trkpt lat="53.2007907" lon="-1.9239068"><ele>332.8</ele><time>2026-04-18T10:04:55.039Z</time></trkpt><trkpt lat="53.2007366" lon="-1.9237651"><ele>332.0</ele><time>2026-04-18T10:04:56.037Z</time></trkpt><trkpt lat="53.2006944" lon="-1.9236029"><ele>332.5</ele><time>2026-04-18T10:04:57.04Z</time></trkpt><trkpt lat="53.2006657" lon="-1.9234337"><ele>333.0</ele><time>2026-04-18T10:04:58.044Z</time></trkpt><trkpt lat="53.2006528" lon="-1.9232546"><ele>333.5</ele><time>2026-04-18T10:04:59.041Z</time></trkpt><trkpt lat="53.20064" lon="-1.9230616"><ele>334.0</ele><time>2026-04-18T10:05:00.041Z</time></trkpt><trkpt lat="53.2006191" lon="-1.9228586"><ele>334.75</ele><time>2026-04-18T10:05:01.04Z</time></trkpt><trkpt lat="53.200592" lon="-1.922652"><ele>335.5</ele><time>2026-04-18T10:05:02.043Z</time></trkpt><trkpt lat="53.2005603" lon="-1.922449"><ele>336.25</ele><time>2026-04-18T10:05:03.046Z</time></trkpt><trkpt lat="53.2005307" lon="-1.9222595"><ele>337.0</ele><time>2026-04-18T10:05:04.042Z</time></trkpt><trkpt lat="53.2005029" lon="-1.9220937"><ele>338.20000000000005</ele><time>2026-04-18T10:05:05.04Z</time></trkpt><trkpt lat="53.2004813" lon="-1.9219483"><ele>339.4</ele><time>2026-04-18T10:05:06.043Z</time></trkpt><trkpt lat="53.2004464" lon="-1.9218184"><ele>340.6</ele><time>2026-04-18T10:05:07.039Z</time></trkpt><trkpt lat="53.2003899" lon="-1.9216948"><ele>341.79999999999995</ele><time>2026-04-18T10:05:08.04Z</time></trkpt><trkpt lat="53.2003164" lon="-1.9215645"><ele>343.0</ele><time>2026-04-18T10:05:09.04Z</time></trkpt><trkpt lat="53.2002361" lon="-1.9214208"><ele>345.0</ele><time>2026-04-18T10:05:10.041Z</time></trkpt><trkpt lat="53.2001511" lon="-1.9212686"><ele>347.0</ele><time>2026-04-18T10:05:11.041Z</time></trkpt><trkpt lat="53.2000671" lon="-1.9211157"><ele>349.0</ele><time>2026-04-18T10:05:12.041Z</time></trkpt><trkpt lat="53.1999897" lon="-1.920971"><ele>351.0</ele><time>2026-04-18T10:05:13.046Z</time></trkpt><trkpt lat="53.1999257" lon="-1.9208393"><ele>352.4</ele><time>2026-04-18T10:05:14.043Z</time></trkpt><trkpt lat="53.1998721" lon="-1.920714"><ele>353.8</ele><time>2026-04-18T10:05:15.042Z</time></trkpt><trkpt lat="53.1998197" lon="-1.9205863"><ele>355.2</ele><time>2026-04-18T10:05:16.042Z</time></trkpt><trkpt lat="53.1997662" lon="-1.9204557"><ele>356.59999999999997</ele><time>2026-04-18T10:05:17.042Z</time></trkpt><trkpt lat="53.1997104" lon="-1.9203169"><ele>358.0</ele><time>2026-04-18T10:05:18.042Z</time></trkpt><trkpt lat="53.1996602" lon="-1.9201748"><ele>360.2</ele><time>2026-04-18T10:05:19.041Z</time></trkpt><trkpt lat="53.1996132" lon="-1.9200237"><ele>362.4</ele><time>2026-04-18T10:05:20.035Z</time></trkpt><trkpt lat="53.1995713" lon="-1.9198783"><ele>364.59999999999997</ele><time>2026-04-18T10:05:21.041Z</time></trkpt><trkpt lat="53.1995323" lon="-1.9197397"><ele>366.79999999999995</ele><time>2026-04-18T10:05:22.042Z</time></trkpt><trkpt lat="53.1994948" lon="-1.919596"><ele>369.0</ele><time>2026-04-18T10:05:23.043Z</time></trkpt><trkpt lat="53.1994574" lon="-1.9194429"><ele>369.0</ele><time>2026-04-18T10:05:24.052Z</time></trkpt><trkpt lat="53.1994198" lon="-1.9192762"><ele>369.0</ele><time>2026-04-18T10:05:25.045Z</time></trkpt><trkpt lat="53.199382" lon="-1.9191"><ele>369.0</ele><time>2026-04-18T10:05:26.043Z</time></trkpt><trkpt lat="53.1993425" lon="-1.9189223"><ele>369.0</ele><time>2026-04-18T10:05:27.041Z</time></trkpt><trkpt lat="53.1993038" lon="-1.9187499"><ele>369.0</ele><time>2026-04-18T10:05:28.04Z</time></trkpt><trkpt lat="53.199265" lon="-1.9185869"><ele>371.0</ele><time>2026-04-18T10:05:29.041Z</time></trkpt><trkpt lat="53.1992223" lon="-1.9184259"><ele>373.0</ele><time>2026-04-18T10:05:30.043Z</time></trkpt><trkpt lat="53.1991755" lon="-1.9182565"><ele>375.0</ele><time>2026-04-18T10:05:31.042Z</time></trkpt><trkpt lat="53.1991273" lon="-1.918079"><ele>377.0</ele><time>2026-04-18T10:05:32.043Z</time></trkpt><trkpt lat="53.1990801" lon="-1.9178971"><ele>378.0</ele><time>2026-04-18T10:05:33.045Z</time></trkpt><trkpt lat="53.1990348" lon="-1.9177111"><ele>379.0</ele><time>2026-04-18T10:05:34.043Z</time></trkpt><trkpt lat="53.1989902" lon="-1.9175211"><ele>380.0</ele><time>2026-04-18T10:05:35.041Z</time></trkpt><trkpt lat="53.1989486" lon="-1.9173342"><ele>381.0</ele><time>2026-04-18T10:05:36.046Z</time></trkpt><trkpt lat="53.1989085" lon="-1.9171488"><ele>382.25</ele><time>2026-04-18T10:05:37.046Z</time></trkpt><trkpt lat="53.1988684" lon="-1.9169602"><ele>383.5</ele><time>2026-04-18T10:05:38.044Z</time></trkpt><trkpt lat="53.1988235" lon="-1.9167686"><ele>384.75</ele><time>2026-04-18T10:05:39.046Z</time></trkpt><trkpt lat="53.1987759" lon="-1.916579"><ele>386.0</ele><time>2026-04-18T10:05:40.046Z</time></trkpt><trkpt lat="53.1987264" lon="-1.9163971"><ele>386.5</ele><time>2026-04-18T10:05:41.043Z</time></trkpt><trkpt lat="53.1986741" lon="-1.9162155"><ele>387.0</ele><time>2026-04-18T10:05:42.046Z</time></trkpt><trkpt lat="53.1986173" lon="-1.9160296"><ele>387.5</ele><time>2026-04-18T10:05:43.051Z</time></trkpt><trkpt lat="53.198558" lon="-1.9158361"><ele>388.0</ele><time>2026-04-18T10:05:44.045Z</time></trkpt><trkpt lat="53.1984982" lon="-1.9156354"><ele>388.0</ele><time>2026-04-18T10:05:45.044Z</time></trkpt><trkpt lat="53.1984393" lon="-1.9154278"><ele>388.0</ele><time>2026-04-18T10:05:46.045Z</time></trkpt><trkpt lat="53.1983826" lon="-1.9152138"><ele>388.0</ele><time>2026-04-18T10:05:47.044Z</time></trkpt><trkpt lat="53.1983265" lon="-1.9149903"><ele>388.0</ele><time>2026-04-18T10:05:48.046Z</time></trkpt><trkpt lat="53.1982701" lon="-1.914743"><ele>388.33333333333337</ele><time>2026-04-18T10:05:49.04Z</time></trkpt><trkpt lat="53.1982086" lon="-1.9144621"><ele>388.66666666666663</ele><time>2026-04-18T10:05:50.046Z</time></trkpt><trkpt lat="53.1981443" lon="-1.9141642"><ele>389.0</ele><time>2026-04-18T10:05:51.044Z</time></trkpt><trkpt lat="53.1980844" lon="-1.9138733"><ele>389.0</ele><time>2026-04-18T10:05:52.04Z</time></trkpt><trkpt lat="53.1980277" lon="-1.9136008"><ele>389.0</ele><time>2026-04-18T10:05:53.052Z</time></trkpt><trkpt lat="53.1979767" lon="-1.9133545"><ele>389.0</ele><time>2026-04-18T10:05:54.048Z</time></trkpt><trkpt lat="53.197936" lon="-1.9131278"><ele>388.5</ele><time>2026-04-18T10:05:55.043Z</time></trkpt><trkpt lat="53.1979055" lon="-1.9129117"><ele>388.0</ele><time>2026-04-18T10:05:56.044Z</time></trkpt><trkpt lat="53.1978809" lon="-1.9127032"><ele>387.5</ele><time>2026-04-18T10:05:57.042Z</time></trkpt><trkpt lat="53.1978624" lon="-1.9125042"><ele>387.0</ele><time>2026-04-18T10:05:58.043Z</time></trkpt><trkpt lat="53.1978487" lon="-1.9123121"><ele>386.20000000000005</ele><time>2026-04-18T10:05:59.045Z</time></trkpt><trkpt lat="53.1978399" lon="-1.9121273"><ele>385.4</ele><time>2026-04-18T10:06:00.044Z</time></trkpt><trkpt lat="53.1978359" lon="-1.9119501"><ele>384.6</ele><time>2026-04-18T10:06:01.046Z</time></trkpt><trkpt lat="53.1978305" lon="-1.9117812"><ele>383.79999999999995</ele><time>2026-04-18T10:06:02.044Z</time></trkpt><trkpt lat="53.1978235" lon="-1.9116092"><ele>383.0</ele><time>2026-04-18T10:06:03.05Z</time></trkpt><trkpt lat="53.197812" lon="-1.9114336"><ele>382.4</ele><time>2026-04-18T10:06:04.048Z</time></trkpt><trkpt lat="53.1977964" lon="-1.9112634"><ele>381.79999999999995</ele><time>2026-04-18T10:06:05.048Z</time></trkpt><trkpt lat="53.1977796" lon="-1.9111029"><ele>381.2</ele><time>2026-04-18T10:06:06.047Z</time></trkpt><trkpt lat="53.1977645" lon="-1.9109481"><ele>380.6</ele><time>2026-04-18T10:06:07.046Z</time></trkpt><trkpt lat="53.197747" lon="-1.9107926"><ele>380.0</ele><time>2026-04-18T10:06:08.048Z</time></trkpt><trkpt lat="53.1977272" lon="-1.910637"><ele>378.8</ele><time>2026-04-18T10:06:09.048Z</time></trkpt><trkpt lat="53.1977082" lon="-1.9104806"><ele>377.6</ele><time>2026-04-18T10:06:10.046Z</time></trkpt><trkpt lat="53.1976878" lon="-1.9103276"><ele>376.4</ele><time>2026-04-18T10:06:11.044Z</time></trkpt><trkpt lat="53.1976626" lon="-1.9101726"><ele>375.2</ele><time>2026-04-18T10:06:12.043Z</time></trkpt><trkpt lat="53.1976368" lon="-1.9100158"><ele>374.0</ele><time>2026-04-18T10:06:13.049Z</time></trkpt><trkpt lat="53.1976109" lon="-1.9098561"><ele>372.0</ele><time>2026-04-18T10:06:14.043Z</time></trkpt><trkpt lat="53.197589" lon="-1.9097088"><ele>370.0</ele><time>2026-04-18T10:06:15.043Z</time></trkpt><trkpt lat="53.1975777" lon="-1.9095894"><ele>368.0</ele><time>2026-04-18T10:06:16.044Z</time></trkpt><trkpt lat="53.197562" lon="-1.9094328"><ele>366.0</ele><time>2026-04-18T10:06:18.04Z</time></trkpt><trkpt lat="53.1974657" lon="-1.9093062"><ele>364.0</ele><time>2026-04-18T10:06:20.043Z</time></trkpt><trkpt lat="53.1973933" lon="-1.9092348"><ele>364.3333333333333</ele><time>2026-04-18T10:06:21.041Z</time></trkpt><trkpt lat="53.1973174" lon="-1.9091842"><ele>364.66666666666663</ele><time>2026-04-18T10:06:22.041Z</time></trkpt><trkpt lat="53.1972446" lon="-1.9091605"><ele>365.0</ele><time>2026-04-18T10:06:23.04Z</time></trkpt><trkpt lat="53.1971678" lon="-1.9091794"><ele>365.3333333333333</ele><time>2026-04-18T10:06:24.041Z</time></trkpt><trkpt lat="53.1970885" lon="-1.9092355"><ele>365.6666666666667</ele><time>2026-04-18T10:06:25.043Z</time></trkpt><trkpt lat="53.197017" lon="-1.9093147"><ele>366.0</ele><time>2026-04-18T10:06:26.044Z</time></trkpt><trkpt lat="53.1969507" lon="-1.9094085"><ele>367.1666666666667</ele><time>2026-04-18T10:06:27.044Z</time></trkpt><trkpt lat="53.1968907" lon="-1.90952"><ele>368.3333333333333</ele><time>2026-04-18T10:06:28.047Z</time></trkpt><trkpt lat="53.1968435" lon="-1.909653"><ele>369.5</ele><time>2026-04-18T10:06:29.043Z</time></trkpt><trkpt lat="53.1968104" lon="-1.9097892"><ele>370.66666666666663</ele><time>2026-04-18T10:06:30.045Z</time></trkpt><trkpt lat="53.1967867" lon="-1.9099247"><ele>371.8333333333333</ele><time>2026-04-18T10:06:31.044Z</time></trkpt><trkpt lat="53.1967693" lon="-1.9100714"><ele>373.0</ele><time>2026-04-18T10:06:32.045Z</time></trkpt><trkpt lat="53.1967618" lon="-1.9102291"><ele>373.8333333333333</ele><time>2026-04-18T10:06:33.045Z</time></trkpt><trkpt lat="53.1967652" lon="-1.910395"><ele>374.66666666666663</ele><time>2026-04-18T10:06:34.045Z</time></trkpt><trkpt lat="53.1967657" lon="-1.9105543"><ele>375.5</ele><time>2026-04-18T10:06:35.044Z</time></trkpt><trkpt lat="53.1967571" lon="-1.9106935"><ele>376.3333333333333</ele><time>2026-04-18T10:06:36.047Z</time></trkpt><trkpt lat="53.1967448" lon="-1.9108047"><ele>377.1666666666667</ele><time>2026-04-18T10:06:37.046Z</time></trkpt><trkpt lat="53.1967231" lon="-1.9109361"><ele>378.0</ele><time>2026-04-18T10:06:39.048Z</time></trkpt><trkpt lat="53.1967033" lon="-1.9110552"><ele>378.6666666666667</ele><time>2026-04-18T10:06:42.043Z</time></trkpt><trkpt lat="53.1966841" lon="-1.9111553"><ele>379.3333333333333</ele><time>2026-04-18T10:06:45.044Z</time></trkpt><trkpt lat="53.1966746" lon="-1.9112684"><ele>380.0</ele><time>2026-04-18T10:06:48.048Z</time></trkpt><trkpt lat="53.1966516" lon="-1.9114072"><ele>380.66666666666663</ele><time>2026-04-18T10:06:51.044Z</time></trkpt><trkpt lat="53.1966338" lon="-1.9115279"><ele>381.3333333333333</ele><time>2026-04-18T10:06:53.049Z</time></trkpt><trkpt lat="53.1966037" lon="-1.9117094"><ele>382.0</ele><time>2026-04-18T10:06:55.044Z</time></trkpt><trkpt lat="53.1965855" lon="-1.9118269"><ele>382.5</ele><time>2026-04-18T10:06:56.046Z</time></trkpt><trkpt lat="53.1965663" lon="-1.9119625"><ele>383.0</ele><time>2026-04-18T10:06:57.047Z</time></trkpt><trkpt lat="53.1965516" lon="-1.9121109"><ele>383.5</ele><time>2026-04-18T10:06:58.038Z</time></trkpt><trkpt lat="53.1965502" lon="-1.9122535"><ele>384.0</ele><time>2026-04-18T10:06:59.044Z</time></trkpt><trkpt lat="53.1965693" lon="-1.9123923"><ele>384.50000000000006</ele><time>2026-04-18T10:07:00.046Z</time></trkpt><trkpt lat="53.1966047" lon="-1.9125365"><ele>385.0</ele><time>2026-04-18T10:07:01.047Z</time></trkpt><trkpt lat="53.1966486" lon="-1.9126814"><ele>385.8</ele><time>2026-04-18T10:07:02.046Z</time></trkpt><trkpt lat="53.1966931" lon="-1.9128289"><ele>386.6</ele><time>2026-04-18T10:07:03.054Z</time></trkpt><trkpt lat="53.1967309" lon="-1.9129856"><ele>387.4</ele><time>2026-04-18T10:07:04.047Z</time></trkpt><trkpt lat="53.1967622" lon="-1.913153"><ele>388.2</ele><time>2026-04-18T10:07:05.039Z</time></trkpt><trkpt lat="53.1967856" lon="-1.9133306"><ele>389.0</ele><time>2026-04-18T10:07:06.048Z</time></trkpt><trkpt lat="53.1967968" lon="-1.9135227"><ele>389.4</ele><time>2026-04-18T10:07:07.049Z</time></trkpt><trkpt lat="53.1968024" lon="-1.913723"><ele>389.79999999999995</ele><time>2026-04-18T10:07:08.048Z</time></trkpt><trkpt lat="53.1968029" lon="-1.9139184"><ele>390.20000000000005</ele><time>2026-04-18T10:07:09.046Z</time></trkpt><trkpt lat="53.1967949" lon="-1.9140996"><ele>390.6</ele><time>2026-04-18T10:07:10.049Z</time></trkpt><trkpt lat="53.196781" lon="-1.914259"><ele>391.0</ele><time>2026-04-18T10:07:11.046Z</time></trkpt><trkpt lat="53.196761" lon="-1.9143846"><ele>391.33333333333337</ele><time>2026-04-18T10:07:12.044Z</time></trkpt><trkpt lat="53.1967094" lon="-1.9145251"><ele>391.6666666666667</ele><time>2026-04-18T10:07:14.044Z</time></trkpt><trkpt lat="53.1966197" lon="-1.9146031"><ele>392.0</ele><time>2026-04-18T10:07:16.045Z</time></trkpt><trkpt lat="53.1965385" lon="-1.9146364"><ele>392.33333333333337</ele><time>2026-04-18T10:07:18.045Z</time></trkpt><trkpt lat="53.196467" lon="-1.9146801"><ele>392.6666666666667</ele><time>2026-04-18T10:07:38.04Z</time></trkpt><trkpt lat="53.1964058" lon="-1.9147392"><ele>393.0</ele><time>2026-04-18T10:07:39.045Z</time></trkpt><trkpt lat="53.1963285" lon="-1.9148113"><ele>393.2</ele><time>2026-04-18T10:07:40.046Z</time></trkpt><trkpt lat="53.1962499" lon="-1.91488"><ele>393.4</ele><time>2026-04-18T10:07:41.044Z</time></trkpt><trkpt lat="53.1961627" lon="-1.9149514"><ele>393.59999999999997</ele><time>2026-04-18T10:07:42.042Z</time></trkpt><trkpt lat="53.1960586" lon="-1.9150359"><ele>393.79999999999995</ele><time>2026-04-18T10:07:43.049Z</time></trkpt><trkpt lat="53.1959367" lon="-1.9151401"><ele>394.0</ele><time>2026-04-18T10:07:44.044Z</time></trkpt><trkpt lat="53.195804" lon="-1.9152593"><ele>394.6666666666667</ele><time>2026-04-18T10:07:45.044Z</time></trkpt><trkpt lat="53.1956592" lon="-1.9153879"><ele>395.33333333333337</ele><time>2026-04-18T10:07:46.047Z</time></trkpt><trkpt lat="53.195505" lon="-1.9155232"><ele>396.0</ele><time>2026-04-18T10:07:47.043Z</time></trkpt><trkpt lat="53.1953375" lon="-1.9156699"><ele>396.0</ele><time>2026-04-18T10:07:48.044Z</time></trkpt><trkpt lat="53.1951553" lon="-1.9158262"><ele>396.0</ele><time>2026-04-18T10:07:49.043Z</time></trkpt><trkpt lat="53.1949762" lon="-1.9159747"><ele>396.0</ele><time>2026-04-18T10:07:50.042Z</time></trkpt><trkpt lat="53.1948185" lon="-1.9161046"><ele>396.5</ele><time>2026-04-18T10:07:51.045Z</time></trkpt><trkpt lat="53.1946846" lon="-1.9162297"><ele>397.0</ele><time>2026-04-18T10:07:52.047Z</time></trkpt><trkpt lat="53.1945651" lon="-1.9163472"><ele>397.5</ele><time>2026-04-18T10:07:53.05Z</time></trkpt><trkpt lat="53.1944682" lon="-1.9164574"><ele>398.0</ele><time>2026-04-18T10:07:54.044Z</time></trkpt><trkpt lat="53.1944039" lon="-1.9165755"><ele>397.99999999999994</ele><time>2026-04-18T10:07:55.045Z</time></trkpt><trkpt lat="53.1943679" lon="-1.9167166"><ele>398.0</ele><time>2026-04-18T10:07:56.045Z</time></trkpt><trkpt lat="53.1943641" lon="-1.9168638"><ele>398.0</ele><time>2026-04-18T10:07:57.045Z</time></trkpt><trkpt lat="53.194372" lon="-1.9170239"><ele>398.0</ele><time>2026-04-18T10:07:58.045Z</time></trkpt><trkpt lat="53.1943836" lon="-1.917174"><ele>397.99999999999994</ele><time>2026-04-18T10:07:59.044Z</time></trkpt><trkpt lat="53.1943871" lon="-1.9173014"><ele>398.0</ele><time>2026-04-18T10:08:00.047Z</time></trkpt><trkpt lat="53.1943442" lon="-1.9174882"><ele>397.79999999999995</ele><time>2026-04-18T10:08:02.037Z</time></trkpt><trkpt lat="53.1942864" lon="-1.9175796"><ele>397.6</ele><time>2026-04-18T10:08:03.05Z</time></trkpt><trkpt lat="53.1942096" lon="-1.917689"><ele>397.4</ele><time>2026-04-18T10:08:04.047Z</time></trkpt><trkpt lat="53.1941261" lon="-1.9178298"><ele>397.20000000000005</ele><time>2026-04-18T10:08:05.045Z</time></trkpt><trkpt lat="53.1940341" lon="-1.9179978"><ele>397.0</ele><time>2026-04-18T10:08:06.049Z</time></trkpt><trkpt lat="53.193934" lon="-1.9181839"><ele>399.33333333333337</ele><time>2026-04-18T10:08:07.04Z</time></trkpt><trkpt lat="53.193825" lon="-1.9183823"><ele>401.66666666666663</ele><time>2026-04-18T10:08:08.046Z</time></trkpt><trkpt lat="53.1937066" lon="-1.9185844"><ele>404.0</ele><time>2026-04-18T10:08:09.051Z</time></trkpt><trkpt lat="53.1935773" lon="-1.9187808"><ele>404.0</ele><time>2026-04-18T10:08:10.051Z</time></trkpt><trkpt lat="53.1934398" lon="-1.9189657"><ele>404.0</ele><time>2026-04-18T10:08:11.046Z</time></trkpt><trkpt lat="53.1933022" lon="-1.9191378"><ele>404.0</ele><time>2026-04-18T10:08:12.045Z</time></trkpt><trkpt lat="53.1931645" lon="-1.9192966"><ele>406.0</ele><time>2026-04-18T10:08:13.049Z</time></trkpt><trkpt lat="53.1930201" lon="-1.9194429"><ele>408.0</ele><time>2026-04-18T10:08:14.046Z</time></trkpt><trkpt lat="53.1928708" lon="-1.9195762"><ele>410.0</ele><time>2026-04-18T10:08:15.045Z</time></trkpt><trkpt lat="53.1927206" lon="-1.9197073"><ele>410.0</ele><time>2026-04-18T10:08:16.048Z</time></trkpt><trkpt lat="53.1925625" lon="-1.9198444"><ele>410.0</ele><time>2026-04-18T10:08:17.046Z</time></trkpt><trkpt lat="53.1923885" lon="-1.9199945"><ele>410.0</ele><time>2026-04-18T10:08:18.046Z</time></trkpt><trkpt lat="53.1922025" lon="-1.9201583"><ele>412.0</ele><time>2026-04-18T10:08:19.043Z</time></trkpt><trkpt lat="53.192019" lon="-1.9203254"><ele>414.0</ele><time>2026-04-18T10:08:20.046Z</time></trkpt><trkpt lat="53.1918525" lon="-1.9204701"><ele>416.0</ele><time>2026-04-18T10:08:21.045Z</time></trkpt><trkpt lat="53.1916938" lon="-1.9205862"><ele>416.0</ele><time>2026-04-18T10:08:22.045Z</time></trkpt><trkpt lat="53.1915319" lon="-1.9206844"><ele>416.0</ele><time>2026-04-18T10:08:23.049Z</time></trkpt><trkpt lat="53.1913697" lon="-1.9207806"><ele>416.0</ele><time>2026-04-18T10:08:24.045Z</time></trkpt><trkpt lat="53.1912072" lon="-1.9208869"><ele>416.66666666666663</ele><time>2026-04-18T10:08:25.045Z</time></trkpt><trkpt lat="53.1910497" lon="-1.9210073"><ele>417.33333333333337</ele><time>2026-04-18T10:08:26.044Z</time></trkpt><trkpt lat="53.1909094" lon="-1.9211327"><ele>418.0</ele><time>2026-04-18T10:08:27.044Z</time></trkpt><trkpt lat="53.1907884" lon="-1.9212554"><ele>418.0</ele><time>2026-04-18T10:08:28.045Z</time></trkpt><trkpt lat="53.1906938" lon="-1.9213632"><ele>418.0</ele><time>2026-04-18T10:08:29.044Z</time></trkpt><trkpt lat="53.1906279" lon="-1.9214417"><ele>418.0</ele><time>2026-04-18T10:08:30.047Z</time></trkpt><trkpt lat="53.1905543" lon="-1.9215327"><ele>418.0</ele><time>2026-04-18T10:08:32.05Z</time></trkpt><trkpt lat="53.1904942" lon="-1.9215703"><ele>418.0</ele><time>2026-04-18T10:08:34.051Z</time></trkpt><trkpt lat="53.1904019" lon="-1.921415"><ele>418.0</ele><time>2026-04-18T10:08:36.049Z</time></trkpt><trkpt lat="53.1903397" lon="-1.9212584"><ele>418.0</ele><time>2026-04-18T10:08:37.048Z</time></trkpt><trkpt lat="53.1902691" lon="-1.9210856"><ele>418.0</ele><time>2026-04-18T10:08:38.044Z</time></trkpt><trkpt lat="53.1901843" lon="-1.9209011"><ele>418.0</ele><time>2026-04-18T10:08:39.048Z</time></trkpt><trkpt lat="53.1900967" lon="-1.9207071"><ele>418.0</ele><time>2026-04-18T10:08:40.05Z</time></trkpt><trkpt lat="53.1900098" lon="-1.920513"><ele>418.0</ele><time>2026-04-18T10:08:41.047Z</time></trkpt><trkpt lat="53.189926" lon="-1.9203331"><ele>418.0</ele><time>2026-04-18T10:08:42.046Z</time></trkpt><trkpt lat="53.1898516" lon="-1.9201643"><ele>418.0</ele><time>2026-04-18T10:08:43.048Z</time></trkpt><trkpt lat="53.1897831" lon="-1.9199889"><ele>418.0</ele><time>2026-04-18T10:08:44.041Z</time></trkpt><trkpt lat="53.1897154" lon="-1.9198066"><ele>418.0</ele><time>2026-04-18T10:08:45.048Z</time></trkpt><trkpt lat="53.1896463" lon="-1.9196209"><ele>418.0</ele><time>2026-04-18T10:08:46.045Z</time></trkpt><trkpt lat="53.1895787" lon="-1.9194486"><ele>418.0</ele><time>2026-04-18T10:08:47.045Z</time></trkpt><trkpt lat="53.189521" lon="-1.9193033"><ele>418.42857142857144</ele><time>2026-04-18T10:08:48.051Z</time></trkpt><trkpt lat="53.1894772" lon="-1.9191776"><ele>418.85714285714283</ele><time>2026-04-18T10:08:49.046Z</time></trkpt><trkpt lat="53.1894437" lon="-1.9190546"><ele>419.28571428571433</ele><time>2026-04-18T10:08:50.047Z</time></trkpt><trkpt lat="53.1894146" lon="-1.9189362"><ele>419.7142857142857</ele><time>2026-04-18T10:08:51.045Z</time></trkpt><trkpt lat="53.1893901" lon="-1.9188273"><ele>420.14285714285717</ele><time>2026-04-18T10:08:52.046Z</time></trkpt><trkpt lat="53.1893752" lon="-1.918724"><ele>420.5714285714286</ele><time>2026-04-18T10:08:53.047Z</time></trkpt><trkpt lat="53.1893816" lon="-1.918611"><ele>421.0</ele><time>2026-04-18T10:08:54.048Z</time></trkpt><trkpt lat="53.1894177" lon="-1.9184825"><ele>421.25</ele><time>2026-04-18T10:08:55.045Z</time></trkpt><trkpt lat="53.1894618" lon="-1.9183277"><ele>421.5</ele><time>2026-04-18T10:08:56.046Z</time></trkpt><trkpt lat="53.1894937" lon="-1.9181599"><ele>421.75</ele><time>2026-04-18T10:08:57.045Z</time></trkpt><trkpt lat="53.189522" lon="-1.9179724"><ele>422.0</ele><time>2026-04-18T10:08:58.044Z</time></trkpt><trkpt lat="53.1895616" lon="-1.9177712"><ele>422.25</ele><time>2026-04-18T10:08:59.047Z</time></trkpt><trkpt lat="53.1896075" lon="-1.9175667"><ele>422.5</ele><time>2026-04-18T10:09:00.048Z</time></trkpt><trkpt lat="53.1896491" lon="-1.917372"><ele>422.75</ele><time>2026-04-18T10:09:01.05Z</time></trkpt><trkpt lat="53.1896854" lon="-1.9171803"><ele>423.0</ele><time>2026-04-18T10:09:02.049Z</time></trkpt><trkpt lat="53.1897165" lon="-1.9169981"><ele>423.0</ele><time>2026-04-18T10:09:03.052Z</time></trkpt><trkpt lat="53.1897535" lon="-1.9168451"><ele>423.0</ele><time>2026-04-18T10:09:04.049Z</time></trkpt><trkpt lat="53.1898083" lon="-1.9167153"><ele>423.0</ele><time>2026-04-18T10:09:05.05Z</time></trkpt><trkpt lat="53.18987" lon="-1.9165801"><ele>423.0</ele><time>2026-04-18T10:09:06.05Z</time></trkpt><trkpt lat="53.1899326" lon="-1.9164295"><ele>423.0</ele><time>2026-04-18T10:09:07.044Z</time></trkpt><trkpt lat="53.1899909" lon="-1.9162725"><ele>422.2</ele><time>2026-04-18T10:09:08.05Z</time></trkpt><trkpt lat="53.1900443" lon="-1.9161206"><ele>421.4</ele><time>2026-04-18T10:09:09.048Z</time></trkpt><trkpt lat="53.1900987" lon="-1.9159816"><ele>420.59999999999997</ele><time>2026-04-18T10:09:10.049Z</time></trkpt><trkpt lat="53.1901472" lon="-1.9158635"><ele>419.79999999999995</ele><time>2026-04-18T10:09:11.044Z</time></trkpt><trkpt lat="53.1901884" lon="-1.9157668"><ele>419.0</ele><time>2026-04-18T10:09:12.045Z</time></trkpt><trkpt lat="53.1902565" lon="-1.9156245"><ele>418.49999999999994</ele><time>2026-04-18T10:09:14.049Z</time></trkpt><trkpt lat="53.1903121" lon="-1.9154945"><ele>418.0</ele><time>2026-04-18T10:09:16.047Z</time></trkpt><trkpt lat="53.190353" lon="-1.9153784"><ele>417.5</ele><time>2026-04-18T10:09:18.047Z</time></trkpt><trkpt lat="53.1903887" lon="-1.9152559"><ele>417.0</ele><time>2026-04-18T10:09:20.047Z</time></trkpt><trkpt lat="53.1904212" lon="-1.915138"><ele>416.49999999999994</ele><time>2026-04-18T10:09:22.045Z</time></trkpt><trkpt lat="53.1904598" lon="-1.9150336"><ele>416.0</ele><time>2026-04-18T10:09:24.049Z</time></trkpt><trkpt lat="53.1904989" lon="-1.914931"><ele>415.20000000000005</ele><time>2026-04-18T10:09:26.048Z</time></trkpt><trkpt lat="53.1905395" lon="-1.9148191"><ele>414.40000000000003</ele><time>2026-04-18T10:09:28.046Z</time></trkpt><trkpt lat="53.1906009" lon="-1.914658"><ele>413.6</ele><time>2026-04-18T10:09:30.046Z</time></trkpt><trkpt lat="53.1906386" lon="-1.9145471"><ele>412.8</ele><time>2026-04-18T10:09:31.05Z</time></trkpt><trkpt lat="53.1906777" lon="-1.9144151"><ele>412.0</ele><time>2026-04-18T10:09:32.05Z</time></trkpt><trkpt lat="53.1907181" lon="-1.9142761"><ele>410.83333333333337</ele><time>2026-04-18T10:09:33.044Z</time></trkpt><trkpt lat="53.1907579" lon="-1.9141453"><ele>409.6666666666667</ele><time>2026-04-18T10:09:34.048Z</time></trkpt><trkpt lat="53.1908033" lon="-1.9140334"><ele>408.5</ele><time>2026-04-18T10:09:35.047Z</time></trkpt><trkpt lat="53.1908514" lon="-1.913925"><ele>407.33333333333337</ele><time>2026-04-18T10:09:36.048Z</time></trkpt><trkpt lat="53.1908957" lon="-1.9138333"><ele>406.1666666666667</ele><time>2026-04-18T10:09:37.049Z</time></trkpt><trkpt lat="53.1909427" lon="-1.9137536"><ele>405.0</ele><time>2026-04-18T10:09:38.047Z</time></trkpt><trkpt lat="53.1909921" lon="-1.9136855"><ele>405.0</ele><time>2026-04-18T10:09:39.045Z</time></trkpt><trkpt lat="53.1910403" lon="-1.9136145"><ele>405.0</ele><time>2026-04-18T10:09:40.047Z</time></trkpt><trkpt lat="53.1910869" lon="-1.9135045"><ele>405.0</ele><time>2026-04-18T10:09:41.047Z</time></trkpt><trkpt lat="53.1911318" lon="-1.913353"><ele>405.0</ele><time>2026-04-18T10:09:42.047Z</time></trkpt><trkpt lat="53.1911774" lon="-1.9131855"><ele>405.0</ele><time>2026-04-18T10:09:43.052Z</time></trkpt><trkpt lat="53.1912193" lon="-1.9130271"><ele>404.4</ele><time>2026-04-18T10:09:44.045Z</time></trkpt><trkpt lat="53.1912591" lon="-1.9128788"><ele>403.8</ele><time>2026-04-18T10:09:45.047Z</time></trkpt><trkpt lat="53.1913006" lon="-1.912731"><ele>403.20000000000005</ele><time>2026-04-18T10:09:46.044Z</time></trkpt><trkpt lat="53.1913438" lon="-1.9125826"><ele>402.6</ele><time>2026-04-18T10:09:47.048Z</time></trkpt><trkpt lat="53.1913879" lon="-1.9124309"><ele>402.0</ele><time>2026-04-18T10:09:48.046Z</time></trkpt><trkpt lat="53.1914276" lon="-1.9122751"><ele>401.20000000000005</ele><time>2026-04-18T10:09:49.044Z</time></trkpt><trkpt lat="53.1914669" lon="-1.9121221"><ele>400.4</ele><time>2026-04-18T10:09:50.044Z</time></trkpt><trkpt lat="53.1915093" lon="-1.9119803"><ele>399.6</ele><time>2026-04-18T10:09:51.045Z</time></trkpt><trkpt lat="53.1915543" lon="-1.9118428"><ele>398.79999999999995</ele><time>2026-04-18T10:09:52.044Z</time></trkpt><trkpt lat="53.1916003" lon="-1.9116981"><ele>398.0</ele><time>2026-04-18T10:09:53.049Z</time></trkpt><trkpt lat="53.1916415" lon="-1.9115448"><ele>396.0</ele><time>2026-04-18T10:09:54.046Z</time></trkpt><trkpt lat="53.1916838" lon="-1.9113916"><ele>394.0</ele><time>2026-04-18T10:09:55.046Z</time></trkpt><trkpt lat="53.1917297" lon="-1.911244"><ele>392.0</ele><time>2026-04-18T10:09:56.044Z</time></trkpt><trkpt lat="53.1917773" lon="-1.9110999"><ele>390.0</ele><time>2026-04-18T10:09:57.044Z</time></trkpt><trkpt lat="53.1918179" lon="-1.9109567"><ele>388.0</ele><time>2026-04-18T10:09:58.045Z</time></trkpt><trkpt lat="53.1918524" lon="-1.9108219"><ele>387.33333333333337</ele><time>2026-04-18T10:09:59.045Z</time></trkpt><trkpt lat="53.1918815" lon="-1.9106987"><ele>386.6666666666667</ele><time>2026-04-18T10:10:00.044Z</time></trkpt><trkpt lat="53.1919061" lon="-1.9105985"><ele>386.0</ele><time>2026-04-18T10:10:01.045Z</time></trkpt><trkpt lat="53.1919461" lon="-1.9104775"><ele>385.33333333333337</ele><time>2026-04-18T10:10:03.052Z</time></trkpt><trkpt lat="53.1920312" lon="-1.9105262"><ele>384.6666666666667</ele><time>2026-04-18T10:10:08.046Z</time></trkpt><trkpt lat="53.192117" lon="-1.9106623"><ele>384.0</ele><time>2026-04-18T10:10:10.048Z</time></trkpt><trkpt lat="53.1921869" lon="-1.9107571"><ele>384.0</ele><time>2026-04-18T10:10:11.046Z</time></trkpt><trkpt lat="53.1922734" lon="-1.9108584"><ele>384.0</ele><time>2026-04-18T10:10:12.046Z</time></trkpt><trkpt lat="53.1923804" lon="-1.9109597"><ele>384.0</ele><time>2026-04-18T10:10:13.048Z</time></trkpt><trkpt lat="53.192509" lon="-1.9110567"><ele>384.0</ele><time>2026-04-18T10:10:14.048Z</time></trkpt><trkpt lat="53.1926654" lon="-1.9111593"><ele>383.6666666666667</ele><time>2026-04-18T10:10:15.049Z</time></trkpt><trkpt lat="53.1928505" lon="-1.9112785"><ele>383.33333333333337</ele><time>2026-04-18T10:10:16.047Z</time></trkpt><trkpt lat="53.1930484" lon="-1.9114112"><ele>383.0</ele><time>2026-04-18T10:10:17.049Z</time></trkpt><trkpt lat="53.1932266" lon="-1.9115433"><ele>383.25</ele><time>2026-04-18T10:10:18.05Z</time></trkpt><trkpt lat="53.1933767" lon="-1.9116592"><ele>383.5</ele><time>2026-04-18T10:10:19.047Z</time></trkpt><trkpt lat="53.193492" lon="-1.911753"><ele>383.75</ele><time>2026-04-18T10:10:20.048Z</time></trkpt><trkpt lat="53.1935805" lon="-1.9118339"><ele>384.0</ele><time>2026-04-18T10:10:21.046Z</time></trkpt><trkpt lat="53.1936624" lon="-1.9119142"><ele>384.0</ele><time>2026-04-18T10:10:22.045Z</time></trkpt><trkpt lat="53.1937452" lon="-1.9120106"><ele>384.0</ele><time>2026-04-18T10:10:23.046Z</time></trkpt><trkpt lat="53.193837" lon="-1.9121156"><ele>384.0</ele><time>2026-04-18T10:10:24.044Z</time></trkpt><trkpt lat="53.1939473" lon="-1.91223"><ele>384.0</ele><time>2026-04-18T10:10:25.047Z</time></trkpt><trkpt lat="53.1940721" lon="-1.9123463"><ele>384.33333333333337</ele><time>2026-04-18T10:10:26.048Z</time></trkpt><trkpt lat="53.1942094" lon="-1.9124655"><ele>384.6666666666667</ele><time>2026-04-18T10:10:27.045Z</time></trkpt><trkpt lat="53.1943528" lon="-1.91259"><ele>385.0</ele><time>2026-04-18T10:10:28.046Z</time></trkpt><trkpt lat="53.1944984" lon="-1.9127316"><ele>386.0</ele><time>2026-04-18T10:10:29.045Z</time></trkpt><trkpt lat="53.1946501" lon="-1.9128881"><ele>387.0</ele><time>2026-04-18T10:10:30.048Z</time></trkpt><trkpt lat="53.194805" lon="-1.9130561"><ele>388.0</ele><time>2026-04-18T10:10:31.046Z</time></trkpt><trkpt lat="53.1949538" lon="-1.9132277"><ele>388.0</ele><time>2026-04-18T10:10:32.046Z</time></trkpt><trkpt lat="53.1950939" lon="-1.9133869"><ele>388.0</ele><time>2026-04-18T10:10:33.046Z</time></trkpt><trkpt lat="53.1952305" lon="-1.9135341"><ele>388.0</ele><time>2026-04-18T10:10:34.046Z</time></trkpt><trkpt lat="53.1953611" lon="-1.9136783"><ele>388.6666666666667</ele><time>2026-04-18T10:10:35.045Z</time></trkpt><trkpt lat="53.195493" lon="-1.9138149"><ele>389.33333333333337</ele><time>2026-04-18T10:10:36.048Z</time></trkpt><trkpt lat="53.1956299" lon="-1.913952"><ele>390.0</ele><time>2026-04-18T10:10:37.049Z</time></trkpt><trkpt lat="53.1957677" lon="-1.9140927"><ele>390.25</ele><time>2026-04-18T10:10:38.049Z</time></trkpt><trkpt lat="53.1958937" lon="-1.9142268"><ele>390.5</ele><time>2026-04-18T10:10:39.049Z</time></trkpt><trkpt lat="53.1960043" lon="-1.9143441"><ele>390.75</ele><time>2026-04-18T10:10:40.051Z</time></trkpt><trkpt lat="53.1960998" lon="-1.9144456"><ele>391.0</ele><time>2026-04-18T10:10:41.049Z</time></trkpt><trkpt lat="53.1961843" lon="-1.9145314"><ele>391.33333333333337</ele><time>2026-04-18T10:10:42.048Z</time></trkpt><trkpt lat="53.1962588" lon="-1.914606"><ele>391.6666666666667</ele><time>2026-04-18T10:10:43.05Z</time></trkpt><trkpt lat="53.1963289" lon="-1.9146692"><ele>392.0</ele><time>2026-04-18T10:10:44.041Z</time></trkpt><trkpt lat="53.1963966" lon="-1.9147101"><ele>392.33333333333337</ele><time>2026-04-18T10:10:45.046Z</time></trkpt><trkpt lat="53.1965084" lon="-1.9147055"><ele>392.6666666666667</ele><time>2026-04-18T10:10:47.048Z</time></trkpt><trkpt lat="53.1965736" lon="-1.9146468"><ele>393.0</ele><time>2026-04-18T10:10:49.048Z</time></trkpt><trkpt lat="53.196643" lon="-1.9146"><ele>393.0</ele><time>2026-04-18T10:10:52.051Z</time></trkpt><trkpt lat="53.1967139" lon="-1.9144879"><ele>393.0</ele><time>2026-04-18T10:10:55.047Z</time></trkpt><trkpt lat="53.1967623" lon="-1.9143012"><ele>393.0</ele><time>2026-04-18T10:10:57.048Z</time></trkpt><trkpt lat="53.1967871" lon="-1.9141606"><ele>393.0</ele><time>2026-04-18T10:10:58.048Z</time></trkpt><trkpt lat="53.1967994" lon="-1.9139869"><ele>393.0</ele><time>2026-04-18T10:10:59.047Z</time></trkpt><trkpt lat="53.1967994" lon="-1.9137823"><ele>392.5</ele><time>2026-04-18T10:11:00.047Z</time></trkpt><trkpt lat="53.1967871" lon="-1.9135635"><ele>392.0</ele><time>2026-04-18T10:11:01.049Z</time></trkpt><trkpt lat="53.1967688" lon="-1.9133391"><ele>391.5</ele><time>2026-04-18T10:11:02.052Z</time></trkpt><trkpt lat="53.1967465" lon="-1.9131159"><ele>391.0</ele><time>2026-04-18T10:11:03.052Z</time></trkpt><trkpt lat="53.196717" lon="-1.9129078"><ele>390.5</ele><time>2026-04-18T10:11:04.051Z</time></trkpt><trkpt lat="53.1966778" lon="-1.9127158"><ele>390.0</ele><time>2026-04-18T10:11:05.054Z</time></trkpt><trkpt lat="53.1966288" lon="-1.912538"><ele>389.5</ele><time>2026-04-18T10:11:06.05Z</time></trkpt><trkpt lat="53.196576" lon="-1.9123713"><ele>389.0</ele><time>2026-04-18T10:11:07.049Z</time></trkpt><trkpt lat="53.1965335" lon="-1.9122123"><ele>388.2</ele><time>2026-04-18T10:11:08.051Z</time></trkpt><trkpt lat="53.1965218" lon="-1.912058"><ele>387.4</ele><time>2026-04-18T10:11:09.052Z</time></trkpt><trkpt lat="53.1965457" lon="-1.9118949"><ele>386.6</ele><time>2026-04-18T10:11:10.051Z</time></trkpt><trkpt lat="53.1965921" lon="-1.9117356"><ele>385.8</ele><time>2026-04-18T10:11:11.047Z</time></trkpt><trkpt lat="53.1966334" lon="-1.9115579"><ele>385.0</ele><time>2026-04-18T10:11:12.047Z</time></trkpt><trkpt lat="53.1966692" lon="-1.9113781"><ele>384.4</ele><time>2026-04-18T10:11:13.057Z</time></trkpt><trkpt lat="53.1966946" lon="-1.9112016"><ele>383.8</ele><time>2026-04-18T10:11:14.048Z</time></trkpt><trkpt lat="53.1967134" lon="-1.9110354"><ele>383.20000000000005</ele><time>2026-04-18T10:11:15.047Z</time></trkpt><trkpt lat="53.1967311" lon="-1.9108823"><ele>382.6</ele><time>2026-04-18T10:11:16.048Z</time></trkpt><trkpt lat="53.1967461" lon="-1.9107421"><ele>382.0</ele><time>2026-04-18T10:11:17.047Z</time></trkpt><trkpt lat="53.1967581" lon="-1.9106141"><ele>381.3333333333333</ele><time>2026-04-18T10:11:18.048Z</time></trkpt><trkpt lat="53.196767" lon="-1.910496"><ele>380.66666666666663</ele><time>2026-04-18T10:11:19.051Z</time></trkpt><trkpt lat="53.196775" lon="-1.910376"><ele>380.0</ele><time>2026-04-18T10:11:20.049Z</time></trkpt><trkpt lat="53.196784" lon="-1.9102461"><ele>379.3333333333333</ele><time>2026-04-18T10:11:21.045Z</time></trkpt><trkpt lat="53.1967908" lon="-1.9101015"><ele>378.6666666666667</ele><time>2026-04-18T10:11:22.046Z</time></trkpt><trkpt lat="53.1968022" lon="-1.9099512"><ele>378.0</ele><time>2026-04-18T10:11:23.045Z</time></trkpt><trkpt lat="53.1968211" lon="-1.9098137"><ele>377.2857142857143</ele><time>2026-04-18T10:11:24.047Z</time></trkpt><trkpt lat="53.1968495" lon="-1.9097015"><ele>376.57142857142856</ele><time>2026-04-18T10:11:25.045Z</time></trkpt><trkpt lat="53.1968864" lon="-1.9096128"><ele>375.8571428571429</ele><time>2026-04-18T10:11:26.046Z</time></trkpt><trkpt lat="53.1969314" lon="-1.909535"><ele>375.1428571428571</ele><time>2026-04-18T10:11:27.046Z</time></trkpt><trkpt lat="53.1969839" lon="-1.9094537"><ele>374.42857142857144</ele><time>2026-04-18T10:11:28.045Z</time></trkpt><trkpt lat="53.1970425" lon="-1.9093717"><ele>373.7142857142857</ele><time>2026-04-18T10:11:29.046Z</time></trkpt><trkpt lat="53.1971019" lon="-1.9093078"><ele>373.0</ele><time>2026-04-18T10:11:30.049Z</time></trkpt><trkpt lat="53.1971586" lon="-1.9092571"><ele>371.8333333333333</ele><time>2026-04-18T10:11:31.051Z</time></trkpt><trkpt lat="53.1972666" lon="-1.9092214"><ele>370.66666666666663</ele><time>2026-04-18T10:11:33.048Z</time></trkpt><trkpt lat="53.1973536" lon="-1.909246"><ele>369.5</ele><time>2026-04-18T10:11:35.048Z</time></trkpt><trkpt lat="53.1974227" lon="-1.9093469"><ele>368.3333333333333</ele><time>2026-04-18T10:11:37.049Z</time></trkpt><trkpt lat="53.1974751" lon="-1.9094502"><ele>367.1666666666667</ele><time>2026-04-18T10:11:39.047Z</time></trkpt><trkpt lat="53.1975352" lon="-1.9093859"><ele>366.0</ele><time>2026-04-18T10:11:43.047Z</time></trkpt><trkpt lat="53.1975301" lon="-1.9091488"><ele>362.75</ele><time>2026-04-18T10:11:45.045Z</time></trkpt><trkpt lat="53.1975183" lon="-1.9089893"><ele>359.5</ele><time>2026-04-18T10:11:46.045Z</time></trkpt><trkpt lat="53.1975047" lon="-1.9087986"><ele>356.25</ele><time>2026-04-18T10:11:47.046Z</time></trkpt><trkpt lat="53.1974927" lon="-1.9085857"><ele>353.0</ele><time>2026-04-18T10:11:48.044Z</time></trkpt><trkpt lat="53.1974818" lon="-1.9083699"><ele>351.25</ele><time>2026-04-18T10:11:49.045Z</time></trkpt><trkpt lat="53.197472" lon="-1.9081551"><ele>349.5</ele><time>2026-04-18T10:11:50.044Z</time></trkpt><trkpt lat="53.1974651" lon="-1.907947"><ele>347.75</ele><time>2026-04-18T10:11:51.045Z</time></trkpt><trkpt lat="53.1974629" lon="-1.907736"><ele>346.0</ele><time>2026-04-18T10:11:52.047Z</time></trkpt><trkpt lat="53.1974525" lon="-1.9075215"><ele>343.75</ele><time>2026-04-18T10:11:53.041Z</time></trkpt><trkpt lat="53.1974334" lon="-1.9073081"><ele>341.5</ele><time>2026-04-18T10:11:54.042Z</time></trkpt><trkpt lat="53.197399" lon="-1.9071075"><ele>339.25</ele><time>2026-04-18T10:11:55.043Z</time></trkpt><trkpt lat="53.1973534" lon="-1.9069194"><ele>337.0</ele><time>2026-04-18T10:11:56.045Z</time></trkpt><trkpt lat="53.1972981" lon="-1.9067274"><ele>337.0</ele><time>2026-04-18T10:11:57.044Z</time></trkpt><trkpt lat="53.197234" lon="-1.9065463"><ele>337.0</ele><time>2026-04-18T10:11:58.042Z</time></trkpt><trkpt lat="53.1971545" lon="-1.9063711"><ele>337.0</ele><time>2026-04-18T10:11:59.042Z</time></trkpt><trkpt lat="53.1970679" lon="-1.9062088"><ele>337.0</ele><time>2026-04-18T10:12:00.043Z</time></trkpt><trkpt lat="53.1969886" lon="-1.9060571"><ele>337.0</ele><time>2026-04-18T10:12:01.046Z</time></trkpt><trkpt lat="53.1969139" lon="-1.9059165"><ele>337.0</ele><time>2026-04-18T10:12:02.047Z</time></trkpt><trkpt lat="53.1968474" lon="-1.9057748"><ele>337.0</ele><time>2026-04-18T10:12:03.042Z</time></trkpt><trkpt lat="53.1967931" lon="-1.9056268"><ele>337.0</ele><time>2026-04-18T10:12:04.042Z</time></trkpt><trkpt lat="53.1967438" lon="-1.9054787"><ele>337.0</ele><time>2026-04-18T10:12:05.044Z</time></trkpt><trkpt lat="53.1966927" lon="-1.9053307"><ele>333.8</ele><time>2026-04-18T10:12:06.045Z</time></trkpt><trkpt lat="53.1966396" lon="-1.9051775"><ele>330.6</ele><time>2026-04-18T10:12:07.045Z</time></trkpt><trkpt lat="53.196575" lon="-1.9050248"><ele>327.40000000000003</ele><time>2026-04-18T10:12:08.046Z</time></trkpt><trkpt lat="53.1965034" lon="-1.9048749"><ele>324.20000000000005</ele><time>2026-04-18T10:12:09.045Z</time></trkpt><trkpt lat="53.1964329" lon="-1.9047391"><ele>321.0</ele><time>2026-04-18T10:12:10.046Z</time></trkpt><trkpt lat="53.1963648" lon="-1.9046234"><ele>319.3333333333333</ele><time>2026-04-18T10:12:11.041Z</time></trkpt><trkpt lat="53.1962946" lon="-1.9045313"><ele>317.6666666666667</ele><time>2026-04-18T10:12:12.043Z</time></trkpt><trkpt lat="53.1962242" lon="-1.9044563"><ele>316.0</ele><time>2026-04-18T10:12:13.043Z</time></trkpt><trkpt lat="53.1961589" lon="-1.9043868"><ele>314.33333333333337</ele><time>2026-04-18T10:12:14.042Z</time></trkpt><trkpt lat="53.1961007" lon="-1.9043199"><ele>312.6666666666667</ele><time>2026-04-18T10:12:15.041Z</time></trkpt><trkpt lat="53.1960458" lon="-1.9042543"><ele>311.0</ele><time>2026-04-18T10:12:16.042Z</time></trkpt><trkpt lat="53.1959924" lon="-1.9041813"><ele>310.0</ele><time>2026-04-18T10:12:17.041Z</time></trkpt><trkpt lat="53.195944" lon="-1.9040943"><ele>309.0</ele><time>2026-04-18T10:12:18.042Z</time></trkpt><trkpt lat="53.1959071" lon="-1.9039936"><ele>308.0</ele><time>2026-04-18T10:12:19.043Z</time></trkpt><trkpt lat="53.1958874" lon="-1.9038797"><ele>307.0</ele><time>2026-04-18T10:12:20.044Z</time></trkpt><trkpt lat="53.1958883" lon="-1.9037527"><ele>306.0</ele><time>2026-04-18T10:12:21.044Z</time></trkpt><trkpt lat="53.1959039" lon="-1.9036298"><ele>305.0</ele><time>2026-04-18T10:12:22.046Z</time></trkpt><trkpt lat="53.1959259" lon="-1.903512"><ele>304.0</ele><time>2026-04-18T10:12:23.046Z</time></trkpt><trkpt lat="53.1959458" lon="-1.9033868"><ele>303.3333333333333</ele><time>2026-04-18T10:12:24.044Z</time></trkpt><trkpt lat="53.1959626" lon="-1.9032568"><ele>302.66666666666663</ele><time>2026-04-18T10:12:25.044Z</time></trkpt><trkpt lat="53.1959735" lon="-1.9031266"><ele>302.0</ele><time>2026-04-18T10:12:26.044Z</time></trkpt><trkpt lat="53.1959874" lon="-1.9029919"><ele>301.3333333333333</ele><time>2026-04-18T10:12:27.041Z</time></trkpt><trkpt lat="53.1960073" lon="-1.9028612"><ele>300.6666666666667</ele><time>2026-04-18T10:12:28.046Z</time></trkpt><trkpt lat="53.1960336" lon="-1.9027302"><ele>300.0</ele><time>2026-04-18T10:12:29.042Z</time></trkpt><trkpt lat="53.1960564" lon="-1.9025879"><ele>299.5</ele><time>2026-04-18T10:12:30.044Z</time></trkpt><trkpt lat="53.1960741" lon="-1.9024297"><ele>299.0</ele><time>2026-04-18T10:12:31.044Z</time></trkpt><trkpt lat="53.1960899" lon="-1.9022499"><ele>298.5</ele><time>2026-04-18T10:12:32.043Z</time></trkpt><trkpt lat="53.1961029" lon="-1.902038"><ele>298.0</ele><time>2026-04-18T10:12:33.047Z</time></trkpt><trkpt lat="53.1961211" lon="-1.9018187"><ele>297.0</ele><time>2026-04-18T10:12:34.044Z</time></trkpt><trkpt lat="53.1961453" lon="-1.9016168"><ele>296.0</ele><time>2026-04-18T10:12:35.048Z</time></trkpt><trkpt lat="53.1961685" lon="-1.9014234"><ele>295.0</ele><time>2026-04-18T10:12:36.046Z</time></trkpt><trkpt lat="53.1961868" lon="-1.9012362"><ele>294.0</ele><time>2026-04-18T10:12:37.047Z</time></trkpt><trkpt lat="53.1961967" lon="-1.9010578"><ele>293.25</ele><time>2026-04-18T10:12:38.047Z</time></trkpt><trkpt lat="53.1962014" lon="-1.9008775"><ele>292.5</ele><time>2026-04-18T10:12:39.047Z</time></trkpt><trkpt lat="53.1962031" lon="-1.9006959"><ele>291.75</ele><time>2026-04-18T10:12:40.047Z</time></trkpt><trkpt lat="53.1962074" lon="-1.9005025"><ele>291.0</ele><time>2026-04-18T10:12:41.045Z</time></trkpt><trkpt lat="53.196213" lon="-1.9002951"><ele>291.0</ele><time>2026-04-18T10:12:42.045Z</time></trkpt><trkpt lat="53.1962249" lon="-1.9000841"><ele>291.0</ele><time>2026-04-18T10:12:43.042Z</time></trkpt><trkpt lat="53.1962516" lon="-1.8998926"><ele>291.0</ele><time>2026-04-18T10:12:44.046Z</time></trkpt><trkpt lat="53.1962984" lon="-1.8997217"><ele>291.0</ele><time>2026-04-18T10:12:45.04Z</time></trkpt><trkpt lat="53.1963655" lon="-1.8995717"><ele>290.40000000000003</ele><time>2026-04-18T10:12:46.047Z</time></trkpt><trkpt lat="53.1964459" lon="-1.8994276"><ele>289.8</ele><time>2026-04-18T10:12:47.045Z</time></trkpt><trkpt lat="53.196521" lon="-1.8992854"><ele>289.20000000000005</ele><time>2026-04-18T10:12:48.045Z</time></trkpt><trkpt lat="53.1965842" lon="-1.8991484"><ele>288.6</ele><time>2026-04-18T10:12:49.045Z</time></trkpt><trkpt lat="53.1966364" lon="-1.8990168"><ele>288.0</ele><time>2026-04-18T10:12:50.049Z</time></trkpt><trkpt lat="53.1966815" lon="-1.8989085"><ele>287.5</ele><time>2026-04-18T10:12:51.047Z</time></trkpt><trkpt lat="53.1967434" lon="-1.8987949"><ele>287.0</ele><time>2026-04-18T10:12:53.047Z</time></trkpt><trkpt lat="53.196811" lon="-1.8988055"><ele>286.5</ele><time>2026-04-18T10:12:56.047Z</time></trkpt><trkpt lat="53.1968846" lon="-1.8987825"><ele>286.0</ele><time>2026-04-18T10:12:59.049Z</time></trkpt><trkpt lat="53.1969794" lon="-1.8987178"><ele>285.5</ele><time>2026-04-18T10:13:02.049Z</time></trkpt><trkpt lat="53.1970776" lon="-1.8986426"><ele>285.0</ele><time>2026-04-18T10:13:04.05Z</time></trkpt><trkpt lat="53.1971446" lon="-1.8985946"><ele>285.0</ele><time>2026-04-18T10:13:05.049Z</time></trkpt><trkpt lat="53.1972245" lon="-1.8985393"><ele>285.0</ele><time>2026-04-18T10:13:06.051Z</time></trkpt><trkpt lat="53.1973136" lon="-1.8984809"><ele>285.0</ele><time>2026-04-18T10:13:07.05Z</time></trkpt><trkpt lat="53.1974064" lon="-1.8984144"><ele>285.0</ele><time>2026-04-18T10:13:08.051Z</time></trkpt><trkpt lat="53.1974994" lon="-1.8983268"><ele>285.0</ele><time>2026-04-18T10:13:09.049Z</time></trkpt><trkpt lat="53.1975945" lon="-1.89821"><ele>284.25</ele><time>2026-04-18T10:13:10.052Z</time></trkpt><trkpt lat="53.19769" lon="-1.898063"><ele>283.5</ele><time>2026-04-18T10:13:11.049Z</time></trkpt><trkpt lat="53.1977799" lon="-1.8978981"><ele>282.75</ele><time>2026-04-18T10:13:12.042Z</time></trkpt><trkpt lat="53.1978651" lon="-1.8977272"><ele>282.0</ele><time>2026-04-18T10:13:13.048Z</time></trkpt><trkpt lat="53.1979448" lon="-1.8975645"><ele>282.0</ele><time>2026-04-18T10:13:14.047Z</time></trkpt><trkpt lat="53.1980219" lon="-1.8974056"><ele>282.0</ele><time>2026-04-18T10:13:15.048Z</time></trkpt><trkpt lat="53.1980907" lon="-1.8972443"><ele>282.0</ele><time>2026-04-18T10:13:16.047Z</time></trkpt><trkpt lat="53.1981492" lon="-1.8970796"><ele>282.0</ele><time>2026-04-18T10:13:17.042Z</time></trkpt><trkpt lat="53.1981978" lon="-1.8969105"><ele>281.4</ele><time>2026-04-18T10:13:18.047Z</time></trkpt><trkpt lat="53.1982411" lon="-1.896743"><ele>280.79999999999995</ele><time>2026-04-18T10:13:19.047Z</time></trkpt><trkpt lat="53.1982816" lon="-1.8965844"><ele>280.2</ele><time>2026-04-18T10:13:20.047Z</time></trkpt><trkpt lat="53.1983284" lon="-1.8964449"><ele>279.59999999999997</ele><time>2026-04-18T10:13:21.045Z</time></trkpt><trkpt lat="53.1983906" lon="-1.8963442"><ele>279.0</ele><time>2026-04-18T10:13:22.047Z</time></trkpt><trkpt lat="53.1984661" lon="-1.8962784"><ele>279.0</ele><time>2026-04-18T10:13:23.051Z</time></trkpt><trkpt lat="53.1985477" lon="-1.8962273"><ele>279.0</ele><time>2026-04-18T10:13:24.045Z</time></trkpt><trkpt lat="53.1986278" lon="-1.8961677"><ele>279.0</ele><time>2026-04-18T10:13:25.046Z</time></trkpt><trkpt lat="53.1987036" lon="-1.8960809"><ele>279.0</ele><time>2026-04-18T10:13:26.044Z</time></trkpt><trkpt lat="53.1987746" lon="-1.8959824"><ele>279.0</ele><time>2026-04-18T10:13:27.045Z</time></trkpt><trkpt lat="53.1988389" lon="-1.8958853"><ele>279.0</ele><time>2026-04-18T10:13:28.045Z</time></trkpt><trkpt lat="53.1988984" lon="-1.8957941"><ele>278.8333333333333</ele><time>2026-04-18T10:13:29.044Z</time></trkpt><trkpt lat="53.1989525" lon="-1.8957116"><ele>278.6666666666667</ele><time>2026-04-18T10:13:30.045Z</time></trkpt><trkpt lat="53.1990014" lon="-1.8956398"><ele>278.5</ele><time>2026-04-18T10:13:31.046Z</time></trkpt><trkpt lat="53.1990829" lon="-1.8955455"><ele>278.33333333333337</ele><time>2026-04-18T10:13:33.05Z</time></trkpt><trkpt lat="53.1991401" lon="-1.8954842"><ele>278.1666666666667</ele><time>2026-04-18T10:13:35.047Z</time></trkpt><trkpt lat="53.1991798" lon="-1.8953243"><ele>278.0</ele><time>2026-04-18T10:13:37.046Z</time></trkpt><trkpt lat="53.1991813" lon="-1.8951763"><ele>277.4</ele><time>2026-04-18T10:13:38.048Z</time></trkpt><trkpt lat="53.1991684" lon="-1.8949939"><ele>276.8</ele><time>2026-04-18T10:13:39.047Z</time></trkpt><trkpt lat="53.1991466" lon="-1.894806"><ele>276.2</ele><time>2026-04-18T10:13:40.049Z</time></trkpt><trkpt lat="53.1991211" lon="-1.8946427"><ele>275.6</ele><time>2026-04-18T10:13:41.042Z</time></trkpt><trkpt lat="53.1990975" lon="-1.8944907"><ele>275.0</ele><time>2026-04-18T10:13:42.042Z</time></trkpt><trkpt lat="53.1990686" lon="-1.8943296"><ele>275.25</ele><time>2026-04-18T10:13:43.05Z</time></trkpt><trkpt lat="53.199024" lon="-1.8941583"><ele>275.5</ele><time>2026-04-18T10:13:44.046Z</time></trkpt><trkpt lat="53.1989678" lon="-1.8939876"><ele>275.75</ele><time>2026-04-18T10:13:45.044Z</time></trkpt><trkpt lat="53.1989137" lon="-1.8938105"><ele>276.0</ele><time>2026-04-18T10:13:46.045Z</time></trkpt><trkpt lat="53.1988759" lon="-1.893628"><ele>276.1666666666667</ele><time>2026-04-18T10:13:47.045Z</time></trkpt><trkpt lat="53.1988641" lon="-1.8934628"><ele>276.3333333333333</ele><time>2026-04-18T10:13:48.046Z</time></trkpt><trkpt lat="53.1988776" lon="-1.8933254"><ele>276.5</ele><time>2026-04-18T10:13:49.046Z</time></trkpt><trkpt lat="53.1988981" lon="-1.89322"><ele>276.66666666666663</ele><time>2026-04-18T10:13:50.047Z</time></trkpt><trkpt lat="53.1989209" lon="-1.8930956"><ele>276.8333333333333</ele><time>2026-04-18T10:13:52.047Z</time></trkpt><trkpt lat="53.1989059" lon="-1.8929678"><ele>277.0</ele><time>2026-04-18T10:14:18.048Z</time></trkpt><trkpt lat="53.1988729" lon="-1.8928036"><ele>277.0</ele><time>2026-04-18T10:25:36.052Z</time></trkpt><trkpt lat="53.19885" lon="-1.8926768"><ele>277.0</ele><time>2026-04-18T10:25:37.051Z</time></trkpt><trkpt lat="53.1988148" lon="-1.8925107"><ele>277.0</ele><time>2026-04-18T10:25:38.052Z</time></trkpt><trkpt lat="53.1987793" lon="-1.89233"><ele>277.0</ele><time>2026-04-18T10:25:39.051Z</time></trkpt><trkpt lat="53.1987498" lon="-1.8921492"><ele>277.0</ele><time>2026-04-18T10:25:40.057Z</time></trkpt><trkpt lat="53.198739" lon="-1.8919522"><ele>276.6</ele><time>2026-04-18T10:25:41.047Z</time></trkpt><trkpt lat="53.1987469" lon="-1.891749"><ele>276.2</ele><time>2026-04-18T10:25:42.05Z</time></trkpt><trkpt lat="53.1987688" lon="-1.8915575"><ele>275.8</ele><time>2026-04-18T10:25:43.056Z</time></trkpt><trkpt lat="53.198794" lon="-1.8913846"><ele>275.4</ele><time>2026-04-18T10:25:44.05Z</time></trkpt><trkpt lat="53.1988206" lon="-1.8912291"><ele>275.0</ele><time>2026-04-18T10:25:45.049Z</time></trkpt><trkpt lat="53.1988589" lon="-1.8910791"><ele>275.0</ele><time>2026-04-18T10:25:46.05Z</time></trkpt><trkpt lat="53.1989067" lon="-1.8909168"><ele>275.0</ele><time>2026-04-18T10:25:47.051Z</time></trkpt><trkpt lat="53.1989485" lon="-1.8907463"><ele>275.0</ele><time>2026-04-18T10:25:48.051Z</time></trkpt><trkpt lat="53.198977" lon="-1.8905862"><ele>275.0</ele><time>2026-04-18T10:25:49.049Z</time></trkpt><trkpt lat="53.198997" lon="-1.8904456"><ele>275.0</ele><time>2026-04-18T10:25:50.049Z</time></trkpt><trkpt lat="53.1990069" lon="-1.8903222"><ele>275.0</ele><time>2026-04-18T10:25:51.047Z</time></trkpt><trkpt lat="53.1990042" lon="-1.8902115"><ele>275.0</ele><time>2026-04-18T10:25:52.05Z</time></trkpt><trkpt lat="53.1989921" lon="-1.8900989"><ele>275.0</ele><time>2026-04-18T10:25:53.055Z</time></trkpt><trkpt lat="53.1989666" lon="-1.889961"><ele>275.0</ele><time>2026-04-18T10:25:54.048Z</time></trkpt><trkpt lat="53.1989359" lon="-1.8898034"><ele>275.0</ele><time>2026-04-18T10:25:55.047Z</time></trkpt><trkpt lat="53.1989118" lon="-1.8896533"><ele>275.0</ele><time>2026-04-18T10:25:56.048Z</time></trkpt><trkpt lat="53.1988934" lon="-1.8895246"><ele>274.5</ele><time>2026-04-18T10:25:57.048Z</time></trkpt><trkpt lat="53.198875" lon="-1.8894193"><ele>274.0</ele><time>2026-04-18T10:25:58.047Z</time></trkpt><trkpt lat="53.1988615" lon="-1.8892557"><ele>273.5</ele><time>2026-04-18T10:26:00.045Z</time></trkpt><trkpt lat="53.1988661" lon="-1.8891323"><ele>273.0</ele><time>2026-04-18T10:26:02.046Z</time></trkpt><trkpt lat="53.1988796" lon="-1.8889789"><ele>272.5</ele><time>2026-04-18T10:26:04.046Z</time></trkpt><trkpt lat="53.1988867" lon="-1.8888588"><ele>272.0</ele><time>2026-04-18T10:26:05.047Z</time></trkpt><trkpt lat="53.1988852" lon="-1.8887052"><ele>271.75</ele><time>2026-04-18T10:26:06.05Z</time></trkpt><trkpt lat="53.1988834" lon="-1.8885226"><ele>271.5</ele><time>2026-04-18T10:26:07.051Z</time></trkpt><trkpt lat="53.1988878" lon="-1.8883159"><ele>271.25</ele><time>2026-04-18T10:26:08.05Z</time></trkpt><trkpt lat="53.1988903" lon="-1.8880976"><ele>271.0</ele><time>2026-04-18T10:26:09.05Z</time></trkpt><trkpt lat="53.1988858" lon="-1.8879004"><ele>271.0</ele><time>2026-04-18T10:26:10.052Z</time></trkpt><trkpt lat="53.1988733" lon="-1.8877491"><ele>271.0</ele><time>2026-04-18T10:26:11.048Z</time></trkpt><trkpt lat="53.1988584" lon="-1.8876397"><ele>271.0</ele><time>2026-04-18T10:26:12.048Z</time></trkpt><trkpt lat="53.1988542" lon="-1.8874322"><ele>271.0</ele><time>2026-04-18T10:26:14.048Z</time></trkpt><trkpt lat="53.198867" lon="-1.8872956"><ele>271.0</ele><time>2026-04-18T10:26:15.05Z</time></trkpt><trkpt lat="53.1988746" lon="-1.8871423"><ele>270.6</ele><time>2026-04-18T10:26:16.05Z</time></trkpt><trkpt lat="53.1988718" lon="-1.8870058"><ele>270.20000000000005</ele><time>2026-04-18T10:26:17.047Z</time></trkpt><trkpt lat="53.1988567" lon="-1.8868923"><ele>269.79999999999995</ele><time>2026-04-18T10:26:18.048Z</time></trkpt><trkpt lat="53.1988293" lon="-1.8866988"><ele>269.4</ele><time>2026-04-18T10:26:20.049Z</time></trkpt><trkpt lat="53.1988105" lon="-1.8865008"><ele>269.0</ele><time>2026-04-18T10:26:22.048Z</time></trkpt><trkpt lat="53.1988057" lon="-1.8863929"><ele>269.0</ele><time>2026-04-18T10:26:23.052Z</time></trkpt><trkpt lat="53.1988075" lon="-1.8862806"><ele>269.0</ele><time>2026-04-18T10:26:24.051Z</time></trkpt><trkpt lat="53.1988208" lon="-1.8861606"><ele>269.0</ele><time>2026-04-18T10:26:25.049Z</time></trkpt><trkpt lat="53.1988307" lon="-1.8860333"><ele>269.0</ele><time>2026-04-18T10:26:26.05Z</time></trkpt><trkpt lat="53.198828" lon="-1.8858974"><ele>269.0</ele><time>2026-04-18T10:26:27.049Z</time></trkpt><trkpt lat="53.1988086" lon="-1.8857532"><ele>269.0</ele><time>2026-04-18T10:26:28.048Z</time></trkpt><trkpt lat="53.1987731" lon="-1.8856108"><ele>269.2</ele><time>2026-04-18T10:26:29.048Z</time></trkpt><trkpt lat="53.1987201" lon="-1.8854748"><ele>269.4</ele><time>2026-04-18T10:26:30.049Z</time></trkpt><trkpt lat="53.1986627" lon="-1.8853379"><ele>269.6</ele><time>2026-04-18T10:26:31.05Z</time></trkpt><trkpt lat="53.198598" lon="-1.8851986"><ele>269.8</ele><time>2026-04-18T10:26:32.049Z</time></trkpt><trkpt lat="53.1985331" lon="-1.8850621"><ele>270.0</ele><time>2026-04-18T10:26:33.054Z</time></trkpt><trkpt lat="53.1984774" lon="-1.8849366"><ele>270.3333333333333</ele><time>2026-04-18T10:26:34.049Z</time></trkpt><trkpt lat="53.1984356" lon="-1.8848224"><ele>270.6666666666667</ele><time>2026-04-18T10:26:35.049Z</time></trkpt><trkpt lat="53.1984102" lon="-1.8847134"><ele>271.0</ele><time>2026-04-18T10:26:36.05Z</time></trkpt><trkpt lat="53.1983866" lon="-1.8846048"><ele>271.33333333333337</ele><time>2026-04-18T10:26:37.048Z</time></trkpt><trkpt lat="53.198357" lon="-1.8844838"><ele>271.6666666666667</ele><time>2026-04-18T10:26:38.047Z</time></trkpt><trkpt lat="53.1983069" lon="-1.8843405"><ele>272.0</ele><time>2026-04-18T10:26:39.049Z</time></trkpt><trkpt lat="53.1982354" lon="-1.8841694"><ele>271.0</ele><time>2026-04-18T10:26:40.051Z</time></trkpt><trkpt lat="53.1981568" lon="-1.8839843"><ele>270.0</ele><time>2026-04-18T10:26:41.048Z</time></trkpt><trkpt lat="53.1980837" lon="-1.8837967"><ele>269.0</ele><time>2026-04-18T10:26:42.047Z</time></trkpt><trkpt lat="53.1980161" lon="-1.8836055"><ele>268.0</ele><time>2026-04-18T10:26:43.053Z</time></trkpt><trkpt lat="53.1979521" lon="-1.8834065"><ele>268.0</ele><time>2026-04-18T10:26:44.042Z</time></trkpt><trkpt lat="53.1978875" lon="-1.8832045"><ele>268.0</ele><time>2026-04-18T10:26:45.049Z</time></trkpt><trkpt lat="53.1978171" lon="-1.8829959"><ele>268.0</ele><time>2026-04-18T10:26:46.049Z</time></trkpt><trkpt lat="53.1977374" lon="-1.8827779"><ele>268.0</ele><time>2026-04-18T10:26:47.048Z</time></trkpt><trkpt lat="53.1976546" lon="-1.8825535"><ele>269.0</ele><time>2026-04-18T10:26:48.048Z</time></trkpt><trkpt lat="53.1975635" lon="-1.8823238"><ele>270.0</ele><time>2026-04-18T10:26:49.048Z</time></trkpt><trkpt lat="53.197474" lon="-1.8820904"><ele>271.0</ele><time>2026-04-18T10:26:50.048Z</time></trkpt><trkpt lat="53.1973942" lon="-1.8818602"><ele>269.25</ele><time>2026-04-18T10:26:51.048Z</time></trkpt><trkpt lat="53.1973257" lon="-1.881639"><ele>267.5</ele><time>2026-04-18T10:26:52.049Z</time></trkpt><trkpt lat="53.1972665" lon="-1.8814196"><ele>265.75</ele><time>2026-04-18T10:26:53.052Z</time></trkpt><trkpt lat="53.1972142" lon="-1.8812047"><ele>264.0</ele><time>2026-04-18T10:26:54.047Z</time></trkpt><trkpt lat="53.1971688" lon="-1.8810014"><ele>264.2</ele><time>2026-04-18T10:26:55.047Z</time></trkpt><trkpt lat="53.1971302" lon="-1.8808142"><ele>264.4</ele><time>2026-04-18T10:26:56.048Z</time></trkpt><trkpt lat="53.1970994" lon="-1.8806422"><ele>264.6</ele><time>2026-04-18T10:26:57.049Z</time></trkpt><trkpt lat="53.1970711" lon="-1.8804799"><ele>264.8</ele><time>2026-04-18T10:26:58.049Z</time></trkpt><trkpt lat="53.1970394" lon="-1.8803344"><ele>265.0</ele><time>2026-04-18T10:26:59.048Z</time></trkpt><trkpt lat="53.1970075" lon="-1.8802012"><ele>265.0</ele><time>2026-04-18T10:27:00.049Z</time></trkpt><trkpt lat="53.1969717" lon="-1.8800614"><ele>265.0</ele><time>2026-04-18T10:27:01.049Z</time></trkpt><trkpt lat="53.1969382" lon="-1.8799147"><ele>265.0</ele><time>2026-04-18T10:27:02.051Z</time></trkpt><trkpt lat="53.1969024" lon="-1.87975"><ele>265.0</ele><time>2026-04-18T10:27:03.054Z</time></trkpt><trkpt lat="53.1968636" lon="-1.8795611"><ele>265.0</ele><time>2026-04-18T10:27:04.049Z</time></trkpt><trkpt lat="53.1968219" lon="-1.8793386"><ele>265.25</ele><time>2026-04-18T10:27:05.05Z</time></trkpt><trkpt lat="53.1967752" lon="-1.8791148"><ele>265.5</ele><time>2026-04-18T10:27:06.05Z</time></trkpt><trkpt lat="53.1967256" lon="-1.8788974"><ele>265.75</ele><time>2026-04-18T10:27:07.05Z</time></trkpt><trkpt lat="53.1966732" lon="-1.878689"><ele>266.0</ele><time>2026-04-18T10:27:08.048Z</time></trkpt><trkpt lat="53.1966127" lon="-1.8784959"><ele>266.25</ele><time>2026-04-18T10:27:09.048Z</time></trkpt><trkpt lat="53.1965484" lon="-1.8783091"><ele>266.5</ele><time>2026-04-18T10:27:10.049Z</time></trkpt><trkpt lat="53.1964826" lon="-1.8781227"><ele>266.75</ele><time>2026-04-18T10:27:11.049Z</time></trkpt><trkpt lat="53.196412" lon="-1.8779391"><ele>267.0</ele><time>2026-04-18T10:27:12.05Z</time></trkpt><trkpt lat="53.1963361" lon="-1.8777584"><ele>266.5</ele><time>2026-04-18T10:27:13.054Z</time></trkpt><trkpt lat="53.1962556" lon="-1.8775798"><ele>266.0</ele><time>2026-04-18T10:27:14.05Z</time></trkpt><trkpt lat="53.1961725" lon="-1.8774143"><ele>265.5</ele><time>2026-04-18T10:27:15.049Z</time></trkpt><trkpt lat="53.1960929" lon="-1.8772682"><ele>265.0</ele><time>2026-04-18T10:27:16.049Z</time></trkpt><trkpt lat="53.1960224" lon="-1.8771444"><ele>265.0</ele><time>2026-04-18T10:27:17.048Z</time></trkpt><trkpt lat="53.1959655" lon="-1.8770411"><ele>265.0</ele><time>2026-04-18T10:27:18.049Z</time></trkpt><trkpt lat="53.1959227" lon="-1.8769452"><ele>265.0</ele><time>2026-04-18T10:27:19.049Z</time></trkpt><trkpt lat="53.1958918" lon="-1.8767666"><ele>265.0</ele><time>2026-04-18T10:27:21.047Z</time></trkpt><trkpt lat="53.1959407" lon="-1.8766209"><ele>265.0</ele><time>2026-04-18T10:27:23.051Z</time></trkpt><trkpt lat="53.1960689" lon="-1.8765245"><ele>264.5</ele><time>2026-04-18T10:27:25.049Z</time></trkpt><trkpt lat="53.196161" lon="-1.8764877"><ele>264.0</ele><time>2026-04-18T10:27:26.049Z</time></trkpt><trkpt lat="53.1962632" lon="-1.8764089"><ele>263.5</ele><time>2026-04-18T10:27:27.046Z</time></trkpt><trkpt lat="53.1963668" lon="-1.8762608"><ele>263.0</ele><time>2026-04-18T10:27:28.05Z</time></trkpt><trkpt lat="53.1964573" lon="-1.876086"><ele>263.75</ele><time>2026-04-18T10:27:29.05Z</time></trkpt><trkpt lat="53.1965432" lon="-1.8759082"><ele>264.5</ele><time>2026-04-18T10:27:30.051Z</time></trkpt><trkpt lat="53.1966315" lon="-1.8757504"><ele>265.25</ele><time>2026-04-18T10:27:31.048Z</time></trkpt><trkpt lat="53.196722" lon="-1.8756218"><ele>266.0</ele><time>2026-04-18T10:27:32.048Z</time></trkpt><trkpt lat="53.1968211" lon="-1.8755209"><ele>266.0</ele><time>2026-04-18T10:27:33.052Z</time></trkpt><trkpt lat="53.1969278" lon="-1.8754503"><ele>266.0</ele><time>2026-04-18T10:27:34.049Z</time></trkpt><trkpt lat="53.1970457" lon="-1.8754004"><ele>266.0</ele><time>2026-04-18T10:27:35.049Z</time></trkpt><trkpt lat="53.1971748" lon="-1.8753676"><ele>266.0</ele><time>2026-04-18T10:27:36.051Z</time></trkpt><trkpt lat="53.1973121" lon="-1.8753417"><ele>266.6666666666667</ele><time>2026-04-18T10:27:37.048Z</time></trkpt><trkpt lat="53.1974577" lon="-1.8753163"><ele>267.3333333333333</ele><time>2026-04-18T10:27:38.048Z</time></trkpt><trkpt lat="53.1976135" lon="-1.8752886"><ele>268.0</ele><time>2026-04-18T10:27:39.048Z</time></trkpt><trkpt lat="53.1977749" lon="-1.8752571"><ele>268.0</ele><time>2026-04-18T10:27:40.049Z</time></trkpt><trkpt lat="53.1979427" lon="-1.8752151"><ele>268.0</ele><time>2026-04-18T10:27:41.049Z</time></trkpt><trkpt lat="53.1981171" lon="-1.8751581"><ele>268.0</ele><time>2026-04-18T10:27:42.048Z</time></trkpt><trkpt lat="53.198294" lon="-1.8750914"><ele>270.66666666666663</ele><time>2026-04-18T10:27:43.051Z</time></trkpt><trkpt lat="53.198472" lon="-1.8750125"><ele>273.3333333333333</ele><time>2026-04-18T10:27:44.049Z</time></trkpt><trkpt lat="53.1986521" lon="-1.8749284"><ele>276.0</ele><time>2026-04-18T10:27:45.049Z</time></trkpt><trkpt lat="53.1988324" lon="-1.8748462"><ele>275.6666666666667</ele><time>2026-04-18T10:27:46.049Z</time></trkpt><trkpt lat="53.1990091" lon="-1.8747687"><ele>275.33333333333337</ele><time>2026-04-18T10:27:47.048Z</time></trkpt><trkpt lat="53.1991735" lon="-1.8747123"><ele>275.0</ele><time>2026-04-18T10:27:48.047Z</time></trkpt><trkpt lat="53.1993316" lon="-1.8746658"><ele>275.0</ele><time>2026-04-18T10:27:49.049Z</time></trkpt><trkpt lat="53.1994887" lon="-1.8746223"><ele>275.0</ele><time>2026-04-18T10:27:50.048Z</time></trkpt><trkpt lat="53.1996451" lon="-1.8745912"><ele>275.0</ele><time>2026-04-18T10:27:51.048Z</time></trkpt><trkpt lat="53.1998017" lon="-1.8745887"><ele>275.5</ele><time>2026-04-18T10:27:52.048Z</time></trkpt><trkpt lat="53.1999555" lon="-1.8746188"><ele>276.0</ele><time>2026-04-18T10:27:53.051Z</time></trkpt><trkpt lat="53.2000973" lon="-1.8746484"><ele>276.5</ele><time>2026-04-18T10:27:54.049Z</time></trkpt><trkpt lat="53.2002196" lon="-1.8746721"><ele>277.0</ele><time>2026-04-18T10:27:55.049Z</time></trkpt><trkpt lat="53.2003242" lon="-1.8746813"><ele>277.0</ele><time>2026-04-18T10:27:56.049Z</time></trkpt><trkpt lat="53.2004179" lon="-1.8746641"><ele>277.0</ele><time>2026-04-18T10:27:57.048Z</time></trkpt><trkpt lat="53.2005141" lon="-1.8745824"><ele>277.0</ele><time>2026-04-18T10:27:58.048Z</time></trkpt><trkpt lat="53.2006047" lon="-1.8744353"><ele>277.0</ele><time>2026-04-18T10:27:59.048Z</time></trkpt><trkpt lat="53.2006964" lon="-1.8742536"><ele>283.3333333333333</ele><time>2026-04-18T10:28:00.049Z</time></trkpt><trkpt lat="53.2008031" lon="-1.8740596"><ele>289.6666666666667</ele><time>2026-04-18T10:28:01.047Z</time></trkpt><trkpt lat="53.2009344" lon="-1.8738434"><ele>296.0</ele><time>2026-04-18T10:28:02.047Z</time></trkpt><trkpt lat="53.2010926" lon="-1.8736111"><ele>299.6666666666667</ele><time>2026-04-18T10:28:03.046Z</time></trkpt><trkpt lat="53.2012628" lon="-1.8733833"><ele>303.3333333333333</ele><time>2026-04-18T10:28:04.046Z</time></trkpt><trkpt lat="53.2014213" lon="-1.8731944"><ele>307.0</ele><time>2026-04-18T10:28:05.044Z</time></trkpt><trkpt lat="53.2015747" lon="-1.8730602"><ele>308.3333333333333</ele><time>2026-04-18T10:28:06.045Z</time></trkpt><trkpt lat="53.2017359" lon="-1.8729771"><ele>309.6666666666667</ele><time>2026-04-18T10:28:07.046Z</time></trkpt><trkpt lat="53.2019006" lon="-1.8729217"><ele>311.0</ele><time>2026-04-18T10:28:08.044Z</time></trkpt><trkpt lat="53.2020674" lon="-1.8728658"><ele>311.0</ele><time>2026-04-18T10:28:09.046Z</time></trkpt><trkpt lat="53.2022247" lon="-1.8727798"><ele>311.0</ele><time>2026-04-18T10:28:10.043Z</time></trkpt><trkpt lat="53.2023618" lon="-1.8726567"><ele>311.0</ele><time>2026-04-18T10:28:11.043Z</time></trkpt><trkpt lat="53.2024703" lon="-1.8725111"><ele>312.75</ele><time>2026-04-18T10:28:12.047Z</time></trkpt><trkpt lat="53.2025522" lon="-1.8723513"><ele>314.5</ele><time>2026-04-18T10:28:13.05Z</time></trkpt><trkpt lat="53.2026147" lon="-1.8721755"><ele>316.25</ele><time>2026-04-18T10:28:14.051Z</time></trkpt><trkpt lat="53.2026676" lon="-1.8719912"><ele>318.0</ele><time>2026-04-18T10:28:15.051Z</time></trkpt><trkpt lat="53.2027305" lon="-1.871831"><ele>318.6</ele><time>2026-04-18T10:28:16.053Z</time></trkpt><trkpt lat="53.2027982" lon="-1.8716761"><ele>319.20000000000005</ele><time>2026-04-18T10:28:17.049Z</time></trkpt><trkpt lat="53.2028504" lon="-1.8715318"><ele>319.8</ele><time>2026-04-18T10:28:18.048Z</time></trkpt><trkpt lat="53.2028856" lon="-1.871383"><ele>320.40000000000003</ele><time>2026-04-18T10:28:19.048Z</time></trkpt><trkpt lat="53.2029155" lon="-1.8712172"><ele>321.0</ele><time>2026-04-18T10:28:20.05Z</time></trkpt><trkpt lat="53.2029444" lon="-1.87103"><ele>321.5</ele><time>2026-04-18T10:28:21.05Z</time></trkpt><trkpt lat="53.2029801" lon="-1.8708221"><ele>322.0</ele><time>2026-04-18T10:28:22.05Z</time></trkpt><trkpt lat="53.2030276" lon="-1.8705954"><ele>322.5</ele><time>2026-04-18T10:28:23.052Z</time></trkpt><trkpt lat="53.2030843" lon="-1.8703569"><ele>323.0</ele><time>2026-04-18T10:28:24.048Z</time></trkpt><trkpt lat="53.2031493" lon="-1.8701134"><ele>321.33333333333337</ele><time>2026-04-18T10:28:25.049Z</time></trkpt><trkpt lat="53.203224" lon="-1.8698628"><ele>319.6666666666667</ele><time>2026-04-18T10:28:26.048Z</time></trkpt><trkpt lat="53.2033022" lon="-1.8696044"><ele>318.0</ele><time>2026-04-18T10:28:27.048Z</time></trkpt><trkpt lat="53.2033772" lon="-1.8693502"><ele>318.6666666666667</ele><time>2026-04-18T10:28:28.05Z</time></trkpt><trkpt lat="53.2034484" lon="-1.8691084"><ele>319.33333333333337</ele><time>2026-04-18T10:28:29.044Z</time></trkpt><trkpt lat="53.2035189" lon="-1.8688841"><ele>320.0</ele><time>2026-04-18T10:28:30.049Z</time></trkpt><trkpt lat="53.203599" lon="-1.868687"><ele>320.0</ele><time>2026-04-18T10:28:31.047Z</time></trkpt><trkpt lat="53.2036962" lon="-1.8685234"><ele>320.0</ele><time>2026-04-18T10:28:32.049Z</time></trkpt><trkpt lat="53.203813" lon="-1.8684042"><ele>320.0</ele><time>2026-04-18T10:28:33.049Z</time></trkpt><trkpt lat="53.2039466" lon="-1.8683394"><ele>320.0</ele><time>2026-04-18T10:28:34.048Z</time></trkpt><trkpt lat="53.2040918" lon="-1.8683472"><ele>322.33333333333337</ele><time>2026-04-18T10:28:35.046Z</time></trkpt><trkpt lat="53.2042478" lon="-1.8684212"><ele>324.6666666666667</ele><time>2026-04-18T10:28:36.046Z</time></trkpt><trkpt lat="53.2044083" lon="-1.8685216"><ele>327.0</ele><time>2026-04-18T10:28:37.047Z</time></trkpt><trkpt lat="53.2045784" lon="-1.8686376"><ele>327.0</ele><time>2026-04-18T10:28:38.046Z</time></trkpt><trkpt lat="53.2047401" lon="-1.8687677"><ele>327.0</ele><time>2026-04-18T10:28:39.047Z</time></trkpt><trkpt lat="53.2048825" lon="-1.8689033"><ele>327.0</ele><time>2026-04-18T10:28:40.049Z</time></trkpt><trkpt lat="53.2050082" lon="-1.8690372"><ele>328.25</ele><time>2026-04-18T10:28:41.046Z</time></trkpt><trkpt lat="53.2051286" lon="-1.8691486"><ele>329.5</ele><time>2026-04-18T10:28:42.046Z</time></trkpt><trkpt lat="53.205239" lon="-1.8692441"><ele>330.75</ele><time>2026-04-18T10:28:43.049Z</time></trkpt><trkpt lat="53.2053319" lon="-1.8693292"><ele>332.0</ele><time>2026-04-18T10:28:44.041Z</time></trkpt><trkpt lat="53.2054114" lon="-1.8694074"><ele>332.0</ele><time>2026-04-18T10:28:45.045Z</time></trkpt><trkpt lat="53.2054866" lon="-1.8694862"><ele>332.0</ele><time>2026-04-18T10:28:46.045Z</time></trkpt><trkpt lat="53.2055623" lon="-1.8695536"><ele>332.0</ele><time>2026-04-18T10:28:47.045Z</time></trkpt><trkpt lat="53.205632" lon="-1.8696167"><ele>332.0</ele><time>2026-04-18T10:28:48.046Z</time></trkpt><trkpt lat="53.2057028" lon="-1.8696779"><ele>332.0</ele><time>2026-04-18T10:28:49.047Z</time></trkpt><trkpt lat="53.205787" lon="-1.8697476"><ele>332.0</ele><time>2026-04-18T10:28:50.046Z</time></trkpt><trkpt lat="53.205883" lon="-1.8698354"><ele>331.75</ele><time>2026-04-18T10:28:51.047Z</time></trkpt><trkpt lat="53.2059925" lon="-1.8699176"><ele>331.5</ele><time>2026-04-18T10:28:52.045Z</time></trkpt><trkpt lat="53.2061044" lon="-1.8700018"><ele>331.25</ele><time>2026-04-18T10:28:53.049Z</time></trkpt><trkpt lat="53.2062174" lon="-1.8700931"><ele>331.0</ele><time>2026-04-18T10:28:54.043Z</time></trkpt><trkpt lat="53.2063366" lon="-1.8701795"><ele>331.0</ele><time>2026-04-18T10:28:55.048Z</time></trkpt><trkpt lat="53.2064622" lon="-1.8702566"><ele>331.0</ele><time>2026-04-18T10:28:56.046Z</time></trkpt><trkpt lat="53.2065987" lon="-1.8703123"><ele>331.0</ele><time>2026-04-18T10:28:57.049Z</time></trkpt><trkpt lat="53.2067376" lon="-1.8703617"><ele>331.0</ele><time>2026-04-18T10:28:58.049Z</time></trkpt><trkpt lat="53.2068749" lon="-1.8703987"><ele>332.75</ele><time>2026-04-18T10:28:59.049Z</time></trkpt><trkpt lat="53.2070112" lon="-1.8704277"><ele>334.5</ele><time>2026-04-18T10:29:00.05Z</time></trkpt><trkpt lat="53.2071442" lon="-1.8704506"><ele>336.25</ele><time>2026-04-18T10:29:01.046Z</time></trkpt><trkpt lat="53.2072738" lon="-1.8704659"><ele>338.0</ele><time>2026-04-18T10:29:02.048Z</time></trkpt><trkpt lat="53.2074035" lon="-1.8704807"><ele>339.75</ele><time>2026-04-18T10:29:03.051Z</time></trkpt><trkpt lat="53.2075311" lon="-1.8704907"><ele>341.5</ele><time>2026-04-18T10:29:04.047Z</time></trkpt><trkpt lat="53.2076577" lon="-1.8704893"><ele>343.25</ele><time>2026-04-18T10:29:05.045Z</time></trkpt><trkpt lat="53.2077837" lon="-1.8704804"><ele>345.0</ele><time>2026-04-18T10:29:06.045Z</time></trkpt><trkpt lat="53.2079099" lon="-1.8704717"><ele>345.0</ele><time>2026-04-18T10:29:07.045Z</time></trkpt><trkpt lat="53.2080372" lon="-1.8704653"><ele>345.0</ele><time>2026-04-18T10:29:08.043Z</time></trkpt><trkpt lat="53.2081654" lon="-1.8704636"><ele>345.0</ele><time>2026-04-18T10:29:09.048Z</time></trkpt><trkpt lat="53.2083057" lon="-1.870468"><ele>345.0</ele><time>2026-04-18T10:29:10.049Z</time></trkpt><trkpt lat="53.2084533" lon="-1.8704875"><ele>347.0</ele><time>2026-04-18T10:29:11.049Z</time></trkpt><trkpt lat="53.2086026" lon="-1.8705296"><ele>349.0</ele><time>2026-04-18T10:29:12.047Z</time></trkpt><trkpt lat="53.2087526" lon="-1.8705774"><ele>351.0</ele><time>2026-04-18T10:29:13.056Z</time></trkpt><trkpt lat="53.208903" lon="-1.8706244"><ele>352.75</ele><time>2026-04-18T10:29:14.048Z</time></trkpt><trkpt lat="53.2090458" lon="-1.8706678"><ele>354.5</ele><time>2026-04-18T10:29:15.047Z</time></trkpt><trkpt lat="53.2091775" lon="-1.8707202"><ele>356.25</ele><time>2026-04-18T10:29:16.048Z</time></trkpt><trkpt lat="53.2093053" lon="-1.8707795"><ele>358.0</ele><time>2026-04-18T10:29:17.048Z</time></trkpt><trkpt lat="53.2094324" lon="-1.8708295"><ele>358.0</ele><time>2026-04-18T10:29:18.048Z</time></trkpt><trkpt lat="53.2095611" lon="-1.8708712"><ele>358.0</ele><time>2026-04-18T10:29:19.048Z</time></trkpt><trkpt lat="53.2096937" lon="-1.8709088"><ele>358.0</ele><time>2026-04-18T10:29:20.048Z</time></trkpt><trkpt lat="53.2098303" lon="-1.8709508"><ele>358.0</ele><time>2026-04-18T10:29:21.047Z</time></trkpt><trkpt lat="53.2099664" lon="-1.8709994"><ele>358.5</ele><time>2026-04-18T10:29:22.047Z</time></trkpt><trkpt lat="53.210098" lon="-1.8710636"><ele>359.0</ele><time>2026-04-18T10:29:23.05Z</time></trkpt><trkpt lat="53.2102223" lon="-1.8711423"><ele>359.5</ele><time>2026-04-18T10:29:24.048Z</time></trkpt><trkpt lat="53.2103396" lon="-1.8712316"><ele>360.0</ele><time>2026-04-18T10:29:25.048Z</time></trkpt><trkpt lat="53.2104525" lon="-1.8713309"><ele>360.0</ele><time>2026-04-18T10:29:26.049Z</time></trkpt><trkpt lat="53.2105626" lon="-1.8714379"><ele>360.0</ele><time>2026-04-18T10:29:27.047Z</time></trkpt><trkpt lat="53.2106685" lon="-1.8715424"><ele>360.0</ele><time>2026-04-18T10:29:28.053Z</time></trkpt><trkpt lat="53.210761" lon="-1.8716394"><ele>360.0</ele><time>2026-04-18T10:29:29.049Z</time></trkpt><trkpt lat="53.2108468" lon="-1.8717219"><ele>361.5</ele><time>2026-04-18T10:29:30.048Z</time></trkpt><trkpt lat="53.2109343" lon="-1.8718019"><ele>363.0</ele><time>2026-04-18T10:29:31.049Z</time></trkpt><trkpt lat="53.2110311" lon="-1.8718853"><ele>364.5</ele><time>2026-04-18T10:29:32.049Z</time></trkpt><trkpt lat="53.2111398" lon="-1.8719652"><ele>366.0</ele><time>2026-04-18T10:29:33.056Z</time></trkpt><trkpt lat="53.2112637" lon="-1.8720444"><ele>366.0</ele><time>2026-04-18T10:29:34.047Z</time></trkpt><trkpt lat="53.2114002" lon="-1.8721227"><ele>366.0</ele><time>2026-04-18T10:29:35.047Z</time></trkpt><trkpt lat="53.2115403" lon="-1.8721959"><ele>366.0</ele><time>2026-04-18T10:29:36.049Z</time></trkpt><trkpt lat="53.2116769" lon="-1.8722614"><ele>366.0</ele><time>2026-04-18T10:29:37.05Z</time></trkpt><trkpt lat="53.2118129" lon="-1.8723218"><ele>368.25</ele><time>2026-04-18T10:29:38.049Z</time></trkpt><trkpt lat="53.2119432" lon="-1.8723745"><ele>370.5</ele><time>2026-04-18T10:29:39.048Z</time></trkpt><trkpt lat="53.2120566" lon="-1.8724206"><ele>372.75</ele><time>2026-04-18T10:29:40.049Z</time></trkpt><trkpt lat="53.2121606" lon="-1.8724595"><ele>375.0</ele><time>2026-04-18T10:29:41.046Z</time></trkpt><trkpt lat="53.2122552" lon="-1.8724926"><ele>375.6</ele><time>2026-04-18T10:29:42.047Z</time></trkpt><trkpt lat="53.2123407" lon="-1.8725267"><ele>376.2</ele><time>2026-04-18T10:29:43.055Z</time></trkpt><trkpt lat="53.2124269" lon="-1.872567"><ele>376.79999999999995</ele><time>2026-04-18T10:29:44.05Z</time></trkpt><trkpt lat="53.2125227" lon="-1.8726156"><ele>377.4</ele><time>2026-04-18T10:29:45.049Z</time></trkpt><trkpt lat="53.2126337" lon="-1.8726698"><ele>378.0</ele><time>2026-04-18T10:29:46.049Z</time></trkpt><trkpt lat="53.212758" lon="-1.8727254"><ele>378.0</ele><time>2026-04-18T10:29:47.048Z</time></trkpt><trkpt lat="53.2128895" lon="-1.8727822"><ele>378.0</ele><time>2026-04-18T10:29:48.05Z</time></trkpt><trkpt lat="53.2130228" lon="-1.872842"><ele>378.0</ele><time>2026-04-18T10:29:49.051Z</time></trkpt><trkpt lat="53.2131654" lon="-1.8729029"><ele>378.0</ele><time>2026-04-18T10:29:50.05Z</time></trkpt><trkpt lat="53.2133242" lon="-1.872968"><ele>380.66666666666663</ele><time>2026-04-18T10:29:51.049Z</time></trkpt><trkpt lat="53.2134995" lon="-1.8730326"><ele>383.3333333333333</ele><time>2026-04-18T10:29:52.043Z</time></trkpt><trkpt lat="53.2136741" lon="-1.8730867"><ele>386.0</ele><time>2026-04-18T10:29:53.056Z</time></trkpt><trkpt lat="53.2138288" lon="-1.8731295"><ele>386.0</ele><time>2026-04-18T10:29:54.052Z</time></trkpt><trkpt lat="53.2139658" lon="-1.8731645"><ele>386.0</ele><time>2026-04-18T10:29:55.05Z</time></trkpt><trkpt lat="53.2141017" lon="-1.873194"><ele>386.0</ele><time>2026-04-18T10:29:56.05Z</time></trkpt><trkpt lat="53.2142468" lon="-1.8732185"><ele>386.0</ele><time>2026-04-18T10:29:57.049Z</time></trkpt><trkpt lat="53.2144043" lon="-1.873232"><ele>388.3333333333333</ele><time>2026-04-18T10:29:58.05Z</time></trkpt><trkpt lat="53.2145714" lon="-1.8732299"><ele>390.66666666666663</ele><time>2026-04-18T10:29:59.051Z</time></trkpt><trkpt lat="53.2147396" lon="-1.8732073"><ele>393.0</ele><time>2026-04-18T10:30:00.051Z</time></trkpt><trkpt lat="53.2149007" lon="-1.8731688"><ele>394.75</ele><time>2026-04-18T10:30:01.045Z</time></trkpt><trkpt lat="53.2150446" lon="-1.8731217"><ele>396.5</ele><time>2026-04-18T10:30:02.045Z</time></trkpt><trkpt lat="53.2151789" lon="-1.8730758"><ele>398.25</ele><time>2026-04-18T10:30:03.049Z</time></trkpt><trkpt lat="53.2153056" lon="-1.8730297"><ele>400.0</ele><time>2026-04-18T10:30:04.045Z</time></trkpt><trkpt lat="53.215427" lon="-1.8729863"><ele>400.0</ele><time>2026-04-18T10:30:05.046Z</time></trkpt><trkpt lat="53.2155381" lon="-1.8729548"><ele>400.0</ele><time>2026-04-18T10:30:06.045Z</time></trkpt><trkpt lat="53.2156389" lon="-1.8729281"><ele>400.0</ele><time>2026-04-18T10:30:07.044Z</time></trkpt><trkpt lat="53.2157315" lon="-1.8728956"><ele>400.0</ele><time>2026-04-18T10:30:08.045Z</time></trkpt><trkpt lat="53.2158284" lon="-1.8728582"><ele>400.0</ele><time>2026-04-18T10:30:09.046Z</time></trkpt><trkpt lat="53.2159403" lon="-1.8728129"><ele>400.25</ele><time>2026-04-18T10:30:10.047Z</time></trkpt><trkpt lat="53.2160596" lon="-1.8727688"><ele>400.5</ele><time>2026-04-18T10:30:11.048Z</time></trkpt><trkpt lat="53.2161741" lon="-1.872733"><ele>400.75</ele><time>2026-04-18T10:30:12.049Z</time></trkpt><trkpt lat="53.2162828" lon="-1.8727028"><ele>401.0</ele><time>2026-04-18T10:30:13.056Z</time></trkpt><trkpt lat="53.2163947" lon="-1.8726773"><ele>399.5</ele><time>2026-04-18T10:30:14.051Z</time></trkpt><trkpt lat="53.2165147" lon="-1.8726533"><ele>398.0</ele><time>2026-04-18T10:30:15.049Z</time></trkpt><trkpt lat="53.2166427" lon="-1.872631"><ele>396.5</ele><time>2026-04-18T10:30:16.051Z</time></trkpt><trkpt lat="53.2167796" lon="-1.8726097"><ele>395.0</ele><time>2026-04-18T10:30:17.049Z</time></trkpt><trkpt lat="53.2169211" lon="-1.8725935"><ele>394.66666666666663</ele><time>2026-04-18T10:30:18.049Z</time></trkpt><trkpt lat="53.2170758" lon="-1.8725822"><ele>394.33333333333337</ele><time>2026-04-18T10:30:19.049Z</time></trkpt><trkpt lat="53.217255" lon="-1.8725713"><ele>394.0</ele><time>2026-04-18T10:30:20.051Z</time></trkpt><trkpt lat="53.2174576" lon="-1.8725622"><ele>389.0</ele><time>2026-04-18T10:30:21.049Z</time></trkpt><trkpt lat="53.2176631" lon="-1.8725596"><ele>384.0</ele><time>2026-04-18T10:30:22.049Z</time></trkpt><trkpt lat="53.2178557" lon="-1.8725561"><ele>379.0</ele><time>2026-04-18T10:30:23.052Z</time></trkpt><trkpt lat="53.2180431" lon="-1.8725469"><ele>377.3333333333333</ele><time>2026-04-18T10:30:24.043Z</time></trkpt><trkpt lat="53.2182295" lon="-1.8725454"><ele>375.6666666666667</ele><time>2026-04-18T10:30:25.049Z</time></trkpt><trkpt lat="53.2184106" lon="-1.872545"><ele>374.0</ele><time>2026-04-18T10:30:26.051Z</time></trkpt><trkpt lat="53.2185886" lon="-1.8725412"><ele>374.0</ele><time>2026-04-18T10:30:27.05Z</time></trkpt><trkpt lat="53.2187604" lon="-1.8725298"><ele>374.0</ele><time>2026-04-18T10:30:28.049Z</time></trkpt><trkpt lat="53.2189342" lon="-1.8725182"><ele>374.0</ele><time>2026-04-18T10:30:29.048Z</time></trkpt><trkpt lat="53.2191041" lon="-1.8725115"><ele>372.6666666666667</ele><time>2026-04-18T10:30:30.05Z</time></trkpt><trkpt lat="53.2192696" lon="-1.8725092"><ele>371.3333333333333</ele><time>2026-04-18T10:30:31.052Z</time></trkpt><trkpt lat="53.2194344" lon="-1.8725051"><ele>370.0</ele><time>2026-04-18T10:30:32.048Z</time></trkpt><trkpt lat="53.2196027" lon="-1.8725014"><ele>370.0</ele><time>2026-04-18T10:30:33.046Z</time></trkpt><trkpt lat="53.2197704" lon="-1.8725014"><ele>370.0</ele><time>2026-04-18T10:30:34.046Z</time></trkpt><trkpt lat="53.2199403" lon="-1.8725059"><ele>370.0</ele><time>2026-04-18T10:30:35.045Z</time></trkpt><trkpt lat="53.2201096" lon="-1.8725089"><ele>369.0</ele><time>2026-04-18T10:30:36.047Z</time></trkpt><trkpt lat="53.2202757" lon="-1.8725063"><ele>368.0</ele><time>2026-04-18T10:30:37.045Z</time></trkpt><trkpt lat="53.2204469" lon="-1.8724992"><ele>367.0</ele><time>2026-04-18T10:30:38.046Z</time></trkpt><trkpt lat="53.2206185" lon="-1.8724904"><ele>365.0</ele><time>2026-04-18T10:30:39.044Z</time></trkpt><trkpt lat="53.2207784" lon="-1.8724835"><ele>363.0</ele><time>2026-04-18T10:30:40.045Z</time></trkpt><trkpt lat="53.2209293" lon="-1.8724791"><ele>361.0</ele><time>2026-04-18T10:30:41.048Z</time></trkpt><trkpt lat="53.2210824" lon="-1.872483"><ele>361.0</ele><time>2026-04-18T10:30:42.048Z</time></trkpt><trkpt lat="53.2212441" lon="-1.8724883"><ele>361.0</ele><time>2026-04-18T10:30:43.052Z</time></trkpt><trkpt lat="53.2214119" lon="-1.8724938"><ele>361.0</ele><time>2026-04-18T10:30:44.049Z</time></trkpt><trkpt lat="53.221586" lon="-1.8724986"><ele>358.66666666666663</ele><time>2026-04-18T10:30:45.05Z</time></trkpt><trkpt lat="53.2217617" lon="-1.8725043"><ele>356.3333333333333</ele><time>2026-04-18T10:30:46.051Z</time></trkpt><trkpt lat="53.2219301" lon="-1.8725086"><ele>354.0</ele><time>2026-04-18T10:30:47.051Z</time></trkpt><trkpt lat="53.2220945" lon="-1.8725124"><ele>354.0</ele><time>2026-04-18T10:30:48.051Z</time></trkpt><trkpt lat="53.2222614" lon="-1.8725151"><ele>354.0</ele><time>2026-04-18T10:30:49.05Z</time></trkpt><trkpt lat="53.2224329" lon="-1.8725206"><ele>354.0</ele><time>2026-04-18T10:30:50.049Z</time></trkpt><trkpt lat="53.222613" lon="-1.8725273"><ele>351.3333333333333</ele><time>2026-04-18T10:30:51.049Z</time></trkpt><trkpt lat="53.2228021" lon="-1.8725304"><ele>348.66666666666663</ele><time>2026-04-18T10:30:52.049Z</time></trkpt><trkpt lat="53.2230028" lon="-1.8725273"><ele>346.0</ele><time>2026-04-18T10:30:53.056Z</time></trkpt><trkpt lat="53.2232045" lon="-1.8725219"><ele>343.0</ele><time>2026-04-18T10:30:54.051Z</time></trkpt><trkpt lat="53.2233912" lon="-1.8725171"><ele>340.0</ele><time>2026-04-18T10:30:55.05Z</time></trkpt><trkpt lat="53.223563" lon="-1.8725119"><ele>337.0</ele><time>2026-04-18T10:30:56.05Z</time></trkpt><trkpt lat="53.2237241" lon="-1.8725121"><ele>337.0</ele><time>2026-04-18T10:30:57.051Z</time></trkpt><trkpt lat="53.2238716" lon="-1.8725088"><ele>337.0</ele><time>2026-04-18T10:30:58.052Z</time></trkpt><trkpt lat="53.2240087" lon="-1.8725075"><ele>337.0</ele><time>2026-04-18T10:30:59.051Z</time></trkpt><trkpt lat="53.2241355" lon="-1.8725104"><ele>337.0</ele><time>2026-04-18T10:31:00.051Z</time></trkpt><trkpt lat="53.224251" lon="-1.8725156"><ele>335.8</ele><time>2026-04-18T10:31:01.046Z</time></trkpt><trkpt lat="53.2243547" lon="-1.8725231"><ele>334.6</ele><time>2026-04-18T10:31:02.038Z</time></trkpt><trkpt lat="53.2244487" lon="-1.8725278"><ele>333.40000000000003</ele><time>2026-04-18T10:31:03.043Z</time></trkpt><trkpt lat="53.224532" lon="-1.8725191"><ele>332.20000000000005</ele><time>2026-04-18T10:31:04.047Z</time></trkpt><trkpt lat="53.2246136" lon="-1.8724935"><ele>331.0</ele><time>2026-04-18T10:31:05.046Z</time></trkpt><trkpt lat="53.2247003" lon="-1.8724376"><ele>331.0</ele><time>2026-04-18T10:31:06.042Z</time></trkpt><trkpt lat="53.2247886" lon="-1.8723537"><ele>331.0</ele><time>2026-04-18T10:31:07.048Z</time></trkpt><trkpt lat="53.2248628" lon="-1.8722616"><ele>331.0</ele><time>2026-04-18T10:31:08.048Z</time></trkpt><trkpt lat="53.2249177" lon="-1.8721717"><ele>331.0</ele><time>2026-04-18T10:31:09.05Z</time></trkpt><trkpt lat="53.2249636" lon="-1.8720871"><ele>331.0</ele><time>2026-04-18T10:31:10.052Z</time></trkpt><trkpt lat="53.2250479" lon="-1.8719421"><ele>330.6</ele><time>2026-04-18T10:31:12.049Z</time></trkpt><trkpt lat="53.2250735" lon="-1.8718365"><ele>330.20000000000005</ele><time>2026-04-18T10:31:13.056Z</time></trkpt><trkpt lat="53.22507" lon="-1.8716937"><ele>329.79999999999995</ele><time>2026-04-18T10:31:14.051Z</time></trkpt><trkpt lat="53.2250264" lon="-1.871535"><ele>329.4</ele><time>2026-04-18T10:31:15.05Z</time></trkpt><trkpt lat="53.2249557" lon="-1.8713789"><ele>329.0</ele><time>2026-04-18T10:31:16.052Z</time></trkpt><trkpt lat="53.2248675" lon="-1.8712267"><ele>329.25</ele><time>2026-04-18T10:31:17.051Z</time></trkpt><trkpt lat="53.2247752" lon="-1.8710677"><ele>329.5</ele><time>2026-04-18T10:31:18.052Z</time></trkpt><trkpt lat="53.2246904" lon="-1.8708852"><ele>329.75</ele><time>2026-04-18T10:31:19.052Z</time></trkpt><trkpt lat="53.2246099" lon="-1.8706784"><ele>330.0</ele><time>2026-04-18T10:31:20.054Z</time></trkpt><trkpt lat="53.2245323" lon="-1.870455"><ele>330.0</ele><time>2026-04-18T10:31:21.052Z</time></trkpt><trkpt lat="53.2244593" lon="-1.8702228"><ele>330.0</ele><time>2026-04-18T10:31:22.051Z</time></trkpt><trkpt lat="53.2243894" lon="-1.8699888"><ele>330.0</ele><time>2026-04-18T10:31:23.053Z</time></trkpt><trkpt lat="53.2243264" lon="-1.8697589"><ele>330.0</ele><time>2026-04-18T10:31:24.05Z</time></trkpt><trkpt lat="53.2242716" lon="-1.8695234"><ele>330.0</ele><time>2026-04-18T10:31:25.051Z</time></trkpt><trkpt lat="53.2242283" lon="-1.8692805"><ele>330.0</ele><time>2026-04-18T10:31:26.051Z</time></trkpt><trkpt lat="53.2242008" lon="-1.8690232"><ele>330.3333333333333</ele><time>2026-04-18T10:31:27.05Z</time></trkpt><trkpt lat="53.2241835" lon="-1.8687418"><ele>330.66666666666663</ele><time>2026-04-18T10:31:28.05Z</time></trkpt><trkpt lat="53.2241689" lon="-1.8684342"><ele>331.0</ele><time>2026-04-18T10:31:29.045Z</time></trkpt><trkpt lat="53.2241601" lon="-1.8681085"><ele>332.66666666666663</ele><time>2026-04-18T10:31:30.049Z</time></trkpt><trkpt lat="53.2241542" lon="-1.8678038"><ele>334.3333333333333</ele><time>2026-04-18T10:31:31.047Z</time></trkpt><trkpt lat="53.2241497" lon="-1.86753"><ele>336.0</ele><time>2026-04-18T10:31:32.048Z</time></trkpt><trkpt lat="53.2241465" lon="-1.8672639"><ele>337.0</ele><time>2026-04-18T10:31:33.052Z</time></trkpt><trkpt lat="53.224139" lon="-1.866994"><ele>338.0</ele><time>2026-04-18T10:31:34.047Z</time></trkpt><trkpt lat="53.2241233" lon="-1.8667082"><ele>339.0</ele><time>2026-04-18T10:31:35.05Z</time></trkpt><trkpt lat="53.224092" lon="-1.8664079"><ele>340.0</ele><time>2026-04-18T10:31:36.048Z</time></trkpt><trkpt lat="53.2240447" lon="-1.8660999"><ele>341.0</ele><time>2026-04-18T10:31:37.048Z</time></trkpt><trkpt lat="53.2239801" lon="-1.8658022"><ele>342.0</ele><time>2026-04-18T10:31:38.048Z</time></trkpt><trkpt lat="53.2239051" lon="-1.8655083"><ele>346.6666666666667</ele><time>2026-04-18T10:31:39.049Z</time></trkpt><trkpt lat="53.2238229" lon="-1.8652219"><ele>351.33333333333337</ele><time>2026-04-18T10:31:40.051Z</time></trkpt><trkpt lat="53.223735" lon="-1.864941"><ele>356.0</ele><time>2026-04-18T10:31:41.049Z</time></trkpt><trkpt lat="53.2236403" lon="-1.864664"><ele>356.6666666666667</ele><time>2026-04-18T10:31:42.05Z</time></trkpt><trkpt lat="53.2235411" lon="-1.8643794"><ele>357.3333333333333</ele><time>2026-04-18T10:31:43.049Z</time></trkpt><trkpt lat="53.2234374" lon="-1.8640848"><ele>358.0</ele><time>2026-04-18T10:31:44.049Z</time></trkpt><trkpt lat="53.2233307" lon="-1.863778"><ele>358.0</ele><time>2026-04-18T10:31:45.05Z</time></trkpt><trkpt lat="53.2232224" lon="-1.8634488"><ele>358.0</ele><time>2026-04-18T10:31:46.049Z</time></trkpt><trkpt lat="53.2231081" lon="-1.8630963"><ele>364.5</ele><time>2026-04-18T10:31:47.05Z</time></trkpt><trkpt lat="53.2229869" lon="-1.8627237"><ele>371.0</ele><time>2026-04-18T10:31:48.049Z</time></trkpt><trkpt lat="53.2228616" lon="-1.8623317"><ele>371.0</ele><time>2026-04-18T10:31:49.048Z</time></trkpt><trkpt lat="53.2227377" lon="-1.8619396"><ele>371.0</ele><time>2026-04-18T10:31:50.047Z</time></trkpt><trkpt lat="53.2226135" lon="-1.8615562"><ele>371.0</ele><time>2026-04-18T10:31:51.049Z</time></trkpt><trkpt lat="53.2224878" lon="-1.8611848"><ele>371.0</ele><time>2026-04-18T10:31:52.048Z</time></trkpt><trkpt lat="53.2223609" lon="-1.8608304"><ele>374.0</ele><time>2026-04-18T10:31:53.051Z</time></trkpt><trkpt lat="53.2222249" lon="-1.8605022"><ele>377.0</ele><time>2026-04-18T10:31:54.049Z</time></trkpt><trkpt lat="53.2220787" lon="-1.8602027"><ele>376.5</ele><time>2026-04-18T10:31:55.048Z</time></trkpt><trkpt lat="53.221913" lon="-1.8599471"><ele>376.0</ele><time>2026-04-18T10:31:56.051Z</time></trkpt><trkpt lat="53.2217236" lon="-1.8597247"><ele>376.0</ele><time>2026-04-18T10:31:57.05Z</time></trkpt><trkpt lat="53.2215193" lon="-1.8595187"><ele>376.0</ele><time>2026-04-18T10:31:58.051Z</time></trkpt><trkpt lat="53.2213006" lon="-1.8593139"><ele>377.0</ele><time>2026-04-18T10:31:59.05Z</time></trkpt><trkpt lat="53.2210817" lon="-1.8590901"><ele>378.0</ele><time>2026-04-18T10:32:00.043Z</time></trkpt><trkpt lat="53.2208726" lon="-1.8588369"><ele>378.0</ele><time>2026-04-18T10:32:01.049Z</time></trkpt><trkpt lat="53.2206809" lon="-1.858538"><ele>378.0</ele><time>2026-04-18T10:32:02.048Z</time></trkpt><trkpt lat="53.2205024" lon="-1.8582086"><ele>380.0</ele><time>2026-04-18T10:32:03.05Z</time></trkpt><trkpt lat="53.2203175" lon="-1.8578872"><ele>382.0</ele><time>2026-04-18T10:32:04.043Z</time></trkpt><trkpt lat="53.2201144" lon="-1.8575773"><ele>382.5</ele><time>2026-04-18T10:32:05.05Z</time></trkpt><trkpt lat="53.2198901" lon="-1.8572697"><ele>383.0</ele><time>2026-04-18T10:32:06.045Z</time></trkpt><trkpt lat="53.2196523" lon="-1.8569576"><ele>383.0</ele><time>2026-04-18T10:32:07.051Z</time></trkpt><trkpt lat="53.2194161" lon="-1.8566521"><ele>383.0</ele><time>2026-04-18T10:32:08.051Z</time></trkpt><trkpt lat="53.2191852" lon="-1.8563668"><ele>383.0</ele><time>2026-04-18T10:32:09.047Z</time></trkpt><trkpt lat="53.2189648" lon="-1.8560993"><ele>383.0</ele><time>2026-04-18T10:32:10.05Z</time></trkpt><trkpt lat="53.2187485" lon="-1.8558333"><ele>381.0</ele><time>2026-04-18T10:32:11.053Z</time></trkpt><trkpt lat="53.2185354" lon="-1.8555625"><ele>379.0</ele><time>2026-04-18T10:32:12.05Z</time></trkpt><trkpt lat="53.2183182" lon="-1.8552984"><ele>376.5</ele><time>2026-04-18T10:32:13.051Z</time></trkpt><trkpt lat="53.2181041" lon="-1.8550437"><ele>374.0</ele><time>2026-04-18T10:32:14.054Z</time></trkpt><trkpt lat="53.2179032" lon="-1.8548066"><ele>374.0</ele><time>2026-04-18T10:32:15.053Z</time></trkpt><trkpt lat="53.2177193" lon="-1.8545863"><ele>374.0</ele><time>2026-04-18T10:32:16.052Z</time></trkpt><trkpt lat="53.2175434" lon="-1.8543735"><ele>374.0</ele><time>2026-04-18T10:32:17.05Z</time></trkpt><trkpt lat="53.217372" lon="-1.8541684"><ele>373.33333333333337</ele><time>2026-04-18T10:32:18.052Z</time></trkpt><trkpt lat="53.2171988" lon="-1.8539558"><ele>372.6666666666667</ele><time>2026-04-18T10:32:19.05Z</time></trkpt><trkpt lat="53.2170224" lon="-1.8537358"><ele>372.0</ele><time>2026-04-18T10:32:20.05Z</time></trkpt><trkpt lat="53.2168431" lon="-1.8535134"><ele>371.3333333333333</ele><time>2026-04-18T10:32:21.05Z</time></trkpt><trkpt lat="53.2166647" lon="-1.8532885"><ele>370.66666666666663</ele><time>2026-04-18T10:32:22.045Z</time></trkpt><trkpt lat="53.2164894" lon="-1.8530698"><ele>370.0</ele><time>2026-04-18T10:32:23.053Z</time></trkpt><trkpt lat="53.2163243" lon="-1.8528744"><ele>372.66666666666663</ele><time>2026-04-18T10:32:24.049Z</time></trkpt><trkpt lat="53.2161788" lon="-1.8527137"><ele>375.3333333333333</ele><time>2026-04-18T10:32:25.046Z</time></trkpt><trkpt lat="53.2160469" lon="-1.852564"><ele>378.0</ele><time>2026-04-18T10:32:26.049Z</time></trkpt><trkpt lat="53.2159167" lon="-1.8524072"><ele>378.3333333333333</ele><time>2026-04-18T10:32:27.049Z</time></trkpt><trkpt lat="53.21578" lon="-1.8522417"><ele>378.66666666666663</ele><time>2026-04-18T10:32:28.05Z</time></trkpt><trkpt lat="53.2156385" lon="-1.8520708"><ele>379.0</ele><time>2026-04-18T10:32:29.049Z</time></trkpt><trkpt lat="53.2154955" lon="-1.8518923"><ele>379.66666666666663</ele><time>2026-04-18T10:32:30.05Z</time></trkpt><trkpt lat="53.2153473" lon="-1.8517076"><ele>380.3333333333333</ele><time>2026-04-18T10:32:31.049Z</time></trkpt><trkpt lat="53.2151935" lon="-1.8515153"><ele>381.0</ele><time>2026-04-18T10:32:32.047Z</time></trkpt><trkpt lat="53.2150349" lon="-1.8513176"><ele>381.0</ele><time>2026-04-18T10:32:33.052Z</time></trkpt><trkpt lat="53.2148734" lon="-1.8511175"><ele>381.0</ele><time>2026-04-18T10:32:34.049Z</time></trkpt><trkpt lat="53.2147143" lon="-1.8509161"><ele>381.0</ele><time>2026-04-18T10:32:35.049Z</time></trkpt><trkpt lat="53.2145596" lon="-1.8507235"><ele>380.3333333333333</ele><time>2026-04-18T10:32:36.049Z</time></trkpt><trkpt lat="53.2144084" lon="-1.850538"><ele>379.66666666666663</ele><time>2026-04-18T10:32:37.049Z</time></trkpt><trkpt lat="53.2142585" lon="-1.8503572"><ele>379.0</ele><time>2026-04-18T10:32:38.049Z</time></trkpt><trkpt lat="53.2141053" lon="-1.8501758"><ele>378.66666666666663</ele><time>2026-04-18T10:32:39.052Z</time></trkpt><trkpt lat="53.2139496" lon="-1.8499898"><ele>378.3333333333333</ele><time>2026-04-18T10:32:40.053Z</time></trkpt><trkpt lat="53.2137899" lon="-1.8497956"><ele>378.0</ele><time>2026-04-18T10:32:41.048Z</time></trkpt><trkpt lat="53.213626" lon="-1.8495961"><ele>378.0</ele><time>2026-04-18T10:32:42.044Z</time></trkpt><trkpt lat="53.2134496" lon="-1.8493903"><ele>378.0</ele><time>2026-04-18T10:32:43.051Z</time></trkpt><trkpt lat="53.2132651" lon="-1.8491761"><ele>378.0</ele><time>2026-04-18T10:32:44.052Z</time></trkpt><trkpt lat="53.2130725" lon="-1.8489531"><ele>375.5</ele><time>2026-04-18T10:32:45.051Z</time></trkpt><trkpt lat="53.2128776" lon="-1.8487258"><ele>373.0</ele><time>2026-04-18T10:32:46.049Z</time></trkpt><trkpt lat="53.2126802" lon="-1.8484906"><ele>372.0</ele><time>2026-04-18T10:32:47.048Z</time></trkpt><trkpt lat="53.2124761" lon="-1.8482499"><ele>371.0</ele><time>2026-04-18T10:32:48.051Z</time></trkpt><trkpt lat="53.2122738" lon="-1.8480109"><ele>371.0</ele><time>2026-04-18T10:32:49.05Z</time></trkpt><trkpt lat="53.2120713" lon="-1.8477783"><ele>371.0</ele><time>2026-04-18T10:32:50.052Z</time></trkpt><trkpt lat="53.2118804" lon="-1.8475593"><ele>371.0</ele><time>2026-04-18T10:32:51.05Z</time></trkpt><trkpt lat="53.2117026" lon="-1.8473602"><ele>371.0</ele><time>2026-04-18T10:32:52.049Z</time></trkpt><trkpt lat="53.2115409" lon="-1.8471735"><ele>371.0</ele><time>2026-04-18T10:32:53.052Z</time></trkpt><trkpt lat="53.211387" lon="-1.8469941"><ele>372.0</ele><time>2026-04-18T10:32:54.049Z</time></trkpt><trkpt lat="53.2112334" lon="-1.8468133"><ele>373.0</ele><time>2026-04-18T10:32:55.051Z</time></trkpt><trkpt lat="53.2110755" lon="-1.8466322"><ele>374.0</ele><time>2026-04-18T10:32:56.051Z</time></trkpt><trkpt lat="53.2109132" lon="-1.8464491"><ele>374.0</ele><time>2026-04-18T10:32:57.051Z</time></trkpt><trkpt lat="53.2107458" lon="-1.8462596"><ele>374.0</ele><time>2026-04-18T10:32:58.051Z</time></trkpt><trkpt lat="53.2105754" lon="-1.8460629"><ele>374.0</ele><time>2026-04-18T10:32:59.049Z</time></trkpt><trkpt lat="53.2104084" lon="-1.8458734"><ele>374.0</ele><time>2026-04-18T10:33:00.051Z</time></trkpt><trkpt lat="53.2102547" lon="-1.8456982"><ele>374.0</ele><time>2026-04-18T10:33:01.051Z</time></trkpt><trkpt lat="53.2101071" lon="-1.8455248"><ele>374.0</ele><time>2026-04-18T10:33:02.051Z</time></trkpt><trkpt lat="53.209956" lon="-1.8453454"><ele>375.0</ele><time>2026-04-18T10:33:03.053Z</time></trkpt><trkpt lat="53.2097965" lon="-1.8451565"><ele>376.0</ele><time>2026-04-18T10:33:04.05Z</time></trkpt><trkpt lat="53.2096298" lon="-1.8449608"><ele>377.0</ele><time>2026-04-18T10:33:05.049Z</time></trkpt><trkpt lat="53.209455" lon="-1.8447576"><ele>378.33333333333337</ele><time>2026-04-18T10:33:06.052Z</time></trkpt><trkpt lat="53.2092759" lon="-1.8445455"><ele>379.6666666666667</ele><time>2026-04-18T10:33:07.049Z</time></trkpt><trkpt lat="53.2090999" lon="-1.8443394"><ele>381.0</ele><time>2026-04-18T10:33:08.051Z</time></trkpt><trkpt lat="53.2089313" lon="-1.8441443"><ele>382.0</ele><time>2026-04-18T10:33:09.051Z</time></trkpt><trkpt lat="53.2087697" lon="-1.8439559"><ele>383.0</ele><time>2026-04-18T10:33:10.052Z</time></trkpt><trkpt lat="53.2086157" lon="-1.8437682"><ele>384.0</ele><time>2026-04-18T10:33:11.051Z</time></trkpt><trkpt lat="53.208469" lon="-1.8435759"><ele>385.33333333333337</ele><time>2026-04-18T10:33:12.049Z</time></trkpt><trkpt lat="53.2083326" lon="-1.843369"><ele>386.6666666666667</ele><time>2026-04-18T10:33:13.054Z</time></trkpt><trkpt lat="53.2082071" lon="-1.8431391"><ele>388.0</ele><time>2026-04-18T10:33:14.048Z</time></trkpt><trkpt lat="53.2080925" lon="-1.8428836"><ele>389.0</ele><time>2026-04-18T10:33:15.05Z</time></trkpt><trkpt lat="53.2079871" lon="-1.8426111"><ele>390.0</ele><time>2026-04-18T10:33:16.051Z</time></trkpt><trkpt lat="53.2078904" lon="-1.8423261"><ele>391.0</ele><time>2026-04-18T10:33:17.049Z</time></trkpt><trkpt lat="53.2078048" lon="-1.8420286"><ele>391.6666666666667</ele><time>2026-04-18T10:33:18.051Z</time></trkpt><trkpt lat="53.2077275" lon="-1.8417269"><ele>392.33333333333337</ele><time>2026-04-18T10:33:19.049Z</time></trkpt><trkpt lat="53.2076569" lon="-1.8414306"><ele>393.0</ele><time>2026-04-18T10:33:20.05Z</time></trkpt><trkpt lat="53.2075864" lon="-1.8411418"><ele>394.0</ele><time>2026-04-18T10:33:21.048Z</time></trkpt><trkpt lat="53.2075152" lon="-1.8408484"><ele>395.0</ele><time>2026-04-18T10:33:22.051Z</time></trkpt><trkpt lat="53.2074407" lon="-1.8405497"><ele>396.0</ele><time>2026-04-18T10:33:23.051Z</time></trkpt><trkpt lat="53.2073648" lon="-1.8402489"><ele>395.0</ele><time>2026-04-18T10:33:24.048Z</time></trkpt><trkpt lat="53.2072882" lon="-1.8399435"><ele>394.0</ele><time>2026-04-18T10:33:25.049Z</time></trkpt><trkpt lat="53.2072084" lon="-1.8396363"><ele>393.0</ele><time>2026-04-18T10:33:26.04Z</time></trkpt><trkpt lat="53.2071263" lon="-1.8393254"><ele>393.33333333333337</ele><time>2026-04-18T10:33:27.05Z</time></trkpt><trkpt lat="53.2070443" lon="-1.8390121"><ele>393.6666666666667</ele><time>2026-04-18T10:33:28.048Z</time></trkpt><trkpt lat="53.20696" lon="-1.838695"><ele>394.0</ele><time>2026-04-18T10:33:29.048Z</time></trkpt><trkpt lat="53.2068746" lon="-1.8383766"><ele>394.33333333333337</ele><time>2026-04-18T10:33:30.045Z</time></trkpt><trkpt lat="53.2067876" lon="-1.8380522"><ele>394.66666666666663</ele><time>2026-04-18T10:33:31.043Z</time></trkpt><trkpt lat="53.2066957" lon="-1.8377178"><ele>395.0</ele><time>2026-04-18T10:33:32.049Z</time></trkpt><trkpt lat="53.206604" lon="-1.8373782"><ele>394.66666666666663</ele><time>2026-04-18T10:33:33.053Z</time></trkpt><trkpt lat="53.2065131" lon="-1.8370434"><ele>394.33333333333337</ele><time>2026-04-18T10:33:34.05Z</time></trkpt><trkpt lat="53.2064265" lon="-1.8367147"><ele>394.0</ele><time>2026-04-18T10:33:35.05Z</time></trkpt><trkpt lat="53.2063467" lon="-1.8363922"><ele>394.0</ele><time>2026-04-18T10:33:36.051Z</time></trkpt><trkpt lat="53.2062728" lon="-1.8360816"><ele>394.0</ele><time>2026-04-18T10:33:37.05Z</time></trkpt><trkpt lat="53.206206" lon="-1.8357832"><ele>394.0</ele><time>2026-04-18T10:33:38.042Z</time></trkpt><trkpt lat="53.2061442" lon="-1.8354849"><ele>395.0</ele><time>2026-04-18T10:33:39.056Z</time></trkpt><trkpt lat="53.2060908" lon="-1.835186"><ele>396.0</ele><time>2026-04-18T10:33:40.055Z</time></trkpt><trkpt lat="53.2060467" lon="-1.8348918"><ele>397.0</ele><time>2026-04-18T10:33:41.048Z</time></trkpt><trkpt lat="53.2060084" lon="-1.834593"><ele>397.0</ele><time>2026-04-18T10:33:42.049Z</time></trkpt><trkpt lat="53.2059725" lon="-1.8343017"><ele>397.0</ele><time>2026-04-18T10:33:43.053Z</time></trkpt><trkpt lat="53.2059372" lon="-1.8340206"><ele>397.0</ele><time>2026-04-18T10:33:44.051Z</time></trkpt><trkpt lat="53.2059018" lon="-1.8337437"><ele>396.6666666666667</ele><time>2026-04-18T10:33:45.049Z</time></trkpt><trkpt lat="53.2058638" lon="-1.8334682"><ele>396.33333333333337</ele><time>2026-04-18T10:33:46.05Z</time></trkpt><trkpt lat="53.2058221" lon="-1.8331882"><ele>396.0</ele><time>2026-04-18T10:33:47.052Z</time></trkpt><trkpt lat="53.2057826" lon="-1.8328967"><ele>395.33333333333337</ele><time>2026-04-18T10:33:48.051Z</time></trkpt><trkpt lat="53.2057493" lon="-1.8325961"><ele>394.6666666666667</ele><time>2026-04-18T10:33:49.049Z</time></trkpt><trkpt lat="53.2057153" lon="-1.8323066"><ele>394.0</ele><time>2026-04-18T10:33:50.049Z</time></trkpt><trkpt lat="53.2056808" lon="-1.8320652"><ele>394.0</ele><time>2026-04-18T10:33:51.051Z</time></trkpt><trkpt lat="53.2056567" lon="-1.8318984"><ele>394.0</ele><time>2026-04-18T10:33:52.05Z</time></trkpt><trkpt lat="53.2056697" lon="-1.8317593"><ele>394.0</ele><time>2026-04-18T10:33:54.051Z</time></trkpt><trkpt lat="53.205775" lon="-1.8317711"><ele>394.0</ele><time>2026-04-18T10:33:56.05Z</time></trkpt><trkpt lat="53.2058491" lon="-1.8317942"><ele>394.0</ele><time>2026-04-18T10:33:57.049Z</time></trkpt><trkpt lat="53.205932" lon="-1.8318076"><ele>393.5</ele><time>2026-04-18T10:33:58.048Z</time></trkpt><trkpt lat="53.2060274" lon="-1.8318021"><ele>393.0</ele><time>2026-04-18T10:33:59.048Z</time></trkpt><trkpt lat="53.2061388" lon="-1.8317885"><ele>392.5</ele><time>2026-04-18T10:34:00.051Z</time></trkpt><trkpt lat="53.206268" lon="-1.8317585"><ele>392.0</ele><time>2026-04-18T10:34:01.052Z</time></trkpt><trkpt lat="53.2064125" lon="-1.8317244"><ele>392.0</ele><time>2026-04-18T10:34:02.053Z</time></trkpt><trkpt lat="53.2065733" lon="-1.8316933"><ele>392.0</ele><time>2026-04-18T10:34:03.057Z</time></trkpt><trkpt lat="53.206756" lon="-1.8316584"><ele>392.0</ele><time>2026-04-18T10:34:04.051Z</time></trkpt><trkpt lat="53.2069606" lon="-1.8316189"><ele>393.0</ele><time>2026-04-18T10:34:05.053Z</time></trkpt><trkpt lat="53.2074105" lon="-1.8315257"><ele>393.0</ele><time>2026-04-18T10:34:07.053Z</time></trkpt><trkpt lat="53.2076427" lon="-1.8314851"><ele>393.0</ele><time>2026-04-18T10:34:08.052Z</time></trkpt><trkpt lat="53.2078679" lon="-1.8314467"><ele>393.0</ele><time>2026-04-18T10:34:09.05Z</time></trkpt><trkpt lat="53.2080863" lon="-1.8314079"><ele>393.0</ele><time>2026-04-18T10:34:10.054Z</time></trkpt><trkpt lat="53.208305" lon="-1.8313717"><ele>393.0</ele><time>2026-04-18T10:34:11.048Z</time></trkpt><trkpt lat="53.2085227" lon="-1.8313323"><ele>393.33333333333337</ele><time>2026-04-18T10:34:12.049Z</time></trkpt><trkpt lat="53.2087354" lon="-1.8312951"><ele>393.6666666666667</ele><time>2026-04-18T10:34:13.054Z</time></trkpt><trkpt lat="53.2089432" lon="-1.8312547"><ele>394.0</ele><time>2026-04-18T10:34:14.05Z</time></trkpt><trkpt lat="53.2091452" lon="-1.8312043"><ele>394.0</ele><time>2026-04-18T10:34:15.051Z</time></trkpt><trkpt lat="53.2093378" lon="-1.8311442"><ele>394.0</ele><time>2026-04-18T10:34:16.05Z</time></trkpt><trkpt lat="53.2095167" lon="-1.8310873"><ele>394.0</ele><time>2026-04-18T10:34:17.05Z</time></trkpt><trkpt lat="53.209682" lon="-1.8310399"><ele>394.25</ele><time>2026-04-18T10:34:18.05Z</time></trkpt><trkpt lat="53.2098332" lon="-1.8309985"><ele>394.5</ele><time>2026-04-18T10:34:19.048Z</time></trkpt><trkpt lat="53.2099696" lon="-1.8309655"><ele>394.75</ele><time>2026-04-18T10:34:20.049Z</time></trkpt><trkpt lat="53.2100945" lon="-1.8309416"><ele>395.0</ele><time>2026-04-18T10:34:21.048Z</time></trkpt><trkpt lat="53.2102078" lon="-1.8309289"><ele>394.2</ele><time>2026-04-18T10:34:22.052Z</time></trkpt><trkpt lat="53.2103067" lon="-1.8309338"><ele>393.4</ele><time>2026-04-18T10:34:23.054Z</time></trkpt><trkpt lat="53.2103893" lon="-1.8309431"><ele>392.6</ele><time>2026-04-18T10:34:24.048Z</time></trkpt><trkpt lat="53.2104597" lon="-1.8309401"><ele>391.8</ele><time>2026-04-18T10:34:25.045Z</time></trkpt><trkpt lat="53.2105667" lon="-1.8308758"><ele>391.0</ele><time>2026-04-18T10:34:27.049Z</time></trkpt><trkpt lat="53.2106538" lon="-1.8307948"><ele>391.20000000000005</ele><time>2026-04-18T10:34:29.049Z</time></trkpt><trkpt lat="53.2107373" lon="-1.8307231"><ele>391.40000000000003</ele><time>2026-04-18T10:34:31.052Z</time></trkpt><trkpt lat="53.2108281" lon="-1.8306536"><ele>391.6</ele><time>2026-04-18T10:34:33.054Z</time></trkpt><trkpt lat="53.2109382" lon="-1.8305851"><ele>391.8</ele><time>2026-04-18T10:34:35.051Z</time></trkpt><trkpt lat="53.2110207" lon="-1.8305552"><ele>392.0</ele><time>2026-04-18T10:34:36.051Z</time></trkpt><trkpt lat="53.2111256" lon="-1.8305245"><ele>392.0</ele><time>2026-04-18T10:34:37.053Z</time></trkpt><trkpt lat="53.2112483" lon="-1.8304853"><ele>392.0</ele><time>2026-04-18T10:34:38.052Z</time></trkpt><trkpt lat="53.2113837" lon="-1.8304005"><ele>392.0</ele><time>2026-04-18T10:34:39.05Z</time></trkpt><trkpt lat="53.2115304" lon="-1.8302728"><ele>392.0</ele><time>2026-04-18T10:34:40.052Z</time></trkpt><trkpt lat="53.2116922" lon="-1.8301163"><ele>391.66666666666663</ele><time>2026-04-18T10:34:41.048Z</time></trkpt><trkpt lat="53.2118634" lon="-1.829957"><ele>391.33333333333337</ele><time>2026-04-18T10:34:42.049Z</time></trkpt><trkpt lat="53.2120399" lon="-1.8297832"><ele>391.0</ele><time>2026-04-18T10:34:43.056Z</time></trkpt><trkpt lat="53.2122132" lon="-1.829608"><ele>391.0</ele><time>2026-04-18T10:34:44.05Z</time></trkpt><trkpt lat="53.2123815" lon="-1.8294527"><ele>391.0</ele><time>2026-04-18T10:34:45.048Z</time></trkpt><trkpt lat="53.2125452" lon="-1.8293086"><ele>391.0</ele><time>2026-04-18T10:34:46.05Z</time></trkpt><trkpt lat="53.2127" lon="-1.8291847"><ele>391.0</ele><time>2026-04-18T10:34:47.051Z</time></trkpt><trkpt lat="53.2128499" lon="-1.8290854"><ele>391.0</ele><time>2026-04-18T10:34:48.052Z</time></trkpt><trkpt lat="53.2130011" lon="-1.8289911"><ele>391.0</ele><time>2026-04-18T10:34:49.051Z</time></trkpt><trkpt lat="53.213151" lon="-1.8288868"><ele>391.6666666666667</ele><time>2026-04-18T10:34:50.05Z</time></trkpt><trkpt lat="53.2133022" lon="-1.8287649"><ele>392.33333333333337</ele><time>2026-04-18T10:34:51.049Z</time></trkpt><trkpt lat="53.2134558" lon="-1.8286333"><ele>393.0</ele><time>2026-04-18T10:34:52.048Z</time></trkpt><trkpt lat="53.213616" lon="-1.828497"><ele>392.33333333333337</ele><time>2026-04-18T10:34:53.052Z</time></trkpt><trkpt lat="53.2137804" lon="-1.8283547"><ele>391.6666666666667</ele><time>2026-04-18T10:34:54.05Z</time></trkpt><trkpt lat="53.2139421" lon="-1.8282197"><ele>391.0</ele><time>2026-04-18T10:34:55.051Z</time></trkpt><trkpt lat="53.214097" lon="-1.8281029"><ele>392.33333333333337</ele><time>2026-04-18T10:34:56.052Z</time></trkpt><trkpt lat="53.2142492" lon="-1.8280087"><ele>393.66666666666663</ele><time>2026-04-18T10:34:57.051Z</time></trkpt><trkpt lat="53.214404" lon="-1.8279198"><ele>395.0</ele><time>2026-04-18T10:34:58.052Z</time></trkpt><trkpt lat="53.2145609" lon="-1.827825"><ele>395.0</ele><time>2026-04-18T10:34:59.052Z</time></trkpt><trkpt lat="53.2147187" lon="-1.8277207"><ele>395.0</ele><time>2026-04-18T10:35:00.052Z</time></trkpt><trkpt lat="53.2148779" lon="-1.827604"><ele>395.0</ele><time>2026-04-18T10:35:01.05Z</time></trkpt><trkpt lat="53.2150343" lon="-1.8274817"><ele>394.66666666666663</ele><time>2026-04-18T10:35:02.052Z</time></trkpt><trkpt lat="53.2151891" lon="-1.8273615"><ele>394.33333333333337</ele><time>2026-04-18T10:35:03.054Z</time></trkpt><trkpt lat="53.2153425" lon="-1.8272434"><ele>394.0</ele><time>2026-04-18T10:35:04.05Z</time></trkpt><trkpt lat="53.2154916" lon="-1.8271308"><ele>394.0</ele><time>2026-04-18T10:35:05.051Z</time></trkpt><trkpt lat="53.215634" lon="-1.8270261"><ele>394.0</ele><time>2026-04-18T10:35:06.043Z</time></trkpt><trkpt lat="53.2157712" lon="-1.826928"><ele>394.0</ele><time>2026-04-18T10:35:07.053Z</time></trkpt><trkpt lat="53.2159021" lon="-1.8268301"><ele>394.0</ele><time>2026-04-18T10:35:08.049Z</time></trkpt><trkpt lat="53.2160233" lon="-1.8267351"><ele>393.79999999999995</ele><time>2026-04-18T10:35:09.053Z</time></trkpt><trkpt lat="53.2161313" lon="-1.826653"><ele>393.59999999999997</ele><time>2026-04-18T10:35:10.054Z</time></trkpt><trkpt lat="53.2162286" lon="-1.8265827"><ele>393.4</ele><time>2026-04-18T10:35:11.051Z</time></trkpt><trkpt lat="53.2163139" lon="-1.8265312"><ele>393.2</ele><time>2026-04-18T10:35:12.05Z</time></trkpt><trkpt lat="53.2163935" lon="-1.8264912"><ele>393.0</ele><time>2026-04-18T10:35:13.054Z</time></trkpt><trkpt lat="53.2164783" lon="-1.8264434"><ele>394.0</ele><time>2026-04-18T10:35:14.052Z</time></trkpt><trkpt lat="53.2165779" lon="-1.8263762"><ele>395.0</ele><time>2026-04-18T10:35:15.051Z</time></trkpt><trkpt lat="53.216692" lon="-1.8262978"><ele>396.0</ele><time>2026-04-18T10:35:16.049Z</time></trkpt><trkpt lat="53.2168232" lon="-1.8262083"><ele>397.0</ele><time>2026-04-18T10:35:17.044Z</time></trkpt><trkpt lat="53.2169703" lon="-1.8261054"><ele>397.0</ele><time>2026-04-18T10:35:18.043Z</time></trkpt><trkpt lat="53.2171342" lon="-1.8259802"><ele>397.0</ele><time>2026-04-18T10:35:19.047Z</time></trkpt><trkpt lat="53.2173087" lon="-1.825842"><ele>397.0</ele><time>2026-04-18T10:35:20.052Z</time></trkpt><trkpt lat="53.2174887" lon="-1.825704"><ele>396.0</ele><time>2026-04-18T10:35:21.044Z</time></trkpt><trkpt lat="53.2176619" lon="-1.8255722"><ele>395.0</ele><time>2026-04-18T10:35:22.049Z</time></trkpt><trkpt lat="53.2178218" lon="-1.8254552"><ele>394.0</ele><time>2026-04-18T10:35:23.052Z</time></trkpt><trkpt lat="53.2179759" lon="-1.8253462"><ele>394.0</ele><time>2026-04-18T10:35:24.051Z</time></trkpt><trkpt lat="53.2181248" lon="-1.8252439"><ele>394.0</ele><time>2026-04-18T10:35:25.052Z</time></trkpt><trkpt lat="53.218265" lon="-1.8251423"><ele>394.0</ele><time>2026-04-18T10:35:26.058Z</time></trkpt><trkpt lat="53.2183996" lon="-1.8250395"><ele>393.33333333333337</ele><time>2026-04-18T10:35:27.057Z</time></trkpt><trkpt lat="53.2185345" lon="-1.8249384"><ele>392.66666666666663</ele><time>2026-04-18T10:35:28.052Z</time></trkpt><trkpt lat="53.2186716" lon="-1.8248387"><ele>392.0</ele><time>2026-04-18T10:35:29.051Z</time></trkpt><trkpt lat="53.2188125" lon="-1.8247422"><ele>392.0</ele><time>2026-04-18T10:35:30.052Z</time></trkpt><trkpt lat="53.218959" lon="-1.8246437"><ele>392.0</ele><time>2026-04-18T10:35:31.059Z</time></trkpt><trkpt lat="53.2191083" lon="-1.824538"><ele>392.0</ele><time>2026-04-18T10:35:32.055Z</time></trkpt><trkpt lat="53.2192552" lon="-1.824426"><ele>392.3333333333333</ele><time>2026-04-18T10:35:33.061Z</time></trkpt><trkpt lat="53.219395" lon="-1.8243194"><ele>392.66666666666663</ele><time>2026-04-18T10:35:34.055Z</time></trkpt><trkpt lat="53.2195345" lon="-1.8242198"><ele>393.0</ele><time>2026-04-18T10:35:35.053Z</time></trkpt><trkpt lat="53.2196739" lon="-1.8241197"><ele>393.0</ele><time>2026-04-18T10:35:36.051Z</time></trkpt><trkpt lat="53.2198088" lon="-1.824017"><ele>393.0</ele><time>2026-04-18T10:35:37.053Z</time></trkpt><trkpt lat="53.2199392" lon="-1.8239181"><ele>393.0</ele><time>2026-04-18T10:35:38.053Z</time></trkpt><trkpt lat="53.220065" lon="-1.8238291"><ele>393.0</ele><time>2026-04-18T10:35:39.054Z</time></trkpt><trkpt lat="53.2201927" lon="-1.8237464"><ele>393.25</ele><time>2026-04-18T10:35:40.052Z</time></trkpt><trkpt lat="53.2203245" lon="-1.8236575"><ele>393.5</ele><time>2026-04-18T10:35:41.049Z</time></trkpt><trkpt lat="53.2204572" lon="-1.8235693"><ele>393.75</ele><time>2026-04-18T10:35:42.046Z</time></trkpt><trkpt lat="53.220591" lon="-1.8234773"><ele>394.0</ele><time>2026-04-18T10:35:43.052Z</time></trkpt><trkpt lat="53.2207226" lon="-1.8233834"><ele>394.0</ele><time>2026-04-18T10:35:44.052Z</time></trkpt><trkpt lat="53.2208489" lon="-1.8232889"><ele>394.0</ele><time>2026-04-18T10:35:45.049Z</time></trkpt><trkpt lat="53.2209658" lon="-1.8232034"><ele>394.0</ele><time>2026-04-18T10:35:46.049Z</time></trkpt><trkpt lat="53.2210779" lon="-1.8231291"><ele>394.0</ele><time>2026-04-18T10:35:47.051Z</time></trkpt><trkpt lat="53.2211954" lon="-1.8230605"><ele>394.0</ele><time>2026-04-18T10:35:48.051Z</time></trkpt><trkpt lat="53.2213238" lon="-1.8230011"><ele>394.0</ele><time>2026-04-18T10:35:49.051Z</time></trkpt><trkpt lat="53.2214644" lon="-1.8229643"><ele>394.0</ele><time>2026-04-18T10:35:50.049Z</time></trkpt><trkpt lat="53.2216213" lon="-1.8229467"><ele>394.0</ele><time>2026-04-18T10:35:51.044Z</time></trkpt><trkpt lat="53.2217885" lon="-1.8229464"><ele>393.5</ele><time>2026-04-18T10:35:52.051Z</time></trkpt><trkpt lat="53.2219476" lon="-1.8229555"><ele>393.0</ele><time>2026-04-18T10:35:53.053Z</time></trkpt><trkpt lat="53.2220889" lon="-1.8229607"><ele>392.5</ele><time>2026-04-18T10:35:54.051Z</time></trkpt><trkpt lat="53.2222227" lon="-1.8229682"><ele>392.0</ele><time>2026-04-18T10:35:55.053Z</time></trkpt><trkpt lat="53.2223556" lon="-1.8229768"><ele>391.5</ele><time>2026-04-18T10:35:56.053Z</time></trkpt><trkpt lat="53.2224818" lon="-1.8229844"><ele>391.0</ele><time>2026-04-18T10:35:57.051Z</time></trkpt><trkpt lat="53.2226047" lon="-1.8229883"><ele>390.5</ele><time>2026-04-18T10:35:58.05Z</time></trkpt><trkpt lat="53.2227236" lon="-1.8229861"><ele>390.0</ele><time>2026-04-18T10:35:59.05Z</time></trkpt><trkpt lat="53.2228341" lon="-1.8229883"><ele>390.0</ele><time>2026-04-18T10:36:00.054Z</time></trkpt><trkpt lat="53.2229401" lon="-1.822992"><ele>390.0</ele><time>2026-04-18T10:36:01.052Z</time></trkpt><trkpt lat="53.2230498" lon="-1.8230077"><ele>390.0</ele><time>2026-04-18T10:36:02.05Z</time></trkpt><trkpt lat="53.223172" lon="-1.8230211"><ele>390.0</ele><time>2026-04-18T10:36:03.057Z</time></trkpt><trkpt lat="53.2233053" lon="-1.8230312"><ele>389.75</ele><time>2026-04-18T10:36:04.054Z</time></trkpt><trkpt lat="53.2234419" lon="-1.8230334"><ele>389.5</ele><time>2026-04-18T10:36:05.054Z</time></trkpt><trkpt lat="53.2235675" lon="-1.8230283"><ele>389.25</ele><time>2026-04-18T10:36:06.057Z</time></trkpt><trkpt lat="53.223677" lon="-1.8230204"><ele>389.0</ele><time>2026-04-18T10:36:07.055Z</time></trkpt><trkpt lat="53.2237672" lon="-1.8230175"><ele>388.99999999999994</ele><time>2026-04-18T10:36:08.053Z</time></trkpt><trkpt lat="53.2238382" lon="-1.8230198"><ele>389.0</ele><time>2026-04-18T10:36:09.055Z</time></trkpt><trkpt lat="53.2239188" lon="-1.8230491"><ele>389.0</ele><time>2026-04-18T10:36:11.048Z</time></trkpt><trkpt lat="53.2240104" lon="-1.8230732"><ele>389.0</ele><time>2026-04-18T10:36:14.045Z</time></trkpt><trkpt lat="53.224072" lon="-1.8230268"><ele>388.99999999999994</ele><time>2026-04-18T10:36:17.05Z</time></trkpt><trkpt lat="53.2241508" lon="-1.8229788"><ele>389.0</ele><time>2026-04-18T10:36:19.042Z</time></trkpt><trkpt lat="53.2242245" lon="-1.8229348"><ele>388.75</ele><time>2026-04-18T10:36:20.05Z</time></trkpt><trkpt lat="53.2243122" lon="-1.8228714"><ele>388.5</ele><time>2026-04-18T10:36:21.049Z</time></trkpt><trkpt lat="53.224413" lon="-1.8227785"><ele>388.25</ele><time>2026-04-18T10:36:22.05Z</time></trkpt><trkpt lat="53.2245257" lon="-1.8226728"><ele>388.0</ele><time>2026-04-18T10:36:23.052Z</time></trkpt><trkpt lat="53.2246455" lon="-1.8225717"><ele>387.75</ele><time>2026-04-18T10:36:24.052Z</time></trkpt><trkpt lat="53.2247688" lon="-1.8224786"><ele>387.5</ele><time>2026-04-18T10:36:25.052Z</time></trkpt><trkpt lat="53.2248943" lon="-1.8223816"><ele>387.25</ele><time>2026-04-18T10:36:26.052Z</time></trkpt><trkpt lat="53.225025" lon="-1.8222769"><ele>387.0</ele><time>2026-04-18T10:36:27.051Z</time></trkpt><trkpt lat="53.2251668" lon="-1.8221644"><ele>388.0</ele><time>2026-04-18T10:36:28.053Z</time></trkpt><trkpt lat="53.2253192" lon="-1.8220466"><ele>389.0</ele><time>2026-04-18T10:36:29.054Z</time></trkpt><trkpt lat="53.2254831" lon="-1.8219208"><ele>390.0</ele><time>2026-04-18T10:36:30.056Z</time></trkpt><trkpt lat="53.2256595" lon="-1.8217863"><ele>391.33333333333337</ele><time>2026-04-18T10:36:31.056Z</time></trkpt><trkpt lat="53.2258464" lon="-1.8216451"><ele>392.6666666666667</ele><time>2026-04-18T10:36:32.053Z</time></trkpt><trkpt lat="53.226037" lon="-1.8215013"><ele>394.0</ele><time>2026-04-18T10:36:33.055Z</time></trkpt><trkpt lat="53.2262191" lon="-1.8213623"><ele>394.0</ele><time>2026-04-18T10:36:34.048Z</time></trkpt><trkpt lat="53.2263931" lon="-1.8212296"><ele>394.0</ele><time>2026-04-18T10:36:35.056Z</time></trkpt><trkpt lat="53.226552" lon="-1.8211073"><ele>394.0</ele><time>2026-04-18T10:36:36.055Z</time></trkpt><trkpt lat="53.2266915" lon="-1.8209998"><ele>395.0</ele><time>2026-04-18T10:36:37.056Z</time></trkpt><trkpt lat="53.2268164" lon="-1.8209075"><ele>396.0</ele><time>2026-04-18T10:36:38.053Z</time></trkpt><trkpt lat="53.2269375" lon="-1.8208194"><ele>397.0</ele><time>2026-04-18T10:36:39.052Z</time></trkpt><trkpt lat="53.2270539" lon="-1.8207355"><ele>398.0</ele><time>2026-04-18T10:36:40.054Z</time></trkpt><trkpt lat="53.2271617" lon="-1.8206556"><ele>398.0</ele><time>2026-04-18T10:36:41.05Z</time></trkpt><trkpt lat="53.2272554" lon="-1.8205724"><ele>398.0</ele><time>2026-04-18T10:36:42.052Z</time></trkpt><trkpt lat="53.2273382" lon="-1.8204726"><ele>398.0</ele><time>2026-04-18T10:36:43.055Z</time></trkpt><trkpt lat="53.2274104" lon="-1.8203407"><ele>398.0</ele><time>2026-04-18T10:36:44.052Z</time></trkpt><trkpt lat="53.2274719" lon="-1.8201805"><ele>398.0</ele><time>2026-04-18T10:36:45.052Z</time></trkpt><trkpt lat="53.227524" lon="-1.8199922"><ele>398.75</ele><time>2026-04-18T10:36:46.052Z</time></trkpt><trkpt lat="53.2275764" lon="-1.8197827"><ele>399.5</ele><time>2026-04-18T10:36:47.051Z</time></trkpt><trkpt lat="53.2276306" lon="-1.819561"><ele>400.25</ele><time>2026-04-18T10:36:48.053Z</time></trkpt><trkpt lat="53.2276935" lon="-1.8193493"><ele>401.0</ele><time>2026-04-18T10:36:49.052Z</time></trkpt><trkpt lat="53.2277635" lon="-1.8191656"><ele>401.0</ele><time>2026-04-18T10:36:50.053Z</time></trkpt><trkpt lat="53.2278446" lon="-1.8190121"><ele>401.0</ele><time>2026-04-18T10:36:51.053Z</time></trkpt><trkpt lat="53.227937" lon="-1.818877"><ele>401.0</ele><time>2026-04-18T10:36:52.051Z</time></trkpt><trkpt lat="53.2280218" lon="-1.8187409"><ele>401.0</ele><time>2026-04-18T10:36:53.055Z</time></trkpt><trkpt lat="53.2280922" lon="-1.818575"><ele>401.5</ele><time>2026-04-18T10:36:54.052Z</time></trkpt><trkpt lat="53.2281439" lon="-1.818381"><ele>402.0</ele><time>2026-04-18T10:36:55.052Z</time></trkpt><trkpt lat="53.2281709" lon="-1.8181522"><ele>402.5</ele><time>2026-04-18T10:36:56.051Z</time></trkpt><trkpt lat="53.2281797" lon="-1.8179069"><ele>403.0</ele><time>2026-04-18T10:36:57.051Z</time></trkpt><trkpt lat="53.2281917" lon="-1.817669"><ele>403.5</ele><time>2026-04-18T10:36:58.049Z</time></trkpt><trkpt lat="53.2282226" lon="-1.8174378"><ele>404.0</ele><time>2026-04-18T10:36:59.051Z</time></trkpt><trkpt lat="53.2282721" lon="-1.8172145"><ele>404.5</ele><time>2026-04-18T10:37:00.056Z</time></trkpt><trkpt lat="53.2283333" lon="-1.8169965"><ele>405.0</ele><time>2026-04-18T10:37:01.055Z</time></trkpt><trkpt lat="53.2284024" lon="-1.8167823"><ele>405.0</ele><time>2026-04-18T10:37:02.054Z</time></trkpt><trkpt lat="53.22847" lon="-1.8165653"><ele>405.0</ele><time>2026-04-18T10:37:03.052Z</time></trkpt><trkpt lat="53.2285348" lon="-1.8163447"><ele>405.0</ele><time>2026-04-18T10:37:04.053Z</time></trkpt><trkpt lat="53.2285987" lon="-1.8161249"><ele>405.0</ele><time>2026-04-18T10:37:05.055Z</time></trkpt><trkpt lat="53.2286627" lon="-1.8159043"><ele>405.0</ele><time>2026-04-18T10:37:06.055Z</time></trkpt><trkpt lat="53.2287258" lon="-1.8156786"><ele>405.0</ele><time>2026-04-18T10:37:07.054Z</time></trkpt><trkpt lat="53.2287862" lon="-1.8154486"><ele>405.0</ele><time>2026-04-18T10:37:08.054Z</time></trkpt><trkpt lat="53.228841" lon="-1.8152246"><ele>405.0</ele><time>2026-04-18T10:37:09.051Z</time></trkpt><trkpt lat="53.2288871" lon="-1.8150046"><ele>405.0</ele><time>2026-04-18T10:37:10.05Z</time></trkpt><trkpt lat="53.228925" lon="-1.8147743"><ele>405.0</ele><time>2026-04-18T10:37:11.05Z</time></trkpt><trkpt lat="53.2289556" lon="-1.8145312"><ele>405.0</ele><time>2026-04-18T10:37:12.052Z</time></trkpt><trkpt lat="53.2289806" lon="-1.8142762"><ele>405.0</ele><time>2026-04-18T10:37:13.056Z</time></trkpt><trkpt lat="53.229" lon="-1.8140131"><ele>405.66666666666663</ele><time>2026-04-18T10:37:14.052Z</time></trkpt><trkpt lat="53.2290219" lon="-1.8137443"><ele>406.3333333333333</ele><time>2026-04-18T10:37:15.053Z</time></trkpt><trkpt lat="53.2290494" lon="-1.8134707"><ele>407.0</ele><time>2026-04-18T10:37:16.053Z</time></trkpt><trkpt lat="53.2290806" lon="-1.8131963"><ele>407.0</ele><time>2026-04-18T10:37:17.053Z</time></trkpt><trkpt lat="53.2291072" lon="-1.8129456"><ele>407.0</ele><time>2026-04-18T10:37:18.053Z</time></trkpt><trkpt lat="53.2291289" lon="-1.8127548"><ele>407.0</ele><time>2026-04-18T10:37:19.051Z</time></trkpt><trkpt lat="53.2291607" lon="-1.8125965"><ele>407.0</ele><time>2026-04-18T10:37:21.05Z</time></trkpt><trkpt lat="53.2292543" lon="-1.8126149"><ele>407.0</ele><time>2026-04-18T10:37:23.055Z</time></trkpt><trkpt lat="53.2293301" lon="-1.8126719"><ele>407.0</ele><time>2026-04-18T10:37:24.051Z</time></trkpt><trkpt lat="53.2294219" lon="-1.8127419"><ele>407.0</ele><time>2026-04-18T10:37:25.05Z</time></trkpt><trkpt lat="53.2295289" lon="-1.8128066"><ele>407.0</ele><time>2026-04-18T10:37:26.051Z</time></trkpt><trkpt lat="53.22965" lon="-1.812863"><ele>407.0</ele><time>2026-04-18T10:37:27.05Z</time></trkpt><trkpt lat="53.2297785" lon="-1.812923"><ele>409.0</ele><time>2026-04-18T10:37:28.052Z</time></trkpt><trkpt lat="53.2299162" lon="-1.8129827"><ele>411.0</ele><time>2026-04-18T10:37:29.053Z</time></trkpt><trkpt lat="53.2300649" lon="-1.8130431"><ele>413.0</ele><time>2026-04-18T10:37:30.054Z</time></trkpt><trkpt lat="53.2302175" lon="-1.813094"><ele>413.0</ele><time>2026-04-18T10:37:31.049Z</time></trkpt><trkpt lat="53.2303519" lon="-1.8131414"><ele>413.0</ele><time>2026-04-18T10:37:32.048Z</time></trkpt><trkpt lat="53.2304639" lon="-1.8131833"><ele>413.0</ele><time>2026-04-18T10:37:33.051Z</time></trkpt><trkpt lat="53.2305685" lon="-1.8132064"><ele>413.0</ele><time>2026-04-18T10:37:34.05Z</time></trkpt><trkpt lat="53.2306673" lon="-1.8131808"><ele>414.0</ele><time>2026-04-18T10:37:35.051Z</time></trkpt><trkpt lat="53.2307648" lon="-1.8130914"><ele>415.0</ele><time>2026-04-18T10:37:36.05Z</time></trkpt><trkpt lat="53.2308755" lon="-1.8129669"><ele>416.0</ele><time>2026-04-18T10:37:37.05Z</time></trkpt><trkpt lat="53.2309964" lon="-1.8128406"><ele>417.0</ele><time>2026-04-18T10:37:38.049Z</time></trkpt><trkpt lat="53.2311396" lon="-1.8127019"><ele>417.33333333333337</ele><time>2026-04-18T10:37:39.049Z</time></trkpt><trkpt lat="53.2312907" lon="-1.8125577"><ele>417.6666666666667</ele><time>2026-04-18T10:37:40.052Z</time></trkpt><trkpt lat="53.2314552" lon="-1.8124036"><ele>418.0</ele><time>2026-04-18T10:37:41.05Z</time></trkpt><trkpt lat="53.2316255" lon="-1.8122423"><ele>419.0</ele><time>2026-04-18T10:37:42.052Z</time></trkpt><trkpt lat="53.231799" lon="-1.8120806"><ele>420.0</ele><time>2026-04-18T10:37:43.056Z</time></trkpt><trkpt lat="53.231968" lon="-1.8119288"><ele>421.0</ele><time>2026-04-18T10:37:44.054Z</time></trkpt><trkpt lat="53.2321251" lon="-1.8117915"><ele>421.0</ele><time>2026-04-18T10:37:45.052Z</time></trkpt><trkpt lat="53.232273" lon="-1.811662"><ele>421.0</ele><time>2026-04-18T10:37:46.053Z</time></trkpt><trkpt lat="53.2324088" lon="-1.8115444"><ele>421.0</ele><time>2026-04-18T10:37:47.052Z</time></trkpt><trkpt lat="53.2325327" lon="-1.811434"><ele>421.6</ele><time>2026-04-18T10:37:48.052Z</time></trkpt><trkpt lat="53.2326425" lon="-1.8113313"><ele>422.20000000000005</ele><time>2026-04-18T10:37:49.052Z</time></trkpt><trkpt lat="53.2327369" lon="-1.8112409"><ele>422.79999999999995</ele><time>2026-04-18T10:37:50.053Z</time></trkpt><trkpt lat="53.2328197" lon="-1.8111683"><ele>423.4</ele><time>2026-04-18T10:37:51.052Z</time></trkpt><trkpt lat="53.2328918" lon="-1.8111113"><ele>424.0</ele><time>2026-04-18T10:37:52.049Z</time></trkpt><trkpt lat="53.2329595" lon="-1.8110565"><ele>424.00000000000006</ele><time>2026-04-18T10:37:53.054Z</time></trkpt><trkpt lat="53.2330233" lon="-1.811001"><ele>424.0</ele><time>2026-04-18T10:37:54.053Z</time></trkpt><trkpt lat="53.2330902" lon="-1.8109508"><ele>424.0</ele><time>2026-04-18T10:37:55.052Z</time></trkpt><trkpt lat="53.2331732" lon="-1.8109163"><ele>424.0</ele><time>2026-04-18T10:37:56.055Z</time></trkpt><trkpt lat="53.2332805" lon="-1.8108902"><ele>424.00000000000006</ele><time>2026-04-18T10:37:57.051Z</time></trkpt><trkpt lat="53.2333879" lon="-1.8108686"><ele>424.0</ele><time>2026-04-18T10:37:58.052Z</time></trkpt><trkpt lat="53.2334833" lon="-1.810849"><ele>423.83333333333337</ele><time>2026-04-18T10:37:59.052Z</time></trkpt><trkpt lat="53.2335629" lon="-1.8108267"><ele>423.6666666666667</ele><time>2026-04-18T10:38:00.054Z</time></trkpt><trkpt lat="53.2336372" lon="-1.8108003"><ele>423.5</ele><time>2026-04-18T10:38:01.051Z</time></trkpt><trkpt lat="53.2337186" lon="-1.8107712"><ele>423.33333333333337</ele><time>2026-04-18T10:38:02.051Z</time></trkpt><trkpt lat="53.2338086" lon="-1.8107343"><ele>423.1666666666667</ele><time>2026-04-18T10:38:03.054Z</time></trkpt><trkpt lat="53.2339011" lon="-1.8106867"><ele>423.0</ele><time>2026-04-18T10:38:04.05Z</time></trkpt><trkpt lat="53.233984" lon="-1.8106403"><ele>423.0</ele><time>2026-04-18T10:38:05.051Z</time></trkpt><trkpt lat="53.2340618" lon="-1.8105974"><ele>423.0</ele><time>2026-04-18T10:38:06.049Z</time></trkpt><trkpt lat="53.2341465" lon="-1.8105558"><ele>423.0</ele><time>2026-04-18T10:38:07.052Z</time></trkpt><trkpt lat="53.2342386" lon="-1.8105129"><ele>423.0</ele><time>2026-04-18T10:38:08.051Z</time></trkpt><trkpt lat="53.2343329" lon="-1.8104694"><ele>423.0</ele><time>2026-04-18T10:38:09.053Z</time></trkpt><trkpt lat="53.2344242" lon="-1.8104204"><ele>423.0</ele><time>2026-04-18T10:38:10.054Z</time></trkpt><trkpt lat="53.2345153" lon="-1.8103619"><ele>423.0</ele><time>2026-04-18T10:38:11.052Z</time></trkpt><trkpt lat="53.2346198" lon="-1.8102816"><ele>423.0</ele><time>2026-04-18T10:38:12.051Z</time></trkpt><trkpt lat="53.2347308" lon="-1.8101881"><ele>423.0</ele><time>2026-04-18T10:38:13.055Z</time></trkpt><trkpt lat="53.2348331" lon="-1.810109"><ele>423.0</ele><time>2026-04-18T10:38:14.052Z</time></trkpt><trkpt lat="53.2349197" lon="-1.8100482"><ele>423.0</ele><time>2026-04-18T10:38:15.049Z</time></trkpt><trkpt lat="53.2349836" lon="-1.8100134"><ele>423.0</ele><time>2026-04-18T10:38:16.05Z</time></trkpt><trkpt lat="53.2350459" lon="-1.8099974"><ele>423.0</ele><time>2026-04-18T10:38:18.052Z</time></trkpt><trkpt lat="53.2351097" lon="-1.8099621"><ele>423.0</ele><time>2026-04-18T10:38:42.052Z</time></trkpt><trkpt lat="53.2351833" lon="-1.8099603"><ele>423.0</ele><time>2026-04-18T10:39:01.056Z</time></trkpt><trkpt lat="53.2352834" lon="-1.809866"><ele>423.0</ele><time>2026-04-18T10:39:03.058Z</time></trkpt><trkpt lat="53.2353534" lon="-1.8097955"><ele>423.0</ele><time>2026-04-18T10:39:04.054Z</time></trkpt><trkpt lat="53.2354215" lon="-1.8097334"><ele>423.0</ele><time>2026-04-18T10:39:05.053Z</time></trkpt><trkpt lat="53.2354833" lon="-1.8096702"><ele>423.0</ele><time>2026-04-18T10:39:06.054Z</time></trkpt><trkpt lat="53.2355546" lon="-1.809585"><ele>423.0</ele><time>2026-04-18T10:39:07.054Z</time></trkpt><trkpt lat="53.2356316" lon="-1.8094929"><ele>423.0</ele><time>2026-04-18T10:39:08.053Z</time></trkpt><trkpt lat="53.2357036" lon="-1.8094031"><ele>422.3333333333333</ele><time>2026-04-18T10:39:09.054Z</time></trkpt><trkpt lat="53.2357646" lon="-1.8093217"><ele>421.66666666666663</ele><time>2026-04-18T10:39:10.055Z</time></trkpt><trkpt lat="53.2358144" lon="-1.809252"><ele>421.0</ele><time>2026-04-18T10:39:11.054Z</time></trkpt><trkpt lat="53.2358875" lon="-1.8091524"><ele>420.3333333333333</ele><time>2026-04-18T10:39:13.053Z</time></trkpt><trkpt lat="53.2359794" lon="-1.8090817"><ele>419.66666666666663</ele><time>2026-04-18T10:39:15.054Z</time></trkpt><trkpt lat="53.2360439" lon="-1.8090508"><ele>419.0</ele><time>2026-04-18T10:39:16.052Z</time></trkpt><trkpt lat="53.2361089" lon="-1.8090182"><ele>418.99999999999994</ele><time>2026-04-18T10:39:17.053Z</time></trkpt><trkpt lat="53.2361677" lon="-1.8089779"><ele>419.0</ele><time>2026-04-18T10:39:18.054Z</time></trkpt><trkpt lat="53.2362741" lon="-1.8088469"><ele>419.0</ele><time>2026-04-18T10:39:20.053Z</time></trkpt><trkpt lat="53.2363243" lon="-1.8087633"><ele>419.0</ele><time>2026-04-18T10:39:21.053Z</time></trkpt><trkpt lat="53.2363801" lon="-1.8086995"><ele>418.99999999999994</ele><time>2026-04-18T10:39:22.053Z</time></trkpt><trkpt lat="53.2364562" lon="-1.8086792"><ele>419.0</ele><time>2026-04-18T10:39:23.057Z</time></trkpt><trkpt lat="53.2365432" lon="-1.8086962"><ele>417.99999999999994</ele><time>2026-04-18T10:39:24.054Z</time></trkpt><trkpt lat="53.2366259" lon="-1.8087256"><ele>417.0</ele><time>2026-04-18T10:39:25.053Z</time></trkpt><trkpt lat="53.2367074" lon="-1.8087577"><ele>416.0</ele><time>2026-04-18T10:39:26.053Z</time></trkpt><trkpt lat="53.2367839" lon="-1.8087977"><ele>415.0</ele><time>2026-04-18T10:39:27.053Z</time></trkpt><trkpt lat="53.2368582" lon="-1.8088459"><ele>413.99999999999994</ele><time>2026-04-18T10:39:28.053Z</time></trkpt><trkpt lat="53.2369246" lon="-1.8089112"><ele>413.0</ele><time>2026-04-18T10:39:29.051Z</time></trkpt><trkpt lat="53.2369791" lon="-1.808983"><ele>413.0</ele><time>2026-04-18T10:39:30.054Z</time></trkpt><trkpt lat="53.2370525" lon="-1.8091109"><ele>413.0</ele><time>2026-04-18T10:39:32.054Z</time></trkpt><trkpt lat="53.2371141" lon="-1.8091574"><ele>413.0</ele><time>2026-04-18T10:39:34.056Z</time></trkpt><trkpt lat="53.2371607" lon="-1.8090611"><ele>413.0</ele><time>2026-04-18T10:39:36.053Z</time></trkpt><trkpt lat="53.2371438" lon="-1.8088491"><ele>413.0</ele><time>2026-04-18T10:39:38.047Z</time></trkpt><trkpt lat="53.2371106" lon="-1.808721"><ele>412.99999999999994</ele><time>2026-04-18T10:39:39.051Z</time></trkpt><trkpt lat="53.237073" lon="-1.8085917"><ele>413.0</ele><time>2026-04-18T10:39:40.055Z</time></trkpt><trkpt lat="53.2370411" lon="-1.8084887"><ele>413.0</ele><time>2026-04-18T10:39:41.052Z</time></trkpt><trkpt lat="53.2370023" lon="-1.8084042"><ele>413.0</ele><time>2026-04-18T10:39:42.053Z</time></trkpt><trkpt lat="53.2369479" lon="-1.8082512"><ele>412.99999999999994</ele><time>2026-04-18T10:39:44.051Z</time></trkpt><trkpt lat="53.2368884" lon="-1.808167"><ele>413.0</ele><time>2026-04-18T10:39:46.05Z</time></trkpt><trkpt lat="53.2368524" lon="-1.8080614"><ele>412.2</ele><time>2026-04-18T10:40:20.051Z</time></trkpt><trkpt lat="53.2368385" lon="-1.8079578"><ele>411.4</ele><time>2026-04-18T10:40:27.051Z</time></trkpt><trkpt lat="53.2368313" lon="-1.8077068"><ele>410.59999999999997</ele><time>2026-04-18T10:40:29.043Z</time></trkpt><trkpt lat="53.2368225" lon="-1.8075341"><ele>409.79999999999995</ele><time>2026-04-18T10:40:30.055Z</time></trkpt><trkpt lat="53.2368119" lon="-1.8073826"><ele>409.0</ele><time>2026-04-18T10:40:31.052Z</time></trkpt><trkpt lat="53.2368056" lon="-1.8072507"><ele>408.33333333333337</ele><time>2026-04-18T10:40:32.051Z</time></trkpt><trkpt lat="53.2368067" lon="-1.8071188"><ele>407.6666666666667</ele><time>2026-04-18T10:40:33.055Z</time></trkpt><trkpt lat="53.2368231" lon="-1.8069955"><ele>407.0</ele><time>2026-04-18T10:40:34.051Z</time></trkpt><trkpt lat="53.2368633" lon="-1.8068991"><ele>406.33333333333337</ele><time>2026-04-18T10:40:35.049Z</time></trkpt><trkpt lat="53.2369311" lon="-1.806835"><ele>405.6666666666667</ele><time>2026-04-18T10:40:36.047Z</time></trkpt><trkpt lat="53.2370125" lon="-1.8067809"><ele>405.0</ele><time>2026-04-18T10:40:37.051Z</time></trkpt><trkpt lat="53.2370873" lon="-1.8067366"><ele>405.0</ele><time>2026-04-18T10:40:38.053Z</time></trkpt><trkpt lat="53.2371603" lon="-1.8066813"><ele>405.0</ele><time>2026-04-18T10:40:39.05Z</time></trkpt><trkpt lat="53.237228" lon="-1.8066029"><ele>405.0</ele><time>2026-04-18T10:40:40.055Z</time></trkpt><trkpt lat="53.2372955" lon="-1.8065012"><ele>405.0</ele><time>2026-04-18T10:40:41.05Z</time></trkpt><trkpt lat="53.2373614" lon="-1.8063982"><ele>405.0</ele><time>2026-04-18T10:40:42.051Z</time></trkpt><trkpt lat="53.237423" lon="-1.8062816"><ele>405.0</ele><time>2026-04-18T10:40:43.05Z</time></trkpt><trkpt lat="53.2374819" lon="-1.8061397"><ele>401.6</ele><time>2026-04-18T10:40:44.051Z</time></trkpt><trkpt lat="53.237539" lon="-1.8059896"><ele>398.2</ele><time>2026-04-18T10:40:45.044Z</time></trkpt><trkpt lat="53.2375929" lon="-1.8058412"><ele>394.79999999999995</ele><time>2026-04-18T10:40:46.051Z</time></trkpt><trkpt lat="53.2376422" lon="-1.8056758"><ele>391.4</ele><time>2026-04-18T10:40:47.053Z</time></trkpt><trkpt lat="53.2376823" lon="-1.8054985"><ele>388.0</ele><time>2026-04-18T10:40:48.051Z</time></trkpt><trkpt lat="53.2377163" lon="-1.8053287"><ele>388.0</ele><time>2026-04-18T10:40:49.049Z</time></trkpt><trkpt lat="53.2377561" lon="-1.8051705"><ele>388.0</ele><time>2026-04-18T10:40:50.05Z</time></trkpt><trkpt lat="53.2378007" lon="-1.8050257"><ele>388.0</ele><time>2026-04-18T10:40:51.049Z</time></trkpt><trkpt lat="53.2378617" lon="-1.8048949"><ele>388.0</ele><time>2026-04-18T10:40:52.052Z</time></trkpt><trkpt lat="53.2379382" lon="-1.8047713"><ele>388.0</ele><time>2026-04-18T10:40:53.053Z</time></trkpt><trkpt lat="53.2380245" lon="-1.8046543"><ele>389.2</ele><time>2026-04-18T10:40:54.05Z</time></trkpt><trkpt lat="53.2381105" lon="-1.8045398"><ele>390.4</ele><time>2026-04-18T10:40:55.051Z</time></trkpt><trkpt lat="53.2381972" lon="-1.8044208"><ele>391.59999999999997</ele><time>2026-04-18T10:40:56.052Z</time></trkpt><trkpt lat="53.2382856" lon="-1.8043003"><ele>392.79999999999995</ele><time>2026-04-18T10:40:57.053Z</time></trkpt><trkpt lat="53.238378" lon="-1.8041991"><ele>394.0</ele><time>2026-04-18T10:40:58.051Z</time></trkpt><trkpt lat="53.2384776" lon="-1.8041281"><ele>390.0</ele><time>2026-04-18T10:40:59.049Z</time></trkpt><trkpt lat="53.2385755" lon="-1.8040708"><ele>386.0</ele><time>2026-04-18T10:41:00.051Z</time></trkpt><trkpt lat="53.2386686" lon="-1.8040141"><ele>382.0</ele><time>2026-04-18T10:41:01.051Z</time></trkpt><trkpt lat="53.2387618" lon="-1.8039637"><ele>378.0</ele><time>2026-04-18T10:41:02.05Z</time></trkpt><trkpt lat="53.2388572" lon="-1.8039187"><ele>374.0</ele><time>2026-04-18T10:41:03.054Z</time></trkpt><trkpt lat="53.2389527" lon="-1.8038671"><ele>372.6666666666667</ele><time>2026-04-18T10:41:04.053Z</time></trkpt><trkpt lat="53.2390461" lon="-1.8038074"><ele>371.33333333333337</ele><time>2026-04-18T10:41:05.052Z</time></trkpt><trkpt lat="53.2391374" lon="-1.8037403"><ele>370.0</ele><time>2026-04-18T10:41:06.052Z</time></trkpt><trkpt lat="53.2392217" lon="-1.803676"><ele>368.6666666666667</ele><time>2026-04-18T10:41:07.053Z</time></trkpt><trkpt lat="53.2392971" lon="-1.803625"><ele>367.3333333333333</ele><time>2026-04-18T10:41:08.053Z</time></trkpt><trkpt lat="53.2393604" lon="-1.8035939"><ele>366.0</ele><time>2026-04-18T10:41:09.052Z</time></trkpt><trkpt lat="53.2394387" lon="-1.8035555"><ele>366.0</ele><time>2026-04-18T10:41:11.051Z</time></trkpt><trkpt lat="53.2394965" lon="-1.8035005"><ele>366.0</ele><time>2026-04-18T10:41:21.053Z</time></trkpt><trkpt lat="53.2395839" lon="-1.8034672"><ele>366.0</ele><time>2026-04-18T10:41:23.057Z</time></trkpt><trkpt lat="53.2396555" lon="-1.8034536"><ele>366.0</ele><time>2026-04-18T10:41:24.054Z</time></trkpt><trkpt lat="53.2397374" lon="-1.803439"><ele>366.0</ele><time>2026-04-18T10:41:25.051Z</time></trkpt><trkpt lat="53.2398221" lon="-1.8034219"><ele>366.0</ele><time>2026-04-18T10:41:26.052Z</time></trkpt><trkpt lat="53.2399095" lon="-1.8034008"><ele>366.0</ele><time>2026-04-18T10:41:27.053Z</time></trkpt><trkpt lat="53.240007" lon="-1.8033775"><ele>366.0</ele><time>2026-04-18T10:41:28.052Z</time></trkpt><trkpt lat="53.240115" lon="-1.8033443"><ele>366.0</ele><time>2026-04-18T10:41:29.053Z</time></trkpt><trkpt lat="53.2402193" lon="-1.8033102"><ele>366.0</ele><time>2026-04-18T10:41:30.054Z</time></trkpt><trkpt lat="53.2403099" lon="-1.8032807"><ele>366.0</ele><time>2026-04-18T10:41:31.054Z</time></trkpt><trkpt lat="53.2403949" lon="-1.8032485"><ele>366.0</ele><time>2026-04-18T10:41:32.054Z</time></trkpt><trkpt lat="53.2404763" lon="-1.8032139"><ele>366.0</ele><time>2026-04-18T10:41:33.052Z</time></trkpt><trkpt lat="53.2405546" lon="-1.803159"><ele>366.0</ele><time>2026-04-18T10:41:34.054Z</time></trkpt><trkpt lat="53.2406295" lon="-1.8030806"><ele>366.0</ele><time>2026-04-18T10:41:35.053Z</time></trkpt><trkpt lat="53.2406986" lon="-1.8029858"><ele>366.0</ele><time>2026-04-18T10:41:36.051Z</time></trkpt><trkpt lat="53.240767" lon="-1.8028784"><ele>366.0</ele><time>2026-04-18T10:41:37.052Z</time></trkpt><trkpt lat="53.2408355" lon="-1.8027683"><ele>365.8333333333333</ele><time>2026-04-18T10:41:38.051Z</time></trkpt><trkpt lat="53.2408962" lon="-1.8026701"><ele>365.6666666666667</ele><time>2026-04-18T10:41:39.052Z</time></trkpt><trkpt lat="53.2409576" lon="-1.802566"><ele>365.5</ele><time>2026-04-18T10:41:40.054Z</time></trkpt><trkpt lat="53.2410108" lon="-1.8024656"><ele>365.33333333333337</ele><time>2026-04-18T10:41:41.05Z</time></trkpt><trkpt lat="53.2410572" lon="-1.8023604"><ele>365.1666666666667</ele><time>2026-04-18T10:41:42.054Z</time></trkpt><trkpt lat="53.2410984" lon="-1.8022485"><ele>365.0</ele><time>2026-04-18T10:41:43.053Z</time></trkpt><trkpt lat="53.2411369" lon="-1.8021312"><ele>365.0</ele><time>2026-04-18T10:41:44.052Z</time></trkpt><trkpt lat="53.2411714" lon="-1.8020144"><ele>365.0</ele><time>2026-04-18T10:41:45.053Z</time></trkpt><trkpt lat="53.2412078" lon="-1.8018937"><ele>365.0</ele><time>2026-04-18T10:41:46.055Z</time></trkpt><trkpt lat="53.2412462" lon="-1.8017692"><ele>365.0</ele><time>2026-04-18T10:41:47.054Z</time></trkpt><trkpt lat="53.2412848" lon="-1.8016399"><ele>365.0</ele><time>2026-04-18T10:41:48.052Z</time></trkpt><trkpt lat="53.241322" lon="-1.8015104"><ele>365.0</ele><time>2026-04-18T10:41:49.056Z</time></trkpt><trkpt lat="53.2413563" lon="-1.801378"><ele>364.83333333333337</ele><time>2026-04-18T10:41:50.052Z</time></trkpt><trkpt lat="53.2413889" lon="-1.8012401"><ele>364.6666666666667</ele><time>2026-04-18T10:41:51.051Z</time></trkpt><trkpt lat="53.2414176" lon="-1.8011037"><ele>364.5</ele><time>2026-04-18T10:41:52.055Z</time></trkpt><trkpt lat="53.2414423" lon="-1.8009742"><ele>364.3333333333333</ele><time>2026-04-18T10:41:53.052Z</time></trkpt><trkpt lat="53.2414693" lon="-1.8008555"><ele>364.16666666666663</ele><time>2026-04-18T10:41:54.051Z</time></trkpt><trkpt lat="53.2414947" lon="-1.8007533"><ele>364.0</ele><time>2026-04-18T10:41:55.052Z</time></trkpt><trkpt lat="53.2415376" lon="-1.8005796"><ele>362.6</ele><time>2026-04-18T10:41:57.052Z</time></trkpt><trkpt lat="53.2415685" lon="-1.8004479"><ele>361.2</ele><time>2026-04-18T10:41:59.051Z</time></trkpt><trkpt lat="53.2416223" lon="-1.8003696"><ele>359.8</ele><time>2026-04-18T10:42:01.053Z</time></trkpt><trkpt lat="53.2417439" lon="-1.8004101"><ele>358.40000000000003</ele><time>2026-04-18T10:42:03.052Z</time></trkpt><trkpt lat="53.2418202" lon="-1.8004855"><ele>357.0</ele><time>2026-04-18T10:42:04.051Z</time></trkpt><trkpt lat="53.2419115" lon="-1.8005647"><ele>357.0</ele><time>2026-04-18T10:42:05.053Z</time></trkpt><trkpt lat="53.2420084" lon="-1.8006456"><ele>357.0</ele><time>2026-04-18T10:42:06.054Z</time></trkpt><trkpt lat="53.242112" lon="-1.8007266"><ele>357.0</ele><time>2026-04-18T10:42:07.054Z</time></trkpt><trkpt lat="53.2422147" lon="-1.8008066"><ele>357.0</ele><time>2026-04-18T10:42:08.054Z</time></trkpt><trkpt lat="53.2423092" lon="-1.8008818"><ele>357.0</ele><time>2026-04-18T10:42:09.056Z</time></trkpt><trkpt lat="53.24239" lon="-1.8009483"><ele>356.8</ele><time>2026-04-18T10:42:10.056Z</time></trkpt><trkpt lat="53.2424651" lon="-1.8009971"><ele>356.6</ele><time>2026-04-18T10:42:11.05Z</time></trkpt><trkpt lat="53.2425448" lon="-1.8010456"><ele>356.40000000000003</ele><time>2026-04-18T10:42:12.052Z</time></trkpt><trkpt lat="53.2426326" lon="-1.8011026"><ele>356.20000000000005</ele><time>2026-04-18T10:42:13.057Z</time></trkpt><trkpt lat="53.242732" lon="-1.8011636"><ele>356.0</ele><time>2026-04-18T10:42:14.052Z</time></trkpt><trkpt lat="53.2428402" lon="-1.8012336"><ele>355.5</ele><time>2026-04-18T10:42:15.051Z</time></trkpt><trkpt lat="53.2429464" lon="-1.8013119"><ele>355.0</ele><time>2026-04-18T10:42:16.052Z</time></trkpt><trkpt lat="53.2430538" lon="-1.8013963"><ele>354.5</ele><time>2026-04-18T10:42:17.05Z</time></trkpt><trkpt lat="53.2431555" lon="-1.8014882"><ele>354.0</ele><time>2026-04-18T10:42:18.053Z</time></trkpt><trkpt lat="53.2432543" lon="-1.8015787"><ele>353.4</ele><time>2026-04-18T10:42:19.051Z</time></trkpt><trkpt lat="53.2433502" lon="-1.8016621"><ele>352.79999999999995</ele><time>2026-04-18T10:42:20.053Z</time></trkpt><trkpt lat="53.2434475" lon="-1.8017328"><ele>352.20000000000005</ele><time>2026-04-18T10:42:21.052Z</time></trkpt><trkpt lat="53.2435396" lon="-1.8017933"><ele>351.6</ele><time>2026-04-18T10:42:22.053Z</time></trkpt><trkpt lat="53.2436212" lon="-1.8018455"><ele>351.0</ele><time>2026-04-18T10:42:23.054Z</time></trkpt><trkpt lat="53.2436948" lon="-1.8018865"><ele>350.0</ele><time>2026-04-18T10:42:24.051Z</time></trkpt><trkpt lat="53.2437686" lon="-1.8019185"><ele>349.0</ele><time>2026-04-18T10:42:25.051Z</time></trkpt><trkpt lat="53.2438464" lon="-1.8019405"><ele>348.0</ele><time>2026-04-18T10:42:26.052Z</time></trkpt><trkpt lat="53.243925" lon="-1.8019589"><ele>347.0</ele><time>2026-04-18T10:42:27.05Z</time></trkpt><trkpt lat="53.2440068" lon="-1.801981"><ele>346.0</ele><time>2026-04-18T10:42:28.05Z</time></trkpt><trkpt lat="53.2440876" lon="-1.8020086"><ele>345.0</ele><time>2026-04-18T10:42:29.051Z</time></trkpt><trkpt lat="53.2441685" lon="-1.8020327"><ele>344.6</ele><time>2026-04-18T10:42:30.054Z</time></trkpt><trkpt lat="53.2442555" lon="-1.8020458"><ele>344.2</ele><time>2026-04-18T10:42:31.054Z</time></trkpt><trkpt lat="53.2443479" lon="-1.8020601"><ele>343.79999999999995</ele><time>2026-04-18T10:42:32.054Z</time></trkpt><trkpt lat="53.2444431" lon="-1.8020859"><ele>343.4</ele><time>2026-04-18T10:42:33.056Z</time></trkpt><trkpt lat="53.2445391" lon="-1.8021103"><ele>343.0</ele><time>2026-04-18T10:42:34.053Z</time></trkpt><trkpt lat="53.244636" lon="-1.8021313"><ele>343.0</ele><time>2026-04-18T10:42:35.053Z</time></trkpt><trkpt lat="53.2447327" lon="-1.8021474"><ele>343.0</ele><time>2026-04-18T10:42:36.052Z</time></trkpt><trkpt lat="53.2448254" lon="-1.8021642"><ele>343.0</ele><time>2026-04-18T10:42:37.051Z</time></trkpt><trkpt lat="53.2449103" lon="-1.80218"><ele>343.0</ele><time>2026-04-18T10:42:38.052Z</time></trkpt><trkpt lat="53.2449888" lon="-1.8021918"><ele>343.0</ele><time>2026-04-18T10:42:39.053Z</time></trkpt><trkpt lat="53.2450642" lon="-1.8021959"><ele>343.0</ele><time>2026-04-18T10:42:40.053Z</time></trkpt><trkpt lat="53.2451355" lon="-1.8022014"><ele>341.66666666666663</ele><time>2026-04-18T10:42:41.052Z</time></trkpt><trkpt lat="53.2452063" lon="-1.8022086"><ele>340.3333333333333</ele><time>2026-04-18T10:42:42.052Z</time></trkpt><trkpt lat="53.2452826" lon="-1.8022086"><ele>339.0</ele><time>2026-04-18T10:42:43.055Z</time></trkpt><trkpt lat="53.245365" lon="-1.8022036"><ele>337.6666666666667</ele><time>2026-04-18T10:42:44.05Z</time></trkpt><trkpt lat="53.2454462" lon="-1.8022078"><ele>336.33333333333337</ele><time>2026-04-18T10:42:45.051Z</time></trkpt><trkpt lat="53.245524" lon="-1.8022192"><ele>335.0</ele><time>2026-04-18T10:42:46.051Z</time></trkpt><trkpt lat="53.2456019" lon="-1.8022302"><ele>333.83333333333337</ele><time>2026-04-18T10:42:47.049Z</time></trkpt><trkpt lat="53.2456849" lon="-1.8022397"><ele>332.6666666666667</ele><time>2026-04-18T10:42:48.049Z</time></trkpt><trkpt lat="53.2457756" lon="-1.8022473"><ele>331.5</ele><time>2026-04-18T10:42:49.048Z</time></trkpt><trkpt lat="53.2458697" lon="-1.8022505"><ele>330.3333333333333</ele><time>2026-04-18T10:42:50.051Z</time></trkpt><trkpt lat="53.2459587" lon="-1.8022478"><ele>329.16666666666663</ele><time>2026-04-18T10:42:51.047Z</time></trkpt><trkpt lat="53.2460453" lon="-1.8022448"><ele>328.0</ele><time>2026-04-18T10:42:52.05Z</time></trkpt><trkpt lat="53.2461332" lon="-1.8022392"><ele>328.0</ele><time>2026-04-18T10:42:53.05Z</time></trkpt><trkpt lat="53.2462181" lon="-1.8022391"><ele>328.0</ele><time>2026-04-18T10:42:54.053Z</time></trkpt><trkpt lat="53.2462985" lon="-1.8022427"><ele>328.0</ele><time>2026-04-18T10:42:55.051Z</time></trkpt><trkpt lat="53.2463675" lon="-1.802245"><ele>328.0</ele><time>2026-04-18T10:42:56.051Z</time></trkpt><trkpt lat="53.2464914" lon="-1.8022644"><ele>328.0</ele><time>2026-04-18T10:42:58.047Z</time></trkpt><trkpt lat="53.2465555" lon="-1.802274"><ele>328.0</ele><time>2026-04-18T10:42:59.053Z</time></trkpt><trkpt lat="53.2466282" lon="-1.8022689"><ele>326.4</ele><time>2026-04-18T10:43:00.052Z</time></trkpt><trkpt lat="53.2467128" lon="-1.8022471"><ele>324.79999999999995</ele><time>2026-04-18T10:43:01.057Z</time></trkpt><trkpt lat="53.2468049" lon="-1.8022183"><ele>323.2</ele><time>2026-04-18T10:43:02.051Z</time></trkpt><trkpt lat="53.2469003" lon="-1.8021852"><ele>321.6</ele><time>2026-04-18T10:43:03.056Z</time></trkpt><trkpt lat="53.2469929" lon="-1.8021468"><ele>320.0</ele><time>2026-04-18T10:43:04.053Z</time></trkpt><trkpt lat="53.2470827" lon="-1.8021051"><ele>320.0</ele><time>2026-04-18T10:43:05.054Z</time></trkpt><trkpt lat="53.2471737" lon="-1.8020714"><ele>320.0</ele><time>2026-04-18T10:43:06.055Z</time></trkpt><trkpt lat="53.2472648" lon="-1.8020426"><ele>320.0</ele><time>2026-04-18T10:43:07.051Z</time></trkpt><trkpt lat="53.2473564" lon="-1.802018"><ele>320.0</ele><time>2026-04-18T10:43:08.052Z</time></trkpt><trkpt lat="53.2474465" lon="-1.8019892"><ele>320.0</ele><time>2026-04-18T10:43:09.056Z</time></trkpt><trkpt lat="53.2475346" lon="-1.8019581"><ele>317.8</ele><time>2026-04-18T10:43:10.059Z</time></trkpt><trkpt lat="53.2476194" lon="-1.8019305"><ele>315.6</ele><time>2026-04-18T10:43:11.054Z</time></trkpt><trkpt lat="53.2477057" lon="-1.8019024"><ele>313.4</ele><time>2026-04-18T10:43:12.05Z</time></trkpt><trkpt lat="53.2477965" lon="-1.8018769"><ele>311.2</ele><time>2026-04-18T10:43:13.051Z</time></trkpt><trkpt lat="53.2478904" lon="-1.8018577"><ele>309.0</ele><time>2026-04-18T10:43:14.051Z</time></trkpt><trkpt lat="53.2479843" lon="-1.801843"><ele>309.2</ele><time>2026-04-18T10:43:15.049Z</time></trkpt><trkpt lat="53.2480764" lon="-1.8018245"><ele>309.4</ele><time>2026-04-18T10:43:16.05Z</time></trkpt><trkpt lat="53.2481679" lon="-1.8018022"><ele>309.6</ele><time>2026-04-18T10:43:17.053Z</time></trkpt><trkpt lat="53.2482611" lon="-1.8017874"><ele>309.8</ele><time>2026-04-18T10:43:18.054Z</time></trkpt><trkpt lat="53.2483559" lon="-1.8017639"><ele>310.0</ele><time>2026-04-18T10:43:19.049Z</time></trkpt><trkpt lat="53.2484508" lon="-1.8017344"><ele>308.2</ele><time>2026-04-18T10:43:20.051Z</time></trkpt><trkpt lat="53.2485422" lon="-1.8017055"><ele>306.4</ele><time>2026-04-18T10:43:21.05Z</time></trkpt><trkpt lat="53.2486295" lon="-1.8016894"><ele>304.6</ele><time>2026-04-18T10:43:22.051Z</time></trkpt><trkpt lat="53.2487195" lon="-1.8016833"><ele>302.8</ele><time>2026-04-18T10:43:23.05Z</time></trkpt><trkpt lat="53.2488113" lon="-1.8016772"><ele>301.0</ele><time>2026-04-18T10:43:24.051Z</time></trkpt><trkpt lat="53.2489011" lon="-1.8016656"><ele>300.0</ele><time>2026-04-18T10:43:25.051Z</time></trkpt><trkpt lat="53.248985" lon="-1.8016559"><ele>299.0</ele><time>2026-04-18T10:43:26.054Z</time></trkpt><trkpt lat="53.2490648" lon="-1.8016559"><ele>298.0</ele><time>2026-04-18T10:43:27.051Z</time></trkpt><trkpt lat="53.2491433" lon="-1.8016541"><ele>297.0</ele><time>2026-04-18T10:43:28.055Z</time></trkpt><trkpt lat="53.2492255" lon="-1.8016434"><ele>296.0</ele><time>2026-04-18T10:43:29.043Z</time></trkpt><trkpt lat="53.2493202" lon="-1.8016254"><ele>295.0</ele><time>2026-04-18T10:43:30.052Z</time></trkpt><trkpt lat="53.2494196" lon="-1.8016073"><ele>295.0</ele><time>2026-04-18T10:43:31.056Z</time></trkpt><trkpt lat="53.249514" lon="-1.8015866"><ele>295.0</ele><time>2026-04-18T10:43:32.051Z</time></trkpt><trkpt lat="53.2495934" lon="-1.8015722"><ele>295.0</ele><time>2026-04-18T10:43:33.053Z</time></trkpt><trkpt lat="53.2496639" lon="-1.8015602"><ele>295.0</ele><time>2026-04-18T10:43:34.046Z</time></trkpt><trkpt lat="53.2497365" lon="-1.8015501"><ele>295.0</ele><time>2026-04-18T10:43:35.051Z</time></trkpt><trkpt lat="53.2498169" lon="-1.8015453"><ele>295.0</ele><time>2026-04-18T10:43:36.055Z</time></trkpt><trkpt lat="53.2499112" lon="-1.8015348"><ele>293.8</ele><time>2026-04-18T10:43:37.052Z</time></trkpt><trkpt lat="53.2500061" lon="-1.801538"><ele>292.6</ele><time>2026-04-18T10:43:38.053Z</time></trkpt><trkpt lat="53.2501045" lon="-1.8015429"><ele>291.4</ele><time>2026-04-18T10:43:39.051Z</time></trkpt><trkpt lat="53.2502015" lon="-1.8015503"><ele>290.2</ele><time>2026-04-18T10:43:40.054Z</time></trkpt><trkpt lat="53.2502927" lon="-1.8015634"><ele>289.0</ele><time>2026-04-18T10:43:41.05Z</time></trkpt><trkpt lat="53.2503876" lon="-1.8015739"><ele>289.0</ele><time>2026-04-18T10:43:42.05Z</time></trkpt><trkpt lat="53.2504885" lon="-1.801585"><ele>289.0</ele><time>2026-04-18T10:43:43.052Z</time></trkpt><trkpt lat="53.2505845" lon="-1.8015981"><ele>289.0</ele><time>2026-04-18T10:43:44.05Z</time></trkpt><trkpt lat="53.2506692" lon="-1.801612"><ele>289.0</ele><time>2026-04-18T10:43:45.05Z</time></trkpt><trkpt lat="53.2507437" lon="-1.8016206"><ele>289.0</ele><time>2026-04-18T10:43:46.05Z</time></trkpt><trkpt lat="53.2508102" lon="-1.801625"><ele>289.0</ele><time>2026-04-18T10:43:47.049Z</time></trkpt><trkpt lat="53.2508761" lon="-1.8016223"><ele>287.8</ele><time>2026-04-18T10:43:48.051Z</time></trkpt><trkpt lat="53.2509491" lon="-1.8016093"><ele>286.59999999999997</ele><time>2026-04-18T10:43:49.054Z</time></trkpt><trkpt lat="53.2510394" lon="-1.8015924"><ele>285.4</ele><time>2026-04-18T10:43:50.051Z</time></trkpt><trkpt lat="53.2511395" lon="-1.8015893"><ele>284.2</ele><time>2026-04-18T10:43:51.054Z</time></trkpt><trkpt lat="53.2512532" lon="-1.8015762"><ele>283.0</ele><time>2026-04-18T10:43:52.053Z</time></trkpt><trkpt lat="53.2513601" lon="-1.8015686"><ele>283.0</ele><time>2026-04-18T10:43:53.051Z</time></trkpt><trkpt lat="53.2514558" lon="-1.8015647"><ele>283.0</ele><time>2026-04-18T10:43:54.053Z</time></trkpt><trkpt lat="53.2515454" lon="-1.8015587"><ele>283.0</ele><time>2026-04-18T10:43:55.052Z</time></trkpt><trkpt lat="53.2516354" lon="-1.8015506"><ele>283.0</ele><time>2026-04-18T10:43:56.053Z</time></trkpt><trkpt lat="53.2517294" lon="-1.8015505"><ele>283.0</ele><time>2026-04-18T10:43:57.049Z</time></trkpt><trkpt lat="53.2518379" lon="-1.8015467"><ele>282.66666666666663</ele><time>2026-04-18T10:43:58.052Z</time></trkpt><trkpt lat="53.2519371" lon="-1.8015574"><ele>282.3333333333333</ele><time>2026-04-18T10:43:59.051Z</time></trkpt><trkpt lat="53.2520132" lon="-1.8015731"><ele>282.0</ele><time>2026-04-18T10:44:00.053Z</time></trkpt><trkpt lat="53.2520976" lon="-1.801571"><ele>281.6666666666667</ele><time>2026-04-18T10:44:02.053Z</time></trkpt><trkpt lat="53.2521381" lon="-1.8014489"><ele>281.33333333333337</ele><time>2026-04-18T10:44:04.052Z</time></trkpt><trkpt lat="53.2521646" lon="-1.8013366"><ele>281.0</ele><time>2026-04-18T10:44:05.053Z</time></trkpt><trkpt lat="53.2521865" lon="-1.8011915"><ele>281.0</ele><time>2026-04-18T10:44:06.055Z</time></trkpt><trkpt lat="53.2521959" lon="-1.8010263"><ele>281.0</ele><time>2026-04-18T10:44:07.053Z</time></trkpt><trkpt lat="53.2521944" lon="-1.8008574"><ele>281.0</ele><time>2026-04-18T10:44:08.044Z</time></trkpt><trkpt lat="53.2522012" lon="-1.8006893"><ele>281.0</ele><time>2026-04-18T10:44:09.052Z</time></trkpt><trkpt lat="53.2522229" lon="-1.8005209"><ele>281.0</ele><time>2026-04-18T10:44:10.054Z</time></trkpt><trkpt lat="53.2522486" lon="-1.8003514"><ele>282.40000000000003</ele><time>2026-04-18T10:44:11.053Z</time></trkpt><trkpt lat="53.2522537" lon="-1.8001735"><ele>283.8</ele><time>2026-04-18T10:44:12.052Z</time></trkpt><trkpt lat="53.2522554" lon="-1.7999957"><ele>285.20000000000005</ele><time>2026-04-18T10:44:13.055Z</time></trkpt><trkpt lat="53.2522614" lon="-1.7998131"><ele>286.6</ele><time>2026-04-18T10:44:14.053Z</time></trkpt><trkpt lat="53.2522758" lon="-1.7996319"><ele>288.0</ele><time>2026-04-18T10:44:15.051Z</time></trkpt><trkpt lat="53.2522936" lon="-1.7994406"><ele>289.75</ele><time>2026-04-18T10:44:16.053Z</time></trkpt><trkpt lat="53.2523101" lon="-1.7992419"><ele>291.5</ele><time>2026-04-18T10:44:17.052Z</time></trkpt><trkpt lat="53.2523216" lon="-1.7990537"><ele>293.25</ele><time>2026-04-18T10:44:18.044Z</time></trkpt><trkpt lat="53.252331" lon="-1.7988731"><ele>295.0</ele><time>2026-04-18T10:44:19.05Z</time></trkpt><trkpt lat="53.2523442" lon="-1.7986916"><ele>295.0</ele><time>2026-04-18T10:44:20.051Z</time></trkpt><trkpt lat="53.2523705" lon="-1.7985102"><ele>295.0</ele><time>2026-04-18T10:44:21.054Z</time></trkpt><trkpt lat="53.2524121" lon="-1.7983393"><ele>295.0</ele><time>2026-04-18T10:44:22.052Z</time></trkpt><trkpt lat="53.2524648" lon="-1.7981776"><ele>295.0</ele><time>2026-04-18T10:44:23.051Z</time></trkpt><trkpt lat="53.2525353" lon="-1.7980264"><ele>295.0</ele><time>2026-04-18T10:44:24.054Z</time></trkpt><trkpt lat="53.2526156" lon="-1.7978832"><ele>296.8333333333333</ele><time>2026-04-18T10:44:25.052Z</time></trkpt><trkpt lat="53.2526889" lon="-1.7977566"><ele>298.66666666666663</ele><time>2026-04-18T10:44:26.054Z</time></trkpt><trkpt lat="53.2527462" lon="-1.7976534"><ele>300.5</ele><time>2026-04-18T10:44:27.051Z</time></trkpt><trkpt lat="53.2527819" lon="-1.7975544"><ele>302.3333333333333</ele><time>2026-04-18T10:44:28.056Z</time></trkpt><trkpt lat="53.2527807" lon="-1.797441"><ele>304.1666666666667</ele><time>2026-04-18T10:44:29.053Z</time></trkpt><trkpt lat="53.2527398" lon="-1.7973386"><ele>306.0</ele><time>2026-04-18T10:44:30.054Z</time></trkpt><trkpt lat="53.2526426" lon="-1.7972977"><ele>307.75</ele><time>2026-04-18T10:44:31.052Z</time></trkpt><trkpt lat="53.2525269" lon="-1.7973005"><ele>309.5</ele><time>2026-04-18T10:44:32.055Z</time></trkpt><trkpt lat="53.2524139" lon="-1.7973289"><ele>311.25</ele><time>2026-04-18T10:44:33.06Z</time></trkpt><trkpt lat="53.2523064" lon="-1.7973904"><ele>313.0</ele><time>2026-04-18T10:44:34.049Z</time></trkpt><trkpt lat="53.2522161" lon="-1.797499"><ele>314.25</ele><time>2026-04-18T10:44:35.055Z</time></trkpt><trkpt lat="53.2521339" lon="-1.7976419"><ele>315.5</ele><time>2026-04-18T10:44:36.054Z</time></trkpt><trkpt lat="53.2520428" lon="-1.7977822"><ele>316.75</ele><time>2026-04-18T10:44:37.054Z</time></trkpt><trkpt lat="53.2519465" lon="-1.7979043"><ele>318.0</ele><time>2026-04-18T10:44:38.056Z</time></trkpt><trkpt lat="53.2518587" lon="-1.7979888"><ele>318.0</ele><time>2026-04-18T10:44:39.056Z</time></trkpt><trkpt lat="53.2517853" lon="-1.7980343"><ele>318.0</ele><time>2026-04-18T10:44:40.054Z</time></trkpt><trkpt lat="53.2516855" lon="-1.7979577"><ele>318.0</ele><time>2026-04-18T10:44:42.056Z</time></trkpt><trkpt lat="53.2516664" lon="-1.7978241"><ele>318.0</ele><time>2026-04-18T10:44:43.055Z</time></trkpt><trkpt lat="53.2516562" lon="-1.7976684"><ele>318.0</ele><time>2026-04-18T10:44:44.057Z</time></trkpt><trkpt lat="53.2516396" lon="-1.7974951"><ele>318.4</ele><time>2026-04-18T10:44:45.053Z</time></trkpt><trkpt lat="53.2516102" lon="-1.7973223"><ele>318.8</ele><time>2026-04-18T10:44:46.054Z</time></trkpt><trkpt lat="53.2515809" lon="-1.7971551"><ele>319.2</ele><time>2026-04-18T10:44:47.051Z</time></trkpt><trkpt lat="53.2515551" lon="-1.7970023"><ele>319.6</ele><time>2026-04-18T10:44:48.055Z</time></trkpt><trkpt lat="53.2515316" lon="-1.7968598"><ele>320.0</ele><time>2026-04-18T10:44:49.051Z</time></trkpt><trkpt lat="53.251505" lon="-1.7967136"><ele>320.0</ele><time>2026-04-18T10:44:50.055Z</time></trkpt><trkpt lat="53.2514741" lon="-1.7965619"><ele>320.0</ele><time>2026-04-18T10:44:51.052Z</time></trkpt><trkpt lat="53.2514416" lon="-1.7963962"><ele>320.0</ele><time>2026-04-18T10:44:52.05Z</time></trkpt><trkpt lat="53.2514087" lon="-1.7962309"><ele>320.0</ele><time>2026-04-18T10:44:53.053Z</time></trkpt><trkpt lat="53.2513781" lon="-1.7960727"><ele>320.0</ele><time>2026-04-18T10:44:54.052Z</time></trkpt><trkpt lat="53.2513486" lon="-1.7959313"><ele>321.6</ele><time>2026-04-18T10:44:55.051Z</time></trkpt><trkpt lat="53.2513214" lon="-1.7958062"><ele>323.2</ele><time>2026-04-18T10:44:56.05Z</time></trkpt><trkpt lat="53.2512857" lon="-1.7956859"><ele>324.79999999999995</ele><time>2026-04-18T10:44:57.051Z</time></trkpt><trkpt lat="53.2512389" lon="-1.7955556"><ele>326.4</ele><time>2026-04-18T10:44:58.046Z</time></trkpt><trkpt lat="53.2511774" lon="-1.7954039"><ele>328.0</ele><time>2026-04-18T10:44:59.052Z</time></trkpt><trkpt lat="53.2510977" lon="-1.7952327"><ele>327.25</ele><time>2026-04-18T10:45:00.051Z</time></trkpt><trkpt lat="53.2510154" lon="-1.7950608"><ele>326.5</ele><time>2026-04-18T10:45:01.052Z</time></trkpt><trkpt lat="53.2509395" lon="-1.79491"><ele>325.75</ele><time>2026-04-18T10:45:02.053Z</time></trkpt><trkpt lat="53.250863" lon="-1.7947783"><ele>325.0</ele><time>2026-04-18T10:45:03.055Z</time></trkpt><trkpt lat="53.2507939" lon="-1.7946545"><ele>325.0</ele><time>2026-04-18T10:45:04.054Z</time></trkpt><trkpt lat="53.2507372" lon="-1.7945362"><ele>325.0</ele><time>2026-04-18T10:45:05.049Z</time></trkpt><trkpt lat="53.2506888" lon="-1.7944003"><ele>325.0</ele><time>2026-04-18T10:45:06.05Z</time></trkpt><trkpt lat="53.250641" lon="-1.7942533"><ele>325.0</ele><time>2026-04-18T10:45:07.05Z</time></trkpt><trkpt lat="53.2505967" lon="-1.7940908"><ele>325.0</ele><time>2026-04-18T10:45:08.049Z</time></trkpt><trkpt lat="53.2505576" lon="-1.7939333"><ele>325.4</ele><time>2026-04-18T10:45:09.051Z</time></trkpt><trkpt lat="53.250528" lon="-1.7937665"><ele>325.8</ele><time>2026-04-18T10:45:10.054Z</time></trkpt><trkpt lat="53.2505047" lon="-1.7935984"><ele>326.20000000000005</ele><time>2026-04-18T10:45:11.05Z</time></trkpt><trkpt lat="53.2504863" lon="-1.7934404"><ele>326.6</ele><time>2026-04-18T10:45:12.051Z</time></trkpt><trkpt lat="53.2504784" lon="-1.7932904"><ele>327.0</ele><time>2026-04-18T10:45:13.052Z</time></trkpt><trkpt lat="53.2504765" lon="-1.7931575"><ele>327.0</ele><time>2026-04-18T10:45:14.054Z</time></trkpt><trkpt lat="53.2504574" lon="-1.7930552"><ele>327.0</ele><time>2026-04-18T10:45:15.052Z</time></trkpt><trkpt lat="53.2504035" lon="-1.7929748"><ele>327.0</ele><time>2026-04-18T10:45:16.054Z</time></trkpt><trkpt lat="53.2503142" lon="-1.7928983"><ele>327.0</ele><time>2026-04-18T10:45:17.054Z</time></trkpt><trkpt lat="53.2502043" lon="-1.7928064"><ele>327.0</ele><time>2026-04-18T10:45:18.052Z</time></trkpt><trkpt lat="53.2500776" lon="-1.7927005"><ele>327.3333333333333</ele><time>2026-04-18T10:45:19.052Z</time></trkpt><trkpt lat="53.2499365" lon="-1.7925779"><ele>327.66666666666663</ele><time>2026-04-18T10:45:20.059Z</time></trkpt><trkpt lat="53.2497795" lon="-1.792453"><ele>328.0</ele><time>2026-04-18T10:45:21.059Z</time></trkpt><trkpt lat="53.2496084" lon="-1.7923186"><ele>328.0</ele><time>2026-04-18T10:45:22.058Z</time></trkpt><trkpt lat="53.2494332" lon="-1.792182"><ele>328.0</ele><time>2026-04-18T10:45:23.055Z</time></trkpt><trkpt lat="53.2492646" lon="-1.7920466"><ele>328.0</ele><time>2026-04-18T10:45:24.054Z</time></trkpt><trkpt lat="53.249098" lon="-1.7919352"><ele>328.0</ele><time>2026-04-18T10:45:25.054Z</time></trkpt><trkpt lat="53.2489373" lon="-1.7918472"><ele>328.0</ele><time>2026-04-18T10:45:26.06Z</time></trkpt><trkpt lat="53.2487744" lon="-1.791778"><ele>328.0</ele><time>2026-04-18T10:45:27.059Z</time></trkpt><trkpt lat="53.2485985" lon="-1.7917229"><ele>328.0</ele><time>2026-04-18T10:45:28.058Z</time></trkpt><trkpt lat="53.248411" lon="-1.7916754"><ele>328.0</ele><time>2026-04-18T10:45:29.056Z</time></trkpt><trkpt lat="53.2482286" lon="-1.7916425"><ele>328.0</ele><time>2026-04-18T10:45:30.05Z</time></trkpt><trkpt lat="53.2480678" lon="-1.7916246"><ele>328.0</ele><time>2026-04-18T10:45:31.054Z</time></trkpt><trkpt lat="53.2479315" lon="-1.7916155"><ele>328.0</ele><time>2026-04-18T10:45:32.052Z</time></trkpt><trkpt lat="53.2478145" lon="-1.7916073"><ele>328.0</ele><time>2026-04-18T10:45:33.052Z</time></trkpt><trkpt lat="53.2477058" lon="-1.791594"><ele>328.0</ele><time>2026-04-18T10:45:34.051Z</time></trkpt><trkpt lat="53.2475935" lon="-1.7915852"><ele>328.0</ele><time>2026-04-18T10:45:35.053Z</time></trkpt><trkpt lat="53.2474735" lon="-1.7916075"><ele>328.0</ele><time>2026-04-18T10:45:36.051Z</time></trkpt><trkpt lat="53.2473545" lon="-1.7916532"><ele>328.0</ele><time>2026-04-18T10:45:37.051Z</time></trkpt><trkpt lat="53.2472439" lon="-1.7916955"><ele>328.0</ele><time>2026-04-18T10:45:38.051Z</time></trkpt><trkpt lat="53.2471463" lon="-1.7917257"><ele>327.8333333333333</ele><time>2026-04-18T10:45:39.05Z</time></trkpt><trkpt lat="53.2470646" lon="-1.7917557"><ele>327.66666666666663</ele><time>2026-04-18T10:45:40.051Z</time></trkpt><trkpt lat="53.2469929" lon="-1.791782"><ele>327.5</ele><time>2026-04-18T10:45:41.049Z</time></trkpt><trkpt lat="53.2469252" lon="-1.7917829"><ele>327.3333333333333</ele><time>2026-04-18T10:45:42.049Z</time></trkpt><trkpt lat="53.2468531" lon="-1.7917697"><ele>327.1666666666667</ele><time>2026-04-18T10:45:43.057Z</time></trkpt><trkpt lat="53.246772" lon="-1.7917609"><ele>327.0</ele><time>2026-04-18T10:45:44.055Z</time></trkpt><trkpt lat="53.2466781" lon="-1.7917599"><ele>327.0</ele><time>2026-04-18T10:45:45.052Z</time></trkpt><trkpt lat="53.2465757" lon="-1.791775"><ele>327.0</ele><time>2026-04-18T10:45:46.053Z</time></trkpt><trkpt lat="53.2464653" lon="-1.7917941"><ele>327.0</ele><time>2026-04-18T10:45:47.052Z</time></trkpt><trkpt lat="53.2463505" lon="-1.7918108"><ele>327.0</ele><time>2026-04-18T10:45:48.055Z</time></trkpt><trkpt lat="53.2462448" lon="-1.7918343"><ele>327.0</ele><time>2026-04-18T10:45:49.056Z</time></trkpt><trkpt lat="53.2461529" lon="-1.7918599"><ele>326.6666666666667</ele><time>2026-04-18T10:45:50.053Z</time></trkpt><trkpt lat="53.2460819" lon="-1.7918772"><ele>326.3333333333333</ele><time>2026-04-18T10:45:51.049Z</time></trkpt><trkpt lat="53.2460059" lon="-1.7918753"><ele>326.0</ele><time>2026-04-18T10:45:53.057Z</time></trkpt><trkpt lat="53.2460775" lon="-1.7919199"><ele>325.66666666666663</ele><time>2026-04-18T10:46:50.053Z</time></trkpt><trkpt lat="53.2461637" lon="-1.7918812"><ele>325.3333333333333</ele><time>2026-04-18T10:46:51.051Z</time></trkpt><trkpt lat="53.2462766" lon="-1.791835"><ele>325.0</ele><time>2026-04-18T10:46:52.051Z</time></trkpt><trkpt lat="53.2464012" lon="-1.79181"><ele>325.5</ele><time>2026-04-18T10:46:53.054Z</time></trkpt><trkpt lat="53.2465344" lon="-1.7917941"><ele>326.0</ele><time>2026-04-18T10:46:54.052Z</time></trkpt><trkpt lat="53.2466656" lon="-1.7917793"><ele>326.5</ele><time>2026-04-18T10:46:55.051Z</time></trkpt><trkpt lat="53.246788" lon="-1.7917605"><ele>327.0</ele><time>2026-04-18T10:46:56.054Z</time></trkpt><trkpt lat="53.2468955" lon="-1.7917514"><ele>327.0</ele><time>2026-04-18T10:46:57.053Z</time></trkpt><trkpt lat="53.246991" lon="-1.7917552"><ele>327.0</ele><time>2026-04-18T10:46:58.053Z</time></trkpt><trkpt lat="53.2470696" lon="-1.7917641"><ele>327.0</ele><time>2026-04-18T10:46:59.052Z</time></trkpt><trkpt lat="53.2471897" lon="-1.7917468"><ele>327.0</ele><time>2026-04-18T10:47:01.056Z</time></trkpt><trkpt lat="53.2472631" lon="-1.7917239"><ele>327.0</ele><time>2026-04-18T10:47:02.049Z</time></trkpt><trkpt lat="53.2473558" lon="-1.7917"><ele>327.25</ele><time>2026-04-18T10:47:03.055Z</time></trkpt><trkpt lat="53.2474646" lon="-1.7916669"><ele>327.5</ele><time>2026-04-18T10:47:04.054Z</time></trkpt><trkpt lat="53.2475909" lon="-1.7916224"><ele>327.75</ele><time>2026-04-18T10:47:05.055Z</time></trkpt><trkpt lat="53.2477336" lon="-1.791597"><ele>328.0</ele><time>2026-04-18T10:47:06.055Z</time></trkpt><trkpt lat="53.2478806" lon="-1.7916034"><ele>328.0</ele><time>2026-04-18T10:47:07.056Z</time></trkpt><trkpt lat="53.2480239" lon="-1.7916259"><ele>328.0</ele><time>2026-04-18T10:47:08.057Z</time></trkpt><trkpt lat="53.2481691" lon="-1.7916567"><ele>328.0</ele><time>2026-04-18T10:47:09.047Z</time></trkpt><trkpt lat="53.2483138" lon="-1.7916864"><ele>328.0</ele><time>2026-04-18T10:47:10.055Z</time></trkpt><trkpt lat="53.2484605" lon="-1.7917216"><ele>328.0</ele><time>2026-04-18T10:47:11.053Z</time></trkpt><trkpt lat="53.2486124" lon="-1.7917627"><ele>328.0</ele><time>2026-04-18T10:47:12.055Z</time></trkpt><trkpt lat="53.2487693" lon="-1.7918115"><ele>328.0</ele><time>2026-04-18T10:47:13.054Z</time></trkpt><trkpt lat="53.2489233" lon="-1.7918709"><ele>328.0</ele><time>2026-04-18T10:47:14.057Z</time></trkpt><trkpt lat="53.2490689" lon="-1.7919423"><ele>328.0</ele><time>2026-04-18T10:47:15.053Z</time></trkpt><trkpt lat="53.2492109" lon="-1.7920283"><ele>328.0</ele><time>2026-04-18T10:47:16.056Z</time></trkpt><trkpt lat="53.2493611" lon="-1.7921324"><ele>328.0</ele><time>2026-04-18T10:47:17.049Z</time></trkpt><trkpt lat="53.2495205" lon="-1.7922608"><ele>328.0</ele><time>2026-04-18T10:47:18.055Z</time></trkpt><trkpt lat="53.2496797" lon="-1.7924027"><ele>328.0</ele><time>2026-04-18T10:47:19.053Z</time></trkpt><trkpt lat="53.2498306" lon="-1.7925345"><ele>327.75</ele><time>2026-04-18T10:47:20.056Z</time></trkpt><trkpt lat="53.2499655" lon="-1.7926472"><ele>327.5</ele><time>2026-04-18T10:47:21.051Z</time></trkpt><trkpt lat="53.2500733" lon="-1.7927423"><ele>327.25</ele><time>2026-04-18T10:47:22.05Z</time></trkpt><trkpt lat="53.2501585" lon="-1.7928253"><ele>327.0</ele><time>2026-04-18T10:47:23.056Z</time></trkpt><trkpt lat="53.2502418" lon="-1.7929089"><ele>327.0</ele><time>2026-04-18T10:47:24.053Z</time></trkpt><trkpt lat="53.2503319" lon="-1.7929951"><ele>327.0</ele><time>2026-04-18T10:47:25.054Z</time></trkpt><trkpt lat="53.2504169" lon="-1.793085"><ele>327.0</ele><time>2026-04-18T10:47:26.055Z</time></trkpt><trkpt lat="53.2504819" lon="-1.7931806"><ele>327.0</ele><time>2026-04-18T10:47:27.052Z</time></trkpt><trkpt lat="53.2505177" lon="-1.793287"><ele>327.0</ele><time>2026-04-18T10:47:28.056Z</time></trkpt><trkpt lat="53.250521" lon="-1.7934173"><ele>327.0</ele><time>2026-04-18T10:47:29.053Z</time></trkpt><trkpt lat="53.2505118" lon="-1.7935705"><ele>326.6</ele><time>2026-04-18T10:47:30.055Z</time></trkpt><trkpt lat="53.2505097" lon="-1.7937275"><ele>326.20000000000005</ele><time>2026-04-18T10:47:31.054Z</time></trkpt><trkpt lat="53.2505248" lon="-1.7938982"><ele>325.8</ele><time>2026-04-18T10:47:32.055Z</time></trkpt><trkpt lat="53.2505608" lon="-1.7940708"><ele>325.4</ele><time>2026-04-18T10:47:33.056Z</time></trkpt><trkpt lat="53.2506083" lon="-1.7942328"><ele>325.0</ele><time>2026-04-18T10:47:34.056Z</time></trkpt><trkpt lat="53.2506619" lon="-1.7943791"><ele>325.0</ele><time>2026-04-18T10:47:35.057Z</time></trkpt><trkpt lat="53.2507157" lon="-1.7945132"><ele>325.0</ele><time>2026-04-18T10:47:36.056Z</time></trkpt><trkpt lat="53.2507694" lon="-1.7946473"><ele>325.0</ele><time>2026-04-18T10:47:37.055Z</time></trkpt><trkpt lat="53.2508272" lon="-1.7947813"><ele>325.0</ele><time>2026-04-18T10:47:38.055Z</time></trkpt><trkpt lat="53.2508897" lon="-1.7949076"><ele>325.0</ele><time>2026-04-18T10:47:39.054Z</time></trkpt><trkpt lat="53.2509576" lon="-1.7950195"><ele>325.0</ele><time>2026-04-18T10:47:40.056Z</time></trkpt><trkpt lat="53.2510244" lon="-1.7951453"><ele>325.0</ele><time>2026-04-18T10:47:41.054Z</time></trkpt><trkpt lat="53.2510886" lon="-1.7952958"><ele>325.0</ele><time>2026-04-18T10:47:42.055Z</time></trkpt><trkpt lat="53.2511562" lon="-1.795462"><ele>325.0</ele><time>2026-04-18T10:47:43.057Z</time></trkpt><trkpt lat="53.2512273" lon="-1.7956324"><ele>325.6</ele><time>2026-04-18T10:47:44.053Z</time></trkpt><trkpt lat="53.25129" lon="-1.7958013"><ele>326.2</ele><time>2026-04-18T10:47:45.055Z</time></trkpt><trkpt lat="53.2513402" lon="-1.795966"><ele>326.79999999999995</ele><time>2026-04-18T10:47:46.053Z</time></trkpt><trkpt lat="53.2513788" lon="-1.7961336"><ele>327.4</ele><time>2026-04-18T10:47:47.054Z</time></trkpt><trkpt lat="53.2514141" lon="-1.79631"><ele>328.0</ele><time>2026-04-18T10:47:48.054Z</time></trkpt><trkpt lat="53.2514456" lon="-1.7964988"><ele>326.4</ele><time>2026-04-18T10:47:49.054Z</time></trkpt><trkpt lat="53.2514768" lon="-1.7966868"><ele>324.79999999999995</ele><time>2026-04-18T10:47:50.054Z</time></trkpt><trkpt lat="53.2515074" lon="-1.7968639"><ele>323.2</ele><time>2026-04-18T10:47:51.052Z</time></trkpt><trkpt lat="53.2515381" lon="-1.7970264"><ele>321.6</ele><time>2026-04-18T10:47:52.053Z</time></trkpt><trkpt lat="53.2515691" lon="-1.7971789"><ele>320.0</ele><time>2026-04-18T10:47:53.054Z</time></trkpt><trkpt lat="53.2516034" lon="-1.7973298"><ele>320.0</ele><time>2026-04-18T10:47:54.053Z</time></trkpt><trkpt lat="53.2516376" lon="-1.7974852"><ele>320.0</ele><time>2026-04-18T10:47:55.055Z</time></trkpt><trkpt lat="53.2516669" lon="-1.7976276"><ele>320.0</ele><time>2026-04-18T10:47:56.055Z</time></trkpt><trkpt lat="53.2516902" lon="-1.79775"><ele>320.0</ele><time>2026-04-18T10:47:57.053Z</time></trkpt><trkpt lat="53.251708" lon="-1.7978629"><ele>320.0</ele><time>2026-04-18T10:47:58.053Z</time></trkpt><trkpt lat="53.251724" lon="-1.7979669"><ele>320.0</ele><time>2026-04-18T10:47:59.053Z</time></trkpt><trkpt lat="53.2518219" lon="-1.7980351"><ele>320.0</ele><time>2026-04-18T10:48:01.056Z</time></trkpt><trkpt lat="53.2519115" lon="-1.797965"><ele>320.0</ele><time>2026-04-18T10:48:02.047Z</time></trkpt><trkpt lat="53.2520149" lon="-1.7978678"><ele>320.0</ele><time>2026-04-18T10:48:03.05Z</time></trkpt><trkpt lat="53.252125" lon="-1.7977469"><ele>320.0</ele><time>2026-04-18T10:48:04.049Z</time></trkpt><trkpt lat="53.2522292" lon="-1.7976009"><ele>318.6</ele><time>2026-04-18T10:48:05.046Z</time></trkpt><trkpt lat="53.2523179" lon="-1.7974673"><ele>317.2</ele><time>2026-04-18T10:48:06.046Z</time></trkpt><trkpt lat="53.2523936" lon="-1.7973595"><ele>315.8</ele><time>2026-04-18T10:48:07.055Z</time></trkpt><trkpt lat="53.2524656" lon="-1.7972916"><ele>314.4</ele><time>2026-04-18T10:48:08.055Z</time></trkpt><trkpt lat="53.2525402" lon="-1.7972739"><ele>313.0</ele><time>2026-04-18T10:48:09.056Z</time></trkpt><trkpt lat="53.2526162" lon="-1.797291"><ele>313.0</ele><time>2026-04-18T10:48:10.045Z</time></trkpt><trkpt lat="53.2526955" lon="-1.7973233"><ele>313.0</ele><time>2026-04-18T10:48:11.045Z</time></trkpt><trkpt lat="53.2527676" lon="-1.7973799"><ele>313.0</ele><time>2026-04-18T10:48:12.049Z</time></trkpt><trkpt lat="53.2528108" lon="-1.7974786"><ele>313.0</ele><time>2026-04-18T10:48:13.055Z</time></trkpt><trkpt lat="53.2528059" lon="-1.7976115"><ele>313.0</ele><time>2026-04-18T10:48:14.046Z</time></trkpt><trkpt lat="53.252746" lon="-1.797761"><ele>313.0</ele><time>2026-04-18T10:48:15.045Z</time></trkpt><trkpt lat="53.2526602" lon="-1.7979107"><ele>311.25</ele><time>2026-04-18T10:48:16.044Z</time></trkpt><trkpt lat="53.2525624" lon="-1.7980631"><ele>309.5</ele><time>2026-04-18T10:48:17.049Z</time></trkpt><trkpt lat="53.2524718" lon="-1.79821"><ele>307.75</ele><time>2026-04-18T10:48:18.054Z</time></trkpt><trkpt lat="53.2523988" lon="-1.7983453"><ele>306.0</ele><time>2026-04-18T10:48:19.057Z</time></trkpt><trkpt lat="53.2523484" lon="-1.7984816"><ele>307.2</ele><time>2026-04-18T10:48:20.049Z</time></trkpt><trkpt lat="53.2523143" lon="-1.7986321"><ele>308.40000000000003</ele><time>2026-04-18T10:48:21.056Z</time></trkpt><trkpt lat="53.2522896" lon="-1.798791"><ele>309.6</ele><time>2026-04-18T10:48:22.056Z</time></trkpt><trkpt lat="53.2522799" lon="-1.7989566"><ele>310.8</ele><time>2026-04-18T10:48:23.061Z</time></trkpt><trkpt lat="53.2522819" lon="-1.7991322"><ele>312.0</ele><time>2026-04-18T10:48:24.059Z</time></trkpt><trkpt lat="53.2522815" lon="-1.7993244"><ele>309.0</ele><time>2026-04-18T10:48:25.059Z</time></trkpt><trkpt lat="53.2522751" lon="-1.7995274"><ele>306.0</ele><time>2026-04-18T10:48:26.054Z</time></trkpt><trkpt lat="53.2522669" lon="-1.7997455"><ele>303.0</ele><time>2026-04-18T10:48:27.05Z</time></trkpt><trkpt lat="53.2522566" lon="-1.7999532"><ele>300.0</ele><time>2026-04-18T10:48:28.046Z</time></trkpt><trkpt lat="53.2522482" lon="-1.8001415"><ele>297.8</ele><time>2026-04-18T10:48:29.05Z</time></trkpt><trkpt lat="53.2522471" lon="-1.8003175"><ele>295.6</ele><time>2026-04-18T10:48:30.057Z</time></trkpt><trkpt lat="53.2522541" lon="-1.8004765"><ele>293.4</ele><time>2026-04-18T10:48:31.049Z</time></trkpt><trkpt lat="53.2522577" lon="-1.8006242"><ele>291.2</ele><time>2026-04-18T10:48:32.053Z</time></trkpt><trkpt lat="53.2522429" lon="-1.8007677"><ele>289.0</ele><time>2026-04-18T10:48:33.057Z</time></trkpt><trkpt lat="53.252217" lon="-1.800905"><ele>287.66666666666663</ele><time>2026-04-18T10:48:34.057Z</time></trkpt><trkpt lat="53.2522002" lon="-1.8010343"><ele>286.3333333333333</ele><time>2026-04-18T10:48:35.043Z</time></trkpt><trkpt lat="53.252199" lon="-1.8011544"><ele>285.0</ele><time>2026-04-18T10:48:36.054Z</time></trkpt><trkpt lat="53.2521797" lon="-1.801335"><ele>283.6666666666667</ele><time>2026-04-18T10:48:38.049Z</time></trkpt><trkpt lat="53.2521309" lon="-1.801441"><ele>282.33333333333337</ele><time>2026-04-18T10:48:40.053Z</time></trkpt><trkpt lat="53.2522039" lon="-1.8015136"><ele>281.0</ele><time>2026-04-18T10:48:53.056Z</time></trkpt><trkpt lat="53.2523298" lon="-1.8015272"><ele>279.6</ele><time>2026-04-18T10:48:55.055Z</time></trkpt><trkpt lat="53.2524116" lon="-1.8015333"><ele>278.20000000000005</ele><time>2026-04-18T10:48:56.054Z</time></trkpt><trkpt lat="53.2525009" lon="-1.8015399"><ele>276.79999999999995</ele><time>2026-04-18T10:48:57.056Z</time></trkpt><trkpt lat="53.2525999" lon="-1.8015416"><ele>275.4</ele><time>2026-04-18T10:48:58.053Z</time></trkpt><trkpt lat="53.2527012" lon="-1.8015301"><ele>274.0</ele><time>2026-04-18T10:48:59.053Z</time></trkpt><trkpt lat="53.2528049" lon="-1.8014954"><ele>274.0</ele><time>2026-04-18T10:49:00.057Z</time></trkpt><trkpt lat="53.2529084" lon="-1.8014408"><ele>274.0</ele><time>2026-04-18T10:49:01.055Z</time></trkpt><trkpt lat="53.2530048" lon="-1.8013727"><ele>274.0</ele><time>2026-04-18T10:49:02.047Z</time></trkpt><trkpt lat="53.2530905" lon="-1.8012987"><ele>274.0</ele><time>2026-04-18T10:49:03.058Z</time></trkpt><trkpt lat="53.2531646" lon="-1.8012175"><ele>274.0</ele><time>2026-04-18T10:49:04.045Z</time></trkpt><trkpt lat="53.2532351" lon="-1.8011306"><ele>273.28571428571433</ele><time>2026-04-18T10:49:05.056Z</time></trkpt><trkpt lat="53.2532996" lon="-1.801041"><ele>272.57142857142856</ele><time>2026-04-18T10:49:06.055Z</time></trkpt><trkpt lat="53.2533569" lon="-1.8009487"><ele>271.8571428571429</ele><time>2026-04-18T10:49:07.053Z</time></trkpt><trkpt lat="53.2534087" lon="-1.8008567"><ele>271.14285714285717</ele><time>2026-04-18T10:49:08.054Z</time></trkpt><trkpt lat="53.2534602" lon="-1.8007713"><ele>270.42857142857144</ele><time>2026-04-18T10:49:09.053Z</time></trkpt><trkpt lat="53.2535173" lon="-1.8007093"><ele>269.7142857142857</ele><time>2026-04-18T10:49:10.055Z</time></trkpt><trkpt lat="53.2535808" lon="-1.8006902"><ele>269.0</ele><time>2026-04-18T10:49:11.045Z</time></trkpt><trkpt lat="53.2536534" lon="-1.800718"><ele>269.0</ele><time>2026-04-18T10:49:12.052Z</time></trkpt><trkpt lat="53.2537277" lon="-1.8007715"><ele>269.0</ele><time>2026-04-18T10:49:13.055Z</time></trkpt><trkpt lat="53.2538056" lon="-1.8008262"><ele>269.0</ele><time>2026-04-18T10:49:14.053Z</time></trkpt><trkpt lat="53.253885" lon="-1.8008805"><ele>269.0</ele><time>2026-04-18T10:49:15.052Z</time></trkpt><trkpt lat="53.2539571" lon="-1.8009365"><ele>269.0</ele><time>2026-04-18T10:49:16.054Z</time></trkpt><trkpt lat="53.2540246" lon="-1.8009814"><ele>269.0</ele><time>2026-04-18T10:49:17.052Z</time></trkpt><trkpt lat="53.2540952" lon="-1.8009993"><ele>266.5</ele><time>2026-04-18T10:49:18.054Z</time></trkpt><trkpt lat="53.2541702" lon="-1.8009966"><ele>264.0</ele><time>2026-04-18T10:49:19.054Z</time></trkpt><trkpt lat="53.2542494" lon="-1.8009877"><ele>261.5</ele><time>2026-04-18T10:49:20.056Z</time></trkpt><trkpt lat="53.2543296" lon="-1.8009829"><ele>259.0</ele><time>2026-04-18T10:49:21.056Z</time></trkpt><trkpt lat="53.254412" lon="-1.8009801"><ele>256.5</ele><time>2026-04-18T10:49:22.053Z</time></trkpt><trkpt lat="53.2545044" lon="-1.8009723"><ele>254.0</ele><time>2026-04-18T10:49:23.053Z</time></trkpt><trkpt lat="53.2545984" lon="-1.8009535"><ele>254.00000000000003</ele><time>2026-04-18T10:49:24.053Z</time></trkpt><trkpt lat="53.2546875" lon="-1.8009251"><ele>254.0</ele><time>2026-04-18T10:49:25.054Z</time></trkpt><trkpt lat="53.2547745" lon="-1.8008818"><ele>254.0</ele><time>2026-04-18T10:49:26.055Z</time></trkpt><trkpt lat="53.2548601" lon="-1.8008276"><ele>254.0</ele><time>2026-04-18T10:49:27.053Z</time></trkpt><trkpt lat="53.2549414" lon="-1.8007688"><ele>254.00000000000003</ele><time>2026-04-18T10:49:28.054Z</time></trkpt><trkpt lat="53.2550132" lon="-1.8007139"><ele>254.0</ele><time>2026-04-18T10:49:29.046Z</time></trkpt><trkpt lat="53.2550809" lon="-1.8006486"><ele>252.00000000000003</ele><time>2026-04-18T10:49:30.054Z</time></trkpt><trkpt lat="53.2551476" lon="-1.8005564"><ele>250.0</ele><time>2026-04-18T10:49:31.051Z</time></trkpt><trkpt lat="53.2552103" lon="-1.8004432"><ele>248.0</ele><time>2026-04-18T10:49:32.058Z</time></trkpt><trkpt lat="53.2552654" lon="-1.8003182"><ele>246.0</ele><time>2026-04-18T10:49:33.047Z</time></trkpt><trkpt lat="53.2553115" lon="-1.8001874"><ele>244.00000000000003</ele><time>2026-04-18T10:49:34.045Z</time></trkpt><trkpt lat="53.2553452" lon="-1.8000594"><ele>242.0</ele><time>2026-04-18T10:49:35.046Z</time></trkpt><trkpt lat="53.2553725" lon="-1.7999573"><ele>242.0</ele><time>2026-04-18T10:49:36.047Z</time></trkpt><trkpt lat="53.2554136" lon="-1.7998473"><ele>242.0</ele><time>2026-04-18T10:49:38.049Z</time></trkpt><trkpt lat="53.2554598" lon="-1.7997709"><ele>242.0</ele><time>2026-04-18T10:49:45.053Z</time></trkpt><trkpt lat="53.2555091" lon="-1.7996334"><ele>242.0</ele><time>2026-04-18T10:49:46.054Z</time></trkpt><trkpt lat="53.2555582" lon="-1.7994323"><ele>242.0</ele><time>2026-04-18T10:49:47.051Z</time></trkpt><trkpt lat="53.2556009" lon="-1.7991874"><ele>234.33333333333334</ele><time>2026-04-18T10:49:48.054Z</time></trkpt><trkpt lat="53.2556307" lon="-1.7989372"><ele>226.66666666666669</ele><time>2026-04-18T10:49:49.054Z</time></trkpt><trkpt lat="53.2556481" lon="-1.7986764"><ele>219.0</ele><time>2026-04-18T10:49:50.054Z</time></trkpt><trkpt lat="53.2556461" lon="-1.7984214"><ele>218.5</ele><time>2026-04-18T10:49:51.054Z</time></trkpt><trkpt lat="53.2556262" lon="-1.7981991"><ele>218.0</ele><time>2026-04-18T10:49:52.054Z</time></trkpt><trkpt lat="53.2555887" lon="-1.7979881"><ele>217.5</ele><time>2026-04-18T10:49:53.057Z</time></trkpt><trkpt lat="53.255537" lon="-1.7977843"><ele>217.0</ele><time>2026-04-18T10:49:54.053Z</time></trkpt><trkpt lat="53.255479" lon="-1.79758"><ele>219.2</ele><time>2026-04-18T10:49:55.046Z</time></trkpt><trkpt lat="53.255425" lon="-1.7973807"><ele>221.39999999999998</ele><time>2026-04-18T10:49:56.054Z</time></trkpt><trkpt lat="53.2553802" lon="-1.7971987"><ele>223.60000000000002</ele><time>2026-04-18T10:49:57.053Z</time></trkpt><trkpt lat="53.2553434" lon="-1.7970353"><ele>225.8</ele><time>2026-04-18T10:49:58.053Z</time></trkpt><trkpt lat="53.2553136" lon="-1.7968821"><ele>228.0</ele><time>2026-04-18T10:49:59.055Z</time></trkpt><trkpt lat="53.255285" lon="-1.7967383"><ele>228.0</ele><time>2026-04-18T10:50:00.055Z</time></trkpt><trkpt lat="53.2552559" lon="-1.7966024"><ele>228.0</ele><time>2026-04-18T10:50:01.052Z</time></trkpt><trkpt lat="53.2552285" lon="-1.7964518"><ele>228.0</ele><time>2026-04-18T10:50:02.051Z</time></trkpt><trkpt lat="53.2552033" lon="-1.7962822"><ele>228.0</ele><time>2026-04-18T10:50:03.055Z</time></trkpt><trkpt lat="53.2551823" lon="-1.7961007"><ele>228.0</ele><time>2026-04-18T10:50:04.054Z</time></trkpt><trkpt lat="53.2551713" lon="-1.7959025"><ele>226.25</ele><time>2026-04-18T10:50:05.055Z</time></trkpt><trkpt lat="53.2551746" lon="-1.7957018"><ele>224.5</ele><time>2026-04-18T10:50:06.054Z</time></trkpt><trkpt lat="53.2552048" lon="-1.7955107"><ele>222.75</ele><time>2026-04-18T10:50:07.051Z</time></trkpt><trkpt lat="53.2552567" lon="-1.7953358"><ele>221.0</ele><time>2026-04-18T10:50:08.049Z</time></trkpt><trkpt lat="53.2553059" lon="-1.7951746"><ele>220.60000000000002</ele><time>2026-04-18T10:50:09.054Z</time></trkpt><trkpt lat="53.2553457" lon="-1.7950092"><ele>220.20000000000002</ele><time>2026-04-18T10:50:10.048Z</time></trkpt><trkpt lat="53.2553713" lon="-1.7948313"><ele>219.79999999999998</ele><time>2026-04-18T10:50:11.049Z</time></trkpt><trkpt lat="53.2553775" lon="-1.7946519"><ele>219.39999999999998</ele><time>2026-04-18T10:50:12.049Z</time></trkpt><trkpt lat="53.2553758" lon="-1.7944883"><ele>219.0</ele><time>2026-04-18T10:50:13.051Z</time></trkpt><trkpt lat="53.2553764" lon="-1.7943274"><ele>219.0</ele><time>2026-04-18T10:50:14.051Z</time></trkpt><trkpt lat="53.2553814" lon="-1.7941746"><ele>218.99999999999997</ele><time>2026-04-18T10:50:15.049Z</time></trkpt><trkpt lat="53.255392" lon="-1.7940239"><ele>218.99999999999997</ele><time>2026-04-18T10:50:16.048Z</time></trkpt><trkpt lat="53.2554121" lon="-1.7938632"><ele>219.0</ele><time>2026-04-18T10:50:17.049Z</time></trkpt><trkpt lat="53.2554393" lon="-1.7936953"><ele>219.0</ele><time>2026-04-18T10:50:18.051Z</time></trkpt><trkpt lat="53.255481" lon="-1.7935213"><ele>218.5</ele><time>2026-04-18T10:50:19.049Z</time></trkpt><trkpt lat="53.2555273" lon="-1.7933455"><ele>218.0</ele><time>2026-04-18T10:50:20.05Z</time></trkpt><trkpt lat="53.2555775" lon="-1.7931719"><ele>217.5</ele><time>2026-04-18T10:50:21.052Z</time></trkpt><trkpt lat="53.2556339" lon="-1.7930056"><ele>217.0</ele><time>2026-04-18T10:50:22.053Z</time></trkpt><trkpt lat="53.2556989" lon="-1.7928409"><ele>217.0</ele><time>2026-04-18T10:50:23.052Z</time></trkpt><trkpt lat="53.2557737" lon="-1.7926753"><ele>217.0</ele><time>2026-04-18T10:50:24.052Z</time></trkpt><trkpt lat="53.2558512" lon="-1.7925194"><ele>217.0</ele><time>2026-04-18T10:50:25.053Z</time></trkpt><trkpt lat="53.2559328" lon="-1.7923625"><ele>217.0</ele><time>2026-04-18T10:50:26.049Z</time></trkpt><trkpt lat="53.2560097" lon="-1.792194"><ele>216.75</ele><time>2026-04-18T10:50:27.049Z</time></trkpt><trkpt lat="53.2560888" lon="-1.7920192"><ele>216.5</ele><time>2026-04-18T10:50:28.048Z</time></trkpt><trkpt lat="53.25616" lon="-1.7918249"><ele>216.25</ele><time>2026-04-18T10:50:29.048Z</time></trkpt><trkpt lat="53.25622" lon="-1.7916399"><ele>216.0</ele><time>2026-04-18T10:50:30.05Z</time></trkpt><trkpt lat="53.256272" lon="-1.7914541"><ele>215.25</ele><time>2026-04-18T10:50:31.05Z</time></trkpt><trkpt lat="53.2563236" lon="-1.7912799"><ele>214.5</ele><time>2026-04-18T10:50:32.055Z</time></trkpt><trkpt lat="53.256373" lon="-1.7911051"><ele>213.75</ele><time>2026-04-18T10:50:33.053Z</time></trkpt><trkpt lat="53.2564224" lon="-1.7909338"><ele>213.0</ele><time>2026-04-18T10:50:34.053Z</time></trkpt><trkpt lat="53.2564636" lon="-1.7907543"><ele>213.0</ele><time>2026-04-18T10:50:35.055Z</time></trkpt><trkpt lat="53.2565076" lon="-1.7905788"><ele>213.0</ele><time>2026-04-18T10:50:36.056Z</time></trkpt><trkpt lat="53.2565476" lon="-1.7903956"><ele>213.0</ele><time>2026-04-18T10:50:37.053Z</time></trkpt><trkpt lat="53.2565848" lon="-1.7902199"><ele>213.0</ele><time>2026-04-18T10:50:38.056Z</time></trkpt><trkpt lat="53.2566138" lon="-1.7900595"><ele>213.0</ele><time>2026-04-18T10:50:39.055Z</time></trkpt><trkpt lat="53.2566374" lon="-1.7899196"><ele>212.2</ele><time>2026-04-18T10:50:40.055Z</time></trkpt><trkpt lat="53.2566617" lon="-1.7897936"><ele>211.4</ele><time>2026-04-18T10:50:41.056Z</time></trkpt><trkpt lat="53.2566951" lon="-1.7896547"><ele>210.6</ele><time>2026-04-18T10:50:42.054Z</time></trkpt><trkpt lat="53.2567382" lon="-1.7894974"><ele>209.79999999999998</ele><time>2026-04-18T10:50:43.054Z</time></trkpt><trkpt lat="53.2568004" lon="-1.7893296"><ele>209.0</ele><time>2026-04-18T10:50:44.051Z</time></trkpt><trkpt lat="53.2568634" lon="-1.7891592"><ele>209.25</ele><time>2026-04-18T10:50:45.043Z</time></trkpt><trkpt lat="53.2569283" lon="-1.7889799"><ele>209.5</ele><time>2026-04-18T10:50:46.051Z</time></trkpt><trkpt lat="53.2570004" lon="-1.7887838"><ele>209.75</ele><time>2026-04-18T10:50:47.052Z</time></trkpt><trkpt lat="53.2570792" lon="-1.7885707"><ele>210.0</ele><time>2026-04-18T10:50:48.053Z</time></trkpt><trkpt lat="53.2571562" lon="-1.7883455"><ele>210.0</ele><time>2026-04-18T10:50:49.055Z</time></trkpt><trkpt lat="53.2572303" lon="-1.7881029"><ele>210.0</ele><time>2026-04-18T10:50:50.057Z</time></trkpt><trkpt lat="53.2573025" lon="-1.7878368"><ele>210.0</ele><time>2026-04-18T10:50:51.055Z</time></trkpt><trkpt lat="53.2573732" lon="-1.7875355"><ele>212.0</ele><time>2026-04-18T10:50:52.051Z</time></trkpt><trkpt lat="53.2574349" lon="-1.7872082"><ele>214.0</ele><time>2026-04-18T10:50:53.054Z</time></trkpt><trkpt lat="53.2574832" lon="-1.7868693"><ele>216.0</ele><time>2026-04-18T10:50:54.051Z</time></trkpt><trkpt lat="53.2575189" lon="-1.7865414"><ele>216.33333333333331</ele><time>2026-04-18T10:50:55.051Z</time></trkpt><trkpt lat="53.2575413" lon="-1.7862207"><ele>216.66666666666666</ele><time>2026-04-18T10:50:56.05Z</time></trkpt><trkpt lat="53.2575485" lon="-1.7858983"><ele>217.0</ele><time>2026-04-18T10:50:57.051Z</time></trkpt><trkpt lat="53.2575442" lon="-1.785582"><ele>217.33333333333331</ele><time>2026-04-18T10:50:58.051Z</time></trkpt><trkpt lat="53.2575385" lon="-1.7852675"><ele>217.66666666666669</ele><time>2026-04-18T10:50:59.05Z</time></trkpt><trkpt lat="53.2575243" lon="-1.7849497"><ele>218.0</ele><time>2026-04-18T10:51:00.051Z</time></trkpt><trkpt lat="53.2575016" lon="-1.7846275"><ele>219.33333333333334</ele><time>2026-04-18T10:51:01.052Z</time></trkpt><trkpt lat="53.2574755" lon="-1.7843041"><ele>220.66666666666669</ele><time>2026-04-18T10:51:02.05Z</time></trkpt><trkpt lat="53.2574512" lon="-1.7839693"><ele>222.0</ele><time>2026-04-18T10:51:03.052Z</time></trkpt><trkpt lat="53.2574301" lon="-1.7836283"><ele>223.33333333333331</ele><time>2026-04-18T10:51:04.051Z</time></trkpt><trkpt lat="53.2574091" lon="-1.7832835"><ele>224.66666666666666</ele><time>2026-04-18T10:51:05.051Z</time></trkpt><trkpt lat="53.2573848" lon="-1.7829364"><ele>226.0</ele><time>2026-04-18T10:51:06.052Z</time></trkpt><trkpt lat="53.2573619" lon="-1.7825862"><ele>227.0</ele><time>2026-04-18T10:51:07.05Z</time></trkpt><trkpt lat="53.2573431" lon="-1.7822322"><ele>228.0</ele><time>2026-04-18T10:51:08.05Z</time></trkpt><trkpt lat="53.2573349" lon="-1.7818827"><ele>229.0</ele><time>2026-04-18T10:51:09.052Z</time></trkpt><trkpt lat="53.257333" lon="-1.781544"><ele>230.0</ele><time>2026-04-18T10:51:10.052Z</time></trkpt><trkpt lat="53.2573284" lon="-1.7812367"><ele>231.0</ele><time>2026-04-18T10:51:11.05Z</time></trkpt><trkpt lat="53.257303" lon="-1.7809736"><ele>232.0</ele><time>2026-04-18T10:51:12.052Z</time></trkpt><trkpt lat="53.2572789" lon="-1.7807353"><ele>232.75</ele><time>2026-04-18T10:51:13.058Z</time></trkpt><trkpt lat="53.2572706" lon="-1.7805082"><ele>233.5</ele><time>2026-04-18T10:51:14.052Z</time></trkpt><trkpt lat="53.2572857" lon="-1.7802747"><ele>234.25</ele><time>2026-04-18T10:51:15.054Z</time></trkpt><trkpt lat="53.257327" lon="-1.7800212"><ele>235.0</ele><time>2026-04-18T10:51:16.054Z</time></trkpt><trkpt lat="53.2573887" lon="-1.7797539"><ele>235.33333333333331</ele><time>2026-04-18T10:51:17.052Z</time></trkpt><trkpt lat="53.2574442" lon="-1.7794825"><ele>235.66666666666669</ele><time>2026-04-18T10:51:18.052Z</time></trkpt><trkpt lat="53.2574834" lon="-1.7792078"><ele>236.0</ele><time>2026-04-18T10:51:19.052Z</time></trkpt><trkpt lat="53.2574992" lon="-1.7789349"><ele>236.0</ele><time>2026-04-18T10:51:20.054Z</time></trkpt><trkpt lat="53.2574894" lon="-1.7786594"><ele>236.0</ele><time>2026-04-18T10:51:21.053Z</time></trkpt><trkpt lat="53.2574631" lon="-1.7783737"><ele>236.0</ele><time>2026-04-18T10:51:22.053Z</time></trkpt><trkpt lat="53.2574186" lon="-1.7780731"><ele>237.0</ele><time>2026-04-18T10:51:23.055Z</time></trkpt><trkpt lat="53.2573595" lon="-1.7777699"><ele>238.0</ele><time>2026-04-18T10:51:24.055Z</time></trkpt><trkpt lat="53.2572899" lon="-1.7774662"><ele>239.0</ele><time>2026-04-18T10:51:25.055Z</time></trkpt><trkpt lat="53.2572198" lon="-1.7771838"><ele>235.25</ele><time>2026-04-18T10:51:26.053Z</time></trkpt><trkpt lat="53.2571593" lon="-1.7769271"><ele>231.5</ele><time>2026-04-18T10:51:27.054Z</time></trkpt><trkpt lat="53.2571039" lon="-1.7767055"><ele>227.75</ele><time>2026-04-18T10:51:28.054Z</time></trkpt><trkpt lat="53.2570559" lon="-1.7765175"><ele>224.0</ele><time>2026-04-18T10:51:29.053Z</time></trkpt><trkpt lat="53.2570172" lon="-1.7763355"><ele>224.0</ele><time>2026-04-18T10:51:30.054Z</time></trkpt><trkpt lat="53.2569915" lon="-1.7761422"><ele>224.0</ele><time>2026-04-18T10:51:31.052Z</time></trkpt><trkpt lat="53.2569815" lon="-1.7759319"><ele>224.0</ele><time>2026-04-18T10:51:32.053Z</time></trkpt><trkpt lat="53.2569843" lon="-1.7757025"><ele>224.0</ele><time>2026-04-18T10:51:33.059Z</time></trkpt><trkpt lat="53.2569997" lon="-1.7754571"><ele>232.33333333333334</ele><time>2026-04-18T10:51:34.053Z</time></trkpt><trkpt lat="53.257029" lon="-1.7751966"><ele>240.66666666666669</ele><time>2026-04-18T10:51:35.056Z</time></trkpt><trkpt lat="53.2570758" lon="-1.7749237"><ele>249.0</ele><time>2026-04-18T10:51:36.045Z</time></trkpt><trkpt lat="53.257155" lon="-1.7746408"><ele>250.66666666666669</ele><time>2026-04-18T10:51:37.056Z</time></trkpt><trkpt lat="53.2572627" lon="-1.7743914"><ele>252.33333333333334</ele><time>2026-04-18T10:51:38.054Z</time></trkpt><trkpt lat="53.2573916" lon="-1.7742062"><ele>254.0</ele><time>2026-04-18T10:51:39.053Z</time></trkpt><trkpt lat="53.2575336" lon="-1.7740879"><ele>256.25</ele><time>2026-04-18T10:51:40.057Z</time></trkpt><trkpt lat="53.2576745" lon="-1.7740049"><ele>258.5</ele><time>2026-04-18T10:51:41.057Z</time></trkpt><trkpt lat="53.2578149" lon="-1.7739207"><ele>260.75</ele><time>2026-04-18T10:51:42.058Z</time></trkpt><trkpt lat="53.2579484" lon="-1.7738265"><ele>263.0</ele><time>2026-04-18T10:51:43.058Z</time></trkpt><trkpt lat="53.2580824" lon="-1.7737215"><ele>263.33333333333337</ele><time>2026-04-18T10:51:44.059Z</time></trkpt><trkpt lat="53.258215" lon="-1.7736075"><ele>263.6666666666667</ele><time>2026-04-18T10:51:45.059Z</time></trkpt><trkpt lat="53.2583476" lon="-1.7734863"><ele>264.0</ele><time>2026-04-18T10:51:46.058Z</time></trkpt><trkpt lat="53.2584864" lon="-1.7733549"><ele>264.0</ele><time>2026-04-18T10:51:47.057Z</time></trkpt><trkpt lat="53.2586353" lon="-1.7732136"><ele>264.0</ele><time>2026-04-18T10:51:48.057Z</time></trkpt><trkpt lat="53.2587976" lon="-1.7730533"><ele>264.0</ele><time>2026-04-18T10:51:49.056Z</time></trkpt><trkpt lat="53.258959" lon="-1.7728963"><ele>264.6666666666667</ele><time>2026-04-18T10:51:50.047Z</time></trkpt><trkpt lat="53.2591142" lon="-1.7727447"><ele>265.33333333333337</ele><time>2026-04-18T10:51:51.056Z</time></trkpt><trkpt lat="53.2592584" lon="-1.7726097"><ele>266.0</ele><time>2026-04-18T10:51:52.057Z</time></trkpt><trkpt lat="53.2593904" lon="-1.7724695"><ele>266.0</ele><time>2026-04-18T10:51:53.055Z</time></trkpt><trkpt lat="53.2595095" lon="-1.7723605"><ele>266.0</ele><time>2026-04-18T10:51:54.058Z</time></trkpt><trkpt lat="53.2596132" lon="-1.7722711"><ele>266.0</ele><time>2026-04-18T10:51:55.056Z</time></trkpt><trkpt lat="53.2597121" lon="-1.7722137"><ele>266.0</ele><time>2026-04-18T10:51:56.055Z</time></trkpt><trkpt lat="53.259814" lon="-1.7722074"><ele>265.25</ele><time>2026-04-18T10:51:57.056Z</time></trkpt><trkpt lat="53.2599164" lon="-1.77226"><ele>264.5</ele><time>2026-04-18T10:51:58.059Z</time></trkpt><trkpt lat="53.2600085" lon="-1.7723828"><ele>263.75</ele><time>2026-04-18T10:51:59.057Z</time></trkpt><trkpt lat="53.2600932" lon="-1.7725437"><ele>263.0</ele><time>2026-04-18T10:52:00.057Z</time></trkpt><trkpt lat="53.2601711" lon="-1.7727294"><ele>264.75</ele><time>2026-04-18T10:52:01.054Z</time></trkpt><trkpt lat="53.2602486" lon="-1.7729261"><ele>266.5</ele><time>2026-04-18T10:52:02.054Z</time></trkpt><trkpt lat="53.2603258" lon="-1.7731077"><ele>268.25</ele><time>2026-04-18T10:52:03.049Z</time></trkpt><trkpt lat="53.2603973" lon="-1.7732708"><ele>270.0</ele><time>2026-04-18T10:52:04.058Z</time></trkpt><trkpt lat="53.2604602" lon="-1.7734189"><ele>269.8333333333333</ele><time>2026-04-18T10:52:05.054Z</time></trkpt><trkpt lat="53.260519" lon="-1.7735378"><ele>269.6666666666667</ele><time>2026-04-18T10:52:06.058Z</time></trkpt><trkpt lat="53.2605781" lon="-1.7736291"><ele>269.5</ele><time>2026-04-18T10:52:07.058Z</time></trkpt><trkpt lat="53.2606438" lon="-1.773697"><ele>269.33333333333337</ele><time>2026-04-18T10:52:08.06Z</time></trkpt><trkpt lat="53.2607302" lon="-1.7737162"><ele>269.1666666666667</ele><time>2026-04-18T10:52:09.058Z</time></trkpt><trkpt lat="53.2608251" lon="-1.7736613"><ele>269.0</ele><time>2026-04-18T10:52:10.057Z</time></trkpt><trkpt lat="53.2609106" lon="-1.7735361"><ele>267.25</ele><time>2026-04-18T10:52:11.056Z</time></trkpt><trkpt lat="53.2609755" lon="-1.7733718"><ele>265.5</ele><time>2026-04-18T10:52:12.057Z</time></trkpt><trkpt lat="53.2610123" lon="-1.7731717"><ele>263.75</ele><time>2026-04-18T10:52:13.057Z</time></trkpt><trkpt lat="53.2610346" lon="-1.7729514"><ele>262.0</ele><time>2026-04-18T10:52:14.058Z</time></trkpt><trkpt lat="53.2610724" lon="-1.7727302"><ele>261.75</ele><time>2026-04-18T10:52:15.056Z</time></trkpt><trkpt lat="53.2611382" lon="-1.7725453"><ele>261.5</ele><time>2026-04-18T10:52:16.057Z</time></trkpt><trkpt lat="53.2612417" lon="-1.7724012"><ele>261.25</ele><time>2026-04-18T10:52:17.055Z</time></trkpt><trkpt lat="53.2613674" lon="-1.7723013"><ele>261.0</ele><time>2026-04-18T10:52:18.057Z</time></trkpt><trkpt lat="53.2614961" lon="-1.7722246"><ele>261.0</ele><time>2026-04-18T10:52:19.058Z</time></trkpt><trkpt lat="53.2616199" lon="-1.7721754"><ele>261.0</ele><time>2026-04-18T10:52:20.06Z</time></trkpt><trkpt lat="53.2617418" lon="-1.7721111"><ele>261.0</ele><time>2026-04-18T10:52:21.054Z</time></trkpt><trkpt lat="53.2618749" lon="-1.772047"><ele>261.0</ele><time>2026-04-18T10:52:22.052Z</time></trkpt><trkpt lat="53.262027" lon="-1.7719931"><ele>261.0</ele><time>2026-04-18T10:52:23.054Z</time></trkpt><trkpt lat="53.2621908" lon="-1.7719485"><ele>261.0</ele><time>2026-04-18T10:52:24.054Z</time></trkpt><trkpt lat="53.2623473" lon="-1.7718937"><ele>261.0</ele><time>2026-04-18T10:52:25.056Z</time></trkpt><trkpt lat="53.262491" lon="-1.7718242"><ele>259.0</ele><time>2026-04-18T10:52:26.055Z</time></trkpt><trkpt lat="53.262624" lon="-1.771721"><ele>257.0</ele><time>2026-04-18T10:52:27.053Z</time></trkpt><trkpt lat="53.2627451" lon="-1.7715953"><ele>255.0</ele><time>2026-04-18T10:52:28.054Z</time></trkpt><trkpt lat="53.2628651" lon="-1.7714582"><ele>253.0</ele><time>2026-04-18T10:52:29.055Z</time></trkpt><trkpt lat="53.2629905" lon="-1.7713209"><ele>252.0</ele><time>2026-04-18T10:52:30.055Z</time></trkpt><trkpt lat="53.2631214" lon="-1.771187"><ele>251.0</ele><time>2026-04-18T10:52:31.054Z</time></trkpt><trkpt lat="53.2632505" lon="-1.7710466"><ele>250.0</ele><time>2026-04-18T10:52:32.053Z</time></trkpt><trkpt lat="53.2633706" lon="-1.770899"><ele>250.0</ele><time>2026-04-18T10:52:33.056Z</time></trkpt><trkpt lat="53.2634791" lon="-1.7707575"><ele>250.0</ele><time>2026-04-18T10:52:34.054Z</time></trkpt><trkpt lat="53.2635896" lon="-1.7706478"><ele>250.0</ele><time>2026-04-18T10:52:35.055Z</time></trkpt><trkpt lat="53.2637026" lon="-1.7705933"><ele>250.0</ele><time>2026-04-18T10:52:36.056Z</time></trkpt><trkpt lat="53.2638206" lon="-1.7706102"><ele>250.0</ele><time>2026-04-18T10:52:37.055Z</time></trkpt><trkpt lat="53.2639424" lon="-1.7707037"><ele>250.0</ele><time>2026-04-18T10:52:38.058Z</time></trkpt><trkpt lat="53.2640576" lon="-1.7708693"><ele>250.0</ele><time>2026-04-18T10:52:39.052Z</time></trkpt><trkpt lat="53.2641567" lon="-1.7710558"><ele>250.0</ele><time>2026-04-18T10:52:40.059Z</time></trkpt><trkpt lat="53.264247" lon="-1.7712197"><ele>252.0</ele><time>2026-04-18T10:52:41.056Z</time></trkpt><trkpt lat="53.2643385" lon="-1.7713364"><ele>254.0</ele><time>2026-04-18T10:52:42.052Z</time></trkpt><trkpt lat="53.2644409" lon="-1.771427"><ele>256.0</ele><time>2026-04-18T10:52:43.058Z</time></trkpt><trkpt lat="53.2645593" lon="-1.7714913"><ele>258.0</ele><time>2026-04-18T10:52:44.057Z</time></trkpt><trkpt lat="53.2646859" lon="-1.7715246"><ele>255.75</ele><time>2026-04-18T10:52:45.056Z</time></trkpt><trkpt lat="53.2648163" lon="-1.7715443"><ele>253.5</ele><time>2026-04-18T10:52:46.053Z</time></trkpt><trkpt lat="53.264951" lon="-1.7715595"><ele>251.25</ele><time>2026-04-18T10:52:47.054Z</time></trkpt><trkpt lat="53.2650853" lon="-1.7715734"><ele>249.0</ele><time>2026-04-18T10:52:48.056Z</time></trkpt><trkpt lat="53.2652157" lon="-1.7715727"><ele>249.0</ele><time>2026-04-18T10:52:49.056Z</time></trkpt><trkpt lat="53.2653422" lon="-1.7715521"><ele>249.0</ele><time>2026-04-18T10:52:50.056Z</time></trkpt><trkpt lat="53.2654676" lon="-1.7715089"><ele>249.0</ele><time>2026-04-18T10:52:51.054Z</time></trkpt><trkpt lat="53.2655992" lon="-1.7714519"><ele>249.0</ele><time>2026-04-18T10:52:52.055Z</time></trkpt><trkpt lat="53.2657337" lon="-1.7713818"><ele>250.5</ele><time>2026-04-18T10:52:53.054Z</time></trkpt><trkpt lat="53.2658665" lon="-1.7713004"><ele>252.0</ele><time>2026-04-18T10:52:54.052Z</time></trkpt><trkpt lat="53.2659993" lon="-1.7712125"><ele>253.5</ele><time>2026-04-18T10:52:55.057Z</time></trkpt><trkpt lat="53.2661318" lon="-1.7711152"><ele>255.0</ele><time>2026-04-18T10:52:56.055Z</time></trkpt><trkpt lat="53.2662633" lon="-1.771007"><ele>255.0</ele><time>2026-04-18T10:52:57.046Z</time></trkpt><trkpt lat="53.2663932" lon="-1.7708959"><ele>255.0</ele><time>2026-04-18T10:52:58.055Z</time></trkpt><trkpt lat="53.2665209" lon="-1.770784"><ele>255.0</ele><time>2026-04-18T10:52:59.054Z</time></trkpt><trkpt lat="53.2666442" lon="-1.770674"><ele>255.0</ele><time>2026-04-18T10:53:00.054Z</time></trkpt><trkpt lat="53.266762" lon="-1.7705718"><ele>253.75</ele><time>2026-04-18T10:53:01.053Z</time></trkpt><trkpt lat="53.2668774" lon="-1.7704658"><ele>252.5</ele><time>2026-04-18T10:53:02.054Z</time></trkpt><trkpt lat="53.2669874" lon="-1.7703597"><ele>251.25</ele><time>2026-04-18T10:53:03.055Z</time></trkpt><trkpt lat="53.2670933" lon="-1.7702563"><ele>250.0</ele><time>2026-04-18T10:53:04.052Z</time></trkpt><trkpt lat="53.2671987" lon="-1.7701538"><ele>251.75</ele><time>2026-04-18T10:53:05.052Z</time></trkpt><trkpt lat="53.267305" lon="-1.77005"><ele>253.5</ele><time>2026-04-18T10:53:06.054Z</time></trkpt><trkpt lat="53.2674123" lon="-1.7699461"><ele>255.25</ele><time>2026-04-18T10:53:07.056Z</time></trkpt><trkpt lat="53.2675185" lon="-1.7698395"><ele>257.0</ele><time>2026-04-18T10:53:08.054Z</time></trkpt><trkpt lat="53.2676225" lon="-1.7697309"><ele>257.0</ele><time>2026-04-18T10:53:09.054Z</time></trkpt><trkpt lat="53.2677265" lon="-1.7696209"><ele>257.0</ele><time>2026-04-18T10:53:10.054Z</time></trkpt><trkpt lat="53.2678325" lon="-1.7695088"><ele>257.0</ele><time>2026-04-18T10:53:11.056Z</time></trkpt><trkpt lat="53.2679413" lon="-1.7693898"><ele>257.0</ele><time>2026-04-18T10:53:12.055Z</time></trkpt><trkpt lat="53.2680533" lon="-1.7692665"><ele>258.5</ele><time>2026-04-18T10:53:13.058Z</time></trkpt><trkpt lat="53.2681675" lon="-1.7691446"><ele>260.0</ele><time>2026-04-18T10:53:14.053Z</time></trkpt><trkpt lat="53.2682826" lon="-1.7690299"><ele>261.5</ele><time>2026-04-18T10:53:15.054Z</time></trkpt><trkpt lat="53.2684013" lon="-1.7689227"><ele>263.0</ele><time>2026-04-18T10:53:16.054Z</time></trkpt><trkpt lat="53.2685234" lon="-1.7688182"><ele>263.0</ele><time>2026-04-18T10:53:17.051Z</time></trkpt><trkpt lat="53.2686454" lon="-1.7687178"><ele>263.0</ele><time>2026-04-18T10:53:18.053Z</time></trkpt><trkpt lat="53.2687681" lon="-1.7686268"><ele>263.0</ele><time>2026-04-18T10:53:19.055Z</time></trkpt><trkpt lat="53.268896" lon="-1.7685458"><ele>263.0</ele><time>2026-04-18T10:53:20.06Z</time></trkpt><trkpt lat="53.2690312" lon="-1.7684856"><ele>265.0</ele><time>2026-04-18T10:53:21.055Z</time></trkpt><trkpt lat="53.2691719" lon="-1.7684516"><ele>267.0</ele><time>2026-04-18T10:53:22.053Z</time></trkpt><trkpt lat="53.2693113" lon="-1.7684489"><ele>269.0</ele><time>2026-04-18T10:53:23.056Z</time></trkpt><trkpt lat="53.2694444" lon="-1.7684739"><ele>271.0</ele><time>2026-04-18T10:53:24.053Z</time></trkpt><trkpt lat="53.2695733" lon="-1.7685095"><ele>271.75</ele><time>2026-04-18T10:53:25.054Z</time></trkpt><trkpt lat="53.269702" lon="-1.7685465"><ele>272.5</ele><time>2026-04-18T10:53:26.052Z</time></trkpt><trkpt lat="53.2698237" lon="-1.7685803"><ele>273.25</ele><time>2026-04-18T10:53:27.054Z</time></trkpt><trkpt lat="53.2699308" lon="-1.7686093"><ele>274.0</ele><time>2026-04-18T10:53:28.053Z</time></trkpt><trkpt lat="53.2700182" lon="-1.7686306"><ele>274.0</ele><time>2026-04-18T10:53:29.053Z</time></trkpt><trkpt lat="53.2700864" lon="-1.768659"><ele>274.0</ele><time>2026-04-18T10:53:30.054Z</time></trkpt><trkpt lat="53.2701863" lon="-1.7686859"><ele>274.0</ele><time>2026-04-18T10:53:32.055Z</time></trkpt><trkpt lat="53.2702424" lon="-1.7686352"><ele>274.0</ele><time>2026-04-18T10:53:33.055Z</time></trkpt><trkpt lat="53.2703091" lon="-1.7685208"><ele>274.0</ele><time>2026-04-18T10:53:34.044Z</time></trkpt><trkpt lat="53.2703832" lon="-1.768358"><ele>273.75</ele><time>2026-04-18T10:53:35.053Z</time></trkpt><trkpt lat="53.2704674" lon="-1.7681709"><ele>273.5</ele><time>2026-04-18T10:53:36.054Z</time></trkpt><trkpt lat="53.2705407" lon="-1.7680042"><ele>273.25</ele><time>2026-04-18T10:53:37.053Z</time></trkpt><trkpt lat="53.2706018" lon="-1.7678336"><ele>273.0</ele><time>2026-04-18T10:53:38.054Z</time></trkpt><trkpt lat="53.2706455" lon="-1.7676486"><ele>273.0</ele><time>2026-04-18T10:53:39.046Z</time></trkpt><trkpt lat="53.2706696" lon="-1.7674457"><ele>273.0</ele><time>2026-04-18T10:53:40.056Z</time></trkpt><trkpt lat="53.2706856" lon="-1.7672142"><ele>273.0</ele><time>2026-04-18T10:53:41.052Z</time></trkpt><trkpt lat="53.2706957" lon="-1.766964"><ele>273.0</ele><time>2026-04-18T10:53:42.053Z</time></trkpt><trkpt lat="53.2707055" lon="-1.7667024"><ele>273.6666666666667</ele><time>2026-04-18T10:53:43.054Z</time></trkpt><trkpt lat="53.2707094" lon="-1.7664346"><ele>274.33333333333337</ele><time>2026-04-18T10:53:44.055Z</time></trkpt><trkpt lat="53.2707035" lon="-1.766169"><ele>275.0</ele><time>2026-04-18T10:53:45.054Z</time></trkpt><trkpt lat="53.2706876" lon="-1.765909"><ele>275.0</ele><time>2026-04-18T10:53:46.053Z</time></trkpt><trkpt lat="53.2706631" lon="-1.7656498"><ele>275.0</ele><time>2026-04-18T10:53:47.054Z</time></trkpt><trkpt lat="53.2706303" lon="-1.7653895"><ele>275.0</ele><time>2026-04-18T10:53:48.055Z</time></trkpt><trkpt lat="53.270592" lon="-1.7651269"><ele>280.0</ele><time>2026-04-18T10:53:49.054Z</time></trkpt><trkpt lat="53.2705559" lon="-1.7648565"><ele>285.0</ele><time>2026-04-18T10:53:50.056Z</time></trkpt><trkpt lat="53.2705294" lon="-1.7645791"><ele>290.0</ele><time>2026-04-18T10:53:51.047Z</time></trkpt><trkpt lat="53.2705205" lon="-1.764288"><ele>290.0</ele><time>2026-04-18T10:53:52.051Z</time></trkpt><trkpt lat="53.270527" lon="-1.7639886"><ele>290.0</ele><time>2026-04-18T10:53:53.053Z</time></trkpt><trkpt lat="53.2705507" lon="-1.7636855"><ele>290.0</ele><time>2026-04-18T10:53:54.055Z</time></trkpt><trkpt lat="53.2705892" lon="-1.7633748"><ele>288.33333333333337</ele><time>2026-04-18T10:53:55.054Z</time></trkpt><trkpt lat="53.2706439" lon="-1.7630761"><ele>286.6666666666667</ele><time>2026-04-18T10:53:56.054Z</time></trkpt><trkpt lat="53.2707076" lon="-1.7628157"><ele>285.0</ele><time>2026-04-18T10:53:57.054Z</time></trkpt><trkpt lat="53.2707815" lon="-1.7625834"><ele>285.0</ele><time>2026-04-18T10:53:58.055Z</time></trkpt><trkpt lat="53.2708658" lon="-1.7623943"><ele>285.0</ele><time>2026-04-18T10:53:59.054Z</time></trkpt><trkpt lat="53.2709603" lon="-1.7622391"><ele>285.0</ele><time>2026-04-18T10:54:00.054Z</time></trkpt><trkpt lat="53.2710685" lon="-1.7621053"><ele>285.0</ele><time>2026-04-18T10:54:01.056Z</time></trkpt><trkpt lat="53.2711794" lon="-1.7619995"><ele>285.0</ele><time>2026-04-18T10:54:02.054Z</time></trkpt><trkpt lat="53.2712838" lon="-1.761907"><ele>285.0</ele><time>2026-04-18T10:54:03.053Z</time></trkpt><trkpt lat="53.2713787" lon="-1.7618197"><ele>285.0</ele><time>2026-04-18T10:54:04.054Z</time></trkpt><trkpt lat="53.2714694" lon="-1.7617164"><ele>285.0</ele><time>2026-04-18T10:54:05.055Z</time></trkpt><trkpt lat="53.2715613" lon="-1.7615987"><ele>286.0</ele><time>2026-04-18T10:54:06.053Z</time></trkpt><trkpt lat="53.2716454" lon="-1.7614645"><ele>287.0</ele><time>2026-04-18T10:54:07.056Z</time></trkpt><trkpt lat="53.2717179" lon="-1.7613125"><ele>288.0</ele><time>2026-04-18T10:54:08.046Z</time></trkpt><trkpt lat="53.2717873" lon="-1.7611482"><ele>289.0</ele><time>2026-04-18T10:54:09.056Z</time></trkpt><trkpt lat="53.2718569" lon="-1.7609768"><ele>290.5</ele><time>2026-04-18T10:54:10.059Z</time></trkpt><trkpt lat="53.2719287" lon="-1.7607929"><ele>292.0</ele><time>2026-04-18T10:54:11.057Z</time></trkpt><trkpt lat="53.2720035" lon="-1.7606017"><ele>293.5</ele><time>2026-04-18T10:54:12.056Z</time></trkpt><trkpt lat="53.2720781" lon="-1.7604076"><ele>295.0</ele><time>2026-04-18T10:54:13.055Z</time></trkpt><trkpt lat="53.2721481" lon="-1.760216"><ele>295.25</ele><time>2026-04-18T10:54:14.054Z</time></trkpt><trkpt lat="53.2722123" lon="-1.7600333"><ele>295.5</ele><time>2026-04-18T10:54:15.044Z</time></trkpt><trkpt lat="53.2722699" lon="-1.7598572"><ele>295.75</ele><time>2026-04-18T10:54:16.054Z</time></trkpt><trkpt lat="53.272317" lon="-1.7596758"><ele>296.0</ele><time>2026-04-18T10:54:17.054Z</time></trkpt><trkpt lat="53.2723631" lon="-1.7594771"><ele>296.25</ele><time>2026-04-18T10:54:18.054Z</time></trkpt><trkpt lat="53.2724116" lon="-1.7592676"><ele>296.5</ele><time>2026-04-18T10:54:19.054Z</time></trkpt><trkpt lat="53.272466" lon="-1.7590407"><ele>296.75</ele><time>2026-04-18T10:54:20.051Z</time></trkpt><trkpt lat="53.2725226" lon="-1.7588029"><ele>297.0</ele><time>2026-04-18T10:54:21.054Z</time></trkpt><trkpt lat="53.2725782" lon="-1.7585735"><ele>297.2</ele><time>2026-04-18T10:54:22.051Z</time></trkpt><trkpt lat="53.2726281" lon="-1.7583646"><ele>297.4</ele><time>2026-04-18T10:54:23.055Z</time></trkpt><trkpt lat="53.272666" lon="-1.7582035"><ele>297.6</ele><time>2026-04-18T10:54:24.052Z</time></trkpt><trkpt lat="53.2726984" lon="-1.7580658"><ele>297.8</ele><time>2026-04-18T10:54:26.053Z</time></trkpt><trkpt lat="53.2726294" lon="-1.7579997"><ele>298.0</ele><time>2026-04-18T10:54:31.056Z</time></trkpt><trkpt lat="53.2725282" lon="-1.758137"><ele>298.0</ele><time>2026-04-18T10:54:33.057Z</time></trkpt><trkpt lat="53.272466" lon="-1.7582575"><ele>298.0</ele><time>2026-04-18T10:54:34.055Z</time></trkpt><trkpt lat="53.2723889" lon="-1.7584117"><ele>298.0</ele><time>2026-04-18T10:54:35.056Z</time></trkpt><trkpt lat="53.2723126" lon="-1.7585714"><ele>298.0</ele><time>2026-04-18T10:54:36.055Z</time></trkpt><trkpt lat="53.2722368" lon="-1.7587364"><ele>299.25</ele><time>2026-04-18T10:54:37.056Z</time></trkpt><trkpt lat="53.2721623" lon="-1.7589026"><ele>300.5</ele><time>2026-04-18T10:54:38.056Z</time></trkpt><trkpt lat="53.2720869" lon="-1.7590706"><ele>301.75</ele><time>2026-04-18T10:54:39.057Z</time></trkpt><trkpt lat="53.2720069" lon="-1.7592333"><ele>303.0</ele><time>2026-04-18T10:54:40.057Z</time></trkpt><trkpt lat="53.2719214" lon="-1.759381"><ele>303.0</ele><time>2026-04-18T10:54:41.054Z</time></trkpt><trkpt lat="53.2718269" lon="-1.7594983"><ele>303.0</ele><time>2026-04-18T10:54:42.053Z</time></trkpt><trkpt lat="53.271722" lon="-1.7595655"><ele>303.0</ele><time>2026-04-18T10:54:43.059Z</time></trkpt><trkpt lat="53.2716067" lon="-1.7596102"><ele>303.0</ele><time>2026-04-18T10:54:44.054Z</time></trkpt><trkpt lat="53.2714855" lon="-1.7596542"><ele>304.5</ele><time>2026-04-18T10:54:45.055Z</time></trkpt><trkpt lat="53.271358" lon="-1.7597133"><ele>306.0</ele><time>2026-04-18T10:54:46.057Z</time></trkpt><trkpt lat="53.2712269" lon="-1.7597789"><ele>307.5</ele><time>2026-04-18T10:54:47.055Z</time></trkpt><trkpt lat="53.2710923" lon="-1.7598392"><ele>309.0</ele><time>2026-04-18T10:54:48.056Z</time></trkpt><trkpt lat="53.2709495" lon="-1.7598851"><ele>309.0</ele><time>2026-04-18T10:54:49.055Z</time></trkpt><trkpt lat="53.2708001" lon="-1.7599103"><ele>309.0</ele><time>2026-04-18T10:54:50.058Z</time></trkpt><trkpt lat="53.2706466" lon="-1.7599203"><ele>309.0</ele><time>2026-04-18T10:54:51.055Z</time></trkpt><trkpt lat="53.2704874" lon="-1.7599293"><ele>311.0</ele><time>2026-04-18T10:54:52.056Z</time></trkpt><trkpt lat="53.2703177" lon="-1.7599458"><ele>313.0</ele><time>2026-04-18T10:54:53.056Z</time></trkpt><trkpt lat="53.2701504" lon="-1.7599714"><ele>315.0</ele><time>2026-04-18T10:54:54.056Z</time></trkpt><trkpt lat="53.2699867" lon="-1.7600099"><ele>315.0</ele><time>2026-04-18T10:54:55.056Z</time></trkpt><trkpt lat="53.2698307" lon="-1.760052"><ele>315.0</ele><time>2026-04-18T10:54:56.058Z</time></trkpt><trkpt lat="53.2696807" lon="-1.7600901"><ele>315.0</ele><time>2026-04-18T10:54:57.057Z</time></trkpt><trkpt lat="53.2695358" lon="-1.7601323"><ele>315.0</ele><time>2026-04-18T10:54:58.056Z</time></trkpt><trkpt lat="53.2693929" lon="-1.760177"><ele>315.0</ele><time>2026-04-18T10:54:59.056Z</time></trkpt><trkpt lat="53.2692535" lon="-1.7602238"><ele>315.0</ele><time>2026-04-18T10:55:00.056Z</time></trkpt><trkpt lat="53.2691174" lon="-1.76027"><ele>315.0</ele><time>2026-04-18T10:55:01.055Z</time></trkpt><trkpt lat="53.2689787" lon="-1.7602987"><ele>314.75</ele><time>2026-04-18T10:55:02.057Z</time></trkpt><trkpt lat="53.2688355" lon="-1.7603079"><ele>314.5</ele><time>2026-04-18T10:55:03.06Z</time></trkpt><trkpt lat="53.2686897" lon="-1.7602947"><ele>314.25</ele><time>2026-04-18T10:55:04.058Z</time></trkpt><trkpt lat="53.2685403" lon="-1.76026"><ele>314.0</ele><time>2026-04-18T10:55:05.058Z</time></trkpt><trkpt lat="53.26839" lon="-1.7601982"><ele>314.0</ele><time>2026-04-18T10:55:06.056Z</time></trkpt><trkpt lat="53.2682395" lon="-1.7601147"><ele>314.0</ele><time>2026-04-18T10:55:07.057Z</time></trkpt><trkpt lat="53.2680897" lon="-1.760017"><ele>314.0</ele><time>2026-04-18T10:55:08.058Z</time></trkpt><trkpt lat="53.2679392" lon="-1.7599102"><ele>314.33333333333337</ele><time>2026-04-18T10:55:09.061Z</time></trkpt><trkpt lat="53.2677829" lon="-1.7598007"><ele>314.6666666666667</ele><time>2026-04-18T10:55:10.062Z</time></trkpt><trkpt lat="53.267623" lon="-1.7596934"><ele>315.0</ele><time>2026-04-18T10:55:11.056Z</time></trkpt><trkpt lat="53.2674615" lon="-1.7595743"><ele>315.0</ele><time>2026-04-18T10:55:12.056Z</time></trkpt><trkpt lat="53.2672967" lon="-1.7594451"><ele>315.0</ele><time>2026-04-18T10:55:13.058Z</time></trkpt><trkpt lat="53.2671294" lon="-1.7593045"><ele>315.0</ele><time>2026-04-18T10:55:14.058Z</time></trkpt><trkpt lat="53.2669641" lon="-1.7591512"><ele>314.6666666666667</ele><time>2026-04-18T10:55:15.051Z</time></trkpt><trkpt lat="53.2668026" lon="-1.7590007"><ele>314.33333333333337</ele><time>2026-04-18T10:55:16.057Z</time></trkpt><trkpt lat="53.2666463" lon="-1.7588573"><ele>314.0</ele><time>2026-04-18T10:55:17.057Z</time></trkpt><trkpt lat="53.2664935" lon="-1.7587171"><ele>315.0</ele><time>2026-04-18T10:55:18.056Z</time></trkpt><trkpt lat="53.2663402" lon="-1.7585866"><ele>316.0</ele><time>2026-04-18T10:55:19.055Z</time></trkpt><trkpt lat="53.2661882" lon="-1.7584681"><ele>317.0</ele><time>2026-04-18T10:55:20.057Z</time></trkpt><trkpt lat="53.2660449" lon="-1.7583656"><ele>317.0</ele><time>2026-04-18T10:55:21.056Z</time></trkpt><trkpt lat="53.2659194" lon="-1.7582747"><ele>317.0</ele><time>2026-04-18T10:55:22.057Z</time></trkpt><trkpt lat="53.2658153" lon="-1.7581914"><ele>317.0</ele><time>2026-04-18T10:55:23.062Z</time></trkpt><trkpt lat="53.2657325" lon="-1.7581157"><ele>317.0</ele><time>2026-04-18T10:55:24.056Z</time></trkpt><trkpt lat="53.2656557" lon="-1.7580179"><ele>317.0</ele><time>2026-04-18T10:55:25.056Z</time></trkpt><trkpt lat="53.2655858" lon="-1.7579024"><ele>317.25</ele><time>2026-04-18T10:55:26.055Z</time></trkpt><trkpt lat="53.2655118" lon="-1.7577635"><ele>317.5</ele><time>2026-04-18T10:55:27.054Z</time></trkpt><trkpt lat="53.2654293" lon="-1.7576057"><ele>317.75</ele><time>2026-04-18T10:55:28.057Z</time></trkpt><trkpt lat="53.2653327" lon="-1.7574473"><ele>318.0</ele><time>2026-04-18T10:55:29.054Z</time></trkpt><trkpt lat="53.2652211" lon="-1.7573022"><ele>318.0</ele><time>2026-04-18T10:55:30.055Z</time></trkpt><trkpt lat="53.2650995" lon="-1.757168"><ele>318.0</ele><time>2026-04-18T10:55:31.056Z</time></trkpt><trkpt lat="53.2649748" lon="-1.7570378"><ele>318.0</ele><time>2026-04-18T10:55:32.057Z</time></trkpt><trkpt lat="53.2648482" lon="-1.7568982"><ele>318.0</ele><time>2026-04-18T10:55:33.059Z</time></trkpt><trkpt lat="53.2647251" lon="-1.7567579"><ele>318.75</ele><time>2026-04-18T10:55:34.056Z</time></trkpt><trkpt lat="53.2646002" lon="-1.7566331"><ele>319.5</ele><time>2026-04-18T10:55:35.058Z</time></trkpt><trkpt lat="53.2644795" lon="-1.7565269"><ele>320.25</ele><time>2026-04-18T10:55:36.059Z</time></trkpt><trkpt lat="53.2643685" lon="-1.7564358"><ele>321.0</ele><time>2026-04-18T10:55:37.058Z</time></trkpt><trkpt lat="53.2642587" lon="-1.7563546"><ele>321.0</ele><time>2026-04-18T10:55:38.06Z</time></trkpt><trkpt lat="53.2641432" lon="-1.7562822"><ele>321.0</ele><time>2026-04-18T10:55:39.057Z</time></trkpt><trkpt lat="53.2640169" lon="-1.7562155"><ele>321.0</ele><time>2026-04-18T10:55:40.057Z</time></trkpt><trkpt lat="53.2638832" lon="-1.7561474"><ele>321.0</ele><time>2026-04-18T10:55:41.056Z</time></trkpt><trkpt lat="53.2637471" lon="-1.7560679"><ele>320.3333333333333</ele><time>2026-04-18T10:55:42.057Z</time></trkpt><trkpt lat="53.2636102" lon="-1.7559888"><ele>319.66666666666663</ele><time>2026-04-18T10:55:43.057Z</time></trkpt><trkpt lat="53.2634647" lon="-1.7559288"><ele>319.0</ele><time>2026-04-18T10:55:44.056Z</time></trkpt><trkpt lat="53.2633087" lon="-1.7558974"><ele>319.0</ele><time>2026-04-18T10:55:45.056Z</time></trkpt><trkpt lat="53.2631469" lon="-1.7558953"><ele>319.0</ele><time>2026-04-18T10:55:46.057Z</time></trkpt><trkpt lat="53.2629841" lon="-1.7559092"><ele>319.0</ele><time>2026-04-18T10:55:47.058Z</time></trkpt><trkpt lat="53.2628166" lon="-1.7559364"><ele>318.3333333333333</ele><time>2026-04-18T10:55:48.058Z</time></trkpt><trkpt lat="53.2626496" lon="-1.7559652"><ele>317.6666666666667</ele><time>2026-04-18T10:55:49.056Z</time></trkpt><trkpt lat="53.2624831" lon="-1.7559937"><ele>317.0</ele><time>2026-04-18T10:55:50.058Z</time></trkpt><trkpt lat="53.2623152" lon="-1.7560256"><ele>315.33333333333337</ele><time>2026-04-18T10:55:51.057Z</time></trkpt><trkpt lat="53.2621463" lon="-1.7560605"><ele>313.6666666666667</ele><time>2026-04-18T10:55:52.056Z</time></trkpt><trkpt lat="53.2619782" lon="-1.7560928"><ele>312.0</ele><time>2026-04-18T10:55:53.059Z</time></trkpt><trkpt lat="53.2618091" lon="-1.7561196"><ele>312.0</ele><time>2026-04-18T10:55:54.054Z</time></trkpt><trkpt lat="53.2616398" lon="-1.7561322"><ele>312.0</ele><time>2026-04-18T10:55:55.059Z</time></trkpt><trkpt lat="53.2614703" lon="-1.7561207"><ele>312.0</ele><time>2026-04-18T10:55:56.056Z</time></trkpt><trkpt lat="53.2613009" lon="-1.7560731"><ele>312.6666666666667</ele><time>2026-04-18T10:55:57.056Z</time></trkpt><trkpt lat="53.2611334" lon="-1.7559959"><ele>313.33333333333337</ele><time>2026-04-18T10:55:58.057Z</time></trkpt><trkpt lat="53.2609606" lon="-1.7559178"><ele>314.0</ele><time>2026-04-18T10:55:59.055Z</time></trkpt><trkpt lat="53.26078" lon="-1.7558638"><ele>314.6666666666667</ele><time>2026-04-18T10:56:00.055Z</time></trkpt><trkpt lat="53.2605982" lon="-1.7558334"><ele>315.3333333333333</ele><time>2026-04-18T10:56:01.057Z</time></trkpt><trkpt lat="53.2604115" lon="-1.7558282"><ele>316.0</ele><time>2026-04-18T10:56:02.057Z</time></trkpt><trkpt lat="53.2602229" lon="-1.7558364"><ele>316.0</ele><time>2026-04-18T10:56:03.06Z</time></trkpt><trkpt lat="53.2600329" lon="-1.7558521"><ele>316.0</ele><time>2026-04-18T10:56:04.056Z</time></trkpt><trkpt lat="53.2598411" lon="-1.7558656"><ele>316.0</ele><time>2026-04-18T10:56:05.058Z</time></trkpt><trkpt lat="53.2596466" lon="-1.7558754"><ele>316.0</ele><time>2026-04-18T10:56:06.058Z</time></trkpt><trkpt lat="53.259455" lon="-1.7558795"><ele>316.0</ele><time>2026-04-18T10:56:07.056Z</time></trkpt><trkpt lat="53.2592726" lon="-1.7558706"><ele>316.0</ele><time>2026-04-18T10:56:08.058Z</time></trkpt><trkpt lat="53.2590985" lon="-1.7558405"><ele>314.0</ele><time>2026-04-18T10:56:09.058Z</time></trkpt><trkpt lat="53.2589288" lon="-1.7557899"><ele>312.0</ele><time>2026-04-18T10:56:10.064Z</time></trkpt><trkpt lat="53.2587591" lon="-1.7557144"><ele>310.0</ele><time>2026-04-18T10:56:11.062Z</time></trkpt><trkpt lat="53.2585874" lon="-1.7556131"><ele>310.0</ele><time>2026-04-18T10:56:12.057Z</time></trkpt><trkpt lat="53.2584132" lon="-1.7554977"><ele>310.0</ele><time>2026-04-18T10:56:13.066Z</time></trkpt><trkpt lat="53.2582422" lon="-1.7553852"><ele>310.0</ele><time>2026-04-18T10:56:14.059Z</time></trkpt><trkpt lat="53.2580826" lon="-1.7552937"><ele>309.75</ele><time>2026-04-18T10:56:15.057Z</time></trkpt><trkpt lat="53.2579388" lon="-1.7552265"><ele>309.5</ele><time>2026-04-18T10:56:16.056Z</time></trkpt><trkpt lat="53.2578115" lon="-1.7551738"><ele>309.25</ele><time>2026-04-18T10:56:17.057Z</time></trkpt><trkpt lat="53.2577" lon="-1.7551303"><ele>309.0</ele><time>2026-04-18T10:56:18.056Z</time></trkpt><trkpt lat="53.2576051" lon="-1.7550698"><ele>309.0</ele><time>2026-04-18T10:56:19.056Z</time></trkpt><trkpt lat="53.2575327" lon="-1.7549647"><ele>309.0</ele><time>2026-04-18T10:56:20.057Z</time></trkpt><trkpt lat="53.257451" lon="-1.7548177"><ele>309.0</ele><time>2026-04-18T10:56:21.056Z</time></trkpt><trkpt lat="53.2573775" lon="-1.754634"><ele>309.0</ele><time>2026-04-18T10:56:22.055Z</time></trkpt><trkpt lat="53.2573097" lon="-1.754426"><ele>302.6666666666667</ele><time>2026-04-18T10:56:23.056Z</time></trkpt><trkpt lat="53.2572355" lon="-1.754202"><ele>296.33333333333337</ele><time>2026-04-18T10:56:24.056Z</time></trkpt><trkpt lat="53.2571554" lon="-1.7539473"><ele>290.0</ele><time>2026-04-18T10:56:25.062Z</time></trkpt><trkpt lat="53.2570746" lon="-1.7536748"><ele>290.6666666666667</ele><time>2026-04-18T10:56:26.057Z</time></trkpt><trkpt lat="53.2570008" lon="-1.7534044"><ele>291.3333333333333</ele><time>2026-04-18T10:56:27.056Z</time></trkpt><trkpt lat="53.2569426" lon="-1.7531465"><ele>292.0</ele><time>2026-04-18T10:56:28.056Z</time></trkpt><trkpt lat="53.2568915" lon="-1.7529075"><ele>293.75</ele><time>2026-04-18T10:56:29.06Z</time></trkpt><trkpt lat="53.2568394" lon="-1.7526922"><ele>295.5</ele><time>2026-04-18T10:56:30.056Z</time></trkpt><trkpt lat="53.2567814" lon="-1.7524945"><ele>297.25</ele><time>2026-04-18T10:56:31.056Z</time></trkpt><trkpt lat="53.2567044" lon="-1.7523112"><ele>299.0</ele><time>2026-04-18T10:56:32.057Z</time></trkpt><trkpt lat="53.2566103" lon="-1.7521422"><ele>299.0</ele><time>2026-04-18T10:56:33.059Z</time></trkpt><trkpt lat="53.2565134" lon="-1.7519925"><ele>299.0</ele><time>2026-04-18T10:56:34.056Z</time></trkpt><trkpt lat="53.2564169" lon="-1.7518561"><ele>299.0</ele><time>2026-04-18T10:56:35.058Z</time></trkpt><trkpt lat="53.2563321" lon="-1.7517325"><ele>299.0</ele><time>2026-04-18T10:56:36.054Z</time></trkpt><trkpt lat="53.2562588" lon="-1.7516029"><ele>297.25</ele><time>2026-04-18T10:56:37.054Z</time></trkpt><trkpt lat="53.2561959" lon="-1.7514512"><ele>295.5</ele><time>2026-04-18T10:56:38.054Z</time></trkpt><trkpt lat="53.2561314" lon="-1.7512822"><ele>293.75</ele><time>2026-04-18T10:56:39.057Z</time></trkpt><trkpt lat="53.2560542" lon="-1.7511132"><ele>292.0</ele><time>2026-04-18T10:56:40.057Z</time></trkpt><trkpt lat="53.255966" lon="-1.7509501"><ele>292.0</ele><time>2026-04-18T10:56:41.056Z</time></trkpt><trkpt lat="53.2558676" lon="-1.7508066"><ele>292.0</ele><time>2026-04-18T10:56:42.054Z</time></trkpt><trkpt lat="53.2557599" lon="-1.7506842"><ele>292.0</ele><time>2026-04-18T10:56:43.056Z</time></trkpt><trkpt lat="53.2556442" lon="-1.750582"><ele>292.0</ele><time>2026-04-18T10:56:44.053Z</time></trkpt><trkpt lat="53.2555276" lon="-1.7504796"><ele>291.0</ele><time>2026-04-18T10:56:45.055Z</time></trkpt><trkpt lat="53.2554096" lon="-1.750391"><ele>290.0</ele><time>2026-04-18T10:56:46.056Z</time></trkpt><trkpt lat="53.2552953" lon="-1.7503173"><ele>289.0</ele><time>2026-04-18T10:56:47.054Z</time></trkpt><trkpt lat="53.2551733" lon="-1.7502582"><ele>288.0</ele><time>2026-04-18T10:56:48.055Z</time></trkpt><trkpt lat="53.2550675" lon="-1.7502045"><ele>288.0</ele><time>2026-04-18T10:56:49.055Z</time></trkpt><trkpt lat="53.2549678" lon="-1.7501613"><ele>288.0</ele><time>2026-04-18T10:56:50.058Z</time></trkpt><trkpt lat="53.254876" lon="-1.7501273"><ele>288.0</ele><time>2026-04-18T10:56:51.054Z</time></trkpt><trkpt lat="53.2547931" lon="-1.7500945"><ele>288.0</ele><time>2026-04-18T10:56:52.055Z</time></trkpt><trkpt lat="53.2547178" lon="-1.7500449"><ele>288.0</ele><time>2026-04-18T10:56:53.056Z</time></trkpt><trkpt lat="53.2546522" lon="-1.7499575"><ele>288.0</ele><time>2026-04-18T10:56:54.054Z</time></trkpt><trkpt lat="53.2546064" lon="-1.7498161"><ele>285.2</ele><time>2026-04-18T10:56:55.056Z</time></trkpt><trkpt lat="53.2545878" lon="-1.7496383"><ele>282.4</ele><time>2026-04-18T10:56:56.056Z</time></trkpt><trkpt lat="53.254594" lon="-1.7494544"><ele>279.59999999999997</ele><time>2026-04-18T10:56:57.056Z</time></trkpt><trkpt lat="53.2546021" lon="-1.7492746"><ele>276.8</ele><time>2026-04-18T10:56:58.055Z</time></trkpt><trkpt lat="53.2546099" lon="-1.7491187"><ele>274.0</ele><time>2026-04-18T10:56:59.055Z</time></trkpt><trkpt lat="53.2546172" lon="-1.7489745"><ele>274.0</ele><time>2026-04-18T10:57:00.059Z</time></trkpt><trkpt lat="53.2546274" lon="-1.7488347"><ele>274.0</ele><time>2026-04-18T10:57:01.058Z</time></trkpt><trkpt lat="53.2546449" lon="-1.7486957"><ele>274.0</ele><time>2026-04-18T10:57:02.058Z</time></trkpt><trkpt lat="53.2546665" lon="-1.7485522"><ele>274.0</ele><time>2026-04-18T10:57:03.056Z</time></trkpt><trkpt lat="53.2546869" lon="-1.7484014"><ele>274.0</ele><time>2026-04-18T10:57:04.056Z</time></trkpt><trkpt lat="53.2547048" lon="-1.7482474"><ele>274.0</ele><time>2026-04-18T10:57:05.058Z</time></trkpt><trkpt lat="53.2547178" lon="-1.7480955"><ele>272.59999999999997</ele><time>2026-04-18T10:57:06.057Z</time></trkpt><trkpt lat="53.2547237" lon="-1.7479464"><ele>271.2</ele><time>2026-04-18T10:57:07.057Z</time></trkpt><trkpt lat="53.2547201" lon="-1.7477869"><ele>269.79999999999995</ele><time>2026-04-18T10:57:08.057Z</time></trkpt><trkpt lat="53.2547183" lon="-1.7476329"><ele>268.4</ele><time>2026-04-18T10:57:09.047Z</time></trkpt><trkpt lat="53.254721" lon="-1.7474773"><ele>267.0</ele><time>2026-04-18T10:57:10.056Z</time></trkpt><trkpt lat="53.2547261" lon="-1.7473211"><ele>265.4</ele><time>2026-04-18T10:57:11.055Z</time></trkpt><trkpt lat="53.2547321" lon="-1.7471689"><ele>263.79999999999995</ele><time>2026-04-18T10:57:12.057Z</time></trkpt><trkpt lat="53.2547386" lon="-1.7470115"><ele>262.2</ele><time>2026-04-18T10:57:13.058Z</time></trkpt><trkpt lat="53.2547477" lon="-1.7468502"><ele>260.59999999999997</ele><time>2026-04-18T10:57:14.055Z</time></trkpt><trkpt lat="53.2547595" lon="-1.7466807"><ele>259.0</ele><time>2026-04-18T10:57:15.054Z</time></trkpt><trkpt lat="53.2547751" lon="-1.7465013"><ele>262.0</ele><time>2026-04-18T10:57:16.055Z</time></trkpt><trkpt lat="53.2547981" lon="-1.7463212"><ele>265.0</ele><time>2026-04-18T10:57:17.053Z</time></trkpt><trkpt lat="53.2548293" lon="-1.7461488"><ele>268.0</ele><time>2026-04-18T10:57:18.054Z</time></trkpt><trkpt lat="53.2548686" lon="-1.7459896"><ele>271.0</ele><time>2026-04-18T10:57:19.057Z</time></trkpt><trkpt lat="53.2549135" lon="-1.7458509"><ele>274.0</ele><time>2026-04-18T10:57:20.056Z</time></trkpt><trkpt lat="53.2549652" lon="-1.7457331"><ele>274.0</ele><time>2026-04-18T10:57:21.053Z</time></trkpt><trkpt lat="53.2550216" lon="-1.7456466"><ele>274.0</ele><time>2026-04-18T10:57:22.055Z</time></trkpt><trkpt lat="53.2550804" lon="-1.7455792"><ele>274.0</ele><time>2026-04-18T10:57:23.059Z</time></trkpt><trkpt lat="53.2551389" lon="-1.7455195"><ele>274.0</ele><time>2026-04-18T10:57:24.056Z</time></trkpt><trkpt lat="53.2552387" lon="-1.7454098"><ele>274.0</ele><time>2026-04-18T10:57:26.055Z</time></trkpt><trkpt lat="53.2553652" lon="-1.7453574"><ele>274.0</ele><time>2026-04-18T10:57:28.057Z</time></trkpt><trkpt lat="53.2554327" lon="-1.7453592"><ele>274.0</ele><time>2026-04-18T10:57:29.054Z</time></trkpt><trkpt lat="53.2555355" lon="-1.7453838"><ele>274.0</ele><time>2026-04-18T10:57:31.053Z</time></trkpt><trkpt lat="53.2555527" lon="-1.7452781"><ele>274.0</ele><time>2026-04-18T10:57:45.056Z</time></trkpt><trkpt lat="53.2554725" lon="-1.7451321"><ele>274.0</ele><time>2026-04-18T10:57:47.053Z</time></trkpt><trkpt lat="53.2553961" lon="-1.7450598"><ele>274.0</ele><time>2026-04-18T10:57:48.054Z</time></trkpt><trkpt lat="53.2553031" lon="-1.7449879"><ele>271.59999999999997</ele><time>2026-04-18T10:57:49.054Z</time></trkpt><trkpt lat="53.2552023" lon="-1.7449224"><ele>269.2</ele><time>2026-04-18T10:57:50.054Z</time></trkpt><trkpt lat="53.2550985" lon="-1.744867"><ele>266.79999999999995</ele><time>2026-04-18T10:57:51.056Z</time></trkpt><trkpt lat="53.2549906" lon="-1.7448264"><ele>264.4</ele><time>2026-04-18T10:57:52.048Z</time></trkpt><trkpt lat="53.2548837" lon="-1.7447978"><ele>262.0</ele><time>2026-04-18T10:57:53.056Z</time></trkpt><trkpt lat="53.2547858" lon="-1.7447789"><ele>259.66666666666663</ele><time>2026-04-18T10:57:54.053Z</time></trkpt><trkpt lat="53.2546987" lon="-1.7447766"><ele>257.3333333333333</ele><time>2026-04-18T10:57:55.055Z</time></trkpt><trkpt lat="53.2546218" lon="-1.7448004"><ele>255.0</ele><time>2026-04-18T10:57:56.055Z</time></trkpt><trkpt lat="53.2545543" lon="-1.7448665"><ele>252.66666666666669</ele><time>2026-04-18T10:57:57.054Z</time></trkpt><trkpt lat="53.2544934" lon="-1.744974"><ele>250.33333333333334</ele><time>2026-04-18T10:57:58.056Z</time></trkpt><trkpt lat="53.2544413" lon="-1.7451139"><ele>248.0</ele><time>2026-04-18T10:57:59.053Z</time></trkpt><trkpt lat="53.2543982" lon="-1.7452438"><ele>248.00000000000003</ele><time>2026-04-18T10:58:00.058Z</time></trkpt><trkpt lat="53.2543576" lon="-1.7453532"><ele>248.0</ele><time>2026-04-18T10:58:01.054Z</time></trkpt><trkpt lat="53.2543038" lon="-1.74551"><ele>248.0</ele><time>2026-04-18T10:58:03.053Z</time></trkpt><trkpt lat="53.2542412" lon="-1.7455276"><ele>248.0</ele><time>2026-04-18T10:58:05.053Z</time></trkpt><trkpt lat="53.2541727" lon="-1.7453896"><ele>248.00000000000003</ele><time>2026-04-18T10:58:07.053Z</time></trkpt><trkpt lat="53.2541404" lon="-1.7452431"><ele>248.0</ele><time>2026-04-18T10:58:08.052Z</time></trkpt><trkpt lat="53.2540992" lon="-1.7450742"><ele>247.2</ele><time>2026-04-18T10:58:09.052Z</time></trkpt><trkpt lat="53.254046" lon="-1.7449149"><ele>246.4</ele><time>2026-04-18T10:58:10.053Z</time></trkpt><trkpt lat="53.2539882" lon="-1.744761"><ele>245.59999999999997</ele><time>2026-04-18T10:58:11.054Z</time></trkpt><trkpt lat="53.2539268" lon="-1.744614"><ele>244.79999999999998</ele><time>2026-04-18T10:58:12.055Z</time></trkpt><trkpt lat="53.2538639" lon="-1.7444746"><ele>244.0</ele><time>2026-04-18T10:58:13.057Z</time></trkpt><trkpt lat="53.2537969" lon="-1.7443376"><ele>237.79999999999998</ele><time>2026-04-18T10:58:14.054Z</time></trkpt><trkpt lat="53.2537302" lon="-1.744205"><ele>231.59999999999997</ele><time>2026-04-18T10:58:15.054Z</time></trkpt><trkpt lat="53.253661" lon="-1.7440777"><ele>225.4</ele><time>2026-04-18T10:58:16.053Z</time></trkpt><trkpt lat="53.2535904" lon="-1.7439546"><ele>219.2</ele><time>2026-04-18T10:58:17.053Z</time></trkpt><trkpt lat="53.2535165" lon="-1.7438298"><ele>213.0</ele><time>2026-04-18T10:58:18.056Z</time></trkpt><trkpt lat="53.2534425" lon="-1.7437048"><ele>213.0</ele><time>2026-04-18T10:58:19.053Z</time></trkpt><trkpt lat="53.2533676" lon="-1.7435842"><ele>213.0</ele><time>2026-04-18T10:58:20.055Z</time></trkpt><trkpt lat="53.2532914" lon="-1.7434657"><ele>213.0</ele><time>2026-04-18T10:58:21.054Z</time></trkpt><trkpt lat="53.2532158" lon="-1.7433571"><ele>213.0</ele><time>2026-04-18T10:58:22.055Z</time></trkpt><trkpt lat="53.2531469" lon="-1.7432427"><ele>213.0</ele><time>2026-04-18T10:58:23.055Z</time></trkpt><trkpt lat="53.2530806" lon="-1.7431332"><ele>211.0</ele><time>2026-04-18T10:58:24.054Z</time></trkpt><trkpt lat="53.2530159" lon="-1.7430224"><ele>209.0</ele><time>2026-04-18T10:58:25.055Z</time></trkpt><trkpt lat="53.2529519" lon="-1.7429187"><ele>207.0</ele><time>2026-04-18T10:58:26.051Z</time></trkpt><trkpt lat="53.2528878" lon="-1.7428143"><ele>205.0</ele><time>2026-04-18T10:58:27.045Z</time></trkpt><trkpt lat="53.2528227" lon="-1.742707"><ele>203.0</ele><time>2026-04-18T10:58:28.052Z</time></trkpt><trkpt lat="53.252753" lon="-1.7425911"><ele>203.0</ele><time>2026-04-18T10:58:29.053Z</time></trkpt><trkpt lat="53.2526758" lon="-1.7424628"><ele>203.0</ele><time>2026-04-18T10:58:30.054Z</time></trkpt><trkpt lat="53.2525906" lon="-1.7423245"><ele>203.0</ele><time>2026-04-18T10:58:31.05Z</time></trkpt><trkpt lat="53.252499" lon="-1.7421862"><ele>203.0</ele><time>2026-04-18T10:58:32.05Z</time></trkpt><trkpt lat="53.252413" lon="-1.7420519"><ele>203.0</ele><time>2026-04-18T10:58:33.053Z</time></trkpt><trkpt lat="53.2523289" lon="-1.7419217"><ele>203.0</ele><time>2026-04-18T10:58:34.052Z</time></trkpt><trkpt lat="53.2522489" lon="-1.7417995"><ele>203.0</ele><time>2026-04-18T10:58:35.051Z</time></trkpt><trkpt lat="53.2521721" lon="-1.7416844"><ele>203.0</ele><time>2026-04-18T10:58:36.047Z</time></trkpt><trkpt lat="53.2520946" lon="-1.7415761"><ele>203.0</ele><time>2026-04-18T10:58:37.049Z</time></trkpt><trkpt lat="53.2520133" lon="-1.7414782"><ele>200.2</ele><time>2026-04-18T10:58:38.055Z</time></trkpt><trkpt lat="53.2519095" lon="-1.7413954"><ele>197.4</ele><time>2026-04-18T10:58:39.053Z</time></trkpt><trkpt lat="53.251827" lon="-1.7413287"><ele>194.6</ele><time>2026-04-18T10:58:40.053Z</time></trkpt><trkpt lat="53.2517434" lon="-1.7412853"><ele>191.79999999999998</ele><time>2026-04-18T10:58:41.052Z</time></trkpt><trkpt lat="53.2516514" lon="-1.7412756"><ele>189.0</ele><time>2026-04-18T10:58:42.053Z</time></trkpt><trkpt lat="53.2515586" lon="-1.7413001"><ele>189.0</ele><time>2026-04-18T10:58:43.055Z</time></trkpt><trkpt lat="53.2514741" lon="-1.741339"><ele>189.0</ele><time>2026-04-18T10:58:44.053Z</time></trkpt><trkpt lat="53.2514063" lon="-1.7413747"><ele>189.0</ele><time>2026-04-18T10:58:45.052Z</time></trkpt><trkpt lat="53.2513416" lon="-1.7414165"><ele>189.0</ele><time>2026-04-18T10:58:46.053Z</time></trkpt><trkpt lat="53.2512515" lon="-1.7414435"><ele>189.0</ele><time>2026-04-18T10:58:48.054Z</time></trkpt><trkpt lat="53.2511105" lon="-1.7414965"><ele>186.75</ele><time>2026-04-18T10:58:50.052Z</time></trkpt><trkpt lat="53.2510012" lon="-1.7415286"><ele>184.5</ele><time>2026-04-18T10:58:51.052Z</time></trkpt><trkpt lat="53.2508853" lon="-1.7415526"><ele>182.25</ele><time>2026-04-18T10:58:52.052Z</time></trkpt><trkpt lat="53.2507678" lon="-1.7415624"><ele>180.0</ele><time>2026-04-18T10:58:53.052Z</time></trkpt><trkpt lat="53.2506545" lon="-1.7415577"><ele>179.25</ele><time>2026-04-18T10:58:54.052Z</time></trkpt><trkpt lat="53.2505458" lon="-1.741536"><ele>178.5</ele><time>2026-04-18T10:58:55.055Z</time></trkpt><trkpt lat="53.2504331" lon="-1.7414962"><ele>177.75</ele><time>2026-04-18T10:58:56.054Z</time></trkpt><trkpt lat="53.2503171" lon="-1.7414536"><ele>177.0</ele><time>2026-04-18T10:58:57.051Z</time></trkpt><trkpt lat="53.2501927" lon="-1.7414024"><ele>177.0</ele><time>2026-04-18T10:58:58.053Z</time></trkpt><trkpt lat="53.2500652" lon="-1.7413507"><ele>177.0</ele><time>2026-04-18T10:58:59.053Z</time></trkpt><trkpt lat="53.249928" lon="-1.7412927"><ele>177.0</ele><time>2026-04-18T10:59:00.055Z</time></trkpt><trkpt lat="53.2497871" lon="-1.7412315"><ele>177.0</ele><time>2026-04-18T10:59:01.051Z</time></trkpt><trkpt lat="53.2496456" lon="-1.7411615"><ele>178.33333333333334</ele><time>2026-04-18T10:59:02.054Z</time></trkpt><trkpt lat="53.2495" lon="-1.7410838"><ele>179.66666666666669</ele><time>2026-04-18T10:59:03.054Z</time></trkpt><trkpt lat="53.2493495" lon="-1.7409972"><ele>181.0</ele><time>2026-04-18T10:59:04.052Z</time></trkpt><trkpt lat="53.249199" lon="-1.7409036"><ele>181.0</ele><time>2026-04-18T10:59:05.056Z</time></trkpt><trkpt lat="53.2490558" lon="-1.7408067"><ele>181.0</ele><time>2026-04-18T10:59:06.053Z</time></trkpt><trkpt lat="53.2489187" lon="-1.7407085"><ele>181.0</ele><time>2026-04-18T10:59:07.054Z</time></trkpt><trkpt lat="53.2487863" lon="-1.7406111"><ele>181.0</ele><time>2026-04-18T10:59:08.054Z</time></trkpt><trkpt lat="53.2486602" lon="-1.7405106"><ele>182.5</ele><time>2026-04-18T10:59:09.053Z</time></trkpt><trkpt lat="53.2485328" lon="-1.740407"><ele>184.0</ele><time>2026-04-18T10:59:10.053Z</time></trkpt><trkpt lat="53.2483994" lon="-1.7402975"><ele>185.5</ele><time>2026-04-18T10:59:11.052Z</time></trkpt><trkpt lat="53.2482662" lon="-1.7401752"><ele>187.0</ele><time>2026-04-18T10:59:12.055Z</time></trkpt><trkpt lat="53.2481344" lon="-1.7400316"><ele>184.0</ele><time>2026-04-18T10:59:13.055Z</time></trkpt><trkpt lat="53.2480034" lon="-1.7398735"><ele>181.0</ele><time>2026-04-18T10:59:14.061Z</time></trkpt><trkpt lat="53.2478801" lon="-1.739709"><ele>178.0</ele><time>2026-04-18T10:59:15.057Z</time></trkpt><trkpt lat="53.2477646" lon="-1.7395483"><ele>178.0</ele><time>2026-04-18T10:59:16.058Z</time></trkpt><trkpt lat="53.2476604" lon="-1.7393918"><ele>178.0</ele><time>2026-04-18T10:59:17.053Z</time></trkpt><trkpt lat="53.2475678" lon="-1.7392337"><ele>178.0</ele><time>2026-04-18T10:59:18.054Z</time></trkpt><trkpt lat="53.2474815" lon="-1.7390505"><ele>178.0</ele><time>2026-04-18T10:59:19.052Z</time></trkpt><trkpt lat="53.247404" lon="-1.7388578"><ele>177.33333333333334</ele><time>2026-04-18T10:59:20.058Z</time></trkpt><trkpt lat="53.2473284" lon="-1.7386497"><ele>176.66666666666666</ele><time>2026-04-18T10:59:21.058Z</time></trkpt><trkpt lat="53.2472515" lon="-1.7384295"><ele>176.0</ele><time>2026-04-18T10:59:22.053Z</time></trkpt><trkpt lat="53.2471694" lon="-1.7381985"><ele>176.0</ele><time>2026-04-18T10:59:23.057Z</time></trkpt><trkpt lat="53.2470821" lon="-1.7379467"><ele>176.0</ele><time>2026-04-18T10:59:24.059Z</time></trkpt><trkpt lat="53.2469873" lon="-1.7376673"><ele>176.0</ele><time>2026-04-18T10:59:25.06Z</time></trkpt><trkpt lat="53.2468843" lon="-1.7373982"><ele>175.66666666666666</ele><time>2026-04-18T10:59:26.054Z</time></trkpt><trkpt lat="53.2467796" lon="-1.7371726"><ele>175.33333333333334</ele><time>2026-04-18T10:59:27.054Z</time></trkpt><trkpt lat="53.2466805" lon="-1.7369797"><ele>175.0</ele><time>2026-04-18T10:59:28.052Z</time></trkpt><trkpt lat="53.2465845" lon="-1.736813"><ele>175.0</ele><time>2026-04-18T10:59:29.054Z</time></trkpt><trkpt lat="53.2464904" lon="-1.7366471"><ele>175.0</ele><time>2026-04-18T10:59:30.052Z</time></trkpt><trkpt lat="53.2464007" lon="-1.7364791"><ele>175.0</ele><time>2026-04-18T10:59:31.046Z</time></trkpt><trkpt lat="53.2463204" lon="-1.7363124"><ele>175.0</ele><time>2026-04-18T10:59:32.051Z</time></trkpt><trkpt lat="53.2462463" lon="-1.7361408"><ele>174.2</ele><time>2026-04-18T10:59:33.053Z</time></trkpt><trkpt lat="53.2461815" lon="-1.7359714"><ele>173.4</ele><time>2026-04-18T10:59:34.055Z</time></trkpt><trkpt lat="53.2461262" lon="-1.7358062"><ele>172.60000000000002</ele><time>2026-04-18T10:59:35.055Z</time></trkpt><trkpt lat="53.2460791" lon="-1.7356445"><ele>171.8</ele><time>2026-04-18T10:59:36.052Z</time></trkpt><trkpt lat="53.2460434" lon="-1.735496"><ele>171.0</ele><time>2026-04-18T10:59:37.054Z</time></trkpt><trkpt lat="53.246023" lon="-1.7353601"><ele>171.0</ele><time>2026-04-18T10:59:38.053Z</time></trkpt><trkpt lat="53.246016" lon="-1.7352314"><ele>171.0</ele><time>2026-04-18T10:59:39.053Z</time></trkpt><trkpt lat="53.246001" lon="-1.7351135"><ele>171.0</ele><time>2026-04-18T10:59:40.056Z</time></trkpt><trkpt lat="53.2459576" lon="-1.7350141"><ele>171.0</ele><time>2026-04-18T10:59:41.051Z</time></trkpt><trkpt lat="53.2458954" lon="-1.7349158"><ele>171.0</ele><time>2026-04-18T10:59:42.054Z</time></trkpt><trkpt lat="53.2458246" lon="-1.7348095"><ele>171.0</ele><time>2026-04-18T10:59:43.056Z</time></trkpt><trkpt lat="53.2457547" lon="-1.7346775"><ele>171.75</ele><time>2026-04-18T10:59:44.052Z</time></trkpt><trkpt lat="53.2456856" lon="-1.7345207"><ele>172.5</ele><time>2026-04-18T10:59:45.052Z</time></trkpt><trkpt lat="53.2456293" lon="-1.7343496"><ele>173.25</ele><time>2026-04-18T10:59:46.047Z</time></trkpt><trkpt lat="53.2455767" lon="-1.7341812"><ele>174.0</ele><time>2026-04-18T10:59:47.053Z</time></trkpt><trkpt lat="53.245528" lon="-1.7340091"><ele>174.0</ele><time>2026-04-18T10:59:48.056Z</time></trkpt><trkpt lat="53.2454825" lon="-1.7338318"><ele>174.0</ele><time>2026-04-18T10:59:49.051Z</time></trkpt><trkpt lat="53.2454336" lon="-1.7336506"><ele>174.0</ele><time>2026-04-18T10:59:50.052Z</time></trkpt><trkpt lat="53.2453798" lon="-1.7334611"><ele>174.0</ele><time>2026-04-18T10:59:51.053Z</time></trkpt><trkpt lat="53.2453159" lon="-1.7332737"><ele>173.66666666666666</ele><time>2026-04-18T10:59:52.051Z</time></trkpt><trkpt lat="53.2452449" lon="-1.7330766"><ele>173.33333333333331</ele><time>2026-04-18T10:59:53.056Z</time></trkpt><trkpt lat="53.2451662" lon="-1.732854"><ele>173.0</ele><time>2026-04-18T10:59:54.055Z</time></trkpt><trkpt lat="53.2450813" lon="-1.732606"><ele>175.0</ele><time>2026-04-18T10:59:55.053Z</time></trkpt><trkpt lat="53.2449932" lon="-1.7323536"><ele>177.0</ele><time>2026-04-18T10:59:56.053Z</time></trkpt><trkpt lat="53.2449048" lon="-1.7321106"><ele>179.0</ele><time>2026-04-18T10:59:57.053Z</time></trkpt><trkpt lat="53.244814" lon="-1.7318784"><ele>176.66666666666666</ele><time>2026-04-18T10:59:58.046Z</time></trkpt><trkpt lat="53.2447213" lon="-1.7316538"><ele>174.33333333333334</ele><time>2026-04-18T10:59:59.049Z</time></trkpt><trkpt lat="53.2446333" lon="-1.7314277"><ele>172.0</ele><time>2026-04-18T11:00:00.053Z</time></trkpt><trkpt lat="53.2445526" lon="-1.7311986"><ele>173.0</ele><time>2026-04-18T11:00:01.043Z</time></trkpt><trkpt lat="53.2444752" lon="-1.7309705"><ele>174.0</ele><time>2026-04-18T11:00:02.05Z</time></trkpt><trkpt lat="53.2443922" lon="-1.7307447"><ele>175.0</ele><time>2026-04-18T11:00:03.043Z</time></trkpt><trkpt lat="53.2442943" lon="-1.7305252"><ele>175.0</ele><time>2026-04-18T11:00:04.049Z</time></trkpt><trkpt lat="53.2441837" lon="-1.7303035"><ele>175.0</ele><time>2026-04-18T11:00:05.048Z</time></trkpt><trkpt lat="53.24406" lon="-1.7300675"><ele>175.0</ele><time>2026-04-18T11:00:06.048Z</time></trkpt><trkpt lat="53.2439311" lon="-1.7298404"><ele>175.0</ele><time>2026-04-18T11:00:07.05Z</time></trkpt><trkpt lat="53.2438109" lon="-1.7296217"><ele>175.0</ele><time>2026-04-18T11:00:08.049Z</time></trkpt><trkpt lat="53.2437014" lon="-1.7294046"><ele>175.0</ele><time>2026-04-18T11:00:09.047Z</time></trkpt><trkpt lat="53.2435971" lon="-1.7291895"><ele>175.0</ele><time>2026-04-18T11:00:10.05Z</time></trkpt><trkpt lat="53.2434945" lon="-1.728967"><ele>175.0</ele><time>2026-04-18T11:00:11.056Z</time></trkpt><trkpt lat="53.2433891" lon="-1.7287353"><ele>175.0</ele><time>2026-04-18T11:00:12.051Z</time></trkpt><trkpt lat="53.2432752" lon="-1.7284865"><ele>173.66666666666669</ele><time>2026-04-18T11:00:13.052Z</time></trkpt><trkpt lat="53.2431492" lon="-1.7282267"><ele>172.33333333333334</ele><time>2026-04-18T11:00:14.053Z</time></trkpt><trkpt lat="53.2430162" lon="-1.7279601"><ele>171.0</ele><time>2026-04-18T11:00:15.052Z</time></trkpt><trkpt lat="53.2428955" lon="-1.7277209"><ele>174.33333333333334</ele><time>2026-04-18T11:00:16.055Z</time></trkpt><trkpt lat="53.2427817" lon="-1.7274872"><ele>177.66666666666669</ele><time>2026-04-18T11:00:17.053Z</time></trkpt><trkpt lat="53.2426817" lon="-1.7272636"><ele>181.0</ele><time>2026-04-18T11:00:18.05Z</time></trkpt><trkpt lat="53.2426006" lon="-1.7270381"><ele>185.0</ele><time>2026-04-18T11:00:19.051Z</time></trkpt><trkpt lat="53.2425347" lon="-1.7268012"><ele>189.0</ele><time>2026-04-18T11:00:20.055Z</time></trkpt><trkpt lat="53.2424884" lon="-1.7265528"><ele>193.0</ele><time>2026-04-18T11:00:21.053Z</time></trkpt><trkpt lat="53.2424477" lon="-1.7262983"><ele>193.0</ele><time>2026-04-18T11:00:22.051Z</time></trkpt><trkpt lat="53.2424049" lon="-1.7260552"><ele>193.0</ele><time>2026-04-18T11:00:23.054Z</time></trkpt><trkpt lat="53.2423448" lon="-1.7258271"><ele>193.0</ele><time>2026-04-18T11:00:24.055Z</time></trkpt><trkpt lat="53.2422597" lon="-1.7256163"><ele>193.0</ele><time>2026-04-18T11:00:25.055Z</time></trkpt><trkpt lat="53.2421499" lon="-1.7254313"><ele>193.0</ele><time>2026-04-18T11:00:26.053Z</time></trkpt><trkpt lat="53.2420219" lon="-1.7252788"><ele>193.0</ele><time>2026-04-18T11:00:27.06Z</time></trkpt><trkpt lat="53.2418841" lon="-1.7251391"><ele>199.25</ele><time>2026-04-18T11:00:28.057Z</time></trkpt><trkpt lat="53.2417448" lon="-1.7250175"><ele>205.5</ele><time>2026-04-18T11:00:29.051Z</time></trkpt><trkpt lat="53.2416088" lon="-1.7249134"><ele>211.75</ele><time>2026-04-18T11:00:30.052Z</time></trkpt><trkpt lat="53.241478" lon="-1.7248258"><ele>218.0</ele><time>2026-04-18T11:00:31.049Z</time></trkpt><trkpt lat="53.2413516" lon="-1.7247709"><ele>219.75</ele><time>2026-04-18T11:00:32.049Z</time></trkpt><trkpt lat="53.2412162" lon="-1.7247508"><ele>221.5</ele><time>2026-04-18T11:00:33.052Z</time></trkpt><trkpt lat="53.2410834" lon="-1.724752"><ele>223.25</ele><time>2026-04-18T11:00:34.05Z</time></trkpt><trkpt lat="53.2409541" lon="-1.7247738"><ele>225.0</ele><time>2026-04-18T11:00:35.053Z</time></trkpt><trkpt lat="53.2408417" lon="-1.7248084"><ele>225.0</ele><time>2026-04-18T11:00:36.052Z</time></trkpt><trkpt lat="53.2407513" lon="-1.7248378"><ele>225.0</ele><time>2026-04-18T11:00:37.052Z</time></trkpt><trkpt lat="53.2406633" lon="-1.7248801"><ele>225.0</ele><time>2026-04-18T11:00:39.053Z</time></trkpt><trkpt lat="53.2405991" lon="-1.7248802"><ele>225.0</ele><time>2026-04-18T11:00:42.059Z</time></trkpt><trkpt lat="53.2405756" lon="-1.7247474"><ele>225.0</ele><time>2026-04-18T11:00:44.057Z</time></trkpt><trkpt lat="53.240625" lon="-1.7245964"><ele>225.0</ele><time>2026-04-18T11:00:46.057Z</time></trkpt><trkpt lat="53.240683" lon="-1.7244373"><ele>226.6</ele><time>2026-04-18T11:01:37.057Z</time></trkpt><trkpt lat="53.2407155" lon="-1.724291"><ele>228.2</ele><time>2026-04-18T11:01:39.056Z</time></trkpt><trkpt lat="53.2407413" lon="-1.7241791"><ele>229.8</ele><time>2026-04-18T11:01:41.058Z</time></trkpt><trkpt lat="53.240703" lon="-1.7239689"><ele>231.4</ele><time>2026-04-18T11:01:43.061Z</time></trkpt><trkpt lat="53.2406763" lon="-1.7237965"><ele>233.0</ele><time>2026-04-18T11:01:44.058Z</time></trkpt><trkpt lat="53.2406696" lon="-1.7236362"><ele>232.60000000000002</ele><time>2026-04-18T11:01:45.057Z</time></trkpt><trkpt lat="53.2406819" lon="-1.7234831"><ele>232.20000000000002</ele><time>2026-04-18T11:01:46.057Z</time></trkpt><trkpt lat="53.2407046" lon="-1.7233228"><ele>231.8</ele><time>2026-04-18T11:01:47.057Z</time></trkpt><trkpt lat="53.2407378" lon="-1.7231497"><ele>231.4</ele><time>2026-04-18T11:01:48.059Z</time></trkpt><trkpt lat="53.2407761" lon="-1.7229576"><ele>231.0</ele><time>2026-04-18T11:01:49.056Z</time></trkpt><trkpt lat="53.2408137" lon="-1.7227499"><ele>230.0</ele><time>2026-04-18T11:01:50.058Z</time></trkpt><trkpt lat="53.2408438" lon="-1.7225377"><ele>229.0</ele><time>2026-04-18T11:01:51.06Z</time></trkpt><trkpt lat="53.2408729" lon="-1.7223283"><ele>228.0</ele><time>2026-04-18T11:01:52.058Z</time></trkpt><trkpt lat="53.2409022" lon="-1.7221083"><ele>227.0</ele><time>2026-04-18T11:01:53.061Z</time></trkpt><trkpt lat="53.2409325" lon="-1.7218771"><ele>225.75</ele><time>2026-04-18T11:01:54.059Z</time></trkpt><trkpt lat="53.2409639" lon="-1.7216353"><ele>224.5</ele><time>2026-04-18T11:01:55.058Z</time></trkpt><trkpt lat="53.2409953" lon="-1.7213967"><ele>223.25</ele><time>2026-04-18T11:01:56.062Z</time></trkpt><trkpt lat="53.2410279" lon="-1.7211724"><ele>222.0</ele><time>2026-04-18T11:01:57.059Z</time></trkpt><trkpt lat="53.2410561" lon="-1.7209663"><ele>221.6</ele><time>2026-04-18T11:01:58.06Z</time></trkpt><trkpt lat="53.2410835" lon="-1.7207739"><ele>221.2</ele><time>2026-04-18T11:01:59.058Z</time></trkpt><trkpt lat="53.2411129" lon="-1.720596"><ele>220.8</ele><time>2026-04-18T11:02:00.059Z</time></trkpt><trkpt lat="53.2411465" lon="-1.7204358"><ele>220.4</ele><time>2026-04-18T11:02:01.058Z</time></trkpt><trkpt lat="53.2411793" lon="-1.7202883"><ele>220.0</ele><time>2026-04-18T11:02:02.059Z</time></trkpt><trkpt lat="53.2412125" lon="-1.7201401"><ele>220.0</ele><time>2026-04-18T11:02:03.06Z</time></trkpt><trkpt lat="53.2412509" lon="-1.7199889"><ele>220.0</ele><time>2026-04-18T11:02:04.058Z</time></trkpt><trkpt lat="53.2413025" lon="-1.719838"><ele>220.0</ele><time>2026-04-18T11:02:05.06Z</time></trkpt><trkpt lat="53.2413651" lon="-1.7196716"><ele>220.0</ele><time>2026-04-18T11:02:06.058Z</time></trkpt><trkpt lat="53.2414343" lon="-1.7195"><ele>220.0</ele><time>2026-04-18T11:02:07.058Z</time></trkpt><trkpt lat="53.2415069" lon="-1.719318"><ele>220.0</ele><time>2026-04-18T11:02:08.057Z</time></trkpt><trkpt lat="53.2415785" lon="-1.7191301"><ele>220.0</ele><time>2026-04-18T11:02:09.056Z</time></trkpt><trkpt lat="53.2416445" lon="-1.7189478"><ele>220.0</ele><time>2026-04-18T11:02:10.057Z</time></trkpt><trkpt lat="53.2417067" lon="-1.7187751"><ele>220.0</ele><time>2026-04-18T11:02:11.059Z</time></trkpt><trkpt lat="53.2417677" lon="-1.7186143"><ele>219.2</ele><time>2026-04-18T11:02:12.059Z</time></trkpt><trkpt lat="53.2418293" lon="-1.7184732"><ele>218.4</ele><time>2026-04-18T11:02:13.058Z</time></trkpt><trkpt lat="53.2418892" lon="-1.7183319"><ele>217.60000000000002</ele><time>2026-04-18T11:02:14.059Z</time></trkpt><trkpt lat="53.241937" lon="-1.7181763"><ele>216.8</ele><time>2026-04-18T11:02:15.06Z</time></trkpt><trkpt lat="53.2419724" lon="-1.7179856"><ele>216.0</ele><time>2026-04-18T11:02:16.06Z</time></trkpt><trkpt lat="53.2420036" lon="-1.7177822"><ele>215.0</ele><time>2026-04-18T11:02:17.06Z</time></trkpt><trkpt lat="53.2420323" lon="-1.7175782"><ele>214.00000000000003</ele><time>2026-04-18T11:02:18.059Z</time></trkpt><trkpt lat="53.2420617" lon="-1.7173941"><ele>213.0</ele><time>2026-04-18T11:02:19.062Z</time></trkpt><trkpt lat="53.2420929" lon="-1.717223"><ele>212.0</ele><time>2026-04-18T11:02:20.062Z</time></trkpt><trkpt lat="53.2421223" lon="-1.7170584"><ele>211.0</ele><time>2026-04-18T11:02:21.058Z</time></trkpt><trkpt lat="53.2421513" lon="-1.7168989"><ele>210.60000000000002</ele><time>2026-04-18T11:02:22.057Z</time></trkpt><trkpt lat="53.2421792" lon="-1.716746"><ele>210.2</ele><time>2026-04-18T11:02:23.064Z</time></trkpt><trkpt lat="53.2422081" lon="-1.7166027"><ele>209.8</ele><time>2026-04-18T11:02:24.059Z</time></trkpt><trkpt lat="53.2422345" lon="-1.7164586"><ele>209.39999999999998</ele><time>2026-04-18T11:02:25.058Z</time></trkpt><trkpt lat="53.2422584" lon="-1.716305"><ele>209.0</ele><time>2026-04-18T11:02:26.057Z</time></trkpt><trkpt lat="53.2422835" lon="-1.7161359"><ele>208.25</ele><time>2026-04-18T11:02:27.057Z</time></trkpt><trkpt lat="53.2423128" lon="-1.7159585"><ele>207.5</ele><time>2026-04-18T11:02:28.059Z</time></trkpt><trkpt lat="53.2423541" lon="-1.7157777"><ele>206.75</ele><time>2026-04-18T11:02:29.058Z</time></trkpt><trkpt lat="53.2424164" lon="-1.7155981"><ele>206.0</ele><time>2026-04-18T11:02:30.059Z</time></trkpt><trkpt lat="53.2425094" lon="-1.7154249"><ele>206.0</ele><time>2026-04-18T11:02:31.056Z</time></trkpt><trkpt lat="53.2426185" lon="-1.715273"><ele>206.0</ele><time>2026-04-18T11:02:32.059Z</time></trkpt><trkpt lat="53.242738" lon="-1.715132"><ele>206.0</ele><time>2026-04-18T11:02:33.054Z</time></trkpt><trkpt lat="53.24285" lon="-1.7149892"><ele>206.0</ele><time>2026-04-18T11:02:34.055Z</time></trkpt><trkpt lat="53.2429554" lon="-1.7148379"><ele>205.75</ele><time>2026-04-18T11:02:35.055Z</time></trkpt><trkpt lat="53.2430495" lon="-1.7146783"><ele>205.5</ele><time>2026-04-18T11:02:36.057Z</time></trkpt><trkpt lat="53.2431424" lon="-1.714527"><ele>205.25</ele><time>2026-04-18T11:02:37.054Z</time></trkpt><trkpt lat="53.2432369" lon="-1.7143789"><ele>205.0</ele><time>2026-04-18T11:02:38.054Z</time></trkpt><trkpt lat="53.2433306" lon="-1.7142231"><ele>206.25</ele><time>2026-04-18T11:02:39.054Z</time></trkpt><trkpt lat="53.2434259" lon="-1.7140528"><ele>207.5</ele><time>2026-04-18T11:02:40.056Z</time></trkpt><trkpt lat="53.2435201" lon="-1.7138619"><ele>208.75</ele><time>2026-04-18T11:02:41.057Z</time></trkpt><trkpt lat="53.2436066" lon="-1.7136484"><ele>210.0</ele><time>2026-04-18T11:02:42.059Z</time></trkpt><trkpt lat="53.243684" lon="-1.7134187"><ele>210.66666666666669</ele><time>2026-04-18T11:02:43.058Z</time></trkpt><trkpt lat="53.2437454" lon="-1.7131785"><ele>211.33333333333334</ele><time>2026-04-18T11:02:44.057Z</time></trkpt><trkpt lat="53.2437851" lon="-1.7129312"><ele>212.0</ele><time>2026-04-18T11:02:45.058Z</time></trkpt><trkpt lat="53.2437963" lon="-1.7126861"><ele>212.75</ele><time>2026-04-18T11:02:46.056Z</time></trkpt><trkpt lat="53.2438026" lon="-1.7124413"><ele>213.5</ele><time>2026-04-18T11:02:47.048Z</time></trkpt><trkpt lat="53.2438189" lon="-1.7122087"><ele>214.25</ele><time>2026-04-18T11:02:48.058Z</time></trkpt><trkpt lat="53.2438459" lon="-1.7119818"><ele>215.0</ele><time>2026-04-18T11:02:49.057Z</time></trkpt><trkpt lat="53.2438812" lon="-1.7117585"><ele>215.0</ele><time>2026-04-18T11:02:50.058Z</time></trkpt><trkpt lat="53.2439131" lon="-1.711533"><ele>215.0</ele><time>2026-04-18T11:02:51.057Z</time></trkpt><trkpt lat="53.2439371" lon="-1.7112974"><ele>215.0</ele><time>2026-04-18T11:02:52.058Z</time></trkpt><trkpt lat="53.2439433" lon="-1.7110504"><ele>215.0</ele><time>2026-04-18T11:02:53.058Z</time></trkpt><trkpt lat="53.2439263" lon="-1.7108022"><ele>215.0</ele><time>2026-04-18T11:02:54.056Z</time></trkpt><trkpt lat="53.2438958" lon="-1.7105378"><ele>215.0</ele><time>2026-04-18T11:02:55.058Z</time></trkpt><trkpt lat="53.2438657" lon="-1.710274"><ele>215.0</ele><time>2026-04-18T11:02:56.06Z</time></trkpt><trkpt lat="53.2438425" lon="-1.7099956"><ele>215.0</ele><time>2026-04-18T11:02:57.057Z</time></trkpt><trkpt lat="53.2438338" lon="-1.7097068"><ele>215.0</ele><time>2026-04-18T11:02:58.057Z</time></trkpt><trkpt lat="53.2438349" lon="-1.7094188"><ele>215.0</ele><time>2026-04-18T11:02:59.057Z</time></trkpt><trkpt lat="53.2438467" lon="-1.7091408"><ele>215.0</ele><time>2026-04-18T11:03:00.059Z</time></trkpt><trkpt lat="53.2438547" lon="-1.7088758"><ele>215.0</ele><time>2026-04-18T11:03:01.059Z</time></trkpt><trkpt lat="53.2438577" lon="-1.7086165"><ele>215.0</ele><time>2026-04-18T11:03:02.057Z</time></trkpt><trkpt lat="53.2438595" lon="-1.70836"><ele>214.75</ele><time>2026-04-18T11:03:03.058Z</time></trkpt><trkpt lat="53.2438621" lon="-1.7081028"><ele>214.5</ele><time>2026-04-18T11:03:04.056Z</time></trkpt><trkpt lat="53.2438666" lon="-1.7078529"><ele>214.25</ele><time>2026-04-18T11:03:05.058Z</time></trkpt><trkpt lat="53.243872" lon="-1.7076178"><ele>214.0</ele><time>2026-04-18T11:03:06.059Z</time></trkpt><trkpt lat="53.2438869" lon="-1.7074009"><ele>214.0</ele><time>2026-04-18T11:03:07.056Z</time></trkpt><trkpt lat="53.2439014" lon="-1.7072055"><ele>213.99999999999997</ele><time>2026-04-18T11:03:08.056Z</time></trkpt><trkpt lat="53.2439142" lon="-1.7070299"><ele>213.99999999999997</ele><time>2026-04-18T11:03:09.056Z</time></trkpt><trkpt lat="53.2439262" lon="-1.7068685"><ele>214.0</ele><time>2026-04-18T11:03:10.056Z</time></trkpt><trkpt lat="53.2439378" lon="-1.7067098"><ele>214.0</ele><time>2026-04-18T11:03:11.062Z</time></trkpt><trkpt lat="53.2439415" lon="-1.706549"><ele>213.6</ele><time>2026-04-18T11:03:12.055Z</time></trkpt><trkpt lat="53.2439461" lon="-1.7063961"><ele>213.2</ele><time>2026-04-18T11:03:13.061Z</time></trkpt><trkpt lat="53.2439494" lon="-1.7062314"><ele>212.79999999999998</ele><time>2026-04-18T11:03:14.056Z</time></trkpt><trkpt lat="53.2439525" lon="-1.7060614"><ele>212.39999999999998</ele><time>2026-04-18T11:03:15.056Z</time></trkpt><trkpt lat="53.2439568" lon="-1.7058941"><ele>212.0</ele><time>2026-04-18T11:03:16.056Z</time></trkpt><trkpt lat="53.2439673" lon="-1.7057274"><ele>211.2</ele><time>2026-04-18T11:03:17.057Z</time></trkpt><trkpt lat="53.2439819" lon="-1.705563"><ele>210.39999999999998</ele><time>2026-04-18T11:03:18.059Z</time></trkpt><trkpt lat="53.2440053" lon="-1.7054008"><ele>209.60000000000002</ele><time>2026-04-18T11:03:19.057Z</time></trkpt><trkpt lat="53.2440279" lon="-1.7052482"><ele>208.8</ele><time>2026-04-18T11:03:20.058Z</time></trkpt><trkpt lat="53.2440302" lon="-1.7050982"><ele>208.0</ele><time>2026-04-18T11:03:21.057Z</time></trkpt><trkpt lat="53.2440013" lon="-1.7049523"><ele>207.75</ele><time>2026-04-18T11:03:22.057Z</time></trkpt><trkpt lat="53.2439311" lon="-1.7048169"><ele>207.5</ele><time>2026-04-18T11:03:23.059Z</time></trkpt><trkpt lat="53.2438444" lon="-1.7046696"><ele>207.25</ele><time>2026-04-18T11:03:24.059Z</time></trkpt><trkpt lat="53.2437417" lon="-1.7045011"><ele>207.0</ele><time>2026-04-18T11:03:25.057Z</time></trkpt><trkpt lat="53.2436359" lon="-1.704323"><ele>206.75</ele><time>2026-04-18T11:03:26.058Z</time></trkpt><trkpt lat="53.2435412" lon="-1.7041533"><ele>206.5</ele><time>2026-04-18T11:03:27.057Z</time></trkpt><trkpt lat="53.2434524" lon="-1.7039934"><ele>206.25</ele><time>2026-04-18T11:03:28.058Z</time></trkpt><trkpt lat="53.2433727" lon="-1.7038508"><ele>206.0</ele><time>2026-04-18T11:03:29.057Z</time></trkpt><trkpt lat="53.2432999" lon="-1.7037326"><ele>206.00000000000003</ele><time>2026-04-18T11:03:30.057Z</time></trkpt><trkpt lat="53.2432363" lon="-1.7036298"><ele>206.0</ele><time>2026-04-18T11:03:31.056Z</time></trkpt><trkpt lat="53.2431855" lon="-1.7035333"><ele>206.0</ele><time>2026-04-18T11:03:32.054Z</time></trkpt><trkpt lat="53.2431355" lon="-1.703424"><ele>206.0</ele><time>2026-04-18T11:03:33.059Z</time></trkpt><trkpt lat="53.243092" lon="-1.7032971"><ele>206.00000000000003</ele><time>2026-04-18T11:03:34.055Z</time></trkpt><trkpt lat="53.2430426" lon="-1.7031502"><ele>206.0</ele><time>2026-04-18T11:03:35.054Z</time></trkpt><trkpt lat="53.2429867" lon="-1.7029793"><ele>205.60000000000002</ele><time>2026-04-18T11:03:36.053Z</time></trkpt><trkpt lat="53.2429343" lon="-1.7028046"><ele>205.2</ele><time>2026-04-18T11:03:37.054Z</time></trkpt><trkpt lat="53.2428892" lon="-1.70265"><ele>204.8</ele><time>2026-04-18T11:03:38.055Z</time></trkpt><trkpt lat="53.2428462" lon="-1.7025038"><ele>204.39999999999998</ele><time>2026-04-18T11:03:39.05Z</time></trkpt><trkpt lat="53.2428111" lon="-1.7023594"><ele>204.0</ele><time>2026-04-18T11:03:40.057Z</time></trkpt><trkpt lat="53.2427788" lon="-1.7022281"><ele>203.71428571428572</ele><time>2026-04-18T11:03:41.056Z</time></trkpt><trkpt lat="53.2427449" lon="-1.7021339"><ele>203.42857142857144</ele><time>2026-04-18T11:03:42.054Z</time></trkpt><trkpt lat="53.2426869" lon="-1.7020633"><ele>203.14285714285714</ele><time>2026-04-18T11:03:44.057Z</time></trkpt><trkpt lat="53.2426163" lon="-1.7020056"><ele>202.85714285714286</ele><time>2026-04-18T11:03:46.056Z</time></trkpt><trkpt lat="53.2425345" lon="-1.7020412"><ele>202.57142857142856</ele><time>2026-04-18T11:04:50.043Z</time></trkpt><trkpt lat="53.2424749" lon="-1.7020974"><ele>202.28571428571428</ele><time>2026-04-18T11:04:57.048Z</time></trkpt><trkpt lat="53.2424782" lon="-1.7019891"><ele>202.0</ele><time>2026-04-18T11:05:15.054Z</time></trkpt><trkpt lat="53.2425297" lon="-1.7020704"><ele>201.99999999999997</ele><time>2026-04-18T11:05:40.057Z</time></trkpt><trkpt lat="53.2426292" lon="-1.7020591"><ele>202.0</ele><time>2026-04-18T11:06:55.049Z</time></trkpt><trkpt lat="53.2425835" lon="-1.7019754"><ele>202.0</ele><time>2026-04-18T11:22:31.061Z</time></trkpt><trkpt lat="53.2426204" lon="-1.7018848"><ele>202.0</ele><time>2026-04-18T11:24:55.065Z</time></trkpt><trkpt lat="53.2426418" lon="-1.7017492"><ele>201.99999999999997</ele><time>2026-04-18T11:24:58.064Z</time></trkpt><trkpt lat="53.2426354" lon="-1.7016343"><ele>202.0</ele><time>2026-04-18T11:25:00.067Z</time></trkpt><trkpt lat="53.2426497" lon="-1.7014898"><ele>201.39999999999998</ele><time>2026-04-18T11:25:02.065Z</time></trkpt><trkpt lat="53.2427432" lon="-1.7013179"><ele>200.79999999999998</ele><time>2026-04-18T11:25:04.071Z</time></trkpt><trkpt lat="53.2428173" lon="-1.7012369"><ele>200.2</ele><time>2026-04-18T11:25:05.069Z</time></trkpt><trkpt lat="53.242903" lon="-1.7011693"><ele>199.6</ele><time>2026-04-18T11:25:06.069Z</time></trkpt><trkpt lat="53.2429889" lon="-1.7011086"><ele>199.0</ele><time>2026-04-18T11:25:07.07Z</time></trkpt><trkpt lat="53.2430707" lon="-1.7010529"><ele>199.79999999999998</ele><time>2026-04-18T11:25:08.07Z</time></trkpt><trkpt lat="53.2431543" lon="-1.700999"><ele>200.6</ele><time>2026-04-18T11:25:09.066Z</time></trkpt><trkpt lat="53.243246" lon="-1.7009472"><ele>201.4</ele><time>2026-04-18T11:25:10.067Z</time></trkpt><trkpt lat="53.24335" lon="-1.7008968"><ele>202.2</ele><time>2026-04-18T11:25:11.068Z</time></trkpt><trkpt lat="53.2434686" lon="-1.7008517"><ele>203.0</ele><time>2026-04-18T11:25:12.069Z</time></trkpt><trkpt lat="53.2435997" lon="-1.7008187"><ele>203.0</ele><time>2026-04-18T11:25:13.073Z</time></trkpt><trkpt lat="53.2437327" lon="-1.7008035"><ele>203.0</ele><time>2026-04-18T11:25:14.069Z</time></trkpt><trkpt lat="53.2438484" lon="-1.700798"><ele>203.0</ele><time>2026-04-18T11:25:15.065Z</time></trkpt><trkpt lat="53.2439445" lon="-1.700793"><ele>203.0</ele><time>2026-04-18T11:25:16.067Z</time></trkpt><trkpt lat="53.2440295" lon="-1.7007736"><ele>203.0</ele><time>2026-04-18T11:25:17.065Z</time></trkpt><trkpt lat="53.2441038" lon="-1.7007137"><ele>204.0</ele><time>2026-04-18T11:25:18.064Z</time></trkpt><trkpt lat="53.244167" lon="-1.7006066"><ele>205.0</ele><time>2026-04-18T11:25:19.064Z</time></trkpt><trkpt lat="53.2442205" lon="-1.7004577"><ele>206.0</ele><time>2026-04-18T11:25:20.065Z</time></trkpt><trkpt lat="53.2442664" lon="-1.7002825"><ele>207.0</ele><time>2026-04-18T11:25:21.065Z</time></trkpt><trkpt lat="53.2443115" lon="-1.7000887"><ele>208.0</ele><time>2026-04-18T11:25:22.066Z</time></trkpt><trkpt lat="53.2443572" lon="-1.6998781"><ele>208.0</ele><time>2026-04-18T11:25:23.069Z</time></trkpt><trkpt lat="53.2443972" lon="-1.6996426"><ele>208.0</ele><time>2026-04-18T11:25:24.068Z</time></trkpt><trkpt lat="53.2444342" lon="-1.6993909"><ele>208.0</ele><time>2026-04-18T11:25:25.068Z</time></trkpt><trkpt lat="53.2444657" lon="-1.6991531"><ele>208.0</ele><time>2026-04-18T11:25:26.065Z</time></trkpt><trkpt lat="53.2444963" lon="-1.6989307"><ele>208.0</ele><time>2026-04-18T11:25:27.068Z</time></trkpt><trkpt lat="53.2445184" lon="-1.6987138"><ele>208.0</ele><time>2026-04-18T11:25:28.066Z</time></trkpt><trkpt lat="53.2445291" lon="-1.6984885"><ele>208.0</ele><time>2026-04-18T11:25:29.07Z</time></trkpt><trkpt lat="53.2445226" lon="-1.6982527"><ele>208.0</ele><time>2026-04-18T11:25:30.061Z</time></trkpt><trkpt lat="53.2445032" lon="-1.6980089"><ele>206.66666666666666</ele><time>2026-04-18T11:25:31.069Z</time></trkpt><trkpt lat="53.2444855" lon="-1.6977477"><ele>205.33333333333331</ele><time>2026-04-18T11:25:32.07Z</time></trkpt><trkpt lat="53.2444577" lon="-1.697493"><ele>204.0</ele><time>2026-04-18T11:25:33.069Z</time></trkpt><trkpt lat="53.2444331" lon="-1.6972432"><ele>204.0</ele><time>2026-04-18T11:25:34.068Z</time></trkpt><trkpt lat="53.2444049" lon="-1.6969931"><ele>204.0</ele><time>2026-04-18T11:25:35.065Z</time></trkpt><trkpt lat="53.244368" lon="-1.6967365"><ele>204.0</ele><time>2026-04-18T11:25:36.065Z</time></trkpt><trkpt lat="53.2443245" lon="-1.6964745"><ele>203.33333333333331</ele><time>2026-04-18T11:25:37.063Z</time></trkpt><trkpt lat="53.2442741" lon="-1.6962128"><ele>202.66666666666666</ele><time>2026-04-18T11:25:38.065Z</time></trkpt><trkpt lat="53.244229" lon="-1.6959621"><ele>202.0</ele><time>2026-04-18T11:25:39.063Z</time></trkpt><trkpt lat="53.2441936" lon="-1.6957265"><ele>201.75</ele><time>2026-04-18T11:25:40.057Z</time></trkpt><trkpt lat="53.2441752" lon="-1.6955086"><ele>201.5</ele><time>2026-04-18T11:25:41.065Z</time></trkpt><trkpt lat="53.2441757" lon="-1.6953022"><ele>201.25</ele><time>2026-04-18T11:25:42.065Z</time></trkpt><trkpt lat="53.2442034" lon="-1.6951067"><ele>201.0</ele><time>2026-04-18T11:25:43.068Z</time></trkpt><trkpt lat="53.2442568" lon="-1.6949298"><ele>201.0</ele><time>2026-04-18T11:25:44.066Z</time></trkpt><trkpt lat="53.244337" lon="-1.6947773"><ele>201.0</ele><time>2026-04-18T11:25:45.066Z</time></trkpt><trkpt lat="53.2444357" lon="-1.694629"><ele>201.0</ele><time>2026-04-18T11:25:46.067Z</time></trkpt><trkpt lat="53.2445369" lon="-1.6944661"><ele>201.0</ele><time>2026-04-18T11:25:47.069Z</time></trkpt><trkpt lat="53.2446165" lon="-1.6942738"><ele>202.0</ele><time>2026-04-18T11:25:48.067Z</time></trkpt><trkpt lat="53.2446631" lon="-1.6940606"><ele>203.0</ele><time>2026-04-18T11:25:49.068Z</time></trkpt><trkpt lat="53.2446839" lon="-1.6938309"><ele>204.0</ele><time>2026-04-18T11:25:50.065Z</time></trkpt><trkpt lat="53.2446866" lon="-1.6935948"><ele>205.0</ele><time>2026-04-18T11:25:51.064Z</time></trkpt><trkpt lat="53.2446727" lon="-1.6933514"><ele>206.0</ele><time>2026-04-18T11:25:52.066Z</time></trkpt><trkpt lat="53.2446494" lon="-1.6931022"><ele>207.0</ele><time>2026-04-18T11:25:53.068Z</time></trkpt><trkpt lat="53.2446233" lon="-1.6928323"><ele>208.0</ele><time>2026-04-18T11:25:54.068Z</time></trkpt><trkpt lat="53.2445986" lon="-1.6925376"><ele>209.0</ele><time>2026-04-18T11:25:55.07Z</time></trkpt><trkpt lat="53.2445837" lon="-1.6921989"><ele>210.0</ele><time>2026-04-18T11:25:56.068Z</time></trkpt><trkpt lat="53.244576" lon="-1.6918196"><ele>211.0</ele><time>2026-04-18T11:25:57.065Z</time></trkpt><trkpt lat="53.2445773" lon="-1.6914033"><ele>214.0</ele><time>2026-04-18T11:25:58.065Z</time></trkpt><trkpt lat="53.2445883" lon="-1.6909614"><ele>217.0</ele><time>2026-04-18T11:25:59.067Z</time></trkpt><trkpt lat="53.2446076" lon="-1.690509"><ele>217.5</ele><time>2026-04-18T11:26:00.067Z</time></trkpt><trkpt lat="53.2446305" lon="-1.6900771"><ele>218.0</ele><time>2026-04-18T11:26:01.066Z</time></trkpt><trkpt lat="53.2446522" lon="-1.6896973"><ele>218.33333333333334</ele><time>2026-04-18T11:26:02.065Z</time></trkpt><trkpt lat="53.244675" lon="-1.6893569"><ele>218.66666666666669</ele><time>2026-04-18T11:26:03.067Z</time></trkpt><trkpt lat="53.2446955" lon="-1.6890356"><ele>219.0</ele><time>2026-04-18T11:26:04.065Z</time></trkpt><trkpt lat="53.2447136" lon="-1.6887284"><ele>219.0</ele><time>2026-04-18T11:26:05.063Z</time></trkpt><trkpt lat="53.2447297" lon="-1.688428"><ele>219.0</ele><time>2026-04-18T11:26:06.061Z</time></trkpt><trkpt lat="53.244746" lon="-1.6881227"><ele>219.0</ele><time>2026-04-18T11:26:07.066Z</time></trkpt><trkpt lat="53.2447655" lon="-1.6878128"><ele>218.33333333333331</ele><time>2026-04-18T11:26:08.067Z</time></trkpt><trkpt lat="53.2447875" lon="-1.6875188"><ele>217.66666666666666</ele><time>2026-04-18T11:26:09.069Z</time></trkpt><trkpt lat="53.2448082" lon="-1.6872381"><ele>217.0</ele><time>2026-04-18T11:26:10.071Z</time></trkpt><trkpt lat="53.2448252" lon="-1.6869628"><ele>217.75</ele><time>2026-04-18T11:26:11.066Z</time></trkpt><trkpt lat="53.2448365" lon="-1.6866967"><ele>218.5</ele><time>2026-04-18T11:26:12.066Z</time></trkpt><trkpt lat="53.2448487" lon="-1.6864576"><ele>219.25</ele><time>2026-04-18T11:26:13.072Z</time></trkpt><trkpt lat="53.2448618" lon="-1.6862404"><ele>220.0</ele><time>2026-04-18T11:26:14.067Z</time></trkpt><trkpt lat="53.2448704" lon="-1.686053"><ele>219.99999999999997</ele><time>2026-04-18T11:26:15.067Z</time></trkpt><trkpt lat="53.2448805" lon="-1.6859084"><ele>220.0</ele><time>2026-04-18T11:26:16.067Z</time></trkpt><trkpt lat="53.2448983" lon="-1.6857919"><ele>220.0</ele><time>2026-04-18T11:26:17.068Z</time></trkpt><trkpt lat="53.2449307" lon="-1.6856821"><ele>220.0</ele><time>2026-04-18T11:26:18.066Z</time></trkpt><trkpt lat="53.2449966" lon="-1.6855647"><ele>219.99999999999997</ele><time>2026-04-18T11:26:19.066Z</time></trkpt><trkpt lat="53.2450877" lon="-1.6854496"><ele>220.0</ele><time>2026-04-18T11:26:20.068Z</time></trkpt><trkpt lat="53.2451905" lon="-1.6853117"><ele>220.0</ele><time>2026-04-18T11:26:21.068Z</time></trkpt><trkpt lat="53.2452803" lon="-1.6851466"><ele>220.0</ele><time>2026-04-18T11:26:22.069Z</time></trkpt><trkpt lat="53.2453382" lon="-1.6849512"><ele>220.0</ele><time>2026-04-18T11:26:23.071Z</time></trkpt><trkpt lat="53.2453653" lon="-1.6847274"><ele>220.0</ele><time>2026-04-18T11:26:24.072Z</time></trkpt><trkpt lat="53.2453798" lon="-1.6844837"><ele>219.75</ele><time>2026-04-18T11:26:25.073Z</time></trkpt><trkpt lat="53.2453904" lon="-1.6842338"><ele>219.5</ele><time>2026-04-18T11:26:26.072Z</time></trkpt><trkpt lat="53.2453925" lon="-1.6839877"><ele>219.25</ele><time>2026-04-18T11:26:27.066Z</time></trkpt><trkpt lat="53.2454056" lon="-1.683751"><ele>219.0</ele><time>2026-04-18T11:26:28.067Z</time></trkpt><trkpt lat="53.2454268" lon="-1.6835265"><ele>218.79999999999998</ele><time>2026-04-18T11:26:29.068Z</time></trkpt><trkpt lat="53.245454" lon="-1.6833176"><ele>218.59999999999997</ele><time>2026-04-18T11:26:30.07Z</time></trkpt><trkpt lat="53.2454827" lon="-1.6831305"><ele>218.4</ele><time>2026-04-18T11:26:31.069Z</time></trkpt><trkpt lat="53.2455081" lon="-1.6829698"><ele>218.2</ele><time>2026-04-18T11:26:32.069Z</time></trkpt><trkpt lat="53.2455293" lon="-1.6828382"><ele>218.0</ele><time>2026-04-18T11:26:33.071Z</time></trkpt><trkpt lat="53.2455824" lon="-1.6826683"><ele>218.4</ele><time>2026-04-18T11:26:35.071Z</time></trkpt><trkpt lat="53.245647" lon="-1.6826443"><ele>218.8</ele><time>2026-04-18T11:26:36.067Z</time></trkpt><trkpt lat="53.245736" lon="-1.6826519"><ele>219.2</ele><time>2026-04-18T11:26:37.067Z</time></trkpt><trkpt lat="53.2458437" lon="-1.6826695"><ele>219.6</ele><time>2026-04-18T11:26:38.069Z</time></trkpt><trkpt lat="53.2459633" lon="-1.6826845"><ele>220.0</ele><time>2026-04-18T11:26:39.068Z</time></trkpt><trkpt lat="53.2460951" lon="-1.6826974"><ele>220.0</ele><time>2026-04-18T11:26:40.07Z</time></trkpt><trkpt lat="53.246243" lon="-1.6827113"><ele>220.0</ele><time>2026-04-18T11:26:41.068Z</time></trkpt><trkpt lat="53.2463964" lon="-1.6827227"><ele>220.0</ele><time>2026-04-18T11:26:42.068Z</time></trkpt><trkpt lat="53.2465573" lon="-1.6827286"><ele>220.66666666666666</ele><time>2026-04-18T11:26:43.069Z</time></trkpt><trkpt lat="53.246722" lon="-1.6827297"><ele>221.33333333333331</ele><time>2026-04-18T11:26:44.066Z</time></trkpt><trkpt lat="53.2468881" lon="-1.6827222"><ele>222.0</ele><time>2026-04-18T11:26:45.067Z</time></trkpt><trkpt lat="53.2470554" lon="-1.6827183"><ele>222.0</ele><time>2026-04-18T11:26:46.065Z</time></trkpt><trkpt lat="53.24722" lon="-1.6827215"><ele>222.0</ele><time>2026-04-18T11:26:47.066Z</time></trkpt><trkpt lat="53.2473819" lon="-1.6827264"><ele>222.0</ele><time>2026-04-18T11:26:48.068Z</time></trkpt><trkpt lat="53.2475397" lon="-1.6827192"><ele>223.5</ele><time>2026-04-18T11:26:49.066Z</time></trkpt><trkpt lat="53.2476938" lon="-1.6826937"><ele>225.0</ele><time>2026-04-18T11:26:50.066Z</time></trkpt><trkpt lat="53.2478395" lon="-1.6826469"><ele>226.5</ele><time>2026-04-18T11:26:51.065Z</time></trkpt><trkpt lat="53.2479745" lon="-1.6825828"><ele>228.0</ele><time>2026-04-18T11:26:52.064Z</time></trkpt><trkpt lat="53.2480937" lon="-1.6825121"><ele>228.75</ele><time>2026-04-18T11:26:53.066Z</time></trkpt><trkpt lat="53.248199" lon="-1.6824364"><ele>229.5</ele><time>2026-04-18T11:26:54.064Z</time></trkpt><trkpt lat="53.2483032" lon="-1.6823429"><ele>230.25</ele><time>2026-04-18T11:26:55.064Z</time></trkpt><trkpt lat="53.2484001" lon="-1.6822243"><ele>231.0</ele><time>2026-04-18T11:26:56.065Z</time></trkpt><trkpt lat="53.2484938" lon="-1.6820897"><ele>231.0</ele><time>2026-04-18T11:26:57.068Z</time></trkpt><trkpt lat="53.248598" lon="-1.6819486"><ele>231.0</ele><time>2026-04-18T11:26:58.063Z</time></trkpt><trkpt lat="53.2487066" lon="-1.6818322"><ele>231.0</ele><time>2026-04-18T11:26:59.056Z</time></trkpt><trkpt lat="53.2488199" lon="-1.6817196"><ele>231.0</ele><time>2026-04-18T11:27:00.065Z</time></trkpt><trkpt lat="53.2489217" lon="-1.6816001"><ele>231.60000000000002</ele><time>2026-04-18T11:27:01.065Z</time></trkpt><trkpt lat="53.2490117" lon="-1.6814819"><ele>232.20000000000002</ele><time>2026-04-18T11:27:02.067Z</time></trkpt><trkpt lat="53.2491015" lon="-1.6813917"><ele>232.79999999999998</ele><time>2026-04-18T11:27:03.068Z</time></trkpt><trkpt lat="53.2491958" lon="-1.6813272"><ele>233.39999999999998</ele><time>2026-04-18T11:27:04.063Z</time></trkpt><trkpt lat="53.249298" lon="-1.6812768"><ele>234.0</ele><time>2026-04-18T11:27:05.064Z</time></trkpt><trkpt lat="53.249402" lon="-1.6812268"><ele>234.0</ele><time>2026-04-18T11:27:06.063Z</time></trkpt><trkpt lat="53.2494934" lon="-1.681171"><ele>234.0</ele><time>2026-04-18T11:27:07.063Z</time></trkpt><trkpt lat="53.2495626" lon="-1.6811031"><ele>234.0</ele><time>2026-04-18T11:27:08.066Z</time></trkpt><trkpt lat="53.2496046" lon="-1.6810035"><ele>234.0</ele><time>2026-04-18T11:27:09.064Z</time></trkpt><trkpt lat="53.2496198" lon="-1.6808696"><ele>234.0</ele><time>2026-04-18T11:27:10.065Z</time></trkpt><trkpt lat="53.2496125" lon="-1.6806984"><ele>234.0</ele><time>2026-04-18T11:27:11.062Z</time></trkpt><trkpt lat="53.2495907" lon="-1.6804885"><ele>233.79999999999998</ele><time>2026-04-18T11:27:12.065Z</time></trkpt><trkpt lat="53.2495623" lon="-1.6802778"><ele>233.59999999999997</ele><time>2026-04-18T11:27:13.066Z</time></trkpt><trkpt lat="53.2495398" lon="-1.6800857"><ele>233.4</ele><time>2026-04-18T11:27:14.064Z</time></trkpt><trkpt lat="53.2495219" lon="-1.6799194"><ele>233.2</ele><time>2026-04-18T11:27:15.063Z</time></trkpt><trkpt lat="53.24952" lon="-1.6797777"><ele>233.0</ele><time>2026-04-18T11:27:16.066Z</time></trkpt><trkpt lat="53.249535" lon="-1.6796593"><ele>233.33333333333334</ele><time>2026-04-18T11:27:17.066Z</time></trkpt><trkpt lat="53.2495625" lon="-1.6795601"><ele>233.66666666666669</ele><time>2026-04-18T11:27:18.064Z</time></trkpt><trkpt lat="53.2496174" lon="-1.6794821"><ele>234.0</ele><time>2026-04-18T11:27:19.065Z</time></trkpt><trkpt lat="53.2496989" lon="-1.6794211"><ele>234.33333333333331</ele><time>2026-04-18T11:27:20.064Z</time></trkpt><trkpt lat="53.2497964" lon="-1.6793795"><ele>234.66666666666666</ele><time>2026-04-18T11:27:21.061Z</time></trkpt><trkpt lat="53.2499031" lon="-1.6793386"><ele>235.0</ele><time>2026-04-18T11:27:22.061Z</time></trkpt><trkpt lat="53.2500094" lon="-1.6792707"><ele>236.0</ele><time>2026-04-18T11:27:23.065Z</time></trkpt><trkpt lat="53.2501105" lon="-1.679182"><ele>237.0</ele><time>2026-04-18T11:27:24.064Z</time></trkpt><trkpt lat="53.2502121" lon="-1.6790587"><ele>238.0</ele><time>2026-04-18T11:27:25.063Z</time></trkpt><trkpt lat="53.2503087" lon="-1.6789124"><ele>239.0</ele><time>2026-04-18T11:27:26.064Z</time></trkpt><trkpt lat="53.250412" lon="-1.6787572"><ele>239.0</ele><time>2026-04-18T11:27:27.062Z</time></trkpt><trkpt lat="53.2505289" lon="-1.6786037"><ele>239.0</ele><time>2026-04-18T11:27:28.064Z</time></trkpt><trkpt lat="53.2506528" lon="-1.6784545"><ele>239.0</ele><time>2026-04-18T11:27:29.065Z</time></trkpt><trkpt lat="53.250776" lon="-1.6783068"><ele>241.0</ele><time>2026-04-18T11:27:30.067Z</time></trkpt><trkpt lat="53.2508981" lon="-1.6781614"><ele>243.0</ele><time>2026-04-18T11:27:31.064Z</time></trkpt><trkpt lat="53.2510211" lon="-1.6780179"><ele>245.0</ele><time>2026-04-18T11:27:32.062Z</time></trkpt><trkpt lat="53.251134" lon="-1.6778892"><ele>247.0</ele><time>2026-04-18T11:27:33.065Z</time></trkpt><trkpt lat="53.2512385" lon="-1.6777473"><ele>248.75</ele><time>2026-04-18T11:27:34.062Z</time></trkpt><trkpt lat="53.2513289" lon="-1.6775948"><ele>250.5</ele><time>2026-04-18T11:27:35.064Z</time></trkpt><trkpt lat="53.2514132" lon="-1.6774261"><ele>252.25</ele><time>2026-04-18T11:27:36.062Z</time></trkpt><trkpt lat="53.2514901" lon="-1.6772457"><ele>254.0</ele><time>2026-04-18T11:27:37.064Z</time></trkpt><trkpt lat="53.2515722" lon="-1.6770625"><ele>255.0</ele><time>2026-04-18T11:27:38.063Z</time></trkpt><trkpt lat="53.2516606" lon="-1.6768802"><ele>256.0</ele><time>2026-04-18T11:27:39.063Z</time></trkpt><trkpt lat="53.2517528" lon="-1.6767027"><ele>257.0</ele><time>2026-04-18T11:27:40.066Z</time></trkpt><trkpt lat="53.2518423" lon="-1.6765355"><ele>258.0</ele><time>2026-04-18T11:27:41.063Z</time></trkpt><trkpt lat="53.2519265" lon="-1.6763832"><ele>258.0</ele><time>2026-04-18T11:27:42.064Z</time></trkpt><trkpt lat="53.2520053" lon="-1.6762488"><ele>258.0</ele><time>2026-04-18T11:27:43.062Z</time></trkpt><trkpt lat="53.2520813" lon="-1.676128"><ele>258.0</ele><time>2026-04-18T11:27:44.062Z</time></trkpt><trkpt lat="53.2521521" lon="-1.6760143"><ele>258.0</ele><time>2026-04-18T11:27:45.058Z</time></trkpt><trkpt lat="53.2522178" lon="-1.6759023"><ele>258.0</ele><time>2026-04-18T11:27:46.055Z</time></trkpt><trkpt lat="53.252277" lon="-1.6757899"><ele>258.8</ele><time>2026-04-18T11:27:47.056Z</time></trkpt><trkpt lat="53.2523369" lon="-1.6756864"><ele>259.6</ele><time>2026-04-18T11:27:48.063Z</time></trkpt><trkpt lat="53.2524032" lon="-1.6755993"><ele>260.4</ele><time>2026-04-18T11:27:49.059Z</time></trkpt><trkpt lat="53.2524768" lon="-1.6755203"><ele>261.2</ele><time>2026-04-18T11:27:50.058Z</time></trkpt><trkpt lat="53.2525545" lon="-1.6754342"><ele>262.0</ele><time>2026-04-18T11:27:51.063Z</time></trkpt><trkpt lat="53.2526362" lon="-1.6753278"><ele>262.75</ele><time>2026-04-18T11:27:52.062Z</time></trkpt><trkpt lat="53.2527294" lon="-1.6752007"><ele>263.5</ele><time>2026-04-18T11:27:53.067Z</time></trkpt><trkpt lat="53.2528474" lon="-1.675051"><ele>264.25</ele><time>2026-04-18T11:27:54.065Z</time></trkpt><trkpt lat="53.2529767" lon="-1.6748895"><ele>265.0</ele><time>2026-04-18T11:27:55.064Z</time></trkpt><trkpt lat="53.2531267" lon="-1.6747088"><ele>266.0</ele><time>2026-04-18T11:27:56.065Z</time></trkpt><trkpt lat="53.2532945" lon="-1.6744946"><ele>267.0</ele><time>2026-04-18T11:27:57.066Z</time></trkpt><trkpt lat="53.2534675" lon="-1.6742477"><ele>268.0</ele><time>2026-04-18T11:27:58.065Z</time></trkpt><trkpt lat="53.2536406" lon="-1.6739829"><ele>268.0</ele><time>2026-04-18T11:27:59.064Z</time></trkpt><trkpt lat="53.2538065" lon="-1.6737271"><ele>268.0</ele><time>2026-04-18T11:28:00.067Z</time></trkpt><trkpt lat="53.2539578" lon="-1.673495"><ele>268.0</ele><time>2026-04-18T11:28:01.067Z</time></trkpt><trkpt lat="53.2540848" lon="-1.6733092"><ele>269.0</ele><time>2026-04-18T11:28:02.067Z</time></trkpt><trkpt lat="53.2541878" lon="-1.6731545"><ele>270.0</ele><time>2026-04-18T11:28:03.068Z</time></trkpt><trkpt lat="53.2542709" lon="-1.6730253"><ele>271.0</ele><time>2026-04-18T11:28:04.067Z</time></trkpt><trkpt lat="53.2543408" lon="-1.6729285"><ele>272.0</ele><time>2026-04-18T11:28:05.066Z</time></trkpt><trkpt lat="53.2543922" lon="-1.6728546"><ele>273.0</ele><time>2026-04-18T11:28:06.063Z</time></trkpt><trkpt lat="53.2544519" lon="-1.6727332"><ele>273.0</ele><time>2026-04-18T11:28:08.062Z</time></trkpt><trkpt lat="53.2545056" lon="-1.6726307"><ele>273.0</ele><time>2026-04-18T11:28:10.065Z</time></trkpt><trkpt lat="53.2545464" lon="-1.6725471"><ele>273.0</ele><time>2026-04-18T11:28:12.065Z</time></trkpt><trkpt lat="53.2545515" lon="-1.6724199"><ele>273.0</ele><time>2026-04-18T11:28:38.066Z</time></trkpt><trkpt lat="53.2545468" lon="-1.6722529"><ele>273.0</ele><time>2026-04-18T11:28:40.067Z</time></trkpt><trkpt lat="53.2545753" lon="-1.6720682"><ele>273.0</ele><time>2026-04-18T11:28:42.063Z</time></trkpt><trkpt lat="53.2546156" lon="-1.6718787"><ele>272.85714285714283</ele><time>2026-04-18T11:28:44.067Z</time></trkpt><trkpt lat="53.2546347" lon="-1.6717767"><ele>272.7142857142857</ele><time>2026-04-18T11:28:45.067Z</time></trkpt><trkpt lat="53.2546555" lon="-1.6716737"><ele>272.57142857142856</ele><time>2026-04-18T11:28:46.069Z</time></trkpt><trkpt lat="53.2546773" lon="-1.6715688"><ele>272.42857142857144</ele><time>2026-04-18T11:28:47.07Z</time></trkpt><trkpt lat="53.2546974" lon="-1.6714619"><ele>272.2857142857143</ele><time>2026-04-18T11:28:48.067Z</time></trkpt><trkpt lat="53.2547117" lon="-1.6713559"><ele>272.1428571428571</ele><time>2026-04-18T11:28:49.064Z</time></trkpt><trkpt lat="53.2547239" lon="-1.6712488"><ele>272.0</ele><time>2026-04-18T11:28:50.066Z</time></trkpt><trkpt lat="53.2547374" lon="-1.6711347"><ele>271.8</ele><time>2026-04-18T11:28:51.068Z</time></trkpt><trkpt lat="53.2547608" lon="-1.6710074"><ele>271.6</ele><time>2026-04-18T11:28:52.068Z</time></trkpt><trkpt lat="53.2547992" lon="-1.6708653"><ele>271.40000000000003</ele><time>2026-04-18T11:28:53.068Z</time></trkpt><trkpt lat="53.2548558" lon="-1.6706941"><ele>271.2</ele><time>2026-04-18T11:28:54.066Z</time></trkpt><trkpt lat="53.2549287" lon="-1.6704675"><ele>271.0</ele><time>2026-04-18T11:28:55.07Z</time></trkpt><trkpt lat="53.2550069" lon="-1.6701942"><ele>277.0</ele><time>2026-04-18T11:28:56.07Z</time></trkpt><trkpt lat="53.2550752" lon="-1.6698819"><ele>283.0</ele><time>2026-04-18T11:28:57.07Z</time></trkpt><trkpt lat="53.2551211" lon="-1.6695254"><ele>289.0</ele><time>2026-04-18T11:28:58.065Z</time></trkpt><trkpt lat="53.2551548" lon="-1.6691376"><ele>289.0</ele><time>2026-04-18T11:28:59.066Z</time></trkpt><trkpt lat="53.2551878" lon="-1.6687385"><ele>289.0</ele><time>2026-04-18T11:29:00.068Z</time></trkpt><trkpt lat="53.2552265" lon="-1.6683652"><ele>288.66666666666663</ele><time>2026-04-18T11:29:01.065Z</time></trkpt><trkpt lat="53.2552626" lon="-1.6680414"><ele>288.3333333333333</ele><time>2026-04-18T11:29:02.065Z</time></trkpt><trkpt lat="53.2553018" lon="-1.667753"><ele>288.0</ele><time>2026-04-18T11:29:03.071Z</time></trkpt><trkpt lat="53.2553514" lon="-1.6674881"><ele>287.0</ele><time>2026-04-18T11:29:04.064Z</time></trkpt><trkpt lat="53.2554192" lon="-1.6672428"><ele>286.0</ele><time>2026-04-18T11:29:05.065Z</time></trkpt><trkpt lat="53.2555026" lon="-1.6669914"><ele>285.0</ele><time>2026-04-18T11:29:06.065Z</time></trkpt><trkpt lat="53.2555925" lon="-1.6667607"><ele>289.6666666666667</ele><time>2026-04-18T11:29:07.066Z</time></trkpt><trkpt lat="53.2556794" lon="-1.6665465"><ele>294.33333333333337</ele><time>2026-04-18T11:29:08.065Z</time></trkpt><trkpt lat="53.2557625" lon="-1.6663236"><ele>299.0</ele><time>2026-04-18T11:29:09.065Z</time></trkpt><trkpt lat="53.255845" lon="-1.6660969"><ele>299.0</ele><time>2026-04-18T11:29:10.067Z</time></trkpt><trkpt lat="53.2559266" lon="-1.665869"><ele>299.0</ele><time>2026-04-18T11:29:11.064Z</time></trkpt><trkpt lat="53.2560066" lon="-1.6656496"><ele>299.0</ele><time>2026-04-18T11:29:12.065Z</time></trkpt><trkpt lat="53.2560842" lon="-1.6654422"><ele>294.0</ele><time>2026-04-18T11:29:13.067Z</time></trkpt><trkpt lat="53.2561707" lon="-1.665236"><ele>289.0</ele><time>2026-04-18T11:29:14.066Z</time></trkpt><trkpt lat="53.2562636" lon="-1.6650327"><ele>284.0</ele><time>2026-04-18T11:29:15.066Z</time></trkpt><trkpt lat="53.2563604" lon="-1.6648487"><ele>287.75</ele><time>2026-04-18T11:29:16.068Z</time></trkpt><trkpt lat="53.2564629" lon="-1.6646803"><ele>291.5</ele><time>2026-04-18T11:29:17.066Z</time></trkpt><trkpt lat="53.256575" lon="-1.6645279"><ele>295.25</ele><time>2026-04-18T11:29:18.066Z</time></trkpt><trkpt lat="53.2566892" lon="-1.6643832"><ele>299.0</ele><time>2026-04-18T11:29:19.066Z</time></trkpt><trkpt lat="53.2567946" lon="-1.6642283"><ele>299.0</ele><time>2026-04-18T11:29:20.058Z</time></trkpt><trkpt lat="53.2568976" lon="-1.6640565"><ele>299.0</ele><time>2026-04-18T11:29:21.067Z</time></trkpt><trkpt lat="53.2570004" lon="-1.66387"><ele>299.0</ele><time>2026-04-18T11:29:22.069Z</time></trkpt><trkpt lat="53.2571089" lon="-1.663677"><ele>299.33333333333337</ele><time>2026-04-18T11:29:23.071Z</time></trkpt><trkpt lat="53.2572244" lon="-1.663493"><ele>299.6666666666667</ele><time>2026-04-18T11:29:24.067Z</time></trkpt><trkpt lat="53.2573393" lon="-1.6633229"><ele>300.0</ele><time>2026-04-18T11:29:25.06Z</time></trkpt><trkpt lat="53.2574519" lon="-1.6631697"><ele>300.0</ele><time>2026-04-18T11:29:26.068Z</time></trkpt><trkpt lat="53.2575679" lon="-1.6630291"><ele>300.0</ele><time>2026-04-18T11:29:27.068Z</time></trkpt><trkpt lat="53.257675" lon="-1.6629047"><ele>300.0</ele><time>2026-04-18T11:29:28.068Z</time></trkpt><trkpt lat="53.2577681" lon="-1.6628032"><ele>300.0</ele><time>2026-04-18T11:29:29.067Z</time></trkpt><trkpt lat="53.2578554" lon="-1.6627055"><ele>300.0</ele><time>2026-04-18T11:29:30.07Z</time></trkpt><trkpt lat="53.2579495" lon="-1.6625909"><ele>300.0</ele><time>2026-04-18T11:29:31.071Z</time></trkpt><trkpt lat="53.2580544" lon="-1.6624538"><ele>300.0</ele><time>2026-04-18T11:29:32.069Z</time></trkpt><trkpt lat="53.2581524" lon="-1.6623048"><ele>300.0</ele><time>2026-04-18T11:29:33.071Z</time></trkpt><trkpt lat="53.2582427" lon="-1.6621573"><ele>300.0</ele><time>2026-04-18T11:29:34.069Z</time></trkpt><trkpt lat="53.2583307" lon="-1.6620168"><ele>300.0</ele><time>2026-04-18T11:29:35.069Z</time></trkpt><trkpt lat="53.2584073" lon="-1.6618886"><ele>300.0</ele><time>2026-04-18T11:29:36.071Z</time></trkpt><trkpt lat="53.2584777" lon="-1.6617771"><ele>300.0</ele><time>2026-04-18T11:29:37.07Z</time></trkpt><trkpt lat="53.2585452" lon="-1.661682"><ele>300.0</ele><time>2026-04-18T11:29:38.071Z</time></trkpt><trkpt lat="53.2585998" lon="-1.6615973"><ele>299.25</ele><time>2026-04-18T11:29:39.067Z</time></trkpt><trkpt lat="53.2586475" lon="-1.661396"><ele>298.5</ele><time>2026-04-18T11:29:41.068Z</time></trkpt><trkpt lat="53.2586368" lon="-1.6612296"><ele>297.75</ele><time>2026-04-18T11:29:42.068Z</time></trkpt><trkpt lat="53.2586124" lon="-1.6610252"><ele>297.0</ele><time>2026-04-18T11:29:43.072Z</time></trkpt><trkpt lat="53.2585938" lon="-1.6608194"><ele>296.75</ele><time>2026-04-18T11:29:44.07Z</time></trkpt><trkpt lat="53.2585808" lon="-1.6606078"><ele>296.5</ele><time>2026-04-18T11:29:45.063Z</time></trkpt><trkpt lat="53.2585612" lon="-1.6603948"><ele>296.25</ele><time>2026-04-18T11:29:46.067Z</time></trkpt><trkpt lat="53.2585378" lon="-1.6601914"><ele>296.0</ele><time>2026-04-18T11:29:47.066Z</time></trkpt><trkpt lat="53.2585238" lon="-1.6599971"><ele>295.75</ele><time>2026-04-18T11:29:48.068Z</time></trkpt><trkpt lat="53.2585122" lon="-1.6598016"><ele>295.5</ele><time>2026-04-18T11:29:49.069Z</time></trkpt><trkpt lat="53.2585017" lon="-1.6596051"><ele>295.25</ele><time>2026-04-18T11:29:50.069Z</time></trkpt><trkpt lat="53.2584935" lon="-1.6594162"><ele>295.0</ele><time>2026-04-18T11:29:51.069Z</time></trkpt><trkpt lat="53.2585014" lon="-1.6592471"><ele>293.8</ele><time>2026-04-18T11:29:52.068Z</time></trkpt><trkpt lat="53.2585292" lon="-1.6590913"><ele>292.6</ele><time>2026-04-18T11:29:53.072Z</time></trkpt><trkpt lat="53.258571" lon="-1.6589486"><ele>291.4</ele><time>2026-04-18T11:29:54.07Z</time></trkpt><trkpt lat="53.2586283" lon="-1.658829"><ele>290.2</ele><time>2026-04-18T11:29:55.069Z</time></trkpt><trkpt lat="53.2587018" lon="-1.6587373"><ele>289.0</ele><time>2026-04-18T11:29:56.069Z</time></trkpt><trkpt lat="53.2587883" lon="-1.658673"><ele>289.0</ele><time>2026-04-18T11:29:57.067Z</time></trkpt><trkpt lat="53.2588776" lon="-1.6586302"><ele>289.0</ele><time>2026-04-18T11:29:58.069Z</time></trkpt><trkpt lat="53.2589513" lon="-1.6585791"><ele>289.0</ele><time>2026-04-18T11:29:59.07Z</time></trkpt><trkpt lat="53.2590062" lon="-1.6585039"><ele>289.0</ele><time>2026-04-18T11:30:00.07Z</time></trkpt><trkpt lat="53.259042" lon="-1.6583881"><ele>289.0</ele><time>2026-04-18T11:30:01.065Z</time></trkpt><trkpt lat="53.259051" lon="-1.6582229"><ele>289.0</ele><time>2026-04-18T11:30:02.063Z</time></trkpt><trkpt lat="53.2590337" lon="-1.6580237"><ele>286.0</ele><time>2026-04-18T11:30:03.067Z</time></trkpt><trkpt lat="53.2589996" lon="-1.657798"><ele>283.0</ele><time>2026-04-18T11:30:04.065Z</time></trkpt><trkpt lat="53.2589709" lon="-1.6575472"><ele>280.0</ele><time>2026-04-18T11:30:05.066Z</time></trkpt><trkpt lat="53.2589671" lon="-1.6572735"><ele>279.25</ele><time>2026-04-18T11:30:06.064Z</time></trkpt><trkpt lat="53.2589839" lon="-1.6570081"><ele>278.5</ele><time>2026-04-18T11:30:07.068Z</time></trkpt><trkpt lat="53.2590068" lon="-1.6567709"><ele>277.75</ele><time>2026-04-18T11:30:08.065Z</time></trkpt><trkpt lat="53.2590242" lon="-1.6565593"><ele>277.0</ele><time>2026-04-18T11:30:09.069Z</time></trkpt><trkpt lat="53.2590168" lon="-1.6563599"><ele>277.0</ele><time>2026-04-18T11:30:10.069Z</time></trkpt><trkpt lat="53.2589812" lon="-1.6561537"><ele>277.0</ele><time>2026-04-18T11:30:11.069Z</time></trkpt><trkpt lat="53.2589303" lon="-1.6559457"><ele>277.0</ele><time>2026-04-18T11:30:12.068Z</time></trkpt><trkpt lat="53.2588767" lon="-1.6557538"><ele>277.0</ele><time>2026-04-18T11:30:13.073Z</time></trkpt><trkpt lat="53.2588356" lon="-1.6555747"><ele>274.4</ele><time>2026-04-18T11:30:14.07Z</time></trkpt><trkpt lat="53.2588026" lon="-1.6553954"><ele>271.79999999999995</ele><time>2026-04-18T11:30:15.07Z</time></trkpt><trkpt lat="53.2587771" lon="-1.6552204"><ele>269.2</ele><time>2026-04-18T11:30:16.066Z</time></trkpt><trkpt lat="53.2587472" lon="-1.6550541"><ele>266.59999999999997</ele><time>2026-04-18T11:30:17.069Z</time></trkpt><trkpt lat="53.2587199" lon="-1.6549088"><ele>264.0</ele><time>2026-04-18T11:30:18.068Z</time></trkpt><trkpt lat="53.2586963" lon="-1.6547837"><ele>261.1666666666667</ele><time>2026-04-18T11:30:19.068Z</time></trkpt><trkpt lat="53.2586879" lon="-1.6546676"><ele>258.3333333333333</ele><time>2026-04-18T11:30:20.07Z</time></trkpt><trkpt lat="53.2586949" lon="-1.6545448"><ele>255.5</ele><time>2026-04-18T11:30:21.069Z</time></trkpt><trkpt lat="53.2587071" lon="-1.6544019"><ele>252.66666666666666</ele><time>2026-04-18T11:30:22.07Z</time></trkpt><trkpt lat="53.2587317" lon="-1.6542449"><ele>249.83333333333331</ele><time>2026-04-18T11:30:23.073Z</time></trkpt><trkpt lat="53.2587599" lon="-1.6540894"><ele>247.0</ele><time>2026-04-18T11:30:24.066Z</time></trkpt><trkpt lat="53.2587873" lon="-1.6539319"><ele>248.6</ele><time>2026-04-18T11:30:25.07Z</time></trkpt><trkpt lat="53.2588105" lon="-1.653779"><ele>250.2</ele><time>2026-04-18T11:30:26.069Z</time></trkpt><trkpt lat="53.2588398" lon="-1.6536368"><ele>251.8</ele><time>2026-04-18T11:30:27.068Z</time></trkpt><trkpt lat="53.2588738" lon="-1.6534991"><ele>253.4</ele><time>2026-04-18T11:30:28.068Z</time></trkpt><trkpt lat="53.2589129" lon="-1.6533646"><ele>255.0</ele><time>2026-04-18T11:30:29.068Z</time></trkpt><trkpt lat="53.2589562" lon="-1.6532248"><ele>255.0</ele><time>2026-04-18T11:30:30.067Z</time></trkpt><trkpt lat="53.2590055" lon="-1.6530568"><ele>255.0</ele><time>2026-04-18T11:30:31.067Z</time></trkpt><trkpt lat="53.2590501" lon="-1.6528526"><ele>255.0</ele><time>2026-04-18T11:30:32.067Z</time></trkpt><trkpt lat="53.2590901" lon="-1.6526339"><ele>255.0</ele><time>2026-04-18T11:30:33.069Z</time></trkpt><trkpt lat="53.2591226" lon="-1.6524261"><ele>254.4</ele><time>2026-04-18T11:30:34.064Z</time></trkpt><trkpt lat="53.2591579" lon="-1.6522371"><ele>253.8</ele><time>2026-04-18T11:30:35.066Z</time></trkpt><trkpt lat="53.2591932" lon="-1.6520632"><ele>253.2</ele><time>2026-04-18T11:30:36.066Z</time></trkpt><trkpt lat="53.259227" lon="-1.6518913"><ele>252.6</ele><time>2026-04-18T11:30:37.066Z</time></trkpt><trkpt lat="53.259253" lon="-1.6517183"><ele>252.0</ele><time>2026-04-18T11:30:38.066Z</time></trkpt><trkpt lat="53.2592644" lon="-1.6515625"><ele>250.66666666666666</ele><time>2026-04-18T11:30:39.068Z</time></trkpt><trkpt lat="53.2592748" lon="-1.6514313"><ele>249.33333333333331</ele><time>2026-04-18T11:30:40.068Z</time></trkpt><trkpt lat="53.2592848" lon="-1.6513219"><ele>248.0</ele><time>2026-04-18T11:30:41.068Z</time></trkpt><trkpt lat="53.2592992" lon="-1.6511261"><ele>246.66666666666666</ele><time>2026-04-18T11:30:43.07Z</time></trkpt><trkpt lat="53.2592533" lon="-1.6509498"><ele>245.33333333333331</ele><time>2026-04-18T11:30:45.068Z</time></trkpt><trkpt lat="53.2592038" lon="-1.6508826"><ele>244.0</ele><time>2026-04-18T11:30:46.06Z</time></trkpt><trkpt lat="53.2591373" lon="-1.6508115"><ele>243.16666666666666</ele><time>2026-04-18T11:30:47.066Z</time></trkpt><trkpt lat="53.2590881" lon="-1.650724"><ele>242.33333333333331</ele><time>2026-04-18T11:30:48.06Z</time></trkpt><trkpt lat="53.2590521" lon="-1.6506211"><ele>241.5</ele><time>2026-04-18T11:30:49.06Z</time></trkpt><trkpt lat="53.2590337" lon="-1.6505065"><ele>240.66666666666669</ele><time>2026-04-18T11:30:50.066Z</time></trkpt><trkpt lat="53.2590274" lon="-1.6503749"><ele>239.83333333333334</ele><time>2026-04-18T11:30:51.067Z</time></trkpt><trkpt lat="53.2590347" lon="-1.650206"><ele>239.0</ele><time>2026-04-18T11:30:52.066Z</time></trkpt><trkpt lat="53.2590423" lon="-1.650008"><ele>238.50000000000003</ele><time>2026-04-18T11:30:53.07Z</time></trkpt><trkpt lat="53.2590495" lon="-1.6498118"><ele>238.0</ele><time>2026-04-18T11:30:54.069Z</time></trkpt><trkpt lat="53.259062" lon="-1.6496375"><ele>237.5</ele><time>2026-04-18T11:30:55.067Z</time></trkpt><trkpt lat="53.259066" lon="-1.6494951"><ele>237.0</ele><time>2026-04-18T11:30:56.059Z</time></trkpt><trkpt lat="53.2590557" lon="-1.6493811"><ele>236.50000000000003</ele><time>2026-04-18T11:30:57.066Z</time></trkpt><trkpt lat="53.2590321" lon="-1.6492755"><ele>236.0</ele><time>2026-04-18T11:30:58.067Z</time></trkpt><trkpt lat="53.2590071" lon="-1.6491656"><ele>234.66666666666669</ele><time>2026-04-18T11:30:59.067Z</time></trkpt><trkpt lat="53.258981" lon="-1.6490422"><ele>233.33333333333334</ele><time>2026-04-18T11:31:00.068Z</time></trkpt><trkpt lat="53.2589621" lon="-1.6489076"><ele>232.0</ele><time>2026-04-18T11:31:01.066Z</time></trkpt><trkpt lat="53.2589455" lon="-1.6487579"><ele>230.66666666666669</ele><time>2026-04-18T11:31:02.066Z</time></trkpt><trkpt lat="53.258925" lon="-1.6486025"><ele>229.33333333333334</ele><time>2026-04-18T11:31:03.065Z</time></trkpt><trkpt lat="53.2589108" lon="-1.6484479"><ele>228.0</ele><time>2026-04-18T11:31:04.065Z</time></trkpt><trkpt lat="53.2589007" lon="-1.6483018"><ele>225.0</ele><time>2026-04-18T11:31:05.062Z</time></trkpt><trkpt lat="53.258884" lon="-1.6481654"><ele>222.0</ele><time>2026-04-18T11:31:06.063Z</time></trkpt><trkpt lat="53.2588576" lon="-1.6480448"><ele>219.0</ele><time>2026-04-18T11:31:07.062Z</time></trkpt><trkpt lat="53.2588127" lon="-1.6479509"><ele>216.0</ele><time>2026-04-18T11:31:08.064Z</time></trkpt><trkpt lat="53.2587462" lon="-1.6478058"><ele>213.0</ele><time>2026-04-18T11:31:10.067Z</time></trkpt><trkpt lat="53.2586819" lon="-1.6477055"><ele>210.0</ele><time>2026-04-18T11:31:12.067Z</time></trkpt><trkpt lat="53.2586363" lon="-1.6475938"><ele>209.8</ele><time>2026-04-18T11:31:14.069Z</time></trkpt><trkpt lat="53.2586503" lon="-1.6474715"><ele>209.6</ele><time>2026-04-18T11:31:17.07Z</time></trkpt><trkpt lat="53.2587069" lon="-1.6473637"><ele>209.39999999999998</ele><time>2026-04-18T11:31:19.069Z</time></trkpt><trkpt lat="53.2587806" lon="-1.6472841"><ele>209.2</ele><time>2026-04-18T11:31:20.071Z</time></trkpt><trkpt lat="53.2588843" lon="-1.6471911"><ele>209.0</ele><time>2026-04-18T11:31:21.069Z</time></trkpt><trkpt lat="53.2590252" lon="-1.6470713"><ele>205.33333333333334</ele><time>2026-04-18T11:31:22.071Z</time></trkpt><trkpt lat="53.2592115" lon="-1.6469421"><ele>201.66666666666669</ele><time>2026-04-18T11:31:23.071Z</time></trkpt><trkpt lat="53.2594179" lon="-1.6468299"><ele>198.0</ele><time>2026-04-18T11:31:24.072Z</time></trkpt><trkpt lat="53.2596332" lon="-1.646747"><ele>198.66666666666669</ele><time>2026-04-18T11:31:25.073Z</time></trkpt><trkpt lat="53.2598498" lon="-1.6466891"><ele>199.33333333333334</ele><time>2026-04-18T11:31:26.07Z</time></trkpt><trkpt lat="53.2600521" lon="-1.6466443"><ele>200.0</ele><time>2026-04-18T11:31:27.067Z</time></trkpt><trkpt lat="53.2602262" lon="-1.6466009"><ele>200.0</ele><time>2026-04-18T11:31:28.064Z</time></trkpt><trkpt lat="53.2603846" lon="-1.6465427"><ele>200.0</ele><time>2026-04-18T11:31:29.064Z</time></trkpt><trkpt lat="53.2605329" lon="-1.646462"><ele>200.0</ele><time>2026-04-18T11:31:30.066Z</time></trkpt><trkpt lat="53.2606878" lon="-1.6463687"><ele>201.33333333333334</ele><time>2026-04-18T11:31:31.062Z</time></trkpt><trkpt lat="53.2608481" lon="-1.6462795"><ele>202.66666666666669</ele><time>2026-04-18T11:31:32.065Z</time></trkpt><trkpt lat="53.2610207" lon="-1.6461845"><ele>204.0</ele><time>2026-04-18T11:31:33.065Z</time></trkpt><trkpt lat="53.2612041" lon="-1.6460795"><ele>200.66666666666669</ele><time>2026-04-18T11:31:34.062Z</time></trkpt><trkpt lat="53.2613999" lon="-1.645971"><ele>197.33333333333334</ele><time>2026-04-18T11:31:35.062Z</time></trkpt><trkpt lat="53.2616002" lon="-1.6458632"><ele>194.0</ele><time>2026-04-18T11:31:36.062Z</time></trkpt><trkpt lat="53.2618024" lon="-1.645746"><ele>194.0</ele><time>2026-04-18T11:31:37.062Z</time></trkpt><trkpt lat="53.2620089" lon="-1.6456232"><ele>194.0</ele><time>2026-04-18T11:31:38.064Z</time></trkpt><trkpt lat="53.2622153" lon="-1.6455036"><ele>194.0</ele><time>2026-04-18T11:31:39.063Z</time></trkpt><trkpt lat="53.262423" lon="-1.6453853"><ele>188.66666666666669</ele><time>2026-04-18T11:31:40.065Z</time></trkpt><trkpt lat="53.2626332" lon="-1.6452675"><ele>183.33333333333334</ele><time>2026-04-18T11:31:41.064Z</time></trkpt><trkpt lat="53.2628359" lon="-1.6451478"><ele>178.0</ele><time>2026-04-18T11:31:42.063Z</time></trkpt><trkpt lat="53.2630299" lon="-1.6450322"><ele>178.66666666666669</ele><time>2026-04-18T11:31:43.07Z</time></trkpt><trkpt lat="53.2632155" lon="-1.6449254"><ele>179.33333333333334</ele><time>2026-04-18T11:31:44.064Z</time></trkpt><trkpt lat="53.2634017" lon="-1.6448304"><ele>180.0</ele><time>2026-04-18T11:31:45.062Z</time></trkpt><trkpt lat="53.2635792" lon="-1.6447475"><ele>180.0</ele><time>2026-04-18T11:31:46.063Z</time></trkpt><trkpt lat="53.26375" lon="-1.6446783"><ele>180.0</ele><time>2026-04-18T11:31:47.066Z</time></trkpt><trkpt lat="53.2639221" lon="-1.6446279"><ele>180.0</ele><time>2026-04-18T11:31:48.066Z</time></trkpt><trkpt lat="53.2641047" lon="-1.6445882"><ele>181.0</ele><time>2026-04-18T11:31:49.064Z</time></trkpt><trkpt lat="53.2643073" lon="-1.6445497"><ele>182.0</ele><time>2026-04-18T11:31:50.065Z</time></trkpt><trkpt lat="53.2645146" lon="-1.6444986"><ele>183.0</ele><time>2026-04-18T11:31:51.067Z</time></trkpt><trkpt lat="53.2647238" lon="-1.644443"><ele>178.0</ele><time>2026-04-18T11:31:52.062Z</time></trkpt><trkpt lat="53.264932" lon="-1.6444"><ele>173.0</ele><time>2026-04-18T11:31:53.068Z</time></trkpt><trkpt lat="53.2651384" lon="-1.6443818"><ele>168.0</ele><time>2026-04-18T11:31:54.067Z</time></trkpt><trkpt lat="53.2653439" lon="-1.6443912"><ele>168.0</ele><time>2026-04-18T11:31:55.067Z</time></trkpt><trkpt lat="53.2655464" lon="-1.6444219"><ele>168.0</ele><time>2026-04-18T11:31:56.068Z</time></trkpt><trkpt lat="53.2657387" lon="-1.6444665"><ele>168.0</ele><time>2026-04-18T11:31:57.069Z</time></trkpt><trkpt lat="53.2659116" lon="-1.6445114"><ele>168.5</ele><time>2026-04-18T11:31:58.068Z</time></trkpt><trkpt lat="53.2660638" lon="-1.6445547"><ele>169.0</ele><time>2026-04-18T11:31:59.068Z</time></trkpt><trkpt lat="53.2662037" lon="-1.6445855"><ele>169.5</ele><time>2026-04-18T11:32:00.069Z</time></trkpt><trkpt lat="53.2663356" lon="-1.6446028"><ele>170.0</ele><time>2026-04-18T11:32:01.065Z</time></trkpt><trkpt lat="53.2664826" lon="-1.6446134"><ele>170.0</ele><time>2026-04-18T11:32:02.068Z</time></trkpt><trkpt lat="53.2666436" lon="-1.6446001"><ele>170.0</ele><time>2026-04-18T11:32:03.072Z</time></trkpt><trkpt lat="53.266818" lon="-1.6445395"><ele>170.0</ele><time>2026-04-18T11:32:04.071Z</time></trkpt><trkpt lat="53.2669991" lon="-1.6444393"><ele>167.66666666666666</ele><time>2026-04-18T11:32:05.069Z</time></trkpt><trkpt lat="53.2671794" lon="-1.6443345"><ele>165.33333333333334</ele><time>2026-04-18T11:32:06.06Z</time></trkpt><trkpt lat="53.2673566" lon="-1.6442297"><ele>163.0</ele><time>2026-04-18T11:32:07.064Z</time></trkpt><trkpt lat="53.2675306" lon="-1.6441206"><ele>161.66666666666669</ele><time>2026-04-18T11:32:08.069Z</time></trkpt><trkpt lat="53.2676858" lon="-1.6440054"><ele>160.33333333333334</ele><time>2026-04-18T11:32:09.069Z</time></trkpt><trkpt lat="53.2678287" lon="-1.6438914"><ele>159.0</ele><time>2026-04-18T11:32:10.069Z</time></trkpt><trkpt lat="53.2679569" lon="-1.6437925"><ele>159.0</ele><time>2026-04-18T11:32:11.067Z</time></trkpt><trkpt lat="53.2680725" lon="-1.6437111"><ele>159.0</ele><time>2026-04-18T11:32:12.068Z</time></trkpt><trkpt lat="53.2681846" lon="-1.6436552"><ele>159.0</ele><time>2026-04-18T11:32:13.073Z</time></trkpt><trkpt lat="53.2682954" lon="-1.643617"><ele>159.0</ele><time>2026-04-18T11:32:14.07Z</time></trkpt><trkpt lat="53.2684022" lon="-1.6435895"><ele>157.6</ele><time>2026-04-18T11:32:15.068Z</time></trkpt><trkpt lat="53.2685091" lon="-1.6435812"><ele>156.2</ele><time>2026-04-18T11:32:16.068Z</time></trkpt><trkpt lat="53.2686216" lon="-1.6435844"><ele>154.79999999999998</ele><time>2026-04-18T11:32:17.071Z</time></trkpt><trkpt lat="53.2687297" lon="-1.6435822"><ele>153.4</ele><time>2026-04-18T11:32:18.068Z</time></trkpt><trkpt lat="53.2688356" lon="-1.6435564"><ele>152.0</ele><time>2026-04-18T11:32:19.069Z</time></trkpt><trkpt lat="53.2689437" lon="-1.643507"><ele>150.79999999999998</ele><time>2026-04-18T11:32:20.069Z</time></trkpt><trkpt lat="53.2690482" lon="-1.6434313"><ele>149.6</ele><time>2026-04-18T11:32:21.067Z</time></trkpt><trkpt lat="53.2691454" lon="-1.6433432"><ele>148.39999999999998</ele><time>2026-04-18T11:32:22.069Z</time></trkpt><trkpt lat="53.2692337" lon="-1.6432576"><ele>147.2</ele><time>2026-04-18T11:32:23.07Z</time></trkpt><trkpt lat="53.2693109" lon="-1.6431791"><ele>146.0</ele><time>2026-04-18T11:32:24.069Z</time></trkpt><trkpt lat="53.2693784" lon="-1.6431092"><ele>146.0</ele><time>2026-04-18T11:32:25.069Z</time></trkpt><trkpt lat="53.2694377" lon="-1.643052"><ele>146.0</ele><time>2026-04-18T11:32:26.068Z</time></trkpt><trkpt lat="53.2695243" lon="-1.6429806"><ele>146.0</ele><time>2026-04-18T11:32:28.071Z</time></trkpt><trkpt lat="53.2696033" lon="-1.6429491"><ele>146.0</ele><time>2026-04-18T11:33:01.071Z</time></trkpt><trkpt lat="53.2697067" lon="-1.6429189"><ele>146.0</ele><time>2026-04-18T11:33:03.073Z</time></trkpt><trkpt lat="53.2698372" lon="-1.6429599"><ele>145.2</ele><time>2026-04-18T11:33:05.068Z</time></trkpt><trkpt lat="53.2699182" lon="-1.6430138"><ele>144.39999999999998</ele><time>2026-04-18T11:33:06.069Z</time></trkpt><trkpt lat="53.2700061" lon="-1.6430757"><ele>143.6</ele><time>2026-04-18T11:33:07.069Z</time></trkpt><trkpt lat="53.2700948" lon="-1.643138"><ele>142.79999999999998</ele><time>2026-04-18T11:33:08.061Z</time></trkpt><trkpt lat="53.27018" lon="-1.6431985"><ele>142.0</ele><time>2026-04-18T11:33:09.069Z</time></trkpt><trkpt lat="53.2702682" lon="-1.6432626"><ele>142.0</ele><time>2026-04-18T11:33:10.07Z</time></trkpt><trkpt lat="53.2703641" lon="-1.6433359"><ele>142.0</ele><time>2026-04-18T11:33:11.069Z</time></trkpt><trkpt lat="53.2704669" lon="-1.643413"><ele>142.0</ele><time>2026-04-18T11:33:12.068Z</time></trkpt><trkpt lat="53.2705734" lon="-1.64349"><ele>142.0</ele><time>2026-04-18T11:33:13.073Z</time></trkpt><trkpt lat="53.2706826" lon="-1.643571"><ele>141.5</ele><time>2026-04-18T11:33:14.069Z</time></trkpt><trkpt lat="53.2707923" lon="-1.6436518"><ele>141.0</ele><time>2026-04-18T11:33:15.068Z</time></trkpt><trkpt lat="53.2709042" lon="-1.6437205"><ele>140.5</ele><time>2026-04-18T11:33:16.069Z</time></trkpt><trkpt lat="53.2710146" lon="-1.6437757"><ele>140.0</ele><time>2026-04-18T11:33:17.069Z</time></trkpt><trkpt lat="53.2711279" lon="-1.6438088"><ele>140.0</ele><time>2026-04-18T11:33:18.069Z</time></trkpt><trkpt lat="53.271244" lon="-1.6438169"><ele>140.0</ele><time>2026-04-18T11:33:19.068Z</time></trkpt><trkpt lat="53.2713614" lon="-1.6438051"><ele>140.0</ele><time>2026-04-18T11:33:20.068Z</time></trkpt><trkpt lat="53.2714807" lon="-1.6437852"><ele>140.0</ele><time>2026-04-18T11:33:21.068Z</time></trkpt><trkpt lat="53.2716036" lon="-1.6437521"><ele>139.5</ele><time>2026-04-18T11:33:22.07Z</time></trkpt><trkpt lat="53.2717252" lon="-1.6437095"><ele>139.0</ele><time>2026-04-18T11:33:23.075Z</time></trkpt><trkpt lat="53.2718395" lon="-1.6436639"><ele>138.5</ele><time>2026-04-18T11:33:24.069Z</time></trkpt><trkpt lat="53.2719377" lon="-1.6436168"><ele>138.0</ele><time>2026-04-18T11:33:25.069Z</time></trkpt><trkpt lat="53.2720453" lon="-1.643576"><ele>138.0</ele><time>2026-04-18T11:33:26.068Z</time></trkpt><trkpt lat="53.2721581" lon="-1.643537"><ele>138.0</ele><time>2026-04-18T11:33:27.068Z</time></trkpt><trkpt lat="53.2722644" lon="-1.643502"><ele>138.0</ele><time>2026-04-18T11:33:28.07Z</time></trkpt><trkpt lat="53.2723623" lon="-1.6434725"><ele>138.0</ele><time>2026-04-18T11:33:29.068Z</time></trkpt><trkpt lat="53.2724565" lon="-1.643453"><ele>138.0</ele><time>2026-04-18T11:33:30.069Z</time></trkpt><trkpt lat="53.2725565" lon="-1.6434455"><ele>137.75</ele><time>2026-04-18T11:33:31.071Z</time></trkpt><trkpt lat="53.2726734" lon="-1.6434497"><ele>137.5</ele><time>2026-04-18T11:33:32.068Z</time></trkpt><trkpt lat="53.2728038" lon="-1.6434604"><ele>137.25</ele><time>2026-04-18T11:33:33.073Z</time></trkpt><trkpt lat="53.27294" lon="-1.6434751"><ele>137.0</ele><time>2026-04-18T11:33:34.069Z</time></trkpt><trkpt lat="53.2730783" lon="-1.6434955"><ele>136.0</ele><time>2026-04-18T11:33:35.068Z</time></trkpt><trkpt lat="53.2732096" lon="-1.6435161"><ele>135.0</ele><time>2026-04-18T11:33:36.068Z</time></trkpt><trkpt lat="53.2733322" lon="-1.6435334"><ele>134.0</ele><time>2026-04-18T11:33:37.067Z</time></trkpt><trkpt lat="53.2734557" lon="-1.6435498"><ele>133.0</ele><time>2026-04-18T11:33:38.068Z</time></trkpt><trkpt lat="53.2735774" lon="-1.6435683"><ele>133.0</ele><time>2026-04-18T11:33:39.068Z</time></trkpt><trkpt lat="53.2736959" lon="-1.6435859"><ele>133.0</ele><time>2026-04-18T11:33:40.069Z</time></trkpt><trkpt lat="53.2738162" lon="-1.6436009"><ele>133.0</ele><time>2026-04-18T11:33:41.068Z</time></trkpt><trkpt lat="53.2739421" lon="-1.6436102"><ele>133.0</ele><time>2026-04-18T11:33:42.067Z</time></trkpt><trkpt lat="53.2740729" lon="-1.6436101"><ele>133.0</ele><time>2026-04-18T11:33:43.072Z</time></trkpt><trkpt lat="53.2742108" lon="-1.6435922"><ele>133.0</ele><time>2026-04-18T11:33:44.069Z</time></trkpt><trkpt lat="53.2743519" lon="-1.643544"><ele>133.0</ele><time>2026-04-18T11:33:45.068Z</time></trkpt><trkpt lat="53.2744944" lon="-1.6434537"><ele>133.0</ele><time>2026-04-18T11:33:46.068Z</time></trkpt><trkpt lat="53.2746363" lon="-1.6433232"><ele>136.33333333333334</ele><time>2026-04-18T11:33:47.066Z</time></trkpt><trkpt lat="53.274776" lon="-1.6431528"><ele>139.66666666666666</ele><time>2026-04-18T11:33:48.068Z</time></trkpt><trkpt lat="53.2749029" lon="-1.642934"><ele>143.0</ele><time>2026-04-18T11:33:49.067Z</time></trkpt><trkpt lat="53.2750144" lon="-1.6426721"><ele>143.0</ele><time>2026-04-18T11:33:50.068Z</time></trkpt><trkpt lat="53.2751067" lon="-1.6423786"><ele>143.0</ele><time>2026-04-18T11:33:51.065Z</time></trkpt><trkpt lat="53.2751874" lon="-1.6420584"><ele>143.0</ele><time>2026-04-18T11:33:52.065Z</time></trkpt><trkpt lat="53.2752656" lon="-1.641719"><ele>142.0</ele><time>2026-04-18T11:33:53.07Z</time></trkpt><trkpt lat="53.275345" lon="-1.6413625"><ele>141.0</ele><time>2026-04-18T11:33:54.065Z</time></trkpt><trkpt lat="53.2754262" lon="-1.6410163"><ele>140.0</ele><time>2026-04-18T11:33:55.065Z</time></trkpt><trkpt lat="53.2755031" lon="-1.6406927"><ele>139.0</ele><time>2026-04-18T11:33:56.065Z</time></trkpt><trkpt lat="53.2755748" lon="-1.6403948"><ele>138.0</ele><time>2026-04-18T11:33:57.064Z</time></trkpt><trkpt lat="53.2756475" lon="-1.6401227"><ele>142.66666666666666</ele><time>2026-04-18T11:33:58.065Z</time></trkpt><trkpt lat="53.2757352" lon="-1.6398654"><ele>147.33333333333331</ele><time>2026-04-18T11:33:59.067Z</time></trkpt><trkpt lat="53.2758525" lon="-1.6396467"><ele>152.0</ele><time>2026-04-18T11:34:00.068Z</time></trkpt><trkpt lat="53.2760018" lon="-1.6394999"><ele>151.33333333333331</ele><time>2026-04-18T11:34:01.068Z</time></trkpt><trkpt lat="53.2761755" lon="-1.6394146"><ele>150.66666666666666</ele><time>2026-04-18T11:34:02.068Z</time></trkpt><trkpt lat="53.2763497" lon="-1.6393956"><ele>150.0</ele><time>2026-04-18T11:34:03.07Z</time></trkpt><trkpt lat="53.2765204" lon="-1.6394548"><ele>153.66666666666666</ele><time>2026-04-18T11:34:04.067Z</time></trkpt><trkpt lat="53.2766813" lon="-1.6395906"><ele>157.33333333333331</ele><time>2026-04-18T11:34:05.069Z</time></trkpt><trkpt lat="53.2768389" lon="-1.6398052"><ele>161.0</ele><time>2026-04-18T11:34:06.075Z</time></trkpt><trkpt lat="53.2770024" lon="-1.6400348"><ele>161.0</ele><time>2026-04-18T11:34:07.07Z</time></trkpt><trkpt lat="53.2771618" lon="-1.6402528"><ele>161.0</ele><time>2026-04-18T11:34:08.067Z</time></trkpt><trkpt lat="53.277322" lon="-1.6404535"><ele>161.0</ele><time>2026-04-18T11:34:09.068Z</time></trkpt><trkpt lat="53.277472" lon="-1.6406287"><ele>161.66666666666666</ele><time>2026-04-18T11:34:10.071Z</time></trkpt><trkpt lat="53.2776221" lon="-1.6407839"><ele>162.33333333333334</ele><time>2026-04-18T11:34:11.067Z</time></trkpt><trkpt lat="53.2777812" lon="-1.6409197"><ele>163.0</ele><time>2026-04-18T11:34:12.067Z</time></trkpt><trkpt lat="53.2779537" lon="-1.6410342"><ele>162.0</ele><time>2026-04-18T11:34:13.071Z</time></trkpt><trkpt lat="53.2781391" lon="-1.6411333"><ele>161.0</ele><time>2026-04-18T11:34:14.068Z</time></trkpt><trkpt lat="53.2783294" lon="-1.6412308"><ele>160.0</ele><time>2026-04-18T11:34:15.07Z</time></trkpt><trkpt lat="53.2785218" lon="-1.6413364"><ele>160.0</ele><time>2026-04-18T11:34:16.069Z</time></trkpt><trkpt lat="53.2787177" lon="-1.641447"><ele>160.0</ele><time>2026-04-18T11:34:17.072Z</time></trkpt><trkpt lat="53.2789167" lon="-1.6415592"><ele>160.0</ele><time>2026-04-18T11:34:18.071Z</time></trkpt><trkpt lat="53.2791111" lon="-1.6416749"><ele>157.66666666666669</ele><time>2026-04-18T11:34:19.07Z</time></trkpt><trkpt lat="53.2792958" lon="-1.6417837"><ele>155.33333333333334</ele><time>2026-04-18T11:34:20.071Z</time></trkpt><trkpt lat="53.2794857" lon="-1.6418754"><ele>153.0</ele><time>2026-04-18T11:34:21.071Z</time></trkpt><trkpt lat="53.2796733" lon="-1.6419503"><ele>153.0</ele><time>2026-04-18T11:34:22.071Z</time></trkpt><trkpt lat="53.2798527" lon="-1.6420151"><ele>153.0</ele><time>2026-04-18T11:34:23.067Z</time></trkpt><trkpt lat="53.2800312" lon="-1.6420746"><ele>153.0</ele><time>2026-04-18T11:34:24.072Z</time></trkpt><trkpt lat="53.2802197" lon="-1.6421347"><ele>153.0</ele><time>2026-04-18T11:34:25.07Z</time></trkpt><trkpt lat="53.2804156" lon="-1.6422007"><ele>153.0</ele><time>2026-04-18T11:34:26.07Z</time></trkpt><trkpt lat="53.2806181" lon="-1.6422724"><ele>153.0</ele><time>2026-04-18T11:34:27.069Z</time></trkpt><trkpt lat="53.2808196" lon="-1.6423489"><ele>153.0</ele><time>2026-04-18T11:34:28.071Z</time></trkpt><trkpt lat="53.2810078" lon="-1.6424273"><ele>153.0</ele><time>2026-04-18T11:34:29.071Z</time></trkpt><trkpt lat="53.2811773" lon="-1.6425036"><ele>153.0</ele><time>2026-04-18T11:34:30.07Z</time></trkpt><trkpt lat="53.281326" lon="-1.6425768"><ele>153.75</ele><time>2026-04-18T11:34:31.068Z</time></trkpt><trkpt lat="53.2814638" lon="-1.6426469"><ele>154.5</ele><time>2026-04-18T11:34:32.068Z</time></trkpt><trkpt lat="53.281606" lon="-1.6427082"><ele>155.25</ele><time>2026-04-18T11:34:33.072Z</time></trkpt><trkpt lat="53.2817609" lon="-1.6427446"><ele>156.0</ele><time>2026-04-18T11:34:34.068Z</time></trkpt><trkpt lat="53.2819286" lon="-1.642745"><ele>156.0</ele><time>2026-04-18T11:34:35.068Z</time></trkpt><trkpt lat="53.2821129" lon="-1.6427145"><ele>156.0</ele><time>2026-04-18T11:34:36.067Z</time></trkpt><trkpt lat="53.2823138" lon="-1.6426685"><ele>156.0</ele><time>2026-04-18T11:34:37.068Z</time></trkpt><trkpt lat="53.2825294" lon="-1.6426115"><ele>153.5</ele><time>2026-04-18T11:34:38.066Z</time></trkpt><trkpt lat="53.2827584" lon="-1.6425515"><ele>151.0</ele><time>2026-04-18T11:34:39.06Z</time></trkpt><trkpt lat="53.2830004" lon="-1.6424927"><ele>152.0</ele><time>2026-04-18T11:34:40.068Z</time></trkpt><trkpt lat="53.2832368" lon="-1.6424361"><ele>153.0</ele><time>2026-04-18T11:34:41.066Z</time></trkpt><trkpt lat="53.2834601" lon="-1.6423795"><ele>153.0</ele><time>2026-04-18T11:34:42.066Z</time></trkpt><trkpt lat="53.2836593" lon="-1.6423288"><ele>153.0</ele><time>2026-04-18T11:34:43.07Z</time></trkpt><trkpt lat="53.2838319" lon="-1.6422966"><ele>153.0</ele><time>2026-04-18T11:34:44.059Z</time></trkpt><trkpt lat="53.2839892" lon="-1.6422806"><ele>154.0</ele><time>2026-04-18T11:34:45.063Z</time></trkpt><trkpt lat="53.2841258" lon="-1.6422795"><ele>155.0</ele><time>2026-04-18T11:34:46.063Z</time></trkpt><trkpt lat="53.2842469" lon="-1.6422915"><ele>156.0</ele><time>2026-04-18T11:34:47.062Z</time></trkpt><trkpt lat="53.2843561" lon="-1.6423032"><ele>157.0</ele><time>2026-04-18T11:34:48.065Z</time></trkpt><trkpt lat="53.2844661" lon="-1.6423237"><ele>157.0</ele><time>2026-04-18T11:34:49.068Z</time></trkpt><trkpt lat="53.2845995" lon="-1.6423311"><ele>157.0</ele><time>2026-04-18T11:34:50.068Z</time></trkpt><trkpt lat="53.2847501" lon="-1.6423385"><ele>157.0</ele><time>2026-04-18T11:34:51.068Z</time></trkpt><trkpt lat="53.2849004" lon="-1.6423489"><ele>157.0</ele><time>2026-04-18T11:34:52.066Z</time></trkpt><trkpt lat="53.285034" lon="-1.6423524"><ele>156.2</ele><time>2026-04-18T11:34:53.069Z</time></trkpt><trkpt lat="53.2851388" lon="-1.6423565"><ele>155.39999999999998</ele><time>2026-04-18T11:34:54.065Z</time></trkpt><trkpt lat="53.2852029" lon="-1.6423676"><ele>154.60000000000002</ele><time>2026-04-18T11:34:55.065Z</time></trkpt><trkpt lat="53.2851315" lon="-1.6422609"><ele>153.8</ele><time>2026-04-18T11:34:59.067Z</time></trkpt><trkpt lat="53.2850126" lon="-1.6422488"><ele>153.0</ele><time>2026-04-18T11:35:00.07Z</time></trkpt><trkpt lat="53.2848642" lon="-1.6422387"><ele>154.33333333333334</ele><time>2026-04-18T11:35:01.065Z</time></trkpt><trkpt lat="53.2846858" lon="-1.6422325"><ele>155.66666666666669</ele><time>2026-04-18T11:35:02.068Z</time></trkpt><trkpt lat="53.2845035" lon="-1.6422301"><ele>157.0</ele><time>2026-04-18T11:35:03.072Z</time></trkpt><trkpt lat="53.2843513" lon="-1.6422268"><ele>157.0</ele><time>2026-04-18T11:35:04.071Z</time></trkpt><trkpt lat="53.284221" lon="-1.6422257"><ele>157.0</ele><time>2026-04-18T11:35:05.068Z</time></trkpt><trkpt lat="53.2841249" lon="-1.6422241"><ele>157.0</ele><time>2026-04-18T11:35:06.067Z</time></trkpt><trkpt lat="53.2840386" lon="-1.6422247"><ele>157.0</ele><time>2026-04-18T11:35:08.067Z</time></trkpt><trkpt lat="53.2840275" lon="-1.6423559"><ele>157.0</ele><time>2026-04-18T11:35:11.069Z</time></trkpt><trkpt lat="53.2840335" lon="-1.6424834"><ele>157.0</ele><time>2026-04-18T11:35:12.069Z</time></trkpt><trkpt lat="53.2840319" lon="-1.642628"><ele>157.0</ele><time>2026-04-18T11:35:13.068Z</time></trkpt><trkpt lat="53.2840149" lon="-1.6427749"><ele>157.0</ele><time>2026-04-18T11:35:14.069Z</time></trkpt><trkpt lat="53.2839793" lon="-1.6429176"><ele>157.0</ele><time>2026-04-18T11:35:15.075Z</time></trkpt><trkpt lat="53.283944" lon="-1.6430903"><ele>157.0</ele><time>2026-04-18T11:35:16.074Z</time></trkpt><trkpt lat="53.2839313" lon="-1.6432907"><ele>157.4</ele><time>2026-04-18T11:35:17.074Z</time></trkpt><trkpt lat="53.2839296" lon="-1.6434775"><ele>157.79999999999998</ele><time>2026-04-18T11:35:18.073Z</time></trkpt><trkpt lat="53.2839117" lon="-1.6436402"><ele>158.2</ele><time>2026-04-18T11:35:19.061Z</time></trkpt><trkpt lat="53.2838853" lon="-1.6437906"><ele>158.6</ele><time>2026-04-18T11:35:20.074Z</time></trkpt><trkpt lat="53.2838738" lon="-1.6439421"><ele>159.0</ele><time>2026-04-18T11:35:21.075Z</time></trkpt><trkpt lat="53.2838807" lon="-1.6441164"><ele>160.6</ele><time>2026-04-18T11:35:22.073Z</time></trkpt><trkpt lat="53.2838921" lon="-1.6442953"><ele>162.2</ele><time>2026-04-18T11:35:23.074Z</time></trkpt><trkpt lat="53.2839069" lon="-1.6444781"><ele>163.79999999999998</ele><time>2026-04-18T11:35:24.075Z</time></trkpt><trkpt lat="53.2839213" lon="-1.6446628"><ele>165.4</ele><time>2026-04-18T11:35:25.07Z</time></trkpt><trkpt lat="53.2839308" lon="-1.6448485"><ele>167.0</ele><time>2026-04-18T11:35:26.074Z</time></trkpt><trkpt lat="53.2839451" lon="-1.6450142"><ele>169.66666666666666</ele><time>2026-04-18T11:35:27.074Z</time></trkpt><trkpt lat="53.2839673" lon="-1.6451443"><ele>172.33333333333331</ele><time>2026-04-18T11:35:28.075Z</time></trkpt><trkpt lat="53.2840091" lon="-1.6453036"><ele>175.0</ele><time>2026-04-18T11:35:30.072Z</time></trkpt><trkpt lat="53.2840256" lon="-1.645425"><ele>177.66666666666666</ele><time>2026-04-18T11:35:32.066Z</time></trkpt><trkpt lat="53.2840624" lon="-1.6455578"><ele>180.33333333333334</ele><time>2026-04-18T11:35:34.067Z</time></trkpt><trkpt lat="53.2840715" lon="-1.6456996"><ele>183.0</ele><time>2026-04-18T11:35:36.069Z</time></trkpt><trkpt lat="53.2841067" lon="-1.6458864"><ele>184.85714285714286</ele><time>2026-04-18T11:35:38.071Z</time></trkpt><trkpt lat="53.284119" lon="-1.6459913"><ele>186.71428571428572</ele><time>2026-04-18T11:35:39.067Z</time></trkpt><trkpt lat="53.2841373" lon="-1.6460941"><ele>188.57142857142856</ele><time>2026-04-18T11:35:40.068Z</time></trkpt><trkpt lat="53.2841625" lon="-1.6462052"><ele>190.42857142857144</ele><time>2026-04-18T11:35:41.066Z</time></trkpt><trkpt lat="53.2841903" lon="-1.6463185"><ele>192.28571428571428</ele><time>2026-04-18T11:35:42.068Z</time></trkpt><trkpt lat="53.2842098" lon="-1.6464308"><ele>194.14285714285714</ele><time>2026-04-18T11:35:43.067Z</time></trkpt><trkpt lat="53.2842199" lon="-1.6465475"><ele>196.0</ele><time>2026-04-18T11:35:44.068Z</time></trkpt><trkpt lat="53.2842311" lon="-1.6467359"><ele>195.99999999999997</ele><time>2026-04-18T11:35:46.065Z</time></trkpt><trkpt lat="53.2842343" lon="-1.6466209"><ele>196.0</ele><time>2026-04-18T11:36:17.069Z</time></trkpt><trkpt lat="53.2842226" lon="-1.6464889"><ele>196.0</ele><time>2026-04-18T11:36:19.069Z</time></trkpt><trkpt lat="53.2842433" lon="-1.6463795"><ele>196.0</ele><time>2026-04-18T11:36:21.065Z</time></trkpt><trkpt lat="53.2842483" lon="-1.6462627"><ele>195.99999999999997</ele><time>2026-04-18T11:36:23.071Z</time></trkpt><trkpt lat="53.2842222" lon="-1.6461284"><ele>196.0</ele><time>2026-04-18T11:36:25.07Z</time></trkpt><trkpt lat="53.2841471" lon="-1.6459132"><ele>195.99999999999997</ele><time>2026-04-18T11:36:26.068Z</time></trkpt><trkpt lat="53.2841305" lon="-1.6457828"><ele>196.0</ele><time>2026-04-18T11:36:28.069Z</time></trkpt><trkpt lat="53.2841019" lon="-1.645647"><ele>196.0</ele><time>2026-04-18T11:36:30.068Z</time></trkpt><trkpt lat="53.284081" lon="-1.6455126"><ele>196.0</ele><time>2026-04-18T11:36:32.068Z</time></trkpt><trkpt lat="53.2840766" lon="-1.6453877"><ele>195.99999999999997</ele><time>2026-04-18T11:36:34.068Z</time></trkpt><trkpt lat="53.2840372" lon="-1.6452608"><ele>196.0</ele><time>2026-04-18T11:36:36.069Z</time></trkpt><trkpt lat="53.2840299" lon="-1.6451316"><ele>193.4</ele><time>2026-04-18T11:36:38.067Z</time></trkpt><trkpt lat="53.2840144" lon="-1.6450049"><ele>190.8</ele><time>2026-04-18T11:36:40.066Z</time></trkpt><trkpt lat="53.2839808" lon="-1.6448432"><ele>188.20000000000002</ele><time>2026-04-18T11:36:42.068Z</time></trkpt><trkpt lat="53.2839615" lon="-1.644656"><ele>185.60000000000002</ele><time>2026-04-18T11:36:44.065Z</time></trkpt><trkpt lat="53.2839621" lon="-1.6444751"><ele>183.0</ele><time>2026-04-18T11:36:46.07Z</time></trkpt><trkpt lat="53.2839537" lon="-1.6442941"><ele>181.0</ele><time>2026-04-18T11:36:48.07Z</time></trkpt><trkpt lat="53.2839412" lon="-1.6441194"><ele>179.0</ele><time>2026-04-18T11:36:50.069Z</time></trkpt><trkpt lat="53.2839373" lon="-1.6439614"><ele>177.0</ele><time>2026-04-18T11:36:52.071Z</time></trkpt><trkpt lat="53.2839195" lon="-1.6437921"><ele>175.0</ele><time>2026-04-18T11:36:54.069Z</time></trkpt><trkpt lat="53.2839247" lon="-1.6436336"><ele>173.0</ele><time>2026-04-18T11:36:56.07Z</time></trkpt><trkpt lat="53.2839594" lon="-1.6435037"><ele>171.4</ele><time>2026-04-18T11:36:58.069Z</time></trkpt><trkpt lat="53.2839785" lon="-1.6433242"><ele>169.8</ele><time>2026-04-18T11:37:00.068Z</time></trkpt><trkpt lat="53.2839898" lon="-1.6431634"><ele>168.2</ele><time>2026-04-18T11:37:02.069Z</time></trkpt><trkpt lat="53.283985" lon="-1.6430294"><ele>166.6</ele><time>2026-04-18T11:37:11.068Z</time></trkpt><trkpt lat="53.2840104" lon="-1.6428746"><ele>165.0</ele><time>2026-04-18T11:37:13.067Z</time></trkpt><trkpt lat="53.2840658" lon="-1.6427235"><ele>163.66666666666666</ele><time>2026-04-18T11:37:15.069Z</time></trkpt><trkpt lat="53.2840812" lon="-1.6425611"><ele>162.33333333333334</ele><time>2026-04-18T11:37:17.069Z</time></trkpt><trkpt lat="53.2840584" lon="-1.6424183"><ele>161.0</ele><time>2026-04-18T11:37:19.067Z</time></trkpt><trkpt lat="53.2840493" lon="-1.6423069"><ele>159.66666666666669</ele><time>2026-04-18T11:37:25.069Z</time></trkpt><trkpt lat="53.2840359" lon="-1.6424883"><ele>158.33333333333334</ele><time>2026-04-18T11:37:29.066Z</time></trkpt><trkpt lat="53.2840309" lon="-1.6426012"><ele>157.0</ele><time>2026-04-18T11:37:30.071Z</time></trkpt><trkpt lat="53.2840268" lon="-1.6427194"><ele>157.4</ele><time>2026-04-18T11:37:31.068Z</time></trkpt><trkpt lat="53.2840028" lon="-1.6428609"><ele>157.79999999999998</ele><time>2026-04-18T11:37:32.066Z</time></trkpt><trkpt lat="53.2839733" lon="-1.6430106"><ele>158.2</ele><time>2026-04-18T11:37:33.07Z</time></trkpt><trkpt lat="53.2839458" lon="-1.6431752"><ele>158.6</ele><time>2026-04-18T11:37:34.071Z</time></trkpt><trkpt lat="53.2839277" lon="-1.6433553"><ele>159.0</ele><time>2026-04-18T11:37:35.069Z</time></trkpt><trkpt lat="53.2839174" lon="-1.6435401"><ele>160.6</ele><time>2026-04-18T11:37:36.067Z</time></trkpt><trkpt lat="53.283903" lon="-1.6437009"><ele>162.2</ele><time>2026-04-18T11:37:37.068Z</time></trkpt><trkpt lat="53.2838867" lon="-1.6438565"><ele>163.79999999999998</ele><time>2026-04-18T11:37:38.066Z</time></trkpt><trkpt lat="53.2838734" lon="-1.6440152"><ele>165.4</ele><time>2026-04-18T11:37:39.067Z</time></trkpt><trkpt lat="53.2838751" lon="-1.6441834"><ele>167.0</ele><time>2026-04-18T11:37:40.069Z</time></trkpt><trkpt lat="53.283893" lon="-1.644358"><ele>169.2</ele><time>2026-04-18T11:37:41.067Z</time></trkpt><trkpt lat="53.2839153" lon="-1.6445296"><ele>171.39999999999998</ele><time>2026-04-18T11:37:42.066Z</time></trkpt><trkpt lat="53.2839323" lon="-1.6447047"><ele>173.60000000000002</ele><time>2026-04-18T11:37:43.065Z</time></trkpt><trkpt lat="53.2839425" lon="-1.6448666"><ele>175.8</ele><time>2026-04-18T11:37:44.073Z</time></trkpt><trkpt lat="53.2839561" lon="-1.6450155"><ele>178.0</ele><time>2026-04-18T11:37:45.072Z</time></trkpt><trkpt lat="53.2839807" lon="-1.6451419"><ele>178.83333333333334</ele><time>2026-04-18T11:37:46.069Z</time></trkpt><trkpt lat="53.2840098" lon="-1.6452374"><ele>179.66666666666669</ele><time>2026-04-18T11:37:47.069Z</time></trkpt><trkpt lat="53.2840456" lon="-1.6453993"><ele>180.5</ele><time>2026-04-18T11:37:49.069Z</time></trkpt><trkpt lat="53.2840594" lon="-1.6455389"><ele>181.33333333333334</ele><time>2026-04-18T11:37:51.069Z</time></trkpt><trkpt lat="53.2840712" lon="-1.6456651"><ele>182.16666666666666</ele><time>2026-04-18T11:37:53.073Z</time></trkpt><trkpt lat="53.2840954" lon="-1.6458398"><ele>183.0</ele><time>2026-04-18T11:37:55.07Z</time></trkpt><trkpt lat="53.2841157" lon="-1.6459586"><ele>185.16666666666666</ele><time>2026-04-18T11:37:56.074Z</time></trkpt><trkpt lat="53.2841364" lon="-1.6460909"><ele>187.33333333333331</ele><time>2026-04-18T11:37:57.072Z</time></trkpt><trkpt lat="53.2841656" lon="-1.6462216"><ele>189.5</ele><time>2026-04-18T11:37:58.074Z</time></trkpt><trkpt lat="53.2842001" lon="-1.646353"><ele>191.66666666666666</ele><time>2026-04-18T11:37:59.071Z</time></trkpt><trkpt lat="53.2842264" lon="-1.6464757"><ele>193.83333333333331</ele><time>2026-04-18T11:38:00.071Z</time></trkpt><trkpt lat="53.2842374" lon="-1.6465858"><ele>196.0</ele><time>2026-04-18T11:38:01.07Z</time></trkpt><trkpt lat="53.2842484" lon="-1.6467525"><ele>199.0</ele><time>2026-04-18T11:38:03.072Z</time></trkpt><trkpt lat="53.2843027" lon="-1.6468111"><ele>202.0</ele><time>2026-04-18T11:38:06.066Z</time></trkpt><trkpt lat="53.2842575" lon="-1.6467169"><ele>205.0</ele><time>2026-04-18T11:39:39.066Z</time></trkpt><trkpt lat="53.2842314" lon="-1.6465452"><ele>208.0</ele><time>2026-04-18T11:39:41.069Z</time></trkpt><trkpt lat="53.2842266" lon="-1.6463792"><ele>211.0</ele><time>2026-04-18T11:39:43.075Z</time></trkpt><trkpt lat="53.2842106" lon="-1.6461987"><ele>208.0</ele><time>2026-04-18T11:39:45.071Z</time></trkpt><trkpt lat="53.2841976" lon="-1.6460898"><ele>205.0</ele><time>2026-04-18T11:39:46.069Z</time></trkpt><trkpt lat="53.2841348" lon="-1.6458525"><ele>202.0</ele><time>2026-04-18T11:39:48.071Z</time></trkpt><trkpt lat="53.2841117" lon="-1.6456747"><ele>199.0</ele><time>2026-04-18T11:39:50.069Z</time></trkpt><trkpt lat="53.2840838" lon="-1.645496"><ele>196.0</ele><time>2026-04-18T11:39:52.07Z</time></trkpt><trkpt lat="53.2840669" lon="-1.6453338"><ele>193.4</ele><time>2026-04-18T11:39:54.063Z</time></trkpt><trkpt lat="53.2840335" lon="-1.6451715"><ele>190.8</ele><time>2026-04-18T11:39:56.066Z</time></trkpt><trkpt lat="53.2840224" lon="-1.6450208"><ele>188.20000000000002</ele><time>2026-04-18T11:39:58.07Z</time></trkpt><trkpt lat="53.2839878" lon="-1.6448275"><ele>185.60000000000002</ele><time>2026-04-18T11:40:00.071Z</time></trkpt><trkpt lat="53.283971" lon="-1.6446979"><ele>183.0</ele><time>2026-04-18T11:40:01.069Z</time></trkpt><trkpt lat="53.2839617" lon="-1.6445723"><ele>181.33333333333334</ele><time>2026-04-18T11:40:02.07Z</time></trkpt><trkpt lat="53.2839633" lon="-1.644455"><ele>179.66666666666666</ele><time>2026-04-18T11:40:03.071Z</time></trkpt><trkpt lat="53.2839653" lon="-1.6443392"><ele>178.0</ele><time>2026-04-18T11:40:04.07Z</time></trkpt><trkpt lat="53.2839647" lon="-1.6442263"><ele>176.33333333333331</ele><time>2026-04-18T11:40:05.069Z</time></trkpt><trkpt lat="53.2839639" lon="-1.6440191"><ele>174.66666666666666</ele><time>2026-04-18T11:40:07.068Z</time></trkpt><trkpt lat="53.2839595" lon="-1.6439055"><ele>173.0</ele><time>2026-04-18T11:40:08.07Z</time></trkpt><trkpt lat="53.2839532" lon="-1.6437828"><ele>173.0</ele><time>2026-04-18T11:40:09.073Z</time></trkpt><trkpt lat="53.2839573" lon="-1.6436449"><ele>173.0</ele><time>2026-04-18T11:40:10.07Z</time></trkpt><trkpt lat="53.2839782" lon="-1.6435061"><ele>173.0</ele><time>2026-04-18T11:40:11.068Z</time></trkpt><trkpt lat="53.2840047" lon="-1.6433727"><ele>173.0</ele><time>2026-04-18T11:40:12.07Z</time></trkpt><trkpt lat="53.2840168" lon="-1.6432418"><ele>173.0</ele><time>2026-04-18T11:40:13.072Z</time></trkpt><trkpt lat="53.2840184" lon="-1.6431098"><ele>173.0</ele><time>2026-04-18T11:40:14.068Z</time></trkpt><trkpt lat="53.2840194" lon="-1.6429936"><ele>171.4</ele><time>2026-04-18T11:40:15.07Z</time></trkpt><trkpt lat="53.2840295" lon="-1.6428879"><ele>169.8</ele><time>2026-04-18T11:40:16.071Z</time></trkpt><trkpt lat="53.2840746" lon="-1.6426901"><ele>168.2</ele><time>2026-04-18T11:40:18.071Z</time></trkpt><trkpt lat="53.2840952" lon="-1.6425218"><ele>166.6</ele><time>2026-04-18T11:40:20.071Z</time></trkpt><trkpt lat="53.2840886" lon="-1.6423866"><ele>165.0</ele><time>2026-04-18T11:40:23.071Z</time></trkpt><trkpt lat="53.2841836" lon="-1.6423346"><ele>163.0</ele><time>2026-04-18T11:40:26.072Z</time></trkpt><trkpt lat="53.2842687" lon="-1.6423407"><ele>161.0</ele><time>2026-04-18T11:40:27.07Z</time></trkpt><trkpt lat="53.2843916" lon="-1.6423561"><ele>159.0</ele><time>2026-04-18T11:40:28.072Z</time></trkpt><trkpt lat="53.2845612" lon="-1.6423715"><ele>157.0</ele><time>2026-04-18T11:40:29.07Z</time></trkpt><trkpt lat="53.2847717" lon="-1.6423699"><ele>155.0</ele><time>2026-04-18T11:40:30.072Z</time></trkpt><trkpt lat="53.2850127" lon="-1.6423693"><ele>153.0</ele><time>2026-04-18T11:40:31.071Z</time></trkpt><trkpt lat="53.2852707" lon="-1.6423682"><ele>153.0</ele><time>2026-04-18T11:40:32.075Z</time></trkpt><trkpt lat="53.2855317" lon="-1.6423867"><ele>153.0</ele><time>2026-04-18T11:40:33.073Z</time></trkpt><trkpt lat="53.2857809" lon="-1.6424286"><ele>153.66666666666666</ele><time>2026-04-18T11:40:34.073Z</time></trkpt><trkpt lat="53.2860001" lon="-1.6424874"><ele>154.33333333333331</ele><time>2026-04-18T11:40:35.072Z</time></trkpt><trkpt lat="53.2861889" lon="-1.6425756"><ele>155.0</ele><time>2026-04-18T11:40:36.073Z</time></trkpt><trkpt lat="53.2863528" lon="-1.6426447"><ele>155.66666666666666</ele><time>2026-04-18T11:40:37.075Z</time></trkpt><trkpt lat="53.2865067" lon="-1.6426667"><ele>156.33333333333334</ele><time>2026-04-18T11:40:38.067Z</time></trkpt><trkpt lat="53.2866581" lon="-1.6426487"><ele>157.0</ele><time>2026-04-18T11:40:39.068Z</time></trkpt><trkpt lat="53.2868158" lon="-1.6425951"><ele>157.0</ele><time>2026-04-18T11:40:40.068Z</time></trkpt><trkpt lat="53.286987" lon="-1.6425231"><ele>157.0</ele><time>2026-04-18T11:40:41.067Z</time></trkpt><trkpt lat="53.2871666" lon="-1.6424687"><ele>157.0</ele><time>2026-04-18T11:40:42.065Z</time></trkpt><trkpt lat="53.2873667" lon="-1.642419"><ele>158.33333333333334</ele><time>2026-04-18T11:40:43.068Z</time></trkpt><trkpt lat="53.2875776" lon="-1.6423766"><ele>159.66666666666666</ele><time>2026-04-18T11:40:44.066Z</time></trkpt><trkpt lat="53.287792" lon="-1.642342"><ele>161.0</ele><time>2026-04-18T11:40:45.064Z</time></trkpt><trkpt lat="53.2879915" lon="-1.6423276"><ele>163.0</ele><time>2026-04-18T11:40:46.066Z</time></trkpt><trkpt lat="53.2881864" lon="-1.6423116"><ele>165.0</ele><time>2026-04-18T11:40:47.064Z</time></trkpt><trkpt lat="53.2883726" lon="-1.6422867"><ele>167.0</ele><time>2026-04-18T11:40:48.065Z</time></trkpt><trkpt lat="53.2885509" lon="-1.6422582"><ele>167.0</ele><time>2026-04-18T11:40:49.065Z</time></trkpt><trkpt lat="53.2887218" lon="-1.6422104"><ele>167.0</ele><time>2026-04-18T11:40:50.064Z</time></trkpt><trkpt lat="53.2888865" lon="-1.6421311"><ele>167.0</ele><time>2026-04-18T11:40:51.064Z</time></trkpt><trkpt lat="53.2890479" lon="-1.6420221"><ele>165.0</ele><time>2026-04-18T11:40:52.064Z</time></trkpt><trkpt lat="53.2892085" lon="-1.6418977"><ele>163.0</ele><time>2026-04-18T11:40:53.065Z</time></trkpt><trkpt lat="53.2893608" lon="-1.6417719"><ele>161.0</ele><time>2026-04-18T11:40:54.064Z</time></trkpt><trkpt lat="53.2895119" lon="-1.6416508"><ele>161.0</ele><time>2026-04-18T11:40:55.069Z</time></trkpt><trkpt lat="53.2896654" lon="-1.6415265"><ele>161.0</ele><time>2026-04-18T11:40:56.064Z</time></trkpt><trkpt lat="53.2898217" lon="-1.6413986"><ele>161.0</ele><time>2026-04-18T11:40:57.064Z</time></trkpt><trkpt lat="53.2899778" lon="-1.6412494"><ele>158.33333333333331</ele><time>2026-04-18T11:40:58.064Z</time></trkpt><trkpt lat="53.2901316" lon="-1.641075"><ele>155.66666666666666</ele><time>2026-04-18T11:40:59.064Z</time></trkpt><trkpt lat="53.2902817" lon="-1.6408962"><ele>153.0</ele><time>2026-04-18T11:41:00.068Z</time></trkpt><trkpt lat="53.2904197" lon="-1.6407261"><ele>153.0</ele><time>2026-04-18T11:41:01.065Z</time></trkpt><trkpt lat="53.2905468" lon="-1.6405645"><ele>153.0</ele><time>2026-04-18T11:41:02.065Z</time></trkpt><trkpt lat="53.2906647" lon="-1.6404151"><ele>153.0</ele><time>2026-04-18T11:41:03.07Z</time></trkpt><trkpt lat="53.2907725" lon="-1.6402787"><ele>153.0</ele><time>2026-04-18T11:41:04.071Z</time></trkpt><trkpt lat="53.2908731" lon="-1.6401501"><ele>152.25</ele><time>2026-04-18T11:41:05.069Z</time></trkpt><trkpt lat="53.2909693" lon="-1.6400312"><ele>151.5</ele><time>2026-04-18T11:41:06.068Z</time></trkpt><trkpt lat="53.2910641" lon="-1.6399195"><ele>150.75</ele><time>2026-04-18T11:41:07.068Z</time></trkpt><trkpt lat="53.2911573" lon="-1.6398162"><ele>150.0</ele><time>2026-04-18T11:41:08.062Z</time></trkpt><trkpt lat="53.2912414" lon="-1.6397176"><ele>150.0</ele><time>2026-04-18T11:41:09.07Z</time></trkpt><trkpt lat="53.2913252" lon="-1.6396135"><ele>150.0</ele><time>2026-04-18T11:41:10.062Z</time></trkpt><trkpt lat="53.2914144" lon="-1.6394972"><ele>150.0</ele><time>2026-04-18T11:41:11.066Z</time></trkpt><trkpt lat="53.2915079" lon="-1.6393701"><ele>150.0</ele><time>2026-04-18T11:41:12.071Z</time></trkpt><trkpt lat="53.2916004" lon="-1.6392361"><ele>148.5</ele><time>2026-04-18T11:41:13.071Z</time></trkpt><trkpt lat="53.2916916" lon="-1.6391013"><ele>147.0</ele><time>2026-04-18T11:41:14.074Z</time></trkpt><trkpt lat="53.2917755" lon="-1.6389712"><ele>145.5</ele><time>2026-04-18T11:41:15.07Z</time></trkpt><trkpt lat="53.2918525" lon="-1.6388521"><ele>144.0</ele><time>2026-04-18T11:41:16.07Z</time></trkpt><trkpt lat="53.2919409" lon="-1.6387457"><ele>144.0</ele><time>2026-04-18T11:41:17.07Z</time></trkpt><trkpt lat="53.2920417" lon="-1.6386499"><ele>144.0</ele><time>2026-04-18T11:41:18.069Z</time></trkpt><trkpt lat="53.2921561" lon="-1.63857"><ele>144.0</ele><time>2026-04-18T11:41:19.07Z</time></trkpt><trkpt lat="53.2922764" lon="-1.6384926"><ele>144.0</ele><time>2026-04-18T11:41:20.07Z</time></trkpt><trkpt lat="53.2923958" lon="-1.6384201"><ele>143.25</ele><time>2026-04-18T11:41:21.069Z</time></trkpt><trkpt lat="53.2925156" lon="-1.6383546"><ele>142.5</ele><time>2026-04-18T11:41:22.072Z</time></trkpt><trkpt lat="53.2926332" lon="-1.6382859"><ele>141.75</ele><time>2026-04-18T11:41:23.071Z</time></trkpt><trkpt lat="53.2927447" lon="-1.6382157"><ele>141.0</ele><time>2026-04-18T11:41:24.069Z</time></trkpt><trkpt lat="53.292853" lon="-1.6381488"><ele>141.0</ele><time>2026-04-18T11:41:25.069Z</time></trkpt><trkpt lat="53.2929617" lon="-1.6380794"><ele>141.0</ele><time>2026-04-18T11:41:26.07Z</time></trkpt><trkpt lat="53.2930689" lon="-1.6380053"><ele>141.0</ele><time>2026-04-18T11:41:27.067Z</time></trkpt><trkpt lat="53.2931812" lon="-1.6379262"><ele>141.0</ele><time>2026-04-18T11:41:28.068Z</time></trkpt><trkpt lat="53.2932918" lon="-1.6378431"><ele>140.25</ele><time>2026-04-18T11:41:29.068Z</time></trkpt><trkpt lat="53.2934032" lon="-1.6377592"><ele>139.5</ele><time>2026-04-18T11:41:30.071Z</time></trkpt><trkpt lat="53.2935177" lon="-1.6376834"><ele>138.75</ele><time>2026-04-18T11:41:31.07Z</time></trkpt><trkpt lat="53.2936276" lon="-1.637615"><ele>138.0</ele><time>2026-04-18T11:41:32.071Z</time></trkpt><trkpt lat="53.2937282" lon="-1.6375489"><ele>138.0</ele><time>2026-04-18T11:41:33.075Z</time></trkpt><trkpt lat="53.2938283" lon="-1.6374819"><ele>138.0</ele><time>2026-04-18T11:41:34.073Z</time></trkpt><trkpt lat="53.293933" lon="-1.6374183"><ele>138.0</ele><time>2026-04-18T11:41:35.074Z</time></trkpt><trkpt lat="53.2940341" lon="-1.6373623"><ele>138.0</ele><time>2026-04-18T11:41:36.073Z</time></trkpt><trkpt lat="53.2941291" lon="-1.6373205"><ele>138.0</ele><time>2026-04-18T11:41:37.072Z</time></trkpt><trkpt lat="53.2942193" lon="-1.6372883"><ele>138.5</ele><time>2026-04-18T11:41:38.071Z</time></trkpt><trkpt lat="53.294306" lon="-1.6372611"><ele>139.0</ele><time>2026-04-18T11:41:39.072Z</time></trkpt><trkpt lat="53.2943924" lon="-1.6372353"><ele>139.5</ele><time>2026-04-18T11:41:40.074Z</time></trkpt><trkpt lat="53.2944806" lon="-1.6372041"><ele>140.0</ele><time>2026-04-18T11:41:41.072Z</time></trkpt><trkpt lat="53.2945674" lon="-1.6371669"><ele>140.5</ele><time>2026-04-18T11:41:42.072Z</time></trkpt><trkpt lat="53.2946487" lon="-1.6371204"><ele>141.0</ele><time>2026-04-18T11:41:43.076Z</time></trkpt><trkpt lat="53.2947261" lon="-1.6370642"><ele>141.42857142857144</ele><time>2026-04-18T11:41:44.072Z</time></trkpt><trkpt lat="53.2947943" lon="-1.6370018"><ele>141.85714285714286</ele><time>2026-04-18T11:41:45.07Z</time></trkpt><trkpt lat="53.2948602" lon="-1.6369333"><ele>142.28571428571428</ele><time>2026-04-18T11:41:46.07Z</time></trkpt><trkpt lat="53.2949231" lon="-1.6368654"><ele>142.71428571428572</ele><time>2026-04-18T11:41:47.07Z</time></trkpt><trkpt lat="53.2949839" lon="-1.6367954"><ele>143.14285714285714</ele><time>2026-04-18T11:41:48.072Z</time></trkpt><trkpt lat="53.2950421" lon="-1.6367221"><ele>143.57142857142858</ele><time>2026-04-18T11:41:49.07Z</time></trkpt><trkpt lat="53.2950976" lon="-1.6366516"><ele>144.0</ele><time>2026-04-18T11:41:50.07Z</time></trkpt><trkpt lat="53.2951475" lon="-1.636587"><ele>142.8</ele><time>2026-04-18T11:41:51.068Z</time></trkpt><trkpt lat="53.2952455" lon="-1.6364831"><ele>141.60000000000002</ele><time>2026-04-18T11:41:53.074Z</time></trkpt><trkpt lat="53.2953423" lon="-1.6363836"><ele>140.4</ele><time>2026-04-18T11:41:55.07Z</time></trkpt><trkpt lat="53.2953962" lon="-1.6363237"><ele>139.20000000000002</ele><time>2026-04-18T11:41:56.061Z</time></trkpt><trkpt lat="53.295457" lon="-1.636249"><ele>138.0</ele><time>2026-04-18T11:41:57.072Z</time></trkpt><trkpt lat="53.2955211" lon="-1.6361566"><ele>137.6</ele><time>2026-04-18T11:41:58.07Z</time></trkpt><trkpt lat="53.2955941" lon="-1.6360489"><ele>137.20000000000002</ele><time>2026-04-18T11:41:59.071Z</time></trkpt><trkpt lat="53.2956715" lon="-1.6359356"><ele>136.8</ele><time>2026-04-18T11:42:00.068Z</time></trkpt><trkpt lat="53.2957512" lon="-1.635829"><ele>136.4</ele><time>2026-04-18T11:42:01.072Z</time></trkpt><trkpt lat="53.2958277" lon="-1.6357316"><ele>136.0</ele><time>2026-04-18T11:42:02.075Z</time></trkpt><trkpt lat="53.2958996" lon="-1.6356459"><ele>136.0</ele><time>2026-04-18T11:42:03.074Z</time></trkpt><trkpt lat="53.2959732" lon="-1.6355711"><ele>136.0</ele><time>2026-04-18T11:42:04.071Z</time></trkpt><trkpt lat="53.2960484" lon="-1.6355004"><ele>136.0</ele><time>2026-04-18T11:42:05.068Z</time></trkpt><trkpt lat="53.2961192" lon="-1.6354338"><ele>136.0</ele><time>2026-04-18T11:42:06.071Z</time></trkpt><trkpt lat="53.2961864" lon="-1.6353685"><ele>136.0</ele><time>2026-04-18T11:42:07.069Z</time></trkpt><trkpt lat="53.2962494" lon="-1.6353027"><ele>136.0</ele><time>2026-04-18T11:42:08.072Z</time></trkpt><trkpt lat="53.2963144" lon="-1.6352429"><ele>135.33333333333334</ele><time>2026-04-18T11:42:09.07Z</time></trkpt><trkpt lat="53.296378" lon="-1.6351882"><ele>134.66666666666669</ele><time>2026-04-18T11:42:10.07Z</time></trkpt><trkpt lat="53.2964354" lon="-1.6351225"><ele>134.0</ele><time>2026-04-18T11:42:11.075Z</time></trkpt><trkpt lat="53.2964901" lon="-1.6350457"><ele>133.33333333333334</ele><time>2026-04-18T11:42:12.072Z</time></trkpt><trkpt lat="53.2965454" lon="-1.6349633"><ele>132.66666666666666</ele><time>2026-04-18T11:42:13.064Z</time></trkpt><trkpt lat="53.2966017" lon="-1.6348686"><ele>132.0</ele><time>2026-04-18T11:42:14.075Z</time></trkpt><trkpt lat="53.2966559" lon="-1.6347573"><ele>132.0</ele><time>2026-04-18T11:42:15.076Z</time></trkpt><trkpt lat="53.2967063" lon="-1.6346391"><ele>132.0</ele><time>2026-04-18T11:42:16.075Z</time></trkpt><trkpt lat="53.2967411" lon="-1.6345215"><ele>132.0</ele><time>2026-04-18T11:42:17.074Z</time></trkpt><trkpt lat="53.2967567" lon="-1.6344055"><ele>132.0</ele><time>2026-04-18T11:42:18.077Z</time></trkpt><trkpt lat="53.296761" lon="-1.634291"><ele>132.0</ele><time>2026-04-18T11:42:19.073Z</time></trkpt><trkpt lat="53.2967567" lon="-1.6341835"><ele>132.0</ele><time>2026-04-18T11:42:20.076Z</time></trkpt><trkpt lat="53.2967523" lon="-1.6340764"><ele>132.0</ele><time>2026-04-18T11:42:21.073Z</time></trkpt><trkpt lat="53.2967577" lon="-1.6339622"><ele>131.83333333333334</ele><time>2026-04-18T11:42:22.072Z</time></trkpt><trkpt lat="53.2967795" lon="-1.6338547"><ele>131.66666666666666</ele><time>2026-04-18T11:42:23.068Z</time></trkpt><trkpt lat="53.2968261" lon="-1.6337608"><ele>131.5</ele><time>2026-04-18T11:42:24.072Z</time></trkpt><trkpt lat="53.2968897" lon="-1.6336787"><ele>131.33333333333331</ele><time>2026-04-18T11:42:25.073Z</time></trkpt><trkpt lat="53.2969614" lon="-1.6336138"><ele>131.16666666666666</ele><time>2026-04-18T11:42:26.072Z</time></trkpt><trkpt lat="53.297036" lon="-1.6335617"><ele>131.0</ele><time>2026-04-18T11:42:27.073Z</time></trkpt><trkpt lat="53.2971063" lon="-1.6335241"><ele>131.0</ele><time>2026-04-18T11:42:28.066Z</time></trkpt><trkpt lat="53.2971756" lon="-1.6334965"><ele>131.0</ele><time>2026-04-18T11:42:29.075Z</time></trkpt><trkpt lat="53.2972419" lon="-1.6334744"><ele>131.0</ele><time>2026-04-18T11:42:30.074Z</time></trkpt><trkpt lat="53.2973117" lon="-1.63346"><ele>131.0</ele><time>2026-04-18T11:42:31.07Z</time></trkpt><trkpt lat="53.2973805" lon="-1.6334408"><ele>131.0</ele><time>2026-04-18T11:42:32.069Z</time></trkpt><trkpt lat="53.29745" lon="-1.6334174"><ele>131.0</ele><time>2026-04-18T11:42:33.073Z</time></trkpt><trkpt lat="53.2975208" lon="-1.6333853"><ele>131.0</ele><time>2026-04-18T11:42:34.073Z</time></trkpt><trkpt lat="53.297589" lon="-1.6333389"><ele>131.5</ele><time>2026-04-18T11:42:35.071Z</time></trkpt><trkpt lat="53.2976547" lon="-1.6332797"><ele>132.0</ele><time>2026-04-18T11:42:36.069Z</time></trkpt><trkpt lat="53.2977142" lon="-1.6332045"><ele>132.5</ele><time>2026-04-18T11:42:37.071Z</time></trkpt><trkpt lat="53.2977623" lon="-1.6331124"><ele>133.0</ele><time>2026-04-18T11:42:38.07Z</time></trkpt><trkpt lat="53.2978035" lon="-1.6330019"><ele>133.5</ele><time>2026-04-18T11:42:39.07Z</time></trkpt><trkpt lat="53.2978375" lon="-1.6328813"><ele>134.0</ele><time>2026-04-18T11:42:40.071Z</time></trkpt><trkpt lat="53.2978643" lon="-1.6327518"><ele>134.6</ele><time>2026-04-18T11:42:41.072Z</time></trkpt><trkpt lat="53.2978832" lon="-1.6326189"><ele>135.2</ele><time>2026-04-18T11:42:42.073Z</time></trkpt><trkpt lat="53.2979004" lon="-1.6324698"><ele>135.79999999999998</ele><time>2026-04-18T11:42:43.066Z</time></trkpt><trkpt lat="53.2979244" lon="-1.6323138"><ele>136.4</ele><time>2026-04-18T11:42:44.062Z</time></trkpt><trkpt lat="53.29796" lon="-1.6321564"><ele>137.0</ele><time>2026-04-18T11:42:45.067Z</time></trkpt><trkpt lat="53.298014" lon="-1.6320093"><ele>137.2</ele><time>2026-04-18T11:42:46.073Z</time></trkpt><trkpt lat="53.2980783" lon="-1.6318839"><ele>137.39999999999998</ele><time>2026-04-18T11:42:47.076Z</time></trkpt><trkpt lat="53.2981424" lon="-1.6317738"><ele>137.60000000000002</ele><time>2026-04-18T11:42:48.071Z</time></trkpt><trkpt lat="53.2982051" lon="-1.6316733"><ele>137.8</ele><time>2026-04-18T11:42:49.07Z</time></trkpt><trkpt lat="53.2982702" lon="-1.6315625"><ele>138.0</ele><time>2026-04-18T11:42:50.072Z</time></trkpt><trkpt lat="53.2983265" lon="-1.6314465"><ele>138.0</ele><time>2026-04-18T11:42:51.073Z</time></trkpt><trkpt lat="53.2983898" lon="-1.631324"><ele>138.0</ele><time>2026-04-18T11:42:52.074Z</time></trkpt><trkpt lat="53.2984503" lon="-1.6311851"><ele>138.0</ele><time>2026-04-18T11:42:53.076Z</time></trkpt><trkpt lat="53.298507" lon="-1.6310298"><ele>138.0</ele><time>2026-04-18T11:42:54.075Z</time></trkpt><trkpt lat="53.2985599" lon="-1.6308531"><ele>138.0</ele><time>2026-04-18T11:42:55.074Z</time></trkpt><trkpt lat="53.2986212" lon="-1.6306614"><ele>139.5</ele><time>2026-04-18T11:42:56.075Z</time></trkpt><trkpt lat="53.2986849" lon="-1.6304627"><ele>141.0</ele><time>2026-04-18T11:42:57.074Z</time></trkpt><trkpt lat="53.2987508" lon="-1.6302674"><ele>142.5</ele><time>2026-04-18T11:42:58.076Z</time></trkpt><trkpt lat="53.2988204" lon="-1.6300746"><ele>144.0</ele><time>2026-04-18T11:42:59.077Z</time></trkpt><trkpt lat="53.2988922" lon="-1.6298827"><ele>145.75</ele><time>2026-04-18T11:43:00.077Z</time></trkpt><trkpt lat="53.298974" lon="-1.6296891"><ele>147.5</ele><time>2026-04-18T11:43:01.071Z</time></trkpt><trkpt lat="53.2990662" lon="-1.6295043"><ele>149.25</ele><time>2026-04-18T11:43:02.072Z</time></trkpt><trkpt lat="53.2991744" lon="-1.6293332"><ele>151.0</ele><time>2026-04-18T11:43:03.075Z</time></trkpt><trkpt lat="53.2992814" lon="-1.6291782"><ele>152.25</ele><time>2026-04-18T11:43:04.071Z</time></trkpt><trkpt lat="53.2993901" lon="-1.6290343"><ele>153.5</ele><time>2026-04-18T11:43:05.068Z</time></trkpt><trkpt lat="53.2995081" lon="-1.6289069"><ele>154.75</ele><time>2026-04-18T11:43:06.069Z</time></trkpt><trkpt lat="53.2996221" lon="-1.6287884"><ele>156.0</ele><time>2026-04-18T11:43:07.069Z</time></trkpt><trkpt lat="53.2997352" lon="-1.6286818"><ele>158.5</ele><time>2026-04-18T11:43:08.07Z</time></trkpt><trkpt lat="53.2998433" lon="-1.6285851"><ele>161.0</ele><time>2026-04-18T11:43:09.069Z</time></trkpt><trkpt lat="53.2999549" lon="-1.6285059"><ele>163.5</ele><time>2026-04-18T11:43:10.069Z</time></trkpt><trkpt lat="53.3000796" lon="-1.6284515"><ele>166.0</ele><time>2026-04-18T11:43:11.07Z</time></trkpt><trkpt lat="53.3002103" lon="-1.62843"><ele>166.0</ele><time>2026-04-18T11:43:12.071Z</time></trkpt><trkpt lat="53.3003414" lon="-1.6284501"><ele>166.0</ele><time>2026-04-18T11:43:13.074Z</time></trkpt><trkpt lat="53.3004644" lon="-1.6284854"><ele>166.0</ele><time>2026-04-18T11:43:14.066Z</time></trkpt><trkpt lat="53.3005839" lon="-1.6285022"><ele>166.0</ele><time>2026-04-18T11:43:15.065Z</time></trkpt><trkpt lat="53.3007046" lon="-1.6285062"><ele>167.0</ele><time>2026-04-18T11:43:16.07Z</time></trkpt><trkpt lat="53.3008246" lon="-1.6285106"><ele>168.0</ele><time>2026-04-18T11:43:17.071Z</time></trkpt><trkpt lat="53.3009446" lon="-1.628516"><ele>169.0</ele><time>2026-04-18T11:43:18.071Z</time></trkpt><trkpt lat="53.3010577" lon="-1.628508"><ele>170.0</ele><time>2026-04-18T11:43:19.07Z</time></trkpt><trkpt lat="53.3011501" lon="-1.6284866"><ele>171.0</ele><time>2026-04-18T11:43:20.071Z</time></trkpt><trkpt lat="53.3012304" lon="-1.6284525"><ele>171.0</ele><time>2026-04-18T11:43:21.07Z</time></trkpt><trkpt lat="53.3013034" lon="-1.628415"><ele>171.0</ele><time>2026-04-18T11:43:22.071Z</time></trkpt><trkpt lat="53.3013788" lon="-1.6283701"><ele>171.0</ele><time>2026-04-18T11:43:23.074Z</time></trkpt><trkpt lat="53.3014559" lon="-1.6283123"><ele>171.0</ele><time>2026-04-18T11:43:24.071Z</time></trkpt><trkpt lat="53.30153" lon="-1.6282508"><ele>171.0</ele><time>2026-04-18T11:43:25.072Z</time></trkpt><trkpt lat="53.3015962" lon="-1.628186"><ele>171.0</ele><time>2026-04-18T11:43:26.072Z</time></trkpt><trkpt lat="53.3016557" lon="-1.6281154"><ele>172.0</ele><time>2026-04-18T11:43:27.068Z</time></trkpt><trkpt lat="53.3017132" lon="-1.6280484"><ele>173.0</ele><time>2026-04-18T11:43:28.07Z</time></trkpt><trkpt lat="53.3017709" lon="-1.6279842"><ele>174.0</ele><time>2026-04-18T11:43:29.072Z</time></trkpt><trkpt lat="53.3018887" lon="-1.6278715"><ele>175.0</ele><time>2026-04-18T11:43:31.067Z</time></trkpt><trkpt lat="53.301966" lon="-1.627796"><ele>176.0</ele><time>2026-04-18T11:43:32.065Z</time></trkpt><trkpt lat="53.3020495" lon="-1.6276939"><ele>176.75</ele><time>2026-04-18T11:43:33.07Z</time></trkpt><trkpt lat="53.3021331" lon="-1.6275623"><ele>177.5</ele><time>2026-04-18T11:43:34.071Z</time></trkpt><trkpt lat="53.3022189" lon="-1.6273936"><ele>178.25</ele><time>2026-04-18T11:43:35.069Z</time></trkpt><trkpt lat="53.3023076" lon="-1.6271949"><ele>179.0</ele><time>2026-04-18T11:43:36.06Z</time></trkpt><trkpt lat="53.3024023" lon="-1.6270148"><ele>181.25</ele><time>2026-04-18T11:43:37.07Z</time></trkpt><trkpt lat="53.3024914" lon="-1.6268543"><ele>183.5</ele><time>2026-04-18T11:43:38.07Z</time></trkpt><trkpt lat="53.3025659" lon="-1.6267002"><ele>185.75</ele><time>2026-04-18T11:43:39.07Z</time></trkpt><trkpt lat="53.3026245" lon="-1.6265536"><ele>188.0</ele><time>2026-04-18T11:43:40.073Z</time></trkpt><trkpt lat="53.3026843" lon="-1.6264086"><ele>188.0</ele><time>2026-04-18T11:43:41.073Z</time></trkpt><trkpt lat="53.3027584" lon="-1.6262587"><ele>188.0</ele><time>2026-04-18T11:43:42.071Z</time></trkpt><trkpt lat="53.3028492" lon="-1.6261119"><ele>188.0</ele><time>2026-04-18T11:43:43.077Z</time></trkpt><trkpt lat="53.3029502" lon="-1.6259763"><ele>188.0</ele><time>2026-04-18T11:43:44.074Z</time></trkpt><trkpt lat="53.3030488" lon="-1.6258546"><ele>189.0</ele><time>2026-04-18T11:43:45.075Z</time></trkpt><trkpt lat="53.3031568" lon="-1.6257374"><ele>190.0</ele><time>2026-04-18T11:43:46.077Z</time></trkpt><trkpt lat="53.3032662" lon="-1.6256305"><ele>191.0</ele><time>2026-04-18T11:43:47.073Z</time></trkpt><trkpt lat="53.3033855" lon="-1.6255376"><ele>192.0</ele><time>2026-04-18T11:43:48.074Z</time></trkpt><trkpt lat="53.303505" lon="-1.6254683"><ele>192.0</ele><time>2026-04-18T11:43:49.074Z</time></trkpt><trkpt lat="53.3036247" lon="-1.6253998"><ele>192.0</ele><time>2026-04-18T11:43:50.074Z</time></trkpt><trkpt lat="53.3037414" lon="-1.6253228"><ele>192.0</ele><time>2026-04-18T11:43:51.075Z</time></trkpt><trkpt lat="53.3038509" lon="-1.6252274"><ele>192.0</ele><time>2026-04-18T11:43:52.071Z</time></trkpt><trkpt lat="53.3039491" lon="-1.6250973"><ele>192.25</ele><time>2026-04-18T11:43:53.076Z</time></trkpt><trkpt lat="53.3040278" lon="-1.6249257"><ele>192.5</ele><time>2026-04-18T11:43:54.074Z</time></trkpt><trkpt lat="53.3040999" lon="-1.6247137"><ele>192.75</ele><time>2026-04-18T11:43:55.075Z</time></trkpt><trkpt lat="53.3041739" lon="-1.6244918"><ele>193.0</ele><time>2026-04-18T11:43:56.075Z</time></trkpt><trkpt lat="53.3042492" lon="-1.6242787"><ele>196.0</ele><time>2026-04-18T11:43:57.063Z</time></trkpt><trkpt lat="53.304318" lon="-1.6240772"><ele>199.0</ele><time>2026-04-18T11:43:58.071Z</time></trkpt><trkpt lat="53.304383" lon="-1.623887"><ele>202.0</ele><time>2026-04-18T11:43:59.073Z</time></trkpt><trkpt lat="53.3044494" lon="-1.6236948"><ele>205.0</ele><time>2026-04-18T11:44:00.071Z</time></trkpt><trkpt lat="53.3045234" lon="-1.6235087"><ele>203.75</ele><time>2026-04-18T11:44:01.067Z</time></trkpt><trkpt lat="53.3046146" lon="-1.6233318"><ele>202.5</ele><time>2026-04-18T11:44:02.065Z</time></trkpt><trkpt lat="53.3047244" lon="-1.6231855"><ele>201.25</ele><time>2026-04-18T11:44:03.07Z</time></trkpt><trkpt lat="53.3048619" lon="-1.6230826"><ele>200.0</ele><time>2026-04-18T11:44:04.067Z</time></trkpt><trkpt lat="53.3050212" lon="-1.6230199"><ele>200.0</ele><time>2026-04-18T11:44:05.066Z</time></trkpt><trkpt lat="53.3051978" lon="-1.6229569"><ele>200.0</ele><time>2026-04-18T11:44:06.066Z</time></trkpt><trkpt lat="53.3053764" lon="-1.622874"><ele>200.0</ele><time>2026-04-18T11:44:07.069Z</time></trkpt><trkpt lat="53.3055725" lon="-1.6227722"><ele>204.66666666666669</ele><time>2026-04-18T11:44:08.065Z</time></trkpt><trkpt lat="53.3057681" lon="-1.6226583"><ele>209.33333333333331</ele><time>2026-04-18T11:44:09.066Z</time></trkpt><trkpt lat="53.3059659" lon="-1.6225414"><ele>214.0</ele><time>2026-04-18T11:44:10.066Z</time></trkpt><trkpt lat="53.3061571" lon="-1.6224282"><ele>214.0</ele><time>2026-04-18T11:44:11.065Z</time></trkpt><trkpt lat="53.3063443" lon="-1.6223154"><ele>214.0</ele><time>2026-04-18T11:44:12.066Z</time></trkpt><trkpt lat="53.3065298" lon="-1.6222055"><ele>214.0</ele><time>2026-04-18T11:44:13.065Z</time></trkpt><trkpt lat="53.3067151" lon="-1.6220989"><ele>212.66666666666666</ele><time>2026-04-18T11:44:14.066Z</time></trkpt><trkpt lat="53.3068981" lon="-1.6219939"><ele>211.33333333333331</ele><time>2026-04-18T11:44:15.066Z</time></trkpt><trkpt lat="53.3070817" lon="-1.6218868"><ele>210.0</ele><time>2026-04-18T11:44:16.064Z</time></trkpt><trkpt lat="53.3072668" lon="-1.6217769"><ele>214.0</ele><time>2026-04-18T11:44:17.063Z</time></trkpt><trkpt lat="53.3074568" lon="-1.6216686"><ele>218.0</ele><time>2026-04-18T11:44:18.065Z</time></trkpt><trkpt lat="53.3076495" lon="-1.6215591"><ele>222.0</ele><time>2026-04-18T11:44:19.064Z</time></trkpt><trkpt lat="53.3078433" lon="-1.6214484"><ele>222.0</ele><time>2026-04-18T11:44:20.067Z</time></trkpt><trkpt lat="53.308044" lon="-1.6213323"><ele>222.0</ele><time>2026-04-18T11:44:21.065Z</time></trkpt><trkpt lat="53.3082564" lon="-1.6212101"><ele>222.0</ele><time>2026-04-18T11:44:22.062Z</time></trkpt><trkpt lat="53.3084806" lon="-1.6210779"><ele>227.5</ele><time>2026-04-18T11:44:23.07Z</time></trkpt><trkpt lat="53.3087141" lon="-1.6209349"><ele>233.0</ele><time>2026-04-18T11:44:24.062Z</time></trkpt><trkpt lat="53.3089436" lon="-1.6207958"><ele>233.0</ele><time>2026-04-18T11:44:25.061Z</time></trkpt><trkpt lat="53.3091514" lon="-1.6206702"><ele>233.0</ele><time>2026-04-18T11:44:26.062Z</time></trkpt><trkpt lat="53.3093361" lon="-1.6205549"><ele>233.0</ele><time>2026-04-18T11:44:27.061Z</time></trkpt><trkpt lat="53.3095067" lon="-1.620444"><ele>233.0</ele><time>2026-04-18T11:44:28.061Z</time></trkpt><trkpt lat="53.3096719" lon="-1.6203325"><ele>233.0</ele><time>2026-04-18T11:44:29.063Z</time></trkpt><trkpt lat="53.3098368" lon="-1.6202231"><ele>233.0</ele><time>2026-04-18T11:44:30.066Z</time></trkpt><trkpt lat="53.3100075" lon="-1.6201018"><ele>235.66666666666669</ele><time>2026-04-18T11:44:31.063Z</time></trkpt><trkpt lat="53.3101781" lon="-1.6199425"><ele>238.33333333333331</ele><time>2026-04-18T11:44:32.061Z</time></trkpt><trkpt lat="53.3103423" lon="-1.6197419"><ele>241.0</ele><time>2026-04-18T11:44:33.066Z</time></trkpt><trkpt lat="53.3104918" lon="-1.6195138"><ele>241.66666666666666</ele><time>2026-04-18T11:44:34.066Z</time></trkpt><trkpt lat="53.3106278" lon="-1.6192761"><ele>242.33333333333331</ele><time>2026-04-18T11:44:35.065Z</time></trkpt><trkpt lat="53.3107566" lon="-1.6190369"><ele>243.0</ele><time>2026-04-18T11:44:36.066Z</time></trkpt><trkpt lat="53.3108824" lon="-1.6188003"><ele>246.0</ele><time>2026-04-18T11:44:37.065Z</time></trkpt><trkpt lat="53.3110058" lon="-1.6185756"><ele>249.0</ele><time>2026-04-18T11:44:38.066Z</time></trkpt><trkpt lat="53.3111318" lon="-1.6183644"><ele>252.0</ele><time>2026-04-18T11:44:39.06Z</time></trkpt><trkpt lat="53.3112655" lon="-1.6181719"><ele>252.66666666666669</ele><time>2026-04-18T11:44:40.065Z</time></trkpt><trkpt lat="53.311413" lon="-1.6179975"><ele>253.33333333333334</ele><time>2026-04-18T11:44:41.068Z</time></trkpt><trkpt lat="53.3115774" lon="-1.6178436"><ele>254.0</ele><time>2026-04-18T11:44:42.069Z</time></trkpt><trkpt lat="53.3117522" lon="-1.6176895"><ele>254.0</ele><time>2026-04-18T11:44:43.074Z</time></trkpt><trkpt lat="53.3119191" lon="-1.617531"><ele>254.0</ele><time>2026-04-18T11:44:44.073Z</time></trkpt><trkpt lat="53.3120709" lon="-1.61736"><ele>254.0</ele><time>2026-04-18T11:44:45.072Z</time></trkpt><trkpt lat="53.3121927" lon="-1.6171677"><ele>257.0</ele><time>2026-04-18T11:44:46.071Z</time></trkpt><trkpt lat="53.31228" lon="-1.6169631"><ele>260.0</ele><time>2026-04-18T11:44:47.071Z</time></trkpt><trkpt lat="53.3123723" lon="-1.6167222"><ele>263.0</ele><time>2026-04-18T11:44:48.071Z</time></trkpt><trkpt lat="53.3124855" lon="-1.6165022"><ele>263.0</ele><time>2026-04-18T11:44:49.067Z</time></trkpt><trkpt lat="53.3126196" lon="-1.6163086"><ele>263.0</ele><time>2026-04-18T11:44:50.066Z</time></trkpt><trkpt lat="53.3127752" lon="-1.6161463"><ele>263.0</ele><time>2026-04-18T11:44:51.057Z</time></trkpt><trkpt lat="53.3129489" lon="-1.6159994"><ele>266.33333333333337</ele><time>2026-04-18T11:44:52.059Z</time></trkpt><trkpt lat="53.3131351" lon="-1.6158577"><ele>269.6666666666667</ele><time>2026-04-18T11:44:53.069Z</time></trkpt><trkpt lat="53.313333" lon="-1.6157154"><ele>273.0</ele><time>2026-04-18T11:44:54.068Z</time></trkpt><trkpt lat="53.31354" lon="-1.6155768"><ele>273.0</ele><time>2026-04-18T11:44:55.065Z</time></trkpt><trkpt lat="53.3137478" lon="-1.6154568"><ele>273.0</ele><time>2026-04-18T11:44:56.066Z</time></trkpt><trkpt lat="53.3139529" lon="-1.6153695"><ele>273.0</ele><time>2026-04-18T11:44:57.057Z</time></trkpt><trkpt lat="53.3141507" lon="-1.6153296"><ele>273.3333333333333</ele><time>2026-04-18T11:44:58.064Z</time></trkpt><trkpt lat="53.3143283" lon="-1.6153212"><ele>273.66666666666663</ele><time>2026-04-18T11:44:59.061Z</time></trkpt><trkpt lat="53.3144773" lon="-1.6153239"><ele>274.0</ele><time>2026-04-18T11:45:00.067Z</time></trkpt><trkpt lat="53.314603" lon="-1.6153047"><ele>276.75</ele><time>2026-04-18T11:45:01.06Z</time></trkpt><trkpt lat="53.3147135" lon="-1.6152428"><ele>279.5</ele><time>2026-04-18T11:45:02.061Z</time></trkpt><trkpt lat="53.3148265" lon="-1.6151347"><ele>282.25</ele><time>2026-04-18T11:45:03.064Z</time></trkpt><trkpt lat="53.3149608" lon="-1.614995"><ele>285.0</ele><time>2026-04-18T11:45:04.062Z</time></trkpt><trkpt lat="53.315111" lon="-1.614847"><ele>285.0</ele><time>2026-04-18T11:45:05.062Z</time></trkpt><trkpt lat="53.3152557" lon="-1.6147077"><ele>285.0</ele><time>2026-04-18T11:45:06.063Z</time></trkpt><trkpt lat="53.3154046" lon="-1.6145656"><ele>285.0</ele><time>2026-04-18T11:45:07.059Z</time></trkpt><trkpt lat="53.3155584" lon="-1.6144178"><ele>285.6666666666667</ele><time>2026-04-18T11:45:08.063Z</time></trkpt><trkpt lat="53.315717" lon="-1.6142592"><ele>286.33333333333337</ele><time>2026-04-18T11:45:09.067Z</time></trkpt><trkpt lat="53.3158778" lon="-1.6141016"><ele>287.0</ele><time>2026-04-18T11:45:10.068Z</time></trkpt><trkpt lat="53.3160403" lon="-1.613946"><ele>287.0</ele><time>2026-04-18T11:45:11.07Z</time></trkpt><trkpt lat="53.3162026" lon="-1.613785"><ele>287.0</ele><time>2026-04-18T11:45:12.07Z</time></trkpt><trkpt lat="53.3163616" lon="-1.6136207"><ele>287.0</ele><time>2026-04-18T11:45:13.069Z</time></trkpt><trkpt lat="53.316521" lon="-1.613456"><ele>287.33333333333337</ele><time>2026-04-18T11:45:14.068Z</time></trkpt><trkpt lat="53.3166874" lon="-1.6132943"><ele>287.6666666666667</ele><time>2026-04-18T11:45:15.068Z</time></trkpt><trkpt lat="53.3168551" lon="-1.6131401"><ele>288.0</ele><time>2026-04-18T11:45:16.069Z</time></trkpt><trkpt lat="53.3170136" lon="-1.6129851"><ele>288.0</ele><time>2026-04-18T11:45:17.069Z</time></trkpt><trkpt lat="53.3171641" lon="-1.6128314"><ele>288.0</ele><time>2026-04-18T11:45:18.069Z</time></trkpt><trkpt lat="53.3172981" lon="-1.6126862"><ele>288.0</ele><time>2026-04-18T11:45:19.069Z</time></trkpt><trkpt lat="53.3174179" lon="-1.6125525"><ele>289.5</ele><time>2026-04-18T11:45:20.071Z</time></trkpt><trkpt lat="53.317521" lon="-1.6124139"><ele>291.0</ele><time>2026-04-18T11:45:21.07Z</time></trkpt><trkpt lat="53.3175998" lon="-1.6122549"><ele>292.5</ele><time>2026-04-18T11:45:22.06Z</time></trkpt><trkpt lat="53.3176524" lon="-1.6120599"><ele>294.0</ele><time>2026-04-18T11:45:23.067Z</time></trkpt><trkpt lat="53.3176819" lon="-1.6118432"><ele>295.0</ele><time>2026-04-18T11:45:24.059Z</time></trkpt><trkpt lat="53.3176866" lon="-1.6116183"><ele>296.0</ele><time>2026-04-18T11:45:25.07Z</time></trkpt><trkpt lat="53.3176701" lon="-1.611395"><ele>297.0</ele><time>2026-04-18T11:45:26.066Z</time></trkpt><trkpt lat="53.3176275" lon="-1.6111826"><ele>298.0</ele><time>2026-04-18T11:45:27.069Z</time></trkpt><trkpt lat="53.3175825" lon="-1.610967"><ele>298.25</ele><time>2026-04-18T11:45:28.069Z</time></trkpt><trkpt lat="53.3175472" lon="-1.610744"><ele>298.5</ele><time>2026-04-18T11:45:29.069Z</time></trkpt><trkpt lat="53.3175148" lon="-1.6105045"><ele>298.75</ele><time>2026-04-18T11:45:30.071Z</time></trkpt><trkpt lat="53.3174817" lon="-1.6102459"><ele>299.0</ele><time>2026-04-18T11:45:31.068Z</time></trkpt><trkpt lat="53.3174444" lon="-1.6099741"><ele>299.6666666666667</ele><time>2026-04-18T11:45:32.068Z</time></trkpt><trkpt lat="53.3174" lon="-1.6096803"><ele>300.3333333333333</ele><time>2026-04-18T11:45:33.071Z</time></trkpt><trkpt lat="53.317351" lon="-1.6093607"><ele>301.0</ele><time>2026-04-18T11:45:34.067Z</time></trkpt><trkpt lat="53.3173002" lon="-1.6090243"><ele>301.66666666666663</ele><time>2026-04-18T11:45:35.066Z</time></trkpt><trkpt lat="53.3172537" lon="-1.6086895"><ele>302.3333333333333</ele><time>2026-04-18T11:45:36.067Z</time></trkpt><trkpt lat="53.3172113" lon="-1.6083589"><ele>303.0</ele><time>2026-04-18T11:45:37.067Z</time></trkpt><trkpt lat="53.3171669" lon="-1.6080248"><ele>305.0</ele><time>2026-04-18T11:45:38.066Z</time></trkpt><trkpt lat="53.3171198" lon="-1.6076793"><ele>307.0</ele><time>2026-04-18T11:45:39.065Z</time></trkpt><trkpt lat="53.3170728" lon="-1.6073208"><ele>309.0</ele><time>2026-04-18T11:45:40.067Z</time></trkpt><trkpt lat="53.3170305" lon="-1.6069461"><ele>310.5</ele><time>2026-04-18T11:45:41.067Z</time></trkpt><trkpt lat="53.3169996" lon="-1.6065544"><ele>312.0</ele><time>2026-04-18T11:45:42.062Z</time></trkpt><trkpt lat="53.3169844" lon="-1.6061496"><ele>314.0</ele><time>2026-04-18T11:45:43.075Z</time></trkpt><trkpt lat="53.3169909" lon="-1.6057475"><ele>316.0</ele><time>2026-04-18T11:45:44.07Z</time></trkpt><trkpt lat="53.3170221" lon="-1.6053709"><ele>317.3333333333333</ele><time>2026-04-18T11:45:45.072Z</time></trkpt><trkpt lat="53.3170796" lon="-1.6050233"><ele>318.6666666666667</ele><time>2026-04-18T11:45:46.067Z</time></trkpt><trkpt lat="53.317159" lon="-1.6047215"><ele>320.0</ele><time>2026-04-18T11:45:47.07Z</time></trkpt><trkpt lat="53.3172619" lon="-1.6044451"><ele>321.6666666666667</ele><time>2026-04-18T11:45:48.07Z</time></trkpt><trkpt lat="53.3173738" lon="-1.604157"><ele>323.3333333333333</ele><time>2026-04-18T11:45:49.07Z</time></trkpt><trkpt lat="53.3174923" lon="-1.6038765"><ele>325.0</ele><time>2026-04-18T11:45:50.07Z</time></trkpt><trkpt lat="53.3176152" lon="-1.6036227"><ele>328.0</ele><time>2026-04-18T11:45:51.069Z</time></trkpt><trkpt lat="53.3177341" lon="-1.6034184"><ele>331.0</ele><time>2026-04-18T11:45:52.07Z</time></trkpt><trkpt lat="53.3178533" lon="-1.6032685"><ele>334.0</ele><time>2026-04-18T11:45:53.073Z</time></trkpt><trkpt lat="53.317984" lon="-1.6031869"><ele>334.5</ele><time>2026-04-18T11:45:54.069Z</time></trkpt><trkpt lat="53.3181247" lon="-1.6031794"><ele>335.0</ele><time>2026-04-18T11:45:55.067Z</time></trkpt><trkpt lat="53.3182618" lon="-1.6032272"><ele>335.5</ele><time>2026-04-18T11:45:56.064Z</time></trkpt><trkpt lat="53.3184042" lon="-1.6032911"><ele>336.0</ele><time>2026-04-18T11:45:57.067Z</time></trkpt><trkpt lat="53.3185372" lon="-1.6033515"><ele>336.0</ele><time>2026-04-18T11:45:58.073Z</time></trkpt><trkpt lat="53.3186495" lon="-1.6033971"><ele>336.0</ele><time>2026-04-18T11:45:59.067Z</time></trkpt><trkpt lat="53.3187418" lon="-1.6034272"><ele>336.0</ele><time>2026-04-18T11:46:00.067Z</time></trkpt><trkpt lat="53.3188146" lon="-1.6034402"><ele>336.0</ele><time>2026-04-18T11:46:01.065Z</time></trkpt><trkpt lat="53.3189" lon="-1.6034333"><ele>336.0</ele><time>2026-04-18T11:46:03.073Z</time></trkpt><trkpt lat="53.318959" lon="-1.6033823"><ele>336.0</ele><time>2026-04-18T11:46:10.07Z</time></trkpt><trkpt lat="53.3189417" lon="-1.6031669"><ele>336.0</ele><time>2026-04-18T11:46:12.073Z</time></trkpt><trkpt lat="53.3188883" lon="-1.6029781"><ele>336.0</ele><time>2026-04-18T11:46:13.07Z</time></trkpt><trkpt lat="53.3188177" lon="-1.6027677"><ele>336.0</ele><time>2026-04-18T11:46:14.072Z</time></trkpt><trkpt lat="53.318742" lon="-1.6025626"><ele>336.0</ele><time>2026-04-18T11:46:15.071Z</time></trkpt><trkpt lat="53.3186663" lon="-1.6023683"><ele>337.6</ele><time>2026-04-18T11:46:16.069Z</time></trkpt><trkpt lat="53.3185978" lon="-1.6021991"><ele>339.20000000000005</ele><time>2026-04-18T11:46:17.072Z</time></trkpt><trkpt lat="53.3185351" lon="-1.6020389"><ele>340.79999999999995</ele><time>2026-04-18T11:46:18.072Z</time></trkpt><trkpt lat="53.3184715" lon="-1.6018862"><ele>342.4</ele><time>2026-04-18T11:46:19.071Z</time></trkpt><trkpt lat="53.3184303" lon="-1.6017524"><ele>344.0</ele><time>2026-04-18T11:46:20.073Z</time></trkpt><trkpt lat="53.3184059" lon="-1.6016299"><ele>344.6666666666667</ele><time>2026-04-18T11:46:21.073Z</time></trkpt><trkpt lat="53.3184079" lon="-1.6015093"><ele>345.33333333333337</ele><time>2026-04-18T11:46:22.072Z</time></trkpt><trkpt lat="53.3184387" lon="-1.6013909"><ele>346.0</ele><time>2026-04-18T11:46:23.073Z</time></trkpt><trkpt lat="53.3184895" lon="-1.6012837"><ele>346.6666666666667</ele><time>2026-04-18T11:46:24.074Z</time></trkpt><trkpt lat="53.3185457" lon="-1.6011905"><ele>347.3333333333333</ele><time>2026-04-18T11:46:25.073Z</time></trkpt><trkpt lat="53.3186014" lon="-1.6010941"><ele>348.0</ele><time>2026-04-18T11:46:26.068Z</time></trkpt><trkpt lat="53.3186567" lon="-1.6009839"><ele>348.25</ele><time>2026-04-18T11:46:27.069Z</time></trkpt><trkpt lat="53.3187211" lon="-1.6008549"><ele>348.5</ele><time>2026-04-18T11:46:28.07Z</time></trkpt><trkpt lat="53.3187938" lon="-1.6007108"><ele>348.75</ele><time>2026-04-18T11:46:29.072Z</time></trkpt><trkpt lat="53.3188683" lon="-1.6005608"><ele>349.0</ele><time>2026-04-18T11:46:30.07Z</time></trkpt><trkpt lat="53.3189445" lon="-1.6003899"><ele>350.3333333333333</ele><time>2026-04-18T11:46:31.07Z</time></trkpt><trkpt lat="53.3190339" lon="-1.6001736"><ele>351.6666666666667</ele><time>2026-04-18T11:46:32.069Z</time></trkpt><trkpt lat="53.3191441" lon="-1.5999208"><ele>353.0</ele><time>2026-04-18T11:46:33.07Z</time></trkpt><trkpt lat="53.3192768" lon="-1.5996341"><ele>354.0</ele><time>2026-04-18T11:46:34.073Z</time></trkpt><trkpt lat="53.3194163" lon="-1.5993459"><ele>355.0</ele><time>2026-04-18T11:46:35.071Z</time></trkpt><trkpt lat="53.319536" lon="-1.5990801"><ele>356.0</ele><time>2026-04-18T11:46:36.071Z</time></trkpt><trkpt lat="53.3196491" lon="-1.5988469"><ele>358.0</ele><time>2026-04-18T11:46:37.07Z</time></trkpt><trkpt lat="53.3197627" lon="-1.5986104"><ele>360.0</ele><time>2026-04-18T11:46:38.068Z</time></trkpt><trkpt lat="53.3198841" lon="-1.5983561"><ele>362.0</ele><time>2026-04-18T11:46:39.068Z</time></trkpt><trkpt lat="53.320014" lon="-1.5980746"><ele>362.5</ele><time>2026-04-18T11:46:40.07Z</time></trkpt><trkpt lat="53.3201554" lon="-1.5977766"><ele>363.0</ele><time>2026-04-18T11:46:41.07Z</time></trkpt><trkpt lat="53.3202974" lon="-1.5974804"><ele>363.0</ele><time>2026-04-18T11:46:42.073Z</time></trkpt><trkpt lat="53.3204208" lon="-1.5972267"><ele>363.0</ele><time>2026-04-18T11:46:43.077Z</time></trkpt><trkpt lat="53.3205254" lon="-1.5970027"><ele>363.0</ele><time>2026-04-18T11:46:44.069Z</time></trkpt><trkpt lat="53.3206152" lon="-1.5968022"><ele>364.2</ele><time>2026-04-18T11:46:45.072Z</time></trkpt><trkpt lat="53.3206913" lon="-1.596624"><ele>365.4</ele><time>2026-04-18T11:46:46.074Z</time></trkpt><trkpt lat="53.3207476" lon="-1.5964706"><ele>366.59999999999997</ele><time>2026-04-18T11:46:47.074Z</time></trkpt><trkpt lat="53.3207949" lon="-1.5963335"><ele>367.79999999999995</ele><time>2026-04-18T11:46:48.072Z</time></trkpt><trkpt lat="53.3208499" lon="-1.5962022"><ele>369.0</ele><time>2026-04-18T11:46:49.073Z</time></trkpt><trkpt lat="53.3209095" lon="-1.5960798"><ele>369.5</ele><time>2026-04-18T11:46:50.073Z</time></trkpt><trkpt lat="53.3209826" lon="-1.5959565"><ele>370.0</ele><time>2026-04-18T11:46:51.072Z</time></trkpt><trkpt lat="53.3210615" lon="-1.5958144"><ele>370.5</ele><time>2026-04-18T11:46:52.072Z</time></trkpt><trkpt lat="53.3211419" lon="-1.595645"><ele>371.0</ele><time>2026-04-18T11:46:53.075Z</time></trkpt><trkpt lat="53.321226" lon="-1.5954529"><ele>371.6666666666667</ele><time>2026-04-18T11:46:54.072Z</time></trkpt><trkpt lat="53.3213185" lon="-1.5952455"><ele>372.3333333333333</ele><time>2026-04-18T11:46:55.072Z</time></trkpt><trkpt lat="53.3214151" lon="-1.5950421"><ele>373.0</ele><time>2026-04-18T11:46:56.072Z</time></trkpt><trkpt lat="53.3215084" lon="-1.5948434"><ele>374.0</ele><time>2026-04-18T11:46:57.072Z</time></trkpt><trkpt lat="53.3215978" lon="-1.5946478"><ele>375.0</ele><time>2026-04-18T11:46:58.074Z</time></trkpt><trkpt lat="53.3216907" lon="-1.5944638"><ele>376.0</ele><time>2026-04-18T11:46:59.072Z</time></trkpt><trkpt lat="53.3217891" lon="-1.5943009"><ele>377.0</ele><time>2026-04-18T11:47:00.072Z</time></trkpt><trkpt lat="53.3218954" lon="-1.594152"><ele>377.5</ele><time>2026-04-18T11:47:01.07Z</time></trkpt><trkpt lat="53.3220063" lon="-1.5940023"><ele>378.0</ele><time>2026-04-18T11:47:02.072Z</time></trkpt><trkpt lat="53.3221168" lon="-1.59384"><ele>378.5</ele><time>2026-04-18T11:47:03.064Z</time></trkpt><trkpt lat="53.3222223" lon="-1.5936814"><ele>379.0</ele><time>2026-04-18T11:47:04.069Z</time></trkpt><trkpt lat="53.3223194" lon="-1.593539"><ele>380.0</ele><time>2026-04-18T11:47:05.069Z</time></trkpt><trkpt lat="53.3224033" lon="-1.5934138"><ele>381.0</ele><time>2026-04-18T11:47:06.069Z</time></trkpt><trkpt lat="53.3224776" lon="-1.593311"><ele>382.0</ele><time>2026-04-18T11:47:07.071Z</time></trkpt><trkpt lat="53.3225415" lon="-1.593235"><ele>383.0</ele><time>2026-04-18T11:47:08.07Z</time></trkpt><trkpt lat="53.3226341" lon="-1.5931369"><ele>384.0</ele><time>2026-04-18T11:47:10.069Z</time></trkpt><trkpt lat="53.3226946" lon="-1.5930604"><ele>384.0</ele><time>2026-04-18T11:47:12.071Z</time></trkpt><trkpt lat="53.3227425" lon="-1.592985"><ele>384.0</ele><time>2026-04-18T11:47:35.072Z</time></trkpt><trkpt lat="53.3228068" lon="-1.5928422"><ele>384.0</ele><time>2026-04-18T11:48:42.073Z</time></trkpt><trkpt lat="53.3228568" lon="-1.5927158"><ele>384.0</ele><time>2026-04-18T11:48:43.077Z</time></trkpt><trkpt lat="53.3229358" lon="-1.5925741"><ele>384.0</ele><time>2026-04-18T11:48:44.074Z</time></trkpt><trkpt lat="53.3230292" lon="-1.5924249"><ele>385.0</ele><time>2026-04-18T11:48:45.075Z</time></trkpt><trkpt lat="53.3231348" lon="-1.5922604"><ele>386.0</ele><time>2026-04-18T11:48:46.075Z</time></trkpt><trkpt lat="53.3232425" lon="-1.5921078"><ele>387.0</ele><time>2026-04-18T11:48:47.075Z</time></trkpt><trkpt lat="53.323348" lon="-1.591972"><ele>388.0</ele><time>2026-04-18T11:48:48.073Z</time></trkpt><trkpt lat="53.3234446" lon="-1.5918551"><ele>388.33333333333337</ele><time>2026-04-18T11:48:49.075Z</time></trkpt><trkpt lat="53.3235399" lon="-1.5917625"><ele>388.6666666666667</ele><time>2026-04-18T11:48:50.074Z</time></trkpt><trkpt lat="53.3236134" lon="-1.591699"><ele>389.0</ele><time>2026-04-18T11:48:51.075Z</time></trkpt><trkpt lat="53.3236922" lon="-1.5916246"><ele>389.33333333333337</ele><time>2026-04-18T11:48:53.074Z</time></trkpt><trkpt lat="53.3237413" lon="-1.5915461"><ele>389.6666666666667</ele><time>2026-04-18T11:49:12.063Z</time></trkpt><trkpt lat="53.3237974" lon="-1.5914755"><ele>390.0</ele><time>2026-04-18T11:49:21.075Z</time></trkpt><trkpt lat="53.3238526" lon="-1.5914116"><ele>391.2</ele><time>2026-04-18T11:49:22.073Z</time></trkpt><trkpt lat="53.3239285" lon="-1.5913445"><ele>392.4</ele><time>2026-04-18T11:49:23.079Z</time></trkpt><trkpt lat="53.324017" lon="-1.5912633"><ele>393.6</ele><time>2026-04-18T11:49:24.073Z</time></trkpt><trkpt lat="53.3241045" lon="-1.5911823"><ele>394.8</ele><time>2026-04-18T11:49:25.075Z</time></trkpt><trkpt lat="53.3241896" lon="-1.591118"><ele>396.0</ele><time>2026-04-18T11:49:26.074Z</time></trkpt><trkpt lat="53.3242709" lon="-1.5910531"><ele>396.20000000000005</ele><time>2026-04-18T11:49:27.074Z</time></trkpt><trkpt lat="53.3243555" lon="-1.59099"><ele>396.40000000000003</ele><time>2026-04-18T11:49:28.074Z</time></trkpt><trkpt lat="53.3244449" lon="-1.5909371"><ele>396.6</ele><time>2026-04-18T11:49:29.074Z</time></trkpt><trkpt lat="53.3245362" lon="-1.5908875"><ele>396.8</ele><time>2026-04-18T11:49:30.075Z</time></trkpt><trkpt lat="53.3246333" lon="-1.5908401"><ele>397.0</ele><time>2026-04-18T11:49:31.074Z</time></trkpt><trkpt lat="53.3247382" lon="-1.5907853"><ele>398.5</ele><time>2026-04-18T11:49:32.075Z</time></trkpt><trkpt lat="53.3248467" lon="-1.5907165"><ele>400.0</ele><time>2026-04-18T11:49:33.075Z</time></trkpt><trkpt lat="53.3249543" lon="-1.5906382"><ele>401.5</ele><time>2026-04-18T11:49:34.073Z</time></trkpt><trkpt lat="53.3250597" lon="-1.5905602"><ele>403.0</ele><time>2026-04-18T11:49:35.073Z</time></trkpt><trkpt lat="53.3251674" lon="-1.5904747"><ele>403.0</ele><time>2026-04-18T11:49:36.072Z</time></trkpt><trkpt lat="53.3252783" lon="-1.5903784"><ele>403.0</ele><time>2026-04-18T11:49:37.074Z</time></trkpt><trkpt lat="53.325388" lon="-1.5902827"><ele>403.0</ele><time>2026-04-18T11:49:38.073Z</time></trkpt><trkpt lat="53.325504" lon="-1.5901958"><ele>403.0</ele><time>2026-04-18T11:49:39.063Z</time></trkpt><trkpt lat="53.325621" lon="-1.5901278"><ele>405.25</ele><time>2026-04-18T11:49:40.071Z</time></trkpt><trkpt lat="53.3257334" lon="-1.5900717"><ele>407.5</ele><time>2026-04-18T11:49:41.073Z</time></trkpt><trkpt lat="53.3258392" lon="-1.5899897"><ele>409.75</ele><time>2026-04-18T11:49:42.073Z</time></trkpt><trkpt lat="53.3259425" lon="-1.5898808"><ele>412.0</ele><time>2026-04-18T11:49:43.077Z</time></trkpt><trkpt lat="53.326055" lon="-1.5897718"><ele>412.0</ele><time>2026-04-18T11:49:44.074Z</time></trkpt><trkpt lat="53.3261712" lon="-1.5896768"><ele>412.0</ele><time>2026-04-18T11:49:45.074Z</time></trkpt><trkpt lat="53.3262913" lon="-1.5895892"><ele>412.0</ele><time>2026-04-18T11:49:46.074Z</time></trkpt><trkpt lat="53.3264179" lon="-1.5894885"><ele>412.0</ele><time>2026-04-18T11:49:47.075Z</time></trkpt><trkpt lat="53.3265331" lon="-1.589382"><ele>413.75</ele><time>2026-04-18T11:49:48.076Z</time></trkpt><trkpt lat="53.326649" lon="-1.5892884"><ele>415.5</ele><time>2026-04-18T11:49:49.077Z</time></trkpt><trkpt lat="53.326777" lon="-1.5892183"><ele>417.25</ele><time>2026-04-18T11:49:50.074Z</time></trkpt><trkpt lat="53.3269057" lon="-1.5891635"><ele>419.0</ele><time>2026-04-18T11:49:51.074Z</time></trkpt><trkpt lat="53.3270395" lon="-1.5891258"><ele>419.0</ele><time>2026-04-18T11:49:52.074Z</time></trkpt><trkpt lat="53.3271821" lon="-1.5891098"><ele>419.0</ele><time>2026-04-18T11:49:53.077Z</time></trkpt><trkpt lat="53.3273276" lon="-1.5890953"><ele>419.0</ele><time>2026-04-18T11:49:54.075Z</time></trkpt><trkpt lat="53.3274756" lon="-1.5890714"><ele>419.0</ele><time>2026-04-18T11:49:55.074Z</time></trkpt><trkpt lat="53.3276252" lon="-1.5890429"><ele>419.75</ele><time>2026-04-18T11:49:56.074Z</time></trkpt><trkpt lat="53.3277726" lon="-1.589006"><ele>420.5</ele><time>2026-04-18T11:49:57.074Z</time></trkpt><trkpt lat="53.3279175" lon="-1.5889624"><ele>421.25</ele><time>2026-04-18T11:49:58.074Z</time></trkpt><trkpt lat="53.3280635" lon="-1.5889047"><ele>422.0</ele><time>2026-04-18T11:49:59.074Z</time></trkpt><trkpt lat="53.328213" lon="-1.5888476"><ele>422.75</ele><time>2026-04-18T11:50:00.074Z</time></trkpt><trkpt lat="53.3283601" lon="-1.5887981"><ele>423.5</ele><time>2026-04-18T11:50:01.069Z</time></trkpt><trkpt lat="53.3284958" lon="-1.5887573"><ele>424.25</ele><time>2026-04-18T11:50:02.069Z</time></trkpt><trkpt lat="53.3286159" lon="-1.5887168"><ele>425.0</ele><time>2026-04-18T11:50:03.07Z</time></trkpt><trkpt lat="53.3287231" lon="-1.5886711"><ele>425.0</ele><time>2026-04-18T11:50:04.069Z</time></trkpt><trkpt lat="53.3288294" lon="-1.5886229"><ele>425.0</ele><time>2026-04-18T11:50:05.071Z</time></trkpt><trkpt lat="53.3289399" lon="-1.5885661"><ele>425.0</ele><time>2026-04-18T11:50:06.066Z</time></trkpt><trkpt lat="53.329048" lon="-1.588503"><ele>425.0</ele><time>2026-04-18T11:50:07.07Z</time></trkpt><trkpt lat="53.3291559" lon="-1.588437"><ele>425.0</ele><time>2026-04-18T11:50:08.069Z</time></trkpt><trkpt lat="53.3292501" lon="-1.5883591"><ele>425.0</ele><time>2026-04-18T11:50:09.074Z</time></trkpt><trkpt lat="53.3293232" lon="-1.5882605"><ele>425.0</ele><time>2026-04-18T11:50:10.074Z</time></trkpt><trkpt lat="53.3293764" lon="-1.5881499"><ele>425.0</ele><time>2026-04-18T11:50:11.066Z</time></trkpt><trkpt lat="53.3294217" lon="-1.5880311"><ele>425.0</ele><time>2026-04-18T11:50:12.073Z</time></trkpt><trkpt lat="53.3294674" lon="-1.5879049"><ele>424.0</ele><time>2026-04-18T11:50:13.078Z</time></trkpt><trkpt lat="53.3295188" lon="-1.5877748"><ele>423.0</ele><time>2026-04-18T11:50:14.074Z</time></trkpt><trkpt lat="53.3295764" lon="-1.5876498"><ele>422.0</ele><time>2026-04-18T11:50:15.075Z</time></trkpt><trkpt lat="53.3296424" lon="-1.5875221"><ele>421.0</ele><time>2026-04-18T11:50:16.065Z</time></trkpt><trkpt lat="53.3297211" lon="-1.587383"><ele>420.0</ele><time>2026-04-18T11:50:17.074Z</time></trkpt><trkpt lat="53.3298059" lon="-1.5872453"><ele>419.75</ele><time>2026-04-18T11:50:18.074Z</time></trkpt><trkpt lat="53.3298962" lon="-1.5871148"><ele>419.5</ele><time>2026-04-18T11:50:19.075Z</time></trkpt><trkpt lat="53.3299929" lon="-1.5869918"><ele>419.25</ele><time>2026-04-18T11:50:20.076Z</time></trkpt><trkpt lat="53.3300995" lon="-1.5868758"><ele>419.0</ele><time>2026-04-18T11:50:21.074Z</time></trkpt><trkpt lat="53.3302127" lon="-1.5867719"><ele>417.75</ele><time>2026-04-18T11:50:22.068Z</time></trkpt><trkpt lat="53.330337" lon="-1.5866667"><ele>416.5</ele><time>2026-04-18T11:50:23.077Z</time></trkpt><trkpt lat="53.3304717" lon="-1.5865502"><ele>415.25</ele><time>2026-04-18T11:50:24.075Z</time></trkpt><trkpt lat="53.3306007" lon="-1.5864323"><ele>414.0</ele><time>2026-04-18T11:50:25.076Z</time></trkpt><trkpt lat="53.3307129" lon="-1.5863102"><ele>414.0</ele><time>2026-04-18T11:50:26.074Z</time></trkpt><trkpt lat="53.330825" lon="-1.5861886"><ele>414.0</ele><time>2026-04-18T11:50:27.075Z</time></trkpt><trkpt lat="53.3309464" lon="-1.5860805"><ele>414.0</ele><time>2026-04-18T11:50:28.077Z</time></trkpt><trkpt lat="53.331068" lon="-1.58598"><ele>414.0</ele><time>2026-04-18T11:50:29.076Z</time></trkpt><trkpt lat="53.3311882" lon="-1.5858745"><ele>413.0</ele><time>2026-04-18T11:50:30.074Z</time></trkpt><trkpt lat="53.3313139" lon="-1.5857634"><ele>412.0</ele><time>2026-04-18T11:50:31.068Z</time></trkpt><trkpt lat="53.3314426" lon="-1.5856458"><ele>411.0</ele><time>2026-04-18T11:50:32.073Z</time></trkpt><trkpt lat="53.3315776" lon="-1.5855291"><ele>410.0</ele><time>2026-04-18T11:50:33.076Z</time></trkpt><trkpt lat="53.3317169" lon="-1.5854115"><ele>409.5</ele><time>2026-04-18T11:50:34.074Z</time></trkpt><trkpt lat="53.3318544" lon="-1.5852936"><ele>409.0</ele><time>2026-04-18T11:50:35.073Z</time></trkpt><trkpt lat="53.331987" lon="-1.5851808"><ele>408.5</ele><time>2026-04-18T11:50:36.074Z</time></trkpt><trkpt lat="53.3321159" lon="-1.585082"><ele>408.0</ele><time>2026-04-18T11:50:37.073Z</time></trkpt><trkpt lat="53.3322458" lon="-1.5849882"><ele>408.0</ele><time>2026-04-18T11:50:38.074Z</time></trkpt><trkpt lat="53.3323701" lon="-1.5848784"><ele>408.0</ele><time>2026-04-18T11:50:39.074Z</time></trkpt><trkpt lat="53.3324875" lon="-1.5847494"><ele>408.0</ele><time>2026-04-18T11:50:40.077Z</time></trkpt><trkpt lat="53.3326074" lon="-1.5846188"><ele>408.0</ele><time>2026-04-18T11:50:41.073Z</time></trkpt><trkpt lat="53.3327392" lon="-1.5844969"><ele>408.0</ele><time>2026-04-18T11:50:42.074Z</time></trkpt><trkpt lat="53.3328834" lon="-1.5843787"><ele>408.0</ele><time>2026-04-18T11:50:43.077Z</time></trkpt><trkpt lat="53.3330295" lon="-1.5842534"><ele>408.0</ele><time>2026-04-18T11:50:44.075Z</time></trkpt><trkpt lat="53.333171" lon="-1.5841265"><ele>408.0</ele><time>2026-04-18T11:50:45.074Z</time></trkpt><trkpt lat="53.3333079" lon="-1.5840004"><ele>408.0</ele><time>2026-04-18T11:50:46.075Z</time></trkpt><trkpt lat="53.3334432" lon="-1.583875"><ele>408.0</ele><time>2026-04-18T11:50:47.074Z</time></trkpt><trkpt lat="53.3335758" lon="-1.5837514"><ele>407.25</ele><time>2026-04-18T11:50:48.075Z</time></trkpt><trkpt lat="53.3337004" lon="-1.5836348"><ele>406.5</ele><time>2026-04-18T11:50:49.074Z</time></trkpt><trkpt lat="53.3338116" lon="-1.5835332"><ele>405.75</ele><time>2026-04-18T11:50:50.075Z</time></trkpt><trkpt lat="53.3339128" lon="-1.5834504"><ele>405.0</ele><time>2026-04-18T11:50:51.074Z</time></trkpt><trkpt lat="53.3340018" lon="-1.5833805"><ele>405.0</ele><time>2026-04-18T11:50:52.076Z</time></trkpt><trkpt lat="53.3340816" lon="-1.5833086"><ele>405.0</ele><time>2026-04-18T11:50:53.077Z</time></trkpt><trkpt lat="53.3341642" lon="-1.5832234"><ele>405.0</ele><time>2026-04-18T11:50:54.075Z</time></trkpt><trkpt lat="53.3342562" lon="-1.5831286"><ele>405.0</ele><time>2026-04-18T11:50:55.073Z</time></trkpt><trkpt lat="53.3343579" lon="-1.5830335"><ele>405.0</ele><time>2026-04-18T11:50:56.074Z</time></trkpt><trkpt lat="53.3344669" lon="-1.5829314"><ele>405.5</ele><time>2026-04-18T11:50:57.074Z</time></trkpt><trkpt lat="53.3345799" lon="-1.5828207"><ele>406.0</ele><time>2026-04-18T11:50:58.075Z</time></trkpt><trkpt lat="53.3346982" lon="-1.582699"><ele>406.5</ele><time>2026-04-18T11:50:59.075Z</time></trkpt><trkpt lat="53.3348258" lon="-1.5825722"><ele>407.0</ele><time>2026-04-18T11:51:00.075Z</time></trkpt><trkpt lat="53.3349582" lon="-1.5824433"><ele>407.0</ele><time>2026-04-18T11:51:01.074Z</time></trkpt><trkpt lat="53.3350837" lon="-1.5823167"><ele>407.0</ele><time>2026-04-18T11:51:02.072Z</time></trkpt><trkpt lat="53.3351991" lon="-1.5821936"><ele>407.0</ele><time>2026-04-18T11:51:03.077Z</time></trkpt><trkpt lat="53.3353071" lon="-1.5820801"><ele>407.0</ele><time>2026-04-18T11:51:04.074Z</time></trkpt><trkpt lat="53.3354067" lon="-1.5819874"><ele>406.40000000000003</ele><time>2026-04-18T11:51:05.074Z</time></trkpt><trkpt lat="53.3354985" lon="-1.5819067"><ele>405.8</ele><time>2026-04-18T11:51:06.072Z</time></trkpt><trkpt lat="53.3355869" lon="-1.5818321"><ele>405.2</ele><time>2026-04-18T11:51:07.073Z</time></trkpt><trkpt lat="53.3356731" lon="-1.58177"><ele>404.6</ele><time>2026-04-18T11:51:08.075Z</time></trkpt><trkpt lat="53.3357557" lon="-1.5817098"><ele>404.0</ele><time>2026-04-18T11:51:09.076Z</time></trkpt><trkpt lat="53.335823" lon="-1.5816373"><ele>405.2</ele><time>2026-04-18T11:51:10.076Z</time></trkpt><trkpt lat="53.3358799" lon="-1.5815221"><ele>406.4</ele><time>2026-04-18T11:51:11.074Z</time></trkpt><trkpt lat="53.3359377" lon="-1.5813791"><ele>407.6</ele><time>2026-04-18T11:51:12.072Z</time></trkpt><trkpt lat="53.336002" lon="-1.5812272"><ele>408.8</ele><time>2026-04-18T11:51:13.078Z</time></trkpt><trkpt lat="53.3360683" lon="-1.5810712"><ele>410.0</ele><time>2026-04-18T11:51:14.066Z</time></trkpt><trkpt lat="53.3361338" lon="-1.5809059"><ele>410.0</ele><time>2026-04-18T11:51:15.075Z</time></trkpt><trkpt lat="53.3361993" lon="-1.5807323"><ele>410.0</ele><time>2026-04-18T11:51:16.076Z</time></trkpt><trkpt lat="53.3362651" lon="-1.5805746"><ele>410.0</ele><time>2026-04-18T11:51:17.075Z</time></trkpt><trkpt lat="53.3363287" lon="-1.5804337"><ele>410.0</ele><time>2026-04-18T11:51:18.075Z</time></trkpt><trkpt lat="53.3363876" lon="-1.5802981"><ele>410.0</ele><time>2026-04-18T11:51:19.076Z</time></trkpt><trkpt lat="53.3364458" lon="-1.5801614"><ele>409.2</ele><time>2026-04-18T11:51:20.077Z</time></trkpt><trkpt lat="53.3365047" lon="-1.5800202"><ele>408.4</ele><time>2026-04-18T11:51:21.076Z</time></trkpt><trkpt lat="53.3365627" lon="-1.5798771"><ele>407.6</ele><time>2026-04-18T11:51:22.075Z</time></trkpt><trkpt lat="53.3366211" lon="-1.5797452"><ele>406.8</ele><time>2026-04-18T11:51:23.079Z</time></trkpt><trkpt lat="53.3366788" lon="-1.5796201"><ele>406.0</ele><time>2026-04-18T11:51:24.076Z</time></trkpt><trkpt lat="53.3367353" lon="-1.5794913"><ele>405.4</ele><time>2026-04-18T11:51:25.075Z</time></trkpt><trkpt lat="53.33679" lon="-1.5793543"><ele>404.8</ele><time>2026-04-18T11:51:26.076Z</time></trkpt><trkpt lat="53.3368474" lon="-1.5792116"><ele>404.2</ele><time>2026-04-18T11:51:27.076Z</time></trkpt><trkpt lat="53.3369049" lon="-1.5790761"><ele>403.59999999999997</ele><time>2026-04-18T11:51:28.075Z</time></trkpt><trkpt lat="53.3369622" lon="-1.578946"><ele>403.0</ele><time>2026-04-18T11:51:29.074Z</time></trkpt><trkpt lat="53.3370194" lon="-1.5788138"><ele>402.33333333333337</ele><time>2026-04-18T11:51:30.077Z</time></trkpt><trkpt lat="53.337073" lon="-1.5786813"><ele>401.6666666666667</ele><time>2026-04-18T11:51:31.075Z</time></trkpt><trkpt lat="53.337123" lon="-1.578555"><ele>401.0</ele><time>2026-04-18T11:51:32.076Z</time></trkpt><trkpt lat="53.33717" lon="-1.5784427"><ele>400.33333333333337</ele><time>2026-04-18T11:51:33.08Z</time></trkpt><trkpt lat="53.3372124" lon="-1.5783332"><ele>399.6666666666667</ele><time>2026-04-18T11:51:34.075Z</time></trkpt><trkpt lat="53.3372539" lon="-1.578216"><ele>399.0</ele><time>2026-04-18T11:51:35.076Z</time></trkpt><trkpt lat="53.3372963" lon="-1.5780869"><ele>398.4</ele><time>2026-04-18T11:51:36.076Z</time></trkpt><trkpt lat="53.337345" lon="-1.5779601"><ele>397.79999999999995</ele><time>2026-04-18T11:51:37.076Z</time></trkpt><trkpt lat="53.3374046" lon="-1.5778263"><ele>397.20000000000005</ele><time>2026-04-18T11:51:38.076Z</time></trkpt><trkpt lat="53.3374664" lon="-1.5776787"><ele>396.6</ele><time>2026-04-18T11:51:39.075Z</time></trkpt><trkpt lat="53.3375299" lon="-1.5775355"><ele>396.0</ele><time>2026-04-18T11:51:40.077Z</time></trkpt><trkpt lat="53.337597" lon="-1.5773899"><ele>395.25</ele><time>2026-04-18T11:51:41.075Z</time></trkpt><trkpt lat="53.3376685" lon="-1.5772286"><ele>394.5</ele><time>2026-04-18T11:51:42.075Z</time></trkpt><trkpt lat="53.3377389" lon="-1.5770622"><ele>393.75</ele><time>2026-04-18T11:51:43.079Z</time></trkpt><trkpt lat="53.3378105" lon="-1.5769029"><ele>393.0</ele><time>2026-04-18T11:51:44.075Z</time></trkpt><trkpt lat="53.3378864" lon="-1.5767597"><ele>392.0</ele><time>2026-04-18T11:51:45.075Z</time></trkpt><trkpt lat="53.3379666" lon="-1.5766325"><ele>391.0</ele><time>2026-04-18T11:51:46.076Z</time></trkpt><trkpt lat="53.3380502" lon="-1.5765286"><ele>390.0</ele><time>2026-04-18T11:51:47.077Z</time></trkpt><trkpt lat="53.3381355" lon="-1.5764574"><ele>389.0</ele><time>2026-04-18T11:51:48.078Z</time></trkpt><trkpt lat="53.3382179" lon="-1.5764089"><ele>388.0</ele><time>2026-04-18T11:51:49.072Z</time></trkpt><trkpt lat="53.3382966" lon="-1.5763804"><ele>387.50000000000006</ele><time>2026-04-18T11:51:50.077Z</time></trkpt><trkpt lat="53.3383685" lon="-1.5763567"><ele>387.0</ele><time>2026-04-18T11:51:51.076Z</time></trkpt><trkpt lat="53.3384317" lon="-1.5763273"><ele>386.5</ele><time>2026-04-18T11:51:52.07Z</time></trkpt><trkpt lat="53.3385231" lon="-1.5762325"><ele>386.0</ele><time>2026-04-18T11:51:54.073Z</time></trkpt><trkpt lat="53.33856" lon="-1.5761117"><ele>385.50000000000006</ele><time>2026-04-18T11:51:56.076Z</time></trkpt><trkpt lat="53.3385673" lon="-1.5759588"><ele>385.0</ele><time>2026-04-18T11:51:58.076Z</time></trkpt><trkpt lat="53.3385727" lon="-1.5757892"><ele>384.0</ele><time>2026-04-18T11:52:00.076Z</time></trkpt><trkpt lat="53.3385708" lon="-1.5756821"><ele>383.0</ele><time>2026-04-18T11:52:01.076Z</time></trkpt><trkpt lat="53.3385735" lon="-1.5755507"><ele>382.0</ele><time>2026-04-18T11:52:02.077Z</time></trkpt><trkpt lat="53.3385885" lon="-1.5753954"><ele>381.0</ele><time>2026-04-18T11:52:03.079Z</time></trkpt><trkpt lat="53.3386148" lon="-1.5752139"><ele>380.0</ele><time>2026-04-18T11:52:04.075Z</time></trkpt><trkpt lat="53.3386512" lon="-1.5750115"><ele>378.5</ele><time>2026-04-18T11:52:05.077Z</time></trkpt><trkpt lat="53.3386937" lon="-1.574792"><ele>377.0</ele><time>2026-04-18T11:52:06.076Z</time></trkpt><trkpt lat="53.3387417" lon="-1.5745753"><ele>375.5</ele><time>2026-04-18T11:52:07.077Z</time></trkpt><trkpt lat="53.3388025" lon="-1.5743785"><ele>374.0</ele><time>2026-04-18T11:52:08.078Z</time></trkpt><trkpt lat="53.338881" lon="-1.5741933"><ele>374.75</ele><time>2026-04-18T11:52:09.073Z</time></trkpt><trkpt lat="53.3389691" lon="-1.5740102"><ele>375.5</ele><time>2026-04-18T11:52:10.076Z</time></trkpt><trkpt lat="53.3390573" lon="-1.5738214"><ele>376.25</ele><time>2026-04-18T11:52:11.074Z</time></trkpt><trkpt lat="53.3391417" lon="-1.5736288"><ele>377.0</ele><time>2026-04-18T11:52:12.074Z</time></trkpt><trkpt lat="53.3392241" lon="-1.5734374"><ele>377.0</ele><time>2026-04-18T11:52:13.08Z</time></trkpt><trkpt lat="53.339301" lon="-1.5732559"><ele>377.0</ele><time>2026-04-18T11:52:14.075Z</time></trkpt><trkpt lat="53.339369" lon="-1.5730991"><ele>377.0</ele><time>2026-04-18T11:52:15.077Z</time></trkpt><trkpt lat="53.3394249" lon="-1.5729662"><ele>377.0</ele><time>2026-04-18T11:52:16.076Z</time></trkpt><trkpt lat="53.3394703" lon="-1.5728591"><ele>377.0</ele><time>2026-04-18T11:52:17.075Z</time></trkpt><trkpt lat="53.3395159" lon="-1.5727577"><ele>377.0</ele><time>2026-04-18T11:52:18.077Z</time></trkpt><trkpt lat="53.3395685" lon="-1.5726485"><ele>377.0</ele><time>2026-04-18T11:52:19.077Z</time></trkpt><trkpt lat="53.3396249" lon="-1.5725392"><ele>377.0</ele><time>2026-04-18T11:52:20.077Z</time></trkpt><trkpt lat="53.3396854" lon="-1.57243"><ele>377.0</ele><time>2026-04-18T11:52:21.075Z</time></trkpt><trkpt lat="53.3397472" lon="-1.5723113"><ele>377.0</ele><time>2026-04-18T11:52:22.075Z</time></trkpt><trkpt lat="53.33981" lon="-1.5721801"><ele>377.0</ele><time>2026-04-18T11:52:23.079Z</time></trkpt><trkpt lat="53.3398727" lon="-1.5720316"><ele>377.0</ele><time>2026-04-18T11:52:24.076Z</time></trkpt><trkpt lat="53.3399362" lon="-1.5718679"><ele>377.0</ele><time>2026-04-18T11:52:25.077Z</time></trkpt><trkpt lat="53.340001" lon="-1.5717053"><ele>377.0</ele><time>2026-04-18T11:52:26.074Z</time></trkpt><trkpt lat="53.3400661" lon="-1.5715563"><ele>376.8</ele><time>2026-04-18T11:52:27.077Z</time></trkpt><trkpt lat="53.3401297" lon="-1.5714056"><ele>376.6</ele><time>2026-04-18T11:52:28.076Z</time></trkpt><trkpt lat="53.3401894" lon="-1.5712514"><ele>376.40000000000003</ele><time>2026-04-18T11:52:29.074Z</time></trkpt><trkpt lat="53.3402401" lon="-1.5711109"><ele>376.20000000000005</ele><time>2026-04-18T11:52:30.075Z</time></trkpt><trkpt lat="53.3402824" lon="-1.5709968"><ele>376.0</ele><time>2026-04-18T11:52:31.071Z</time></trkpt><trkpt lat="53.3403256" lon="-1.5708997"><ele>375.8333333333333</ele><time>2026-04-18T11:52:32.072Z</time></trkpt><trkpt lat="53.3403735" lon="-1.5708116"><ele>375.66666666666663</ele><time>2026-04-18T11:52:33.074Z</time></trkpt><trkpt lat="53.3404349" lon="-1.5707233"><ele>375.5</ele><time>2026-04-18T11:52:34.072Z</time></trkpt><trkpt lat="53.3405075" lon="-1.5706436"><ele>375.3333333333333</ele><time>2026-04-18T11:52:35.072Z</time></trkpt><trkpt lat="53.3405842" lon="-1.5705813"><ele>375.1666666666667</ele><time>2026-04-18T11:52:36.071Z</time></trkpt><trkpt lat="53.340661" lon="-1.5705174"><ele>375.0</ele><time>2026-04-18T11:52:37.071Z</time></trkpt><trkpt lat="53.3407283" lon="-1.5704608"><ele>375.4</ele><time>2026-04-18T11:52:38.073Z</time></trkpt><trkpt lat="53.340831" lon="-1.57038"><ele>375.8</ele><time>2026-04-18T11:52:40.074Z</time></trkpt><trkpt lat="53.3409312" lon="-1.5703059"><ele>376.20000000000005</ele><time>2026-04-18T11:52:42.074Z</time></trkpt><trkpt lat="53.3409965" lon="-1.5702543"><ele>376.6</ele><time>2026-04-18T11:52:43.076Z</time></trkpt><trkpt lat="53.3410613" lon="-1.5702014"><ele>377.0</ele><time>2026-04-18T11:52:44.075Z</time></trkpt><trkpt lat="53.3411494" lon="-1.5701298"><ele>377.0</ele><time>2026-04-18T11:52:46.077Z</time></trkpt><trkpt lat="53.3412148" lon="-1.5700841"><ele>377.0</ele><time>2026-04-18T11:52:48.077Z</time></trkpt><trkpt lat="53.3412943" lon="-1.5700167"><ele>377.0</ele><time>2026-04-18T11:52:50.076Z</time></trkpt><trkpt lat="53.3413941" lon="-1.5699375"><ele>377.0</ele><time>2026-04-18T11:52:52.077Z</time></trkpt><trkpt lat="53.3414545" lon="-1.5698866"><ele>377.0</ele><time>2026-04-18T11:52:53.082Z</time></trkpt><trkpt lat="53.3415231" lon="-1.5698279"><ele>377.0</ele><time>2026-04-18T11:52:54.077Z</time></trkpt><trkpt lat="53.3416" lon="-1.5697621"><ele>377.33333333333337</ele><time>2026-04-18T11:52:55.076Z</time></trkpt><trkpt lat="53.3416805" lon="-1.5696927"><ele>377.6666666666667</ele><time>2026-04-18T11:52:56.078Z</time></trkpt><trkpt lat="53.3417576" lon="-1.5696278"><ele>378.0</ele><time>2026-04-18T11:52:57.078Z</time></trkpt><trkpt lat="53.3418345" lon="-1.569572"><ele>378.3333333333333</ele><time>2026-04-18T11:52:58.078Z</time></trkpt><trkpt lat="53.3419111" lon="-1.5695199"><ele>378.66666666666663</ele><time>2026-04-18T11:52:59.076Z</time></trkpt><trkpt lat="53.3419865" lon="-1.5694697"><ele>379.0</ele><time>2026-04-18T11:53:00.072Z</time></trkpt><trkpt lat="53.3420534" lon="-1.569426"><ele>378.2</ele><time>2026-04-18T11:53:01.075Z</time></trkpt><trkpt lat="53.3421424" lon="-1.5693634"><ele>377.4</ele><time>2026-04-18T11:53:03.077Z</time></trkpt><trkpt lat="53.3422074" lon="-1.5693262"><ele>376.6</ele><time>2026-04-18T11:53:15.076Z</time></trkpt><trkpt lat="53.3422721" lon="-1.5692438"><ele>375.8</ele><time>2026-04-18T11:53:18.077Z</time></trkpt><trkpt lat="53.3423913" lon="-1.569139"><ele>375.0</ele><time>2026-04-18T11:53:20.078Z</time></trkpt><trkpt lat="53.3424615" lon="-1.5690735"><ele>375.0</ele><time>2026-04-18T11:53:21.076Z</time></trkpt><trkpt lat="53.3425363" lon="-1.5690104"><ele>375.0</ele><time>2026-04-18T11:53:22.077Z</time></trkpt><trkpt lat="53.3426058" lon="-1.5689565"><ele>375.0</ele><time>2026-04-18T11:53:23.079Z</time></trkpt><trkpt lat="53.3426682" lon="-1.5689062"><ele>375.0</ele><time>2026-04-18T11:53:24.076Z</time></trkpt><trkpt lat="53.3427252" lon="-1.5688566"><ele>375.0</ele><time>2026-04-18T11:53:25.071Z</time></trkpt><trkpt lat="53.3428244" lon="-1.5687712"><ele>375.0</ele><time>2026-04-18T11:53:27.076Z</time></trkpt><trkpt lat="53.3428871" lon="-1.5687076"><ele>375.0</ele><time>2026-04-18T11:53:28.078Z</time></trkpt><trkpt lat="53.3429819" lon="-1.5686187"><ele>375.0</ele><time>2026-04-18T11:53:29.078Z</time></trkpt><trkpt lat="53.3431185" lon="-1.5685003"><ele>375.0</ele><time>2026-04-18T11:53:30.078Z</time></trkpt><trkpt lat="53.3432787" lon="-1.5683681"><ele>375.0</ele><time>2026-04-18T11:53:31.076Z</time></trkpt><trkpt lat="53.3434318" lon="-1.5682476"><ele>375.0</ele><time>2026-04-18T11:53:32.077Z</time></trkpt><trkpt lat="53.3435673" lon="-1.5681386"><ele>375.0</ele><time>2026-04-18T11:53:33.079Z</time></trkpt><trkpt lat="53.3436882" lon="-1.5680387"><ele>375.0</ele><time>2026-04-18T11:53:34.076Z</time></trkpt><trkpt lat="53.3438076" lon="-1.5679492"><ele>375.0</ele><time>2026-04-18T11:53:35.076Z</time></trkpt><trkpt lat="53.3439331" lon="-1.5678662"><ele>373.75</ele><time>2026-04-18T11:53:36.076Z</time></trkpt><trkpt lat="53.3440625" lon="-1.5677748"><ele>372.5</ele><time>2026-04-18T11:53:37.074Z</time></trkpt><trkpt lat="53.3441886" lon="-1.567676"><ele>371.25</ele><time>2026-04-18T11:53:38.075Z</time></trkpt><trkpt lat="53.3443048" lon="-1.5675709"><ele>370.0</ele><time>2026-04-18T11:53:39.076Z</time></trkpt><trkpt lat="53.3444137" lon="-1.5674597"><ele>370.0</ele><time>2026-04-18T11:53:40.075Z</time></trkpt><trkpt lat="53.3445224" lon="-1.5673441"><ele>370.0</ele><time>2026-04-18T11:53:41.076Z</time></trkpt><trkpt lat="53.3446341" lon="-1.5672259"><ele>370.0</ele><time>2026-04-18T11:53:42.072Z</time></trkpt><trkpt lat="53.3447536" lon="-1.5671154"><ele>370.0</ele><time>2026-04-18T11:53:43.077Z</time></trkpt><trkpt lat="53.3448791" lon="-1.5670211"><ele>368.8</ele><time>2026-04-18T11:53:44.076Z</time></trkpt><trkpt lat="53.3449951" lon="-1.5669405"><ele>367.6</ele><time>2026-04-18T11:53:45.076Z</time></trkpt><trkpt lat="53.3450865" lon="-1.566873"><ele>366.4</ele><time>2026-04-18T11:53:46.075Z</time></trkpt><trkpt lat="53.3451648" lon="-1.5668224"><ele>365.2</ele><time>2026-04-18T11:53:47.076Z</time></trkpt><trkpt lat="53.3452444" lon="-1.5667879"><ele>364.0</ele><time>2026-04-18T11:53:48.076Z</time></trkpt><trkpt lat="53.3453172" lon="-1.5667621"><ele>364.0</ele><time>2026-04-18T11:53:49.076Z</time></trkpt><trkpt lat="53.345386" lon="-1.5667287"><ele>364.0</ele><time>2026-04-18T11:53:50.078Z</time></trkpt><trkpt lat="53.3454502" lon="-1.5666915"><ele>364.0</ele><time>2026-04-18T11:53:51.076Z</time></trkpt><trkpt lat="53.3455185" lon="-1.5666584"><ele>364.0</ele><time>2026-04-18T11:53:52.077Z</time></trkpt><trkpt lat="53.3456033" lon="-1.5666182"><ele>364.0</ele><time>2026-04-18T11:53:53.079Z</time></trkpt><trkpt lat="53.3456984" lon="-1.5665545"><ele>364.0</ele><time>2026-04-18T11:53:54.076Z</time></trkpt><trkpt lat="53.3457975" lon="-1.5664722"><ele>364.0</ele><time>2026-04-18T11:53:55.076Z</time></trkpt><trkpt lat="53.345897" lon="-1.5663975"><ele>364.0</ele><time>2026-04-18T11:53:56.077Z</time></trkpt><trkpt lat="53.3459942" lon="-1.566336"><ele>364.0</ele><time>2026-04-18T11:53:57.077Z</time></trkpt><trkpt lat="53.3460856" lon="-1.5662848"><ele>364.0</ele><time>2026-04-18T11:53:58.076Z</time></trkpt><trkpt lat="53.34617" lon="-1.5662392"><ele>364.0</ele><time>2026-04-18T11:53:59.067Z</time></trkpt><trkpt lat="53.3462448" lon="-1.5661949"><ele>362.0</ele><time>2026-04-18T11:54:00.067Z</time></trkpt><trkpt lat="53.3463097" lon="-1.5661543"><ele>360.0</ele><time>2026-04-18T11:54:01.077Z</time></trkpt><trkpt lat="53.3464226" lon="-1.5661062"><ele>358.0</ele><time>2026-04-18T11:54:03.077Z</time></trkpt><trkpt lat="53.346523" lon="-1.5660829"><ele>356.0</ele><time>2026-04-18T11:54:05.078Z</time></trkpt><trkpt lat="53.3466346" lon="-1.566055"><ele>354.0</ele><time>2026-04-18T11:54:07.076Z</time></trkpt><trkpt lat="53.3467484" lon="-1.5660158"><ele>350.0</ele><time>2026-04-18T11:54:09.077Z</time></trkpt><trkpt lat="53.346862" lon="-1.565966"><ele>350.0</ele><time>2026-04-18T11:54:11.074Z</time></trkpt><trkpt lat="53.3469647" lon="-1.5659016"><ele>350.0</ele><time>2026-04-18T11:54:13.079Z</time></trkpt><trkpt lat="53.3470216" lon="-1.5657984"><ele>350.0</ele><time>2026-04-18T11:54:15.075Z</time></trkpt></trkseg></trk></gpx>